﻿<?xml version="1.0" encoding="utf-8"?><gpx creator="Garmin Desktop App" version="1.1" xsi:schemaLocation="http://www.topografix.com/GPX/1/1 http://www.topografix.com/GPX/1/1/gpx.xsd http://www.garmin.com/xmlschemas/WaypointExtension/v1 http://www8.garmin.com/xmlschemas/WaypointExtensionv1.xsd http://www.garmin.com/xmlschemas/TrackPointExtension/v1 http://www.garmin.com/xmlschemas/TrackPointExtensionv1.xsd http://www.garmin.com/xmlschemas/GpxExtensions/v3 http://www8.garmin.com/xmlschemas/GpxExtensionsv3.xsd http://www.garmin.com/xmlschemas/ActivityExtension/v1 http://www8.garmin.com/xmlschemas/ActivityExtensionv1.xsd http://www.garmin.com/xmlschemas/AdventuresExtensions/v1 http://www8.garmin.com/xmlschemas/AdventuresExtensionv1.xsd http://www.garmin.com/xmlschemas/PressureExtension/v1 http://www.garmin.com/xmlschemas/PressureExtensionv1.xsd http://www.garmin.com/xmlschemas/TripExtensions/v1 http://www.garmin.com/xmlschemas/TripExtensionsv1.xsd http://www.garmin.com/xmlschemas/TripMetaDataExtensions/v1 http://www.garmin.com/xmlschemas/TripMetaDataExtensionsv1.xsd http://www.garmin.com/xmlschemas/ViaPointTransportationModeExtensions/v1 http://www.garmin.com/xmlschemas/ViaPointTransportationModeExtensionsv1.xsd http://www.garmin.com/xmlschemas/CreationTimeExtension/v1 http://www.garmin.com/xmlschemas/CreationTimeExtensionsv1.xsd http://www.garmin.com/xmlschemas/AccelerationExtension/v1 http://www.garmin.com/xmlschemas/AccelerationExtensionv1.xsd http://www.garmin.com/xmlschemas/PowerExtension/v1 http://www.garmin.com/xmlschemas/PowerExtensionv1.xsd http://www.garmin.com/xmlschemas/VideoExtension/v1 http://www.garmin.com/xmlschemas/VideoExtensionv1.xsd" xmlns="http://www.topografix.com/GPX/1/1" xmlns:xsi="http://www.w3.org/2001/XMLSchema-instance" xmlns:wptx1="http://www.garmin.com/xmlschemas/WaypointExtension/v1" xmlns:gpxtrx="http://www.garmin.com/xmlschemas/GpxExtensions/v3" xmlns:gpxtpx="http://www.garmin.com/xmlschemas/TrackPointExtension/v1" xmlns:gpxx="http://www.garmin.com/xmlschemas/GpxExtensions/v3" xmlns:trp="http://www.garmin.com/xmlschemas/TripExtensions/v1" xmlns:adv="http://www.garmin.com/xmlschemas/AdventuresExtensions/v1" xmlns:prs="http://www.garmin.com/xmlschemas/PressureExtension/v1" xmlns:tmd="http://www.garmin.com/xmlschemas/TripMetaDataExtensions/v1" xmlns:vptm="http://www.garmin.com/xmlschemas/ViaPointTransportationModeExtensions/v1" xmlns:ctx="http://www.garmin.com/xmlschemas/CreationTimeExtension/v1" xmlns:gpxacc="http://www.garmin.com/xmlschemas/AccelerationExtension/v1" xmlns:gpxpx="http://www.garmin.com/xmlschemas/PowerExtension/v1" xmlns:vidx1="http://www.garmin.com/xmlschemas/VideoExtension/v1">

  <metadata>
    <link href="http://www.garmin.com">
      <text>Garmin International</text>
    </link>
    <time>2026-09-01T16:57:54Z</time>
    <bounds maxlat="50.861075883731246" maxlon="13.54241338558495" minlat="50.649292347952724" minlon="13.063422907143831" />
  </metadata>

  <trk>
    <name>2026_08_29_Floha_Honzík</name>
    <extensions>
      <gpxx:TrackExtension>
        <gpxx:DisplayColor>DarkGray</gpxx:DisplayColor>
      </gpxx:TrackExtension>
    </extensions>
    <trkseg>
      <trkpt lat="50.707278521731496" lon="13.542331913486123">
        <ele>642</ele>
        <time>2026-08-29T06:30:05Z</time>
      </trkpt>
      <trkpt lat="50.707260416820645" lon="13.542315568774939">
        <ele>643</ele>
        <time>2026-08-29T06:30:06Z</time>
      </trkpt>
      <trkpt lat="50.707243904471397" lon="13.542309366166592">
        <ele>642</ele>
        <time>2026-08-29T06:30:07Z</time>
      </trkpt>
      <trkpt lat="50.70722596719861" lon="13.542305929586291">
        <ele>643</ele>
        <time>2026-08-29T06:30:08Z</time>
      </trkpt>
      <trkpt lat="50.70721423253417" lon="13.542310371994972">
        <ele>643</ele>
        <time>2026-08-29T06:30:09Z</time>
      </trkpt>
      <trkpt lat="50.707198139280081" lon="13.542316323146224">
        <ele>644</ele>
        <time>2026-08-29T06:30:10Z</time>
      </trkpt>
      <trkpt lat="50.707184560596943" lon="13.542310288175941">
        <ele>643</ele>
        <time>2026-08-29T06:30:11Z</time>
      </trkpt>
      <trkpt lat="50.707173412665725" lon="13.542311126366258">
        <ele>642</ele>
        <time>2026-08-29T06:30:12Z</time>
      </trkpt>
      <trkpt lat="50.707158409059048" lon="13.542323280125856">
        <ele>641</ele>
        <time>2026-08-29T06:30:13Z</time>
      </trkpt>
      <trkpt lat="50.707148937508464" lon="13.54233467951417">
        <ele>641</ele>
        <time>2026-08-29T06:30:14Z</time>
      </trkpt>
      <trkpt lat="50.707137789577246" lon="13.542340965941548">
        <ele>642</ele>
        <time>2026-08-29T06:30:15Z</time>
      </trkpt>
      <trkpt lat="50.707125971093774" lon="13.542351108044386">
        <ele>642</ele>
        <time>2026-08-29T06:30:16Z</time>
      </trkpt>
      <trkpt lat="50.707116331905127" lon="13.542375918477774">
        <ele>643</ele>
        <time>2026-08-29T06:30:17Z</time>
      </trkpt>
      <trkpt lat="50.707104597240686" lon="13.542405087500811">
        <ele>643</ele>
        <time>2026-08-29T06:30:18Z</time>
      </trkpt>
      <trkpt lat="50.707086240872741" lon="13.54241338558495">
        <ele>643</ele>
        <time>2026-08-29T06:30:19Z</time>
      </trkpt>
      <trkpt lat="50.70706126280129" lon="13.542412631213665">
        <ele>643</ele>
        <time>2026-08-29T06:30:20Z</time>
      </trkpt>
      <trkpt lat="50.707040559500456" lon="13.54240408167243">
        <ele>643</ele>
        <time>2026-08-29T06:30:21Z</time>
      </trkpt>
      <trkpt lat="50.707019940018654" lon="13.542391089722514">
        <ele>643</ele>
        <time>2026-08-29T06:30:22Z</time>
      </trkpt>
      <trkpt lat="50.707000913098454" lon="13.542374493554235">
        <ele>643</ele>
        <time>2026-08-29T06:30:23Z</time>
      </trkpt>
      <trkpt lat="50.706983227282763" lon="13.542339205741882">
        <ele>643</ele>
        <time>2026-08-29T06:30:24Z</time>
      </trkpt>
      <trkpt lat="50.706963278353214" lon="13.542297631502151">
        <ele>643</ele>
        <time>2026-08-29T06:30:25Z</time>
      </trkpt>
      <trkpt lat="50.706944838166237" lon="13.542254716157913">
        <ele>643</ele>
        <time>2026-08-29T06:30:26Z</time>
      </trkpt>
      <trkpt lat="50.706920865923166" lon="13.542213058099151">
        <ele>642</ele>
        <time>2026-08-29T06:30:27Z</time>
      </trkpt>
      <trkpt lat="50.706894379109144" lon="13.542163353413343">
        <ele>642</ele>
        <time>2026-08-29T06:30:28Z</time>
      </trkpt>
      <trkpt lat="50.706857079640031" lon="13.542142147198319">
        <ele>643</ele>
        <time>2026-08-29T06:30:29Z</time>
      </trkpt>
      <trkpt lat="50.70683017373085" lon="13.542111050337553">
        <ele>644</ele>
        <time>2026-08-29T06:30:30Z</time>
      </trkpt>
      <trkpt lat="50.706801507622004" lon="13.542061764746904">
        <ele>643</ele>
        <time>2026-08-29T06:30:31Z</time>
      </trkpt>
      <trkpt lat="50.706769740208983" lon="13.542015831917524">
        <ele>644</ele>
        <time>2026-08-29T06:30:32Z</time>
      </trkpt>
      <trkpt lat="50.706740990281105" lon="13.54196771979332">
        <ele>644</ele>
        <time>2026-08-29T06:30:33Z</time>
      </trkpt>
      <trkpt lat="50.706702517345548" lon="13.541939556598663">
        <ele>646</ele>
        <time>2026-08-29T06:30:34Z</time>
      </trkpt>
      <trkpt lat="50.706671504303813" lon="13.541912902146578">
        <ele>648</ele>
        <time>2026-08-29T06:30:35Z</time>
      </trkpt>
      <trkpt lat="50.706653064116836" lon="13.541849870234728">
        <ele>647</ele>
        <time>2026-08-29T06:30:36Z</time>
      </trkpt>
      <trkpt lat="50.70665574632585" lon="13.541790442541242">
        <ele>647</ele>
        <time>2026-08-29T06:30:37Z</time>
      </trkpt>
      <trkpt lat="50.706673851236701" lon="13.541715340688825">
        <ele>648</ele>
        <time>2026-08-29T06:30:38Z</time>
      </trkpt>
      <trkpt lat="50.706688854843378" lon="13.541650464758277">
        <ele>648</ele>
        <time>2026-08-29T06:30:39Z</time>
      </trkpt>
      <trkpt lat="50.706711150705814" lon="13.541576368734241">
        <ele>647</ele>
        <time>2026-08-29T06:30:40Z</time>
      </trkpt>
      <trkpt lat="50.706733111292124" lon="13.541512917727232">
        <ele>647</ele>
        <time>2026-08-29T06:30:41Z</time>
      </trkpt>
      <trkpt lat="50.706762531772256" lon="13.541450640186667">
        <ele>647</ele>
        <time>2026-08-29T06:30:42Z</time>
      </trkpt>
      <trkpt lat="50.70678667165339" lon="13.541372520849109">
        <ele>647</ele>
        <time>2026-08-29T06:30:43Z</time>
      </trkpt>
      <trkpt lat="50.70681206882" lon="13.541301274672151">
        <ele>647</ele>
        <time>2026-08-29T06:30:44Z</time>
      </trkpt>
      <trkpt lat="50.706835119053721" lon="13.541235728189349">
        <ele>647</ele>
        <time>2026-08-29T06:30:45Z</time>
      </trkpt>
      <trkpt lat="50.706858839839697" lon="13.541161213070154">
        <ele>647</ele>
        <time>2026-08-29T06:30:46Z</time>
      </trkpt>
      <trkpt lat="50.706883147358894" lon="13.541113687679172">
        <ele>646</ele>
        <time>2026-08-29T06:30:47Z</time>
      </trkpt>
      <trkpt lat="50.706903766840696" lon="13.541060630232096">
        <ele>646</ele>
        <time>2026-08-29T06:30:48Z</time>
      </trkpt>
      <trkpt lat="50.706927319988608" lon="13.540997849777341">
        <ele>647</ele>
        <time>2026-08-29T06:30:49Z</time>
      </trkpt>
      <trkpt lat="50.70694450289011" lon="13.540941774845123">
        <ele>647</ele>
        <time>2026-08-29T06:30:50Z</time>
      </trkpt>
      <trkpt lat="50.70695816539228" lon="13.540886705741286">
        <ele>647</ele>
        <time>2026-08-29T06:30:51Z</time>
      </trkpt>
      <trkpt lat="50.706978868693113" lon="13.540845550596714">
        <ele>646</ele>
        <time>2026-08-29T06:30:52Z</time>
      </trkpt>
      <trkpt lat="50.706997979432344" lon="13.540800623595715">
        <ele>646</ele>
        <time>2026-08-29T06:30:53Z</time>
      </trkpt>
      <trkpt lat="50.707019353285432" lon="13.540745386853814">
        <ele>646</ele>
        <time>2026-08-29T06:30:54Z</time>
      </trkpt>
      <trkpt lat="50.707041649147868" lon="13.540688557550311">
        <ele>646</ele>
        <time>2026-08-29T06:30:55Z</time>
      </trkpt>
      <trkpt lat="50.707063106819987" lon="13.540635500103235">
        <ele>645</ele>
        <time>2026-08-29T06:30:56Z</time>
      </trkpt>
      <trkpt lat="50.707077439874411" lon="13.540574731305242">
        <ele>645</ele>
        <time>2026-08-29T06:30:57Z</time>
      </trkpt>
      <trkpt lat="50.70709646679461" lon="13.540519243106246">
        <ele>645</ele>
        <time>2026-08-29T06:30:58Z</time>
      </trkpt>
      <trkpt lat="50.707111721858382" lon="13.540466437116265">
        <ele>645</ele>
        <time>2026-08-29T06:30:59Z</time>
      </trkpt>
      <trkpt lat="50.707129910588264" lon="13.540411116555333">
        <ele>645</ele>
        <time>2026-08-29T06:31:00Z</time>
      </trkpt>
      <trkpt lat="50.707143321633339" lon="13.54035914875567">
        <ele>645</ele>
        <time>2026-08-29T06:31:01Z</time>
      </trkpt>
      <trkpt lat="50.70715949870646" lon="13.54031179100275">
        <ele>645</ele>
        <time>2026-08-29T06:31:02Z</time>
      </trkpt>
      <trkpt lat="50.707172323018312" lon="13.540265103802085">
        <ele>645</ele>
        <time>2026-08-29T06:31:03Z</time>
      </trkpt>
      <trkpt lat="50.707184225320816" lon="13.540221098810434">
        <ele>645</ele>
        <time>2026-08-29T06:31:04Z</time>
      </trkpt>
      <trkpt lat="50.707203252241015" lon="13.540181452408433">
        <ele>645</ele>
        <time>2026-08-29T06:31:05Z</time>
      </trkpt>
      <trkpt lat="50.707222279161215" lon="13.540144991129637">
        <ele>645</ele>
        <time>2026-08-29T06:31:06Z</time>
      </trkpt>
      <trkpt lat="50.707235438749194" lon="13.540106350556016">
        <ele>645</ele>
        <time>2026-08-29T06:31:07Z</time>
      </trkpt>
      <trkpt lat="50.70724599994719" lon="13.540069554001093">
        <ele>645</ele>
        <time>2026-08-29T06:31:08Z</time>
      </trkpt>
      <trkpt lat="50.707252202555537" lon="13.540035774931312">
        <ele>644</ele>
        <time>2026-08-29T06:31:09Z</time>
      </trkpt>
      <trkpt lat="50.707264943048358" lon="13.539995960891247">
        <ele>644</ele>
        <time>2026-08-29T06:31:10Z</time>
      </trkpt>
      <trkpt lat="50.707272989675403" lon="13.539954554289579">
        <ele>644</ele>
        <time>2026-08-29T06:31:11Z</time>
      </trkpt>
      <trkpt lat="50.707275839522481" lon="13.539914321154356">
        <ele>644</ele>
        <time>2026-08-29T06:31:12Z</time>
      </trkpt>
      <trkpt lat="50.707278354093432" lon="13.539879871532321">
        <ele>644</ele>
        <time>2026-08-29T06:31:13Z</time>
      </trkpt>
      <trkpt lat="50.707279108464718" lon="13.539849109947681">
        <ele>644</ele>
        <time>2026-08-29T06:31:14Z</time>
      </trkpt>
      <trkpt lat="50.707286568358541" lon="13.539822120219469">
        <ele>644</ele>
        <time>2026-08-29T06:31:15Z</time>
      </trkpt>
      <trkpt lat="50.707286149263382" lon="13.539788844063878">
        <ele>644</ele>
        <time>2026-08-29T06:31:16Z</time>
      </trkpt>
      <trkpt lat="50.707297632470727" lon="13.539772666990757">
        <ele>643</ele>
        <time>2026-08-29T06:31:17Z</time>
      </trkpt>
      <trkpt lat="50.707301907241344" lon="13.539744168519974">
        <ele>643</ele>
        <time>2026-08-29T06:31:18Z</time>
      </trkpt>
      <trkpt lat="50.707301571965218" lon="13.539714748039842">
        <ele>643</ele>
        <time>2026-08-29T06:31:19Z</time>
      </trkpt>
      <trkpt lat="50.70730609819293" lon="13.539690440520644">
        <ele>643</ele>
        <time>2026-08-29T06:31:20Z</time>
      </trkpt>
      <trkpt lat="50.707308361306787" lon="13.539660014212132">
        <ele>643</ele>
        <time>2026-08-29T06:31:21Z</time>
      </trkpt>
      <trkpt lat="50.707308109849691" lon="13.53963453322649">
        <ele>643</ele>
        <time>2026-08-29T06:31:22Z</time>
      </trkpt>
      <trkpt lat="50.707307271659374" lon="13.53961106389761">
        <ele>643</ele>
        <time>2026-08-29T06:31:23Z</time>
      </trkpt>
      <trkpt lat="50.707309115678072" lon="13.539590025320649">
        <ele>643</ele>
        <time>2026-08-29T06:31:24Z</time>
      </trkpt>
      <trkpt lat="50.707307858392596" lon="13.539569657295942">
        <ele>643</ele>
        <time>2026-08-29T06:31:25Z</time>
      </trkpt>
      <trkpt lat="50.707302410155535" lon="13.539544679224491">
        <ele>642</ele>
        <time>2026-08-29T06:31:26Z</time>
      </trkpt>
      <trkpt lat="50.707295453175902" lon="13.539510732516646">
        <ele>642</ele>
        <time>2026-08-29T06:31:27Z</time>
      </trkpt>
      <trkpt lat="50.707277432084084" lon="13.539481479674578">
        <ele>643</ele>
        <time>2026-08-29T06:31:28Z</time>
      </trkpt>
      <trkpt lat="50.70725379511714" lon="13.539459854364395">
        <ele>643</ele>
        <time>2026-08-29T06:31:29Z</time>
      </trkpt>
      <trkpt lat="50.707223452627659" lon="13.539446275681257">
        <ele>643</ele>
        <time>2026-08-29T06:31:30Z</time>
      </trkpt>
      <trkpt lat="50.707188080996275" lon="13.539439737796783">
        <ele>643</ele>
        <time>2026-08-29T06:31:31Z</time>
      </trkpt>
      <trkpt lat="50.707159917801619" lon="13.539434289559722">
        <ele>643</ele>
        <time>2026-08-29T06:31:32Z</time>
      </trkpt>
      <trkpt lat="50.70712722837925" lon="13.539427584037185">
        <ele>643</ele>
        <time>2026-08-29T06:31:33Z</time>
      </trkpt>
      <trkpt lat="50.707091940566897" lon="13.539415011182427">
        <ele>642</ele>
        <time>2026-08-29T06:31:34Z</time>
      </trkpt>
      <trkpt lat="50.707061849534512" lon="13.539401683956385">
        <ele>642</ele>
        <time>2026-08-29T06:31:35Z</time>
      </trkpt>
      <trkpt lat="50.707026561722159" lon="13.53938776999712">
        <ele>643</ele>
        <time>2026-08-29T06:31:36Z</time>
      </trkpt>
      <trkpt lat="50.7069899328053" lon="13.539376789703965">
        <ele>643</ele>
        <time>2026-08-29T06:31:37Z</time>
      </trkpt>
      <trkpt lat="50.706956153735518" lon="13.53936237283051">
        <ele>644</ele>
        <time>2026-08-29T06:31:38Z</time>
      </trkpt>
      <trkpt lat="50.70693084038794" lon="13.539326079189777">
        <ele>644</ele>
        <time>2026-08-29T06:31:39Z</time>
      </trkpt>
      <trkpt lat="50.70690929889679" lon="13.539293389767408">
        <ele>644</ele>
        <time>2026-08-29T06:31:40Z</time>
      </trkpt>
      <trkpt lat="50.70689370855689" lon="13.539240751415491">
        <ele>644</ele>
        <time>2026-08-29T06:31:41Z</time>
      </trkpt>
      <trkpt lat="50.706867892295122" lon="13.539203703403473">
        <ele>646</ele>
        <time>2026-08-29T06:31:42Z</time>
      </trkpt>
      <trkpt lat="50.706848027184606" lon="13.53916497901082">
        <ele>647</ele>
        <time>2026-08-29T06:31:43Z</time>
      </trkpt>
      <trkpt lat="50.706828078255057" lon="13.539115777239203">
        <ele>647</ele>
        <time>2026-08-29T06:31:44Z</time>
      </trkpt>
      <trkpt lat="50.706809386610985" lon="13.539057187736034">
        <ele>647</ele>
        <time>2026-08-29T06:31:45Z</time>
      </trkpt>
      <trkpt lat="50.706787509843707" lon="13.539000861346722">
        <ele>648</ele>
        <time>2026-08-29T06:31:46Z</time>
      </trkpt>
      <trkpt lat="50.706769656389952" lon="13.538942942395806">
        <ele>649</ele>
        <time>2026-08-29T06:31:47Z</time>
      </trkpt>
      <trkpt lat="50.706757418811321" lon="13.538887118920684">
        <ele>649</ele>
        <time>2026-08-29T06:31:48Z</time>
      </trkpt>
      <trkpt lat="50.706743085756898" lon="13.538829451426864">
        <ele>649</ele>
        <time>2026-08-29T06:31:49Z</time>
      </trkpt>
      <trkpt lat="50.706727914512157" lon="13.538773460313678">
        <ele>649</ele>
        <time>2026-08-29T06:31:50Z</time>
      </trkpt>
      <trkpt lat="50.706713330000639" lon="13.538715625181794">
        <ele>649</ele>
        <time>2026-08-29T06:31:51Z</time>
      </trkpt>
      <trkpt lat="50.706699751317501" lon="13.538656197488308">
        <ele>649</ele>
        <time>2026-08-29T06:31:52Z</time>
      </trkpt>
      <trkpt lat="50.706693045794964" lon="13.538609510287642">
        <ele>650</ele>
        <time>2026-08-29T06:31:53Z</time>
      </trkpt>
      <trkpt lat="50.706684160977602" lon="13.538547484204173">
        <ele>650</ele>
        <time>2026-08-29T06:31:54Z</time>
      </trkpt>
      <trkpt lat="50.706674437969923" lon="13.538486883044243">
        <ele>649</ele>
        <time>2026-08-29T06:31:55Z</time>
      </trkpt>
      <trkpt lat="50.706659602001309" lon="13.538433657959104">
        <ele>649</ele>
        <time>2026-08-29T06:31:56Z</time>
      </trkpt>
      <trkpt lat="50.706646861508489" lon="13.538380097597837">
        <ele>650</ele>
        <time>2026-08-29T06:31:57Z</time>
      </trkpt>
      <trkpt lat="50.706631857901812" lon="13.538329973816872">
        <ele>649</ele>
        <time>2026-08-29T06:31:58Z</time>
      </trkpt>
      <trkpt lat="50.706619117408991" lon="13.538276664912701">
        <ele>649</ele>
        <time>2026-08-29T06:31:59Z</time>
      </trkpt>
      <trkpt lat="50.706602521240711" lon="13.538212710991502">
        <ele>649</ele>
        <time>2026-08-29T06:32:00Z</time>
      </trkpt>
      <trkpt lat="50.706592379137874" lon="13.538148254156113">
        <ele>649</ele>
        <time>2026-08-29T06:32:01Z</time>
      </trkpt>
      <trkpt lat="50.706578548997641" lon="13.538082204759121">
        <ele>649</ele>
        <time>2026-08-29T06:32:02Z</time>
      </trkpt>
      <trkpt lat="50.706564132124186" lon="13.538021352142096">
        <ele>650</ele>
        <time>2026-08-29T06:32:03Z</time>
      </trkpt>
      <trkpt lat="50.706560779362917" lon="13.537962008267641">
        <ele>650</ele>
        <time>2026-08-29T06:32:04Z</time>
      </trkpt>
      <trkpt lat="50.70654921233654" lon="13.537899143993855">
        <ele>650</ele>
        <time>2026-08-29T06:32:05Z</time>
      </trkpt>
      <trkpt lat="50.706539489328861" lon="13.537836112082005">
        <ele>650</ele>
        <time>2026-08-29T06:32:06Z</time>
      </trkpt>
      <trkpt lat="50.706532951444387" lon="13.537765117362142">
        <ele>650</ele>
        <time>2026-08-29T06:32:07Z</time>
      </trkpt>
      <trkpt lat="50.706523731350899" lon="13.537697307765484">
        <ele>650</ele>
        <time>2026-08-29T06:32:08Z</time>
      </trkpt>
      <trkpt lat="50.706512499600649" lon="13.537632599473">
        <ele>650</ele>
        <time>2026-08-29T06:32:09Z</time>
      </trkpt>
      <trkpt lat="50.706515265628695" lon="13.537567220628262">
        <ele>650</ele>
        <time>2026-08-29T06:32:10Z</time>
      </trkpt>
      <trkpt lat="50.706518199294806" lon="13.537499411031604">
        <ele>650</ele>
        <time>2026-08-29T06:32:11Z</time>
      </trkpt>
      <trkpt lat="50.706519288942218" lon="13.537432439625263">
        <ele>650</ele>
        <time>2026-08-29T06:32:12Z</time>
      </trkpt>
      <trkpt lat="50.706519288942218" lon="13.537361109629273">
        <ele>650</ele>
        <time>2026-08-29T06:32:13Z</time>
      </trkpt>
      <trkpt lat="50.706513840705156" lon="13.537290869280696">
        <ele>650</ele>
        <time>2026-08-29T06:32:14Z</time>
      </trkpt>
      <trkpt lat="50.706510907039046" lon="13.537227082997561">
        <ele>650</ele>
        <time>2026-08-29T06:32:15Z</time>
      </trkpt>
      <trkpt lat="50.706515097990632" lon="13.537169666960835">
        <ele>649</ele>
        <time>2026-08-29T06:32:16Z</time>
      </trkpt>
      <trkpt lat="50.706518618389964" lon="13.537104371935129">
        <ele>649</ele>
        <time>2026-08-29T06:32:17Z</time>
      </trkpt>
      <trkpt lat="50.706518702208996" lon="13.537040585651994">
        <ele>649</ele>
        <time>2026-08-29T06:32:18Z</time>
      </trkpt>
      <trkpt lat="50.706518618389964" lon="13.536982834339142">
        <ele>649</ele>
        <time>2026-08-29T06:32:19Z</time>
      </trkpt>
      <trkpt lat="50.706514846533537" lon="13.5369280166924">
        <ele>649</ele>
        <time>2026-08-29T06:32:20Z</time>
      </trkpt>
      <trkpt lat="50.70651643909514" lon="13.536859201267362">
        <ele>649</ele>
        <time>2026-08-29T06:32:21Z</time>
      </trkpt>
      <trkpt lat="50.706518702208996" lon="13.536794576793909">
        <ele>648</ele>
        <time>2026-08-29T06:32:22Z</time>
      </trkpt>
      <trkpt lat="50.706522054970264" lon="13.536728443577886">
        <ele>648</ele>
        <time>2026-08-29T06:32:23Z</time>
      </trkpt>
      <trkpt lat="50.706531191244721" lon="13.536659879609942">
        <ele>648</ele>
        <time>2026-08-29T06:32:24Z</time>
      </trkpt>
      <trkpt lat="50.706541500985622" lon="13.536600284278393">
        <ele>648</ele>
        <time>2026-08-29T06:32:25Z</time>
      </trkpt>
      <trkpt lat="50.70654921233654" lon="13.536533815786242">
        <ele>649</ele>
        <time>2026-08-29T06:32:26Z</time>
      </trkpt>
      <trkpt lat="50.706554157659411" lon="13.536470448598266">
        <ele>649</ele>
        <time>2026-08-29T06:32:27Z</time>
      </trkpt>
      <trkpt lat="50.706553990021348" lon="13.536398112773895">
        <ele>649</ele>
        <time>2026-08-29T06:32:28Z</time>
      </trkpt>
      <trkpt lat="50.706559270620346" lon="13.536335667595267">
        <ele>648</ele>
        <time>2026-08-29T06:32:29Z</time>
      </trkpt>
      <trkpt lat="50.706560360267758" lon="13.536269199103117">
        <ele>648</ele>
        <time>2026-08-29T06:32:30Z</time>
      </trkpt>
      <trkpt lat="50.706559689715505" lon="13.53620826266706">
        <ele>648</ele>
        <time>2026-08-29T06:32:31Z</time>
      </trkpt>
      <trkpt lat="50.70656823925674" lon="13.536136178299785">
        <ele>648</ele>
        <time>2026-08-29T06:32:32Z</time>
      </trkpt>
      <trkpt lat="50.706575699150562" lon="13.536079097539186">
        <ele>647</ele>
        <time>2026-08-29T06:32:33Z</time>
      </trkpt>
      <trkpt lat="50.706574944779277" lon="13.53601380251348">
        <ele>647</ele>
        <time>2026-08-29T06:32:34Z</time>
      </trkpt>
      <trkpt lat="50.706580141559243" lon="13.535949597135186">
        <ele>647</ele>
        <time>2026-08-29T06:32:35Z</time>
      </trkpt>
      <trkpt lat="50.706589110195637" lon="13.535877848044038">
        <ele>647</ele>
        <time>2026-08-29T06:32:36Z</time>
      </trkpt>
      <trkpt lat="50.706599839031696" lon="13.535813894122839">
        <ele>647</ele>
        <time>2026-08-29T06:32:37Z</time>
      </trkpt>
      <trkpt lat="50.706603778526187" lon="13.535737870261073">
        <ele>647</ele>
        <time>2026-08-29T06:32:38Z</time>
      </trkpt>
      <trkpt lat="50.706607047468424" lon="13.535671820864081">
        <ele>647</ele>
        <time>2026-08-29T06:32:39Z</time>
      </trkpt>
      <trkpt lat="50.7066151779145" lon="13.535590181127191">
        <ele>647</ele>
        <time>2026-08-29T06:32:40Z</time>
      </trkpt>
      <trkpt lat="50.706625571474433" lon="13.535525808110833">
        <ele>647</ele>
        <time>2026-08-29T06:32:41Z</time>
      </trkpt>
      <trkpt lat="50.70663277991116" lon="13.535442659631371">
        <ele>646</ele>
        <time>2026-08-29T06:32:42Z</time>
      </trkpt>
      <trkpt lat="50.706640491262078" lon="13.535367641597986">
        <ele>646</ele>
        <time>2026-08-29T06:32:43Z</time>
      </trkpt>
      <trkpt lat="50.706643844023347" lon="13.535290695726871">
        <ele>646</ele>
        <time>2026-08-29T06:32:44Z</time>
      </trkpt>
      <trkpt lat="50.706651890650392" lon="13.535212324932218">
        <ele>646</ele>
        <time>2026-08-29T06:32:45Z</time>
      </trkpt>
      <trkpt lat="50.706663457676768" lon="13.535131942480803">
        <ele>646</ele>
        <time>2026-08-29T06:32:46Z</time>
      </trkpt>
      <trkpt lat="50.70666991174221" lon="13.535051643848419">
        <ele>646</ele>
        <time>2026-08-29T06:32:47Z</time>
      </trkpt>
      <trkpt lat="50.706674354150891" lon="13.534975536167622">
        <ele>646</ele>
        <time>2026-08-29T06:32:48Z</time>
      </trkpt>
      <trkpt lat="50.706684831529856" lon="13.534890795126557">
        <ele>646</ele>
        <time>2026-08-29T06:32:49Z</time>
      </trkpt>
      <trkpt lat="50.706690112128854" lon="13.534810077399015">
        <ele>646</ele>
        <time>2026-08-29T06:32:50Z</time>
      </trkpt>
      <trkpt lat="50.706688771024346" lon="13.534725671634078">
        <ele>645</ele>
        <time>2026-08-29T06:32:51Z</time>
      </trkpt>
      <trkpt lat="50.706697320565581" lon="13.534640930593014">
        <ele>645</ele>
        <time>2026-08-29T06:32:52Z</time>
      </trkpt>
      <trkpt lat="50.706702182069421" lon="13.534564068540931">
        <ele>645</ele>
        <time>2026-08-29T06:32:53Z</time>
      </trkpt>
      <trkpt lat="50.70670997723937" lon="13.5344931576401">
        <ele>645</ele>
        <time>2026-08-29T06:32:54Z</time>
      </trkpt>
      <trkpt lat="50.706718442961574" lon="13.534413361921906">
        <ele>645</ele>
        <time>2026-08-29T06:32:55Z</time>
      </trkpt>
      <trkpt lat="50.706731770187616" lon="13.534335745498538">
        <ele>645</ele>
        <time>2026-08-29T06:32:56Z</time>
      </trkpt>
      <trkpt lat="50.706735039129853" lon="13.534255782142282">
        <ele>645</ele>
        <time>2026-08-29T06:32:57Z</time>
      </trkpt>
      <trkpt lat="50.706739732995629" lon="13.534185541793704">
        <ele>646</ele>
        <time>2026-08-29T06:32:58Z</time>
      </trkpt>
      <trkpt lat="50.706750964745879" lon="13.534110020846128">
        <ele>646</ele>
        <time>2026-08-29T06:32:59Z</time>
      </trkpt>
      <trkpt lat="50.706764291971922" lon="13.534041875973344">
        <ele>646</ele>
        <time>2026-08-29T06:33:00Z</time>
      </trkpt>
      <trkpt lat="50.706779630854726" lon="13.533970797434449">
        <ele>645</ele>
        <time>2026-08-29T06:33:01Z</time>
      </trkpt>
      <trkpt lat="50.706787258386612" lon="13.533898629248142">
        <ele>645</ele>
        <time>2026-08-29T06:33:02Z</time>
      </trkpt>
      <trkpt lat="50.70678717456758" lon="13.533824281767011">
        <ele>646</ele>
        <time>2026-08-29T06:33:03Z</time>
      </trkpt>
      <trkpt lat="50.706792622804642" lon="13.53375731036067">
        <ele>645</ele>
        <time>2026-08-29T06:33:04Z</time>
      </trkpt>
      <trkpt lat="50.706800501793623" lon="13.533692602068186">
        <ele>646</ele>
        <time>2026-08-29T06:33:05Z</time>
      </trkpt>
      <trkpt lat="50.706804608926177" lon="13.533636359497905">
        <ele>646</ele>
        <time>2026-08-29T06:33:06Z</time>
      </trkpt>
      <trkpt lat="50.70681500248611" lon="13.533578775823116">
        <ele>647</ele>
        <time>2026-08-29T06:33:07Z</time>
      </trkpt>
      <trkpt lat="50.706816259771585" lon="13.533521024510264">
        <ele>647</ele>
        <time>2026-08-29T06:33:08Z</time>
      </trkpt>
      <trkpt lat="50.706814918667078" lon="13.533453969284892">
        <ele>647</ele>
        <time>2026-08-29T06:33:09Z</time>
      </trkpt>
      <trkpt lat="50.706815673038363" lon="13.533394541591406">
        <ele>647</ele>
        <time>2026-08-29T06:33:10Z</time>
      </trkpt>
      <trkpt lat="50.706814499571919" lon="13.533327570185065">
        <ele>647</ele>
        <time>2026-08-29T06:33:11Z</time>
      </trkpt>
      <trkpt lat="50.706816678866744" lon="13.5332618560642">
        <ele>648</ele>
        <time>2026-08-29T06:33:12Z</time>
      </trkpt>
      <trkpt lat="50.706819444894791" lon="13.533207541331649">
        <ele>648</ele>
        <time>2026-08-29T06:33:13Z</time>
      </trkpt>
      <trkpt lat="50.706819361075759" lon="13.533156998455524">
        <ele>648</ele>
        <time>2026-08-29T06:33:14Z</time>
      </trkpt>
      <trkpt lat="50.706818271428347" lon="13.533106036484241">
        <ele>648</ele>
        <time>2026-08-29T06:33:15Z</time>
      </trkpt>
      <trkpt lat="50.706814331933856" lon="13.533056750893593">
        <ele>648</ele>
        <time>2026-08-29T06:33:16Z</time>
      </trkpt>
      <trkpt lat="50.706813242286444" lon="13.53300821967423">
        <ele>648</ele>
        <time>2026-08-29T06:33:17Z</time>
      </trkpt>
      <trkpt lat="50.706815170124173" lon="13.532961197197437">
        <ele>648</ele>
        <time>2026-08-29T06:33:18Z</time>
      </trkpt>
      <trkpt lat="50.706816259771585" lon="13.532917024567723">
        <ele>648</ele>
        <time>2026-08-29T06:33:19Z</time>
      </trkpt>
      <trkpt lat="50.706817349418998" lon="13.532871091738343">
        <ele>648</ele>
        <time>2026-08-29T06:33:20Z</time>
      </trkpt>
      <trkpt lat="50.70682086981833" lon="13.532820213586092">
        <ele>648</ele>
        <time>2026-08-29T06:33:21Z</time>
      </trkpt>
      <trkpt lat="50.706821624189615" lon="13.532780986279249">
        <ele>648</ele>
        <time>2026-08-29T06:33:22Z</time>
      </trkpt>
      <trkpt lat="50.706814248114824" lon="13.532738154754043">
        <ele>648</ele>
        <time>2026-08-29T06:33:23Z</time>
      </trkpt>
      <trkpt lat="50.706809889525175" lon="13.532690797001123">
        <ele>648</ele>
        <time>2026-08-29T06:33:24Z</time>
      </trkpt>
      <trkpt lat="50.70680720731616" lon="13.5326471272856">
        <ele>648</ele>
        <time>2026-08-29T06:33:25Z</time>
      </trkpt>
      <trkpt lat="50.706805111840367" lon="13.532600104808807">
        <ele>648</ele>
        <time>2026-08-29T06:33:26Z</time>
      </trkpt>
      <trkpt lat="50.706799160689116" lon="13.532557860016823">
        <ele>648</ele>
        <time>2026-08-29T06:33:27Z</time>
      </trkpt>
      <trkpt lat="50.706796478480101" lon="13.532511675730348">
        <ele>648</ele>
        <time>2026-08-29T06:33:28Z</time>
      </trkpt>
      <trkpt lat="50.706794802099466" lon="13.532460629940033">
        <ele>648</ele>
        <time>2026-08-29T06:33:29Z</time>
      </trkpt>
      <trkpt lat="50.706794131547213" lon="13.532421821728349">
        <ele>649</ele>
        <time>2026-08-29T06:33:30Z</time>
      </trkpt>
      <trkpt lat="50.706791449338198" lon="13.53238083422184">
        <ele>649</ele>
        <time>2026-08-29T06:33:31Z</time>
      </trkpt>
      <trkpt lat="50.706788767129183" lon="13.532326938584447">
        <ele>649</ele>
        <time>2026-08-29T06:33:32Z</time>
      </trkpt>
      <trkpt lat="50.706791114062071" lon="13.532270444557071">
        <ele>648</ele>
        <time>2026-08-29T06:33:33Z</time>
      </trkpt>
      <trkpt lat="50.706781977787614" lon="13.532219566404819">
        <ele>649</ele>
        <time>2026-08-29T06:33:34Z</time>
      </trkpt>
      <trkpt lat="50.706782229244709" lon="13.532165419310331">
        <ele>649</ele>
        <time>2026-08-29T06:33:35Z</time>
      </trkpt>
      <trkpt lat="50.706779044121504" lon="13.53210917674005">
        <ele>649</ele>
        <time>2026-08-29T06:33:36Z</time>
      </trkpt>
      <trkpt lat="50.706776110455394" lon="13.532048156484962">
        <ele>649</ele>
        <time>2026-08-29T06:33:37Z</time>
      </trkpt>
      <trkpt lat="50.706768650561571" lon="13.531995266675949">
        <ele>648</ele>
        <time>2026-08-29T06:33:38Z</time>
      </trkpt>
      <trkpt lat="50.706761609762907" lon="13.531942460685968">
        <ele>648</ele>
        <time>2026-08-29T06:33:39Z</time>
      </trkpt>
      <trkpt lat="50.706757251173258" lon="13.531880266964436">
        <ele>648</ele>
        <time>2026-08-29T06:33:40Z</time>
      </trkpt>
      <trkpt lat="50.70675004273653" lon="13.531812205910683">
        <ele>649</ele>
        <time>2026-08-29T06:33:41Z</time>
      </trkpt>
      <trkpt lat="50.706742163747549" lon="13.53176518343389">
        <ele>649</ele>
        <time>2026-08-29T06:33:42Z</time>
      </trkpt>
      <trkpt lat="50.706725735217333" lon="13.53170701302588">
        <ele>649</ele>
        <time>2026-08-29T06:33:43Z</time>
      </trkpt>
      <trkpt lat="50.706711988896132" lon="13.531641298905015">
        <ele>649</ele>
        <time>2026-08-29T06:33:44Z</time>
      </trkpt>
      <trkpt lat="50.706704780459404" lon="13.531573405489326">
        <ele>649</ele>
        <time>2026-08-29T06:33:45Z</time>
      </trkpt>
      <trkpt lat="50.706693297252059" lon="13.531517246738076">
        <ele>650</ele>
        <time>2026-08-29T06:33:46Z</time>
      </trkpt>
      <trkpt lat="50.706684412434697" lon="13.531452789902687">
        <ele>650</ele>
        <time>2026-08-29T06:33:47Z</time>
      </trkpt>
      <trkpt lat="50.706673180684447" lon="13.531397972255945">
        <ele>650</ele>
        <time>2026-08-29T06:33:48Z</time>
      </trkpt>
      <trkpt lat="50.706656081601977" lon="13.531339131295681">
        <ele>651</ele>
        <time>2026-08-29T06:33:49Z</time>
      </trkpt>
      <trkpt lat="50.706648118793964" lon="13.531282553449273">
        <ele>650</ele>
        <time>2026-08-29T06:33:50Z</time>
      </trkpt>
      <trkpt lat="50.706633701920509" lon="13.531230501830578">
        <ele>650</ele>
        <time>2026-08-29T06:33:51Z</time>
      </trkpt>
      <trkpt lat="50.706620709970593" lon="13.531171409413218">
        <ele>650</ele>
        <time>2026-08-29T06:33:52Z</time>
      </trkpt>
      <trkpt lat="50.706607047468424" lon="13.531121201813221">
        <ele>650</ele>
        <time>2026-08-29T06:33:53Z</time>
      </trkpt>
      <trkpt lat="50.706591876223683" lon="13.531073341146111">
        <ele>650</ele>
        <time>2026-08-29T06:33:54Z</time>
      </trkpt>
      <trkpt lat="50.706578213721514" lon="13.531007962301373">
        <ele>650</ele>
        <time>2026-08-29T06:33:55Z</time>
      </trkpt>
      <trkpt lat="50.70656388066709" lon="13.530949372798204">
        <ele>651</ele>
        <time>2026-08-29T06:33:56Z</time>
      </trkpt>
      <trkpt lat="50.706551810726523" lon="13.530900673940778">
        <ele>651</ele>
        <time>2026-08-29T06:33:57Z</time>
      </trkpt>
      <trkpt lat="50.706539489328861" lon="13.530846275389194">
        <ele>651</ele>
        <time>2026-08-29T06:33:58Z</time>
      </trkpt>
      <trkpt lat="50.706528509035707" lon="13.530797241255641">
        <ele>650</ele>
        <time>2026-08-29T06:33:59Z</time>
      </trkpt>
      <trkpt lat="50.70651643909514" lon="13.530750889331102">
        <ele>650</ele>
        <time>2026-08-29T06:34:00Z</time>
      </trkpt>
      <trkpt lat="50.706510236486793" lon="13.530691545456648">
        <ele>650</ele>
        <time>2026-08-29T06:34:01Z</time>
      </trkpt>
      <trkpt lat="50.706501519307494" lon="13.530641924589872">
        <ele>650</ele>
        <time>2026-08-29T06:34:02Z</time>
      </trkpt>
      <trkpt lat="50.706484252586961" lon="13.530589286237955">
        <ele>650</ele>
        <time>2026-08-29T06:34:03Z</time>
      </trkpt>
      <trkpt lat="50.706465477123857" lon="13.530543185770512">
        <ele>650</ele>
        <time>2026-08-29T06:34:04Z</time>
      </trkpt>
      <trkpt lat="50.706444941461086" lon="13.530492726713419">
        <ele>650</ele>
        <time>2026-08-29T06:34:05Z</time>
      </trkpt>
      <trkpt lat="50.706422729417682" lon="13.530442602932453">
        <ele>651</ele>
        <time>2026-08-29T06:34:06Z</time>
      </trkpt>
      <trkpt lat="50.706405378878117" lon="13.530400693416595">
        <ele>650</ele>
        <time>2026-08-29T06:34:07Z</time>
      </trkpt>
      <trkpt lat="50.706386603415012" lon="13.530352162197232">
        <ele>650</ele>
        <time>2026-08-29T06:34:08Z</time>
      </trkpt>
      <trkpt lat="50.706377467140555" lon="13.5302968416363">
        <ele>650</ele>
        <time>2026-08-29T06:34:09Z</time>
      </trkpt>
      <trkpt lat="50.706363637000322" lon="13.530249483883381">
        <ele>650</ele>
        <time>2026-08-29T06:34:10Z</time>
      </trkpt>
      <trkpt lat="50.70635181851685" lon="13.530196594074368">
        <ele>650</ele>
        <time>2026-08-29T06:34:11Z</time>
      </trkpt>
      <trkpt lat="50.706353159621358" lon="13.530135406181216">
        <ele>650</ele>
        <time>2026-08-29T06:34:12Z</time>
      </trkpt>
      <trkpt lat="50.706346621736884" lon="13.530074134469032">
        <ele>650</ele>
        <time>2026-08-29T06:34:13Z</time>
      </trkpt>
      <trkpt lat="50.706338239833713" lon="13.53002074174583">
        <ele>650</ele>
        <time>2026-08-29T06:34:14Z</time>
      </trkpt>
      <trkpt lat="50.706329019740224" lon="13.52996651083231">
        <ele>650</ele>
        <time>2026-08-29T06:34:15Z</time>
      </trkpt>
      <trkpt lat="50.706323739141226" lon="13.529910771176219">
        <ele>650</ele>
        <time>2026-08-29T06:34:16Z</time>
      </trkpt>
      <trkpt lat="50.70631711743772" lon="13.529854109510779">
        <ele>650</ele>
        <time>2026-08-29T06:34:17Z</time>
      </trkpt>
      <trkpt lat="50.706311669200659" lon="13.529795268550515">
        <ele>650</ele>
        <time>2026-08-29T06:34:18Z</time>
      </trkpt>
      <trkpt lat="50.706313597038388" lon="13.529742294922471">
        <ele>650</ele>
        <time>2026-08-29T06:34:19Z</time>
      </trkpt>
      <trkpt lat="50.706314351409674" lon="13.529691332951188">
        <ele>650</ele>
        <time>2026-08-29T06:34:20Z</time>
      </trkpt>
      <trkpt lat="50.70631711743772" lon="13.529641712084413">
        <ele>650</ele>
        <time>2026-08-29T06:34:21Z</time>
      </trkpt>
      <trkpt lat="50.706317201256752" lon="13.529587648808956">
        <ele>650</ele>
        <time>2026-08-29T06:34:22Z</time>
      </trkpt>
      <trkpt lat="50.706318961456418" lon="13.529529813677073">
        <ele>650</ele>
        <time>2026-08-29T06:34:23Z</time>
      </trkpt>
      <trkpt lat="50.706324661150575" lon="13.52948471903801">
        <ele>650</ele>
        <time>2026-08-29T06:34:24Z</time>
      </trkpt>
      <trkpt lat="50.706325331702828" lon="13.52943099103868">
        <ele>650</ele>
        <time>2026-08-29T06:34:25Z</time>
      </trkpt>
      <trkpt lat="50.706334970891476" lon="13.529382878914475">
        <ele>651</ele>
        <time>2026-08-29T06:34:26Z</time>
      </trkpt>
      <trkpt lat="50.706340251490474" lon="13.529329653829336">
        <ele>651</ele>
        <time>2026-08-29T06:34:27Z</time>
      </trkpt>
      <trkpt lat="50.706347711384296" lon="13.529283301904798">
        <ele>650</ele>
        <time>2026-08-29T06:34:28Z</time>
      </trkpt>
      <trkpt lat="50.706357518211007" lon="13.529232088476419">
        <ele>650</ele>
        <time>2026-08-29T06:34:29Z</time>
      </trkpt>
      <trkpt lat="50.706367241218686" lon="13.529181126505136">
        <ele>650</ele>
        <time>2026-08-29T06:34:30Z</time>
      </trkpt>
      <trkpt lat="50.706378389149904" lon="13.529125051572919">
        <ele>650</ele>
        <time>2026-08-29T06:34:31Z</time>
      </trkpt>
      <trkpt lat="50.706385849043727" lon="13.52907333523035">
        <ele>650</ele>
        <time>2026-08-29T06:34:32Z</time>
      </trkpt>
      <trkpt lat="50.706395572051406" lon="13.529023630544543">
        <ele>650</ele>
        <time>2026-08-29T06:34:33Z</time>
      </trkpt>
      <trkpt lat="50.706401690840721" lon="13.528977362439036">
        <ele>650</ele>
        <time>2026-08-29T06:34:34Z</time>
      </trkpt>
      <trkpt lat="50.706403283402324" lon="13.528938638046384">
        <ele>650</ele>
        <time>2026-08-29T06:34:35Z</time>
      </trkpt>
      <trkpt lat="50.706402529031038" lon="13.528900500386953">
        <ele>650</ele>
        <time>2026-08-29T06:34:36Z</time>
      </trkpt>
      <trkpt lat="50.70640261285007" lon="13.528857752680779">
        <ele>650</ele>
        <time>2026-08-29T06:34:37Z</time>
      </trkpt>
      <trkpt lat="50.706401187926531" lon="13.528808131814003">
        <ele>650</ele>
        <time>2026-08-29T06:34:38Z</time>
      </trkpt>
      <trkpt lat="50.706402361392975" lon="13.528759013861418">
        <ele>651</ele>
        <time>2026-08-29T06:34:39Z</time>
      </trkpt>
      <trkpt lat="50.706399092450738" lon="13.528704531490803">
        <ele>651</ele>
        <time>2026-08-29T06:34:40Z</time>
      </trkpt>
      <trkpt lat="50.706393057480454" lon="13.528646025806665">
        <ele>651</ele>
        <time>2026-08-29T06:34:41Z</time>
      </trkpt>
      <trkpt lat="50.706384340301156" lon="13.528591459617019">
        <ele>650</ele>
        <time>2026-08-29T06:34:42Z</time>
      </trkpt>
      <trkpt lat="50.706379394978285" lon="13.528539324179292">
        <ele>650</ele>
        <time>2026-08-29T06:34:43Z</time>
      </trkpt>
      <trkpt lat="50.706375539302826" lon="13.528488194569945">
        <ele>650</ele>
        <time>2026-08-29T06:34:44Z</time>
      </trkpt>
      <trkpt lat="50.706362798810005" lon="13.528442345559597">
        <ele>650</ele>
        <time>2026-08-29T06:34:45Z</time>
      </trkpt>
      <trkpt lat="50.70634444244206" lon="13.528397502377629">
        <ele>650</ele>
        <time>2026-08-29T06:34:46Z</time>
      </trkpt>
      <trkpt lat="50.706326840445399" lon="13.528360202908516">
        <ele>650</ele>
        <time>2026-08-29T06:34:47Z</time>
      </trkpt>
      <trkpt lat="50.706303287297487" lon="13.528323406353593">
        <ele>650</ele>
        <time>2026-08-29T06:34:48Z</time>
      </trkpt>
      <trkpt lat="50.706279147416353" lon="13.52827881462872">
        <ele>650</ele>
        <time>2026-08-29T06:34:49Z</time>
      </trkpt>
      <trkpt lat="50.706258527934551" lon="13.528224248439074">
        <ele>650</ele>
        <time>2026-08-29T06:34:50Z</time>
      </trkpt>
      <trkpt lat="50.706235142424703" lon="13.528172532096505">
        <ele>651</ele>
        <time>2026-08-29T06:34:51Z</time>
      </trkpt>
      <trkpt lat="50.706214439123869" lon="13.528126263990998">
        <ele>652</ele>
        <time>2026-08-29T06:34:52Z</time>
      </trkpt>
      <trkpt lat="50.706188790500164" lon="13.528085276484489">
        <ele>653</ele>
        <time>2026-08-29T06:34:53Z</time>
      </trkpt>
      <trkpt lat="50.706164902076125" lon="13.528042025864124">
        <ele>653</ele>
        <time>2026-08-29T06:34:54Z</time>
      </trkpt>
      <trkpt lat="50.706143947318196" lon="13.527998691424727">
        <ele>653</ele>
        <time>2026-08-29T06:34:55Z</time>
      </trkpt>
      <trkpt lat="50.706129362806678" lon="13.527946723625064">
        <ele>653</ele>
        <time>2026-08-29T06:34:56Z</time>
      </trkpt>
      <trkpt lat="50.706101199612021" lon="13.52789374999702">
        <ele>653</ele>
        <time>2026-08-29T06:34:57Z</time>
      </trkpt>
      <trkpt lat="50.706077059730887" lon="13.527856953442097">
        <ele>653</ele>
        <time>2026-08-29T06:34:58Z</time>
      </trkpt>
      <trkpt lat="50.7060591224581" lon="13.527797777205706">
        <ele>653</ele>
        <time>2026-08-29T06:34:59Z</time>
      </trkpt>
      <trkpt lat="50.706042107194662" lon="13.527738517150283">
        <ele>654</ele>
        <time>2026-08-29T06:35:00Z</time>
      </trkpt>
      <trkpt lat="50.706031210720539" lon="13.527681101113558">
        <ele>654</ele>
        <time>2026-08-29T06:35:01Z</time>
      </trkpt>
      <trkpt lat="50.706015368923545" lon="13.527618236839771">
        <ele>654</ele>
        <time>2026-08-29T06:35:02Z</time>
      </trkpt>
      <trkpt lat="50.705999443307519" lon="13.527556546032429">
        <ele>654</ele>
        <time>2026-08-29T06:35:03Z</time>
      </trkpt>
      <trkpt lat="50.705992067232728" lon="13.527495274320245">
        <ele>654</ele>
        <time>2026-08-29T06:35:04Z</time>
      </trkpt>
      <trkpt lat="50.705982344225049" lon="13.527425453066826">
        <ele>653</ele>
        <time>2026-08-29T06:35:05Z</time>
      </trkpt>
      <trkpt lat="50.705975219607353" lon="13.527361834421754">
        <ele>653</ele>
        <time>2026-08-29T06:35:06Z</time>
      </trkpt>
      <trkpt lat="50.705971447750926" lon="13.527299053966999">
        <ele>653</ele>
        <time>2026-08-29T06:35:07Z</time>
      </trkpt>
      <trkpt lat="50.705972285941243" lon="13.527234680950642">
        <ele>653</ele>
        <time>2026-08-29T06:35:08Z</time>
      </trkpt>
      <trkpt lat="50.705966334789991" lon="13.527164943516254">
        <ele>652</ele>
        <time>2026-08-29T06:35:09Z</time>
      </trkpt>
      <trkpt lat="50.705957785248756" lon="13.527090512216091">
        <ele>653</ele>
        <time>2026-08-29T06:35:10Z</time>
      </trkpt>
      <trkpt lat="50.70595258846879" lon="13.52701080031693">
        <ele>652</ele>
        <time>2026-08-29T06:35:11Z</time>
      </trkpt>
      <trkpt lat="50.705947391688824" lon="13.526939889416099">
        <ele>652</ele>
        <time>2026-08-29T06:35:12Z</time>
      </trkpt>
      <trkpt lat="50.705944709479809" lon="13.526872918009758">
        <ele>652</ele>
        <time>2026-08-29T06:35:13Z</time>
      </trkpt>
      <trkpt lat="50.70594328455627" lon="13.526801923289895">
        <ele>653</ele>
        <time>2026-08-29T06:35:14Z</time>
      </trkpt>
      <trkpt lat="50.705938339233398" lon="13.526723133400083">
        <ele>653</ele>
        <time>2026-08-29T06:35:15Z</time>
      </trkpt>
      <trkpt lat="50.705929873511195" lon="13.526649624109268">
        <ele>653</ele>
        <time>2026-08-29T06:35:16Z</time>
      </trkpt>
      <trkpt lat="50.705919647589326" lon="13.526578713208437">
        <ele>653</ele>
        <time>2026-08-29T06:35:17Z</time>
      </trkpt>
      <trkpt lat="50.70591151714325" lon="13.52650310844183">
        <ele>653</ele>
        <time>2026-08-29T06:35:18Z</time>
      </trkpt>
      <trkpt lat="50.705891735851765" lon="13.526420295238495">
        <ele>653</ele>
        <time>2026-08-29T06:35:19Z</time>
      </trkpt>
      <trkpt lat="50.705877235159278" lon="13.526335638016462">
        <ele>653</ele>
        <time>2026-08-29T06:35:20Z</time>
      </trkpt>
      <trkpt lat="50.70586365647614" lon="13.526259195059538">
        <ele>653</ele>
        <time>2026-08-29T06:35:21Z</time>
      </trkpt>
      <trkpt lat="50.705853598192334" lon="13.526173951104283">
        <ele>653</ele>
        <time>2026-08-29T06:35:22Z</time>
      </trkpt>
      <trkpt lat="50.705840019509196" lon="13.526087868958712">
        <ele>653</ele>
        <time>2026-08-29T06:35:23Z</time>
      </trkpt>
      <trkpt lat="50.705831637606025" lon="13.526007318869233">
        <ele>653</ele>
        <time>2026-08-29T06:35:24Z</time>
      </trkpt>
      <trkpt lat="50.705829039216042" lon="13.5259416885674">
        <ele>653</ele>
        <time>2026-08-29T06:35:25Z</time>
      </trkpt>
      <trkpt lat="50.705816969275475" lon="13.525877818465233">
        <ele>654</ele>
        <time>2026-08-29T06:35:26Z</time>
      </trkpt>
      <trkpt lat="50.705803809687495" lon="13.525831047445536">
        <ele>654</ele>
        <time>2026-08-29T06:35:27Z</time>
      </trkpt>
      <trkpt lat="50.705787716433406" lon="13.525774721056223">
        <ele>654</ele>
        <time>2026-08-29T06:35:28Z</time>
      </trkpt>
      <trkpt lat="50.705775059759617" lon="13.525734655559063">
        <ele>653</ele>
        <time>2026-08-29T06:35:29Z</time>
      </trkpt>
      <trkpt lat="50.705761229619384" lon="13.525688219815493">
        <ele>653</ele>
        <time>2026-08-29T06:35:30Z</time>
      </trkpt>
      <trkpt lat="50.705749411135912" lon="13.525639269500971">
        <ele>653</ele>
        <time>2026-08-29T06:35:31Z</time>
      </trkpt>
      <trkpt lat="50.705737508833408" lon="13.525595851242542">
        <ele>653</ele>
        <time>2026-08-29T06:35:32Z</time>
      </trkpt>
      <trkpt lat="50.705722169950604" lon="13.525558551773429">
        <ele>653</ele>
        <time>2026-08-29T06:35:33Z</time>
      </trkpt>
      <trkpt lat="50.705707585439086" lon="13.525518737733364">
        <ele>653</ele>
        <time>2026-08-29T06:35:34Z</time>
      </trkpt>
      <trkpt lat="50.705692581832409" lon="13.525480013340712">
        <ele>653</ele>
        <time>2026-08-29T06:35:35Z</time>
      </trkpt>
      <trkpt lat="50.705679338425398" lon="13.52544573135674">
        <ele>652</ele>
        <time>2026-08-29T06:35:36Z</time>
      </trkpt>
      <trkpt lat="50.705671710893512" lon="13.525404995307326">
        <ele>652</ele>
        <time>2026-08-29T06:35:37Z</time>
      </trkpt>
      <trkpt lat="50.705658718943596" lon="13.525370378047228">
        <ele>652</ele>
        <time>2026-08-29T06:35:38Z</time>
      </trkpt>
      <trkpt lat="50.705639608204365" lon="13.525335090234876">
        <ele>652</ele>
        <time>2026-08-29T06:35:39Z</time>
      </trkpt>
      <trkpt lat="50.705627370625734" lon="13.525301478803158">
        <ele>652</ele>
        <time>2026-08-29T06:35:40Z</time>
      </trkpt>
      <trkpt lat="50.705616977065802" lon="13.525274069979787">
        <ele>652</ele>
        <time>2026-08-29T06:35:41Z</time>
      </trkpt>
      <trkpt lat="50.705606499686837" lon="13.525237943977118">
        <ele>652</ele>
        <time>2026-08-29T06:35:42Z</time>
      </trkpt>
      <trkpt lat="50.705587891861796" lon="13.525194190442562">
        <ele>651</ele>
        <time>2026-08-29T06:35:43Z</time>
      </trkpt>
      <trkpt lat="50.7055738940835" lon="13.525149850174785">
        <ele>651</ele>
        <time>2026-08-29T06:35:44Z</time>
      </trkpt>
      <trkpt lat="50.705555956810713" lon="13.52511347271502">
        <ele>651</ele>
        <time>2026-08-29T06:35:45Z</time>
      </trkpt>
      <trkpt lat="50.705535337328911" lon="13.525073155760765">
        <ele>651</ele>
        <time>2026-08-29T06:35:46Z</time>
      </trkpt>
      <trkpt lat="50.705512454733253" lon="13.525031246244907">
        <ele>651</ele>
        <time>2026-08-29T06:35:47Z</time>
      </trkpt>
      <trkpt lat="50.705492338165641" lon="13.524985816329718">
        <ele>651</ele>
        <time>2026-08-29T06:35:48Z</time>
      </trkpt>
      <trkpt lat="50.705472556874156" lon="13.524942062795162">
        <ele>651</ele>
        <time>2026-08-29T06:35:49Z</time>
      </trkpt>
      <trkpt lat="50.705453110858798" lon="13.524894453585148">
        <ele>651</ele>
        <time>2026-08-29T06:35:50Z</time>
      </trkpt>
      <trkpt lat="50.705431569367647" lon="13.524856483563781">
        <ele>650</ele>
        <time>2026-08-29T06:35:51Z</time>
      </trkpt>
      <trkpt lat="50.705409105867147" lon="13.524827398359776">
        <ele>650</ele>
        <time>2026-08-29T06:35:52Z</time>
      </trkpt>
      <trkpt lat="50.70538530126214" lon="13.524781716987491">
        <ele>650</ele>
        <time>2026-08-29T06:35:53Z</time>
      </trkpt>
      <trkpt lat="50.705360658466816" lon="13.524729581549764">
        <ele>651</ele>
        <time>2026-08-29T06:35:54Z</time>
      </trkpt>
      <trkpt lat="50.705337189137936" lon="13.524679373949766">
        <ele>650</ele>
        <time>2026-08-29T06:35:55Z</time>
      </trkpt>
      <trkpt lat="50.705313216894865" lon="13.524631764739752">
        <ele>650</ele>
        <time>2026-08-29T06:35:56Z</time>
      </trkpt>
      <trkpt lat="50.705285221338272" lon="13.524585831910372">
        <ele>650</ele>
        <time>2026-08-29T06:35:57Z</time>
      </trkpt>
      <trkpt lat="50.70525529794395" lon="13.524532606825233">
        <ele>650</ele>
        <time>2026-08-29T06:35:58Z</time>
      </trkpt>
      <trkpt lat="50.705224871635437" lon="13.524474939331412">
        <ele>650</ele>
        <time>2026-08-29T06:35:59Z</time>
      </trkpt>
      <trkpt lat="50.705193607136607" lon="13.524427330121398">
        <ele>650</ele>
        <time>2026-08-29T06:36:00Z</time>
      </trkpt>
      <trkpt lat="50.705162510275841" lon="13.524381564930081">
        <ele>650</ele>
        <time>2026-08-29T06:36:01Z</time>
      </trkpt>
      <trkpt lat="50.705130910500884" lon="13.524330016225576">
        <ele>650</ele>
        <time>2026-08-29T06:36:02Z</time>
      </trkpt>
      <trkpt lat="50.705095622688532" lon="13.524285340681672">
        <ele>650</ele>
        <time>2026-08-29T06:36:03Z</time>
      </trkpt>
      <trkpt lat="50.70506326854229" lon="13.524240329861641">
        <ele>649</ele>
        <time>2026-08-29T06:36:04Z</time>
      </trkpt>
      <trkpt lat="50.705027393996716" lon="13.52419339120388">
        <ele>649</ele>
        <time>2026-08-29T06:36:05Z</time>
      </trkpt>
      <trkpt lat="50.704989759251475" lon="13.524151565507054">
        <ele>648</ele>
        <time>2026-08-29T06:36:06Z</time>
      </trkpt>
      <trkpt lat="50.704954387620091" lon="13.524121474474669">
        <ele>648</ele>
        <time>2026-08-29T06:36:07Z</time>
      </trkpt>
      <trkpt lat="50.704916333779693" lon="13.524075457826257">
        <ele>648</ele>
        <time>2026-08-29T06:36:08Z</time>
      </trkpt>
      <trkpt lat="50.704882638528943" lon="13.524029273539782">
        <ele>648</ele>
        <time>2026-08-29T06:36:09Z</time>
      </trkpt>
      <trkpt lat="50.704849697649479" lon="13.52399013005197">
        <ele>648</ele>
        <time>2026-08-29T06:36:10Z</time>
      </trkpt>
      <trkpt lat="50.704813739284873" lon="13.523954674601555">
        <ele>648</ele>
        <time>2026-08-29T06:36:11Z</time>
      </trkpt>
      <trkpt lat="50.704780127853155" lon="13.523919554427266">
        <ele>647</ele>
        <time>2026-08-29T06:36:12Z</time>
      </trkpt>
      <trkpt lat="50.704746935516596" lon="13.523892648518085">
        <ele>648</ele>
        <time>2026-08-29T06:36:13Z</time>
      </trkpt>
      <trkpt lat="50.704712988808751" lon="13.523860294371843">
        <ele>648</ele>
        <time>2026-08-29T06:36:14Z</time>
      </trkpt>
      <trkpt lat="50.704674599692225" lon="13.523825174197555">
        <ele>648</ele>
        <time>2026-08-29T06:36:15Z</time>
      </trkpt>
      <trkpt lat="50.704636964946985" lon="13.523789886385202">
        <ele>648</ele>
        <time>2026-08-29T06:36:16Z</time>
      </trkpt>
      <trkpt lat="50.704594301059842" lon="13.523750826716423">
        <ele>647</ele>
        <time>2026-08-29T06:36:17Z</time>
      </trkpt>
      <trkpt lat="50.704550798982382" lon="13.523719143122435">
        <ele>647</ele>
        <time>2026-08-29T06:36:18Z</time>
      </trkpt>
      <trkpt lat="50.704507799819112" lon="13.523685950785875">
        <ele>647</ele>
        <time>2026-08-29T06:36:19Z</time>
      </trkpt>
      <trkpt lat="50.704459268599749" lon="13.523654267191887">
        <ele>647</ele>
        <time>2026-08-29T06:36:20Z</time>
      </trkpt>
      <trkpt lat="50.704414509236813" lon="13.523618979379535">
        <ele>647</ele>
        <time>2026-08-29T06:36:21Z</time>
      </trkpt>
      <trkpt lat="50.704369498416781" lon="13.523586876690388">
        <ele>647</ele>
        <time>2026-08-29T06:36:22Z</time>
      </trkpt>
      <trkpt lat="50.704322727397084" lon="13.523557540029287">
        <ele>647</ele>
        <time>2026-08-29T06:36:23Z</time>
      </trkpt>
      <trkpt lat="50.704274028539658" lon="13.523532310500741">
        <ele>647</ele>
        <time>2026-08-29T06:36:24Z</time>
      </trkpt>
      <trkpt lat="50.704225497320294" lon="13.523508086800575">
        <ele>646</ele>
        <time>2026-08-29T06:36:25Z</time>
      </trkpt>
      <trkpt lat="50.70417252369225" lon="13.523482605814934">
        <ele>646</ele>
        <time>2026-08-29T06:36:26Z</time>
      </trkpt>
      <trkpt lat="50.70411971770227" lon="13.523455867543817">
        <ele>646</ele>
        <time>2026-08-29T06:36:27Z</time>
      </trkpt>
      <trkpt lat="50.704061882570386" lon="13.523431727662683">
        <ele>646</ele>
        <time>2026-08-29T06:36:28Z</time>
      </trkpt>
      <trkpt lat="50.704007148742676" lon="13.523416556417942">
        <ele>646</ele>
        <time>2026-08-29T06:36:29Z</time>
      </trkpt>
      <trkpt lat="50.703948978334665" lon="13.52339593693614">
        <ele>645</ele>
        <time>2026-08-29T06:36:30Z</time>
      </trkpt>
      <trkpt lat="50.703886868432164" lon="13.523373724892735">
        <ele>645</ele>
        <time>2026-08-29T06:36:31Z</time>
      </trkpt>
      <trkpt lat="50.703822076320648" lon="13.523352183401585">
        <ele>645</ele>
        <time>2026-08-29T06:36:32Z</time>
      </trkpt>
      <trkpt lat="50.703761391341686" lon="13.523323349654675">
        <ele>645</ele>
        <time>2026-08-29T06:36:33Z</time>
      </trkpt>
      <trkpt lat="50.703697018325329" lon="13.523286134004593">
        <ele>645</ele>
        <time>2026-08-29T06:36:34Z</time>
      </trkpt>
      <trkpt lat="50.703634740784764" lon="13.52324447594583">
        <ele>645</ele>
        <time>2026-08-29T06:36:35Z</time>
      </trkpt>
      <trkpt lat="50.703570786863565" lon="13.523193178698421">
        <ele>645</ele>
        <time>2026-08-29T06:36:36Z</time>
      </trkpt>
      <trkpt lat="50.703503983095288" lon="13.523143557831645">
        <ele>645</ele>
        <time>2026-08-29T06:36:37Z</time>
      </trkpt>
      <trkpt lat="50.703444639220834" lon="13.523090165108442">
        <ele>645</ele>
        <time>2026-08-29T06:36:38Z</time>
      </trkpt>
      <trkpt lat="50.703377919271588" lon="13.523036940023303">
        <ele>645</ele>
        <time>2026-08-29T06:36:39Z</time>
      </trkpt>
      <trkpt lat="50.703317988663912" lon="13.522975752130151">
        <ele>644</ele>
        <time>2026-08-29T06:36:40Z</time>
      </trkpt>
      <trkpt lat="50.703269289806485" lon="13.52289411239326">
        <ele>644</ele>
        <time>2026-08-29T06:36:41Z</time>
      </trkpt>
      <trkpt lat="50.703219920396805" lon="13.522823955863714">
        <ele>644</ele>
        <time>2026-08-29T06:36:42Z</time>
      </trkpt>
      <trkpt lat="50.703167030587792" lon="13.522749859839678">
        <ele>644</ele>
        <time>2026-08-29T06:36:43Z</time>
      </trkpt>
      <trkpt lat="50.703118499368429" lon="13.522674422711134">
        <ele>644</ele>
        <time>2026-08-29T06:36:44Z</time>
      </trkpt>
      <trkpt lat="50.703069800511003" lon="13.522603344172239">
        <ele>644</ele>
        <time>2026-08-29T06:36:45Z</time>
      </trkpt>
      <trkpt lat="50.70302034728229" lon="13.522530756890774">
        <ele>644</ele>
        <time>2026-08-29T06:36:46Z</time>
      </trkpt>
      <trkpt lat="50.702975504100323" lon="13.522453308105469">
        <ele>644</ele>
        <time>2026-08-29T06:36:47Z</time>
      </trkpt>
      <trkpt lat="50.702932002022862" lon="13.522378960624337">
        <ele>645</ele>
        <time>2026-08-29T06:36:48Z</time>
      </trkpt>
      <trkpt lat="50.70289621129632" lon="13.52230628952384">
        <ele>645</ele>
        <time>2026-08-29T06:36:49Z</time>
      </trkpt>
      <trkpt lat="50.702853631228209" lon="13.522236132994294">
        <ele>645</ele>
        <time>2026-08-29T06:36:50Z</time>
      </trkpt>
      <trkpt lat="50.702821360900998" lon="13.52216555736959">
        <ele>645</ele>
        <time>2026-08-29T06:36:51Z</time>
      </trkpt>
      <trkpt lat="50.702788922935724" lon="13.522085761651397">
        <ele>645</ele>
        <time>2026-08-29T06:36:52Z</time>
      </trkpt>
      <trkpt lat="50.702759250998497" lon="13.521997835487127">
        <ele>645</ele>
        <time>2026-08-29T06:36:53Z</time>
      </trkpt>
      <trkpt lat="50.702730501070619" lon="13.521921057254076">
        <ele>645</ele>
        <time>2026-08-29T06:36:54Z</time>
      </trkpt>
      <trkpt lat="50.702699068933725" lon="13.52184503339231">
        <ele>646</ele>
        <time>2026-08-29T06:36:55Z</time>
      </trkpt>
      <trkpt lat="50.702672330662608" lon="13.52177320048213">
        <ele>646</ele>
        <time>2026-08-29T06:36:56Z</time>
      </trkpt>
      <trkpt lat="50.702644670382142" lon="13.521693740040064">
        <ele>646</ele>
        <time>2026-08-29T06:36:57Z</time>
      </trkpt>
      <trkpt lat="50.702618099749088" lon="13.521612267941236">
        <ele>646</ele>
        <time>2026-08-29T06:36:58Z</time>
      </trkpt>
      <trkpt lat="50.702594881877303" lon="13.521527778357267">
        <ele>646</ele>
        <time>2026-08-29T06:36:59Z</time>
      </trkpt>
      <trkpt lat="50.702564539387822" lon="13.521447144448757">
        <ele>646</ele>
        <time>2026-08-29T06:37:00Z</time>
      </trkpt>
      <trkpt lat="50.7025346159935" lon="13.521379502490163">
        <ele>646</ele>
        <time>2026-08-29T06:37:01Z</time>
      </trkpt>
      <trkpt lat="50.702507877722383" lon="13.521305741742253">
        <ele>646</ele>
        <time>2026-08-29T06:37:02Z</time>
      </trkpt>
      <trkpt lat="50.70247845724225" lon="13.521230723708868">
        <ele>646</ele>
        <time>2026-08-29T06:37:03Z</time>
      </trkpt>
      <trkpt lat="50.702451132237911" lon="13.52115411311388">
        <ele>646</ele>
        <time>2026-08-29T06:37:04Z</time>
      </trkpt>
      <trkpt lat="50.702425735071301" lon="13.521077502518892">
        <ele>646</ele>
        <time>2026-08-29T06:37:05Z</time>
      </trkpt>
      <trkpt lat="50.702393464744091" lon="13.521003406494856">
        <ele>646</ele>
        <time>2026-08-29T06:37:06Z</time>
      </trkpt>
      <trkpt lat="50.702360859140754" lon="13.520934591069818">
        <ele>646</ele>
        <time>2026-08-29T06:37:07Z</time>
      </trkpt>
      <trkpt lat="50.702331271022558" lon="13.52086191996932">
        <ele>645</ele>
        <time>2026-08-29T06:37:08Z</time>
      </trkpt>
      <trkpt lat="50.702299168333411" lon="13.520785812288523">
        <ele>645</ele>
        <time>2026-08-29T06:37:09Z</time>
      </trkpt>
      <trkpt lat="50.702267400920391" lon="13.520723534747958">
        <ele>645</ele>
        <time>2026-08-29T06:37:10Z</time>
      </trkpt>
      <trkpt lat="50.702237728983164" lon="13.520658910274506">
        <ele>645</ele>
        <time>2026-08-29T06:37:11Z</time>
      </trkpt>
      <trkpt lat="50.702198250219226" lon="13.5205970518291">
        <ele>645</ele>
        <time>2026-08-29T06:37:12Z</time>
      </trkpt>
      <trkpt lat="50.702166231349111" lon="13.520543407648802">
        <ele>645</ele>
        <time>2026-08-29T06:37:13Z</time>
      </trkpt>
      <trkpt lat="50.702138151973486" lon="13.520501917228103">
        <ele>645</ele>
        <time>2026-08-29T06:37:14Z</time>
      </trkpt>
      <trkpt lat="50.702114850282669" lon="13.520454140380025">
        <ele>645</ele>
        <time>2026-08-29T06:37:15Z</time>
      </trkpt>
      <trkpt lat="50.702094146981835" lon="13.520429581403732">
        <ele>645</ele>
        <time>2026-08-29T06:37:16Z</time>
      </trkpt>
      <trkpt lat="50.702077299356461" lon="13.520415332168341">
        <ele>645</ele>
        <time>2026-08-29T06:37:17Z</time>
      </trkpt>
      <trkpt lat="50.702061960473657" lon="13.520398568361998">
        <ele>644</ele>
        <time>2026-08-29T06:37:18Z</time>
      </trkpt>
      <trkpt lat="50.702052991837263" lon="13.520378116518259">
        <ele>645</ele>
        <time>2026-08-29T06:37:19Z</time>
      </trkpt>
      <trkpt lat="50.702045951038599" lon="13.52035766467452">
        <ele>645</ele>
        <time>2026-08-29T06:37:20Z</time>
      </trkpt>
      <trkpt lat="50.702043520286679" lon="13.520331848412752">
        <ele>645</ele>
        <time>2026-08-29T06:37:21Z</time>
      </trkpt>
      <trkpt lat="50.702044274657965" lon="13.520318605005741">
        <ele>645</ele>
        <time>2026-08-29T06:37:22Z</time>
      </trkpt>
      <trkpt lat="50.702043771743774" lon="13.520317180082202">
        <ele>644</ele>
        <time>2026-08-29T06:37:23Z</time>
      </trkpt>
      <trkpt lat="50.702041927725077" lon="13.520317766815424">
        <ele>644</ele>
        <time>2026-08-29T06:37:24Z</time>
      </trkpt>
      <trkpt lat="50.702040838077664" lon="13.520309468731284">
        <ele>644</ele>
        <time>2026-08-29T06:37:25Z</time>
      </trkpt>
      <trkpt lat="50.702035222202539" lon="13.52030586451292">
        <ele>644</ele>
        <time>2026-08-29T06:37:26Z</time>
      </trkpt>
      <trkpt lat="50.70202742703259" lon="13.520303852856159">
        <ele>644</ele>
        <time>2026-08-29T06:37:27Z</time>
      </trkpt>
      <trkpt lat="50.702015860006213" lon="13.520299075171351">
        <ele>644</ele>
        <time>2026-08-29T06:37:28Z</time>
      </trkpt>
      <trkpt lat="50.702003035694361" lon="13.520285580307245">
        <ele>644</ele>
        <time>2026-08-29T06:37:29Z</time>
      </trkpt>
      <trkpt lat="50.701988199725747" lon="13.520266804844141">
        <ele>644</ele>
        <time>2026-08-29T06:37:30Z</time>
      </trkpt>
      <trkpt lat="50.701969424262643" lon="13.520247107371688">
        <ele>644</ele>
        <time>2026-08-29T06:37:31Z</time>
      </trkpt>
      <trkpt lat="50.701952828094363" lon="13.520220872014761">
        <ele>644</ele>
        <time>2026-08-29T06:37:32Z</time>
      </trkpt>
      <trkpt lat="50.701934136450291" lon="13.520193044096231">
        <ele>644</ele>
        <time>2026-08-29T06:37:33Z</time>
      </trkpt>
      <trkpt lat="50.701908739283681" lon="13.52016999386251">
        <ele>644</ele>
        <time>2026-08-29T06:37:34Z</time>
      </trkpt>
      <trkpt lat="50.701883258298039" lon="13.520142501220107">
        <ele>644</ele>
        <time>2026-08-29T06:37:35Z</time>
      </trkpt>
      <trkpt lat="50.70185886695981" lon="13.520118109881878">
        <ele>644</ele>
        <time>2026-08-29T06:37:36Z</time>
      </trkpt>
      <trkpt lat="50.701831374317408" lon="13.520090533420444">
        <ele>643</ele>
        <time>2026-08-29T06:37:37Z</time>
      </trkpt>
      <trkpt lat="50.70180606096983" lon="13.520061867311597">
        <ele>643</ele>
        <time>2026-08-29T06:37:38Z</time>
      </trkpt>
      <trkpt lat="50.701776808127761" lon="13.520040074363351">
        <ele>643</ele>
        <time>2026-08-29T06:37:39Z</time>
      </trkpt>
      <trkpt lat="50.701746214181185" lon="13.520023142918944">
        <ele>643</ele>
        <time>2026-08-29T06:37:40Z</time>
      </trkpt>
      <trkpt lat="50.701713440939784" lon="13.519998164847493">
        <ele>643</ele>
        <time>2026-08-29T06:37:41Z</time>
      </trkpt>
      <trkpt lat="50.701681841164827" lon="13.519977377727628">
        <ele>643</ele>
        <time>2026-08-29T06:37:42Z</time>
      </trkpt>
      <trkpt lat="50.701648397371173" lon="13.519952986389399">
        <ele>644</ele>
        <time>2026-08-29T06:37:43Z</time>
      </trkpt>
      <trkpt lat="50.70161989890039" lon="13.519930439069867">
        <ele>644</ele>
        <time>2026-08-29T06:37:44Z</time>
      </trkpt>
      <trkpt lat="50.701585114002228" lon="13.519908059388399">
        <ele>643</ele>
        <time>2026-08-29T06:37:45Z</time>
      </trkpt>
      <trkpt lat="50.701546305790544" lon="13.519896157085896">
        <ele>644</ele>
        <time>2026-08-29T06:37:46Z</time>
      </trkpt>
      <trkpt lat="50.701514538377523" lon="13.519904287531972">
        <ele>644</ele>
        <time>2026-08-29T06:37:47Z</time>
      </trkpt>
      <trkpt lat="50.7014777418226" lon="13.519903365522623">
        <ele>644</ele>
        <time>2026-08-29T06:37:48Z</time>
      </trkpt>
      <trkpt lat="50.701439352706075" lon="13.519900180399418">
        <ele>645</ele>
        <time>2026-08-29T06:37:49Z</time>
      </trkpt>
      <trkpt lat="50.701401801779866" lon="13.519891714677215">
        <ele>645</ele>
        <time>2026-08-29T06:37:50Z</time>
      </trkpt>
      <trkpt lat="50.701361233368516" lon="13.519895486533642">
        <ele>645</ele>
        <time>2026-08-29T06:37:51Z</time>
      </trkpt>
      <trkpt lat="50.701324855908751" lon="13.519890205934644">
        <ele>646</ele>
        <time>2026-08-29T06:37:52Z</time>
      </trkpt>
      <trkpt lat="50.701290238648653" lon="13.519877716898918">
        <ele>646</ele>
        <time>2026-08-29T06:37:53Z</time>
      </trkpt>
      <trkpt lat="50.701253358274698" lon="13.519875537604094">
        <ele>646</ele>
        <time>2026-08-29T06:37:54Z</time>
      </trkpt>
      <trkpt lat="50.701216980814934" lon="13.519880902022123">
        <ele>646</ele>
        <time>2026-08-29T06:37:55Z</time>
      </trkpt>
      <trkpt lat="50.701178926974535" lon="13.519880399107933">
        <ele>646</ele>
        <time>2026-08-29T06:37:56Z</time>
      </trkpt>
      <trkpt lat="50.701140118762851" lon="13.519889200106263">
        <ele>646</ele>
        <time>2026-08-29T06:37:57Z</time>
      </trkpt>
      <trkpt lat="50.701104998588562" lon="13.519897079095244">
        <ele>646</ele>
        <time>2026-08-29T06:37:58Z</time>
      </trkpt>
      <trkpt lat="50.701065687462687" lon="13.519904119893909">
        <ele>646</ele>
        <time>2026-08-29T06:37:59Z</time>
      </trkpt>
      <trkpt lat="50.701028387993574" lon="13.519913256168365">
        <ele>645</ele>
        <time>2026-08-29T06:38:00Z</time>
      </trkpt>
      <trkpt lat="50.7009959500283" lon="13.519922811537981">
        <ele>645</ele>
        <time>2026-08-29T06:38:01Z</time>
      </trkpt>
      <trkpt lat="50.700964769348502" lon="13.519934630021453">
        <ele>645</ele>
        <time>2026-08-29T06:38:02Z</time>
      </trkpt>
      <trkpt lat="50.700934929773211" lon="13.519948711618781">
        <ele>645</ele>
        <time>2026-08-29T06:38:03Z</time>
      </trkpt>
      <trkpt lat="50.70090995170176" lon="13.519959356635809">
        <ele>645</ele>
        <time>2026-08-29T06:38:04Z</time>
      </trkpt>
      <trkpt lat="50.70088698528707" lon="13.519970253109932">
        <ele>645</ele>
        <time>2026-08-29T06:38:05Z</time>
      </trkpt>
      <trkpt lat="50.700870137661695" lon="13.519973522052169">
        <ele>645</ele>
        <time>2026-08-29T06:38:06Z</time>
      </trkpt>
      <trkpt lat="50.700846081599593" lon="13.519977210089564">
        <ele>645</ele>
        <time>2026-08-29T06:38:07Z</time>
      </trkpt>
      <trkpt lat="50.700822528451681" lon="13.519983747974038">
        <ele>645</ele>
        <time>2026-08-29T06:38:08Z</time>
      </trkpt>
      <trkpt lat="50.700800232589245" lon="13.5199926327914">
        <ele>646</ele>
        <time>2026-08-29T06:38:09Z</time>
      </trkpt>
      <trkpt lat="50.700781038030982" lon="13.520000595599413">
        <ele>646</ele>
        <time>2026-08-29T06:38:10Z</time>
      </trkpt>
      <trkpt lat="50.700762681663036" lon="13.520011408254504">
        <ele>645</ele>
        <time>2026-08-29T06:38:11Z</time>
      </trkpt>
      <trkpt lat="50.700740050524473" lon="13.520025657489896">
        <ele>646</ele>
        <time>2026-08-29T06:38:12Z</time>
      </trkpt>
      <trkpt lat="50.700716748833656" lon="13.520035380497575">
        <ele>646</ele>
        <time>2026-08-29T06:38:13Z</time>
      </trkpt>
      <trkpt lat="50.700692860409617" lon="13.520052479580045">
        <ele>646</ele>
        <time>2026-08-29T06:38:14Z</time>
      </trkpt>
      <trkpt lat="50.700670396909118" lon="13.520059604197741">
        <ele>646</ele>
        <time>2026-08-29T06:38:15Z</time>
      </trkpt>
      <trkpt lat="50.700643826276064" lon="13.520072093233466">
        <ele>646</ele>
        <time>2026-08-29T06:38:16Z</time>
      </trkpt>
      <trkpt lat="50.700616417452693" lon="13.520086091011763">
        <ele>646</ele>
        <time>2026-08-29T06:38:17Z</time>
      </trkpt>
      <trkpt lat="50.700592277571559" lon="13.520098747685552">
        <ele>646</ele>
        <time>2026-08-29T06:38:18Z</time>
      </trkpt>
      <trkpt lat="50.700568640604615" lon="13.520110649988055">
        <ele>646</ele>
        <time>2026-08-29T06:38:19Z</time>
      </trkpt>
      <trkpt lat="50.700541231781244" lon="13.520131269469857">
        <ele>646</ele>
        <time>2026-08-29T06:38:20Z</time>
      </trkpt>
      <trkpt lat="50.700513822957873" lon="13.520148368552327">
        <ele>646</ele>
        <time>2026-08-29T06:38:21Z</time>
      </trkpt>
      <trkpt lat="50.700487922877073" lon="13.520160354673862">
        <ele>646</ele>
        <time>2026-08-29T06:38:22Z</time>
      </trkpt>
      <trkpt lat="50.700460849329829" lon="13.520179046317935">
        <ele>646</ele>
        <time>2026-08-29T06:38:23Z</time>
      </trkpt>
      <trkpt lat="50.70043352432549" lon="13.520197570323944">
        <ele>646</ele>
        <time>2026-08-29T06:38:24Z</time>
      </trkpt>
      <trkpt lat="50.700403098016977" lon="13.520218860358">
        <ele>645</ele>
        <time>2026-08-29T06:38:25Z</time>
      </trkpt>
      <trkpt lat="50.700375018641353" lon="13.520235791802406">
        <ele>645</ele>
        <time>2026-08-29T06:38:26Z</time>
      </trkpt>
      <trkpt lat="50.700348531827331" lon="13.520259177312255">
        <ele>645</ele>
        <time>2026-08-29T06:38:27Z</time>
      </trkpt>
      <trkpt lat="50.700319781899452" lon="13.52028432302177">
        <ele>645</ele>
        <time>2026-08-29T06:38:28Z</time>
      </trkpt>
      <trkpt lat="50.70029279217124" lon="13.520307205617428">
        <ele>645</ele>
        <time>2026-08-29T06:38:29Z</time>
      </trkpt>
      <trkpt lat="50.700267814099789" lon="13.520329166203737">
        <ele>645</ele>
        <time>2026-08-29T06:38:30Z</time>
      </trkpt>
      <trkpt lat="50.700245350599289" lon="13.520349031314254">
        <ele>645</ele>
        <time>2026-08-29T06:38:31Z</time>
      </trkpt>
      <trkpt lat="50.700221545994282" lon="13.520365627482533">
        <ele>645</ele>
        <time>2026-08-29T06:38:32Z</time>
      </trkpt>
      <trkpt lat="50.700197909027338" lon="13.520377529785037">
        <ele>645</ele>
        <time>2026-08-29T06:38:33Z</time>
      </trkpt>
      <trkpt lat="50.700174942612648" lon="13.520397143438458">
        <ele>645</ele>
        <time>2026-08-29T06:38:34Z</time>
      </trkpt>
      <trkpt lat="50.700154490768909" lon="13.520415248349309">
        <ele>645</ele>
        <time>2026-08-29T06:38:35Z</time>
      </trkpt>
      <trkpt lat="50.700129009783268" lon="13.520432347431779">
        <ele>645</ele>
        <time>2026-08-29T06:38:36Z</time>
      </trkpt>
      <trkpt lat="50.700105372816324" lon="13.520450284704566">
        <ele>645</ele>
        <time>2026-08-29T06:38:37Z</time>
      </trkpt>
      <trkpt lat="50.700079221278429" lon="13.520469646900892">
        <ele>645</ele>
        <time>2026-08-29T06:38:38Z</time>
      </trkpt>
      <trkpt lat="50.700052566826344" lon="13.520481465384364">
        <ele>645</ele>
        <time>2026-08-29T06:38:39Z</time>
      </trkpt>
      <trkpt lat="50.700024487450719" lon="13.520494289696217">
        <ele>645</ele>
        <time>2026-08-29T06:38:40Z</time>
      </trkpt>
      <trkpt lat="50.699999341741204" lon="13.520509880036116">
        <ele>645</ele>
        <time>2026-08-29T06:38:41Z</time>
      </trkpt>
      <trkpt lat="50.699973357841372" lon="13.520528990775347">
        <ele>646</ele>
        <time>2026-08-29T06:38:42Z</time>
      </trkpt>
      <trkpt lat="50.699945529922843" lon="13.520545503124595">
        <ele>646</ele>
        <time>2026-08-29T06:38:43Z</time>
      </trkpt>
      <trkpt lat="50.699924072250724" lon="13.520558914169669">
        <ele>646</ele>
        <time>2026-08-29T06:38:44Z</time>
      </trkpt>
      <trkpt lat="50.699897250160575" lon="13.520572492852807">
        <ele>647</ele>
        <time>2026-08-29T06:38:45Z</time>
      </trkpt>
      <trkpt lat="50.699867578223348" lon="13.520596884191036">
        <ele>647</ele>
        <time>2026-08-29T06:38:46Z</time>
      </trkpt>
      <trkpt lat="50.699839079752564" lon="13.520611552521586">
        <ele>647</ele>
        <time>2026-08-29T06:38:47Z</time>
      </trkpt>
      <trkpt lat="50.699811419472098" lon="13.520633345469832">
        <ele>647</ele>
        <time>2026-08-29T06:38:48Z</time>
      </trkpt>
      <trkpt lat="50.699786609038711" lon="13.520646085962653">
        <ele>647</ele>
        <time>2026-08-29T06:38:49Z</time>
      </trkpt>
      <trkpt lat="50.699761211872101" lon="13.520656898617744">
        <ele>647</ele>
        <time>2026-08-29T06:38:50Z</time>
      </trkpt>
      <trkpt lat="50.699731623753905" lon="13.520674332976341">
        <ele>647</ele>
        <time>2026-08-29T06:38:51Z</time>
      </trkpt>
      <trkpt lat="50.699703209102154" lon="13.520691934973001">
        <ele>647</ele>
        <time>2026-08-29T06:38:52Z</time>
      </trkpt>
      <trkpt lat="50.699675213545561" lon="13.520714566111565">
        <ele>647</ele>
        <time>2026-08-29T06:38:53Z</time>
      </trkpt>
      <trkpt lat="50.699652750045061" lon="13.520730994641781">
        <ele>647</ele>
        <time>2026-08-29T06:38:54Z</time>
      </trkpt>
      <trkpt lat="50.699623832479119" lon="13.520746417343616">
        <ele>647</ele>
        <time>2026-08-29T06:38:55Z</time>
      </trkpt>
      <trkpt lat="50.699592232704163" lon="13.520763264968991">
        <ele>646</ele>
        <time>2026-08-29T06:38:56Z</time>
      </trkpt>
      <trkpt lat="50.69955887272954" lon="13.520774580538273">
        <ele>646</ele>
        <time>2026-08-29T06:38:57Z</time>
      </trkpt>
      <trkpt lat="50.699528194963932" lon="13.520791428163648">
        <ele>646</ele>
        <time>2026-08-29T06:38:58Z</time>
      </trkpt>
      <trkpt lat="50.699496595188975" lon="13.520801737904549">
        <ele>646</ele>
        <time>2026-08-29T06:38:59Z</time>
      </trkpt>
      <trkpt lat="50.699461810290813" lon="13.520814897492528">
        <ele>645</ele>
        <time>2026-08-29T06:39:00Z</time>
      </trkpt>
      <trkpt lat="50.699428031221032" lon="13.520829062908888">
        <ele>645</ele>
        <time>2026-08-29T06:39:01Z</time>
      </trkpt>
      <trkpt lat="50.699394838884473" lon="13.520839540287852">
        <ele>645</ele>
        <time>2026-08-29T06:39:02Z</time>
      </trkpt>
      <trkpt lat="50.699360892176628" lon="13.520849850028753">
        <ele>645</ele>
        <time>2026-08-29T06:39:03Z</time>
      </trkpt>
      <trkpt lat="50.699333818629384" lon="13.520881365984678">
        <ele>647</ele>
        <time>2026-08-29T06:39:04Z</time>
      </trkpt>
      <trkpt lat="50.699299201369286" lon="13.52090391330421">
        <ele>648</ele>
        <time>2026-08-29T06:39:05Z</time>
      </trkpt>
      <trkpt lat="50.699263159185648" lon="13.520911708474159">
        <ele>649</ele>
        <time>2026-08-29T06:39:06Z</time>
      </trkpt>
      <trkpt lat="50.699225440621376" lon="13.520919671282172">
        <ele>649</ele>
        <time>2026-08-29T06:39:07Z</time>
      </trkpt>
      <trkpt lat="50.699185710400343" lon="13.520920174196362">
        <ele>649</ele>
        <time>2026-08-29T06:39:08Z</time>
      </trkpt>
      <trkpt lat="50.699139190837741" lon="13.520923862233758">
        <ele>650</ele>
        <time>2026-08-29T06:39:09Z</time>
      </trkpt>
      <trkpt lat="50.699094012379646" lon="13.520913468673825">
        <ele>649</ele>
        <time>2026-08-29T06:39:10Z</time>
      </trkpt>
      <trkpt lat="50.69904581643641" lon="13.520907182246447">
        <ele>649</ele>
        <time>2026-08-29T06:39:11Z</time>
      </trkpt>
      <trkpt lat="50.69900332018733" lon="13.52089217863977">
        <ele>649</ele>
        <time>2026-08-29T06:39:12Z</time>
      </trkpt>
      <trkpt lat="50.698954118415713" lon="13.520885556936264">
        <ele>649</ele>
        <time>2026-08-29T06:39:13Z</time>
      </trkpt>
      <trkpt lat="50.698907850310206" lon="13.520872816443443">
        <ele>649</ele>
        <time>2026-08-29T06:39:14Z</time>
      </trkpt>
      <trkpt lat="50.698865856975317" lon="13.520852699875832">
        <ele>649</ele>
        <time>2026-08-29T06:39:15Z</time>
      </trkpt>
      <trkpt lat="50.698822690173984" lon="13.520828308537602">
        <ele>649</ele>
        <time>2026-08-29T06:39:16Z</time>
      </trkpt>
      <trkpt lat="50.698781618848443" lon="13.520803079009056">
        <ele>650</ele>
        <time>2026-08-29T06:39:17Z</time>
      </trkpt>
      <trkpt lat="50.698740882799029" lon="13.520773742347956">
        <ele>650</ele>
        <time>2026-08-29T06:39:18Z</time>
      </trkpt>
      <trkpt lat="50.698701990768313" lon="13.520734934136271">
        <ele>650</ele>
        <time>2026-08-29T06:39:19Z</time>
      </trkpt>
      <trkpt lat="50.698668630793691" lon="13.520701322704554">
        <ele>650</ele>
        <time>2026-08-29T06:39:20Z</time>
      </trkpt>
      <trkpt lat="50.698634851723909" lon="13.520666789263487">
        <ele>650</ele>
        <time>2026-08-29T06:39:21Z</time>
      </trkpt>
      <trkpt lat="50.698606604710221" lon="13.520622448995709">
        <ele>650</ele>
        <time>2026-08-29T06:39:22Z</time>
      </trkpt>
      <trkpt lat="50.698575675487518" lon="13.520583724603057">
        <ele>650</ele>
        <time>2026-08-29T06:39:23Z</time>
      </trkpt>
      <trkpt lat="50.698546255007386" lon="13.520541228353977">
        <ele>650</ele>
        <time>2026-08-29T06:39:24Z</time>
      </trkpt>
      <trkpt lat="50.698523288592696" lon="13.520492697134614">
        <ele>650</ele>
        <time>2026-08-29T06:39:25Z</time>
      </trkpt>
      <trkpt lat="50.698496717959642" lon="13.520450619980693">
        <ele>651</ele>
        <time>2026-08-29T06:39:26Z</time>
      </trkpt>
      <trkpt lat="50.69847266189754" lon="13.52041382342577">
        <ele>650</ele>
        <time>2026-08-29T06:39:27Z</time>
      </trkpt>
      <trkpt lat="50.698450701311231" lon="13.520381469279528">
        <ele>650</ele>
        <time>2026-08-29T06:39:28Z</time>
      </trkpt>
      <trkpt lat="50.69842915982008" lon="13.520350372418761">
        <ele>650</ele>
        <time>2026-08-29T06:39:29Z</time>
      </trkpt>
      <trkpt lat="50.698409294709563" lon="13.520314078778028">
        <ele>650</ele>
        <time>2026-08-29T06:39:30Z</time>
      </trkpt>
      <trkpt lat="50.698394542559981" lon="13.520284574478865">
        <ele>650</ele>
        <time>2026-08-29T06:39:31Z</time>
      </trkpt>
      <trkpt lat="50.698381047695875" lon="13.52025892585516">
        <ele>650</ele>
        <time>2026-08-29T06:39:32Z</time>
      </trkpt>
      <trkpt lat="50.698369899764657" lon="13.520226571708918">
        <ele>649</ele>
        <time>2026-08-29T06:39:33Z</time>
      </trkpt>
      <trkpt lat="50.698359590023756" lon="13.520195642486215">
        <ele>649</ele>
        <time>2026-08-29T06:39:34Z</time>
      </trkpt>
      <trkpt lat="50.698348190635443" lon="13.520173514261842">
        <ele>649</ele>
        <time>2026-08-29T06:39:35Z</time>
      </trkpt>
      <trkpt lat="50.698332097381353" lon="13.520154822617769">
        <ele>649</ele>
        <time>2026-08-29T06:39:36Z</time>
      </trkpt>
      <trkpt lat="50.698325140401721" lon="13.520139819011092">
        <ele>649</ele>
        <time>2026-08-29T06:39:37Z</time>
      </trkpt>
      <trkpt lat="50.698318434879184" lon="13.520117774605751">
        <ele>649</ele>
        <time>2026-08-29T06:39:38Z</time>
      </trkpt>
      <trkpt lat="50.698311477899551" lon="13.520089779049158">
        <ele>649</ele>
        <time>2026-08-29T06:39:39Z</time>
      </trkpt>
      <trkpt lat="50.698304688557982" lon="13.520068237558007">
        <ele>649</ele>
        <time>2026-08-29T06:39:40Z</time>
      </trkpt>
      <trkpt lat="50.698298569768667" lon="13.520047785714269">
        <ele>649</ele>
        <time>2026-08-29T06:39:41Z</time>
      </trkpt>
      <trkpt lat="50.6982864998281" lon="13.52002096362412">
        <ele>649</ele>
        <time>2026-08-29T06:39:42Z</time>
      </trkpt>
      <trkpt lat="50.69827820174396" lon="13.519996823742986">
        <ele>648</ele>
        <time>2026-08-29T06:39:43Z</time>
      </trkpt>
      <trkpt lat="50.698271999135613" lon="13.519968325272202">
        <ele>649</ele>
        <time>2026-08-29T06:39:44Z</time>
      </trkpt>
      <trkpt lat="50.698266299441457" lon="13.519939742982388">
        <ele>648</ele>
        <time>2026-08-29T06:39:45Z</time>
      </trkpt>
      <trkpt lat="50.698268730193377" lon="13.519910573959351">
        <ele>649</ele>
        <time>2026-08-29T06:39:46Z</time>
      </trkpt>
      <trkpt lat="50.698263281956315" lon="13.519883081316948">
        <ele>648</ele>
        <time>2026-08-29T06:39:47Z</time>
      </trkpt>
      <trkpt lat="50.698256995528936" lon="13.519855421036482">
        <ele>649</ele>
        <time>2026-08-29T06:39:48Z</time>
      </trkpt>
      <trkpt lat="50.698252469301224" lon="13.519823905080557">
        <ele>649</ele>
        <time>2026-08-29T06:39:49Z</time>
      </trkpt>
      <trkpt lat="50.698247607797384" lon="13.519795574247837">
        <ele>649</ele>
        <time>2026-08-29T06:39:50Z</time>
      </trkpt>
      <trkpt lat="50.69824249483645" lon="13.519769422709942">
        <ele>649</ele>
        <time>2026-08-29T06:39:51Z</time>
      </trkpt>
      <trkpt lat="50.698232352733612" lon="13.519738158211112">
        <ele>649</ele>
        <time>2026-08-29T06:39:52Z</time>
      </trkpt>
      <trkpt lat="50.698229419067502" lon="13.519702451303601">
        <ele>649</ele>
        <time>2026-08-29T06:39:53Z</time>
      </trkpt>
      <trkpt lat="50.698223132640123" lon="13.51967210881412">
        <ele>649</ele>
        <time>2026-08-29T06:39:54Z</time>
      </trkpt>
      <trkpt lat="50.698221959173679" lon="13.519640257582068">
        <ele>649</ele>
        <time>2026-08-29T06:39:55Z</time>
      </trkpt>
      <trkpt lat="50.698221372440457" lon="13.51960513740778">
        <ele>649</ele>
        <time>2026-08-29T06:39:56Z</time>
      </trkpt>
      <trkpt lat="50.698219779878855" lon="13.51957387290895">
        <ele>649</ele>
        <time>2026-08-29T06:39:57Z</time>
      </trkpt>
      <trkpt lat="50.698220785707235" lon="13.519536154344678">
        <ele>649</ele>
        <time>2026-08-29T06:39:58Z</time>
      </trkpt>
      <trkpt lat="50.698218354955316" lon="13.519498771056533">
        <ele>649</ele>
        <time>2026-08-29T06:39:59Z</time>
      </trkpt>
      <trkpt lat="50.698215002194047" lon="13.519463818520308">
        <ele>649</ele>
        <time>2026-08-29T06:40:00Z</time>
      </trkpt>
      <trkpt lat="50.698212990537286" lon="13.519426602870226">
        <ele>649</ele>
        <time>2026-08-29T06:40:01Z</time>
      </trkpt>
      <trkpt lat="50.69821516983211" lon="13.519400870427489">
        <ele>649</ele>
        <time>2026-08-29T06:40:02Z</time>
      </trkpt>
      <trkpt lat="50.698211649432778" lon="13.519370276480913">
        <ele>649</ele>
        <time>2026-08-29T06:40:03Z</time>
      </trkpt>
      <trkpt lat="50.698212739080191" lon="13.519329205155373">
        <ele>649</ele>
        <time>2026-08-29T06:40:04Z</time>
      </trkpt>
      <trkpt lat="50.698210727423429" lon="13.519283356145024">
        <ele>649</ele>
        <time>2026-08-29T06:40:05Z</time>
      </trkpt>
      <trkpt lat="50.698203770443797" lon="13.519238512963057">
        <ele>649</ele>
        <time>2026-08-29T06:40:06Z</time>
      </trkpt>
      <trkpt lat="50.698202261701226" lon="13.519190400838852">
        <ele>649</ele>
        <time>2026-08-29T06:40:07Z</time>
      </trkpt>
      <trkpt lat="50.698200585320592" lon="13.519145306199789">
        <ele>649</ele>
        <time>2026-08-29T06:40:08Z</time>
      </trkpt>
      <trkpt lat="50.698197651654482" lon="13.519096942618489">
        <ele>649</ele>
        <time>2026-08-29T06:40:09Z</time>
      </trkpt>
      <trkpt lat="50.698192287236452" lon="13.519059391692281">
        <ele>649</ele>
        <time>2026-08-29T06:40:10Z</time>
      </trkpt>
      <trkpt lat="50.69819170050323" lon="13.51902318187058">
        <ele>650</ele>
        <time>2026-08-29T06:40:11Z</time>
      </trkpt>
      <trkpt lat="50.698190862312913" lon="13.518986133858562">
        <ele>650</ele>
        <time>2026-08-29T06:40:12Z</time>
      </trkpt>
      <trkpt lat="50.698190107941628" lon="13.518943469971418">
        <ele>650</ele>
        <time>2026-08-29T06:40:13Z</time>
      </trkpt>
      <trkpt lat="50.698188850656152" lon="13.518911702558398">
        <ele>650</ele>
        <time>2026-08-29T06:40:14Z</time>
      </trkpt>
      <trkpt lat="50.698190024122596" lon="13.51888001896441">
        <ele>651</ele>
        <time>2026-08-29T06:40:15Z</time>
      </trkpt>
      <trkpt lat="50.698191951960325" lon="13.518848503008485">
        <ele>652</ele>
        <time>2026-08-29T06:40:16Z</time>
      </trkpt>
      <trkpt lat="50.698187677189708" lon="13.518813466653228">
        <ele>652</ele>
        <time>2026-08-29T06:40:17Z</time>
      </trkpt>
      <trkpt lat="50.698187509551644" lon="13.518782705068588">
        <ele>652</ele>
        <time>2026-08-29T06:40:18Z</time>
      </trkpt>
      <trkpt lat="50.698185078799725" lon="13.518748506903648">
        <ele>652</ele>
        <time>2026-08-29T06:40:19Z</time>
      </trkpt>
      <trkpt lat="50.698183318600059" lon="13.518712380900979">
        <ele>652</ele>
        <time>2026-08-29T06:40:20Z</time>
      </trkpt>
      <trkpt lat="50.6981828995049" lon="13.518679356202483">
        <ele>652</ele>
        <time>2026-08-29T06:40:21Z</time>
      </trkpt>
      <trkpt lat="50.698181139305234" lon="13.518645828589797">
        <ele>652</ele>
        <time>2026-08-29T06:40:22Z</time>
      </trkpt>
      <trkpt lat="50.698175607249141" lon="13.518606182187796">
        <ele>652</ele>
        <time>2026-08-29T06:40:23Z</time>
      </trkpt>
      <trkpt lat="50.698169488459826" lon="13.518568966537714">
        <ele>652</ele>
        <time>2026-08-29T06:40:24Z</time>
      </trkpt>
      <trkpt lat="50.698165129870176" lon="13.518524542450905">
        <ele>652</ele>
        <time>2026-08-29T06:40:25Z</time>
      </trkpt>
      <trkpt lat="50.698164375498891" lon="13.518485566601157">
        <ele>653</ele>
        <time>2026-08-29T06:40:26Z</time>
      </trkpt>
      <trkpt lat="50.698164626955986" lon="13.518446926027536">
        <ele>653</ele>
        <time>2026-08-29T06:40:27Z</time>
      </trkpt>
      <trkpt lat="50.698172338306904" lon="13.518416667357087">
        <ele>653</ele>
        <time>2026-08-29T06:40:28Z</time>
      </trkpt>
      <trkpt lat="50.698170913383365" lon="13.518370734527707">
        <ele>653</ele>
        <time>2026-08-29T06:40:29Z</time>
      </trkpt>
      <trkpt lat="50.698162531480193" lon="13.518324047327042">
        <ele>653</ele>
        <time>2026-08-29T06:40:30Z</time>
      </trkpt>
      <trkpt lat="50.6981569994241" lon="13.518281215801835">
        <ele>653</ele>
        <time>2026-08-29T06:40:31Z</time>
      </trkpt>
      <trkpt lat="50.698152389377356" lon="13.518240815028548">
        <ele>654</ele>
        <time>2026-08-29T06:40:32Z</time>
      </trkpt>
      <trkpt lat="50.698148114606738" lon="13.518195971846581">
        <ele>654</ele>
        <time>2026-08-29T06:40:33Z</time>
      </trkpt>
      <trkpt lat="50.698145348578691" lon="13.518147775903344">
        <ele>654</ele>
        <time>2026-08-29T06:40:34Z</time>
      </trkpt>
      <trkpt lat="50.698141409084201" lon="13.518099328503013">
        <ele>654</ele>
        <time>2026-08-29T06:40:35Z</time>
      </trkpt>
      <trkpt lat="50.698132440447807" lon="13.51804543286562">
        <ele>655</ele>
        <time>2026-08-29T06:40:36Z</time>
      </trkpt>
      <trkpt lat="50.698126489296556" lon="13.517999919131398">
        <ele>654</ele>
        <time>2026-08-29T06:40:37Z</time>
      </trkpt>
      <trkpt lat="50.698123471811414" lon="13.51795750670135">
        <ele>654</ele>
        <time>2026-08-29T06:40:38Z</time>
      </trkpt>
      <trkpt lat="50.698117353022099" lon="13.517911909148097">
        <ele>654</ele>
        <time>2026-08-29T06:40:39Z</time>
      </trkpt>
      <trkpt lat="50.69810763001442" lon="13.517875196412206">
        <ele>655</ele>
        <time>2026-08-29T06:40:40Z</time>
      </trkpt>
      <trkpt lat="50.698103439062834" lon="13.517834544181824">
        <ele>655</ele>
        <time>2026-08-29T06:40:41Z</time>
      </trkpt>
      <trkpt lat="50.698106288909912" lon="13.517794562503695">
        <ele>655</ele>
        <time>2026-08-29T06:40:42Z</time>
      </trkpt>
      <trkpt lat="50.698107127100229" lon="13.51775860413909">
        <ele>655</ele>
        <time>2026-08-29T06:40:43Z</time>
      </trkpt>
      <trkpt lat="50.698101846501231" lon="13.517715353518724">
        <ele>655</ele>
        <time>2026-08-29T06:40:44Z</time>
      </trkpt>
      <trkpt lat="50.69809053093195" lon="13.517668582499027">
        <ele>655</ele>
        <time>2026-08-29T06:40:45Z</time>
      </trkpt>
      <trkpt lat="50.698087848722935" lon="13.517625080421567">
        <ele>655</ele>
        <time>2026-08-29T06:40:46Z</time>
      </trkpt>
      <trkpt lat="50.698080975562334" lon="13.517586691305041">
        <ele>656</ele>
        <time>2026-08-29T06:40:47Z</time>
      </trkpt>
      <trkpt lat="50.698071084916592" lon="13.517541931942105">
        <ele>656</ele>
        <time>2026-08-29T06:40:48Z</time>
      </trkpt>
      <trkpt lat="50.698068151250482" lon="13.517507649958134">
        <ele>655</ele>
        <time>2026-08-29T06:40:49Z</time>
      </trkpt>
      <trkpt lat="50.698061613366008" lon="13.517464315518737">
        <ele>656</ele>
        <time>2026-08-29T06:40:50Z</time>
      </trkpt>
      <trkpt lat="50.698056248947978" lon="13.517423328012228">
        <ele>656</ele>
        <time>2026-08-29T06:40:51Z</time>
      </trkpt>
      <trkpt lat="50.698044681921601" lon="13.517381083220243">
        <ele>656</ele>
        <time>2026-08-29T06:40:52Z</time>
      </trkpt>
      <trkpt lat="50.698027918115258" lon="13.517341185361147">
        <ele>656</ele>
        <time>2026-08-29T06:40:53Z</time>
      </trkpt>
      <trkpt lat="50.69802020676434" lon="13.51728854700923">
        <ele>656</ele>
        <time>2026-08-29T06:40:54Z</time>
      </trkpt>
      <trkpt lat="50.698009729385376" lon="13.517238507047296">
        <ele>656</ele>
        <time>2026-08-29T06:40:55Z</time>
      </trkpt>
      <trkpt lat="50.698001263663173" lon="13.51718544960022">
        <ele>657</ele>
        <time>2026-08-29T06:40:56Z</time>
      </trkpt>
      <trkpt lat="50.697988690808415" lon="13.517129542306066">
        <ele>658</ele>
        <time>2026-08-29T06:40:57Z</time>
      </trkpt>
      <trkpt lat="50.697975028306246" lon="13.517077993601561">
        <ele>659</ele>
        <time>2026-08-29T06:40:58Z</time>
      </trkpt>
      <trkpt lat="50.697960862889886" lon="13.517023175954819">
        <ele>659</ele>
        <time>2026-08-29T06:40:59Z</time>
      </trkpt>
      <trkpt lat="50.697946529835463" lon="13.516965676099062">
        <ele>660</ele>
        <time>2026-08-29T06:41:00Z</time>
      </trkpt>
      <trkpt lat="50.697928424924612" lon="13.516901805996895">
        <ele>660</ele>
        <time>2026-08-29T06:41:01Z</time>
      </trkpt>
      <trkpt lat="50.697911577299237" lon="13.516843300312757">
        <ele>660</ele>
        <time>2026-08-29T06:41:02Z</time>
      </trkpt>
      <trkpt lat="50.697892047464848" lon="13.516781693324447">
        <ele>660</ele>
        <time>2026-08-29T06:41:03Z</time>
      </trkpt>
      <trkpt lat="50.697876289486885" lon="13.516720337793231">
        <ele>660</ele>
        <time>2026-08-29T06:41:04Z</time>
      </trkpt>
      <trkpt lat="50.697862207889557" lon="13.516657641157508">
        <ele>660</ele>
        <time>2026-08-29T06:41:05Z</time>
      </trkpt>
      <trkpt lat="50.697842678055167" lon="13.516604248434305">
        <ele>660</ele>
        <time>2026-08-29T06:41:06Z</time>
      </trkpt>
      <trkpt lat="50.697824154049158" lon="13.516550436615944">
        <ele>659</ele>
        <time>2026-08-29T06:41:07Z</time>
      </trkpt>
      <trkpt lat="50.697812419384718" lon="13.516489416360855">
        <ele>659</ele>
        <time>2026-08-29T06:41:08Z</time>
      </trkpt>
      <trkpt lat="50.697796242311597" lon="13.516427138820291">
        <ele>659</ele>
        <time>2026-08-29T06:41:09Z</time>
      </trkpt>
      <trkpt lat="50.697776209563017" lon="13.516364777460694">
        <ele>659</ele>
        <time>2026-08-29T06:41:10Z</time>
      </trkpt>
      <trkpt lat="50.697754919528961" lon="13.516313061118126">
        <ele>659</ele>
        <time>2026-08-29T06:41:11Z</time>
      </trkpt>
      <trkpt lat="50.697733713313937" lon="13.516248436644673">
        <ele>659</ele>
        <time>2026-08-29T06:41:12Z</time>
      </trkpt>
      <trkpt lat="50.697709070518613" lon="13.51617886684835">
        <ele>659</ele>
        <time>2026-08-29T06:41:13Z</time>
      </trkpt>
      <trkpt lat="50.69768400862813" lon="13.516114158555865">
        <ele>659</ele>
        <time>2026-08-29T06:41:14Z</time>
      </trkpt>
      <trkpt lat="50.697656683623791" lon="13.516042241826653">
        <ele>659</ele>
        <time>2026-08-29T06:41:15Z</time>
      </trkpt>
      <trkpt lat="50.697633801028132" lon="13.515972420573235">
        <ele>658</ele>
        <time>2026-08-29T06:41:16Z</time>
      </trkpt>
      <trkpt lat="50.697611421346664" lon="13.515895809978247">
        <ele>658</ele>
        <time>2026-08-29T06:41:17Z</time>
      </trkpt>
      <trkpt lat="50.697582000866532" lon="13.515816098079085">
        <ele>657</ele>
        <time>2026-08-29T06:41:18Z</time>
      </trkpt>
      <trkpt lat="50.697553837671876" lon="13.515741918236017">
        <ele>657</ele>
        <time>2026-08-29T06:41:19Z</time>
      </trkpt>
      <trkpt lat="50.697522321715951" lon="13.515659859403968">
        <ele>656</ele>
        <time>2026-08-29T06:41:20Z</time>
      </trkpt>
      <trkpt lat="50.697488961741328" lon="13.515576543286443">
        <ele>656</ele>
        <time>2026-08-29T06:41:21Z</time>
      </trkpt>
      <trkpt lat="50.697458870708942" lon="13.515492053702474">
        <ele>656</ele>
        <time>2026-08-29T06:41:22Z</time>
      </trkpt>
      <trkpt lat="50.697429114952683" lon="13.515397673472762">
        <ele>656</ele>
        <time>2026-08-29T06:41:23Z</time>
      </trkpt>
      <trkpt lat="50.697396090254188" lon="13.515304299071431">
        <ele>656</ele>
        <time>2026-08-29T06:41:24Z</time>
      </trkpt>
      <trkpt lat="50.697367675602436" lon="13.515215367078781">
        <ele>656</ele>
        <time>2026-08-29T06:41:25Z</time>
      </trkpt>
      <trkpt lat="50.697337500751019" lon="13.515121154487133">
        <ele>656</ele>
        <time>2026-08-29T06:41:26Z</time>
      </trkpt>
      <trkpt lat="50.69731067866087" lon="13.515033731237054">
        <ele>656</ele>
        <time>2026-08-29T06:41:27Z</time>
      </trkpt>
      <trkpt lat="50.697291987016797" lon="13.514943039044738">
        <ele>656</ele>
        <time>2026-08-29T06:41:28Z</time>
      </trkpt>
      <trkpt lat="50.697267092764378" lon="13.514857962727547">
        <ele>656</ele>
        <time>2026-08-29T06:41:29Z</time>
      </trkpt>
      <trkpt lat="50.697241360321641" lon="13.514782441779971">
        <ele>656</ele>
        <time>2026-08-29T06:41:30Z</time>
      </trkpt>
      <trkpt lat="50.697219986468554" lon="13.514718236401677">
        <ele>656</ele>
        <time>2026-08-29T06:41:31Z</time>
      </trkpt>
      <trkpt lat="50.697203977033496" lon="13.514654450118542">
        <ele>656</ele>
        <time>2026-08-29T06:41:32Z</time>
      </trkpt>
      <trkpt lat="50.697189895436168" lon="13.514585802331567">
        <ele>656</ele>
        <time>2026-08-29T06:41:33Z</time>
      </trkpt>
      <trkpt lat="50.697179501876235" lon="13.51452000439167">
        <ele>656</ele>
        <time>2026-08-29T06:41:34Z</time>
      </trkpt>
      <trkpt lat="50.697163660079241" lon="13.514451188966632">
        <ele>656</ele>
        <time>2026-08-29T06:41:35Z</time>
      </trkpt>
      <trkpt lat="50.697151925414801" lon="13.514394443482161">
        <ele>656</ele>
        <time>2026-08-29T06:41:36Z</time>
      </trkpt>
      <trkpt lat="50.697147818282247" lon="13.514342894777656">
        <ele>656</ele>
        <time>2026-08-29T06:41:37Z</time>
      </trkpt>
      <trkpt lat="50.697135161608458" lon="13.514290424063802">
        <ele>656</ele>
        <time>2026-08-29T06:41:38Z</time>
      </trkpt>
      <trkpt lat="50.697123510763049" lon="13.514245748519897">
        <ele>656</ele>
        <time>2026-08-29T06:41:39Z</time>
      </trkpt>
      <trkpt lat="50.697110686451197" lon="13.514202162623405">
        <ele>656</ele>
        <time>2026-08-29T06:41:40Z</time>
      </trkpt>
      <trkpt lat="50.697098784148693" lon="13.51415597833693">
        <ele>656</ele>
        <time>2026-08-29T06:41:41Z</time>
      </trkpt>
      <trkpt lat="50.697091575711966" lon="13.51411591283977">
        <ele>656</ele>
        <time>2026-08-29T06:41:42Z</time>
      </trkpt>
      <trkpt lat="50.697086211293936" lon="13.514069644734263">
        <ele>656</ele>
        <time>2026-08-29T06:41:43Z</time>
      </trkpt>
      <trkpt lat="50.697080511599779" lon="13.514026394113898">
        <ele>656</ele>
        <time>2026-08-29T06:41:44Z</time>
      </trkpt>
      <trkpt lat="50.697072129696608" lon="13.513986244797707">
        <ele>657</ele>
        <time>2026-08-29T06:41:45Z</time>
      </trkpt>
      <trkpt lat="50.697061736136675" lon="13.513947520405054">
        <ele>657</ele>
        <time>2026-08-29T06:41:46Z</time>
      </trkpt>
      <trkpt lat="50.697049917653203" lon="13.513900162652135">
        <ele>657</ele>
        <time>2026-08-29T06:41:47Z</time>
      </trkpt>
      <trkpt lat="50.697043379768729" lon="13.513858504593372">
        <ele>657</ele>
        <time>2026-08-29T06:41:48Z</time>
      </trkpt>
      <trkpt lat="50.69703851826489" lon="13.513816092163324">
        <ele>656</ele>
        <time>2026-08-29T06:41:49Z</time>
      </trkpt>
      <trkpt lat="50.697024771943688" lon="13.51378214545548">
        <ele>656</ele>
        <time>2026-08-29T06:41:50Z</time>
      </trkpt>
      <trkpt lat="50.697017898783088" lon="13.513746438547969">
        <ele>657</ele>
        <time>2026-08-29T06:41:51Z</time>
      </trkpt>
      <trkpt lat="50.697011360898614" lon="13.513703690841794">
        <ele>656</ele>
        <time>2026-08-29T06:41:52Z</time>
      </trkpt>
      <trkpt lat="50.697004571557045" lon="13.513661781325936">
        <ele>656</ele>
        <time>2026-08-29T06:41:53Z</time>
      </trkpt>
      <trkpt lat="50.696993842720985" lon="13.513617524877191">
        <ele>657</ele>
        <time>2026-08-29T06:41:54Z</time>
      </trkpt>
      <trkpt lat="50.696981688961387" lon="13.513576621189713">
        <ele>656</ele>
        <time>2026-08-29T06:41:55Z</time>
      </trkpt>
      <trkpt lat="50.696975905448198" lon="13.513534795492887">
        <ele>656</ele>
        <time>2026-08-29T06:41:56Z</time>
      </trkpt>
      <trkpt lat="50.696968780830503" lon="13.513491544872522">
        <ele>656</ele>
        <time>2026-08-29T06:41:57Z</time>
      </trkpt>
      <trkpt lat="50.69695645943284" lon="13.5134391579777">
        <ele>656</ele>
        <time>2026-08-29T06:41:58Z</time>
      </trkpt>
      <trkpt lat="50.696936929598451" lon="13.513386268168688">
        <ele>656</ele>
        <time>2026-08-29T06:41:59Z</time>
      </trkpt>
      <trkpt lat="50.696918237954378" lon="13.513349387794733">
        <ele>657</ele>
        <time>2026-08-29T06:42:00Z</time>
      </trkpt>
      <trkpt lat="50.696900552138686" lon="13.513301191851497">
        <ele>657</ele>
        <time>2026-08-29T06:42:01Z</time>
      </trkpt>
      <trkpt lat="50.696892589330673" lon="13.513252744451165">
        <ele>657</ele>
        <time>2026-08-29T06:42:02Z</time>
      </trkpt>
      <trkpt lat="50.696877418085933" lon="13.513192059472203">
        <ele>656</ele>
        <time>2026-08-29T06:42:03Z</time>
      </trkpt>
      <trkpt lat="50.696862163022161" lon="13.513139337301254">
        <ele>656</ele>
        <time>2026-08-29T06:42:04Z</time>
      </trkpt>
      <trkpt lat="50.696835676208138" lon="13.513085609301925">
        <ele>656</ele>
        <time>2026-08-29T06:42:05Z</time>
      </trkpt>
      <trkpt lat="50.696809692308307" lon="13.51302232593298">
        <ele>656</ele>
        <time>2026-08-29T06:42:06Z</time>
      </trkpt>
      <trkpt lat="50.696792090311646" lon="13.512954181060195">
        <ele>656</ele>
        <time>2026-08-29T06:42:07Z</time>
      </trkpt>
      <trkpt lat="50.696769878268242" lon="13.512884443625808">
        <ele>655</ele>
        <time>2026-08-29T06:42:08Z</time>
      </trkpt>
      <trkpt lat="50.696752360090613" lon="13.512822166085243">
        <ele>655</ele>
        <time>2026-08-29T06:42:09Z</time>
      </trkpt>
      <trkpt lat="50.696729645133018" lon="13.512761984020472">
        <ele>655</ele>
        <time>2026-08-29T06:42:10Z</time>
      </trkpt>
      <trkpt lat="50.696710869669914" lon="13.512688558548689">
        <ele>655</ele>
        <time>2026-08-29T06:42:11Z</time>
      </trkpt>
      <trkpt lat="50.696693686768413" lon="13.512618821114302">
        <ele>655</ele>
        <time>2026-08-29T06:42:12Z</time>
      </trkpt>
      <trkpt lat="50.696678012609482" lon="13.512560147792101">
        <ele>655</ele>
        <time>2026-08-29T06:42:13Z</time>
      </trkpt>
      <trkpt lat="50.696662338450551" lon="13.512496612966061">
        <ele>655</ele>
        <time>2026-08-29T06:42:14Z</time>
      </trkpt>
      <trkpt lat="50.696645239368081" lon="13.512438191100955">
        <ele>655</ele>
        <time>2026-08-29T06:42:15Z</time>
      </trkpt>
      <trkpt lat="50.696622943505645" lon="13.512379182502627">
        <ele>654</ele>
        <time>2026-08-29T06:42:16Z</time>
      </trkpt>
      <trkpt lat="50.696603581309319" lon="13.512308355420828">
        <ele>655</ele>
        <time>2026-08-29T06:42:17Z</time>
      </trkpt>
      <trkpt lat="50.696588410064578" lon="13.512233924120665">
        <ele>655</ele>
        <time>2026-08-29T06:42:18Z</time>
      </trkpt>
      <trkpt lat="50.696570975705981" lon="13.512161169201136">
        <ele>655</ele>
        <time>2026-08-29T06:42:19Z</time>
      </trkpt>
      <trkpt lat="50.696548763662577" lon="13.512089168652892">
        <ele>655</ele>
        <time>2026-08-29T06:42:20Z</time>
      </trkpt>
      <trkpt lat="50.696530155837536" lon="13.512014066800475">
        <ele>655</ele>
        <time>2026-08-29T06:42:21Z</time>
      </trkpt>
      <trkpt lat="50.696510458365083" lon="13.511942317709327">
        <ele>656</ele>
        <time>2026-08-29T06:42:22Z</time>
      </trkpt>
      <trkpt lat="50.696494532749057" lon="13.511871825903654">
        <ele>656</ele>
        <time>2026-08-29T06:42:23Z</time>
      </trkpt>
      <trkpt lat="50.696474332362413" lon="13.511795131489635">
        <ele>656</ele>
        <time>2026-08-29T06:42:24Z</time>
      </trkpt>
      <trkpt lat="50.696456059813499" lon="13.511725310236216">
        <ele>657</ele>
        <time>2026-08-29T06:42:25Z</time>
      </trkpt>
      <trkpt lat="50.6964404694736" lon="13.511661607772112">
        <ele>656</ele>
        <time>2026-08-29T06:42:26Z</time>
      </trkpt>
      <trkpt lat="50.69641943089664" lon="13.511590529233217">
        <ele>656</ele>
        <time>2026-08-29T06:42:27Z</time>
      </trkpt>
      <trkpt lat="50.696404930204153" lon="13.51152372546494">
        <ele>656</ele>
        <time>2026-08-29T06:42:28Z</time>
      </trkpt>
      <trkpt lat="50.69638472981751" lon="13.511456670239568">
        <ele>656</ele>
        <time>2026-08-29T06:42:29Z</time>
      </trkpt>
      <trkpt lat="50.696370312944055" lon="13.511396823450923">
        <ele>656</ele>
        <time>2026-08-29T06:42:30Z</time>
      </trkpt>
      <trkpt lat="50.69635396823287" lon="13.511339575052261">
        <ele>656</ele>
        <time>2026-08-29T06:42:31Z</time>
      </trkpt>
      <trkpt lat="50.696346089243889" lon="13.511290708556771">
        <ele>656</ele>
        <time>2026-08-29T06:42:32Z</time>
      </trkpt>
      <trkpt lat="50.696333600208163" lon="13.511239159852266">
        <ele>656</ele>
        <time>2026-08-29T06:42:33Z</time>
      </trkpt>
      <trkpt lat="50.696321194991469" lon="13.511188700795174">
        <ele>655</ele>
        <time>2026-08-29T06:42:34Z</time>
      </trkpt>
      <trkpt lat="50.696314908564091" lon="13.511146288365126">
        <ele>655</ele>
        <time>2026-08-29T06:42:35Z</time>
      </trkpt>
      <trkpt lat="50.696307281032205" lon="13.511092141270638">
        <ele>655</ele>
        <time>2026-08-29T06:42:36Z</time>
      </trkpt>
      <trkpt lat="50.696299569681287" lon="13.511047717183828">
        <ele>655</ele>
        <time>2026-08-29T06:42:37Z</time>
      </trkpt>
      <trkpt lat="50.696290181949735" lon="13.511001532897353">
        <ele>655</ele>
        <time>2026-08-29T06:42:38Z</time>
      </trkpt>
      <trkpt lat="50.696277776733041" lon="13.510962724685669">
        <ele>655</ele>
        <time>2026-08-29T06:42:39Z</time>
      </trkpt>
      <trkpt lat="50.696260677650571" lon="13.51091536693275">
        <ele>655</ele>
        <time>2026-08-29T06:42:40Z</time>
      </trkpt>
      <trkpt lat="50.696244668215513" lon="13.510868512094021">
        <ele>655</ele>
        <time>2026-08-29T06:42:41Z</time>
      </trkpt>
      <trkpt lat="50.696236621588469" lon="13.510826602578163">
        <ele>655</ele>
        <time>2026-08-29T06:42:42Z</time>
      </trkpt>
      <trkpt lat="50.696229496970773" lon="13.510784693062305">
        <ele>654</ele>
        <time>2026-08-29T06:42:43Z</time>
      </trkpt>
      <trkpt lat="50.696219690144062" lon="13.510744962841272">
        <ele>654</ele>
        <time>2026-08-29T06:42:44Z</time>
      </trkpt>
      <trkpt lat="50.696209128946066" lon="13.510702969506383">
        <ele>654</ele>
        <time>2026-08-29T06:42:45Z</time>
      </trkpt>
      <trkpt lat="50.696200160309672" lon="13.510659299790859">
        <ele>653</ele>
        <time>2026-08-29T06:42:46Z</time>
      </trkpt>
      <trkpt lat="50.696190940216184" lon="13.510620659217238">
        <ele>653</ele>
        <time>2026-08-29T06:42:47Z</time>
      </trkpt>
      <trkpt lat="50.696181049570441" lon="13.510579587891698">
        <ele>653</ele>
        <time>2026-08-29T06:42:48Z</time>
      </trkpt>
      <trkpt lat="50.696169147267938" lon="13.51053130812943">
        <ele>653</ele>
        <time>2026-08-29T06:42:49Z</time>
      </trkpt>
      <trkpt lat="50.6961624417454" lon="13.510487051680684">
        <ele>653</ele>
        <time>2026-08-29T06:42:50Z</time>
      </trkpt>
      <trkpt lat="50.696153221651912" lon="13.510445728898048">
        <ele>653</ele>
        <time>2026-08-29T06:42:51Z</time>
      </trkpt>
      <trkpt lat="50.696143582463264" lon="13.510398790240288">
        <ele>653</ele>
        <time>2026-08-29T06:42:52Z</time>
      </trkpt>
      <trkpt lat="50.696135368198156" lon="13.510352019220591">
        <ele>653</ele>
        <time>2026-08-29T06:42:53Z</time>
      </trkpt>
      <trkpt lat="50.696134949102998" lon="13.51030751131475">
        <ele>652</ele>
        <time>2026-08-29T06:42:54Z</time>
      </trkpt>
      <trkpt lat="50.696125142276287" lon="13.510260824114084">
        <ele>652</ele>
        <time>2026-08-29T06:42:55Z</time>
      </trkpt>
      <trkpt lat="50.696114161983132" lon="13.510207179933786">
        <ele>652</ele>
        <time>2026-08-29T06:42:56Z</time>
      </trkpt>
      <trkpt lat="50.696106785908341" lon="13.510158229619265">
        <ele>652</ele>
        <time>2026-08-29T06:42:57Z</time>
      </trkpt>
      <trkpt lat="50.696099661290646" lon="13.510106010362506">
        <ele>653</ele>
        <time>2026-08-29T06:42:58Z</time>
      </trkpt>
      <trkpt lat="50.696091279387474" lon="13.510059239342809">
        <ele>653</ele>
        <time>2026-08-29T06:42:59Z</time>
      </trkpt>
      <trkpt lat="50.696086082607508" lon="13.510007774457335">
        <ele>653</ele>
        <time>2026-08-29T06:43:00Z</time>
      </trkpt>
      <trkpt lat="50.69607594050467" lon="13.509947508573532">
        <ele>653</ele>
        <time>2026-08-29T06:43:01Z</time>
      </trkpt>
      <trkpt lat="50.696068061515689" lon="13.509892020374537">
        <ele>653</ele>
        <time>2026-08-29T06:43:02Z</time>
      </trkpt>
      <trkpt lat="50.696060266345739" lon="13.50984625518322">
        <ele>653</ele>
        <time>2026-08-29T06:43:03Z</time>
      </trkpt>
      <trkpt lat="50.696051213890314" lon="13.509792862460017">
        <ele>653</ele>
        <time>2026-08-29T06:43:04Z</time>
      </trkpt>
      <trkpt lat="50.696045598015189" lon="13.509741481393576">
        <ele>653</ele>
        <time>2026-08-29T06:43:05Z</time>
      </trkpt>
      <trkpt lat="50.696035539731383" lon="13.509685155004263">
        <ele>653</ele>
        <time>2026-08-29T06:43:06Z</time>
      </trkpt>
      <trkpt lat="50.696024810895324" lon="13.509628493338823">
        <ele>653</ele>
        <time>2026-08-29T06:43:07Z</time>
      </trkpt>
      <trkpt lat="50.69601240567863" lon="13.509577196091413">
        <ele>652</ele>
        <time>2026-08-29T06:43:08Z</time>
      </trkpt>
      <trkpt lat="50.696003353223205" lon="13.509528832510114">
        <ele>652</ele>
        <time>2026-08-29T06:43:09Z</time>
      </trkpt>
      <trkpt lat="50.695994216948748" lon="13.509477954357862">
        <ele>652</ele>
        <time>2026-08-29T06:43:10Z</time>
      </trkpt>
      <trkpt lat="50.695983320474625" lon="13.509424980729818">
        <ele>653</ele>
        <time>2026-08-29T06:43:11Z</time>
      </trkpt>
      <trkpt lat="50.695975106209517" lon="13.509366139769554">
        <ele>653</ele>
        <time>2026-08-29T06:43:12Z</time>
      </trkpt>
      <trkpt lat="50.695965299382806" lon="13.509315848350525">
        <ele>653</ele>
        <time>2026-08-29T06:43:13Z</time>
      </trkpt>
      <trkpt lat="50.695949625223875" lon="13.509260443970561">
        <ele>653</ele>
        <time>2026-08-29T06:43:14Z</time>
      </trkpt>
      <trkpt lat="50.695943590253592" lon="13.509205710142851">
        <ele>653</ele>
        <time>2026-08-29T06:43:15Z</time>
      </trkpt>
      <trkpt lat="50.695928670465946" lon="13.50914946757257">
        <ele>653</ele>
        <time>2026-08-29T06:43:16Z</time>
      </trkpt>
      <trkpt lat="50.695918528363109" lon="13.509097080677748">
        <ele>653</ele>
        <time>2026-08-29T06:43:17Z</time>
      </trkpt>
      <trkpt lat="50.695908721536398" lon="13.509048884734511">
        <ele>654</ele>
        <time>2026-08-29T06:43:18Z</time>
      </trkpt>
      <trkpt lat="50.695899920538068" lon="13.508980153128505">
        <ele>654</ele>
        <time>2026-08-29T06:43:19Z</time>
      </trkpt>
      <trkpt lat="50.695896819233894" lon="13.508930448442698">
        <ele>654</ele>
        <time>2026-08-29T06:43:20Z</time>
      </trkpt>
      <trkpt lat="50.695887012407184" lon="13.508873367682099">
        <ele>654</ele>
        <time>2026-08-29T06:43:21Z</time>
      </trkpt>
      <trkpt lat="50.695877959951758" lon="13.508810251951218">
        <ele>654</ele>
        <time>2026-08-29T06:43:22Z</time>
      </trkpt>
      <trkpt lat="50.695864129811525" lon="13.508751662448049">
        <ele>655</ele>
        <time>2026-08-29T06:43:23Z</time>
      </trkpt>
      <trkpt lat="50.695855747908354" lon="13.508691564202309">
        <ele>655</ele>
        <time>2026-08-29T06:43:24Z</time>
      </trkpt>
      <trkpt lat="50.695848036557436" lon="13.508632807061076">
        <ele>655</ele>
        <time>2026-08-29T06:43:25Z</time>
      </trkpt>
      <trkpt lat="50.695829847827554" lon="13.508583856746554">
        <ele>655</ele>
        <time>2026-08-29T06:43:26Z</time>
      </trkpt>
      <trkpt lat="50.695821298286319" lon="13.508513448759913">
        <ele>655</ele>
        <time>2026-08-29T06:43:27Z</time>
      </trkpt>
      <trkpt lat="50.695810988545418" lon="13.508440526202321">
        <ele>655</ele>
        <time>2026-08-29T06:43:28Z</time>
      </trkpt>
      <trkpt lat="50.695795398205519" lon="13.508367436006665">
        <ele>655</ele>
        <time>2026-08-29T06:43:29Z</time>
      </trkpt>
      <trkpt lat="50.695775197818875" lon="13.50827288813889">
        <ele>654</ele>
        <time>2026-08-29T06:43:30Z</time>
      </trkpt>
      <trkpt lat="50.695755248889327" lon="13.508185213431716">
        <ele>654</ele>
        <time>2026-08-29T06:43:31Z</time>
      </trkpt>
      <trkpt lat="50.695735802873969" lon="13.508090749382973">
        <ele>655</ele>
        <time>2026-08-29T06:43:32Z</time>
      </trkpt>
      <trkpt lat="50.695717027410865" lon="13.507992094382644">
        <ele>655</ele>
        <time>2026-08-29T06:43:33Z</time>
      </trkpt>
      <trkpt lat="50.695701772347093" lon="13.507896875962615">
        <ele>655</ele>
        <time>2026-08-29T06:43:34Z</time>
      </trkpt>
      <trkpt lat="50.695689031854272" lon="13.507799226790667">
        <ele>655</ele>
        <time>2026-08-29T06:43:35Z</time>
      </trkpt>
      <trkpt lat="50.695669502019882" lon="13.507703924551606">
        <ele>655</ele>
        <time>2026-08-29T06:43:36Z</time>
      </trkpt>
      <trkpt lat="50.695648631080985" lon="13.507609460502863">
        <ele>655</ele>
        <time>2026-08-29T06:43:37Z</time>
      </trkpt>
      <trkpt lat="50.695634549483657" lon="13.507524719461799">
        <ele>655</ele>
        <time>2026-08-29T06:43:38Z</time>
      </trkpt>
      <trkpt lat="50.695613007992506" lon="13.507439140230417">
        <ele>655</ele>
        <time>2026-08-29T06:43:39Z</time>
      </trkpt>
      <trkpt lat="50.695601860061288" lon="13.507355321198702">
        <ele>656</ele>
        <time>2026-08-29T06:43:40Z</time>
      </trkpt>
      <trkpt lat="50.695592053234577" lon="13.507282985374331">
        <ele>656</ele>
        <time>2026-08-29T06:43:41Z</time>
      </trkpt>
      <trkpt lat="50.695576798170805" lon="13.507209895178676">
        <ele>656</ele>
        <time>2026-08-29T06:43:42Z</time>
      </trkpt>
      <trkpt lat="50.695559531450272" lon="13.507146611809731">
        <ele>656</ele>
        <time>2026-08-29T06:43:43Z</time>
      </trkpt>
      <trkpt lat="50.695545030757785" lon="13.507104869931936">
        <ele>656</ele>
        <time>2026-08-29T06:43:44Z</time>
      </trkpt>
      <trkpt lat="50.695523908361793" lon="13.507044017314911">
        <ele>656</ele>
        <time>2026-08-29T06:43:45Z</time>
      </trkpt>
      <trkpt lat="50.695507731288671" lon="13.506983332335949">
        <ele>656</ele>
        <time>2026-08-29T06:43:46Z</time>
      </trkpt>
      <trkpt lat="50.695490129292011" lon="13.506934801116586">
        <ele>656</ele>
        <time>2026-08-29T06:43:47Z</time>
      </trkpt>
      <trkpt lat="50.695468503981829" lon="13.506893143057823">
        <ele>657</ele>
        <time>2026-08-29T06:43:48Z</time>
      </trkpt>
      <trkpt lat="50.695446291938424" lon="13.506870176643133">
        <ele>657</ele>
        <time>2026-08-29T06:43:49Z</time>
      </trkpt>
      <trkpt lat="50.69541628472507" lon="13.506833631545305">
        <ele>657</ele>
        <time>2026-08-29T06:43:50Z</time>
      </trkpt>
      <trkpt lat="50.69539625197649" lon="13.506796164438128">
        <ele>657</ele>
        <time>2026-08-29T06:43:51Z</time>
      </trkpt>
      <trkpt lat="50.695370770990849" lon="13.506763475015759">
        <ele>657</ele>
        <time>2026-08-29T06:43:52Z</time>
      </trkpt>
      <trkpt lat="50.695345960557461" lon="13.50673078559339">
        <ele>657</ele>
        <time>2026-08-29T06:43:53Z</time>
      </trkpt>
      <trkpt lat="50.695316372439265" lon="13.506700359284878">
        <ele>657</ele>
        <time>2026-08-29T06:43:54Z</time>
      </trkpt>
      <trkpt lat="50.695286029949784" lon="13.506678314879537">
        <ele>657</ele>
        <time>2026-08-29T06:43:55Z</time>
      </trkpt>
      <trkpt lat="50.695255352184176" lon="13.506655851379037">
        <ele>657</ele>
        <time>2026-08-29T06:43:56Z</time>
      </trkpt>
      <trkpt lat="50.695221740752459" lon="13.506632382050157">
        <ele>657</ele>
        <time>2026-08-29T06:43:57Z</time>
      </trkpt>
      <trkpt lat="50.695191230624914" lon="13.506619976833463">
        <ele>657</ele>
        <time>2026-08-29T06:43:58Z</time>
      </trkpt>
      <trkpt lat="50.695159211754799" lon="13.506603380665183">
        <ele>657</ele>
        <time>2026-08-29T06:43:59Z</time>
      </trkpt>
      <trkpt lat="50.695128869265318" lon="13.506585946306586">
        <ele>657</ele>
        <time>2026-08-29T06:44:00Z</time>
      </trkpt>
      <trkpt lat="50.695094000548124" lon="13.506569098681211">
        <ele>657</ele>
        <time>2026-08-29T06:44:01Z</time>
      </trkpt>
      <trkpt lat="50.695045636966825" lon="13.506563985720277">
        <ele>657</ele>
        <time>2026-08-29T06:44:02Z</time>
      </trkpt>
      <trkpt lat="50.695008002221584" lon="13.506552083417773">
        <ele>657</ele>
        <time>2026-08-29T06:44:03Z</time>
      </trkpt>
      <trkpt lat="50.694962320849299" lon="13.506536576896906">
        <ele>658</ele>
        <time>2026-08-29T06:44:04Z</time>
      </trkpt>
      <trkpt lat="50.694914208725095" lon="13.506528194993734">
        <ele>658</ele>
        <time>2026-08-29T06:44:05Z</time>
      </trkpt>
      <trkpt lat="50.694872718304396" lon="13.506510257720947">
        <ele>658</ele>
        <time>2026-08-29T06:44:06Z</time>
      </trkpt>
      <trkpt lat="50.694825779646635" lon="13.506495086476207">
        <ele>658</ele>
        <time>2026-08-29T06:44:07Z</time>
      </trkpt>
      <trkpt lat="50.694777835160494" lon="13.50648544728756">
        <ele>658</ele>
        <time>2026-08-29T06:44:08Z</time>
      </trkpt>
      <trkpt lat="50.694726957008243" lon="13.506470527499914">
        <ele>658</ele>
        <time>2026-08-29T06:44:09Z</time>
      </trkpt>
      <trkpt lat="50.694678677245975" lon="13.506458038464189">
        <ele>658</ele>
        <time>2026-08-29T06:44:10Z</time>
      </trkpt>
      <trkpt lat="50.694631487131119" lon="13.506440268829465">
        <ele>658</ele>
        <time>2026-08-29T06:44:11Z</time>
      </trkpt>
      <trkpt lat="50.694586811587214" lon="13.506403639912605">
        <ele>658</ele>
        <time>2026-08-29T06:44:12Z</time>
      </trkpt>
      <trkpt lat="50.694539621472359" lon="13.506376650184393">
        <ele>658</ele>
        <time>2026-08-29T06:44:13Z</time>
      </trkpt>
      <trkpt lat="50.694495867937803" lon="13.506338596343994">
        <ele>659</ele>
        <time>2026-08-29T06:44:14Z</time>
      </trkpt>
      <trkpt lat="50.694454628974199" lon="13.506289981305599">
        <ele>658</ele>
        <time>2026-08-29T06:44:15Z</time>
      </trkpt>
      <trkpt lat="50.694412300363183" lon="13.506243797019124">
        <ele>658</ele>
        <time>2026-08-29T06:44:16Z</time>
      </trkpt>
      <trkpt lat="50.694371480494738" lon="13.506201971322298">
        <ele>658</ele>
        <time>2026-08-29T06:44:17Z</time>
      </trkpt>
      <trkpt lat="50.694331582635641" lon="13.506156876683235">
        <ele>658</ele>
        <time>2026-08-29T06:44:18Z</time>
      </trkpt>
      <trkpt lat="50.69430124014616" lon="13.506101807579398">
        <ele>658</ele>
        <time>2026-08-29T06:44:19Z</time>
      </trkpt>
      <trkpt lat="50.694272741675377" lon="13.506042631343007">
        <ele>658</ele>
        <time>2026-08-29T06:44:20Z</time>
      </trkpt>
      <trkpt lat="50.694243740290403" lon="13.505996614694595">
        <ele>658</ele>
        <time>2026-08-29T06:44:21Z</time>
      </trkpt>
      <trkpt lat="50.694220187142491" lon="13.505941545590758">
        <ele>658</ele>
        <time>2026-08-29T06:44:22Z</time>
      </trkpt>
      <trkpt lat="50.694198561832309" lon="13.505879687145352">
        <ele>658</ele>
        <time>2026-08-29T06:44:23Z</time>
      </trkpt>
      <trkpt lat="50.6941800378263" lon="13.505814811214805">
        <ele>658</ele>
        <time>2026-08-29T06:44:24Z</time>
      </trkpt>
      <trkpt lat="50.694160759449005" lon="13.505738619714975">
        <ele>658</ele>
        <time>2026-08-29T06:44:25Z</time>
      </trkpt>
      <trkpt lat="50.694150701165199" lon="13.505655052140355">
        <ele>657</ele>
        <time>2026-08-29T06:44:26Z</time>
      </trkpt>
      <trkpt lat="50.694142235442996" lon="13.505566539242864">
        <ele>658</ele>
        <time>2026-08-29T06:44:27Z</time>
      </trkpt>
      <trkpt lat="50.694141648709774" lon="13.505459669977427">
        <ele>658</ele>
        <time>2026-08-29T06:44:28Z</time>
      </trkpt>
      <trkpt lat="50.694135529920459" lon="13.505355902016163">
        <ele>658</ele>
        <time>2026-08-29T06:44:29Z</time>
      </trkpt>
      <trkpt lat="50.69412094540894" lon="13.505262359976768">
        <ele>657</ele>
        <time>2026-08-29T06:44:30Z</time>
      </trkpt>
      <trkpt lat="50.694103594869375" lon="13.505158927291632">
        <ele>657</ele>
        <time>2026-08-29T06:44:31Z</time>
      </trkpt>
      <trkpt lat="50.694083059206605" lon="13.505046274513006">
        <ele>657</ele>
        <time>2026-08-29T06:44:32Z</time>
      </trkpt>
      <trkpt lat="50.694056153297424" lon="13.504929514601827">
        <ele>657</ele>
        <time>2026-08-29T06:44:33Z</time>
      </trkpt>
      <trkpt lat="50.6940315105021" lon="13.504827003926039">
        <ele>657</ele>
        <time>2026-08-29T06:44:34Z</time>
      </trkpt>
      <trkpt lat="50.694007370620966" lon="13.504731869325042">
        <ele>657</ele>
        <time>2026-08-29T06:44:35Z</time>
      </trkpt>
      <trkpt lat="50.693981302902102" lon="13.504634890705347">
        <ele>657</ele>
        <time>2026-08-29T06:44:36Z</time>
      </trkpt>
      <trkpt lat="50.69395188242197" lon="13.504534894600511">
        <ele>656</ele>
        <time>2026-08-29T06:44:37Z</time>
      </trkpt>
      <trkpt lat="50.693922378122807" lon="13.504443028941751">
        <ele>656</ele>
        <time>2026-08-29T06:44:38Z</time>
      </trkpt>
      <trkpt lat="50.69389614276588" lon="13.504351330921054">
        <ele>656</ele>
        <time>2026-08-29T06:44:39Z</time>
      </trkpt>
      <trkpt lat="50.693862615153193" lon="13.504269272089005">
        <ele>656</ele>
        <time>2026-08-29T06:44:40Z</time>
      </trkpt>
      <trkpt lat="50.693830093368888" lon="13.504201965406537">
        <ele>655</ele>
        <time>2026-08-29T06:44:41Z</time>
      </trkpt>
      <trkpt lat="50.693792961537838" lon="13.504133317619562">
        <ele>655</ele>
        <time>2026-08-29T06:44:42Z</time>
      </trkpt>
      <trkpt lat="50.693763876333833" lon="13.504041871055961">
        <ele>655</ele>
        <time>2026-08-29T06:44:43Z</time>
      </trkpt>
      <trkpt lat="50.693742921575904" lon="13.503958471119404">
        <ele>655</ele>
        <time>2026-08-29T06:44:44Z</time>
      </trkpt>
      <trkpt lat="50.693732779473066" lon="13.503881860524416">
        <ele>653</ele>
        <time>2026-08-29T06:44:45Z</time>
      </trkpt>
      <trkpt lat="50.693734707310796" lon="13.503829222172499">
        <ele>653</ele>
        <time>2026-08-29T06:44:46Z</time>
      </trkpt>
      <trkpt lat="50.693741580471396" lon="13.503800639882684">
        <ele>653</ele>
        <time>2026-08-29T06:44:47Z</time>
      </trkpt>
      <trkpt lat="50.693750968202949" lon="13.503786474466324">
        <ele>653</ele>
        <time>2026-08-29T06:44:48Z</time>
      </trkpt>
      <trkpt lat="50.693761948496103" lon="13.503777924925089">
        <ele>653</ele>
        <time>2026-08-29T06:44:49Z</time>
      </trkpt>
      <trkpt lat="50.693768989294767" lon="13.503757975995541">
        <ele>653</ele>
        <time>2026-08-29T06:44:50Z</time>
      </trkpt>
      <trkpt lat="50.693776030093431" lon="13.503743140026927">
        <ele>653</ele>
        <time>2026-08-29T06:44:51Z</time>
      </trkpt>
      <trkpt lat="50.693773599341512" lon="13.50372763350606">
        <ele>653</ele>
        <time>2026-08-29T06:44:52Z</time>
      </trkpt>
      <trkpt lat="50.693770749494433" lon="13.503720760345459">
        <ele>652</ele>
        <time>2026-08-29T06:44:53Z</time>
      </trkpt>
      <trkpt lat="50.693772342056036" lon="13.503697207197547">
        <ele>652</ele>
        <time>2026-08-29T06:44:54Z</time>
      </trkpt>
      <trkpt lat="50.693774856626987" lon="13.503685388714075">
        <ele>651</ele>
        <time>2026-08-29T06:44:55Z</time>
      </trkpt>
      <trkpt lat="50.693776365369558" lon="13.503661835566163">
        <ele>651</ele>
        <time>2026-08-29T06:44:56Z</time>
      </trkpt>
      <trkpt lat="50.693783573806286" lon="13.503641551360488">
        <ele>651</ele>
        <time>2026-08-29T06:44:57Z</time>
      </trkpt>
      <trkpt lat="50.693789441138506" lon="13.503617327660322">
        <ele>651</ele>
        <time>2026-08-29T06:44:58Z</time>
      </trkpt>
      <trkpt lat="50.693795727565885" lon="13.503588493913412">
        <ele>651</ele>
        <time>2026-08-29T06:44:59Z</time>
      </trkpt>
      <trkpt lat="50.693800589069724" lon="13.50355270318687">
        <ele>651</ele>
        <time>2026-08-29T06:45:00Z</time>
      </trkpt>
      <trkpt lat="50.693801930174232" lon="13.503515906631947">
        <ele>651</ele>
        <time>2026-08-29T06:45:01Z</time>
      </trkpt>
      <trkpt lat="50.693801259621978" lon="13.503482965752482">
        <ele>651</ele>
        <time>2026-08-29T06:45:02Z</time>
      </trkpt>
      <trkpt lat="50.693793380632997" lon="13.503448432311416">
        <ele>650</ele>
        <time>2026-08-29T06:45:03Z</time>
      </trkpt>
      <trkpt lat="50.693785836920142" lon="13.503410294651985">
        <ele>651</ele>
        <time>2026-08-29T06:45:04Z</time>
      </trkpt>
      <trkpt lat="50.693780556321144" lon="13.50337584502995">
        <ele>651</ele>
        <time>2026-08-29T06:45:05Z</time>
      </trkpt>
      <trkpt lat="50.69377007894218" lon="13.50333821028471">
        <ele>651</ele>
        <time>2026-08-29T06:45:06Z</time>
      </trkpt>
      <trkpt lat="50.693765301257372" lon="13.50331331603229">
        <ele>651</ele>
        <time>2026-08-29T06:45:07Z</time>
      </trkpt>
      <trkpt lat="50.693756751716137" lon="13.503280039876699">
        <ele>650</ele>
        <time>2026-08-29T06:45:08Z</time>
      </trkpt>
      <trkpt lat="50.693745855242014" lon="13.503238800913095">
        <ele>650</ele>
        <time>2026-08-29T06:45:09Z</time>
      </trkpt>
      <trkpt lat="50.693726995959878" lon="13.50320091471076">
        <ele>650</ele>
        <time>2026-08-29T06:45:10Z</time>
      </trkpt>
      <trkpt lat="50.693715428933501" lon="13.503171410411596">
        <ele>650</ele>
        <time>2026-08-29T06:45:11Z</time>
      </trkpt>
      <trkpt lat="50.693690702319145" lon="13.503141906112432">
        <ele>649</ele>
        <time>2026-08-29T06:45:12Z</time>
      </trkpt>
      <trkpt lat="50.693660946562886" lon="13.503110222518444">
        <ele>649</ele>
        <time>2026-08-29T06:45:13Z</time>
      </trkpt>
      <trkpt lat="50.693630939349532" lon="13.503071581944823">
        <ele>649</ele>
        <time>2026-08-29T06:45:14Z</time>
      </trkpt>
      <trkpt lat="50.693598752841353" lon="13.503036797046661">
        <ele>649</ele>
        <time>2026-08-29T06:45:15Z</time>
      </trkpt>
      <trkpt lat="50.693561285734177" lon="13.503002934157848">
        <ele>648</ele>
        <time>2026-08-29T06:45:16Z</time>
      </trkpt>
      <trkpt lat="50.693530021235347" lon="13.502965634688735">
        <ele>648</ele>
        <time>2026-08-29T06:45:17Z</time>
      </trkpt>
      <trkpt lat="50.693492302671075" lon="13.502916097640991">
        <ele>648</ele>
        <time>2026-08-29T06:45:18Z</time>
      </trkpt>
      <trkpt lat="50.69345785304904" lon="13.502869326621294">
        <ele>648</ele>
        <time>2026-08-29T06:45:19Z</time>
      </trkpt>
      <trkpt lat="50.693429941311479" lon="13.502824483439326">
        <ele>647</ele>
        <time>2026-08-29T06:45:20Z</time>
      </trkpt>
      <trkpt lat="50.693402364850044" lon="13.502777293324471">
        <ele>647</ele>
        <time>2026-08-29T06:45:21Z</time>
      </trkpt>
      <trkpt lat="50.693378727883101" lon="13.502744939178228">
        <ele>647</ele>
        <time>2026-08-29T06:45:22Z</time>
      </trkpt>
      <trkpt lat="50.69336405955255" lon="13.502721050754189">
        <ele>646</ele>
        <time>2026-08-29T06:45:23Z</time>
      </trkpt>
      <trkpt lat="50.693354001268744" lon="13.502702862024307">
        <ele>646</ele>
        <time>2026-08-29T06:45:24Z</time>
      </trkpt>
      <trkpt lat="50.69335182197392" lon="13.502705208957195">
        <ele>646</ele>
        <time>2026-08-29T06:45:25Z</time>
      </trkpt>
      <trkpt lat="50.693351486697793" lon="13.502708058804274">
        <ele>646</ele>
        <time>2026-08-29T06:45:26Z</time>
      </trkpt>
      <trkpt lat="50.69334888830781" lon="13.502715434879065">
        <ele>646</ele>
        <time>2026-08-29T06:45:27Z</time>
      </trkpt>
      <trkpt lat="50.69334888830781" lon="13.502721805125475">
        <ele>646</ele>
        <time>2026-08-29T06:45:28Z</time>
      </trkpt>
      <trkpt lat="50.693348217755556" lon="13.502720883116126">
        <ele>646</ele>
        <time>2026-08-29T06:45:29Z</time>
      </trkpt>
      <trkpt lat="50.693350397050381" lon="13.502724235877395">
        <ele>646</ele>
        <time>2026-08-29T06:45:30Z</time>
      </trkpt>
      <trkpt lat="50.693350229412317" lon="13.502723649144173">
        <ele>646</ele>
        <time>2026-08-29T06:45:31Z</time>
      </trkpt>
      <trkpt lat="50.693348301574588" lon="13.502724822610617">
        <ele>646</ele>
        <time>2026-08-29T06:45:32Z</time>
      </trkpt>
      <trkpt lat="50.693350229412317" lon="13.502726163715124">
        <ele>646</ele>
        <time>2026-08-29T06:45:33Z</time>
      </trkpt>
      <trkpt lat="50.693344781175256" lon="13.502718200907111">
        <ele>646</ele>
        <time>2026-08-29T06:45:34Z</time>
      </trkpt>
      <trkpt lat="50.693343859165907" lon="13.502715853974223">
        <ele>646</ele>
        <time>2026-08-29T06:45:35Z</time>
      </trkpt>
      <trkpt lat="50.69333815947175" lon="13.502706550061703">
        <ele>647</ele>
        <time>2026-08-29T06:45:36Z</time>
      </trkpt>
      <trkpt lat="50.693334052339196" lon="13.502705125138164">
        <ele>647</ele>
        <time>2026-08-29T06:45:37Z</time>
      </trkpt>
      <trkpt lat="50.693334052339196" lon="13.502705292776227">
        <ele>647</ele>
        <time>2026-08-29T06:45:38Z</time>
      </trkpt>
      <trkpt lat="50.693335058167577" lon="13.502704370766878">
        <ele>647</ele>
        <time>2026-08-29T06:45:39Z</time>
      </trkpt>
      <trkpt lat="50.693332627415657" lon="13.502698503434658">
        <ele>647</ele>
        <time>2026-08-29T06:45:40Z</time>
      </trkpt>
      <trkpt lat="50.693327765911818" lon="13.502700598910451">
        <ele>646</ele>
        <time>2026-08-29T06:45:41Z</time>
      </trkpt>
      <trkpt lat="50.693324161693454" lon="13.50269322283566">
        <ele>647</ele>
        <time>2026-08-29T06:45:42Z</time>
      </trkpt>
      <trkpt lat="50.693319300189614" lon="13.50269028916955">
        <ele>646</ele>
        <time>2026-08-29T06:45:43Z</time>
      </trkpt>
      <trkpt lat="50.693318797275424" lon="13.502686936408281">
        <ele>646</ele>
        <time>2026-08-29T06:45:44Z</time>
      </trkpt>
      <trkpt lat="50.693319719284773" lon="13.502689534798265">
        <ele>646</ele>
        <time>2026-08-29T06:45:45Z</time>
      </trkpt>
      <trkpt lat="50.693319719284773" lon="13.502685846760869">
        <ele>646</ele>
        <time>2026-08-29T06:45:46Z</time>
      </trkpt>
      <trkpt lat="50.693316450342536" lon="13.502679308876395">
        <ele>646</ele>
        <time>2026-08-29T06:45:47Z</time>
      </trkpt>
      <trkpt lat="50.693310750648379" lon="13.502677045762539">
        <ele>646</ele>
        <time>2026-08-29T06:45:48Z</time>
      </trkpt>
      <trkpt lat="50.693303123116493" lon="13.502662712708116">
        <ele>646</ele>
        <time>2026-08-29T06:45:49Z</time>
      </trkpt>
      <trkpt lat="50.693295579403639" lon="13.502654079347849">
        <ele>646</ele>
        <time>2026-08-29T06:45:50Z</time>
      </trkpt>
      <trkpt lat="50.693295747041702" lon="13.502653911709785">
        <ele>646</ele>
        <time>2026-08-29T06:45:51Z</time>
      </trkpt>
      <trkpt lat="50.693295747041702" lon="13.50265366025269">
        <ele>646</ele>
        <time>2026-08-29T06:45:52Z</time>
      </trkpt>
      <trkpt lat="50.693295411765575" lon="13.502653408795595">
        <ele>646</ele>
        <time>2026-08-29T06:45:53Z</time>
      </trkpt>
      <trkpt lat="50.693294825032353" lon="13.502653324976563">
        <ele>646</ele>
        <time>2026-08-29T06:45:54Z</time>
      </trkpt>
      <trkpt lat="50.69329465739429" lon="13.502652570605278">
        <ele>646</ele>
        <time>2026-08-29T06:45:55Z</time>
      </trkpt>
      <trkpt lat="50.693294489756227" lon="13.502655168995261">
        <ele>645</ele>
        <time>2026-08-29T06:45:56Z</time>
      </trkpt>
      <trkpt lat="50.693287700414658" lon="13.502638069912791">
        <ele>646</ele>
        <time>2026-08-29T06:45:57Z</time>
      </trkpt>
      <trkpt lat="50.693278228864074" lon="13.502628011628985">
        <ele>645</ele>
        <time>2026-08-29T06:45:58Z</time>
      </trkpt>
      <trkpt lat="50.693267248570919" lon="13.502617198973894">
        <ele>645</ele>
        <time>2026-08-29T06:45:59Z</time>
      </trkpt>
      <trkpt lat="50.693256938830018" lon="13.502602949738503">
        <ele>645</ele>
        <time>2026-08-29T06:46:00Z</time>
      </trkpt>
      <trkpt lat="50.693248808383942" lon="13.50259356200695">
        <ele>645</ele>
        <time>2026-08-29T06:46:01Z</time>
      </trkpt>
      <trkpt lat="50.693236654624343" lon="13.502567745745182">
        <ele>645</ele>
        <time>2026-08-29T06:46:02Z</time>
      </trkpt>
      <trkpt lat="50.693229446187615" lon="13.502537738531828">
        <ele>645</ele>
        <time>2026-08-29T06:46:03Z</time>
      </trkpt>
      <trkpt lat="50.693215699866414" lon="13.502500187605619">
        <ele>645</ele>
        <time>2026-08-29T06:46:04Z</time>
      </trkpt>
      <trkpt lat="50.693209329620004" lon="13.502462301403284">
        <ele>645</ele>
        <time>2026-08-29T06:46:05Z</time>
      </trkpt>
      <trkpt lat="50.693214107304811" lon="13.502416787669063">
        <ele>645</ele>
        <time>2026-08-29T06:46:06Z</time>
      </trkpt>
      <trkpt lat="50.693219220265746" lon="13.502376973628998">
        <ele>645</ele>
        <time>2026-08-29T06:46:07Z</time>
      </trkpt>
      <trkpt lat="50.693225590512156" lon="13.50234973244369">
        <ele>645</ele>
        <time>2026-08-29T06:46:08Z</time>
      </trkpt>
      <trkpt lat="50.693236738443375" lon="13.502320563420653">
        <ele>646</ele>
        <time>2026-08-29T06:46:09Z</time>
      </trkpt>
      <trkpt lat="50.693244030699134" lon="13.502286113798618">
        <ele>646</ele>
        <time>2026-08-29T06:46:10Z</time>
      </trkpt>
      <trkpt lat="50.693251993507147" lon="13.502256022766232">
        <ele>645</ele>
        <time>2026-08-29T06:46:11Z</time>
      </trkpt>
      <trkpt lat="50.693259369581938" lon="13.502232050523162">
        <ele>645</ele>
        <time>2026-08-29T06:46:12Z</time>
      </trkpt>
      <trkpt lat="50.693269679322839" lon="13.502197936177254">
        <ele>645</ele>
        <time>2026-08-29T06:46:13Z</time>
      </trkpt>
      <trkpt lat="50.693282503634691" lon="13.502159966155887">
        <ele>644</ele>
        <time>2026-08-29T06:46:14Z</time>
      </trkpt>
      <trkpt lat="50.693297339603305" lon="13.502110345289111">
        <ele>644</ele>
        <time>2026-08-29T06:46:15Z</time>
      </trkpt>
      <trkpt lat="50.693306978791952" lon="13.502075728029013">
        <ele>644</ele>
        <time>2026-08-29T06:46:16Z</time>
      </trkpt>
      <trkpt lat="50.693321647122502" lon="13.502044379711151">
        <ele>644</ele>
        <time>2026-08-29T06:46:17Z</time>
      </trkpt>
      <trkpt lat="50.693337069824338" lon="13.502008421346545">
        <ele>644</ele>
        <time>2026-08-29T06:46:18Z</time>
      </trkpt>
      <trkpt lat="50.693352408707142" lon="13.501966847106814">
        <ele>644</ele>
        <time>2026-08-29T06:46:19Z</time>
      </trkpt>
      <trkpt lat="50.693366909399629" lon="13.50192560814321">
        <ele>644</ele>
        <time>2026-08-29T06:46:20Z</time>
      </trkpt>
      <trkpt lat="50.693380320444703" lon="13.501887302845716">
        <ele>644</ele>
        <time>2026-08-29T06:46:21Z</time>
      </trkpt>
      <trkpt lat="50.693394150584936" lon="13.501864252611995">
        <ele>644</ele>
        <time>2026-08-29T06:46:22Z</time>
      </trkpt>
      <trkpt lat="50.693402951583266" lon="13.50183080881834">
        <ele>644</ele>
        <time>2026-08-29T06:46:23Z</time>
      </trkpt>
      <trkpt lat="50.69341585971415" lon="13.501802226528525">
        <ele>644</ele>
        <time>2026-08-29T06:46:24Z</time>
      </trkpt>
      <trkpt lat="50.693426840007305" lon="13.501773895695806">
        <ele>644</ele>
        <time>2026-08-29T06:46:25Z</time>
      </trkpt>
      <trkpt lat="50.693434970453382" lon="13.501754282042384">
        <ele>643</ele>
        <time>2026-08-29T06:46:26Z</time>
      </trkpt>
      <trkpt lat="50.69344175979495" lon="13.50175067782402">
        <ele>644</ele>
        <time>2026-08-29T06:46:27Z</time>
      </trkpt>
      <trkpt lat="50.693451063707471" lon="13.501753024756908">
        <ele>644</ele>
        <time>2026-08-29T06:46:28Z</time>
      </trkpt>
      <trkpt lat="50.693450728431344" lon="13.501754449680448">
        <ele>644</ele>
        <time>2026-08-29T06:46:29Z</time>
      </trkpt>
      <trkpt lat="50.693450812250376" lon="13.501754198223352">
        <ele>644</ele>
        <time>2026-08-29T06:46:30Z</time>
      </trkpt>
      <trkpt lat="50.693453578278422" lon="13.501752689480782">
        <ele>644</ele>
        <time>2026-08-29T06:46:31Z</time>
      </trkpt>
      <trkpt lat="50.693453829735518" lon="13.501752857118845">
        <ele>644</ele>
        <time>2026-08-29T06:46:32Z</time>
      </trkpt>
      <trkpt lat="50.693453829735518" lon="13.501752438023686">
        <ele>644</ele>
        <time>2026-08-29T06:46:33Z</time>
      </trkpt>
      <trkpt lat="50.693453829735518" lon="13.501752186566591">
        <ele>644</ele>
        <time>2026-08-29T06:46:34Z</time>
      </trkpt>
      <trkpt lat="50.693453829735518" lon="13.501751851290464">
        <ele>644</ele>
        <time>2026-08-29T06:46:35Z</time>
      </trkpt>
      <trkpt lat="50.693453997373581" lon="13.501751683652401">
        <ele>644</ele>
        <time>2026-08-29T06:46:36Z</time>
      </trkpt>
      <trkpt lat="50.693454081192613" lon="13.501751599833369">
        <ele>644</ele>
        <time>2026-08-29T06:46:37Z</time>
      </trkpt>
      <trkpt lat="50.693454081192613" lon="13.501751599833369">
        <ele>644</ele>
        <time>2026-08-29T06:46:38Z</time>
      </trkpt>
      <trkpt lat="50.69345441646874" lon="13.501751599833369">
        <ele>644</ele>
        <time>2026-08-29T06:46:39Z</time>
      </trkpt>
      <trkpt lat="50.693454751744866" lon="13.501751599833369">
        <ele>644</ele>
        <time>2026-08-29T06:46:40Z</time>
      </trkpt>
      <trkpt lat="50.693455087020993" lon="13.501751599833369">
        <ele>644</ele>
        <time>2026-08-29T06:46:41Z</time>
      </trkpt>
      <trkpt lat="50.693455087020993" lon="13.501751599833369">
        <ele>644</ele>
        <time>2026-08-29T06:46:42Z</time>
      </trkpt>
      <trkpt lat="50.693455170840025" lon="13.501751767471433">
        <ele>644</ele>
        <time>2026-08-29T06:46:43Z</time>
      </trkpt>
      <trkpt lat="50.693455170840025" lon="13.501751767471433">
        <ele>644</ele>
        <time>2026-08-29T06:46:44Z</time>
      </trkpt>
      <trkpt lat="50.693455338478088" lon="13.501751767471433">
        <ele>644</ele>
        <time>2026-08-29T06:46:45Z</time>
      </trkpt>
      <trkpt lat="50.693455673754215" lon="13.501751683652401">
        <ele>644</ele>
        <time>2026-08-29T06:46:46Z</time>
      </trkpt>
      <trkpt lat="50.69345592521131" lon="13.501751851290464">
        <ele>644</ele>
        <time>2026-08-29T06:46:47Z</time>
      </trkpt>
      <trkpt lat="50.693456092849374" lon="13.501751767471433">
        <ele>644</ele>
        <time>2026-08-29T06:46:48Z</time>
      </trkpt>
      <trkpt lat="50.693456260487437" lon="13.501751599833369">
        <ele>644</ele>
        <time>2026-08-29T06:46:49Z</time>
      </trkpt>
      <trkpt lat="50.693456260487437" lon="13.501751599833369">
        <ele>644</ele>
        <time>2026-08-29T06:46:50Z</time>
      </trkpt>
      <trkpt lat="50.693456260487437" lon="13.501751683652401">
        <ele>644</ele>
        <time>2026-08-29T06:46:51Z</time>
      </trkpt>
      <trkpt lat="50.693456260487437" lon="13.501751683652401">
        <ele>644</ele>
        <time>2026-08-29T06:46:52Z</time>
      </trkpt>
      <trkpt lat="50.693456260487437" lon="13.501751683652401">
        <ele>644</ele>
        <time>2026-08-29T06:46:53Z</time>
      </trkpt>
      <trkpt lat="50.693456260487437" lon="13.501751767471433">
        <ele>644</ele>
        <time>2026-08-29T06:46:54Z</time>
      </trkpt>
      <trkpt lat="50.693456092849374" lon="13.501752018928528">
        <ele>644</ele>
        <time>2026-08-29T06:46:55Z</time>
      </trkpt>
      <trkpt lat="50.693456260487437" lon="13.501752186566591">
        <ele>644</ele>
        <time>2026-08-29T06:46:56Z</time>
      </trkpt>
      <trkpt lat="50.693456260487437" lon="13.501752186566591">
        <ele>644</ele>
        <time>2026-08-29T06:46:57Z</time>
      </trkpt>
      <trkpt lat="50.693456260487437" lon="13.501752438023686">
        <ele>644</ele>
        <time>2026-08-29T06:46:58Z</time>
      </trkpt>
      <trkpt lat="50.693456092849374" lon="13.501752689480782">
        <ele>644</ele>
        <time>2026-08-29T06:46:59Z</time>
      </trkpt>
      <trkpt lat="50.69345592521131" lon="13.501752689480782">
        <ele>644</ele>
        <time>2026-08-29T06:47:00Z</time>
      </trkpt>
      <trkpt lat="50.693455757573247" lon="13.501752773299813">
        <ele>644</ele>
        <time>2026-08-29T06:47:01Z</time>
      </trkpt>
      <trkpt lat="50.693455589935184" lon="13.501752773299813">
        <ele>644</ele>
        <time>2026-08-29T06:47:02Z</time>
      </trkpt>
      <trkpt lat="50.693455589935184" lon="13.501753024756908">
        <ele>644</ele>
        <time>2026-08-29T06:47:03Z</time>
      </trkpt>
      <trkpt lat="50.693455589935184" lon="13.501753024756908">
        <ele>644</ele>
        <time>2026-08-29T06:47:04Z</time>
      </trkpt>
      <trkpt lat="50.693455757573247" lon="13.50175310857594">
        <ele>644</ele>
        <time>2026-08-29T06:47:05Z</time>
      </trkpt>
      <trkpt lat="50.693455841392279" lon="13.50175310857594">
        <ele>644</ele>
        <time>2026-08-29T06:47:06Z</time>
      </trkpt>
      <trkpt lat="50.693455757573247" lon="13.50175310857594">
        <ele>644</ele>
        <time>2026-08-29T06:47:07Z</time>
      </trkpt>
      <trkpt lat="50.693455589935184" lon="13.501753192394972">
        <ele>644</ele>
        <time>2026-08-29T06:47:08Z</time>
      </trkpt>
      <trkpt lat="50.693455589935184" lon="13.50175310857594">
        <ele>644</ele>
        <time>2026-08-29T06:47:09Z</time>
      </trkpt>
      <trkpt lat="50.693455757573247" lon="13.50175310857594">
        <ele>644</ele>
        <time>2026-08-29T06:47:10Z</time>
      </trkpt>
      <trkpt lat="50.693455673754215" lon="13.501753024756908">
        <ele>644</ele>
        <time>2026-08-29T06:47:11Z</time>
      </trkpt>
      <trkpt lat="50.693455757573247" lon="13.501752940937877">
        <ele>644</ele>
        <time>2026-08-29T06:47:12Z</time>
      </trkpt>
      <trkpt lat="50.693455757573247" lon="13.501752940937877">
        <ele>644</ele>
        <time>2026-08-29T06:47:13Z</time>
      </trkpt>
      <trkpt lat="50.693455757573247" lon="13.501753024756908">
        <ele>644</ele>
        <time>2026-08-29T06:47:14Z</time>
      </trkpt>
      <trkpt lat="50.693457433953881" lon="13.501751851290464">
        <ele>644</ele>
        <time>2026-08-29T06:47:15Z</time>
      </trkpt>
      <trkpt lat="50.69345491938293" lon="13.501760652288795">
        <ele>643</ele>
        <time>2026-08-29T06:47:16Z</time>
      </trkpt>
      <trkpt lat="50.69345248863101" lon="13.501758640632033">
        <ele>643</ele>
        <time>2026-08-29T06:47:17Z</time>
      </trkpt>
      <trkpt lat="50.693451147526503" lon="13.501749755814672">
        <ele>643</ele>
        <time>2026-08-29T06:47:18Z</time>
      </trkpt>
      <trkpt lat="50.69345248863101" lon="13.501735255122185">
        <ele>643</ele>
        <time>2026-08-29T06:47:19Z</time>
      </trkpt>
      <trkpt lat="50.693460870534182" lon="13.50170960649848">
        <ele>644</ele>
        <time>2026-08-29T06:47:20Z</time>
      </trkpt>
      <trkpt lat="50.69346615113318" lon="13.50167297758162">
        <ele>644</ele>
        <time>2026-08-29T06:47:21Z</time>
      </trkpt>
      <trkpt lat="50.693471347913146" lon="13.501636767759919">
        <ele>644</ele>
        <time>2026-08-29T06:47:22Z</time>
      </trkpt>
      <trkpt lat="50.693475371226668" lon="13.501602234318852">
        <ele>644</ele>
        <time>2026-08-29T06:47:23Z</time>
      </trkpt>
      <trkpt lat="50.693486351519823" lon="13.501569293439388">
        <ele>644</ele>
        <time>2026-08-29T06:47:24Z</time>
      </trkpt>
      <trkpt lat="50.693501271307468" lon="13.501534759998322">
        <ele>644</ele>
        <time>2026-08-29T06:47:25Z</time>
      </trkpt>
      <trkpt lat="50.693514011800289" lon="13.501496287062764">
        <ele>644</ele>
        <time>2026-08-29T06:47:26Z</time>
      </trkpt>
      <trkpt lat="50.693522309884429" lon="13.501465022563934">
        <ele>644</ele>
        <time>2026-08-29T06:47:27Z</time>
      </trkpt>
      <trkpt lat="50.693530859425664" lon="13.501440128311515">
        <ele>644</ele>
        <time>2026-08-29T06:47:28Z</time>
      </trkpt>
      <trkpt lat="50.69354192353785" lon="13.50141791626811">
        <ele>644</ele>
        <time>2026-08-29T06:47:29Z</time>
      </trkpt>
      <trkpt lat="50.693553658202291" lon="13.501397045329213">
        <ele>644</ele>
        <time>2026-08-29T06:47:30Z</time>
      </trkpt>
      <trkpt lat="50.693561118096113" lon="13.501368127763271">
        <ele>644</ele>
        <time>2026-08-29T06:47:31Z</time>
      </trkpt>
      <trkpt lat="50.693572517484426" lon="13.501348095014691">
        <ele>644</ele>
        <time>2026-08-29T06:47:32Z</time>
      </trkpt>
      <trkpt lat="50.693579558283091" lon="13.501326804980636">
        <ele>644</ele>
        <time>2026-08-29T06:47:33Z</time>
      </trkpt>
      <trkpt lat="50.693581318482757" lon="13.501308783888817">
        <ele>643</ele>
        <time>2026-08-29T06:47:34Z</time>
      </trkpt>
      <trkpt lat="50.693584168329835" lon="13.501303503289819">
        <ele>643</ele>
        <time>2026-08-29T06:47:35Z</time>
      </trkpt>
      <trkpt lat="50.693584838882089" lon="13.501295372843742">
        <ele>643</ele>
        <time>2026-08-29T06:47:36Z</time>
      </trkpt>
      <trkpt lat="50.693581402301788" lon="13.501282464712858">
        <ele>642</ele>
        <time>2026-08-29T06:47:37Z</time>
      </trkpt>
      <trkpt lat="50.693586682900786" lon="13.501276597380638">
        <ele>642</ele>
        <time>2026-08-29T06:47:38Z</time>
      </trkpt>
      <trkpt lat="50.693586682900786" lon="13.501276094466448">
        <ele>642</ele>
        <time>2026-08-29T06:47:39Z</time>
      </trkpt>
      <trkpt lat="50.693586766719818" lon="13.501276010647416">
        <ele>642</ele>
        <time>2026-08-29T06:47:40Z</time>
      </trkpt>
      <trkpt lat="50.69358685053885" lon="13.501276010647416">
        <ele>642</ele>
        <time>2026-08-29T06:47:41Z</time>
      </trkpt>
      <trkpt lat="50.693586934357882" lon="13.501276094466448">
        <ele>642</ele>
        <time>2026-08-29T06:47:42Z</time>
      </trkpt>
      <trkpt lat="50.693585928529501" lon="13.501262851059437">
        <ele>642</ele>
        <time>2026-08-29T06:47:43Z</time>
      </trkpt>
      <trkpt lat="50.693586431443691" lon="13.50126201286912">
        <ele>642</ele>
        <time>2026-08-29T06:47:44Z</time>
      </trkpt>
      <trkpt lat="50.693586179986596" lon="13.501261845231056">
        <ele>642</ele>
        <time>2026-08-29T06:47:45Z</time>
      </trkpt>
      <trkpt lat="50.693585928529501" lon="13.501261929050088">
        <ele>642</ele>
        <time>2026-08-29T06:47:46Z</time>
      </trkpt>
      <trkpt lat="50.693585677072406" lon="13.501262180507183">
        <ele>642</ele>
        <time>2026-08-29T06:47:47Z</time>
      </trkpt>
      <trkpt lat="50.693585677072406" lon="13.501262599602342">
        <ele>642</ele>
        <time>2026-08-29T06:47:48Z</time>
      </trkpt>
      <trkpt lat="50.693585593253374" lon="13.501262851059437">
        <ele>642</ele>
        <time>2026-08-29T06:47:49Z</time>
      </trkpt>
      <trkpt lat="50.693585760891438" lon="13.501263186335564">
        <ele>642</ele>
        <time>2026-08-29T06:47:50Z</time>
      </trkpt>
      <trkpt lat="50.693586096167564" lon="13.501262599602342">
        <ele>642</ele>
        <time>2026-08-29T06:47:51Z</time>
      </trkpt>
      <trkpt lat="50.693586096167564" lon="13.501262180507183">
        <ele>642</ele>
        <time>2026-08-29T06:47:52Z</time>
      </trkpt>
      <trkpt lat="50.693586179986596" lon="13.501261677592993">
        <ele>642</ele>
        <time>2026-08-29T06:47:53Z</time>
      </trkpt>
      <trkpt lat="50.69358634762466" lon="13.501261342316866">
        <ele>642</ele>
        <time>2026-08-29T06:47:54Z</time>
      </trkpt>
      <trkpt lat="50.693586599081755" lon="13.501261007040739">
        <ele>642</ele>
        <time>2026-08-29T06:47:55Z</time>
      </trkpt>
      <trkpt lat="50.693586682900786" lon="13.501260671764612">
        <ele>642</ele>
        <time>2026-08-29T06:47:56Z</time>
      </trkpt>
      <trkpt lat="50.693586682900786" lon="13.501260336488485">
        <ele>642</ele>
        <time>2026-08-29T06:47:57Z</time>
      </trkpt>
      <trkpt lat="50.693586682900786" lon="13.501260336488485">
        <ele>642</ele>
        <time>2026-08-29T06:47:58Z</time>
      </trkpt>
      <trkpt lat="50.693586599081755" lon="13.501260336488485">
        <ele>642</ele>
        <time>2026-08-29T06:47:59Z</time>
      </trkpt>
      <trkpt lat="50.693586431443691" lon="13.501260420307517">
        <ele>642</ele>
        <time>2026-08-29T06:48:00Z</time>
      </trkpt>
      <trkpt lat="50.693586431443691" lon="13.50126008503139">
        <ele>642</ele>
        <time>2026-08-29T06:48:01Z</time>
      </trkpt>
      <trkpt lat="50.693586431443691" lon="13.501259917393327">
        <ele>642</ele>
        <time>2026-08-29T06:48:02Z</time>
      </trkpt>
      <trkpt lat="50.693586431443691" lon="13.501259749755263">
        <ele>642</ele>
        <time>2026-08-29T06:48:03Z</time>
      </trkpt>
      <trkpt lat="50.693586431443691" lon="13.501259665936232">
        <ele>642</ele>
        <time>2026-08-29T06:48:04Z</time>
      </trkpt>
      <trkpt lat="50.693586431443691" lon="13.501259749755263">
        <ele>642</ele>
        <time>2026-08-29T06:48:05Z</time>
      </trkpt>
      <trkpt lat="50.693586431443691" lon="13.5012595821172">
        <ele>642</ele>
        <time>2026-08-29T06:48:06Z</time>
      </trkpt>
      <trkpt lat="50.693586431443691" lon="13.501259414479136">
        <ele>642</ele>
        <time>2026-08-29T06:48:07Z</time>
      </trkpt>
      <trkpt lat="50.69358634762466" lon="13.5012595821172">
        <ele>642</ele>
        <time>2026-08-29T06:48:08Z</time>
      </trkpt>
      <trkpt lat="50.693586179986596" lon="13.501259917393327">
        <ele>642</ele>
        <time>2026-08-29T06:48:09Z</time>
      </trkpt>
      <trkpt lat="50.693586179986596" lon="13.50126008503139">
        <ele>642</ele>
        <time>2026-08-29T06:48:10Z</time>
      </trkpt>
      <trkpt lat="50.693585928529501" lon="13.501260671764612">
        <ele>642</ele>
        <time>2026-08-29T06:48:11Z</time>
      </trkpt>
      <trkpt lat="50.693585760891438" lon="13.501260923221707">
        <ele>642</ele>
        <time>2026-08-29T06:48:12Z</time>
      </trkpt>
      <trkpt lat="50.693585593253374" lon="13.501261258497834">
        <ele>642</ele>
        <time>2026-08-29T06:48:13Z</time>
      </trkpt>
      <trkpt lat="50.693585425615311" lon="13.501261761412024">
        <ele>642</ele>
        <time>2026-08-29T06:48:14Z</time>
      </trkpt>
      <trkpt lat="50.693585174158216" lon="13.501262264326215">
        <ele>642</ele>
        <time>2026-08-29T06:48:15Z</time>
      </trkpt>
      <trkpt lat="50.693585006520152" lon="13.501262683421373">
        <ele>642</ele>
        <time>2026-08-29T06:48:16Z</time>
      </trkpt>
      <trkpt lat="50.693584838882089" lon="13.501262851059437">
        <ele>642</ele>
        <time>2026-08-29T06:48:17Z</time>
      </trkpt>
      <trkpt lat="50.693584671244025" lon="13.501262934878469">
        <ele>642</ele>
        <time>2026-08-29T06:48:18Z</time>
      </trkpt>
      <trkpt lat="50.693584252148867" lon="13.501263186335564">
        <ele>642</ele>
        <time>2026-08-29T06:48:19Z</time>
      </trkpt>
      <trkpt lat="50.693584084510803" lon="13.501263437792659">
        <ele>642</ele>
        <time>2026-08-29T06:48:20Z</time>
      </trkpt>
      <trkpt lat="50.69358391687274" lon="13.501263689249754">
        <ele>642</ele>
        <time>2026-08-29T06:48:21Z</time>
      </trkpt>
      <trkpt lat="50.693583581596613" lon="13.501263940706849">
        <ele>642</ele>
        <time>2026-08-29T06:48:22Z</time>
      </trkpt>
      <trkpt lat="50.693583246320486" lon="13.501264275982976">
        <ele>642</ele>
        <time>2026-08-29T06:48:23Z</time>
      </trkpt>
      <trkpt lat="50.693582994863391" lon="13.501264108344913">
        <ele>642</ele>
        <time>2026-08-29T06:48:24Z</time>
      </trkpt>
      <trkpt lat="50.693582827225327" lon="13.501264611259103">
        <ele>642</ele>
        <time>2026-08-29T06:48:25Z</time>
      </trkpt>
      <trkpt lat="50.693582491949201" lon="13.501264778897166">
        <ele>642</ele>
        <time>2026-08-29T06:48:26Z</time>
      </trkpt>
      <trkpt lat="50.693582072854042" lon="13.501265030354261">
        <ele>642</ele>
        <time>2026-08-29T06:48:27Z</time>
      </trkpt>
      <trkpt lat="50.693581737577915" lon="13.50126544944942">
        <ele>642</ele>
        <time>2026-08-29T06:48:28Z</time>
      </trkpt>
      <trkpt lat="50.693581318482757" lon="13.501265868544579">
        <ele>642</ele>
        <time>2026-08-29T06:48:29Z</time>
      </trkpt>
      <trkpt lat="50.69357612170279" lon="13.501267712563276">
        <ele>642</ele>
        <time>2026-08-29T06:48:30Z</time>
      </trkpt>
      <trkpt lat="50.693575954064727" lon="13.501271232962608">
        <ele>642</ele>
        <time>2026-08-29T06:48:31Z</time>
      </trkpt>
      <trkpt lat="50.693576959893107" lon="13.501272071152925">
        <ele>642</ele>
        <time>2026-08-29T06:48:32Z</time>
      </trkpt>
      <trkpt lat="50.69357804954052" lon="13.501265365630388">
        <ele>642</ele>
        <time>2026-08-29T06:48:33Z</time>
      </trkpt>
      <trkpt lat="50.693581067025661" lon="13.501262348145247">
        <ele>641</ele>
        <time>2026-08-29T06:48:34Z</time>
      </trkpt>
      <trkpt lat="50.693590119481087" lon="13.501269221305847">
        <ele>641</ele>
        <time>2026-08-29T06:48:35Z</time>
      </trkpt>
      <trkpt lat="50.693596657365561" lon="13.501275088638067">
        <ele>641</ele>
        <time>2026-08-29T06:48:36Z</time>
      </trkpt>
      <trkpt lat="50.693598920479417" lon="13.501288248226047">
        <ele>641</ele>
        <time>2026-08-29T06:48:37Z</time>
      </trkpt>
      <trkpt lat="50.693598501384258" lon="13.501292690634727">
        <ele>640</ele>
        <time>2026-08-29T06:48:38Z</time>
      </trkpt>
      <trkpt lat="50.693598333746195" lon="13.501292774453759">
        <ele>640</ele>
        <time>2026-08-29T06:48:39Z</time>
      </trkpt>
      <trkpt lat="50.693599004298449" lon="13.501289673149586">
        <ele>640</ele>
        <time>2026-08-29T06:48:40Z</time>
      </trkpt>
      <trkpt lat="50.693598501384258" lon="13.501295624300838">
        <ele>641</ele>
        <time>2026-08-29T06:48:41Z</time>
      </trkpt>
      <trkpt lat="50.693597495555878" lon="13.501293947920203">
        <ele>641</ele>
        <time>2026-08-29T06:48:42Z</time>
      </trkpt>
      <trkpt lat="50.693603111431003" lon="13.501296043395996">
        <ele>641</ele>
        <time>2026-08-29T06:48:43Z</time>
      </trkpt>
      <trkpt lat="50.693595232442021" lon="13.501295708119869">
        <ele>642</ele>
        <time>2026-08-29T06:48:44Z</time>
      </trkpt>
      <trkpt lat="50.693594980984926" lon="13.501295037567616">
        <ele>642</ele>
        <time>2026-08-29T06:48:45Z</time>
      </trkpt>
      <trkpt lat="50.693594729527831" lon="13.501294367015362">
        <ele>642</ele>
        <time>2026-08-29T06:48:46Z</time>
      </trkpt>
      <trkpt lat="50.693594561889768" lon="13.501293696463108">
        <ele>642</ele>
        <time>2026-08-29T06:48:47Z</time>
      </trkpt>
      <trkpt lat="50.693594478070736" lon="13.501293025910854">
        <ele>642</ele>
        <time>2026-08-29T06:48:48Z</time>
      </trkpt>
      <trkpt lat="50.693594561889768" lon="13.501292690634727">
        <ele>642</ele>
        <time>2026-08-29T06:48:49Z</time>
      </trkpt>
      <trkpt lat="50.693594729527831" lon="13.501292522996664">
        <ele>642</ele>
        <time>2026-08-29T06:48:50Z</time>
      </trkpt>
      <trkpt lat="50.693595232442021" lon="13.501293277367949">
        <ele>642</ele>
        <time>2026-08-29T06:48:51Z</time>
      </trkpt>
      <trkpt lat="50.693595735356212" lon="13.50129378028214">
        <ele>642</ele>
        <time>2026-08-29T06:48:52Z</time>
      </trkpt>
      <trkpt lat="50.693598249927163" lon="13.501289086416364">
        <ele>643</ele>
        <time>2026-08-29T06:48:53Z</time>
      </trkpt>
      <trkpt lat="50.693597663193941" lon="13.501287996768951">
        <ele>642</ele>
        <time>2026-08-29T06:48:54Z</time>
      </trkpt>
      <trkpt lat="50.693603865802288" lon="13.501291600987315">
        <ele>642</ele>
        <time>2026-08-29T06:48:55Z</time>
      </trkpt>
      <trkpt lat="50.693603865802288" lon="13.501291684806347">
        <ele>642</ele>
        <time>2026-08-29T06:48:56Z</time>
      </trkpt>
      <trkpt lat="50.693605961278081" lon="13.501298055052757">
        <ele>642</ele>
        <time>2026-08-29T06:48:57Z</time>
      </trkpt>
      <trkpt lat="50.693606799468398" lon="13.50130601786077">
        <ele>642</ele>
        <time>2026-08-29T06:48:58Z</time>
      </trkpt>
      <trkpt lat="50.693603614345193" lon="13.501300569623709">
        <ele>643</ele>
        <time>2026-08-29T06:48:59Z</time>
      </trkpt>
      <trkpt lat="50.693602608516812" lon="13.501300485804677">
        <ele>643</ele>
        <time>2026-08-29T06:49:00Z</time>
      </trkpt>
      <trkpt lat="50.693603027611971" lon="13.501296797767282">
        <ele>642</ele>
        <time>2026-08-29T06:49:01Z</time>
      </trkpt>
      <trkpt lat="50.69359908811748" lon="13.501287242397666">
        <ele>642</ele>
        <time>2026-08-29T06:49:02Z</time>
      </trkpt>
      <trkpt lat="50.693594645708799" lon="13.501287493854761">
        <ele>642</ele>
        <time>2026-08-29T06:49:03Z</time>
      </trkpt>
      <trkpt lat="50.693593639880419" lon="13.501293445006013">
        <ele>643</ele>
        <time>2026-08-29T06:49:04Z</time>
      </trkpt>
      <trkpt lat="50.693593639880419" lon="13.501293696463108">
        <ele>643</ele>
        <time>2026-08-29T06:49:05Z</time>
      </trkpt>
      <trkpt lat="50.69359322078526" lon="13.50129378028214">
        <ele>643</ele>
        <time>2026-08-29T06:49:06Z</time>
      </trkpt>
      <trkpt lat="50.693588946014643" lon="13.501300988718867">
        <ele>643</ele>
        <time>2026-08-29T06:49:07Z</time>
      </trkpt>
      <trkpt lat="50.693585090339184" lon="13.50129721686244">
        <ele>643</ele>
        <time>2026-08-29T06:49:08Z</time>
      </trkpt>
      <trkpt lat="50.693585760891438" lon="13.50130207836628">
        <ele>642</ele>
        <time>2026-08-29T06:49:09Z</time>
      </trkpt>
      <trkpt lat="50.693581569939852" lon="13.501311214640737">
        <ele>643</ele>
        <time>2026-08-29T06:49:10Z</time>
      </trkpt>
      <trkpt lat="50.693576792255044" lon="13.50132504478097">
        <ele>643</ele>
        <time>2026-08-29T06:49:11Z</time>
      </trkpt>
      <trkpt lat="50.693570589646697" lon="13.501339545473456">
        <ele>643</ele>
        <time>2026-08-29T06:49:12Z</time>
      </trkpt>
      <trkpt lat="50.693566566333175" lon="13.501359997317195">
        <ele>643</ele>
        <time>2026-08-29T06:49:13Z</time>
      </trkpt>
      <trkpt lat="50.693557010963559" lon="13.501376928761601">
        <ele>643</ele>
        <time>2026-08-29T06:49:14Z</time>
      </trkpt>
      <trkpt lat="50.693548377603292" lon="13.501403583213687">
        <ele>643</ele>
        <time>2026-08-29T06:49:15Z</time>
      </trkpt>
      <trkpt lat="50.693538738414645" lon="13.501435099169612">
        <ele>644</ele>
        <time>2026-08-29T06:49:16Z</time>
      </trkpt>
      <trkpt lat="50.693526333197951" lon="13.501466615125537">
        <ele>644</ele>
        <time>2026-08-29T06:49:17Z</time>
      </trkpt>
      <trkpt lat="50.693513927981257" lon="13.501492850482464">
        <ele>644</ele>
        <time>2026-08-29T06:49:18Z</time>
      </trkpt>
      <trkpt lat="50.693502780050039" lon="13.50152394734323">
        <ele>644</ele>
        <time>2026-08-29T06:49:19Z</time>
      </trkpt>
      <trkpt lat="50.693494733422995" lon="13.50155864842236">
        <ele>644</ele>
        <time>2026-08-29T06:49:20Z</time>
      </trkpt>
      <trkpt lat="50.693479310721159" lon="13.501593265682459">
        <ele>644</ele>
        <time>2026-08-29T06:49:21Z</time>
      </trkpt>
      <trkpt lat="50.693469420075417" lon="13.50162897258997">
        <ele>644</ele>
        <time>2026-08-29T06:49:22Z</time>
      </trkpt>
      <trkpt lat="50.693460451439023" lon="13.501659482717514">
        <ele>644</ele>
        <time>2026-08-29T06:49:23Z</time>
      </trkpt>
      <trkpt lat="50.693450141698122" lon="13.501694183796644">
        <ele>644</ele>
        <time>2026-08-29T06:49:24Z</time>
      </trkpt>
      <trkpt lat="50.693445028737187" lon="13.501722179353237">
        <ele>644</ele>
        <time>2026-08-29T06:49:25Z</time>
      </trkpt>
      <trkpt lat="50.693441089242697" lon="13.501751767471433">
        <ele>644</ele>
        <time>2026-08-29T06:49:26Z</time>
      </trkpt>
      <trkpt lat="50.693433796986938" lon="13.50177800282836">
        <ele>644</ele>
        <time>2026-08-29T06:49:27Z</time>
      </trkpt>
      <trkpt lat="50.693425582721829" lon="13.501802980899811">
        <ele>644</ele>
        <time>2026-08-29T06:49:28Z</time>
      </trkpt>
      <trkpt lat="50.693421391770244" lon="13.501817816868424">
        <ele>644</ele>
        <time>2026-08-29T06:49:29Z</time>
      </trkpt>
      <trkpt lat="50.69341435097158" lon="13.501837681978941">
        <ele>644</ele>
        <time>2026-08-29T06:49:30Z</time>
      </trkpt>
      <trkpt lat="50.693410243839025" lon="13.501857547089458">
        <ele>644</ele>
        <time>2026-08-29T06:49:31Z</time>
      </trkpt>
      <trkpt lat="50.69340898655355" lon="13.501871293410659">
        <ele>644</ele>
        <time>2026-08-29T06:49:32Z</time>
      </trkpt>
      <trkpt lat="50.693407310172915" lon="13.501870203763247">
        <ele>645</ele>
        <time>2026-08-29T06:49:33Z</time>
      </trkpt>
      <trkpt lat="50.693407561630011" lon="13.501863414421678">
        <ele>644</ele>
        <time>2026-08-29T06:49:34Z</time>
      </trkpt>
      <trkpt lat="50.693407645449042" lon="13.501862743869424">
        <ele>644</ele>
        <time>2026-08-29T06:49:35Z</time>
      </trkpt>
      <trkpt lat="50.693406136706471" lon="13.501859055832028">
        <ele>645</ele>
        <time>2026-08-29T06:49:36Z</time>
      </trkpt>
      <trkpt lat="50.693405130878091" lon="13.501856122165918">
        <ele>645</ele>
        <time>2026-08-29T06:49:37Z</time>
      </trkpt>
      <trkpt lat="50.693406807258725" lon="13.501850757747889">
        <ele>645</ele>
        <time>2026-08-29T06:49:38Z</time>
      </trkpt>
      <trkpt lat="50.693406388163567" lon="13.501850757747889">
        <ele>645</ele>
        <time>2026-08-29T06:49:39Z</time>
      </trkpt>
      <trkpt lat="50.693406471982598" lon="13.501850590109825">
        <ele>645</ele>
        <time>2026-08-29T06:49:40Z</time>
      </trkpt>
      <trkpt lat="50.69340655580163" lon="13.501849919557571">
        <ele>644</ele>
        <time>2026-08-29T06:49:41Z</time>
      </trkpt>
      <trkpt lat="50.693406388163567" lon="13.50184983573854">
        <ele>645</ele>
        <time>2026-08-29T06:49:42Z</time>
      </trkpt>
      <trkpt lat="50.693406220525503" lon="13.50184983573854">
        <ele>645</ele>
        <time>2026-08-29T06:49:43Z</time>
      </trkpt>
      <trkpt lat="50.69340605288744" lon="13.501849584281445">
        <ele>644</ele>
        <time>2026-08-29T06:49:44Z</time>
      </trkpt>
      <trkpt lat="50.693406136706471" lon="13.501849500462413">
        <ele>644</ele>
        <time>2026-08-29T06:49:45Z</time>
      </trkpt>
      <trkpt lat="50.693406304344535" lon="13.501849332824349">
        <ele>644</ele>
        <time>2026-08-29T06:49:46Z</time>
      </trkpt>
      <trkpt lat="50.693406136706471" lon="13.501848913729191">
        <ele>644</ele>
        <time>2026-08-29T06:49:47Z</time>
      </trkpt>
      <trkpt lat="50.693405885249376" lon="13.501848662272096">
        <ele>644</ele>
        <time>2026-08-29T06:49:48Z</time>
      </trkpt>
      <trkpt lat="50.693405382335186" lon="13.501848159357905">
        <ele>644</ele>
        <time>2026-08-29T06:49:49Z</time>
      </trkpt>
      <trkpt lat="50.693405130878091" lon="13.501847321167588">
        <ele>644</ele>
        <time>2026-08-29T06:49:50Z</time>
      </trkpt>
      <trkpt lat="50.693405047059059" lon="13.501846566796303">
        <ele>645</ele>
        <time>2026-08-29T06:49:51Z</time>
      </trkpt>
      <trkpt lat="50.693404795601964" lon="13.501846063882113">
        <ele>645</ele>
        <time>2026-08-29T06:49:52Z</time>
      </trkpt>
      <trkpt lat="50.693404711782932" lon="13.501845896244049">
        <ele>645</ele>
        <time>2026-08-29T06:49:53Z</time>
      </trkpt>
      <trkpt lat="50.693404544144869" lon="13.501845812425017">
        <ele>645</ele>
        <time>2026-08-29T06:49:54Z</time>
      </trkpt>
      <trkpt lat="50.693404460325837" lon="13.501845644786954">
        <ele>645</ele>
        <time>2026-08-29T06:49:55Z</time>
      </trkpt>
      <trkpt lat="50.693404460325837" lon="13.501845644786954">
        <ele>645</ele>
        <time>2026-08-29T06:49:56Z</time>
      </trkpt>
      <trkpt lat="50.693404460325837" lon="13.501845560967922">
        <ele>645</ele>
        <time>2026-08-29T06:49:57Z</time>
      </trkpt>
      <trkpt lat="50.693404460325837" lon="13.501845309510827">
        <ele>645</ele>
        <time>2026-08-29T06:49:58Z</time>
      </trkpt>
      <trkpt lat="50.693404292687774" lon="13.501845058053732">
        <ele>645</ele>
        <time>2026-08-29T06:49:59Z</time>
      </trkpt>
      <trkpt lat="50.693404711782932" lon="13.501845560967922">
        <ele>645</ele>
        <time>2026-08-29T06:50:00Z</time>
      </trkpt>
      <trkpt lat="50.693405130878091" lon="13.501846399158239">
        <ele>645</ele>
        <time>2026-08-29T06:50:01Z</time>
      </trkpt>
      <trkpt lat="50.693405549973249" lon="13.501847153529525">
        <ele>645</ele>
        <time>2026-08-29T06:50:02Z</time>
      </trkpt>
      <trkpt lat="50.693405801430345" lon="13.50184740498662">
        <ele>645</ele>
        <time>2026-08-29T06:50:03Z</time>
      </trkpt>
      <trkpt lat="50.693405969068408" lon="13.501847069710493">
        <ele>645</ele>
        <time>2026-08-29T06:50:04Z</time>
      </trkpt>
      <trkpt lat="50.693405969068408" lon="13.501846818253398">
        <ele>645</ele>
        <time>2026-08-29T06:50:05Z</time>
      </trkpt>
      <trkpt lat="50.693405969068408" lon="13.501846315339208">
        <ele>645</ele>
        <time>2026-08-29T06:50:06Z</time>
      </trkpt>
      <trkpt lat="50.693405801430345" lon="13.501846315339208">
        <ele>645</ele>
        <time>2026-08-29T06:50:07Z</time>
      </trkpt>
      <trkpt lat="50.693406891077757" lon="13.501850757747889">
        <ele>645</ele>
        <time>2026-08-29T06:50:08Z</time>
      </trkpt>
      <trkpt lat="50.69340705871582" lon="13.501846482977271">
        <ele>646</ele>
        <time>2026-08-29T06:50:09Z</time>
      </trkpt>
      <trkpt lat="50.69340705871582" lon="13.501845812425017">
        <ele>646</ele>
        <time>2026-08-29T06:50:10Z</time>
      </trkpt>
      <trkpt lat="50.693407310172915" lon="13.501846399158239">
        <ele>646</ele>
        <time>2026-08-29T06:50:11Z</time>
      </trkpt>
      <trkpt lat="50.693410327658057" lon="13.50185670889914">
        <ele>646</ele>
        <time>2026-08-29T06:50:12Z</time>
      </trkpt>
      <trkpt lat="50.693416697904468" lon="13.501860145479441">
        <ele>646</ele>
        <time>2026-08-29T06:50:13Z</time>
      </trkpt>
      <trkpt lat="50.693416949361563" lon="13.501860648393631">
        <ele>647</ele>
        <time>2026-08-29T06:50:14Z</time>
      </trkpt>
      <trkpt lat="50.693416865542531" lon="13.501860648393631">
        <ele>647</ele>
        <time>2026-08-29T06:50:15Z</time>
      </trkpt>
      <trkpt lat="50.693415608257055" lon="13.501868862658739">
        <ele>646</ele>
        <time>2026-08-29T06:50:16Z</time>
      </trkpt>
      <trkpt lat="50.693413680419326" lon="13.501885626465082">
        <ele>646</ele>
        <time>2026-08-29T06:50:17Z</time>
      </trkpt>
      <trkpt lat="50.69341435097158" lon="13.501909011974931">
        <ele>646</ele>
        <time>2026-08-29T06:50:18Z</time>
      </trkpt>
      <trkpt lat="50.693412339314818" lon="13.501932565122843">
        <ele>646</ele>
        <time>2026-08-29T06:50:19Z</time>
      </trkpt>
      <trkpt lat="50.693408232182264" lon="13.501950083300471">
        <ele>646</ele>
        <time>2026-08-29T06:50:20Z</time>
      </trkpt>
      <trkpt lat="50.693404627963901" lon="13.501961231231689">
        <ele>645</ele>
        <time>2026-08-29T06:50:21Z</time>
      </trkpt>
      <trkpt lat="50.693407226353884" lon="13.501963159069419">
        <ele>645</ele>
        <time>2026-08-29T06:50:22Z</time>
      </trkpt>
      <trkpt lat="50.693405969068408" lon="13.501962656155229">
        <ele>645</ele>
        <time>2026-08-29T06:50:23Z</time>
      </trkpt>
      <trkpt lat="50.693405801430345" lon="13.501961985602975">
        <ele>645</ele>
        <time>2026-08-29T06:50:24Z</time>
      </trkpt>
      <trkpt lat="50.693405801430345" lon="13.501961482688785">
        <ele>645</ele>
        <time>2026-08-29T06:50:25Z</time>
      </trkpt>
      <trkpt lat="50.693405801430345" lon="13.501961398869753">
        <ele>645</ele>
        <time>2026-08-29T06:50:26Z</time>
      </trkpt>
      <trkpt lat="50.693405801430345" lon="13.501961482688785">
        <ele>645</ele>
        <time>2026-08-29T06:50:27Z</time>
      </trkpt>
      <trkpt lat="50.693405717611313" lon="13.501961147412658">
        <ele>645</ele>
        <time>2026-08-29T06:50:28Z</time>
      </trkpt>
      <trkpt lat="50.693405549973249" lon="13.501960644498467">
        <ele>645</ele>
        <time>2026-08-29T06:50:29Z</time>
      </trkpt>
      <trkpt lat="50.693405549973249" lon="13.501960644498467">
        <ele>645</ele>
        <time>2026-08-29T06:50:30Z</time>
      </trkpt>
      <trkpt lat="50.693405633792281" lon="13.501960644498467">
        <ele>645</ele>
        <time>2026-08-29T06:50:31Z</time>
      </trkpt>
      <trkpt lat="50.693405969068408" lon="13.501961063593626">
        <ele>645</ele>
        <time>2026-08-29T06:50:32Z</time>
      </trkpt>
      <trkpt lat="50.693405801430345" lon="13.501961063593626">
        <ele>645</ele>
        <time>2026-08-29T06:50:33Z</time>
      </trkpt>
      <trkpt lat="50.69340605288744" lon="13.501961482688785">
        <ele>645</ele>
        <time>2026-08-29T06:50:34Z</time>
      </trkpt>
      <trkpt lat="50.693406136706471" lon="13.501961482688785">
        <ele>645</ele>
        <time>2026-08-29T06:50:35Z</time>
      </trkpt>
      <trkpt lat="50.693406388163567" lon="13.501957962289453">
        <ele>645</ele>
        <time>2026-08-29T06:50:36Z</time>
      </trkpt>
      <trkpt lat="50.69340655580163" lon="13.501963997259736">
        <ele>645</ele>
        <time>2026-08-29T06:50:37Z</time>
      </trkpt>
      <trkpt lat="50.693406639620662" lon="13.501964164897799">
        <ele>645</ele>
        <time>2026-08-29T06:50:38Z</time>
      </trkpt>
      <trkpt lat="50.693405969068408" lon="13.50197154097259">
        <ele>645</ele>
        <time>2026-08-29T06:50:39Z</time>
      </trkpt>
      <trkpt lat="50.693406388163567" lon="13.501972211524844">
        <ele>645</ele>
        <time>2026-08-29T06:50:40Z</time>
      </trkpt>
      <trkpt lat="50.693410327658057" lon="13.501973804086447">
        <ele>645</ele>
        <time>2026-08-29T06:50:41Z</time>
      </trkpt>
      <trkpt lat="50.693413009867072" lon="13.501980341970921">
        <ele>645</ele>
        <time>2026-08-29T06:50:42Z</time>
      </trkpt>
      <trkpt lat="50.693409740924835" lon="13.501989813521504">
        <ele>645</ele>
        <time>2026-08-29T06:50:43Z</time>
      </trkpt>
      <trkpt lat="50.693403203040361" lon="13.501999787986279">
        <ele>645</ele>
        <time>2026-08-29T06:50:44Z</time>
      </trkpt>
      <trkpt lat="50.69339876063168" lon="13.502017725259066">
        <ele>645</ele>
        <time>2026-08-29T06:50:45Z</time>
      </trkpt>
      <trkpt lat="50.693384008482099" lon="13.502033902332187">
        <ele>645</ele>
        <time>2026-08-29T06:50:46Z</time>
      </trkpt>
      <trkpt lat="50.693370429798961" lon="13.502048822119832">
        <ele>645</ele>
        <time>2026-08-29T06:50:47Z</time>
      </trkpt>
      <trkpt lat="50.69335576146841" lon="13.502067765221">
        <ele>644</ele>
        <time>2026-08-29T06:50:48Z</time>
      </trkpt>
      <trkpt lat="50.693351570516825" lon="13.502102633938193">
        <ele>644</ele>
        <time>2026-08-29T06:50:49Z</time>
      </trkpt>
      <trkpt lat="50.693344110623002" lon="13.502130629494786">
        <ele>644</ele>
        <time>2026-08-29T06:50:50Z</time>
      </trkpt>
      <trkpt lat="50.6933269277215" lon="13.502165414392948">
        <ele>644</ele>
        <time>2026-08-29T06:50:51Z</time>
      </trkpt>
      <trkpt lat="50.693317456170917" lon="13.502209587022662">
        <ele>644</ele>
        <time>2026-08-29T06:50:52Z</time>
      </trkpt>
      <trkpt lat="50.69330002181232" lon="13.502241941168904">
        <ele>644</ele>
        <time>2026-08-29T06:50:53Z</time>
      </trkpt>
      <trkpt lat="50.693287951871753" lon="13.50228276103735">
        <ele>644</ele>
        <time>2026-08-29T06:50:54Z</time>
      </trkpt>
      <trkpt lat="50.69327118806541" lon="13.502320060506463">
        <ele>645</ele>
        <time>2026-08-29T06:50:55Z</time>
      </trkpt>
      <trkpt lat="50.693260123953223" lon="13.502362808212638">
        <ele>645</ele>
        <time>2026-08-29T06:50:56Z</time>
      </trkpt>
      <trkpt lat="50.693250736221671" lon="13.502406058833003">
        <ele>645</ele>
        <time>2026-08-29T06:50:57Z</time>
      </trkpt>
      <trkpt lat="50.693242689594626" lon="13.502448052167892">
        <ele>645</ele>
        <time>2026-08-29T06:50:58Z</time>
      </trkpt>
      <trkpt lat="50.693245539441705" lon="13.502490045502782">
        <ele>645</ele>
        <time>2026-08-29T06:50:59Z</time>
      </trkpt>
      <trkpt lat="50.693249059841037" lon="13.502521058544517">
        <ele>645</ele>
        <time>2026-08-29T06:51:00Z</time>
      </trkpt>
      <trkpt lat="50.693256184458733" lon="13.502549137920141">
        <ele>645</ele>
        <time>2026-08-29T06:51:01Z</time>
      </trkpt>
      <trkpt lat="50.693268170580268" lon="13.502569422125816">
        <ele>644</ele>
        <time>2026-08-29T06:51:02Z</time>
      </trkpt>
      <trkpt lat="50.693274959921837" lon="13.502588784322143">
        <ele>644</ele>
        <time>2026-08-29T06:51:03Z</time>
      </trkpt>
      <trkpt lat="50.693283341825008" lon="13.50260085426271">
        <ele>644</ele>
        <time>2026-08-29T06:51:04Z</time>
      </trkpt>
      <trkpt lat="50.69329465739429" lon="13.502616612240672">
        <ele>644</ele>
        <time>2026-08-29T06:51:05Z</time>
      </trkpt>
      <trkpt lat="50.693301446735859" lon="13.502633208408952">
        <ele>644</ele>
        <time>2026-08-29T06:51:06Z</time>
      </trkpt>
      <trkpt lat="50.693305050954223" lon="13.502644188702106">
        <ele>644</ele>
        <time>2026-08-29T06:51:07Z</time>
      </trkpt>
      <trkpt lat="50.693303206935525" lon="13.502654414623976">
        <ele>644</ele>
        <time>2026-08-29T06:51:08Z</time>
      </trkpt>
      <trkpt lat="50.693300608545542" lon="13.502659359946847">
        <ele>643</ele>
        <time>2026-08-29T06:51:09Z</time>
      </trkpt>
      <trkpt lat="50.69330052472651" lon="13.502659359946847">
        <ele>643</ele>
        <time>2026-08-29T06:51:10Z</time>
      </trkpt>
      <trkpt lat="50.693300440907478" lon="13.502659276127815">
        <ele>643</ele>
        <time>2026-08-29T06:51:11Z</time>
      </trkpt>
      <trkpt lat="50.693300189450383" lon="13.502659276127815">
        <ele>643</ele>
        <time>2026-08-29T06:51:12Z</time>
      </trkpt>
      <trkpt lat="50.693303542211652" lon="13.502658689394593">
        <ele>643</ele>
        <time>2026-08-29T06:51:13Z</time>
      </trkpt>
      <trkpt lat="50.693299351260066" lon="13.50266732275486">
        <ele>642</ele>
        <time>2026-08-29T06:51:14Z</time>
      </trkpt>
      <trkpt lat="50.693298010155559" lon="13.502671346068382">
        <ele>642</ele>
        <time>2026-08-29T06:51:15Z</time>
      </trkpt>
      <trkpt lat="50.693295244127512" lon="13.502673609182239">
        <ele>642</ele>
        <time>2026-08-29T06:51:16Z</time>
      </trkpt>
      <trkpt lat="50.693295244127512" lon="13.502673860639334">
        <ele>642</ele>
        <time>2026-08-29T06:51:17Z</time>
      </trkpt>
      <trkpt lat="50.693295244127512" lon="13.502674195915461">
        <ele>642</ele>
        <time>2026-08-29T06:51:18Z</time>
      </trkpt>
      <trkpt lat="50.693301279097795" lon="13.50268199108541">
        <ele>642</ele>
        <time>2026-08-29T06:51:19Z</time>
      </trkpt>
      <trkpt lat="50.693301279097795" lon="13.502683164551854">
        <ele>642</ele>
        <time>2026-08-29T06:51:20Z</time>
      </trkpt>
      <trkpt lat="50.693307481706142" lon="13.502693055197597">
        <ele>642</ele>
        <time>2026-08-29T06:51:21Z</time>
      </trkpt>
      <trkpt lat="50.693309241905808" lon="13.502691714093089">
        <ele>642</ele>
        <time>2026-08-29T06:51:22Z</time>
      </trkpt>
      <trkpt lat="50.693310499191284" lon="13.50269079208374">
        <ele>642</ele>
        <time>2026-08-29T06:51:23Z</time>
      </trkpt>
      <trkpt lat="50.693317539989948" lon="13.502686517313123">
        <ele>642</ele>
        <time>2026-08-29T06:51:24Z</time>
      </trkpt>
      <trkpt lat="50.693317288532853" lon="13.502686768770218">
        <ele>642</ele>
        <time>2026-08-29T06:51:25Z</time>
      </trkpt>
      <trkpt lat="50.693320389837027" lon="13.502697665244341">
        <ele>642</ele>
        <time>2026-08-29T06:51:26Z</time>
      </trkpt>
      <trkpt lat="50.69332055747509" lon="13.50269858725369">
        <ele>643</ele>
        <time>2026-08-29T06:51:27Z</time>
      </trkpt>
      <trkpt lat="50.693324245512486" lon="13.502698084339499">
        <ele>643</ele>
        <time>2026-08-29T06:51:28Z</time>
      </trkpt>
      <trkpt lat="50.693330531939864" lon="13.502700347453356">
        <ele>642</ele>
        <time>2026-08-29T06:51:29Z</time>
      </trkpt>
      <trkpt lat="50.69333421997726" lon="13.50270445458591">
        <ele>642</ele>
        <time>2026-08-29T06:51:30Z</time>
      </trkpt>
      <trkpt lat="50.693331705406308" lon="13.502701437100768">
        <ele>643</ele>
        <time>2026-08-29T06:51:31Z</time>
      </trkpt>
      <trkpt lat="50.693332208320498" lon="13.502706130966544">
        <ele>643</ele>
        <time>2026-08-29T06:51:32Z</time>
      </trkpt>
      <trkpt lat="50.693330196663737" lon="13.502715770155191">
        <ele>643</ele>
        <time>2026-08-29T06:51:33Z</time>
      </trkpt>
      <trkpt lat="50.693333549425006" lon="13.502725576981902">
        <ele>643</ele>
        <time>2026-08-29T06:51:34Z</time>
      </trkpt>
      <trkpt lat="50.69333421997726" lon="13.502737814560533">
        <ele>643</ele>
        <time>2026-08-29T06:51:35Z</time>
      </trkpt>
      <trkpt lat="50.693339919671416" lon="13.50274552591145">
        <ele>643</ele>
        <time>2026-08-29T06:51:36Z</time>
      </trkpt>
      <trkpt lat="50.693343942984939" lon="13.502756338566542">
        <ele>644</ele>
        <time>2026-08-29T06:51:37Z</time>
      </trkpt>
      <trkpt lat="50.693355593830347" lon="13.502770252525806">
        <ele>644</ele>
        <time>2026-08-29T06:51:38Z</time>
      </trkpt>
      <trkpt lat="50.693367579951882" lon="13.502775700762868">
        <ele>644</ele>
        <time>2026-08-29T06:51:39Z</time>
      </trkpt>
      <trkpt lat="50.693371100351214" lon="13.502779556438327">
        <ele>645</ele>
        <time>2026-08-29T06:51:40Z</time>
      </trkpt>
      <trkpt lat="50.693381996825337" lon="13.502778299152851">
        <ele>645</ele>
        <time>2026-08-29T06:51:41Z</time>
      </trkpt>
      <trkpt lat="50.693391468375921" lon="13.502786429598927">
        <ele>645</ele>
        <time>2026-08-29T06:51:42Z</time>
      </trkpt>
      <trkpt lat="50.69339825771749" lon="13.502796655520797">
        <ele>646</ele>
        <time>2026-08-29T06:51:43Z</time>
      </trkpt>
      <trkpt lat="50.693396665155888" lon="13.50279975682497">
        <ele>646</ele>
        <time>2026-08-29T06:51:44Z</time>
      </trkpt>
      <trkpt lat="50.693397335708141" lon="13.502802606672049">
        <ele>646</ele>
        <time>2026-08-29T06:51:45Z</time>
      </trkpt>
      <trkpt lat="50.693397419527173" lon="13.502802522853017">
        <ele>646</ele>
        <time>2026-08-29T06:51:46Z</time>
      </trkpt>
      <trkpt lat="50.69339725188911" lon="13.50280269049108">
        <ele>646</ele>
        <time>2026-08-29T06:51:47Z</time>
      </trkpt>
      <trkpt lat="50.693397419527173" lon="13.502802439033985">
        <ele>646</ele>
        <time>2026-08-29T06:51:48Z</time>
      </trkpt>
      <trkpt lat="50.693397084251046" lon="13.502802606672049">
        <ele>646</ele>
        <time>2026-08-29T06:51:49Z</time>
      </trkpt>
      <trkpt lat="50.693396748974919" lon="13.502802355214953">
        <ele>646</ele>
        <time>2026-08-29T06:51:50Z</time>
      </trkpt>
      <trkpt lat="50.693394988775253" lon="13.502798080444336">
        <ele>646</ele>
        <time>2026-08-29T06:51:51Z</time>
      </trkpt>
      <trkpt lat="50.693396748974919" lon="13.50279875099659">
        <ele>646</ele>
        <time>2026-08-29T06:51:52Z</time>
      </trkpt>
      <trkpt lat="50.693400437012315" lon="13.502801349386573">
        <ele>645</ele>
        <time>2026-08-29T06:51:53Z</time>
      </trkpt>
      <trkpt lat="50.693407310172915" lon="13.502797745168209">
        <ele>645</ele>
        <time>2026-08-29T06:51:54Z</time>
      </trkpt>
      <trkpt lat="50.69341192021966" lon="13.502790872007608">
        <ele>645</ele>
        <time>2026-08-29T06:51:55Z</time>
      </trkpt>
      <trkpt lat="50.693414602428675" lon="13.502789530903101">
        <ele>645</ele>
        <time>2026-08-29T06:51:56Z</time>
      </trkpt>
      <trkpt lat="50.693414267152548" lon="13.502788273617625">
        <ele>645</ele>
        <time>2026-08-29T06:51:57Z</time>
      </trkpt>
      <trkpt lat="50.693411501124501" lon="13.502785759046674">
        <ele>644</ele>
        <time>2026-08-29T06:51:58Z</time>
      </trkpt>
      <trkpt lat="50.693411333486438" lon="13.502785507589579">
        <ele>644</ele>
        <time>2026-08-29T06:51:59Z</time>
      </trkpt>
      <trkpt lat="50.69341141730547" lon="13.502785759046674">
        <ele>644</ele>
        <time>2026-08-29T06:52:00Z</time>
      </trkpt>
      <trkpt lat="50.693411249667406" lon="13.502785926684737">
        <ele>644</ele>
        <time>2026-08-29T06:52:01Z</time>
      </trkpt>
      <trkpt lat="50.693410914391279" lon="13.502785926684737">
        <ele>644</ele>
        <time>2026-08-29T06:52:02Z</time>
      </trkpt>
      <trkpt lat="50.693410830572248" lon="13.502785842865705">
        <ele>644</ele>
        <time>2026-08-29T06:52:03Z</time>
      </trkpt>
      <trkpt lat="50.693410830572248" lon="13.502785926684737">
        <ele>644</ele>
        <time>2026-08-29T06:52:04Z</time>
      </trkpt>
      <trkpt lat="50.693415440618992" lon="13.50278751924634">
        <ele>645</ele>
        <time>2026-08-29T06:52:05Z</time>
      </trkpt>
      <trkpt lat="50.693414267152548" lon="13.502794895321131">
        <ele>645</ele>
        <time>2026-08-29T06:52:06Z</time>
      </trkpt>
      <trkpt lat="50.693414686247706" lon="13.50279439240694">
        <ele>645</ele>
        <time>2026-08-29T06:52:07Z</time>
      </trkpt>
      <trkpt lat="50.693414770066738" lon="13.502794811502099">
        <ele>645</ele>
        <time>2026-08-29T06:52:08Z</time>
      </trkpt>
      <trkpt lat="50.693415021523833" lon="13.502795230597258">
        <ele>645</ele>
        <time>2026-08-29T06:52:09Z</time>
      </trkpt>
      <trkpt lat="50.693415272980928" lon="13.50279581733048">
        <ele>645</ele>
        <time>2026-08-29T06:52:10Z</time>
      </trkpt>
      <trkpt lat="50.693415440618992" lon="13.50279632024467">
        <ele>645</ele>
        <time>2026-08-29T06:52:11Z</time>
      </trkpt>
      <trkpt lat="50.693415692076087" lon="13.502797158434987">
        <ele>645</ele>
        <time>2026-08-29T06:52:12Z</time>
      </trkpt>
      <trkpt lat="50.693416111171246" lon="13.502797828987241">
        <ele>645</ele>
        <time>2026-08-29T06:52:13Z</time>
      </trkpt>
      <trkpt lat="50.693416614085436" lon="13.50279875099659">
        <ele>645</ele>
        <time>2026-08-29T06:52:14Z</time>
      </trkpt>
      <trkpt lat="50.693416781723499" lon="13.502799337729812">
        <ele>645</ele>
        <time>2026-08-29T06:52:15Z</time>
      </trkpt>
      <trkpt lat="50.693416949361563" lon="13.502800175920129">
        <ele>645</ele>
        <time>2026-08-29T06:52:16Z</time>
      </trkpt>
      <trkpt lat="50.693417116999626" lon="13.502800511196256">
        <ele>645</ele>
        <time>2026-08-29T06:52:17Z</time>
      </trkpt>
      <trkpt lat="50.693417200818658" lon="13.502801181748509">
        <ele>645</ele>
        <time>2026-08-29T06:52:18Z</time>
      </trkpt>
      <trkpt lat="50.693417368456721" lon="13.502801936119795">
        <ele>645</ele>
        <time>2026-08-29T06:52:19Z</time>
      </trkpt>
      <trkpt lat="50.693417619913816" lon="13.502802606672049">
        <ele>645</ele>
        <time>2026-08-29T06:52:20Z</time>
      </trkpt>
      <trkpt lat="50.693417703732848" lon="13.502803277224302">
        <ele>645</ele>
        <time>2026-08-29T06:52:21Z</time>
      </trkpt>
      <trkpt lat="50.693418039008975" lon="13.502803780138493">
        <ele>645</ele>
        <time>2026-08-29T06:52:22Z</time>
      </trkpt>
      <trkpt lat="50.693418039008975" lon="13.502803528681397">
        <ele>645</ele>
        <time>2026-08-29T06:52:23Z</time>
      </trkpt>
      <trkpt lat="50.693418039008975" lon="13.502803612500429">
        <ele>645</ele>
        <time>2026-08-29T06:52:24Z</time>
      </trkpt>
      <trkpt lat="50.693418039008975" lon="13.502803277224302">
        <ele>645</ele>
        <time>2026-08-29T06:52:25Z</time>
      </trkpt>
      <trkpt lat="50.693413931876421" lon="13.502810820937157">
        <ele>645</ele>
        <time>2026-08-29T06:52:26Z</time>
      </trkpt>
      <trkpt lat="50.693413009867072" lon="13.502811072394252">
        <ele>645</ele>
        <time>2026-08-29T06:52:27Z</time>
      </trkpt>
      <trkpt lat="50.693415021523833" lon="13.502803444862366">
        <ele>645</ele>
        <time>2026-08-29T06:52:28Z</time>
      </trkpt>
      <trkpt lat="50.693407477810979" lon="13.502799505367875">
        <ele>645</ele>
        <time>2026-08-29T06:52:29Z</time>
      </trkpt>
      <trkpt lat="50.69340705871582" lon="13.502810318022966">
        <ele>645</ele>
        <time>2026-08-29T06:52:30Z</time>
      </trkpt>
      <trkpt lat="50.6934011913836" lon="13.502804869785905">
        <ele>645</ele>
        <time>2026-08-29T06:52:31Z</time>
      </trkpt>
      <trkpt lat="50.693391971290112" lon="13.502801936119795">
        <ele>645</ele>
        <time>2026-08-29T06:52:32Z</time>
      </trkpt>
      <trkpt lat="50.693382080644369" lon="13.502793805673718">
        <ele>645</ele>
        <time>2026-08-29T06:52:33Z</time>
      </trkpt>
      <trkpt lat="50.693374536931515" lon="13.502778047695756">
        <ele>645</ele>
        <time>2026-08-29T06:52:34Z</time>
      </trkpt>
      <trkpt lat="50.693373195827007" lon="13.502757595852017">
        <ele>645</ele>
        <time>2026-08-29T06:52:35Z</time>
      </trkpt>
      <trkpt lat="50.693384008482099" lon="13.502747118473053">
        <ele>645</ele>
        <time>2026-08-29T06:52:36Z</time>
      </trkpt>
      <trkpt lat="50.693392809480429" lon="13.502750638872385">
        <ele>645</ele>
        <time>2026-08-29T06:52:37Z</time>
      </trkpt>
      <trkpt lat="50.693395994603634" lon="13.502758853137493">
        <ele>645</ele>
        <time>2026-08-29T06:52:38Z</time>
      </trkpt>
      <trkpt lat="50.693393731489778" lon="13.502777209505439">
        <ele>644</ele>
        <time>2026-08-29T06:52:39Z</time>
      </trkpt>
      <trkpt lat="50.693391719833016" lon="13.502796068787575">
        <ele>644</ele>
        <time>2026-08-29T06:52:40Z</time>
      </trkpt>
      <trkpt lat="50.693396832793951" lon="13.502815095707774">
        <ele>644</ele>
        <time>2026-08-29T06:52:41Z</time>
      </trkpt>
      <trkpt lat="50.693409657105803" lon="13.502817777916789">
        <ele>644</ele>
        <time>2026-08-29T06:52:42Z</time>
      </trkpt>
      <trkpt lat="50.693422313779593" lon="13.502809731289744">
        <ele>644</ele>
        <time>2026-08-29T06:52:43Z</time>
      </trkpt>
      <trkpt lat="50.693434467539191" lon="13.502814592793584">
        <ele>645</ele>
        <time>2026-08-29T06:52:44Z</time>
      </trkpt>
      <trkpt lat="50.693445531651378" lon="13.502817945554852">
        <ele>644</ele>
        <time>2026-08-29T06:52:45Z</time>
      </trkpt>
      <trkpt lat="50.693456931039691" lon="13.502834290266037">
        <ele>644</ele>
        <time>2026-08-29T06:52:46Z</time>
      </trkpt>
      <trkpt lat="50.69345592521131" lon="13.502853736281395">
        <ele>644</ele>
        <time>2026-08-29T06:52:47Z</time>
      </trkpt>
      <trkpt lat="50.693453578278422" lon="13.502883156761527">
        <ele>644</ele>
        <time>2026-08-29T06:52:48Z</time>
      </trkpt>
      <trkpt lat="50.693459026515484" lon="13.502901764586568">
        <ele>644</ele>
        <time>2026-08-29T06:52:49Z</time>
      </trkpt>
      <trkpt lat="50.693466318771243" lon="13.502912661060691">
        <ele>644</ele>
        <time>2026-08-29T06:52:50Z</time>
      </trkpt>
      <trkpt lat="50.693474449217319" lon="13.502920791506767">
        <ele>644</ele>
        <time>2026-08-29T06:52:51Z</time>
      </trkpt>
      <trkpt lat="50.693471767008305" lon="13.502920623868704">
        <ele>643</ele>
        <time>2026-08-29T06:52:52Z</time>
      </trkpt>
      <trkpt lat="50.693472772836685" lon="13.502919031307101">
        <ele>643</ele>
        <time>2026-08-29T06:52:53Z</time>
      </trkpt>
      <trkpt lat="50.69348081946373" lon="13.502925988286734">
        <ele>643</ele>
        <time>2026-08-29T06:52:54Z</time>
      </trkpt>
      <trkpt lat="50.693486938253045" lon="13.502935627475381">
        <ele>643</ele>
        <time>2026-08-29T06:52:55Z</time>
      </trkpt>
      <trkpt lat="50.693496828898787" lon="13.502941997721791">
        <ele>643</ele>
        <time>2026-08-29T06:52:56Z</time>
      </trkpt>
      <trkpt lat="50.6935047917068" lon="13.502955073490739">
        <ele>644</ele>
        <time>2026-08-29T06:52:57Z</time>
      </trkpt>
      <trkpt lat="50.693520130589604" lon="13.502960940822959">
        <ele>644</ele>
        <time>2026-08-29T06:52:58Z</time>
      </trkpt>
      <trkpt lat="50.693532368168235" lon="13.502972591668367">
        <ele>644</ele>
        <time>2026-08-29T06:52:59Z</time>
      </trkpt>
      <trkpt lat="50.693544521927834" lon="13.50298491306603">
        <ele>645</ele>
        <time>2026-08-29T06:53:00Z</time>
      </trkpt>
      <trkpt lat="50.693557765334845" lon="13.502992372959852">
        <ele>645</ele>
        <time>2026-08-29T06:53:01Z</time>
      </trkpt>
      <trkpt lat="50.693572349846363" lon="13.502999246120453">
        <ele>645</ele>
        <time>2026-08-29T06:53:02Z</time>
      </trkpt>
      <trkpt lat="50.693585760891438" lon="13.503005532547832">
        <ele>645</ele>
        <time>2026-08-29T06:53:03Z</time>
      </trkpt>
      <trkpt lat="50.693602859973907" lon="13.503018105402589">
        <ele>645</ele>
        <time>2026-08-29T06:53:04Z</time>
      </trkpt>
      <trkpt lat="50.693618031218648" lon="13.503040568903089">
        <ele>646</ele>
        <time>2026-08-29T06:53:05Z</time>
      </trkpt>
      <trkpt lat="50.693629011511803" lon="13.503056913614273">
        <ele>646</ele>
        <time>2026-08-29T06:53:06Z</time>
      </trkpt>
      <trkpt lat="50.693638818338513" lon="13.503066301345825">
        <ele>646</ele>
        <time>2026-08-29T06:53:07Z</time>
      </trkpt>
      <trkpt lat="50.693651558831334" lon="13.503087842836976">
        <ele>646</ele>
        <time>2026-08-29T06:53:08Z</time>
      </trkpt>
      <trkpt lat="50.693663042038679" lon="13.503102092072368">
        <ele>646</ele>
        <time>2026-08-29T06:53:09Z</time>
      </trkpt>
      <trkpt lat="50.693682571873069" lon="13.503104690462351">
        <ele>646</ele>
        <time>2026-08-29T06:53:10Z</time>
      </trkpt>
      <trkpt lat="50.693696150556207" lon="13.503112988546491">
        <ele>647</ele>
        <time>2026-08-29T06:53:11Z</time>
      </trkpt>
      <trkpt lat="50.693706292659044" lon="13.503124387934804">
        <ele>647</ele>
        <time>2026-08-29T06:53:12Z</time>
      </trkpt>
      <trkpt lat="50.693710232153535" lon="13.503131177276373">
        <ele>647</ele>
        <time>2026-08-29T06:53:13Z</time>
      </trkpt>
      <trkpt lat="50.69371878169477" lon="13.503144588321447">
        <ele>647</ele>
        <time>2026-08-29T06:53:14Z</time>
      </trkpt>
      <trkpt lat="50.693726912140846" lon="13.503168309107423">
        <ele>647</ele>
        <time>2026-08-29T06:53:15Z</time>
      </trkpt>
      <trkpt lat="50.693737389519811" lon="13.503178367391229">
        <ele>647</ele>
        <time>2026-08-29T06:53:16Z</time>
      </trkpt>
      <trkpt lat="50.693748034536839" lon="13.50319211371243">
        <ele>647</ele>
        <time>2026-08-29T06:53:17Z</time>
      </trkpt>
      <trkpt lat="50.693757589906454" lon="13.503222037106752">
        <ele>647</ele>
        <time>2026-08-29T06:53:18Z</time>
      </trkpt>
      <trkpt lat="50.693765552714467" lon="13.503233939409256">
        <ele>648</ele>
        <time>2026-08-29T06:53:19Z</time>
      </trkpt>
      <trkpt lat="50.693775443360209" lon="13.503256402909756">
        <ele>648</ele>
        <time>2026-08-29T06:53:20Z</time>
      </trkpt>
      <trkpt lat="50.693781562149525" lon="13.503279117867351">
        <ele>648</ele>
        <time>2026-08-29T06:53:21Z</time>
      </trkpt>
      <trkpt lat="50.693785920739174" lon="13.503295462578535">
        <ele>648</ele>
        <time>2026-08-29T06:53:22Z</time>
      </trkpt>
      <trkpt lat="50.693787932395935" lon="13.503318596631289">
        <ele>648</ele>
        <time>2026-08-29T06:53:23Z</time>
      </trkpt>
      <trkpt lat="50.693791788071394" lon="13.503338042646646">
        <ele>648</ele>
        <time>2026-08-29T06:53:24Z</time>
      </trkpt>
      <trkpt lat="50.693797990679741" lon="13.503364864736795">
        <ele>648</ele>
        <time>2026-08-29T06:53:25Z</time>
      </trkpt>
      <trkpt lat="50.693800924345851" lon="13.503372576087713">
        <ele>648</ele>
        <time>2026-08-29T06:53:26Z</time>
      </trkpt>
      <trkpt lat="50.693803690373898" lon="13.503388836979866">
        <ele>649</ele>
        <time>2026-08-29T06:53:27Z</time>
      </trkpt>
      <trkpt lat="50.693804947659373" lon="13.503408869728446">
        <ele>649</ele>
        <time>2026-08-29T06:53:28Z</time>
      </trkpt>
      <trkpt lat="50.693808887153864" lon="13.503427812829614">
        <ele>649</ele>
        <time>2026-08-29T06:53:29Z</time>
      </trkpt>
      <trkpt lat="50.693815341219306" lon="13.503443989902735">
        <ele>649</ele>
        <time>2026-08-29T06:53:30Z</time>
      </trkpt>
      <trkpt lat="50.693819615989923" lon="13.503462094813585">
        <ele>649</ele>
        <time>2026-08-29T06:53:31Z</time>
      </trkpt>
      <trkpt lat="50.693818526342511" lon="13.503480786457658">
        <ele>649</ele>
        <time>2026-08-29T06:53:32Z</time>
      </trkpt>
      <trkpt lat="50.693817352876067" lon="13.503502914682031">
        <ele>649</ele>
        <time>2026-08-29T06:53:33Z</time>
      </trkpt>
      <trkpt lat="50.693814000114799" lon="13.503522025421262">
        <ele>649</ele>
        <time>2026-08-29T06:53:34Z</time>
      </trkpt>
      <trkpt lat="50.693808468058705" lon="13.503547422587872">
        <ele>649</ele>
        <time>2026-08-29T06:53:35Z</time>
      </trkpt>
      <trkpt lat="50.69380285218358" lon="13.503562845289707">
        <ele>649</ele>
        <time>2026-08-29T06:53:36Z</time>
      </trkpt>
      <trkpt lat="50.693802433088422" lon="13.503582794219255">
        <ele>649</ele>
        <time>2026-08-29T06:53:37Z</time>
      </trkpt>
      <trkpt lat="50.693799331784248" lon="13.503605760633945">
        <ele>649</ele>
        <time>2026-08-29T06:53:38Z</time>
      </trkpt>
      <trkpt lat="50.693791368976235" lon="13.503628894686699">
        <ele>649</ele>
        <time>2026-08-29T06:53:39Z</time>
      </trkpt>
      <trkpt lat="50.693783657625318" lon="13.503643143922091">
        <ele>649</ele>
        <time>2026-08-29T06:53:40Z</time>
      </trkpt>
      <trkpt lat="50.693772090598941" lon="13.503652196377516">
        <ele>649</ele>
        <time>2026-08-29T06:53:41Z</time>
      </trkpt>
      <trkpt lat="50.693762451410294" lon="13.503665775060654">
        <ele>650</ele>
        <time>2026-08-29T06:53:42Z</time>
      </trkpt>
      <trkpt lat="50.693754991516471" lon="13.5036910045892">
        <ele>650</ele>
        <time>2026-08-29T06:53:43Z</time>
      </trkpt>
      <trkpt lat="50.693747699260712" lon="13.503702571615577">
        <ele>650</ele>
        <time>2026-08-29T06:53:44Z</time>
      </trkpt>
      <trkpt lat="50.693738730624318" lon="13.503709863871336">
        <ele>650</ele>
        <time>2026-08-29T06:53:45Z</time>
      </trkpt>
      <trkpt lat="50.693725822493434" lon="13.503712043166161">
        <ele>650</ele>
        <time>2026-08-29T06:53:46Z</time>
      </trkpt>
      <trkpt lat="50.693712998181581" lon="13.503702990710735">
        <ele>649</ele>
        <time>2026-08-29T06:53:47Z</time>
      </trkpt>
      <trkpt lat="50.693697826936841" lon="13.503684718161821">
        <ele>649</ele>
        <time>2026-08-29T06:53:48Z</time>
      </trkpt>
      <trkpt lat="50.693680141121149" lon="13.503682957962155">
        <ele>649</ele>
        <time>2026-08-29T06:53:49Z</time>
      </trkpt>
      <trkpt lat="50.693668490275741" lon="13.503680108115077">
        <ele>650</ele>
        <time>2026-08-29T06:53:50Z</time>
      </trkpt>
      <trkpt lat="50.693654157221317" lon="13.503665775060654">
        <ele>650</ele>
        <time>2026-08-29T06:53:51Z</time>
      </trkpt>
      <trkpt lat="50.693648960441351" lon="13.503658985719085">
        <ele>649</ele>
        <time>2026-08-29T06:53:52Z</time>
      </trkpt>
      <trkpt lat="50.693640662357211" lon="13.503653705120087">
        <ele>648</ele>
        <time>2026-08-29T06:53:53Z</time>
      </trkpt>
      <trkpt lat="50.693626832216978" lon="13.503644149750471">
        <ele>648</ele>
        <time>2026-08-29T06:53:54Z</time>
      </trkpt>
      <trkpt lat="50.693618450313807" lon="13.503634510561824">
        <ele>648</ele>
        <time>2026-08-29T06:53:55Z</time>
      </trkpt>
      <trkpt lat="50.693605123087764" lon="13.503618249669671">
        <ele>648</ele>
        <time>2026-08-29T06:53:56Z</time>
      </trkpt>
      <trkpt lat="50.693596657365561" lon="13.503587236627936">
        <ele>649</ele>
        <time>2026-08-29T06:53:57Z</time>
      </trkpt>
      <trkpt lat="50.693586179986596" lon="13.503555553033948">
        <ele>649</ele>
        <time>2026-08-29T06:53:58Z</time>
      </trkpt>
      <trkpt lat="50.693572433665395" lon="13.503519343212247">
        <ele>649</ele>
        <time>2026-08-29T06:53:59Z</time>
      </trkpt>
      <trkpt lat="50.693554580211639" lon="13.503474751487374">
        <ele>649</ele>
        <time>2026-08-29T06:54:00Z</time>
      </trkpt>
      <trkpt lat="50.693541588261724" lon="13.503436027094722">
        <ele>650</ele>
        <time>2026-08-29T06:54:01Z</time>
      </trkpt>
      <trkpt lat="50.69352624937892" lon="13.503392189741135">
        <ele>650</ele>
        <time>2026-08-29T06:54:02Z</time>
      </trkpt>
      <trkpt lat="50.693503450602293" lon="13.503339299932122">
        <ele>650</ele>
        <time>2026-08-29T06:54:03Z</time>
      </trkpt>
      <trkpt lat="50.693483836948872" lon="13.503290601074696">
        <ele>650</ele>
        <time>2026-08-29T06:54:04Z</time>
      </trkpt>
      <trkpt lat="50.693460702896118" lon="13.503247937187552">
        <ele>650</ele>
        <time>2026-08-29T06:54:05Z</time>
      </trkpt>
      <trkpt lat="50.693437485024333" lon="13.503206530585885">
        <ele>651</ele>
        <time>2026-08-29T06:54:06Z</time>
      </trkpt>
      <trkpt lat="50.693412842229009" lon="13.503167722374201">
        <ele>651</ele>
        <time>2026-08-29T06:54:07Z</time>
      </trkpt>
      <trkpt lat="50.69339239038527" lon="13.503128075972199">
        <ele>650</ele>
        <time>2026-08-29T06:54:08Z</time>
      </trkpt>
      <trkpt lat="50.693364813923836" lon="13.503087172284722">
        <ele>650</ele>
        <time>2026-08-29T06:54:09Z</time>
      </trkpt>
      <trkpt lat="50.693337237462401" lon="13.503054231405258">
        <ele>650</ele>
        <time>2026-08-29T06:54:10Z</time>
      </trkpt>
      <trkpt lat="50.693305721506476" lon="13.503018524497747">
        <ele>651</ele>
        <time>2026-08-29T06:54:11Z</time>
      </trkpt>
      <trkpt lat="50.69326682947576" lon="13.502992540597916">
        <ele>651</ele>
        <time>2026-08-29T06:54:12Z</time>
      </trkpt>
      <trkpt lat="50.693228524178267" lon="13.502955911681056">
        <ele>651</ele>
        <time>2026-08-29T06:54:13Z</time>
      </trkpt>
      <trkpt lat="50.693193487823009" lon="13.502936884760857">
        <ele>651</ele>
        <time>2026-08-29T06:54:14Z</time>
      </trkpt>
      <trkpt lat="50.693150069564581" lon="13.502916935831308">
        <ele>651</ele>
        <time>2026-08-29T06:54:15Z</time>
      </trkpt>
      <trkpt lat="50.693112099543214" lon="13.502894388511777">
        <ele>652</ele>
        <time>2026-08-29T06:54:16Z</time>
      </trkpt>
      <trkpt lat="50.693068848922849" lon="13.502889443188906">
        <ele>652</ele>
        <time>2026-08-29T06:54:17Z</time>
      </trkpt>
      <trkpt lat="50.693023921921849" lon="13.502882234752178">
        <ele>653</ele>
        <time>2026-08-29T06:54:18Z</time>
      </trkpt>
      <trkpt lat="50.692977737635374" lon="13.502869913354516">
        <ele>653</ele>
        <time>2026-08-29T06:54:19Z</time>
      </trkpt>
      <trkpt lat="50.692934989929199" lon="13.502864465117455">
        <ele>653</ele>
        <time>2026-08-29T06:54:20Z</time>
      </trkpt>
      <trkpt lat="50.692895008251071" lon="13.502863794565201">
        <ele>653</ele>
        <time>2026-08-29T06:54:21Z</time>
      </trkpt>
      <trkpt lat="50.692856954410672" lon="13.502861866727471">
        <ele>652</ele>
        <time>2026-08-29T06:54:22Z</time>
      </trkpt>
      <trkpt lat="50.692817391827703" lon="13.502867985516787">
        <ele>652</ele>
        <time>2026-08-29T06:54:23Z</time>
      </trkpt>
      <trkpt lat="50.692778918892145" lon="13.502890281379223">
        <ele>652</ele>
        <time>2026-08-29T06:54:24Z</time>
      </trkpt>
      <trkpt lat="50.692740781232715" lon="13.502906793728471">
        <ele>652</ele>
        <time>2026-08-29T06:54:25Z</time>
      </trkpt>
      <trkpt lat="50.692704739049077" lon="13.502943255007267">
        <ele>651</ele>
        <time>2026-08-29T06:54:26Z</time>
      </trkpt>
      <trkpt lat="50.692670457065105" lon="13.502984242513776">
        <ele>651</ele>
        <time>2026-08-29T06:54:27Z</time>
      </trkpt>
      <trkpt lat="50.692629050463438" lon="13.50303377956152">
        <ele>652</ele>
        <time>2026-08-29T06:54:28Z</time>
      </trkpt>
      <trkpt lat="50.692594517022371" lon="13.503077114000916">
        <ele>651</ele>
        <time>2026-08-29T06:54:29Z</time>
      </trkpt>
      <trkpt lat="50.69255000911653" lon="13.503122543916106">
        <ele>651</ele>
        <time>2026-08-29T06:54:30Z</time>
      </trkpt>
      <trkpt lat="50.692514888942242" lon="13.50316621363163">
        <ele>650</ele>
        <time>2026-08-29T06:54:31Z</time>
      </trkpt>
      <trkpt lat="50.692476918920875" lon="13.503215499222279">
        <ele>650</ele>
        <time>2026-08-29T06:54:32Z</time>
      </trkpt>
      <trkpt lat="50.692438194528222" lon="13.503279453143477">
        <ele>650</ele>
        <time>2026-08-29T06:54:33Z</time>
      </trkpt>
      <trkpt lat="50.692405169829726" lon="13.503347933292389">
        <ele>650</ele>
        <time>2026-08-29T06:54:34Z</time>
      </trkpt>
      <trkpt lat="50.692378934472799" lon="13.50342077203095">
        <ele>650</ele>
        <time>2026-08-29T06:54:35Z</time>
      </trkpt>
      <trkpt lat="50.692343227565289" lon="13.503483049571514">
        <ele>649</ele>
        <time>2026-08-29T06:54:36Z</time>
      </trkpt>
      <trkpt lat="50.692309783771634" lon="13.503563515841961">
        <ele>649</ele>
        <time>2026-08-29T06:54:37Z</time>
      </trkpt>
      <trkpt lat="50.692278351634741" lon="13.503646831959486">
        <ele>648</ele>
        <time>2026-08-29T06:54:38Z</time>
      </trkpt>
      <trkpt lat="50.692247170954943" lon="13.503730734810233">
        <ele>648</ele>
        <time>2026-08-29T06:54:39Z</time>
      </trkpt>
      <trkpt lat="50.692213391885161" lon="13.503810111433268">
        <ele>648</ele>
        <time>2026-08-29T06:54:40Z</time>
      </trkpt>
      <trkpt lat="50.692177098244429" lon="13.503883201628923">
        <ele>648</ele>
        <time>2026-08-29T06:54:41Z</time>
      </trkpt>
      <trkpt lat="50.692143151536584" lon="13.503966182470322">
        <ele>647</ele>
        <time>2026-08-29T06:54:42Z</time>
      </trkpt>
      <trkpt lat="50.692110378295183" lon="13.504062574356794">
        <ele>647</ele>
        <time>2026-08-29T06:54:43Z</time>
      </trkpt>
      <trkpt lat="50.692072492092848" lon="13.504156870767474">
        <ele>646</ele>
        <time>2026-08-29T06:54:44Z</time>
      </trkpt>
      <trkpt lat="50.692023709416389" lon="13.504248736426234">
        <ele>646</ele>
        <time>2026-08-29T06:54:45Z</time>
      </trkpt>
      <trkpt lat="50.691983057186007" lon="13.504345044493675">
        <ele>646</ele>
        <time>2026-08-29T06:54:46Z</time>
      </trkpt>
      <trkpt lat="50.691937040537596" lon="13.504430875182152">
        <ele>646</ele>
        <time>2026-08-29T06:54:47Z</time>
      </trkpt>
      <trkpt lat="50.691885659471154" lon="13.504528356716037">
        <ele>645</ele>
        <time>2026-08-29T06:54:48Z</time>
      </trkpt>
      <trkpt lat="50.691838134080172" lon="13.504625083878636">
        <ele>644</ele>
        <time>2026-08-29T06:54:49Z</time>
      </trkpt>
      <trkpt lat="50.691792536526918" lon="13.504722397774458">
        <ele>645</ele>
        <time>2026-08-29T06:54:50Z</time>
      </trkpt>
      <trkpt lat="50.691733611747622" lon="13.50481191650033">
        <ele>644</ele>
        <time>2026-08-29T06:54:51Z</time>
      </trkpt>
      <trkpt lat="50.691672507673502" lon="13.50489548407495">
        <ele>643</ele>
        <time>2026-08-29T06:54:52Z</time>
      </trkpt>
      <trkpt lat="50.691604530438781" lon="13.504972262308002">
        <ele>643</ele>
        <time>2026-08-29T06:54:53Z</time>
      </trkpt>
      <trkpt lat="50.691525405272841" lon="13.505049627274275">
        <ele>643</ele>
        <time>2026-08-29T06:54:54Z</time>
      </trkpt>
      <trkpt lat="50.691450471058488" lon="13.505127998068929">
        <ele>642</ele>
        <time>2026-08-29T06:54:55Z</time>
      </trkpt>
      <trkpt lat="50.691374279558659" lon="13.50520770996809">
        <ele>642</ele>
        <time>2026-08-29T06:54:56Z</time>
      </trkpt>
      <trkpt lat="50.691290209069848" lon="13.505279375240207">
        <ele>641</ele>
        <time>2026-08-29T06:54:57Z</time>
      </trkpt>
      <trkpt lat="50.691197840496898" lon="13.505344167351723">
        <ele>641</ele>
        <time>2026-08-29T06:54:58Z</time>
      </trkpt>
      <trkpt lat="50.691110165789723" lon="13.505428237840533">
        <ele>640</ele>
        <time>2026-08-29T06:54:59Z</time>
      </trkpt>
      <trkpt lat="50.691018216311932" lon="13.505495879799128">
        <ele>640</ele>
        <time>2026-08-29T06:55:00Z</time>
      </trkpt>
      <trkpt lat="50.690915370360017" lon="13.505553212016821">
        <ele>639</ele>
        <time>2026-08-29T06:55:01Z</time>
      </trkpt>
      <trkpt lat="50.690818391740322" lon="13.505598641932011">
        <ele>639</ele>
        <time>2026-08-29T06:55:02Z</time>
      </trkpt>
      <trkpt lat="50.690715713426471" lon="13.505630996078253">
        <ele>638</ele>
        <time>2026-08-29T06:55:03Z</time>
      </trkpt>
      <trkpt lat="50.690610520541668" lon="13.505650190636516">
        <ele>638</ele>
        <time>2026-08-29T06:55:04Z</time>
      </trkpt>
      <trkpt lat="50.690514128655195" lon="13.505668127909303">
        <ele>637</ele>
        <time>2026-08-29T06:55:05Z</time>
      </trkpt>
      <trkpt lat="50.690430058166385" lon="13.505663936957717">
        <ele>637</ele>
        <time>2026-08-29T06:55:06Z</time>
      </trkpt>
      <trkpt lat="50.690347580239177" lon="13.505633426830173">
        <ele>636</ele>
        <time>2026-08-29T06:55:07Z</time>
      </trkpt>
      <trkpt lat="50.690275998786092" lon="13.505563018843532">
        <ele>636</ele>
        <time>2026-08-29T06:55:08Z</time>
      </trkpt>
      <trkpt lat="50.690215229988098" lon="13.505463441833854">
        <ele>635</ele>
        <time>2026-08-29T06:55:09Z</time>
      </trkpt>
      <trkpt lat="50.690165860578418" lon="13.505338048562407">
        <ele>634</ele>
        <time>2026-08-29T06:55:10Z</time>
      </trkpt>
      <trkpt lat="50.690125040709972" lon="13.505214331671596">
        <ele>633</ele>
        <time>2026-08-29T06:55:11Z</time>
      </trkpt>
      <trkpt lat="50.690100900828838" lon="13.50508650764823">
        <ele>632</ele>
        <time>2026-08-29T06:55:12Z</time>
      </trkpt>
      <trkpt lat="50.690093357115984" lon="13.504944937303662">
        <ele>632</ele>
        <time>2026-08-29T06:55:13Z</time>
      </trkpt>
      <trkpt lat="50.690099559724331" lon="13.504805881530046">
        <ele>631</ele>
        <time>2026-08-29T06:55:14Z</time>
      </trkpt>
      <trkpt lat="50.690128980204463" lon="13.504675207659602">
        <ele>631</ele>
        <time>2026-08-29T06:55:15Z</time>
      </trkpt>
      <trkpt lat="50.690170051530004" lon="13.504555011168122">
        <ele>631</ele>
        <time>2026-08-29T06:55:16Z</time>
      </trkpt>
      <trkpt lat="50.69022361189127" lon="13.504447806626558">
        <ele>631</ele>
        <time>2026-08-29T06:55:17Z</time>
      </trkpt>
      <trkpt lat="50.690284380689263" lon="13.504353342577815">
        <ele>631</ele>
        <time>2026-08-29T06:55:18Z</time>
      </trkpt>
      <trkpt lat="50.690352777019143" lon="13.504266841337085">
        <ele>630</ele>
        <time>2026-08-29T06:55:19Z</time>
      </trkpt>
      <trkpt lat="50.690427124500275" lon="13.504187883809209">
        <ele>630</ele>
        <time>2026-08-29T06:55:20Z</time>
      </trkpt>
      <trkpt lat="50.690501807257533" lon="13.50411512888968">
        <ele>630</ele>
        <time>2026-08-29T06:55:21Z</time>
      </trkpt>
      <trkpt lat="50.690578334033489" lon="13.504033824428916">
        <ele>630</ele>
        <time>2026-08-29T06:55:22Z</time>
      </trkpt>
      <trkpt lat="50.690656621009111" lon="13.503958974033594">
        <ele>630</ele>
        <time>2026-08-29T06:55:23Z</time>
      </trkpt>
      <trkpt lat="50.690733483061194" lon="13.50389233790338">
        <ele>630</ele>
        <time>2026-08-29T06:55:24Z</time>
      </trkpt>
      <trkpt lat="50.690808920189738" lon="13.503816900774837">
        <ele>629</ele>
        <time>2026-08-29T06:55:25Z</time>
      </trkpt>
      <trkpt lat="50.690882848575711" lon="13.503743559122086">
        <ele>629</ele>
        <time>2026-08-29T06:55:26Z</time>
      </trkpt>
      <trkpt lat="50.690957028418779" lon="13.503668624907732">
        <ele>629</ele>
        <time>2026-08-29T06:55:27Z</time>
      </trkpt>
      <trkpt lat="50.691030202433467" lon="13.503585727885365">
        <ele>628</ele>
        <time>2026-08-29T06:55:28Z</time>
      </trkpt>
      <trkpt lat="50.691102035343647" lon="13.503508362919092">
        <ele>628</ele>
        <time>2026-08-29T06:55:29Z</time>
      </trkpt>
      <trkpt lat="50.691173952072859" lon="13.503422364592552">
        <ele>628</ele>
        <time>2026-08-29T06:55:30Z</time>
      </trkpt>
      <trkpt lat="50.691242599859834" lon="13.503339048475027">
        <ele>627</ele>
        <time>2026-08-29T06:55:31Z</time>
      </trkpt>
      <trkpt lat="50.691311247646809" lon="13.503245338797569">
        <ele>627</ele>
        <time>2026-08-29T06:55:32Z</time>
      </trkpt>
      <trkpt lat="50.691377213224769" lon="13.503142492845654">
        <ele>627</ele>
        <time>2026-08-29T06:55:33Z</time>
      </trkpt>
      <trkpt lat="50.69144912995398" lon="13.503036545589566">
        <ele>627</ele>
        <time>2026-08-29T06:55:34Z</time>
      </trkpt>
      <trkpt lat="50.691520208492875" lon="13.502931268885732">
        <ele>626</ele>
        <time>2026-08-29T06:55:35Z</time>
      </trkpt>
      <trkpt lat="50.691585335880518" lon="13.502825992181897">
        <ele>626</ele>
        <time>2026-08-29T06:55:36Z</time>
      </trkpt>
      <trkpt lat="50.69164945743978" lon="13.50271618925035">
        <ele>626</ele>
        <time>2026-08-29T06:55:37Z</time>
      </trkpt>
      <trkpt lat="50.691713578999043" lon="13.502592304721475">
        <ele>626</ele>
        <time>2026-08-29T06:55:38Z</time>
      </trkpt>
      <trkpt lat="50.691778371110559" lon="13.502460038289428">
        <ele>625</ele>
        <time>2026-08-29T06:55:39Z</time>
      </trkpt>
      <trkpt lat="50.691828327253461" lon="13.502338752150536">
        <ele>624</ele>
        <time>2026-08-29T06:55:40Z</time>
      </trkpt>
      <trkpt lat="50.691875852644444" lon="13.502201875671744">
        <ele>624</ele>
        <time>2026-08-29T06:55:41Z</time>
      </trkpt>
      <trkpt lat="50.691928910091519" lon="13.502073381096125">
        <ele>624</ele>
        <time>2026-08-29T06:55:42Z</time>
      </trkpt>
      <trkpt lat="50.691973920911551" lon="13.501937929540873">
        <ele>624</ele>
        <time>2026-08-29T06:55:43Z</time>
      </trkpt>
      <trkpt lat="50.692014405503869" lon="13.501787558197975">
        <ele>623</ele>
        <time>2026-08-29T06:55:44Z</time>
      </trkpt>
      <trkpt lat="50.692054471001029" lon="13.501642886549234">
        <ele>622</ele>
        <time>2026-08-29T06:55:45Z</time>
      </trkpt>
      <trkpt lat="50.692087579518557" lon="13.501507434993982">
        <ele>621</ele>
        <time>2026-08-29T06:55:46Z</time>
      </trkpt>
      <trkpt lat="50.692113228142262" lon="13.501354465261102">
        <ele>620</ele>
        <time>2026-08-29T06:55:47Z</time>
      </trkpt>
      <trkpt lat="50.69213904440403" lon="13.501201746985316">
        <ele>619</ele>
        <time>2026-08-29T06:55:48Z</time>
      </trkpt>
      <trkpt lat="50.692166872322559" lon="13.501051124185324">
        <ele>618</ele>
        <time>2026-08-29T06:55:49Z</time>
      </trkpt>
      <trkpt lat="50.692193610593677" lon="13.500907039269805">
        <ele>618</ele>
        <time>2026-08-29T06:55:50Z</time>
      </trkpt>
      <trkpt lat="50.692226551473141" lon="13.500774269923568">
        <ele>618</ele>
        <time>2026-08-29T06:55:51Z</time>
      </trkpt>
      <trkpt lat="50.692256391048431" lon="13.50064099766314">
        <ele>617</ele>
        <time>2026-08-29T06:55:52Z</time>
      </trkpt>
      <trkpt lat="50.692287068814039" lon="13.500498170033097">
        <ele>616</ele>
        <time>2026-08-29T06:55:53Z</time>
      </trkpt>
      <trkpt lat="50.692318081855774" lon="13.500369424000382">
        <ele>614</ele>
        <time>2026-08-29T06:55:54Z</time>
      </trkpt>
      <trkpt lat="50.692344652488828" lon="13.500220142304897">
        <ele>614</ele>
        <time>2026-08-29T06:55:55Z</time>
      </trkpt>
      <trkpt lat="50.692370971664786" lon="13.500079158693552">
        <ele>613</ele>
        <time>2026-08-29T06:55:56Z</time>
      </trkpt>
      <trkpt lat="50.692401062697172" lon="13.499944377690554">
        <ele>613</ele>
        <time>2026-08-29T06:55:57Z</time>
      </trkpt>
      <trkpt lat="50.692422185093164" lon="13.499807249754667">
        <ele>613</ele>
        <time>2026-08-29T06:55:58Z</time>
      </trkpt>
      <trkpt lat="50.692447079345584" lon="13.499672301113605">
        <ele>612</ele>
        <time>2026-08-29T06:55:59Z</time>
      </trkpt>
      <trkpt lat="50.692473482340574" lon="13.499544225633144">
        <ele>612</ele>
        <time>2026-08-29T06:56:00Z</time>
      </trkpt>
      <trkpt lat="50.692499466240406" lon="13.499425705522299">
        <ele>611</ele>
        <time>2026-08-29T06:56:01Z</time>
      </trkpt>
      <trkpt lat="50.692529557272792" lon="13.499310202896595">
        <ele>610</ele>
        <time>2026-08-29T06:56:02Z</time>
      </trkpt>
      <trkpt lat="50.692551350221038" lon="13.499187575653195">
        <ele>610</ele>
        <time>2026-08-29T06:56:03Z</time>
      </trkpt>
      <trkpt lat="50.692568197846413" lon="13.499057237058878">
        <ele>609</ele>
        <time>2026-08-29T06:56:04Z</time>
      </trkpt>
      <trkpt lat="50.692584626376629" lon="13.498947182670236">
        <ele>609</ele>
        <time>2026-08-29T06:56:05Z</time>
      </trkpt>
      <trkpt lat="50.6925895716995" lon="13.498824974521995">
        <ele>608</ele>
        <time>2026-08-29T06:56:06Z</time>
      </trkpt>
      <trkpt lat="50.692596361041069" lon="13.498699078336358">
        <ele>608</ele>
        <time>2026-08-29T06:56:07Z</time>
      </trkpt>
      <trkpt lat="50.692605581134558" lon="13.498586257919669">
        <ele>608</ele>
        <time>2026-08-29T06:56:08Z</time>
      </trkpt>
      <trkpt lat="50.692601809278131" lon="13.498474862426519">
        <ele>608</ele>
        <time>2026-08-29T06:56:09Z</time>
      </trkpt>
      <trkpt lat="50.6925895716995" lon="13.498364891856909">
        <ele>608</ele>
        <time>2026-08-29T06:56:10Z</time>
      </trkpt>
      <trkpt lat="50.692573059350252" lon="13.498270008713007">
        <ele>608</ele>
        <time>2026-08-29T06:56:11Z</time>
      </trkpt>
      <trkpt lat="50.692564090713859" lon="13.498178897425532">
        <ele>608</ele>
        <time>2026-08-29T06:56:12Z</time>
      </trkpt>
      <trkpt lat="50.692554032430053" lon="13.498095413669944">
        <ele>608</ele>
        <time>2026-08-29T06:56:13Z</time>
      </trkpt>
      <trkpt lat="50.692537687718868" lon="13.498015869408846">
        <ele>608</ele>
        <time>2026-08-29T06:56:14Z</time>
      </trkpt>
      <trkpt lat="50.692515056580305" lon="13.49794814363122">
        <ele>608</ele>
        <time>2026-08-29T06:56:15Z</time>
      </trkpt>
      <trkpt lat="50.692502902820706" lon="13.49788318388164">
        <ele>608</ele>
        <time>2026-08-29T06:56:16Z</time>
      </trkpt>
      <trkpt lat="50.69249477237463" lon="13.497817050665617">
        <ele>608</ele>
        <time>2026-08-29T06:56:17Z</time>
      </trkpt>
      <trkpt lat="50.692487647756934" lon="13.497765166684985">
        <ele>608</ele>
        <time>2026-08-29T06:56:18Z</time>
      </trkpt>
      <trkpt lat="50.69247230887413" lon="13.497718228027225">
        <ele>608</ele>
        <time>2026-08-29T06:56:19Z</time>
      </trkpt>
      <trkpt lat="50.692457389086485" lon="13.497671959921718">
        <ele>609</ele>
        <time>2026-08-29T06:56:20Z</time>
      </trkpt>
      <trkpt lat="50.692444648593664" lon="13.497626781463623">
        <ele>609</ele>
        <time>2026-08-29T06:56:21Z</time>
      </trkpt>
      <trkpt lat="50.692431069910526" lon="13.497583782300353">
        <ele>609</ele>
        <time>2026-08-29T06:56:22Z</time>
      </trkpt>
      <trkpt lat="50.692415982484818" lon="13.497542710974813">
        <ele>609</ele>
        <time>2026-08-29T06:56:23Z</time>
      </trkpt>
      <trkpt lat="50.692399889230728" lon="13.497497364878654">
        <ele>609</ele>
        <time>2026-08-29T06:56:24Z</time>
      </trkpt>
      <trkpt lat="50.692384047433734" lon="13.497454030439258">
        <ele>609</ele>
        <time>2026-08-29T06:56:25Z</time>
      </trkpt>
      <trkpt lat="50.692370720207691" lon="13.497403990477324">
        <ele>609</ele>
        <time>2026-08-29T06:56:26Z</time>
      </trkpt>
      <trkpt lat="50.692358231171966" lon="13.497360153123736">
        <ele>609</ele>
        <time>2026-08-29T06:56:27Z</time>
      </trkpt>
      <trkpt lat="50.692343227565289" lon="13.497313382104039">
        <ele>610</ele>
        <time>2026-08-29T06:56:28Z</time>
      </trkpt>
      <trkpt lat="50.692327721044421" lon="13.497269293293357">
        <ele>609</ele>
        <time>2026-08-29T06:56:29Z</time>
      </trkpt>
      <trkpt lat="50.692312130704522" lon="13.497216990217566">
        <ele>609</ele>
        <time>2026-08-29T06:56:30Z</time>
      </trkpt>
      <trkpt lat="50.692293858155608" lon="13.497169800102711">
        <ele>609</ele>
        <time>2026-08-29T06:56:31Z</time>
      </trkpt>
      <trkpt lat="50.692273741587996" lon="13.497120682150126">
        <ele>609</ele>
        <time>2026-08-29T06:56:32Z</time>
      </trkpt>
      <trkpt lat="50.692257899791002" lon="13.497073156759143">
        <ele>609</ele>
        <time>2026-08-29T06:56:33Z</time>
      </trkpt>
      <trkpt lat="50.692241052165627" lon="13.497027307748795">
        <ele>609</ele>
        <time>2026-08-29T06:56:34Z</time>
      </trkpt>
      <trkpt lat="50.692228730767965" lon="13.496980536729097">
        <ele>609</ele>
        <time>2026-08-29T06:56:35Z</time>
      </trkpt>
      <trkpt lat="50.692210458219051" lon="13.496929910033941">
        <ele>609</ele>
        <time>2026-08-29T06:56:36Z</time>
      </trkpt>
      <trkpt lat="50.692194867879152" lon="13.496881378814578">
        <ele>609</ele>
        <time>2026-08-29T06:56:37Z</time>
      </trkpt>
      <trkpt lat="50.692177433520555" lon="13.496835278347135">
        <ele>609</ele>
        <time>2026-08-29T06:56:38Z</time>
      </trkpt>
      <trkpt lat="50.692159663885832" lon="13.496791021898389">
        <ele>609</ele>
        <time>2026-08-29T06:56:39Z</time>
      </trkpt>
      <trkpt lat="50.692143989726901" lon="13.496748190373182">
        <ele>609</ele>
        <time>2026-08-29T06:56:40Z</time>
      </trkpt>
      <trkpt lat="50.69212538190186" lon="13.496700162068009">
        <ele>609</ele>
        <time>2026-08-29T06:56:41Z</time>
      </trkpt>
      <trkpt lat="50.692104259505868" lon="13.496653810143471">
        <ele>608</ele>
        <time>2026-08-29T06:56:42Z</time>
      </trkpt>
      <trkpt lat="50.692087579518557" lon="13.496606620028615">
        <ele>608</ele>
        <time>2026-08-29T06:56:43Z</time>
      </trkpt>
      <trkpt lat="50.692070228978992" lon="13.496558675542474">
        <ele>608</ele>
        <time>2026-08-29T06:56:44Z</time>
      </trkpt>
      <trkpt lat="50.692057991400361" lon="13.496517520397902">
        <ele>608</ele>
        <time>2026-08-29T06:56:45Z</time>
      </trkpt>
      <trkpt lat="50.692042568698525" lon="13.496475359424949">
        <ele>608</ele>
        <time>2026-08-29T06:56:46Z</time>
      </trkpt>
      <trkpt lat="50.692025888711214" lon="13.49643143825233">
        <ele>608</ele>
        <time>2026-08-29T06:56:47Z</time>
      </trkpt>
      <trkpt lat="50.692014321684837" lon="13.496387433260679">
        <ele>608</ele>
        <time>2026-08-29T06:56:48Z</time>
      </trkpt>
      <trkpt lat="50.692000156268477" lon="13.496343679726124">
        <ele>608</ele>
        <time>2026-08-29T06:56:49Z</time>
      </trkpt>
      <trkpt lat="50.691985487937927" lon="13.496302356943488">
        <ele>609</ele>
        <time>2026-08-29T06:56:50Z</time>
      </trkpt>
      <trkpt lat="50.691971071064472" lon="13.496265225112438">
        <ele>609</ele>
        <time>2026-08-29T06:56:51Z</time>
      </trkpt>
      <trkpt lat="50.691959252581" lon="13.496233792975545">
        <ele>609</ele>
        <time>2026-08-29T06:56:52Z</time>
      </trkpt>
      <trkpt lat="50.69194508716464" lon="13.496208228170872">
        <ele>609</ele>
        <time>2026-08-29T06:56:53Z</time>
      </trkpt>
      <trkpt lat="50.691932430490851" lon="13.49617931060493">
        <ele>609</ele>
        <time>2026-08-29T06:56:54Z</time>
      </trkpt>
      <trkpt lat="50.691921701654792" lon="13.496151817962527">
        <ele>609</ele>
        <time>2026-08-29T06:56:55Z</time>
      </trkpt>
      <trkpt lat="50.691913152113557" lon="13.496126336976886">
        <ele>609</ele>
        <time>2026-08-29T06:56:56Z</time>
      </trkpt>
      <trkpt lat="50.691907787695527" lon="13.4960962459445">
        <ele>608</ele>
        <time>2026-08-29T06:56:57Z</time>
      </trkpt>
      <trkpt lat="50.691894544288516" lon="13.496076548472047">
        <ele>608</ele>
        <time>2026-08-29T06:56:58Z</time>
      </trkpt>
      <trkpt lat="50.691889012232423" lon="13.496060036122799">
        <ele>608</ele>
        <time>2026-08-29T06:56:59Z</time>
      </trkpt>
      <trkpt lat="50.691884569823742" lon="13.496038913726807">
        <ele>608</ele>
        <time>2026-08-29T06:57:00Z</time>
      </trkpt>
      <trkpt lat="50.691877696663141" lon="13.49601955153048">
        <ele>609</ele>
        <time>2026-08-29T06:57:01Z</time>
      </trkpt>
      <trkpt lat="50.691873924806714" lon="13.495995663106441">
        <ele>609</ele>
        <time>2026-08-29T06:57:02Z</time>
      </trkpt>
      <trkpt lat="50.691872080788016" lon="13.49597848020494">
        <ele>609</ele>
        <time>2026-08-29T06:57:03Z</time>
      </trkpt>
      <trkpt lat="50.691864704713225" lon="13.495952244848013">
        <ele>610</ele>
        <time>2026-08-29T06:57:04Z</time>
      </trkpt>
      <trkpt lat="50.691854562610388" lon="13.49592961370945">
        <ele>610</ele>
        <time>2026-08-29T06:57:05Z</time>
      </trkpt>
      <trkpt lat="50.691847521811724" lon="13.495914526283741">
        <ele>610</ele>
        <time>2026-08-29T06:57:06Z</time>
      </trkpt>
      <trkpt lat="50.691838636994362" lon="13.495894325897098">
        <ele>610</ele>
        <time>2026-08-29T06:57:07Z</time>
      </trkpt>
      <trkpt lat="50.691824471578002" lon="13.495870437473059">
        <ele>610</ele>
        <time>2026-08-29T06:57:08Z</time>
      </trkpt>
      <trkpt lat="50.691812820732594" lon="13.495859121903777">
        <ele>610</ele>
        <time>2026-08-29T06:57:09Z</time>
      </trkpt>
      <trkpt lat="50.6918038520962" lon="13.495845291763544">
        <ele>610</ele>
        <time>2026-08-29T06:57:10Z</time>
      </trkpt>
      <trkpt lat="50.691800247877836" lon="13.495826432481408">
        <ele>610</ele>
        <time>2026-08-29T06:57:11Z</time>
      </trkpt>
      <trkpt lat="50.691793039441109" lon="13.495805561542511">
        <ele>610</ele>
        <time>2026-08-29T06:57:12Z</time>
      </trkpt>
      <trkpt lat="50.691782981157303" lon="13.495791731402278">
        <ele>610</ele>
        <time>2026-08-29T06:57:13Z</time>
      </trkpt>
      <trkpt lat="50.691775940358639" lon="13.495779410004616">
        <ele>610</ele>
        <time>2026-08-29T06:57:14Z</time>
      </trkpt>
      <trkpt lat="50.69177258759737" lon="13.49575568921864">
        <ele>611</ele>
        <time>2026-08-29T06:57:15Z</time>
      </trkpt>
      <trkpt lat="50.69176328368485" lon="13.495737668126822">
        <ele>611</ele>
        <time>2026-08-29T06:57:16Z</time>
      </trkpt>
      <trkpt lat="50.691755320876837" lon="13.495719227939844">
        <ele>611</ele>
        <time>2026-08-29T06:57:17Z</time>
      </trkpt>
      <trkpt lat="50.691743502393365" lon="13.495697602629662">
        <ele>611</ele>
        <time>2026-08-29T06:57:18Z</time>
      </trkpt>
      <trkpt lat="50.691736377775669" lon="13.495678072795272">
        <ele>611</ele>
        <time>2026-08-29T06:57:19Z</time>
      </trkpt>
      <trkpt lat="50.691731348633766" lon="13.495655274018645">
        <ele>611</ele>
        <time>2026-08-29T06:57:20Z</time>
      </trkpt>
      <trkpt lat="50.691724475473166" lon="13.495636079460382">
        <ele>611</ele>
        <time>2026-08-29T06:57:21Z</time>
      </trkpt>
      <trkpt lat="50.691718608140945" lon="13.495611688122153">
        <ele>611</ele>
        <time>2026-08-29T06:57:22Z</time>
      </trkpt>
      <trkpt lat="50.691715842112899" lon="13.495592912659049">
        <ele>611</ele>
        <time>2026-08-29T06:57:23Z</time>
      </trkpt>
      <trkpt lat="50.691709388047457" lon="13.495578579604626">
        <ele>611</ele>
        <time>2026-08-29T06:57:24Z</time>
      </trkpt>
      <trkpt lat="50.691700335592031" lon="13.495570113882422">
        <ele>611</ele>
        <time>2026-08-29T06:57:25Z</time>
      </trkpt>
      <trkpt lat="50.691692540422082" lon="13.495564078912139">
        <ele>612</ele>
        <time>2026-08-29T06:57:26Z</time>
      </trkpt>
      <trkpt lat="50.691688852384686" lon="13.495562570169568">
        <ele>612</ele>
        <time>2026-08-29T06:57:27Z</time>
      </trkpt>
      <trkpt lat="50.691685080528259" lon="13.495544549077749">
        <ele>612</ele>
        <time>2026-08-29T06:57:28Z</time>
      </trkpt>
      <trkpt lat="50.691681392490864" lon="13.495531724765897">
        <ele>612</ele>
        <time>2026-08-29T06:57:29Z</time>
      </trkpt>
      <trkpt lat="50.691687930375338" lon="13.495519822463393">
        <ele>612</ele>
        <time>2026-08-29T06:57:30Z</time>
      </trkpt>
      <trkpt lat="50.691683068871498" lon="13.495507081970572">
        <ele>612</ele>
        <time>2026-08-29T06:57:31Z</time>
      </trkpt>
      <trkpt lat="50.691676866263151" lon="13.495496017858386">
        <ele>612</ele>
        <time>2026-08-29T06:57:32Z</time>
      </trkpt>
      <trkpt lat="50.69166605360806" lon="13.49548252299428">
        <ele>612</ele>
        <time>2026-08-29T06:57:33Z</time>
      </trkpt>
      <trkpt lat="50.691658509895205" lon="13.49546542391181">
        <ele>612</ele>
        <time>2026-08-29T06:57:34Z</time>
      </trkpt>
      <trkpt lat="50.691656414419413" lon="13.495447905734181">
        <ele>612</ele>
        <time>2026-08-29T06:57:35Z</time>
      </trkpt>
      <trkpt lat="50.691655157133937" lon="13.495426196604967">
        <ele>611</ele>
        <time>2026-08-29T06:57:36Z</time>
      </trkpt>
      <trkpt lat="50.691651552915573" lon="13.495408175513148">
        <ele>611</ele>
        <time>2026-08-29T06:57:37Z</time>
      </trkpt>
      <trkpt lat="50.6916484516114" lon="13.495394010096788">
        <ele>611</ele>
        <time>2026-08-29T06:57:38Z</time>
      </trkpt>
      <trkpt lat="50.691644428297877" lon="13.495385209098458">
        <ele>611</ele>
        <time>2026-08-29T06:57:39Z</time>
      </trkpt>
      <trkpt lat="50.691642165184021" lon="13.495371714234352">
        <ele>611</ele>
        <time>2026-08-29T06:57:40Z</time>
      </trkpt>
      <trkpt lat="50.691637555137277" lon="13.495363835245371">
        <ele>611</ele>
        <time>2026-08-29T06:57:41Z</time>
      </trkpt>
      <trkpt lat="50.691634453833103" lon="13.495352687314153">
        <ele>612</ele>
        <time>2026-08-29T06:57:42Z</time>
      </trkpt>
      <trkpt lat="50.691630262881517" lon="13.495340868830681">
        <ele>611</ele>
        <time>2026-08-29T06:57:43Z</time>
      </trkpt>
      <trkpt lat="50.691623473539948" lon="13.495335672050714">
        <ele>611</ele>
        <time>2026-08-29T06:57:44Z</time>
      </trkpt>
      <trkpt lat="50.691623389720917" lon="13.49531882442534">
        <ele>611</ele>
        <time>2026-08-29T06:57:45Z</time>
      </trkpt>
      <trkpt lat="50.691622132435441" lon="13.495309185236692">
        <ele>611</ele>
        <time>2026-08-29T06:57:46Z</time>
      </trkpt>
      <trkpt lat="50.691613750532269" lon="13.495312873274088">
        <ele>611</ele>
        <time>2026-08-29T06:57:47Z</time>
      </trkpt>
      <trkpt lat="50.691604195162654" lon="13.495307844132185">
        <ele>611</ele>
        <time>2026-08-29T06:57:48Z</time>
      </trkpt>
      <trkpt lat="50.691596735268831" lon="13.495311951264739">
        <ele>611</ele>
        <time>2026-08-29T06:57:49Z</time>
      </trkpt>
      <trkpt lat="50.691590448841453" lon="13.495311196893454">
        <ele>611</ele>
        <time>2026-08-29T06:57:50Z</time>
      </trkpt>
      <trkpt lat="50.691582318395376" lon="13.495299378409982">
        <ele>611</ele>
        <time>2026-08-29T06:57:51Z</time>
      </trkpt>
      <trkpt lat="50.691571841016412" lon="13.495303736999631">
        <ele>610</ele>
        <time>2026-08-29T06:57:52Z</time>
      </trkpt>
      <trkpt lat="50.691566979512572" lon="13.495323602110147">
        <ele>611</ele>
        <time>2026-08-29T06:57:53Z</time>
      </trkpt>
      <trkpt lat="50.691572427749634" lon="13.495348915457726">
        <ele>611</ele>
        <time>2026-08-29T06:57:54Z</time>
      </trkpt>
      <trkpt lat="50.691586509346962" lon="13.495358806103468">
        <ele>611</ele>
        <time>2026-08-29T06:57:55Z</time>
      </trkpt>
      <trkpt lat="50.691596148535609" lon="13.495367607101798">
        <ele>611</ele>
        <time>2026-08-29T06:57:56Z</time>
      </trkpt>
      <trkpt lat="50.691608218476176" lon="13.495379593223333">
        <ele>611</ele>
        <time>2026-08-29T06:57:57Z</time>
      </trkpt>
      <trkpt lat="50.69161961786449" lon="13.495395267382264">
        <ele>611</ele>
        <time>2026-08-29T06:57:58Z</time>
      </trkpt>
      <trkpt lat="50.691630346700549" lon="13.495399793609977">
        <ele>611</ele>
        <time>2026-08-29T06:57:59Z</time>
      </trkpt>
      <trkpt lat="50.691636465489864" lon="13.495410941541195">
        <ele>611</ele>
        <time>2026-08-29T06:58:00Z</time>
      </trkpt>
      <trkpt lat="50.691640069708228" lon="13.49542829208076">
        <ele>612</ele>
        <time>2026-08-29T06:58:01Z</time>
      </trkpt>
      <trkpt lat="50.691645685583353" lon="13.495448241010308">
        <ele>612</ele>
        <time>2026-08-29T06:58:02Z</time>
      </trkpt>
      <trkpt lat="50.69165138527751" lon="13.495469698682427">
        <ele>612</ele>
        <time>2026-08-29T06:58:03Z</time>
      </trkpt>
      <trkpt lat="50.691654989495873" lon="13.495494090020657">
        <ele>612</ele>
        <time>2026-08-29T06:58:04Z</time>
      </trkpt>
      <trkpt lat="50.691657168790698" lon="13.49551722407341">
        <ele>612</ele>
        <time>2026-08-29T06:58:05Z</time>
      </trkpt>
      <trkpt lat="50.69165825843811" lon="13.495536167174578">
        <ele>612</ele>
        <time>2026-08-29T06:58:06Z</time>
      </trkpt>
      <trkpt lat="50.69166555069387" lon="13.495560809969902">
        <ele>612</ele>
        <time>2026-08-29T06:58:07Z</time>
      </trkpt>
      <trkpt lat="50.691671082749963" lon="13.495583441108465">
        <ele>612</ele>
        <time>2026-08-29T06:58:08Z</time>
      </trkpt>
      <trkpt lat="50.691678794100881" lon="13.495601126924157">
        <ele>612</ele>
        <time>2026-08-29T06:58:09Z</time>
      </trkpt>
      <trkpt lat="50.691688600927591" lon="13.495618645101786">
        <ele>612</ele>
        <time>2026-08-29T06:58:10Z</time>
      </trkpt>
      <trkpt lat="50.691696731373668" lon="13.495635073632002">
        <ele>612</ele>
        <time>2026-08-29T06:58:11Z</time>
      </trkpt>
      <trkpt lat="50.691702263429761" lon="13.495659297332168">
        <ele>611</ele>
        <time>2026-08-29T06:58:12Z</time>
      </trkpt>
      <trkpt lat="50.691712573170662" lon="13.495679330080748">
        <ele>611</ele>
        <time>2026-08-29T06:58:13Z</time>
      </trkpt>
      <trkpt lat="50.691724475473166" lon="13.495698943734169">
        <ele>611</ele>
        <time>2026-08-29T06:58:14Z</time>
      </trkpt>
      <trkpt lat="50.691738640889525" lon="13.495723837986588">
        <ele>611</ele>
        <time>2026-08-29T06:58:15Z</time>
      </trkpt>
      <trkpt lat="50.691748699173331" lon="13.495758790522814">
        <ele>611</ele>
        <time>2026-08-29T06:58:16Z</time>
      </trkpt>
      <trkpt lat="50.69176378659904" lon="13.495792234316468">
        <ele>611</ele>
        <time>2026-08-29T06:58:17Z</time>
      </trkpt>
      <trkpt lat="50.691773258149624" lon="13.495830791071057">
        <ele>611</ele>
        <time>2026-08-29T06:58:18Z</time>
      </trkpt>
      <trkpt lat="50.691790608689189" lon="13.495857696980238">
        <ele>612</ele>
        <time>2026-08-29T06:58:19Z</time>
      </trkpt>
      <trkpt lat="50.691810306161642" lon="13.495869934558868">
        <ele>611</ele>
        <time>2026-08-29T06:58:20Z</time>
      </trkpt>
      <trkpt lat="50.691819945350289" lon="13.495846884325147">
        <ele>611</ele>
        <time>2026-08-29T06:58:21Z</time>
      </trkpt>
      <trkpt lat="50.691822292283177" lon="13.495813943445683">
        <ele>611</ele>
        <time>2026-08-29T06:58:22Z</time>
      </trkpt>
      <trkpt lat="50.691817011684179" lon="13.49579181522131">
        <ele>611</ele>
        <time>2026-08-29T06:58:23Z</time>
      </trkpt>
      <trkpt lat="50.691801337525249" lon="13.495766501873732">
        <ele>611</ele>
        <time>2026-08-29T06:58:24Z</time>
      </trkpt>
      <trkpt lat="50.691785411909223" lon="13.49573565647006">
        <ele>611</ele>
        <time>2026-08-29T06:58:25Z</time>
      </trkpt>
      <trkpt lat="50.691767306998372" lon="13.495703050866723">
        <ele>610</ele>
        <time>2026-08-29T06:58:26Z</time>
      </trkpt>
      <trkpt lat="50.691754398867488" lon="13.495674636214972">
        <ele>610</ele>
        <time>2026-08-29T06:58:27Z</time>
      </trkpt>
      <trkpt lat="50.691739479079843" lon="13.495629038661718">
        <ele>610</ele>
        <time>2026-08-29T06:58:28Z</time>
      </trkpt>
      <trkpt lat="50.691718859598041" lon="13.495575394481421">
        <ele>610</ele>
        <time>2026-08-29T06:58:29Z</time>
      </trkpt>
      <trkpt lat="50.691696899011731" lon="13.495529964566231">
        <ele>611</ele>
        <time>2026-08-29T06:58:30Z</time>
      </trkpt>
      <trkpt lat="50.691678542643785" lon="13.495475901290774">
        <ele>611</ele>
        <time>2026-08-29T06:58:31Z</time>
      </trkpt>
      <trkpt lat="50.691657671704888" lon="13.495421586558223">
        <ele>611</ele>
        <time>2026-08-29T06:58:32Z</time>
      </trkpt>
      <trkpt lat="50.691632442176342" lon="13.495365343987942">
        <ele>610</ele>
        <time>2026-08-29T06:58:33Z</time>
      </trkpt>
      <trkpt lat="50.691604698076844" lon="13.495300384238362">
        <ele>610</ele>
        <time>2026-08-29T06:58:34Z</time>
      </trkpt>
      <trkpt lat="50.691572679206729" lon="13.495228970423341">
        <ele>610</ele>
        <time>2026-08-29T06:58:35Z</time>
      </trkpt>
      <trkpt lat="50.691545102745295" lon="13.495156802237034">
        <ele>611</ele>
        <time>2026-08-29T06:58:36Z</time>
      </trkpt>
      <trkpt lat="50.691517777740955" lon="13.495084382593632">
        <ele>610</ele>
        <time>2026-08-29T06:58:37Z</time>
      </trkpt>
      <trkpt lat="50.691487602889538" lon="13.495008274912834">
        <ele>610</ele>
        <time>2026-08-29T06:58:38Z</time>
      </trkpt>
      <trkpt lat="50.691454159095883" lon="13.494928982108831">
        <ele>611</ele>
        <time>2026-08-29T06:58:39Z</time>
      </trkpt>
      <trkpt lat="50.691425744444132" lon="13.494846588000655">
        <ele>611</ele>
        <time>2026-08-29T06:58:40Z</time>
      </trkpt>
      <trkpt lat="50.691394479945302" lon="13.494764277711511">
        <ele>611</ele>
        <time>2026-08-29T06:58:41Z</time>
      </trkpt>
      <trkpt lat="50.69136313162744" lon="13.494683727622032">
        <ele>611</ele>
        <time>2026-08-29T06:58:42Z</time>
      </trkpt>
      <trkpt lat="50.691330023109913" lon="13.494605608284473">
        <ele>611</ele>
        <time>2026-08-29T06:58:43Z</time>
      </trkpt>
      <trkpt lat="50.691300518810749" lon="13.494525058194995">
        <ele>611</ele>
        <time>2026-08-29T06:58:44Z</time>
      </trkpt>
      <trkpt lat="50.691270176321268" lon="13.494445765390992">
        <ele>611</ele>
        <time>2026-08-29T06:58:45Z</time>
      </trkpt>
      <trkpt lat="50.691238241270185" lon="13.494364712387323">
        <ele>611</ele>
        <time>2026-08-29T06:58:46Z</time>
      </trkpt>
      <trkpt lat="50.691205551847816" lon="13.494289442896843">
        <ele>610</ele>
        <time>2026-08-29T06:58:47Z</time>
      </trkpt>
      <trkpt lat="50.691174203529954" lon="13.49421308375895">
        <ele>610</ele>
        <time>2026-08-29T06:58:48Z</time>
      </trkpt>
      <trkpt lat="50.691143861040473" lon="13.494128594174981">
        <ele>610</ele>
        <time>2026-08-29T06:58:49Z</time>
      </trkpt>
      <trkpt lat="50.691113602370024" lon="13.494048714637756">
        <ele>609</ele>
        <time>2026-08-29T06:58:50Z</time>
      </trkpt>
      <trkpt lat="50.691079739481211" lon="13.493960034102201">
        <ele>609</ele>
        <time>2026-08-29T06:58:51Z</time>
      </trkpt>
      <trkpt lat="50.691044619306922" lon="13.493868503719568">
        <ele>609</ele>
        <time>2026-08-29T06:58:52Z</time>
      </trkpt>
      <trkpt lat="50.69101276807487" lon="13.493788288906217">
        <ele>608</ele>
        <time>2026-08-29T06:58:53Z</time>
      </trkpt>
      <trkpt lat="50.690979156643152" lon="13.493711175397038">
        <ele>608</ele>
        <time>2026-08-29T06:58:54Z</time>
      </trkpt>
      <trkpt lat="50.690950071439147" lon="13.493627104908228">
        <ele>608</ele>
        <time>2026-08-29T06:58:55Z</time>
      </trkpt>
      <trkpt lat="50.69092576391995" lon="13.49354999139905">
        <ele>608</ele>
        <time>2026-08-29T06:58:56Z</time>
      </trkpt>
      <trkpt lat="50.690892990678549" lon="13.493477320298553">
        <ele>608</ele>
        <time>2026-08-29T06:58:57Z</time>
      </trkpt>
      <trkpt lat="50.69086130708456" lon="13.493397692218423">
        <ele>608</ele>
        <time>2026-08-29T06:58:58Z</time>
      </trkpt>
      <trkpt lat="50.690830210223794" lon="13.493322255089879">
        <ele>608</ele>
        <time>2026-08-29T06:58:59Z</time>
      </trkpt>
      <trkpt lat="50.690798526629806" lon="13.493245560675859">
        <ele>608</ele>
        <time>2026-08-29T06:59:00Z</time>
      </trkpt>
      <trkpt lat="50.690768267959356" lon="13.493171716108918">
        <ele>607</ele>
        <time>2026-08-29T06:59:01Z</time>
      </trkpt>
      <trkpt lat="50.690738512203097" lon="13.493098290637136">
        <ele>607</ele>
        <time>2026-08-29T06:59:02Z</time>
      </trkpt>
      <trkpt lat="50.690707666799426" lon="13.49301790818572">
        <ele>607</ele>
        <time>2026-08-29T06:59:03Z</time>
      </trkpt>
      <trkpt lat="50.690678497776389" lon="13.492937693372369">
        <ele>607</ele>
        <time>2026-08-29T06:59:04Z</time>
      </trkpt>
      <trkpt lat="50.690649077296257" lon="13.492859154939651">
        <ele>606</ele>
        <time>2026-08-29T06:59:05Z</time>
      </trkpt>
      <trkpt lat="50.690620578825474" lon="13.49277407862246">
        <ele>606</ele>
        <time>2026-08-29T06:59:06Z</time>
      </trkpt>
      <trkpt lat="50.690593589097261" lon="13.492695121094584">
        <ele>606</ele>
        <time>2026-08-29T06:59:07Z</time>
      </trkpt>
      <trkpt lat="50.690564336255193" lon="13.492620186880231">
        <ele>606</ele>
        <time>2026-08-29T06:59:08Z</time>
      </trkpt>
      <trkpt lat="50.690535753965378" lon="13.492545839399099">
        <ele>606</ele>
        <time>2026-08-29T06:59:09Z</time>
      </trkpt>
      <trkpt lat="50.690512116998434" lon="13.49246134981513">
        <ele>605</ele>
        <time>2026-08-29T06:59:10Z</time>
      </trkpt>
      <trkpt lat="50.690493090078235" lon="13.49238021299243">
        <ele>605</ele>
        <time>2026-08-29T06:59:11Z</time>
      </trkpt>
      <trkpt lat="50.690474566072226" lon="13.492299495264888">
        <ele>605</ele>
        <time>2026-08-29T06:59:12Z</time>
      </trkpt>
      <trkpt lat="50.690460819751024" lon="13.492205450311303">
        <ele>604</ele>
        <time>2026-08-29T06:59:13Z</time>
      </trkpt>
      <trkpt lat="50.690446402877569" lon="13.49211735650897">
        <ele>604</ele>
        <time>2026-08-29T06:59:14Z</time>
      </trkpt>
      <trkpt lat="50.690443720668554" lon="13.492020461708307">
        <ele>604</ele>
        <time>2026-08-29T06:59:15Z</time>
      </trkpt>
      <trkpt lat="50.690436763688922" lon="13.491921471431851">
        <ele>604</ele>
        <time>2026-08-29T06:59:16Z</time>
      </trkpt>
      <trkpt lat="50.690442128106952" lon="13.491823989897966">
        <ele>603</ele>
        <time>2026-08-29T06:59:17Z</time>
      </trkpt>
      <trkpt lat="50.690450090914965" lon="13.491722820326686">
        <ele>603</ele>
        <time>2026-08-29T06:59:18Z</time>
      </trkpt>
      <trkpt lat="50.69046257995069" lon="13.491624416783452">
        <ele>603</ele>
        <time>2026-08-29T06:59:19Z</time>
      </trkpt>
      <trkpt lat="50.690476158633828" lon="13.491517463698983">
        <ele>602</ele>
        <time>2026-08-29T06:59:20Z</time>
      </trkpt>
      <trkpt lat="50.690498370677233" lon="13.491412019357085">
        <ele>602</ele>
        <time>2026-08-29T06:59:21Z</time>
      </trkpt>
      <trkpt lat="50.690520331263542" lon="13.491311436519027">
        <ele>602</ele>
        <time>2026-08-29T06:59:22Z</time>
      </trkpt>
      <trkpt lat="50.690557295456529" lon="13.49122024141252">
        <ele>601</ele>
        <time>2026-08-29T06:59:23Z</time>
      </trkpt>
      <trkpt lat="50.690595768392086" lon="13.491133991628885">
        <ele>601</ele>
        <time>2026-08-29T06:59:24Z</time>
      </trkpt>
      <trkpt lat="50.690634408965707" lon="13.491048915311694">
        <ele>601</ele>
        <time>2026-08-29T06:59:25Z</time>
      </trkpt>
      <trkpt lat="50.690674809738994" lon="13.490974232554436">
        <ele>601</ele>
        <time>2026-08-29T06:59:26Z</time>
      </trkpt>
      <trkpt lat="50.690718898549676" lon="13.49089527502656">
        <ele>601</ele>
        <time>2026-08-29T06:59:27Z</time>
      </trkpt>
      <trkpt lat="50.690762819722295" lon="13.490827716886997">
        <ele>601</ele>
        <time>2026-08-29T06:59:28Z</time>
      </trkpt>
      <trkpt lat="50.690805902704597" lon="13.490750016644597">
        <ele>601</ele>
        <time>2026-08-29T06:59:29Z</time>
      </trkpt>
      <trkpt lat="50.690849320963025" lon="13.490681787952781">
        <ele>600</ele>
        <time>2026-08-29T06:59:30Z</time>
      </trkpt>
      <trkpt lat="50.690888799726963" lon="13.490614900365472">
        <ele>601</ele>
        <time>2026-08-29T06:59:31Z</time>
      </trkpt>
      <trkpt lat="50.69092676974833" lon="13.49054885096848">
        <ele>601</ele>
        <time>2026-08-29T06:59:32Z</time>
      </trkpt>
      <trkpt lat="50.690964069217443" lon="13.49048824980855">
        <ele>601</ele>
        <time>2026-08-29T06:59:33Z</time>
      </trkpt>
      <trkpt lat="50.690998770296574" lon="13.490438712760806">
        <ele>600</ele>
        <time>2026-08-29T06:59:34Z</time>
      </trkpt>
      <trkpt lat="50.691032381728292" lon="13.490389427170157">
        <ele>600</ele>
        <time>2026-08-29T06:59:35Z</time>
      </trkpt>
      <trkpt lat="50.691059455275536" lon="13.490344835445285">
        <ele>601</ele>
        <time>2026-08-29T06:59:36Z</time>
      </trkpt>
      <trkpt lat="50.691094743087888" lon="13.490285743027925">
        <ele>601</ele>
        <time>2026-08-29T06:59:37Z</time>
      </trkpt>
      <trkpt lat="50.691119469702244" lon="13.490232937037945">
        <ele>600</ele>
        <time>2026-08-29T06:59:38Z</time>
      </trkpt>
      <trkpt lat="50.691147046163678" lon="13.490187507122755">
        <ele>600</ele>
        <time>2026-08-29T06:59:39Z</time>
      </trkpt>
      <trkpt lat="50.691177053377032" lon="13.490137802436948">
        <ele>601</ele>
        <time>2026-08-29T06:59:40Z</time>
      </trkpt>
      <trkpt lat="50.69120672531426" lon="13.490098575130105">
        <ele>601</ele>
        <time>2026-08-29T06:59:41Z</time>
      </trkpt>
      <trkpt lat="50.691238157451153" lon="13.490054570138454">
        <ele>600</ele>
        <time>2026-08-29T06:59:42Z</time>
      </trkpt>
      <trkpt lat="50.691261291503906" lon="13.490009559318423">
        <ele>601</ele>
        <time>2026-08-29T06:59:43Z</time>
      </trkpt>
      <trkpt lat="50.691284090280533" lon="13.489961195737123">
        <ele>600</ele>
        <time>2026-08-29T06:59:44Z</time>
      </trkpt>
      <trkpt lat="50.691315019503236" lon="13.489915346726775">
        <ele>600</ele>
        <time>2026-08-29T06:59:45Z</time>
      </trkpt>
      <trkpt lat="50.69134309887886" lon="13.489876370877028">
        <ele>601</ele>
        <time>2026-08-29T06:59:46Z</time>
      </trkpt>
      <trkpt lat="50.691372770816088" lon="13.489827504381537">
        <ele>601</ele>
        <time>2026-08-29T06:59:47Z</time>
      </trkpt>
      <trkpt lat="50.691403532400727" lon="13.489785259589553">
        <ele>601</ele>
        <time>2026-08-29T06:59:48Z</time>
      </trkpt>
      <trkpt lat="50.691427085548639" lon="13.48974603228271">
        <ele>601</ele>
        <time>2026-08-29T06:59:49Z</time>
      </trkpt>
      <trkpt lat="50.69145105779171" lon="13.489704038947821">
        <ele>601</ele>
        <time>2026-08-29T06:59:50Z</time>
      </trkpt>
      <trkpt lat="50.691476790234447" lon="13.489665230736136">
        <ele>601</ele>
        <time>2026-08-29T06:59:51Z</time>
      </trkpt>
      <trkpt lat="50.691499337553978" lon="13.489625919610262">
        <ele>601</ele>
        <time>2026-08-29T06:59:52Z</time>
      </trkpt>
      <trkpt lat="50.691523812711239" lon="13.489586776122451">
        <ele>601</ele>
        <time>2026-08-29T06:59:53Z</time>
      </trkpt>
      <trkpt lat="50.691548539325595" lon="13.489546542987227">
        <ele>601</ele>
        <time>2026-08-29T06:59:54Z</time>
      </trkpt>
      <trkpt lat="50.691574439406395" lon="13.489506812766194">
        <ele>601</ele>
        <time>2026-08-29T06:59:55Z</time>
      </trkpt>
      <trkpt lat="50.691599249839783" lon="13.489468675106764">
        <ele>601</ele>
        <time>2026-08-29T06:59:56Z</time>
      </trkpt>
      <trkpt lat="50.69162649102509" lon="13.489434057846665">
        <ele>600</ele>
        <time>2026-08-29T06:59:57Z</time>
      </trkpt>
      <trkpt lat="50.691645601764321" lon="13.489388879388571">
        <ele>600</ele>
        <time>2026-08-29T06:59:58Z</time>
      </trkpt>
      <trkpt lat="50.691664796322584" lon="13.489334229379892">
        <ele>601</ele>
        <time>2026-08-29T06:59:59Z</time>
      </trkpt>
      <trkpt lat="50.691683907061815" lon="13.489287625998259">
        <ele>601</ele>
        <time>2026-08-29T07:00:00Z</time>
      </trkpt>
      <trkpt lat="50.691703604534268" lon="13.489239346235991">
        <ele>600</ele>
        <time>2026-08-29T07:00:01Z</time>
      </trkpt>
      <trkpt lat="50.691728163510561" lon="13.489196347072721">
        <ele>599</ele>
        <time>2026-08-29T07:00:02Z</time>
      </trkpt>
      <trkpt lat="50.691747441887856" lon="13.489154437556863">
        <ele>599</ele>
        <time>2026-08-29T07:00:03Z</time>
      </trkpt>
      <trkpt lat="50.691765379160643" lon="13.489107079803944">
        <ele>600</ele>
        <time>2026-08-29T07:00:04Z</time>
      </trkpt>
      <trkpt lat="50.691781807690859" lon="13.489060057327151">
        <ele>600</ele>
        <time>2026-08-29T07:00:05Z</time>
      </trkpt>
      <trkpt lat="50.691794380545616" lon="13.48901211284101">
        <ele>600</ele>
        <time>2026-08-29T07:00:06Z</time>
      </trkpt>
      <trkpt lat="50.691803433001041" lon="13.488961653783917">
        <ele>600</ele>
        <time>2026-08-29T07:00:07Z</time>
      </trkpt>
      <trkpt lat="50.691812401637435" lon="13.488907422870398">
        <ele>600</ele>
        <time>2026-08-29T07:00:08Z</time>
      </trkpt>
      <trkpt lat="50.691819274798036" lon="13.488852353766561">
        <ele>599</ele>
        <time>2026-08-29T07:00:09Z</time>
      </trkpt>
      <trkpt lat="50.691821118816733" lon="13.488801224157214">
        <ele>599</ele>
        <time>2026-08-29T07:00:10Z</time>
      </trkpt>
      <trkpt lat="50.691819610074162" lon="13.488746909424663">
        <ele>599</ele>
        <time>2026-08-29T07:00:11Z</time>
      </trkpt>
      <trkpt lat="50.691817430779338" lon="13.488694606348872">
        <ele>599</ele>
        <time>2026-08-29T07:00:12Z</time>
      </trkpt>
      <trkpt lat="50.691819861531258" lon="13.48863878287375">
        <ele>599</ele>
        <time>2026-08-29T07:00:13Z</time>
      </trkpt>
      <trkpt lat="50.691818771883845" lon="13.488586731255054">
        <ele>599</ele>
        <time>2026-08-29T07:00:14Z</time>
      </trkpt>
      <trkpt lat="50.691816005855799" lon="13.488536942750216">
        <ele>599</ele>
        <time>2026-08-29T07:00:15Z</time>
      </trkpt>
      <trkpt lat="50.691806534305215" lon="13.488491177558899">
        <ele>598</ele>
        <time>2026-08-29T07:00:16Z</time>
      </trkpt>
      <trkpt lat="50.691796727478504" lon="13.488459661602974">
        <ele>598</ele>
        <time>2026-08-29T07:00:17Z</time>
      </trkpt>
      <trkpt lat="50.691791698336601" lon="13.488451782613993">
        <ele>598</ele>
        <time>2026-08-29T07:00:18Z</time>
      </trkpt>
      <trkpt lat="50.691790608689189" lon="13.488453039899468">
        <ele>599</ele>
        <time>2026-08-29T07:00:19Z</time>
      </trkpt>
      <trkpt lat="50.691791111603379" lon="13.488453542813659">
        <ele>599</ele>
        <time>2026-08-29T07:00:20Z</time>
      </trkpt>
      <trkpt lat="50.691791363060474" lon="13.488452788442373">
        <ele>599</ele>
        <time>2026-08-29T07:00:21Z</time>
      </trkpt>
      <trkpt lat="50.69179555401206" lon="13.488451698794961">
        <ele>599</ele>
        <time>2026-08-29T07:00:22Z</time>
      </trkpt>
      <trkpt lat="50.69179555401206" lon="13.488451195880771">
        <ele>599</ele>
        <time>2026-08-29T07:00:23Z</time>
      </trkpt>
      <trkpt lat="50.691797565668821" lon="13.488455219194293">
        <ele>599</ele>
        <time>2026-08-29T07:00:24Z</time>
      </trkpt>
      <trkpt lat="50.69179899059236" lon="13.488447507843375">
        <ele>599</ele>
        <time>2026-08-29T07:00:25Z</time>
      </trkpt>
      <trkpt lat="50.691796559840441" lon="13.488442059606314">
        <ele>599</ele>
        <time>2026-08-29T07:00:26Z</time>
      </trkpt>
      <trkpt lat="50.69179605692625" lon="13.488441975787282">
        <ele>598</ele>
        <time>2026-08-29T07:00:27Z</time>
      </trkpt>
      <trkpt lat="50.691793542355299" lon="13.488444993272424">
        <ele>599</ele>
        <time>2026-08-29T07:00:28Z</time>
      </trkpt>
      <trkpt lat="50.691793626174331" lon="13.488445160910487">
        <ele>599</ele>
        <time>2026-08-29T07:00:29Z</time>
      </trkpt>
      <trkpt lat="50.691793542355299" lon="13.488445328548551">
        <ele>599</ele>
        <time>2026-08-29T07:00:30Z</time>
      </trkpt>
      <trkpt lat="50.691793458536267" lon="13.488445496186614">
        <ele>598</ele>
        <time>2026-08-29T07:00:31Z</time>
      </trkpt>
      <trkpt lat="50.691792201250792" lon="13.488439042121172">
        <ele>598</ele>
        <time>2026-08-29T07:00:32Z</time>
      </trkpt>
      <trkpt lat="50.691793290898204" lon="13.488442311063409">
        <ele>598</ele>
        <time>2026-08-29T07:00:33Z</time>
      </trkpt>
      <trkpt lat="50.691793290898204" lon="13.488445496186614">
        <ele>597</ele>
        <time>2026-08-29T07:00:34Z</time>
      </trkpt>
      <trkpt lat="50.691793039441109" lon="13.488443316891789">
        <ele>597</ele>
        <time>2026-08-29T07:00:35Z</time>
      </trkpt>
      <trkpt lat="50.691795889288187" lon="13.48844775930047">
        <ele>597</ele>
        <time>2026-08-29T07:00:36Z</time>
      </trkpt>
      <trkpt lat="50.691797733306885" lon="13.488453375175595">
        <ele>597</ele>
        <time>2026-08-29T07:00:37Z</time>
      </trkpt>
      <trkpt lat="50.691798152402043" lon="13.488460164517164">
        <ele>597</ele>
        <time>2026-08-29T07:00:38Z</time>
      </trkpt>
      <trkpt lat="50.691797565668821" lon="13.488467708230019">
        <ele>597</ele>
        <time>2026-08-29T07:00:39Z</time>
      </trkpt>
      <trkpt lat="50.69179748184979" lon="13.488467959687114">
        <ele>597</ele>
        <time>2026-08-29T07:00:40Z</time>
      </trkpt>
      <trkpt lat="50.69179748184979" lon="13.488468211144209">
        <ele>597</ele>
        <time>2026-08-29T07:00:41Z</time>
      </trkpt>
      <trkpt lat="50.691797398030758" lon="13.488468546420336">
        <ele>597</ele>
        <time>2026-08-29T07:00:42Z</time>
      </trkpt>
      <trkpt lat="50.691797398030758" lon="13.488468797877431">
        <ele>597</ele>
        <time>2026-08-29T07:00:43Z</time>
      </trkpt>
      <trkpt lat="50.691797230392694" lon="13.488468965515494">
        <ele>597</ele>
        <time>2026-08-29T07:00:44Z</time>
      </trkpt>
      <trkpt lat="50.691797230392694" lon="13.488469300791621">
        <ele>597</ele>
        <time>2026-08-29T07:00:45Z</time>
      </trkpt>
      <trkpt lat="50.691798068583012" lon="13.488472988829017">
        <ele>597</ele>
        <time>2026-08-29T07:00:46Z</time>
      </trkpt>
      <trkpt lat="50.691798152402043" lon="13.488468127325177">
        <ele>597</ele>
        <time>2026-08-29T07:00:47Z</time>
      </trkpt>
      <trkpt lat="50.691800750792027" lon="13.488465445116162">
        <ele>597</ele>
        <time>2026-08-29T07:00:48Z</time>
      </trkpt>
      <trkpt lat="50.691808881238103" lon="13.488463936373591">
        <ele>597</ele>
        <time>2026-08-29T07:00:49Z</time>
      </trkpt>
      <trkpt lat="50.691818268969655" lon="13.488463014364243">
        <ele>597</ele>
        <time>2026-08-29T07:00:50Z</time>
      </trkpt>
      <trkpt lat="50.691830758005381" lon="13.488481622189283">
        <ele>597</ele>
        <time>2026-08-29T07:00:51Z</time>
      </trkpt>
      <trkpt lat="50.691843666136265" lon="13.488497380167246">
        <ele>597</ele>
        <time>2026-08-29T07:00:52Z</time>
      </trkpt>
      <trkpt lat="50.691853305324912" lon="13.488512886688113">
        <ele>598</ele>
        <time>2026-08-29T07:00:53Z</time>
      </trkpt>
      <trkpt lat="50.691858837381005" lon="13.488540714606643">
        <ele>598</ele>
        <time>2026-08-29T07:00:54Z</time>
      </trkpt>
      <trkpt lat="50.691857999190688" lon="13.488579355180264">
        <ele>598</ele>
        <time>2026-08-29T07:00:55Z</time>
      </trkpt>
      <trkpt lat="50.691862273961306" lon="13.48858404904604">
        <ele>598</ele>
        <time>2026-08-29T07:00:56Z</time>
      </trkpt>
      <trkpt lat="50.691863363608718" lon="13.488590335473418">
        <ele>599</ele>
        <time>2026-08-29T07:00:57Z</time>
      </trkpt>
      <trkpt lat="50.691863279789686" lon="13.48858991637826">
        <ele>599</ele>
        <time>2026-08-29T07:00:58Z</time>
      </trkpt>
      <trkpt lat="50.691863279789686" lon="13.48858991637826">
        <ele>599</ele>
        <time>2026-08-29T07:00:59Z</time>
      </trkpt>
      <trkpt lat="50.691863279789686" lon="13.488590000197291">
        <ele>599</ele>
        <time>2026-08-29T07:01:00Z</time>
      </trkpt>
      <trkpt lat="50.691858921200037" lon="13.488586312159896">
        <ele>598</ele>
        <time>2026-08-29T07:01:01Z</time>
      </trkpt>
      <trkpt lat="50.691859256476164" lon="13.488586898893118">
        <ele>598</ele>
        <time>2026-08-29T07:01:02Z</time>
      </trkpt>
      <trkpt lat="50.691859340295196" lon="13.488587234169245">
        <ele>598</ele>
        <time>2026-08-29T07:01:03Z</time>
      </trkpt>
      <trkpt lat="50.691859340295196" lon="13.488587150350213">
        <ele>598</ele>
        <time>2026-08-29T07:01:04Z</time>
      </trkpt>
      <trkpt lat="50.691859591752291" lon="13.488587569445372">
        <ele>598</ele>
        <time>2026-08-29T07:01:05Z</time>
      </trkpt>
      <trkpt lat="50.691859759390354" lon="13.488588156178594">
        <ele>598</ele>
        <time>2026-08-29T07:01:06Z</time>
      </trkpt>
      <trkpt lat="50.691859675571322" lon="13.488588239997625">
        <ele>598</ele>
        <time>2026-08-29T07:01:07Z</time>
      </trkpt>
      <trkpt lat="50.691859759390354" lon="13.488588407635689">
        <ele>598</ele>
        <time>2026-08-29T07:01:08Z</time>
      </trkpt>
      <trkpt lat="50.691859927028418" lon="13.488588742911816">
        <ele>598</ele>
        <time>2026-08-29T07:01:09Z</time>
      </trkpt>
      <trkpt lat="50.691860178485513" lon="13.488588742911816">
        <ele>598</ele>
        <time>2026-08-29T07:01:10Z</time>
      </trkpt>
      <trkpt lat="50.691860429942608" lon="13.488589497283101">
        <ele>598</ele>
        <time>2026-08-29T07:01:11Z</time>
      </trkpt>
      <trkpt lat="50.691860429942608" lon="13.488590084016323">
        <ele>598</ele>
        <time>2026-08-29T07:01:12Z</time>
      </trkpt>
      <trkpt lat="50.691860681399703" lon="13.488590670749545">
        <ele>598</ele>
        <time>2026-08-29T07:01:13Z</time>
      </trkpt>
      <trkpt lat="50.691861100494862" lon="13.48859092220664">
        <ele>598</ele>
        <time>2026-08-29T07:01:14Z</time>
      </trkpt>
      <trkpt lat="50.691861100494862" lon="13.488591089844704">
        <ele>598</ele>
        <time>2026-08-29T07:01:15Z</time>
      </trkpt>
      <trkpt lat="50.691861100494862" lon="13.488591257482767">
        <ele>598</ele>
        <time>2026-08-29T07:01:16Z</time>
      </trkpt>
      <trkpt lat="50.691861184313893" lon="13.488591089844704">
        <ele>598</ele>
        <time>2026-08-29T07:01:17Z</time>
      </trkpt>
      <trkpt lat="50.691869230940938" lon="13.488591760396957">
        <ele>596</ele>
        <time>2026-08-29T07:01:18Z</time>
      </trkpt>
      <trkpt lat="50.691869398579001" lon="13.488592011854053">
        <ele>596</ele>
        <time>2026-08-29T07:01:19Z</time>
      </trkpt>
      <trkpt lat="50.691866464912891" lon="13.488597292453051">
        <ele>597</ele>
        <time>2026-08-29T07:01:20Z</time>
      </trkpt>
      <trkpt lat="50.69186638109386" lon="13.488592263311148">
        <ele>596</ele>
        <time>2026-08-29T07:01:21Z</time>
      </trkpt>
      <trkpt lat="50.691863698884845" lon="13.488583294674754">
        <ele>597</ele>
        <time>2026-08-29T07:01:22Z</time>
      </trkpt>
      <trkpt lat="50.691861435770988" lon="13.488571727648377">
        <ele>598</ele>
        <time>2026-08-29T07:01:23Z</time>
      </trkpt>
      <trkpt lat="50.69186151959002" lon="13.488572398200631">
        <ele>598</ele>
        <time>2026-08-29T07:01:24Z</time>
      </trkpt>
      <trkpt lat="50.691861268132925" lon="13.488570554181933">
        <ele>598</ele>
        <time>2026-08-29T07:01:25Z</time>
      </trkpt>
      <trkpt lat="50.691870488226414" lon="13.488569129258394">
        <ele>598</ele>
        <time>2026-08-29T07:01:26Z</time>
      </trkpt>
      <trkpt lat="50.691875433549285" lon="13.488557310774922">
        <ele>598</ele>
        <time>2026-08-29T07:01:27Z</time>
      </trkpt>
      <trkpt lat="50.691877529025078" lon="13.488533003255725">
        <ele>598</ele>
        <time>2026-08-29T07:01:28Z</time>
      </trkpt>
      <trkpt lat="50.691880965605378" lon="13.488502074033022">
        <ele>598</ele>
        <time>2026-08-29T07:01:29Z</time>
      </trkpt>
      <trkpt lat="50.691879037767649" lon="13.488467121496797">
        <ele>597</ele>
        <time>2026-08-29T07:01:30Z</time>
      </trkpt>
      <trkpt lat="50.691865710541606" lon="13.488443735986948">
        <ele>598</ele>
        <time>2026-08-29T07:01:31Z</time>
      </trkpt>
      <trkpt lat="50.691855233162642" lon="13.488405682146549">
        <ele>597</ele>
        <time>2026-08-29T07:01:32Z</time>
      </trkpt>
      <trkpt lat="50.691841570660472" lon="13.488377099856734">
        <ele>597</ele>
        <time>2026-08-29T07:01:33Z</time>
      </trkpt>
      <trkpt lat="50.691824890673161" lon="13.48834709264338">
        <ele>596</ele>
        <time>2026-08-29T07:01:34Z</time>
      </trkpt>
      <trkpt lat="50.691804019734263" lon="13.488315911963582">
        <ele>596</ele>
        <time>2026-08-29T07:01:35Z</time>
      </trkpt>
      <trkpt lat="50.691783567890525" lon="13.48828598856926">
        <ele>596</ele>
        <time>2026-08-29T07:01:36Z</time>
      </trkpt>
      <trkpt lat="50.691766133531928" lon="13.488258579745889">
        <ele>596</ele>
        <time>2026-08-29T07:01:37Z</time>
      </trkpt>
      <trkpt lat="50.691751213744283" lon="13.488233266398311">
        <ele>597</ele>
        <time>2026-08-29T07:01:38Z</time>
      </trkpt>
      <trkpt lat="50.691737048327923" lon="13.48820392973721">
        <ele>596</ele>
        <time>2026-08-29T07:01:39Z</time>
      </trkpt>
      <trkpt lat="50.691720535978675" lon="13.48817559890449">
        <ele>596</ele>
        <time>2026-08-29T07:01:40Z</time>
      </trkpt>
      <trkpt lat="50.691702850162983" lon="13.488150620833039">
        <ele>596</ele>
        <time>2026-08-29T07:01:41Z</time>
      </trkpt>
      <trkpt lat="50.691684912890196" lon="13.488127570599318">
        <ele>597</ele>
        <time>2026-08-29T07:01:42Z</time>
      </trkpt>
      <trkpt lat="50.691667562350631" lon="13.488091360777617">
        <ele>597</ele>
        <time>2026-08-29T07:01:43Z</time>
      </trkpt>
      <trkpt lat="50.691649625077844" lon="13.488062610849738">
        <ele>597</ele>
        <time>2026-08-29T07:01:44Z</time>
      </trkpt>
      <trkpt lat="50.69162649102509" lon="13.488029921427369">
        <ele>597</ele>
        <time>2026-08-29T07:01:45Z</time>
      </trkpt>
      <trkpt lat="50.691609811037779" lon="13.487997315824032">
        <ele>597</ele>
        <time>2026-08-29T07:01:46Z</time>
      </trkpt>
      <trkpt lat="50.691599249839783" lon="13.487971164286137">
        <ele>598</ele>
        <time>2026-08-29T07:01:47Z</time>
      </trkpt>
      <trkpt lat="50.691583743318915" lon="13.487946102395654">
        <ele>598</ele>
        <time>2026-08-29T07:01:48Z</time>
      </trkpt>
      <trkpt lat="50.691567733883858" lon="13.487930931150913">
        <ele>598</ele>
        <time>2026-08-29T07:01:49Z</time>
      </trkpt>
      <trkpt lat="50.691544851288199" lon="13.487915340811014">
        <ele>598</ele>
        <time>2026-08-29T07:01:50Z</time>
      </trkpt>
      <trkpt lat="50.691521381959319" lon="13.487893296405673">
        <ele>598</ele>
        <time>2026-08-29T07:01:51Z</time>
      </trkpt>
      <trkpt lat="50.691498080268502" lon="13.487875610589981">
        <ele>599</ele>
        <time>2026-08-29T07:01:52Z</time>
      </trkpt>
      <trkpt lat="50.691473018378019" lon="13.487857505679131">
        <ele>599</ele>
        <time>2026-08-29T07:01:53Z</time>
      </trkpt>
      <trkpt lat="50.691449549049139" lon="13.487841412425041">
        <ele>599</ele>
        <time>2026-08-29T07:01:54Z</time>
      </trkpt>
      <trkpt lat="50.691419541835785" lon="13.487824313342571">
        <ele>599</ele>
        <time>2026-08-29T07:01:55Z</time>
      </trkpt>
      <trkpt lat="50.691390540450811" lon="13.48780763335526">
        <ele>599</ele>
        <time>2026-08-29T07:01:56Z</time>
      </trkpt>
      <trkpt lat="50.691358018666506" lon="13.487791121006012">
        <ele>599</ele>
        <time>2026-08-29T07:01:57Z</time>
      </trkpt>
      <trkpt lat="50.69132843054831" lon="13.487770585343242">
        <ele>599</ele>
        <time>2026-08-29T07:01:58Z</time>
      </trkpt>
      <trkpt lat="50.691300770267844" lon="13.487757844850421">
        <ele>600</ele>
        <time>2026-08-29T07:01:59Z</time>
      </trkpt>
      <trkpt lat="50.691269170492887" lon="13.487742841243744">
        <ele>600</ele>
        <time>2026-08-29T07:02:00Z</time>
      </trkpt>
      <trkpt lat="50.691235391423106" lon="13.487725658342242">
        <ele>600</ele>
        <time>2026-08-29T07:02:01Z</time>
      </trkpt>
      <trkpt lat="50.691205719485879" lon="13.487695064395666">
        <ele>600</ele>
        <time>2026-08-29T07:02:02Z</time>
      </trkpt>
      <trkpt lat="50.69116230122745" lon="13.4876674041152">
        <ele>600</ele>
        <time>2026-08-29T07:02:03Z</time>
      </trkpt>
      <trkpt lat="50.691119469702244" lon="13.487644186243415">
        <ele>601</ele>
        <time>2026-08-29T07:02:04Z</time>
      </trkpt>
      <trkpt lat="50.69107479415834" lon="13.487625829875469">
        <ele>601</ele>
        <time>2026-08-29T07:02:05Z</time>
      </trkpt>
      <trkpt lat="50.691040093079209" lon="13.487605126574636">
        <ele>601</ele>
        <time>2026-08-29T07:02:06Z</time>
      </trkpt>
      <trkpt lat="50.691008577123284" lon="13.48758484236896">
        <ele>602</ele>
        <time>2026-08-29T07:02:07Z</time>
      </trkpt>
      <trkpt lat="50.690971110016108" lon="13.487560953944921">
        <ele>602</ele>
        <time>2026-08-29T07:02:08Z</time>
      </trkpt>
      <trkpt lat="50.690935319289565" lon="13.487533628940582">
        <ele>602</ele>
        <time>2026-08-29T07:02:09Z</time>
      </trkpt>
      <trkpt lat="50.690904557704926" lon="13.487498508766294">
        <ele>602</ele>
        <time>2026-08-29T07:02:10Z</time>
      </trkpt>
      <trkpt lat="50.690863654017448" lon="13.487457521259785">
        <ele>602</ele>
        <time>2026-08-29T07:02:11Z</time>
      </trkpt>
      <trkpt lat="50.690833730623126" lon="13.487410079687834">
        <ele>602</ele>
        <time>2026-08-29T07:02:12Z</time>
      </trkpt>
      <trkpt lat="50.690803891047835" lon="13.487356184050441">
        <ele>601</ele>
        <time>2026-08-29T07:02:13Z</time>
      </trkpt>
      <trkpt lat="50.690773380920291" lon="13.487293235957623">
        <ele>601</ele>
        <time>2026-08-29T07:02:14Z</time>
      </trkpt>
      <trkpt lat="50.690745888277888" lon="13.487227018922567">
        <ele>601</ele>
        <time>2026-08-29T07:02:15Z</time>
      </trkpt>
      <trkpt lat="50.690720239654183" lon="13.487156024202704">
        <ele>601</ele>
        <time>2026-08-29T07:02:16Z</time>
      </trkpt>
      <trkpt lat="50.690698027610779" lon="13.487086119130254">
        <ele>601</ele>
        <time>2026-08-29T07:02:17Z</time>
      </trkpt>
      <trkpt lat="50.690672798082232" lon="13.487011101096869">
        <ele>601</ele>
        <time>2026-08-29T07:02:18Z</time>
      </trkpt>
      <trkpt lat="50.690649328753352" lon="13.486934490501881">
        <ele>600</ele>
        <time>2026-08-29T07:02:19Z</time>
      </trkpt>
      <trkpt lat="50.690623009577394" lon="13.486853772774339">
        <ele>600</ele>
        <time>2026-08-29T07:02:20Z</time>
      </trkpt>
      <trkpt lat="50.690604150295258" lon="13.486771797761321">
        <ele>600</ele>
        <time>2026-08-29T07:02:21Z</time>
      </trkpt>
      <trkpt lat="50.690582608804107" lon="13.486692169681191">
        <ele>600</ele>
        <time>2026-08-29T07:02:22Z</time>
      </trkpt>
      <trkpt lat="50.690563581883907" lon="13.486610613763332">
        <ele>599</ele>
        <time>2026-08-29T07:02:23Z</time>
      </trkpt>
      <trkpt lat="50.690544219687581" lon="13.486527968198061">
        <ele>599</ele>
        <time>2026-08-29T07:02:24Z</time>
      </trkpt>
      <trkpt lat="50.690525528043509" lon="13.486455548554659">
        <ele>599</ele>
        <time>2026-08-29T07:02:25Z</time>
      </trkpt>
      <trkpt lat="50.690502813085914" lon="13.486378854140639">
        <ele>599</ele>
        <time>2026-08-29T07:02:26Z</time>
      </trkpt>
      <trkpt lat="50.690480768680573" lon="13.486301572993398">
        <ele>599</ele>
        <time>2026-08-29T07:02:27Z</time>
      </trkpt>
      <trkpt lat="50.690456964075565" lon="13.486234517768025">
        <ele>599</ele>
        <time>2026-08-29T07:02:28Z</time>
      </trkpt>
      <trkpt lat="50.690446738153696" lon="13.486162517219782">
        <ele>598</ele>
        <time>2026-08-29T07:02:29Z</time>
      </trkpt>
      <trkpt lat="50.690431147813797" lon="13.486092444509268">
        <ele>598</ele>
        <time>2026-08-29T07:02:30Z</time>
      </trkpt>
      <trkpt lat="50.690413294360042" lon="13.48601633682847">
        <ele>598</ele>
        <time>2026-08-29T07:02:31Z</time>
      </trkpt>
      <trkpt lat="50.690397033467889" lon="13.485948946326971">
        <ele>598</ele>
        <time>2026-08-29T07:02:32Z</time>
      </trkpt>
      <trkpt lat="50.690384460613132" lon="13.48587753251195">
        <ele>597</ele>
        <time>2026-08-29T07:02:33Z</time>
      </trkpt>
      <trkpt lat="50.690372809767723" lon="13.485810058191419">
        <ele>597</ele>
        <time>2026-08-29T07:02:34Z</time>
      </trkpt>
      <trkpt lat="50.690354034304619" lon="13.485742164775729">
        <ele>597</ele>
        <time>2026-08-29T07:02:35Z</time>
      </trkpt>
      <trkpt lat="50.690336599946022" lon="13.485667482018471">
        <ele>597</ele>
        <time>2026-08-29T07:02:36Z</time>
      </trkpt>
      <trkpt lat="50.690316148102283" lon="13.485600426793098">
        <ele>597</ele>
        <time>2026-08-29T07:02:37Z</time>
      </trkpt>
      <trkpt lat="50.690298127010465" lon="13.485529432073236">
        <ele>597</ele>
        <time>2026-08-29T07:02:38Z</time>
      </trkpt>
      <trkpt lat="50.690279938280582" lon="13.485455671325326">
        <ele>597</ele>
        <time>2026-08-29T07:02:39Z</time>
      </trkpt>
      <trkpt lat="50.690258061513305" lon="13.48538844846189">
        <ele>597</ele>
        <time>2026-08-29T07:02:40Z</time>
      </trkpt>
      <trkpt lat="50.690238531678915" lon="13.485315274447203">
        <ele>597</ele>
        <time>2026-08-29T07:02:41Z</time>
      </trkpt>
      <trkpt lat="50.690216990187764" lon="13.485243944451213">
        <ele>597</ele>
        <time>2026-08-29T07:02:42Z</time>
      </trkpt>
      <trkpt lat="50.690196622163057" lon="13.485172195360065">
        <ele>597</ele>
        <time>2026-08-29T07:02:43Z</time>
      </trkpt>
      <trkpt lat="50.690168039873242" lon="13.485102877020836">
        <ele>596</ele>
        <time>2026-08-29T07:02:44Z</time>
      </trkpt>
      <trkpt lat="50.690137948840857" lon="13.485024841502309">
        <ele>596</ele>
        <time>2026-08-29T07:02:45Z</time>
      </trkpt>
      <trkpt lat="50.690108695998788" lon="13.484937502071261">
        <ele>596</ele>
        <time>2026-08-29T07:02:46Z</time>
      </trkpt>
      <trkpt lat="50.69007852114737" lon="13.484844882041216">
        <ele>596</ele>
        <time>2026-08-29T07:02:47Z</time>
      </trkpt>
      <trkpt lat="50.690052704885602" lon="13.48476248793304">
        <ele>596</ele>
        <time>2026-08-29T07:02:48Z</time>
      </trkpt>
      <trkpt lat="50.690028732642531" lon="13.484683949500322">
        <ele>596</ele>
        <time>2026-08-29T07:02:49Z</time>
      </trkpt>
      <trkpt lat="50.690005598589778" lon="13.484600130468607">
        <ele>597</ele>
        <time>2026-08-29T07:02:50Z</time>
      </trkpt>
      <trkpt lat="50.689987074583769" lon="13.484517401084304">
        <ele>597</ele>
        <time>2026-08-29T07:02:51Z</time>
      </trkpt>
      <trkpt lat="50.689970310777426" lon="13.484436431899667">
        <ele>596</ele>
        <time>2026-08-29T07:02:52Z</time>
      </trkpt>
      <trkpt lat="50.68995539098978" lon="13.484357306733727">
        <ele>596</ele>
        <time>2026-08-29T07:02:53Z</time>
      </trkpt>
      <trkpt lat="50.689944578334689" lon="13.484277008101344">
        <ele>596</ele>
        <time>2026-08-29T07:02:54Z</time>
      </trkpt>
      <trkpt lat="50.689933933317661" lon="13.484212383627892">
        <ele>596</ele>
        <time>2026-08-29T07:02:55Z</time>
      </trkpt>
      <trkpt lat="50.689924210309982" lon="13.484141305088997">
        <ele>596</ele>
        <time>2026-08-29T07:02:56Z</time>
      </trkpt>
      <trkpt lat="50.689913481473923" lon="13.484066370874643">
        <ele>596</ele>
        <time>2026-08-29T07:02:57Z</time>
      </trkpt>
      <trkpt lat="50.689912224188447" lon="13.483990430831909">
        <ele>596</ele>
        <time>2026-08-29T07:02:58Z</time>
      </trkpt>
      <trkpt lat="50.689910044893622" lon="13.483911221846938">
        <ele>596</ele>
        <time>2026-08-29T07:02:59Z</time>
      </trkpt>
      <trkpt lat="50.689901830628514" lon="13.48383167758584">
        <ele>596</ele>
        <time>2026-08-29T07:03:00Z</time>
      </trkpt>
      <trkpt lat="50.689892778173089" lon="13.48375691100955">
        <ele>596</ele>
        <time>2026-08-29T07:03:01Z</time>
      </trkpt>
      <trkpt lat="50.689887329936028" lon="13.483676612377167">
        <ele>596</ele>
        <time>2026-08-29T07:03:02Z</time>
      </trkpt>
      <trkpt lat="50.689880289137363" lon="13.483608216047287">
        <ele>596</ele>
        <time>2026-08-29T07:03:03Z</time>
      </trkpt>
      <trkpt lat="50.689874002709985" lon="13.48353604786098">
        <ele>596</ele>
        <time>2026-08-29T07:03:04Z</time>
      </trkpt>
      <trkpt lat="50.689860926941037" lon="13.483460694551468">
        <ele>596</ele>
        <time>2026-08-29T07:03:05Z</time>
      </trkpt>
      <trkpt lat="50.689851203933358" lon="13.483386933803558">
        <ele>597</ele>
        <time>2026-08-29T07:03:06Z</time>
      </trkpt>
      <trkpt lat="50.68984491750598" lon="13.483322896063328">
        <ele>597</ele>
        <time>2026-08-29T07:03:07Z</time>
      </trkpt>
      <trkpt lat="50.689843408763409" lon="13.483262127265334">
        <ele>597</ele>
        <time>2026-08-29T07:03:08Z</time>
      </trkpt>
      <trkpt lat="50.689839720726013" lon="13.483193395659328">
        <ele>598</ele>
        <time>2026-08-29T07:03:09Z</time>
      </trkpt>
      <trkpt lat="50.689835781231523" lon="13.483129860833287">
        <ele>598</ele>
        <time>2026-08-29T07:03:10Z</time>
      </trkpt>
      <trkpt lat="50.689834104850888" lon="13.483061548322439">
        <ele>597</ele>
        <time>2026-08-29T07:03:11Z</time>
      </trkpt>
      <trkpt lat="50.689835948869586" lon="13.48299759440124">
        <ele>597</ele>
        <time>2026-08-29T07:03:12Z</time>
      </trkpt>
      <trkpt lat="50.689840223640203" lon="13.482943279668689">
        <ele>598</ele>
        <time>2026-08-29T07:03:13Z</time>
      </trkpt>
      <trkpt lat="50.689842570573092" lon="13.482896508648992">
        <ele>598</ele>
        <time>2026-08-29T07:03:14Z</time>
      </trkpt>
      <trkpt lat="50.689836451783776" lon="13.482844037935138">
        <ele>599</ele>
        <time>2026-08-29T07:03:15Z</time>
      </trkpt>
      <trkpt lat="50.689833518117666" lon="13.482786202803254">
        <ele>599</ele>
        <time>2026-08-29T07:03:16Z</time>
      </trkpt>
      <trkpt lat="50.689833099022508" lon="13.482731720432639">
        <ele>599</ele>
        <time>2026-08-29T07:03:17Z</time>
      </trkpt>
      <trkpt lat="50.689834607765079" lon="13.482672208920121">
        <ele>599</ele>
        <time>2026-08-29T07:03:18Z</time>
      </trkpt>
      <trkpt lat="50.689832260832191" lon="13.482614709064364">
        <ele>599</ele>
        <time>2026-08-29T07:03:19Z</time>
      </trkpt>
      <trkpt lat="50.689836954697967" lon="13.482556203380227">
        <ele>599</ele>
        <time>2026-08-29T07:03:20Z</time>
      </trkpt>
      <trkpt lat="50.689836870878935" lon="13.482501804828644">
        <ele>599</ele>
        <time>2026-08-29T07:03:21Z</time>
      </trkpt>
      <trkpt lat="50.689839804545045" lon="13.482446232810616">
        <ele>599</ele>
        <time>2026-08-29T07:03:22Z</time>
      </trkpt>
      <trkpt lat="50.689841061830521" lon="13.482392840087414">
        <ele>599</ele>
        <time>2026-08-29T07:03:23Z</time>
      </trkpt>
      <trkpt lat="50.689844582229853" lon="13.48233793862164">
        <ele>599</ele>
        <time>2026-08-29T07:03:24Z</time>
      </trkpt>
      <trkpt lat="50.689847683534026" lon="13.482281444594264">
        <ele>599</ele>
        <time>2026-08-29T07:03:25Z</time>
      </trkpt>
      <trkpt lat="50.689847432076931" lon="13.482211707159877">
        <ele>600</ele>
        <time>2026-08-29T07:03:26Z</time>
      </trkpt>
      <trkpt lat="50.689848018810153" lon="13.482144400477409">
        <ele>600</ele>
        <time>2026-08-29T07:03:27Z</time>
      </trkpt>
      <trkpt lat="50.689843576401472" lon="13.482078015804291">
        <ele>599</ele>
        <time>2026-08-29T07:03:28Z</time>
      </trkpt>
      <trkpt lat="50.689840978011489" lon="13.482016073539853">
        <ele>599</ele>
        <time>2026-08-29T07:03:29Z</time>
      </trkpt>
      <trkpt lat="50.689839804545045" lon="13.481943989172578">
        <ele>599</ele>
        <time>2026-08-29T07:03:30Z</time>
      </trkpt>
      <trkpt lat="50.689838798716664" lon="13.481880035251379">
        <ele>599</ele>
        <time>2026-08-29T07:03:31Z</time>
      </trkpt>
      <trkpt lat="50.689827231690288" lon="13.481811974197626">
        <ele>599</ele>
        <time>2026-08-29T07:03:32Z</time>
      </trkpt>
      <trkpt lat="50.689819687977433" lon="13.481748774647713">
        <ele>599</ele>
        <time>2026-08-29T07:03:33Z</time>
      </trkpt>
      <trkpt lat="50.689808540046215" lon="13.481682976707816">
        <ele>599</ele>
        <time>2026-08-29T07:03:34Z</time>
      </trkpt>
      <trkpt lat="50.689794039353728" lon="13.481629500165582">
        <ele>599</ele>
        <time>2026-08-29T07:03:35Z</time>
      </trkpt>
      <trkpt lat="50.689773168414831" lon="13.481579376384616">
        <ele>599</ele>
        <time>2026-08-29T07:03:36Z</time>
      </trkpt>
      <trkpt lat="50.689751710742712" lon="13.48153118044138">
        <ele>600</ele>
        <time>2026-08-29T07:03:37Z</time>
      </trkpt>
      <trkpt lat="50.689727822318673" lon="13.481499413028359">
        <ele>600</ele>
        <time>2026-08-29T07:03:38Z</time>
      </trkpt>
      <trkpt lat="50.689702508971095" lon="13.481468567624688">
        <ele>600</ele>
        <time>2026-08-29T07:03:39Z</time>
      </trkpt>
      <trkpt lat="50.689674681052566" lon="13.481440320611">
        <ele>600</ele>
        <time>2026-08-29T07:03:40Z</time>
      </trkpt>
      <trkpt lat="50.689647858962417" lon="13.481417438015342">
        <ele>600</ele>
        <time>2026-08-29T07:03:41Z</time>
      </trkpt>
      <trkpt lat="50.689615588635206" lon="13.481394303962588">
        <ele>600</ele>
        <time>2026-08-29T07:03:42Z</time>
      </trkpt>
      <trkpt lat="50.689582731574774" lon="13.481368403881788">
        <ele>600</ele>
        <time>2026-08-29T07:03:43Z</time>
      </trkpt>
      <trkpt lat="50.689549120143056" lon="13.481348119676113">
        <ele>600</ele>
        <time>2026-08-29T07:03:44Z</time>
      </trkpt>
      <trkpt lat="50.689509222283959" lon="13.481331439688802">
        <ele>601</ele>
        <time>2026-08-29T07:03:45Z</time>
      </trkpt>
      <trkpt lat="50.689474102109671" lon="13.481294810771942">
        <ele>601</ele>
        <time>2026-08-29T07:03:46Z</time>
      </trkpt>
      <trkpt lat="50.689437221735716" lon="13.481268743053079">
        <ele>601</ele>
        <time>2026-08-29T07:03:47Z</time>
      </trkpt>
      <trkpt lat="50.689398581162095" lon="13.481240496039391">
        <ele>601</ele>
        <time>2026-08-29T07:03:48Z</time>
      </trkpt>
      <trkpt lat="50.689356587827206" lon="13.481206716969609">
        <ele>601</ele>
        <time>2026-08-29T07:03:49Z</time>
      </trkpt>
      <trkpt lat="50.689321300014853" lon="13.481169668957591">
        <ele>601</ele>
        <time>2026-08-29T07:03:50Z</time>
      </trkpt>
      <trkpt lat="50.68928450345993" lon="13.481132537126541">
        <ele>601</ele>
        <time>2026-08-29T07:03:51Z</time>
      </trkpt>
      <trkpt lat="50.689242845401168" lon="13.481090376153588">
        <ele>600</ele>
        <time>2026-08-29T07:03:52Z</time>
      </trkpt>
      <trkpt lat="50.689210491254926" lon="13.481044694781303">
        <ele>600</ele>
        <time>2026-08-29T07:03:53Z</time>
      </trkpt>
      <trkpt lat="50.689175287261605" lon="13.481000354513526">
        <ele>600</ele>
        <time>2026-08-29T07:03:54Z</time>
      </trkpt>
      <trkpt lat="50.689136479049921" lon="13.480962552130222">
        <ele>600</ele>
        <time>2026-08-29T07:03:55Z</time>
      </trkpt>
      <trkpt lat="50.689101107418537" lon="13.480919720605016">
        <ele>600</ele>
        <time>2026-08-29T07:03:56Z</time>
      </trkpt>
      <trkpt lat="50.689062718302011" lon="13.480878481641412">
        <ele>601</ele>
        <time>2026-08-29T07:03:57Z</time>
      </trkpt>
      <trkpt lat="50.689023658633232" lon="13.480841433629394">
        <ele>601</ele>
        <time>2026-08-29T07:03:58Z</time>
      </trkpt>
      <trkpt lat="50.688988706097007" lon="13.480800865218043">
        <ele>601</ele>
        <time>2026-08-29T07:03:59Z</time>
      </trkpt>
      <trkpt lat="50.688954507932067" lon="13.480753591284156">
        <ele>601</ele>
        <time>2026-08-29T07:04:00Z</time>
      </trkpt>
      <trkpt lat="50.688922489061952" lon="13.480705982074142">
        <ele>601</ele>
        <time>2026-08-29T07:04:01Z</time>
      </trkpt>
      <trkpt lat="50.688888458535075" lon="13.480655942112207">
        <ele>600</ele>
        <time>2026-08-29T07:04:02Z</time>
      </trkpt>
      <trkpt lat="50.688851159065962" lon="13.480610260739923">
        <ele>600</ele>
        <time>2026-08-29T07:04:03Z</time>
      </trkpt>
      <trkpt lat="50.688820397481322" lon="13.480557035654783">
        <ele>600</ele>
        <time>2026-08-29T07:04:04Z</time>
      </trkpt>
      <trkpt lat="50.688790809363127" lon="13.480506744235754">
        <ele>601</ele>
        <time>2026-08-29T07:04:05Z</time>
      </trkpt>
      <trkpt lat="50.68875920958817" lon="13.480452094227076">
        <ele>601</ele>
        <time>2026-08-29T07:04:06Z</time>
      </trkpt>
      <trkpt lat="50.688729118555784" lon="13.480399120599031">
        <ele>601</ele>
        <time>2026-08-29T07:04:07Z</time>
      </trkpt>
      <trkpt lat="50.68870154209435" lon="13.480347404256463">
        <ele>601</ele>
        <time>2026-08-29T07:04:08Z</time>
      </trkpt>
      <trkpt lat="50.68867907859385" lon="13.480291580781341">
        <ele>601</ele>
        <time>2026-08-29T07:04:09Z</time>
      </trkpt>
      <trkpt lat="50.688648149371147" lon="13.480237433686852">
        <ele>601</ele>
        <time>2026-08-29T07:04:10Z</time>
      </trkpt>
      <trkpt lat="50.688624931499362" lon="13.480178257450461">
        <ele>601</ele>
        <time>2026-08-29T07:04:11Z</time>
      </trkpt>
      <trkpt lat="50.688596349209547" lon="13.480112878605723">
        <ele>600</ele>
        <time>2026-08-29T07:04:12Z</time>
      </trkpt>
      <trkpt lat="50.688567431643605" lon="13.480050098150969">
        <ele>600</ele>
        <time>2026-08-29T07:04:13Z</time>
      </trkpt>
      <trkpt lat="50.688542202115059" lon="13.479994526132941">
        <ele>600</ele>
        <time>2026-08-29T07:04:14Z</time>
      </trkpt>
      <trkpt lat="50.688518397510052" lon="13.479929314926267">
        <ele>600</ele>
        <time>2026-08-29T07:04:15Z</time>
      </trkpt>
      <trkpt lat="50.688492832705379" lon="13.479863600805402">
        <ele>599</ele>
        <time>2026-08-29T07:04:16Z</time>
      </trkpt>
      <trkpt lat="50.688468860462308" lon="13.479795204475522">
        <ele>599</ele>
        <time>2026-08-29T07:04:17Z</time>
      </trkpt>
      <trkpt lat="50.68844891153276" lon="13.479727897793055">
        <ele>599</ele>
        <time>2026-08-29T07:04:18Z</time>
      </trkpt>
      <trkpt lat="50.688424101099372" lon="13.479659082368016">
        <ele>598</ele>
        <time>2026-08-29T07:04:19Z</time>
      </trkpt>
      <trkpt lat="50.688398787751794" lon="13.479594122618437">
        <ele>598</ele>
        <time>2026-08-29T07:04:20Z</time>
      </trkpt>
      <trkpt lat="50.68837515078485" lon="13.479527486488223">
        <ele>598</ele>
        <time>2026-08-29T07:04:21Z</time>
      </trkpt>
      <trkpt lat="50.688352268189192" lon="13.479462945833802">
        <ele>598</ele>
        <time>2026-08-29T07:04:22Z</time>
      </trkpt>
      <trkpt lat="50.688326535746455" lon="13.479403853416443">
        <ele>597</ele>
        <time>2026-08-29T07:04:23Z</time>
      </trkpt>
      <trkpt lat="50.688304491341114" lon="13.479341324418783">
        <ele>597</ele>
        <time>2026-08-29T07:04:24Z</time>
      </trkpt>
      <trkpt lat="50.688275992870331" lon="13.479279465973377">
        <ele>597</ele>
        <time>2026-08-29T07:04:25Z</time>
      </trkpt>
      <trkpt lat="50.688248751685023" lon="13.479224564507604">
        <ele>597</ele>
        <time>2026-08-29T07:04:26Z</time>
      </trkpt>
      <trkpt lat="50.68821975030005" lon="13.479167148470879">
        <ele>597</ele>
        <time>2026-08-29T07:04:27Z</time>
      </trkpt>
      <trkpt lat="50.688189743086696" lon="13.479115264490247">
        <ele>597</ele>
        <time>2026-08-29T07:04:28Z</time>
      </trkpt>
      <trkpt lat="50.6881567183882" lon="13.479066649451852">
        <ele>597</ele>
        <time>2026-08-29T07:04:29Z</time>
      </trkpt>
      <trkpt lat="50.688115898519754" lon="13.47900596447289">
        <ele>597</ele>
        <time>2026-08-29T07:04:30Z</time>
      </trkpt>
      <trkpt lat="50.688076922670007" lon="13.47894879989326">
        <ele>597</ele>
        <time>2026-08-29T07:04:31Z</time>
      </trkpt>
      <trkpt lat="50.688037192448974" lon="13.478907393291593">
        <ele>597</ele>
        <time>2026-08-29T07:04:32Z</time>
      </trkpt>
      <trkpt lat="50.68798866122961" lon="13.478860706090927">
        <ele>596</ele>
        <time>2026-08-29T07:04:33Z</time>
      </trkpt>
      <trkpt lat="50.68794515915215" lon="13.47880563698709">
        <ele>596</ele>
        <time>2026-08-29T07:04:34Z</time>
      </trkpt>
      <trkpt lat="50.687892772257328" lon="13.478749645873904">
        <ele>596</ele>
        <time>2026-08-29T07:04:35Z</time>
      </trkpt>
      <trkpt lat="50.687842145562172" lon="13.478686446323991">
        <ele>595</ele>
        <time>2026-08-29T07:04:36Z</time>
      </trkpt>
      <trkpt lat="50.687789591029286" lon="13.4786341432482">
        <ele>595</ele>
        <time>2026-08-29T07:04:37Z</time>
      </trkpt>
      <trkpt lat="50.687736198306084" lon="13.478576308116317">
        <ele>595</ele>
        <time>2026-08-29T07:04:38Z</time>
      </trkpt>
      <trkpt lat="50.687682051211596" lon="13.478512689471245">
        <ele>595</ele>
        <time>2026-08-29T07:04:39Z</time>
      </trkpt>
      <trkpt lat="50.687629412859678" lon="13.478452004492283">
        <ele>594</ele>
        <time>2026-08-29T07:04:40Z</time>
      </trkpt>
      <trkpt lat="50.687573840841651" lon="13.478388302028179">
        <ele>594</ele>
        <time>2026-08-29T07:04:41Z</time>
      </trkpt>
      <trkpt lat="50.68751759827137" lon="13.478319151327014">
        <ele>594</ele>
        <time>2026-08-29T07:04:42Z</time>
      </trkpt>
      <trkpt lat="50.687461607158184" lon="13.478247402235866">
        <ele>594</ele>
        <time>2026-08-29T07:04:43Z</time>
      </trkpt>
      <trkpt lat="50.687413914129138" lon="13.478177664801478">
        <ele>593</ele>
        <time>2026-08-29T07:04:44Z</time>
      </trkpt>
      <trkpt lat="50.687366556376219" lon="13.478094767779112">
        <ele>593</ele>
        <time>2026-08-29T07:04:45Z</time>
      </trkpt>
      <trkpt lat="50.687315762042999" lon="13.478024695068598">
        <ele>593</ele>
        <time>2026-08-29T07:04:46Z</time>
      </trkpt>
      <trkpt lat="50.687268488109112" lon="13.477960405871272">
        <ele>594</ele>
        <time>2026-08-29T07:04:47Z</time>
      </trkpt>
      <trkpt lat="50.687219118699431" lon="13.47789091989398">
        <ele>594</ele>
        <time>2026-08-29T07:04:48Z</time>
      </trkpt>
      <trkpt lat="50.687172180041671" lon="13.477824535220861">
        <ele>593</ele>
        <time>2026-08-29T07:04:49Z</time>
      </trkpt>
      <trkpt lat="50.687127001583576" lon="13.477762928232551">
        <ele>593</ele>
        <time>2026-08-29T07:04:50Z</time>
      </trkpt>
      <trkpt lat="50.68708710372448" lon="13.477699225768447">
        <ele>593</ele>
        <time>2026-08-29T07:04:51Z</time>
      </trkpt>
      <trkpt lat="50.687045780941844" lon="13.477639630436897">
        <ele>593</ele>
        <time>2026-08-29T07:04:52Z</time>
      </trkpt>
      <trkpt lat="50.68700697273016" lon="13.477576682344079">
        <ele>593</ele>
        <time>2026-08-29T07:04:53Z</time>
      </trkpt>
      <trkpt lat="50.686968918889761" lon="13.477511554956436">
        <ele>593</ele>
        <time>2026-08-29T07:04:54Z</time>
      </trkpt>
      <trkpt lat="50.686930026859045" lon="13.477453971281648">
        <ele>593</ele>
        <time>2026-08-29T07:04:55Z</time>
      </trkpt>
      <trkpt lat="50.686895828694105" lon="13.477398315444589">
        <ele>593</ele>
        <time>2026-08-29T07:04:56Z</time>
      </trkpt>
      <trkpt lat="50.686865486204624" lon="13.47733830101788">
        <ele>592</ele>
        <time>2026-08-29T07:04:57Z</time>
      </trkpt>
      <trkpt lat="50.686831371858716" lon="13.477276442572474">
        <ele>593</ele>
        <time>2026-08-29T07:04:58Z</time>
      </trkpt>
      <trkpt lat="50.686799352988601" lon="13.477220702916384">
        <ele>593</ele>
        <time>2026-08-29T07:04:59Z</time>
      </trkpt>
      <trkpt lat="50.686764819547534" lon="13.477160772308707">
        <ele>593</ele>
        <time>2026-08-29T07:05:00Z</time>
      </trkpt>
      <trkpt lat="50.686733387410641" lon="13.477101344615221">
        <ele>593</ele>
        <time>2026-08-29T07:05:01Z</time>
      </trkpt>
      <trkpt lat="50.686695920303464" lon="13.477043760940433">
        <ele>592</ele>
        <time>2026-08-29T07:05:02Z</time>
      </trkpt>
      <trkpt lat="50.686664152890444" lon="13.476978130638599">
        <ele>592</ele>
        <time>2026-08-29T07:05:03Z</time>
      </trkpt>
      <trkpt lat="50.686630960553885" lon="13.476928425952792">
        <ele>592</ele>
        <time>2026-08-29T07:05:04Z</time>
      </trkpt>
      <trkpt lat="50.686596510931849" lon="13.476875787600875">
        <ele>592</ele>
        <time>2026-08-29T07:05:05Z</time>
      </trkpt>
      <trkpt lat="50.686563150957227" lon="13.476820969954133">
        <ele>592</ele>
        <time>2026-08-29T07:05:06Z</time>
      </trkpt>
      <trkpt lat="50.686531132087111" lon="13.476771013811231">
        <ele>592</ele>
        <time>2026-08-29T07:05:07Z</time>
      </trkpt>
      <trkpt lat="50.686499867588282" lon="13.476723907515407">
        <ele>592</ele>
        <time>2026-08-29T07:05:08Z</time>
      </trkpt>
      <trkpt lat="50.686464076861739" lon="13.476671185344458">
        <ele>592</ele>
        <time>2026-08-29T07:05:09Z</time>
      </trkpt>
      <trkpt lat="50.686430549249053" lon="13.476622821763158">
        <ele>592</ele>
        <time>2026-08-29T07:05:10Z</time>
      </trkpt>
      <trkpt lat="50.686400709673762" lon="13.476572446525097">
        <ele>592</ele>
        <time>2026-08-29T07:05:11Z</time>
      </trkpt>
      <trkpt lat="50.686370031908154" lon="13.476530453190207">
        <ele>593</ele>
        <time>2026-08-29T07:05:12Z</time>
      </trkpt>
      <trkpt lat="50.68634438328445" lon="13.476487034931779">
        <ele>593</ele>
        <time>2026-08-29T07:05:13Z</time>
      </trkpt>
      <trkpt lat="50.68631848320365" lon="13.476443868130445">
        <ele>593</ele>
        <time>2026-08-29T07:05:14Z</time>
      </trkpt>
      <trkpt lat="50.686290068551898" lon="13.476400366052985">
        <ele>593</ele>
        <time>2026-08-29T07:05:15Z</time>
      </trkpt>
      <trkpt lat="50.686256038025022" lon="13.476356947794557">
        <ele>593</ele>
        <time>2026-08-29T07:05:16Z</time>
      </trkpt>
      <trkpt lat="50.686220247298479" lon="13.476312272250652">
        <ele>593</ele>
        <time>2026-08-29T07:05:17Z</time>
      </trkpt>
      <trkpt lat="50.686191748827696" lon="13.476270781829953">
        <ele>593</ele>
        <time>2026-08-29T07:05:18Z</time>
      </trkpt>
      <trkpt lat="50.686154281720519" lon="13.476235074922442">
        <ele>593</ele>
        <time>2026-08-29T07:05:19Z</time>
      </trkpt>
      <trkpt lat="50.686122514307499" lon="13.476189561188221">
        <ele>594</ele>
        <time>2026-08-29T07:05:20Z</time>
      </trkpt>
      <trkpt lat="50.686092171818018" lon="13.476148825138807">
        <ele>594</ele>
        <time>2026-08-29T07:05:21Z</time>
      </trkpt>
      <trkpt lat="50.686062667518854" lon="13.476104149594903">
        <ele>594</ele>
        <time>2026-08-29T07:05:22Z</time>
      </trkpt>
      <trkpt lat="50.686026709154248" lon="13.476061569526792">
        <ele>594</ele>
        <time>2026-08-29T07:05:23Z</time>
      </trkpt>
      <trkpt lat="50.685994941741228" lon="13.47601605579257">
        <ele>594</ele>
        <time>2026-08-29T07:05:24Z</time>
      </trkpt>
      <trkpt lat="50.685966275632381" lon="13.475969787687063">
        <ele>594</ele>
        <time>2026-08-29T07:05:25Z</time>
      </trkpt>
      <trkpt lat="50.685938615351915" lon="13.475921005010605">
        <ele>594</ele>
        <time>2026-08-29T07:05:26Z</time>
      </trkpt>
      <trkpt lat="50.685910871252418" lon="13.475866857916117">
        <ele>593</ele>
        <time>2026-08-29T07:05:27Z</time>
      </trkpt>
      <trkpt lat="50.685880780220032" lon="13.475815309211612">
        <ele>593</ele>
        <time>2026-08-29T07:05:28Z</time>
      </trkpt>
      <trkpt lat="50.68584842607379" lon="13.475760575383902">
        <ele>593</ele>
        <time>2026-08-29T07:05:29Z</time>
      </trkpt>
      <trkpt lat="50.685820765793324" lon="13.475711792707443">
        <ele>593</ele>
        <time>2026-08-29T07:05:30Z</time>
      </trkpt>
      <trkpt lat="50.685794278979301" lon="13.475655298680067">
        <ele>593</ele>
        <time>2026-08-29T07:05:31Z</time>
      </trkpt>
      <trkpt lat="50.685769217088819" lon="13.475601235404611">
        <ele>593</ele>
        <time>2026-08-29T07:05:32Z</time>
      </trkpt>
      <trkpt lat="50.685738371685147" lon="13.475558403879404">
        <ele>593</ele>
        <time>2026-08-29T07:05:33Z</time>
      </trkpt>
      <trkpt lat="50.685706268996" lon="13.47550350241363">
        <ele>592</ele>
        <time>2026-08-29T07:05:34Z</time>
      </trkpt>
      <trkpt lat="50.685676261782646" lon="13.475450528785586">
        <ele>592</ele>
        <time>2026-08-29T07:05:35Z</time>
      </trkpt>
      <trkpt lat="50.685645248740911" lon="13.475398393347859">
        <ele>592</ele>
        <time>2026-08-29T07:05:36Z</time>
      </trkpt>
      <trkpt lat="50.685616750270128" lon="13.475347515195608">
        <ele>592</ele>
        <time>2026-08-29T07:05:37Z</time>
      </trkpt>
      <trkpt lat="50.685585150495172" lon="13.47529579885304">
        <ele>592</ele>
        <time>2026-08-29T07:05:38Z</time>
      </trkpt>
      <trkpt lat="50.685549359768629" lon="13.475239221006632">
        <ele>591</ele>
        <time>2026-08-29T07:05:39Z</time>
      </trkpt>
      <trkpt lat="50.685514407232404" lon="13.475188175216317">
        <ele>590</ele>
        <time>2026-08-29T07:05:40Z</time>
      </trkpt>
      <trkpt lat="50.68547953851521" lon="13.47514383494854">
        <ele>590</ele>
        <time>2026-08-29T07:05:41Z</time>
      </trkpt>
      <trkpt lat="50.685443412512541" lon="13.475112738087773">
        <ele>590</ele>
        <time>2026-08-29T07:05:42Z</time>
      </trkpt>
      <trkpt lat="50.685401502996683" lon="13.475076192989945">
        <ele>590</ele>
        <time>2026-08-29T07:05:43Z</time>
      </trkpt>
      <trkpt lat="50.685362359508872" lon="13.475038642063737">
        <ele>589</ele>
        <time>2026-08-29T07:05:44Z</time>
      </trkpt>
      <trkpt lat="50.685322880744934" lon="13.475001929327846">
        <ele>589</ele>
        <time>2026-08-29T07:05:45Z</time>
      </trkpt>
      <trkpt lat="50.685280049219728" lon="13.47497477196157">
        <ele>589</ele>
        <time>2026-08-29T07:05:46Z</time>
      </trkpt>
      <trkpt lat="50.68523327820003" lon="13.47494300454855">
        <ele>589</ele>
        <time>2026-08-29T07:05:47Z</time>
      </trkpt>
      <trkpt lat="50.685184998437762" lon="13.474914422258735">
        <ele>589</ele>
        <time>2026-08-29T07:05:48Z</time>
      </trkpt>
      <trkpt lat="50.685140322893858" lon="13.474885420873761">
        <ele>589</ele>
        <time>2026-08-29T07:05:49Z</time>
      </trkpt>
      <trkpt lat="50.685096653178334" lon="13.474845020100474">
        <ele>589</ele>
        <time>2026-08-29T07:05:50Z</time>
      </trkpt>
      <trkpt lat="50.685045942664146" lon="13.474807972088456">
        <ele>588</ele>
        <time>2026-08-29T07:05:51Z</time>
      </trkpt>
      <trkpt lat="50.684995567426085" lon="13.474786849692464">
        <ele>588</ele>
        <time>2026-08-29T07:05:52Z</time>
      </trkpt>
      <trkpt lat="50.684947622939944" lon="13.474756255745888">
        <ele>588</ele>
        <time>2026-08-29T07:05:53Z</time>
      </trkpt>
      <trkpt lat="50.684898337349296" lon="13.474732954055071">
        <ele>588</ele>
        <time>2026-08-29T07:05:54Z</time>
      </trkpt>
      <trkpt lat="50.684849722310901" lon="13.474708311259747">
        <ele>588</ele>
        <time>2026-08-29T07:05:55Z</time>
      </trkpt>
      <trkpt lat="50.684808231890202" lon="13.474681070074439">
        <ele>588</ele>
        <time>2026-08-29T07:05:56Z</time>
      </trkpt>
      <trkpt lat="50.68476565182209" lon="13.474649721756577">
        <ele>587</ele>
        <time>2026-08-29T07:05:57Z</time>
      </trkpt>
      <trkpt lat="50.68472265265882" lon="13.474618289619684">
        <ele>587</ele>
        <time>2026-08-29T07:05:58Z</time>
      </trkpt>
      <trkpt lat="50.684673199430108" lon="13.474581073969603">
        <ele>587</ele>
        <time>2026-08-29T07:05:59Z</time>
      </trkpt>
      <trkpt lat="50.684623410925269" lon="13.474545031785965">
        <ele>587</ele>
        <time>2026-08-29T07:06:00Z</time>
      </trkpt>
      <trkpt lat="50.684572700411081" lon="13.474505888298154">
        <ele>587</ele>
        <time>2026-08-29T07:06:01Z</time>
      </trkpt>
      <trkpt lat="50.684523414820433" lon="13.474465822800994">
        <ele>587</ele>
        <time>2026-08-29T07:06:02Z</time>
      </trkpt>
      <trkpt lat="50.684470608830452" lon="13.474427601322532">
        <ele>587</ele>
        <time>2026-08-29T07:06:03Z</time>
      </trkpt>
      <trkpt lat="50.684415455907583" lon="13.474392984062433">
        <ele>586</ele>
        <time>2026-08-29T07:06:04Z</time>
      </trkpt>
      <trkpt lat="50.684362482279539" lon="13.474351661279798">
        <ele>586</ele>
        <time>2026-08-29T07:06:05Z</time>
      </trkpt>
      <trkpt lat="50.684307496994734" lon="13.474309835582972">
        <ele>586</ele>
        <time>2026-08-29T07:06:06Z</time>
      </trkpt>
      <trkpt lat="50.684249829500914" lon="13.474271278828382">
        <ele>585</ele>
        <time>2026-08-29T07:06:07Z</time>
      </trkpt>
      <trkpt lat="50.684196352958679" lon="13.474227860569954">
        <ele>585</ele>
        <time>2026-08-29T07:06:08Z</time>
      </trkpt>
      <trkpt lat="50.684136170893908" lon="13.474182598292828">
        <ele>585</ele>
        <time>2026-08-29T07:06:09Z</time>
      </trkpt>
      <trkpt lat="50.684078671038151" lon="13.474139012396336">
        <ele>584</ele>
        <time>2026-08-29T07:06:10Z</time>
      </trkpt>
      <trkpt lat="50.684023350477219" lon="13.47410305403173">
        <ele>584</ele>
        <time>2026-08-29T07:06:11Z</time>
      </trkpt>
      <trkpt lat="50.68396819755435" lon="13.474064078181982">
        <ele>584</ele>
        <time>2026-08-29T07:06:12Z</time>
      </trkpt>
      <trkpt lat="50.683913379907608" lon="13.474027533084154">
        <ele>584</ele>
        <time>2026-08-29T07:06:13Z</time>
      </trkpt>
      <trkpt lat="50.683851689100266" lon="13.473988808691502">
        <ele>584</ele>
        <time>2026-08-29T07:06:14Z</time>
      </trkpt>
      <trkpt lat="50.68379620090127" lon="13.473960813134909">
        <ele>583</ele>
        <time>2026-08-29T07:06:15Z</time>
      </trkpt>
      <trkpt lat="50.683738030493259" lon="13.473929548636079">
        <ele>583</ele>
        <time>2026-08-29T07:06:16Z</time>
      </trkpt>
      <trkpt lat="50.68368187174201" lon="13.473903145641088">
        <ele>583</ele>
        <time>2026-08-29T07:06:17Z</time>
      </trkpt>
      <trkpt lat="50.68362470716238" lon="13.47387925721705">
        <ele>584</ele>
        <time>2026-08-29T07:06:18Z</time>
      </trkpt>
      <trkpt lat="50.683566955849528" lon="13.473855452612042">
        <ele>584</ele>
        <time>2026-08-29T07:06:19Z</time>
      </trkpt>
      <trkpt lat="50.683515155687928" lon="13.473830642178655">
        <ele>584</ele>
        <time>2026-08-29T07:06:20Z</time>
      </trkpt>
      <trkpt lat="50.683463187888265" lon="13.473805915564299">
        <ele>584</ele>
        <time>2026-08-29T07:06:21Z</time>
      </trkpt>
      <trkpt lat="50.683408118784428" lon="13.473786469548941">
        <ele>584</ele>
        <time>2026-08-29T07:06:22Z</time>
      </trkpt>
      <trkpt lat="50.68335497751832" lon="13.473750595003366">
        <ele>583</ele>
        <time>2026-08-29T07:06:23Z</time>
      </trkpt>
      <trkpt lat="50.683297477662563" lon="13.473726706579328">
        <ele>583</ele>
        <time>2026-08-29T07:06:24Z</time>
      </trkpt>
      <trkpt lat="50.68324794061482" lon="13.473706170916557">
        <ele>583</ele>
        <time>2026-08-29T07:06:25Z</time>
      </trkpt>
      <trkpt lat="50.683198655024171" lon="13.473687479272485">
        <ele>583</ele>
        <time>2026-08-29T07:06:26Z</time>
      </trkpt>
      <trkpt lat="50.683154230937362" lon="13.473656214773655">
        <ele>582</ele>
        <time>2026-08-29T07:06:27Z</time>
      </trkpt>
      <trkpt lat="50.683106621727347" lon="13.473633248358965">
        <ele>583</ele>
        <time>2026-08-29T07:06:28Z</time>
      </trkpt>
      <trkpt lat="50.683060018345714" lon="13.473596535623074">
        <ele>583</ele>
        <time>2026-08-29T07:06:29Z</time>
      </trkpt>
      <trkpt lat="50.683019533753395" lon="13.473566193133593">
        <ele>582</ele>
        <time>2026-08-29T07:06:30Z</time>
      </trkpt>
      <trkpt lat="50.682979300618172" lon="13.473525959998369">
        <ele>582</ele>
        <time>2026-08-29T07:06:31Z</time>
      </trkpt>
      <trkpt lat="50.682941330596805" lon="13.473481787368655">
        <ele>582</ele>
        <time>2026-08-29T07:06:32Z</time>
      </trkpt>
      <trkpt lat="50.682906629517674" lon="13.473436441272497">
        <ele>582</ele>
        <time>2026-08-29T07:06:33Z</time>
      </trkpt>
      <trkpt lat="50.68287561647594" lon="13.473394364118576">
        <ele>581</ele>
        <time>2026-08-29T07:06:34Z</time>
      </trkpt>
      <trkpt lat="50.682843346148729" lon="13.473351700231433">
        <ele>582</ele>
        <time>2026-08-29T07:06:35Z</time>
      </trkpt>
      <trkpt lat="50.682815350592136" lon="13.473313059657812">
        <ele>581</ele>
        <time>2026-08-29T07:06:36Z</time>
      </trkpt>
      <trkpt lat="50.682790037244558" lon="13.473275508731604">
        <ele>581</ele>
        <time>2026-08-29T07:06:37Z</time>
      </trkpt>
      <trkpt lat="50.682762460783124" lon="13.473239466547966">
        <ele>581</ele>
        <time>2026-08-29T07:06:38Z</time>
      </trkpt>
      <trkpt lat="50.682731531560421" lon="13.473199401050806">
        <ele>581</ele>
        <time>2026-08-29T07:06:39Z</time>
      </trkpt>
      <trkpt lat="50.682699009776115" lon="13.473146092146635">
        <ele>581</ele>
        <time>2026-08-29T07:06:40Z</time>
      </trkpt>
      <trkpt lat="50.682660369202495" lon="13.47309647127986">
        <ele>581</ele>
        <time>2026-08-29T07:06:41Z</time>
      </trkpt>
      <trkpt lat="50.682619800791144" lon="13.473046766594052">
        <ele>581</ele>
        <time>2026-08-29T07:06:42Z</time>
      </trkpt>
      <trkpt lat="50.682586105540395" lon="13.47300611436367">
        <ele>581</ele>
        <time>2026-08-29T07:06:43Z</time>
      </trkpt>
      <trkpt lat="50.682553499937057" lon="13.472964204847813">
        <ele>581</ele>
        <time>2026-08-29T07:06:44Z</time>
      </trkpt>
      <trkpt lat="50.682515278458595" lon="13.472918691113591">
        <ele>581</ele>
        <time>2026-08-29T07:06:45Z</time>
      </trkpt>
      <trkpt lat="50.682476218789816" lon="13.472868567332625">
        <ele>581</ele>
        <time>2026-08-29T07:06:46Z</time>
      </trkpt>
      <trkpt lat="50.68244906142354" lon="13.472814587876201">
        <ele>581</ele>
        <time>2026-08-29T07:06:47Z</time>
      </trkpt>
      <trkpt lat="50.682414695620537" lon="13.472767565399408">
        <ele>581</ele>
        <time>2026-08-29T07:06:48Z</time>
      </trkpt>
      <trkpt lat="50.68237773142755" lon="13.472718531265855">
        <ele>582</ele>
        <time>2026-08-29T07:06:49Z</time>
      </trkpt>
      <trkpt lat="50.682336827740073" lon="13.472674023360014">
        <ele>582</ele>
        <time>2026-08-29T07:06:50Z</time>
      </trkpt>
      <trkpt lat="50.682295588776469" lon="13.472631778568029">
        <ele>582</ele>
        <time>2026-08-29T07:06:51Z</time>
      </trkpt>
      <trkpt lat="50.682258540764451" lon="13.472597664222121">
        <ele>582</ele>
        <time>2026-08-29T07:06:52Z</time>
      </trkpt>
      <trkpt lat="50.682229120284319" lon="13.47254971973598">
        <ele>583</ele>
        <time>2026-08-29T07:06:53Z</time>
      </trkpt>
      <trkpt lat="50.682193916290998" lon="13.472507474943995">
        <ele>583</ele>
        <time>2026-08-29T07:06:54Z</time>
      </trkpt>
      <trkpt lat="50.68215686827898" lon="13.472465313971043">
        <ele>582</ele>
        <time>2026-08-29T07:06:55Z</time>
      </trkpt>
      <trkpt lat="50.682126358151436" lon="13.472428349778056">
        <ele>582</ele>
        <time>2026-08-29T07:06:56Z</time>
      </trkpt>
      <trkpt lat="50.68209970369935" lon="13.472391217947006">
        <ele>582</ele>
        <time>2026-08-29T07:06:57Z</time>
      </trkpt>
      <trkpt lat="50.682060979306698" lon="13.472349140793085">
        <ele>582</ele>
        <time>2026-08-29T07:06:58Z</time>
      </trkpt>
      <trkpt lat="50.682026278227568" lon="13.472307147458196">
        <ele>582</ele>
        <time>2026-08-29T07:06:59Z</time>
      </trkpt>
      <trkpt lat="50.681988894939423" lon="13.472274458035827">
        <ele>583</ele>
        <time>2026-08-29T07:07:00Z</time>
      </trkpt>
      <trkpt lat="50.681948997080326" lon="13.472226848825812">
        <ele>583</ele>
        <time>2026-08-29T07:07:01Z</time>
      </trkpt>
      <trkpt lat="50.681913709267974" lon="13.472183430567384">
        <ele>583</ele>
        <time>2026-08-29T07:07:02Z</time>
      </trkpt>
      <trkpt lat="50.681873057037592" lon="13.47214219160378">
        <ele>582</ele>
        <time>2026-08-29T07:07:03Z</time>
      </trkpt>
      <trkpt lat="50.681836260482669" lon="13.472093744203448">
        <ele>582</ele>
        <time>2026-08-29T07:07:04Z</time>
      </trkpt>
      <trkpt lat="50.68180114030838" lon="13.472050577402115">
        <ele>582</ele>
        <time>2026-08-29T07:07:05Z</time>
      </trkpt>
      <trkpt lat="50.681761158630252" lon="13.472005734220147">
        <ele>582</ele>
        <time>2026-08-29T07:07:06Z</time>
      </trkpt>
      <trkpt lat="50.681719416752458" lon="13.471957454457879">
        <ele>582</ele>
        <time>2026-08-29T07:07:07Z</time>
      </trkpt>
      <trkpt lat="50.68167801015079" lon="13.471905989572406">
        <ele>582</ele>
        <time>2026-08-29T07:07:08Z</time>
      </trkpt>
      <trkpt lat="50.68163107149303" lon="13.471859972923994">
        <ele>581</ele>
        <time>2026-08-29T07:07:09Z</time>
      </trkpt>
      <trkpt lat="50.681590167805552" lon="13.471819991245866">
        <ele>581</ele>
        <time>2026-08-29T07:07:10Z</time>
      </trkpt>
      <trkpt lat="50.68155680783093" lon="13.471787888556719">
        <ele>581</ele>
        <time>2026-08-29T07:07:11Z</time>
      </trkpt>
      <trkpt lat="50.681524537503719" lon="13.471745643764734">
        <ele>581</ele>
        <time>2026-08-29T07:07:12Z</time>
      </trkpt>
      <trkpt lat="50.681488998234272" lon="13.471692083403468">
        <ele>581</ele>
        <time>2026-08-29T07:07:13Z</time>
      </trkpt>
      <trkpt lat="50.681448178365827" lon="13.471643468365073">
        <ele>581</ele>
        <time>2026-08-29T07:07:14Z</time>
      </trkpt>
      <trkpt lat="50.681404927745461" lon="13.471606252714992">
        <ele>581</ele>
        <time>2026-08-29T07:07:15Z</time>
      </trkpt>
      <trkpt lat="50.681368131190538" lon="13.471566019579768">
        <ele>580</ele>
        <time>2026-08-29T07:07:16Z</time>
      </trkpt>
      <trkpt lat="50.681330831721425" lon="13.471520841121674">
        <ele>580</ele>
        <time>2026-08-29T07:07:17Z</time>
      </trkpt>
      <trkpt lat="50.681291520595551" lon="13.471478931605816">
        <ele>580</ele>
        <time>2026-08-29T07:07:18Z</time>
      </trkpt>
      <trkpt lat="50.681255059316754" lon="13.471431992948055">
        <ele>581</ele>
        <time>2026-08-29T07:07:19Z</time>
      </trkpt>
      <trkpt lat="50.681219939142466" lon="13.471391508355737">
        <ele>581</ele>
        <time>2026-08-29T07:07:20Z</time>
      </trkpt>
      <trkpt lat="50.681180041283369" lon="13.471353789791465">
        <ele>581</ele>
        <time>2026-08-29T07:07:21Z</time>
      </trkpt>
      <trkpt lat="50.681142490357161" lon="13.471315065398812">
        <ele>581</ele>
        <time>2026-08-29T07:07:22Z</time>
      </trkpt>
      <trkpt lat="50.681102341040969" lon="13.471274077892303">
        <ele>581</ele>
        <time>2026-08-29T07:07:23Z</time>
      </trkpt>
      <trkpt lat="50.681063868105412" lon="13.471239125356078">
        <ele>581</ele>
        <time>2026-08-29T07:07:24Z</time>
      </trkpt>
      <trkpt lat="50.681023970246315" lon="13.471196545287967">
        <ele>580</ele>
        <time>2026-08-29T07:07:25Z</time>
      </trkpt>
      <trkpt lat="50.680984910577536" lon="13.471156982704997">
        <ele>581</ele>
        <time>2026-08-29T07:07:26Z</time>
      </trkpt>
      <trkpt lat="50.680946689099073" lon="13.471118593588471">
        <ele>581</ele>
        <time>2026-08-29T07:07:27Z</time>
      </trkpt>
      <trkpt lat="50.68090645596385" lon="13.471088921651244">
        <ele>581</ele>
        <time>2026-08-29T07:07:28Z</time>
      </trkpt>
      <trkpt lat="50.680870832875371" lon="13.471061764284968">
        <ele>581</ele>
        <time>2026-08-29T07:07:29Z</time>
      </trkpt>
      <trkpt lat="50.680831354111433" lon="13.471019938588142">
        <ele>581</ele>
        <time>2026-08-29T07:07:30Z</time>
      </trkpt>
      <trkpt lat="50.680790115147829" lon="13.470979705452919">
        <ele>581</ele>
        <time>2026-08-29T07:07:31Z</time>
      </trkpt>
      <trkpt lat="50.680750887840986" lon="13.470936203375459">
        <ele>580</ele>
        <time>2026-08-29T07:07:32Z</time>
      </trkpt>
      <trkpt lat="50.680706966668367" lon="13.470897898077965">
        <ele>580</ele>
        <time>2026-08-29T07:07:33Z</time>
      </trkpt>
      <trkpt lat="50.680664638057351" lon="13.470861436799169">
        <ele>580</ele>
        <time>2026-08-29T07:07:34Z</time>
      </trkpt>
      <trkpt lat="50.680620381608605" lon="13.470827909186482">
        <ele>580</ele>
        <time>2026-08-29T07:07:35Z</time>
      </trkpt>
      <trkpt lat="50.680570509284735" lon="13.470799159258604">
        <ele>581</ele>
        <time>2026-08-29T07:07:36Z</time>
      </trkpt>
      <trkpt lat="50.680529521778226" lon="13.470759931951761">
        <ele>581</ele>
        <time>2026-08-29T07:07:37Z</time>
      </trkpt>
      <trkpt lat="50.680484091863036" lon="13.47072372213006">
        <ele>581</ele>
        <time>2026-08-29T07:07:38Z</time>
      </trkpt>
      <trkpt lat="50.680437237024307" lon="13.470687428489327">
        <ele>581</ele>
        <time>2026-08-29T07:07:39Z</time>
      </trkpt>
      <trkpt lat="50.680390382185578" lon="13.470660606399179">
        <ele>580</ele>
        <time>2026-08-29T07:07:40Z</time>
      </trkpt>
      <trkpt lat="50.680343192070723" lon="13.470615427941084">
        <ele>580</ele>
        <time>2026-08-29T07:07:41Z</time>
      </trkpt>
      <trkpt lat="50.680303629487753" lon="13.470572847872972">
        <ele>580</ele>
        <time>2026-08-29T07:07:42Z</time>
      </trkpt>
      <trkpt lat="50.680268341675401" lon="13.470529094338417">
        <ele>580</ele>
        <time>2026-08-29T07:07:43Z</time>
      </trkpt>
      <trkpt lat="50.680227437987924" lon="13.470482910051942">
        <ele>580</ele>
        <time>2026-08-29T07:07:44Z</time>
      </trkpt>
      <trkpt lat="50.68018670193851" lon="13.470429601147771">
        <ele>580</ele>
        <time>2026-08-29T07:07:45Z</time>
      </trkpt>
      <trkpt lat="50.680145546793938" lon="13.470387440174818">
        <ele>580</ele>
        <time>2026-08-29T07:07:46Z</time>
      </trkpt>
      <trkpt lat="50.680104810744524" lon="13.470341926440597">
        <ele>580</ele>
        <time>2026-08-29T07:07:47Z</time>
      </trkpt>
      <trkpt lat="50.680068098008633" lon="13.470290713012218">
        <ele>580</ele>
        <time>2026-08-29T07:07:48Z</time>
      </trkpt>
      <trkpt lat="50.680024428293109" lon="13.470246708020568">
        <ele>581</ele>
        <time>2026-08-29T07:07:49Z</time>
      </trkpt>
      <trkpt lat="50.67998981103301" lon="13.470203122124076">
        <ele>580</ele>
        <time>2026-08-29T07:07:50Z</time>
      </trkpt>
      <trkpt lat="50.679949745535851" lon="13.470160961151123">
        <ele>580</ele>
        <time>2026-08-29T07:07:51Z</time>
      </trkpt>
      <trkpt lat="50.679911943152547" lon="13.470120644196868">
        <ele>580</ele>
        <time>2026-08-29T07:07:52Z</time>
      </trkpt>
      <trkpt lat="50.679877242073417" lon="13.470064904540777">
        <ele>580</ele>
        <time>2026-08-29T07:07:53Z</time>
      </trkpt>
      <trkpt lat="50.679842289537191" lon="13.4700240008533">
        <ele>580</ele>
        <time>2026-08-29T07:07:54Z</time>
      </trkpt>
      <trkpt lat="50.679803900420666" lon="13.469991227611899">
        <ele>580</ele>
        <time>2026-08-29T07:07:55Z</time>
      </trkpt>
      <trkpt lat="50.679763499647379" lon="13.469949066638947">
        <ele>580</ele>
        <time>2026-08-29T07:07:56Z</time>
      </trkpt>
      <trkpt lat="50.679728630930185" lon="13.469910006970167">
        <ele>580</ele>
        <time>2026-08-29T07:07:57Z</time>
      </trkpt>
      <trkpt lat="50.679689990356565" lon="13.469878993928432">
        <ele>580</ele>
        <time>2026-08-29T07:07:58Z</time>
      </trkpt>
      <trkpt lat="50.679650511592627" lon="13.469848064705729">
        <ele>580</ele>
        <time>2026-08-29T07:07:59Z</time>
      </trkpt>
      <trkpt lat="50.679606841877103" lon="13.469822332262993">
        <ele>580</ele>
        <time>2026-08-29T07:08:00Z</time>
      </trkpt>
      <trkpt lat="50.679557388648391" lon="13.469790061935782">
        <ele>579</ele>
        <time>2026-08-29T07:08:01Z</time>
      </trkpt>
      <trkpt lat="50.679509527981281" lon="13.469766341149807">
        <ele>579</ele>
        <time>2026-08-29T07:08:02Z</time>
      </trkpt>
      <trkpt lat="50.679467534646392" lon="13.469730634242296">
        <ele>579</ele>
        <time>2026-08-29T07:08:03Z</time>
      </trkpt>
      <trkpt lat="50.679420931264758" lon="13.469711691141129">
        <ele>579</ele>
        <time>2026-08-29T07:08:04Z</time>
      </trkpt>
      <trkpt lat="50.679374830797315" lon="13.469692580401897">
        <ele>579</ele>
        <time>2026-08-29T07:08:05Z</time>
      </trkpt>
      <trkpt lat="50.679330490529537" lon="13.469666931778193">
        <ele>578</ele>
        <time>2026-08-29T07:08:06Z</time>
      </trkpt>
      <trkpt lat="50.679291095584631" lon="13.469649329781532">
        <ele>578</ele>
        <time>2026-08-29T07:08:07Z</time>
      </trkpt>
      <trkpt lat="50.679240468889475" lon="13.469633990898728">
        <ele>578</ele>
        <time>2026-08-29T07:08:08Z</time>
      </trkpt>
      <trkpt lat="50.679196463897824" lon="13.4696199093014">
        <ele>577</ele>
        <time>2026-08-29T07:08:09Z</time>
      </trkpt>
      <trkpt lat="50.679148267954588" lon="13.469603313133121">
        <ele>577</ele>
        <time>2026-08-29T07:08:10Z</time>
      </trkpt>
      <trkpt lat="50.679100407287478" lon="13.469574982300401">
        <ele>578</ele>
        <time>2026-08-29T07:08:11Z</time>
      </trkpt>
      <trkpt lat="50.679059000685811" lon="13.469560397788882">
        <ele>577</ele>
        <time>2026-08-29T07:08:12Z</time>
      </trkpt>
      <trkpt lat="50.679013151675463" lon="13.469535419717431">
        <ele>577</ele>
        <time>2026-08-29T07:08:13Z</time>
      </trkpt>
      <trkpt lat="50.678970320150256" lon="13.469511112198234">
        <ele>576</ele>
        <time>2026-08-29T07:08:14Z</time>
      </trkpt>
      <trkpt lat="50.678922710940242" lon="13.46948403865099">
        <ele>576</ele>
        <time>2026-08-29T07:08:15Z</time>
      </trkpt>
      <trkpt lat="50.678876610472798" lon="13.46945377998054">
        <ele>576</ele>
        <time>2026-08-29T07:08:16Z</time>
      </trkpt>
      <trkpt lat="50.678831180557609" lon="13.469422264024615">
        <ele>576</ele>
        <time>2026-08-29T07:08:17Z</time>
      </trkpt>
      <trkpt lat="50.678789941594005" lon="13.469386305660009">
        <ele>576</ele>
        <time>2026-08-29T07:08:18Z</time>
      </trkpt>
      <trkpt lat="50.678748283535242" lon="13.46934967674315">
        <ele>575</ele>
        <time>2026-08-29T07:08:19Z</time>
      </trkpt>
      <trkpt lat="50.678704781457782" lon="13.469301564618945">
        <ele>575</ele>
        <time>2026-08-29T07:08:20Z</time>
      </trkpt>
      <trkpt lat="50.678665721789002" lon="13.469244316220284">
        <ele>576</ele>
        <time>2026-08-29T07:08:21Z</time>
      </trkpt>
      <trkpt lat="50.678627751767635" lon="13.469192180782557">
        <ele>576</ele>
        <time>2026-08-29T07:08:22Z</time>
      </trkpt>
      <trkpt lat="50.678591458126903" lon="13.469137866050005">
        <ele>576</ele>
        <time>2026-08-29T07:08:23Z</time>
      </trkpt>
      <trkpt lat="50.678552398458123" lon="13.469078270718455">
        <ele>576</ele>
        <time>2026-08-29T07:08:24Z</time>
      </trkpt>
      <trkpt lat="50.678515518084168" lon="13.469025045633316">
        <ele>576</ele>
        <time>2026-08-29T07:08:25Z</time>
      </trkpt>
      <trkpt lat="50.678486349061131" lon="13.468969473615289">
        <ele>576</ele>
        <time>2026-08-29T07:08:26Z</time>
      </trkpt>
      <trkpt lat="50.678456760942936" lon="13.468912644311786">
        <ele>576</ele>
        <time>2026-08-29T07:08:27Z</time>
      </trkpt>
      <trkpt lat="50.678426250815392" lon="13.468845337629318">
        <ele>577</ele>
        <time>2026-08-29T07:08:28Z</time>
      </trkpt>
      <trkpt lat="50.678389789536595" lon="13.468793872743845">
        <ele>577</ele>
        <time>2026-08-29T07:08:29Z</time>
      </trkpt>
      <trkpt lat="50.678357100114226" lon="13.468732265755534">
        <ele>577</ele>
        <time>2026-08-29T07:08:30Z</time>
      </trkpt>
      <trkpt lat="50.678324829787016" lon="13.468655655160546">
        <ele>577</ele>
        <time>2026-08-29T07:08:31Z</time>
      </trkpt>
      <trkpt lat="50.678292810916901" lon="13.468586839735508">
        <ele>577</ele>
        <time>2026-08-29T07:08:32Z</time>
      </trkpt>
      <trkpt lat="50.678265821188688" lon="13.468516515567899">
        <ele>578</ele>
        <time>2026-08-29T07:08:33Z</time>
      </trkpt>
      <trkpt lat="50.678235897794366" lon="13.468460524454713">
        <ele>578</ele>
        <time>2026-08-29T07:08:34Z</time>
      </trkpt>
      <trkpt lat="50.678203962743282" lon="13.468400174751878">
        <ele>578</ele>
        <time>2026-08-29T07:08:35Z</time>
      </trkpt>
      <trkpt lat="50.67817110568285" lon="13.46833823248744">
        <ele>578</ele>
        <time>2026-08-29T07:08:36Z</time>
      </trkpt>
      <trkpt lat="50.678136236965656" lon="13.468293892219663">
        <ele>578</ele>
        <time>2026-08-29T07:08:37Z</time>
      </trkpt>
      <trkpt lat="50.678103799000382" lon="13.46823169849813">
        <ele>578</ele>
        <time>2026-08-29T07:08:38Z</time>
      </trkpt>
      <trkpt lat="50.678073288872838" lon="13.46816866658628">
        <ele>578</ele>
        <time>2026-08-29T07:08:39Z</time>
      </trkpt>
      <trkpt lat="50.678041102364659" lon="13.46811686642468">
        <ele>578</ele>
        <time>2026-08-29T07:08:40Z</time>
      </trkpt>
      <trkpt lat="50.67801034078002" lon="13.468061042949557">
        <ele>578</ele>
        <time>2026-08-29T07:08:41Z</time>
      </trkpt>
      <trkpt lat="50.677976310253143" lon="13.468003459274769">
        <ele>579</ele>
        <time>2026-08-29T07:08:42Z</time>
      </trkpt>
      <trkpt lat="50.677942950278521" lon="13.46794537268579">
        <ele>579</ele>
        <time>2026-08-29T07:08:43Z</time>
      </trkpt>
      <trkpt lat="50.677910512313247" lon="13.467893740162253">
        <ele>579</ele>
        <time>2026-08-29T07:08:44Z</time>
      </trkpt>
      <trkpt lat="50.677871620282531" lon="13.467836156487465">
        <ele>579</ele>
        <time>2026-08-29T07:08:45Z</time>
      </trkpt>
      <trkpt lat="50.677840020507574" lon="13.467778153717518">
        <ele>579</ele>
        <time>2026-08-29T07:08:46Z</time>
      </trkpt>
      <trkpt lat="50.677809929475188" lon="13.467720737680793">
        <ele>579</ele>
        <time>2026-08-29T07:08:47Z</time>
      </trkpt>
      <trkpt lat="50.67777288146317" lon="13.467651000246406">
        <ele>579</ele>
        <time>2026-08-29T07:08:48Z</time>
      </trkpt>
      <trkpt lat="50.67774161696434" lon="13.467582017183304">
        <ele>579</ele>
        <time>2026-08-29T07:08:49Z</time>
      </trkpt>
      <trkpt lat="50.677707502618432" lon="13.467506915330887">
        <ele>579</ele>
        <time>2026-08-29T07:08:50Z</time>
      </trkpt>
      <trkpt lat="50.677672130987048" lon="13.467439943924546">
        <ele>579</ele>
        <time>2026-08-29T07:08:51Z</time>
      </trkpt>
      <trkpt lat="50.677632400766015" lon="13.467374229803681">
        <ele>579</ele>
        <time>2026-08-29T07:08:52Z</time>
      </trkpt>
      <trkpt lat="50.677596861496568" lon="13.46730675548315">
        <ele>579</ele>
        <time>2026-08-29T07:08:53Z</time>
      </trkpt>
      <trkpt lat="50.677563082426786" lon="13.467246489599347">
        <ele>579</ele>
        <time>2026-08-29T07:08:54Z</time>
      </trkpt>
      <trkpt lat="50.677532991394401" lon="13.467186223715544">
        <ele>580</ele>
        <time>2026-08-29T07:08:55Z</time>
      </trkpt>
      <trkpt lat="50.677501810714602" lon="13.46712595783174">
        <ele>580</ele>
        <time>2026-08-29T07:08:56Z</time>
      </trkpt>
      <trkpt lat="50.677474401891232" lon="13.467070804908872">
        <ele>579</ele>
        <time>2026-08-29T07:08:57Z</time>
      </trkpt>
      <trkpt lat="50.677440958097577" lon="13.467014394700527">
        <ele>579</ele>
        <time>2026-08-29T07:08:58Z</time>
      </trkpt>
      <trkpt lat="50.677410531789064" lon="13.466945663094521">
        <ele>579</ele>
        <time>2026-08-29T07:08:59Z</time>
      </trkpt>
      <trkpt lat="50.677374238148332" lon="13.466887827962637">
        <ele>580</ele>
        <time>2026-08-29T07:09:00Z</time>
      </trkpt>
      <trkpt lat="50.677335178479552" lon="13.466837201267481">
        <ele>580</ele>
        <time>2026-08-29T07:09:01Z</time>
      </trkpt>
      <trkpt lat="50.677295783534646" lon="13.466798141598701">
        <ele>580</ele>
        <time>2026-08-29T07:09:02Z</time>
      </trkpt>
      <trkpt lat="50.677250688895583" lon="13.466754639521241">
        <ele>579</ele>
        <time>2026-08-29T07:09:03Z</time>
      </trkpt>
      <trkpt lat="50.677214059978724" lon="13.466725554317236">
        <ele>579</ele>
        <time>2026-08-29T07:09:04Z</time>
      </trkpt>
      <trkpt lat="50.677168630063534" lon="13.466694792732596">
        <ele>579</ele>
        <time>2026-08-29T07:09:05Z</time>
      </trkpt>
      <trkpt lat="50.677123619243503" lon="13.466670652851462">
        <ele>580</ele>
        <time>2026-08-29T07:09:06Z</time>
      </trkpt>
      <trkpt lat="50.677079278975725" lon="13.466644836589694">
        <ele>580</ele>
        <time>2026-08-29T07:09:07Z</time>
      </trkpt>
      <trkpt lat="50.677028400823474" lon="13.466618936508894">
        <ele>580</ele>
        <time>2026-08-29T07:09:08Z</time>
      </trkpt>
      <trkpt lat="50.67697643302381" lon="13.466595550999045">
        <ele>580</ele>
        <time>2026-08-29T07:09:09Z</time>
      </trkpt>
      <trkpt lat="50.676922956481576" lon="13.466569818556309">
        <ele>580</ele>
        <time>2026-08-29T07:09:10Z</time>
      </trkpt>
      <trkpt lat="50.676868557929993" lon="13.466543247923255">
        <ele>581</ele>
        <time>2026-08-29T07:09:11Z</time>
      </trkpt>
      <trkpt lat="50.676819188520312" lon="13.466516593471169">
        <ele>581</ele>
        <time>2026-08-29T07:09:12Z</time>
      </trkpt>
      <trkpt lat="50.676764622330666" lon="13.46650100313127">
        <ele>581</ele>
        <time>2026-08-29T07:09:13Z</time>
      </trkpt>
      <trkpt lat="50.676710978150368" lon="13.466485915705562">
        <ele>581</ele>
        <time>2026-08-29T07:09:14Z</time>
      </trkpt>
      <trkpt lat="50.67666077055037" lon="13.466473845764995">
        <ele>581</ele>
        <time>2026-08-29T07:09:15Z</time>
      </trkpt>
      <trkpt lat="50.676607377827168" lon="13.466460099443793">
        <ele>581</ele>
        <time>2026-08-29T07:09:16Z</time>
      </trkpt>
      <trkpt lat="50.676563121378422" lon="13.466450879350305">
        <ele>581</ele>
        <time>2026-08-29T07:09:17Z</time>
      </trkpt>
      <trkpt lat="50.676517942920327" lon="13.466442748904228">
        <ele>581</ele>
        <time>2026-08-29T07:09:18Z</time>
      </trkpt>
      <trkpt lat="50.676472680643201" lon="13.466452974826097">
        <ele>580</ele>
        <time>2026-08-29T07:09:19Z</time>
      </trkpt>
      <trkpt lat="50.676428508013487" lon="13.466450292617083">
        <ele>579</ele>
        <time>2026-08-29T07:09:20Z</time>
      </trkpt>
      <trkpt lat="50.676371762529016" lon="13.466424560174346">
        <ele>579</ele>
        <time>2026-08-29T07:09:21Z</time>
      </trkpt>
      <trkpt lat="50.676331529393792" lon="13.466381561011076">
        <ele>579</ele>
        <time>2026-08-29T07:09:22Z</time>
      </trkpt>
      <trkpt lat="50.676300851628184" lon="13.466318193823099">
        <ele>579</ele>
        <time>2026-08-29T07:09:23Z</time>
      </trkpt>
      <trkpt lat="50.676272939890623" lon="13.46624493598938">
        <ele>579</ele>
        <time>2026-08-29T07:09:24Z</time>
      </trkpt>
      <trkpt lat="50.676239579916" lon="13.466186514124274">
        <ele>580</ele>
        <time>2026-08-29T07:09:25Z</time>
      </trkpt>
      <trkpt lat="50.676194904372096" lon="13.46613404341042">
        <ele>579</ele>
        <time>2026-08-29T07:09:26Z</time>
      </trkpt>
      <trkpt lat="50.67614771425724" lon="13.466094564646482">
        <ele>579</ele>
        <time>2026-08-29T07:09:27Z</time>
      </trkpt>
      <trkpt lat="50.67609298042953" lon="13.466064808890224">
        <ele>579</ele>
        <time>2026-08-29T07:09:28Z</time>
      </trkpt>
      <trkpt lat="50.676046209409833" lon="13.466029772534966">
        <ele>578</ele>
        <time>2026-08-29T07:09:29Z</time>
      </trkpt>
      <trkpt lat="50.675990469753742" lon="13.465995490550995">
        <ele>578</ele>
        <time>2026-08-29T07:09:30Z</time>
      </trkpt>
      <trkpt lat="50.675941351801157" lon="13.46596640534699">
        <ele>578</ele>
        <time>2026-08-29T07:09:31Z</time>
      </trkpt>
      <trkpt lat="50.675892569124699" lon="13.465935308486223">
        <ele>577</ele>
        <time>2026-08-29T07:09:32Z</time>
      </trkpt>
      <trkpt lat="50.675840768963099" lon="13.465916952118278">
        <ele>577</ele>
        <time>2026-08-29T07:09:33Z</time>
      </trkpt>
      <trkpt lat="50.675778910517693" lon="13.465904295444489">
        <ele>577</ele>
        <time>2026-08-29T07:09:34Z</time>
      </trkpt>
      <trkpt lat="50.675725266337395" lon="13.465890465304255">
        <ele>576</ele>
        <time>2026-08-29T07:09:35Z</time>
      </trkpt>
      <trkpt lat="50.675674639642239" lon="13.465880239382386">
        <ele>576</ele>
        <time>2026-08-29T07:09:36Z</time>
      </trkpt>
      <trkpt lat="50.675624264404178" lon="13.465857105329633">
        <ele>577</ele>
        <time>2026-08-29T07:09:37Z</time>
      </trkpt>
      <trkpt lat="50.675566261634231" lon="13.46583497710526">
        <ele>577</ele>
        <time>2026-08-29T07:09:38Z</time>
      </trkpt>
      <trkpt lat="50.675506498664618" lon="13.465817542746663">
        <ele>577</ele>
        <time>2026-08-29T07:09:39Z</time>
      </trkpt>
      <trkpt lat="50.675454782322049" lon="13.465807233005762">
        <ele>577</ele>
        <time>2026-08-29T07:09:40Z</time>
      </trkpt>
      <trkpt lat="50.675401808694005" lon="13.465793319046497">
        <ele>577</ele>
        <time>2026-08-29T07:09:41Z</time>
      </trkpt>
      <trkpt lat="50.675346739590168" lon="13.465787870809436">
        <ele>577</ele>
        <time>2026-08-29T07:09:42Z</time>
      </trkpt>
      <trkpt lat="50.675287144258618" lon="13.465795246884227">
        <ele>577</ele>
        <time>2026-08-29T07:09:43Z</time>
      </trkpt>
      <trkpt lat="50.675230482593179" lon="13.465805891901255">
        <ele>577</ele>
        <time>2026-08-29T07:09:44Z</time>
      </trkpt>
      <trkpt lat="50.675175413489342" lon="13.465816536918283">
        <ele>577</ele>
        <time>2026-08-29T07:09:45Z</time>
      </trkpt>
      <trkpt lat="50.675132498145103" lon="13.465814189985394">
        <ele>577</ele>
        <time>2026-08-29T07:09:46Z</time>
      </trkpt>
      <trkpt lat="50.675088074058294" lon="13.465812597423792">
        <ele>577</ele>
        <time>2026-08-29T07:09:47Z</time>
      </trkpt>
      <trkpt lat="50.675043314695358" lon="13.465808238834143">
        <ele>578</ele>
        <time>2026-08-29T07:09:48Z</time>
      </trkpt>
      <trkpt lat="50.675003668293357" lon="13.465815782546997">
        <ele>578</ele>
        <time>2026-08-29T07:09:49Z</time>
      </trkpt>
      <trkpt lat="50.674983970820904" lon="13.465858027338982">
        <ele>578</ele>
        <time>2026-08-29T07:09:50Z</time>
      </trkpt>
      <trkpt lat="50.674968548119068" lon="13.465901194140315">
        <ele>578</ele>
        <time>2026-08-29T07:09:51Z</time>
      </trkpt>
      <trkpt lat="50.674956142902374" lon="13.465933548286557">
        <ele>578</ele>
        <time>2026-08-29T07:09:52Z</time>
      </trkpt>
      <trkpt lat="50.674955220893025" lon="13.465962884947658">
        <ele>578</ele>
        <time>2026-08-29T07:09:53Z</time>
      </trkpt>
      <trkpt lat="50.674954717978835" lon="13.465960957109928">
        <ele>578</ele>
        <time>2026-08-29T07:09:54Z</time>
      </trkpt>
      <trkpt lat="50.674947677180171" lon="13.46596347168088">
        <ele>578</ele>
        <time>2026-08-29T07:09:55Z</time>
      </trkpt>
      <trkpt lat="50.674938960000873" lon="13.465958358719945">
        <ele>578</ele>
        <time>2026-08-29T07:09:56Z</time>
      </trkpt>
      <trkpt lat="50.674925381317735" lon="13.465958945453167">
        <ele>578</ele>
        <time>2026-08-29T07:09:57Z</time>
      </trkpt>
      <trkpt lat="50.674908366054296" lon="13.465948384255171">
        <ele>578</ele>
        <time>2026-08-29T07:09:58Z</time>
      </trkpt>
      <trkpt lat="50.674883807078004" lon="13.465935727581382">
        <ele>578</ele>
        <time>2026-08-29T07:09:59Z</time>
      </trkpt>
      <trkpt lat="50.674854889512062" lon="13.465908486396074">
        <ele>577</ele>
        <time>2026-08-29T07:10:00Z</time>
      </trkpt>
      <trkpt lat="50.674827648326755" lon="13.465888202190399">
        <ele>577</ele>
        <time>2026-08-29T07:10:01Z</time>
      </trkpt>
      <trkpt lat="50.674796048551798" lon="13.465876802802086">
        <ele>577</ele>
        <time>2026-08-29T07:10:02Z</time>
      </trkpt>
      <trkpt lat="50.674763945862651" lon="13.46585450693965">
        <ele>577</ele>
        <time>2026-08-29T07:10:03Z</time>
      </trkpt>
      <trkpt lat="50.674732597544789" lon="13.465830702334642">
        <ele>577</ele>
        <time>2026-08-29T07:10:04Z</time>
      </trkpt>
      <trkpt lat="50.674695633351803" lon="13.465812345966697">
        <ele>578</ele>
        <time>2026-08-29T07:10:05Z</time>
      </trkpt>
      <trkpt lat="50.674652885645628" lon="13.465786697342992">
        <ele>578</ele>
        <time>2026-08-29T07:10:06Z</time>
      </trkpt>
      <trkpt lat="50.674606952816248" lon="13.465775130316615">
        <ele>577</ele>
        <time>2026-08-29T07:10:07Z</time>
      </trkpt>
      <trkpt lat="50.674564456567168" lon="13.465757612138987">
        <ele>577</ele>
        <time>2026-08-29T07:10:08Z</time>
      </trkpt>
      <trkpt lat="50.67452154122293" lon="13.465741099789739">
        <ele>577</ele>
        <time>2026-08-29T07:10:09Z</time>
      </trkpt>
      <trkpt lat="50.674481056630611" lon="13.465721821412444">
        <ele>577</ele>
        <time>2026-08-29T07:10:10Z</time>
      </trkpt>
      <trkpt lat="50.674443170428276" lon="13.46569424495101">
        <ele>577</ele>
        <time>2026-08-29T07:10:11Z</time>
      </trkpt>
      <trkpt lat="50.67440377548337" lon="13.465668680146337">
        <ele>577</ele>
        <time>2026-08-29T07:10:12Z</time>
      </trkpt>
      <trkpt lat="50.6743676494807" lon="13.465645629912615">
        <ele>578</ele>
        <time>2026-08-29T07:10:13Z</time>
      </trkpt>
      <trkpt lat="50.674327500164509" lon="13.46561805345118">
        <ele>578</ele>
        <time>2026-08-29T07:10:14Z</time>
      </trkpt>
      <trkpt lat="50.674292799085379" lon="13.465589471161366">
        <ele>578</ele>
        <time>2026-08-29T07:10:15Z</time>
      </trkpt>
      <trkpt lat="50.674263210967183" lon="13.465555105358362">
        <ele>578</ele>
        <time>2026-08-29T07:10:16Z</time>
      </trkpt>
      <trkpt lat="50.674233622848988" lon="13.46553205512464">
        <ele>578</ele>
        <time>2026-08-29T07:10:17Z</time>
      </trkpt>
      <trkpt lat="50.674204034730792" lon="13.465508250519633">
        <ele>578</ele>
        <time>2026-08-29T07:10:18Z</time>
      </trkpt>
      <trkpt lat="50.674177631735802" lon="13.465484445914626">
        <ele>578</ele>
        <time>2026-08-29T07:10:19Z</time>
      </trkpt>
      <trkpt lat="50.674157012254" lon="13.465467095375061">
        <ele>578</ele>
        <time>2026-08-29T07:10:20Z</time>
      </trkpt>
      <trkpt lat="50.674144104123116" lon="13.465455947443843">
        <ele>578</ele>
        <time>2026-08-29T07:10:21Z</time>
      </trkpt>
      <trkpt lat="50.674138991162181" lon="13.46545041538775">
        <ele>578</ele>
        <time>2026-08-29T07:10:22Z</time>
      </trkpt>
      <trkpt lat="50.674141002818942" lon="13.465452594682574">
        <ele>577</ele>
        <time>2026-08-29T07:10:23Z</time>
      </trkpt>
      <trkpt lat="50.674141421914101" lon="13.465452259406447">
        <ele>577</ele>
        <time>2026-08-29T07:10:24Z</time>
      </trkpt>
      <trkpt lat="50.674141170457006" lon="13.465452259406447">
        <ele>577</ele>
        <time>2026-08-29T07:10:25Z</time>
      </trkpt>
      <trkpt lat="50.674141170457006" lon="13.465452259406447">
        <ele>577</ele>
        <time>2026-08-29T07:10:26Z</time>
      </trkpt>
      <trkpt lat="50.674142008647323" lon="13.46545435488224">
        <ele>578</ele>
        <time>2026-08-29T07:10:27Z</time>
      </trkpt>
      <trkpt lat="50.674139158800244" lon="13.465456031262875">
        <ele>578</ele>
        <time>2026-08-29T07:10:28Z</time>
      </trkpt>
      <trkpt lat="50.674135219305754" lon="13.465450331568718">
        <ele>578</ele>
        <time>2026-08-29T07:10:29Z</time>
      </trkpt>
      <trkpt lat="50.674135135486722" lon="13.465453516691923">
        <ele>579</ele>
        <time>2026-08-29T07:10:30Z</time>
      </trkpt>
      <trkpt lat="50.674135219305754" lon="13.465453768149018">
        <ele>579</ele>
        <time>2026-08-29T07:10:31Z</time>
      </trkpt>
      <trkpt lat="50.674135303124785" lon="13.465452846139669">
        <ele>579</ele>
        <time>2026-08-29T07:10:32Z</time>
      </trkpt>
      <trkpt lat="50.674135386943817" lon="13.465452007949352">
        <ele>579</ele>
        <time>2026-08-29T07:10:33Z</time>
      </trkpt>
      <trkpt lat="50.674135470762849" lon="13.46545142121613">
        <ele>579</ele>
        <time>2026-08-29T07:10:34Z</time>
      </trkpt>
      <trkpt lat="50.674135554581881" lon="13.46545091830194">
        <ele>579</ele>
        <time>2026-08-29T07:10:35Z</time>
      </trkpt>
      <trkpt lat="50.674131531268358" lon="13.46546215005219">
        <ele>579</ele>
        <time>2026-08-29T07:10:36Z</time>
      </trkpt>
      <trkpt lat="50.67412817850709" lon="13.465469107031822">
        <ele>579</ele>
        <time>2026-08-29T07:10:37Z</time>
      </trkpt>
      <trkpt lat="50.674128010869026" lon="13.465469107031822">
        <ele>579</ele>
        <time>2026-08-29T07:10:38Z</time>
      </trkpt>
      <trkpt lat="50.674128010869026" lon="13.465469442307949">
        <ele>579</ele>
        <time>2026-08-29T07:10:39Z</time>
      </trkpt>
      <trkpt lat="50.674127843230963" lon="13.465469442307949">
        <ele>579</ele>
        <time>2026-08-29T07:10:40Z</time>
      </trkpt>
      <trkpt lat="50.674127843230963" lon="13.465469442307949">
        <ele>579</ele>
        <time>2026-08-29T07:10:41Z</time>
      </trkpt>
      <trkpt lat="50.674127927049994" lon="13.465469274669886">
        <ele>579</ele>
        <time>2026-08-29T07:10:42Z</time>
      </trkpt>
      <trkpt lat="50.674127759411931" lon="13.465468436479568">
        <ele>579</ele>
        <time>2026-08-29T07:10:43Z</time>
      </trkpt>
      <trkpt lat="50.674127927049994" lon="13.465468268841505">
        <ele>579</ele>
        <time>2026-08-29T07:10:44Z</time>
      </trkpt>
      <trkpt lat="50.674128010869026" lon="13.465468101203442">
        <ele>579</ele>
        <time>2026-08-29T07:10:45Z</time>
      </trkpt>
      <trkpt lat="50.674128094688058" lon="13.465468268841505">
        <ele>579</ele>
        <time>2026-08-29T07:10:46Z</time>
      </trkpt>
      <trkpt lat="50.674128262326121" lon="13.465468101203442">
        <ele>579</ele>
        <time>2026-08-29T07:10:47Z</time>
      </trkpt>
      <trkpt lat="50.674128429964185" lon="13.465467765927315">
        <ele>579</ele>
        <time>2026-08-29T07:10:48Z</time>
      </trkpt>
      <trkpt lat="50.674128429964185" lon="13.465467430651188">
        <ele>579</ele>
        <time>2026-08-29T07:10:49Z</time>
      </trkpt>
      <trkpt lat="50.674128597602248" lon="13.465467346832156">
        <ele>579</ele>
        <time>2026-08-29T07:10:50Z</time>
      </trkpt>
      <trkpt lat="50.674128597602248" lon="13.465467179194093">
        <ele>579</ele>
        <time>2026-08-29T07:10:51Z</time>
      </trkpt>
      <trkpt lat="50.674128597602248" lon="13.465466927736998">
        <ele>579</ele>
        <time>2026-08-29T07:10:52Z</time>
      </trkpt>
      <trkpt lat="50.674128597602248" lon="13.465466843917966">
        <ele>579</ele>
        <time>2026-08-29T07:10:53Z</time>
      </trkpt>
      <trkpt lat="50.67412868142128" lon="13.465466843917966">
        <ele>579</ele>
        <time>2026-08-29T07:10:54Z</time>
      </trkpt>
      <trkpt lat="50.674128597602248" lon="13.465466760098934">
        <ele>579</ele>
        <time>2026-08-29T07:10:55Z</time>
      </trkpt>
      <trkpt lat="50.674128597602248" lon="13.465466927736998">
        <ele>579</ele>
        <time>2026-08-29T07:10:56Z</time>
      </trkpt>
      <trkpt lat="50.674128597602248" lon="13.465467179194093">
        <ele>579</ele>
        <time>2026-08-29T07:10:57Z</time>
      </trkpt>
      <trkpt lat="50.674128513783216" lon="13.465467263013124">
        <ele>579</ele>
        <time>2026-08-29T07:10:58Z</time>
      </trkpt>
      <trkpt lat="50.674128513783216" lon="13.465467095375061">
        <ele>579</ele>
        <time>2026-08-29T07:10:59Z</time>
      </trkpt>
      <trkpt lat="50.674126669764519" lon="13.465479919686913">
        <ele>580</ele>
        <time>2026-08-29T07:11:00Z</time>
      </trkpt>
      <trkpt lat="50.674131028354168" lon="13.465484445914626">
        <ele>580</ele>
        <time>2026-08-29T07:11:01Z</time>
      </trkpt>
      <trkpt lat="50.674133123829961" lon="13.465479416772723">
        <ele>580</ele>
        <time>2026-08-29T07:11:02Z</time>
      </trkpt>
      <trkpt lat="50.67413505166769" lon="13.465478746220469">
        <ele>580</ele>
        <time>2026-08-29T07:11:03Z</time>
      </trkpt>
      <trkpt lat="50.674135386943817" lon="13.465481596067548">
        <ele>580</ele>
        <time>2026-08-29T07:11:04Z</time>
      </trkpt>
      <trkpt lat="50.674137063324451" lon="13.465486960485578">
        <ele>580</ele>
        <time>2026-08-29T07:11:05Z</time>
      </trkpt>
      <trkpt lat="50.674141757190228" lon="13.465487211942673">
        <ele>580</ele>
        <time>2026-08-29T07:11:06Z</time>
      </trkpt>
      <trkpt lat="50.67413404583931" lon="13.465476650744677">
        <ele>580</ele>
        <time>2026-08-29T07:11:07Z</time>
      </trkpt>
      <trkpt lat="50.674125077202916" lon="13.465466927736998">
        <ele>579</ele>
        <time>2026-08-29T07:11:08Z</time>
      </trkpt>
      <trkpt lat="50.674112588167191" lon="13.465449661016464">
        <ele>579</ele>
        <time>2026-08-29T07:11:09Z</time>
      </trkpt>
      <trkpt lat="50.674098087474704" lon="13.465436669066548">
        <ele>579</ele>
        <time>2026-08-29T07:11:10Z</time>
      </trkpt>
      <trkpt lat="50.674084844067693" lon="13.465422419831157">
        <ele>579</ele>
        <time>2026-08-29T07:11:11Z</time>
      </trkpt>
      <trkpt lat="50.674070259556174" lon="13.465401800349355">
        <ele>579</ele>
        <time>2026-08-29T07:11:12Z</time>
      </trkpt>
      <trkpt lat="50.674053747206926" lon="13.465384533628821">
        <ele>579</ele>
        <time>2026-08-29T07:11:13Z</time>
      </trkpt>
      <trkpt lat="50.674032038077712" lon="13.465364500880241">
        <ele>579</ele>
        <time>2026-08-29T07:11:14Z</time>
      </trkpt>
      <trkpt lat="50.674008401110768" lon="13.465352766215801">
        <ele>579</ele>
        <time>2026-08-29T07:11:15Z</time>
      </trkpt>
      <trkpt lat="50.673992140218616" lon="13.465342372655869">
        <ele>579</ele>
        <time>2026-08-29T07:11:16Z</time>
      </trkpt>
      <trkpt lat="50.673966743052006" lon="13.465319741517305">
        <ele>578</ele>
        <time>2026-08-29T07:11:17Z</time>
      </trkpt>
      <trkpt lat="50.673947716131806" lon="13.465297361835837">
        <ele>578</ele>
        <time>2026-08-29T07:11:18Z</time>
      </trkpt>
      <trkpt lat="50.673933802172542" lon="13.465274311602116">
        <ele>578</ele>
        <time>2026-08-29T07:11:19Z</time>
      </trkpt>
      <trkpt lat="50.673935310915112" lon="13.465226786211133">
        <ele>578</ele>
        <time>2026-08-29T07:11:20Z</time>
      </trkpt>
      <trkpt lat="50.673954170197248" lon="13.465167274698615">
        <ele>578</ele>
        <time>2026-08-29T07:11:21Z</time>
      </trkpt>
      <trkpt lat="50.673971688374877" lon="13.465111199766397">
        <ele>577</ele>
        <time>2026-08-29T07:11:22Z</time>
      </trkpt>
      <trkpt lat="50.673991218209267" lon="13.465054370462894">
        <ele>577</ele>
        <time>2026-08-29T07:11:23Z</time>
      </trkpt>
      <trkpt lat="50.674005132168531" lon="13.464997541159391">
        <ele>577</ele>
        <time>2026-08-29T07:11:24Z</time>
      </trkpt>
      <trkpt lat="50.674018878489733" lon="13.464947501197457">
        <ele>578</ele>
        <time>2026-08-29T07:11:25Z</time>
      </trkpt>
      <trkpt lat="50.67403731867671" lon="13.464902322739363">
        <ele>578</ele>
        <time>2026-08-29T07:11:26Z</time>
      </trkpt>
      <trkpt lat="50.674044862389565" lon="13.464835854247212">
        <ele>577</ele>
        <time>2026-08-29T07:11:27Z</time>
      </trkpt>
      <trkpt lat="50.674052406102419" lon="13.464751113206148">
        <ele>576</ele>
        <time>2026-08-29T07:11:28Z</time>
      </trkpt>
      <trkpt lat="50.674062799662352" lon="13.464661259204149">
        <ele>576</ele>
        <time>2026-08-29T07:11:29Z</time>
      </trkpt>
      <trkpt lat="50.674072690308094" lon="13.464578948915005">
        <ele>575</ele>
        <time>2026-08-29T07:11:30Z</time>
      </trkpt>
      <trkpt lat="50.674086520448327" lon="13.464492866769433">
        <ele>575</ele>
        <time>2026-08-29T07:11:31Z</time>
      </trkpt>
      <trkpt lat="50.674098087474704" lon="13.464405946433544">
        <ele>575</ele>
        <time>2026-08-29T07:11:32Z</time>
      </trkpt>
      <trkpt lat="50.674107056111097" lon="13.464319193735719">
        <ele>574</ele>
        <time>2026-08-29T07:11:33Z</time>
      </trkpt>
      <trkpt lat="50.674120550975204" lon="13.464229004457593">
        <ele>574</ele>
        <time>2026-08-29T07:11:34Z</time>
      </trkpt>
      <trkpt lat="50.674127759411931" lon="13.464136552065611">
        <ele>575</ele>
        <time>2026-08-29T07:11:35Z</time>
      </trkpt>
      <trkpt lat="50.674132201820612" lon="13.464054325595498">
        <ele>576</ele>
        <time>2026-08-29T07:11:36Z</time>
      </trkpt>
      <trkpt lat="50.674131195992231" lon="13.463962879031897">
        <ele>576</ele>
        <time>2026-08-29T07:11:37Z</time>
      </trkpt>
      <trkpt lat="50.674134297296405" lon="13.46388584934175">
        <ele>576</ele>
        <time>2026-08-29T07:11:38Z</time>
      </trkpt>
      <trkpt lat="50.674141924828291" lon="13.463812507688999">
        <ele>577</ele>
        <time>2026-08-29T07:11:39Z</time>
      </trkpt>
      <trkpt lat="50.674148881807923" lon="13.463740590959787">
        <ele>577</ele>
        <time>2026-08-29T07:11:40Z</time>
      </trkpt>
      <trkpt lat="50.674152821302414" lon="13.463674709200859">
        <ele>578</ele>
        <time>2026-08-29T07:11:41Z</time>
      </trkpt>
      <trkpt lat="50.674152737483382" lon="13.463609497994184">
        <ele>577</ele>
        <time>2026-08-29T07:11:42Z</time>
      </trkpt>
      <trkpt lat="50.674150558188558" lon="13.463552417233586">
        <ele>577</ele>
        <time>2026-08-29T07:11:43Z</time>
      </trkpt>
      <trkpt lat="50.674138488247991" lon="13.463491732254624">
        <ele>577</ele>
        <time>2026-08-29T07:11:44Z</time>
      </trkpt>
      <trkpt lat="50.674122059717774" lon="13.463447978720069">
        <ele>577</ele>
        <time>2026-08-29T07:11:45Z</time>
      </trkpt>
      <trkpt lat="50.674091884866357" lon="13.463416211307049">
        <ele>576</ele>
        <time>2026-08-29T07:11:46Z</time>
      </trkpt>
      <trkpt lat="50.674060871824622" lon="13.463383186608553">
        <ele>577</ele>
        <time>2026-08-29T07:11:47Z</time>
      </trkpt>
      <trkpt lat="50.674026338383555" lon="13.463354771956801">
        <ele>576</ele>
        <time>2026-08-29T07:11:48Z</time>
      </trkpt>
      <trkpt lat="50.673993648961186" lon="13.463325435295701">
        <ele>576</ele>
        <time>2026-08-29T07:11:49Z</time>
      </trkpt>
      <trkpt lat="50.673960791900754" lon="13.463287968188524">
        <ele>576</ele>
        <time>2026-08-29T07:11:50Z</time>
      </trkpt>
      <trkpt lat="50.673930197954178" lon="13.463253183290362">
        <ele>576</ele>
        <time>2026-08-29T07:11:51Z</time>
      </trkpt>
      <trkpt lat="50.6739048846066" lon="13.463215213268995">
        <ele>575</ele>
        <time>2026-08-29T07:11:52Z</time>
      </trkpt>
      <trkpt lat="50.673873452469707" lon="13.463179925456643">
        <ele>575</ele>
        <time>2026-08-29T07:11:53Z</time>
      </trkpt>
      <trkpt lat="50.673849396407604" lon="13.463134244084358">
        <ele>575</ele>
        <time>2026-08-29T07:11:54Z</time>
      </trkpt>
      <trkpt lat="50.673825507983565" lon="13.463072385638952">
        <ele>575</ele>
        <time>2026-08-29T07:11:55Z</time>
      </trkpt>
      <trkpt lat="50.673799691721797" lon="13.463008347898722">
        <ele>574</ele>
        <time>2026-08-29T07:11:56Z</time>
      </trkpt>
      <trkpt lat="50.673772031441331" lon="13.462959313765168">
        <ele>575</ele>
        <time>2026-08-29T07:11:57Z</time>
      </trkpt>
      <trkpt lat="50.673741772770882" lon="13.462896617129445">
        <ele>575</ele>
        <time>2026-08-29T07:11:58Z</time>
      </trkpt>
      <trkpt lat="50.673719560727477" lon="13.462833501398563">
        <ele>575</ele>
        <time>2026-08-29T07:11:59Z</time>
      </trkpt>
      <trkpt lat="50.673694917932153" lon="13.462775414809585">
        <ele>575</ele>
        <time>2026-08-29T07:12:00Z</time>
      </trkpt>
      <trkpt lat="50.673666084185243" lon="13.462717412039638">
        <ele>575</ele>
        <time>2026-08-29T07:12:01Z</time>
      </trkpt>
      <trkpt lat="50.673639010637999" lon="13.462660247460008">
        <ele>575</ele>
        <time>2026-08-29T07:12:02Z</time>
      </trkpt>
      <trkpt lat="50.673611601814628" lon="13.462599562481046">
        <ele>574</ele>
        <time>2026-08-29T07:12:03Z</time>
      </trkpt>
      <trkpt lat="50.673584779724479" lon="13.462532507255673">
        <ele>574</ele>
        <time>2026-08-29T07:12:04Z</time>
      </trkpt>
      <trkpt lat="50.673558209091425" lon="13.462460339069366">
        <ele>574</ele>
        <time>2026-08-29T07:12:05Z</time>
      </trkpt>
      <trkpt lat="50.673529878258705" lon="13.462401833385229">
        <ele>573</ele>
        <time>2026-08-29T07:12:06Z</time>
      </trkpt>
      <trkpt lat="50.673505822196603" lon="13.462338298559189">
        <ele>574</ele>
        <time>2026-08-29T07:12:07Z</time>
      </trkpt>
      <trkpt lat="50.673474054783583" lon="13.462273506447673">
        <ele>575</ele>
        <time>2026-08-29T07:12:08Z</time>
      </trkpt>
      <trkpt lat="50.673449747264385" lon="13.462204104289412">
        <ele>575</ele>
        <time>2026-08-29T07:12:09Z</time>
      </trkpt>
      <trkpt lat="50.673420997336507" lon="13.462132858112454">
        <ele>575</ele>
        <time>2026-08-29T07:12:10Z</time>
      </trkpt>
      <trkpt lat="50.673392415046692" lon="13.46206521615386">
        <ele>575</ele>
        <time>2026-08-29T07:12:11Z</time>
      </trkpt>
      <trkpt lat="50.673361318185925" lon="13.46200461499393">
        <ele>574</ele>
        <time>2026-08-29T07:12:12Z</time>
      </trkpt>
      <trkpt lat="50.673330221325159" lon="13.461933620274067">
        <ele>574</ele>
        <time>2026-08-29T07:12:13Z</time>
      </trkpt>
      <trkpt lat="50.673300297930837" lon="13.461857596412301">
        <ele>574</ele>
        <time>2026-08-29T07:12:14Z</time>
      </trkpt>
      <trkpt lat="50.673272218555212" lon="13.46178081817925">
        <ele>573</ele>
        <time>2026-08-29T07:12:15Z</time>
      </trkpt>
      <trkpt lat="50.673244139179587" lon="13.461716948077083">
        <ele>572</ele>
        <time>2026-08-29T07:12:16Z</time>
      </trkpt>
      <trkpt lat="50.673218322917819" lon="13.461633548140526">
        <ele>572</ele>
        <time>2026-08-29T07:12:17Z</time>
      </trkpt>
      <trkpt lat="50.673198122531176" lon="13.461543777957559">
        <ele>571</ele>
        <time>2026-08-29T07:12:18Z</time>
      </trkpt>
      <trkpt lat="50.673184711486101" lon="13.461451325565577">
        <ele>571</ele>
        <time>2026-08-29T07:12:19Z</time>
      </trkpt>
      <trkpt lat="50.67316853441298" lon="13.46135962754488">
        <ele>571</ele>
        <time>2026-08-29T07:12:20Z</time>
      </trkpt>
      <trkpt lat="50.673151770606637" lon="13.461268432438374">
        <ele>570</ele>
        <time>2026-08-29T07:12:21Z</time>
      </trkpt>
      <trkpt lat="50.673142885789275" lon="13.461172543466091">
        <ele>570</ele>
        <time>2026-08-29T07:12:22Z</time>
      </trkpt>
      <trkpt lat="50.673137018457055" lon="13.461078247055411">
        <ele>570</ele>
        <time>2026-08-29T07:12:23Z</time>
      </trkpt>
      <trkpt lat="50.673132240772247" lon="13.460993841290474">
        <ele>570</ele>
        <time>2026-08-29T07:12:24Z</time>
      </trkpt>
      <trkpt lat="50.673129139468074" lon="13.460904490202665">
        <ele>570</ele>
        <time>2026-08-29T07:12:25Z</time>
      </trkpt>
      <trkpt lat="50.673128552734852" lon="13.460815558210015">
        <ele>570</ele>
        <time>2026-08-29T07:12:26Z</time>
      </trkpt>
      <trkpt lat="50.673132324591279" lon="13.460734086111188">
        <ele>570</ele>
        <time>2026-08-29T07:12:27Z</time>
      </trkpt>
      <trkpt lat="50.673132156953216" lon="13.460646495223045">
        <ele>570</ele>
        <time>2026-08-29T07:12:28Z</time>
      </trkpt>
      <trkpt lat="50.673137689009309" lon="13.460568878799677">
        <ele>570</ele>
        <time>2026-08-29T07:12:29Z</time>
      </trkpt>
      <trkpt lat="50.673135342076421" lon="13.460495034232736">
        <ele>570</ele>
        <time>2026-08-29T07:12:30Z</time>
      </trkpt>
      <trkpt lat="50.67313676699996" lon="13.460409957915545">
        <ele>570</ele>
        <time>2026-08-29T07:12:31Z</time>
      </trkpt>
      <trkpt lat="50.673139030113816" lon="13.460327563807368">
        <ele>570</ele>
        <time>2026-08-29T07:12:32Z</time>
      </trkpt>
      <trkpt lat="50.673140119761229" lon="13.46024751663208">
        <ele>571</ele>
        <time>2026-08-29T07:12:33Z</time>
      </trkpt>
      <trkpt lat="50.673145987093449" lon="13.460175264626741">
        <ele>570</ele>
        <time>2026-08-29T07:12:34Z</time>
      </trkpt>
      <trkpt lat="50.673155458644032" lon="13.460113070905209">
        <ele>570</ele>
        <time>2026-08-29T07:12:35Z</time>
      </trkpt>
      <trkpt lat="50.673158559948206" lon="13.460059342905879">
        <ele>570</ele>
        <time>2026-08-29T07:12:36Z</time>
      </trkpt>
      <trkpt lat="50.673164008185267" lon="13.460017936304212">
        <ele>570</ele>
        <time>2026-08-29T07:12:37Z</time>
      </trkpt>
      <trkpt lat="50.67316903732717" lon="13.459980888292193">
        <ele>570</ele>
        <time>2026-08-29T07:12:38Z</time>
      </trkpt>
      <trkpt lat="50.67317197099328" lon="13.459965381771326">
        <ele>570</ele>
        <time>2026-08-29T07:12:39Z</time>
      </trkpt>
      <trkpt lat="50.673163672909141" lon="13.459957502782345">
        <ele>569</ele>
        <time>2026-08-29T07:12:40Z</time>
      </trkpt>
      <trkpt lat="50.673163840547204" lon="13.459957838058472">
        <ele>569</ele>
        <time>2026-08-29T07:12:41Z</time>
      </trkpt>
      <trkpt lat="50.673160990700126" lon="13.45996311865747">
        <ele>568</ele>
        <time>2026-08-29T07:12:42Z</time>
      </trkpt>
      <trkpt lat="50.673164427280426" lon="13.45995725132525">
        <ele>568</ele>
        <time>2026-08-29T07:12:43Z</time>
      </trkpt>
      <trkpt lat="50.673165349289775" lon="13.4599528927356">
        <ele>568</ele>
        <time>2026-08-29T07:12:44Z</time>
      </trkpt>
      <trkpt lat="50.673168199136853" lon="13.459941744804382">
        <ele>569</ele>
        <time>2026-08-29T07:12:45Z</time>
      </trkpt>
      <trkpt lat="50.673162247985601" lon="13.459946773946285">
        <ele>569</ele>
        <time>2026-08-29T07:12:46Z</time>
      </trkpt>
      <trkpt lat="50.673166019842029" lon="13.459945181384683">
        <ele>569</ele>
        <time>2026-08-29T07:12:47Z</time>
      </trkpt>
      <trkpt lat="50.673168199136853" lon="13.459954988211393">
        <ele>569</ele>
        <time>2026-08-29T07:12:48Z</time>
      </trkpt>
      <trkpt lat="50.673168618232012" lon="13.459955742582679">
        <ele>569</ele>
        <time>2026-08-29T07:12:49Z</time>
      </trkpt>
      <trkpt lat="50.673172809183598" lon="13.459957083687186">
        <ele>569</ele>
        <time>2026-08-29T07:12:50Z</time>
      </trkpt>
      <trkpt lat="50.673170294612646" lon="13.459957502782345">
        <ele>569</ele>
        <time>2026-08-29T07:12:51Z</time>
      </trkpt>
      <trkpt lat="50.673173982650042" lon="13.459956664592028">
        <ele>570</ele>
        <time>2026-08-29T07:12:52Z</time>
      </trkpt>
      <trkpt lat="50.673171551898122" lon="13.459953563287854">
        <ele>570</ele>
        <time>2026-08-29T07:12:53Z</time>
      </trkpt>
      <trkpt lat="50.673171551898122" lon="13.459953311830759">
        <ele>570</ele>
        <time>2026-08-29T07:12:54Z</time>
      </trkpt>
      <trkpt lat="50.67317146807909" lon="13.459953479468822">
        <ele>570</ele>
        <time>2026-08-29T07:12:55Z</time>
      </trkpt>
      <trkpt lat="50.673172390088439" lon="13.459946438670158">
        <ele>570</ele>
        <time>2026-08-29T07:12:56Z</time>
      </trkpt>
      <trkpt lat="50.673167612403631" lon="13.45994551666081">
        <ele>569</ele>
        <time>2026-08-29T07:12:57Z</time>
      </trkpt>
      <trkpt lat="50.673166858032346" lon="13.459938392043114">
        <ele>570</ele>
        <time>2026-08-29T07:12:58Z</time>
      </trkpt>
      <trkpt lat="50.673166522756219" lon="13.459933865815401">
        <ele>569</ele>
        <time>2026-08-29T07:12:59Z</time>
      </trkpt>
      <trkpt lat="50.673164678737521" lon="13.45993285998702">
        <ele>569</ele>
        <time>2026-08-29T07:13:00Z</time>
      </trkpt>
      <trkpt lat="50.673162080347538" lon="13.459940236061811">
        <ele>568</ele>
        <time>2026-08-29T07:13:01Z</time>
      </trkpt>
      <trkpt lat="50.673162583261728" lon="13.459942080080509">
        <ele>567</ele>
        <time>2026-08-29T07:13:02Z</time>
      </trkpt>
      <trkpt lat="50.673164427280426" lon="13.459946019575">
        <ele>567</ele>
        <time>2026-08-29T07:13:03Z</time>
      </trkpt>
      <trkpt lat="50.673163840547204" lon="13.459945265203714">
        <ele>566</ele>
        <time>2026-08-29T07:13:04Z</time>
      </trkpt>
      <trkpt lat="50.673166522756219" lon="13.459947360679507">
        <ele>566</ele>
        <time>2026-08-29T07:13:05Z</time>
      </trkpt>
      <trkpt lat="50.673172222450376" lon="13.459945097565651">
        <ele>566</ele>
        <time>2026-08-29T07:13:06Z</time>
      </trkpt>
      <trkpt lat="50.673172641545534" lon="13.459945097565651">
        <ele>566</ele>
        <time>2026-08-29T07:13:07Z</time>
      </trkpt>
      <trkpt lat="50.673178425058722" lon="13.459945684298873">
        <ele>566</ele>
        <time>2026-08-29T07:13:08Z</time>
      </trkpt>
      <trkpt lat="50.673184124752879" lon="13.459944594651461">
        <ele>566</ele>
        <time>2026-08-29T07:13:09Z</time>
      </trkpt>
      <trkpt lat="50.673191081732512" lon="13.459956916049123">
        <ele>565</ele>
        <time>2026-08-29T07:13:10Z</time>
      </trkpt>
      <trkpt lat="50.673206001520157" lon="13.459969405084848">
        <ele>565</ele>
        <time>2026-08-29T07:13:11Z</time>
      </trkpt>
      <trkpt lat="50.673217149451375" lon="13.459983738139272">
        <ele>565</ele>
        <time>2026-08-29T07:13:12Z</time>
      </trkpt>
      <trkpt lat="50.673229470849037" lon="13.459989773109555">
        <ele>565</ele>
        <time>2026-08-29T07:13:13Z</time>
      </trkpt>
      <trkpt lat="50.673239612951875" lon="13.460005195811391">
        <ele>565</ele>
        <time>2026-08-29T07:13:14Z</time>
      </trkpt>
      <trkpt lat="50.673253023996949" lon="13.460010727867484">
        <ele>565</ele>
        <time>2026-08-29T07:13:15Z</time>
      </trkpt>
      <trkpt lat="50.673268111422658" lon="13.460019277408719">
        <ele>566</ele>
        <time>2026-08-29T07:13:16Z</time>
      </trkpt>
      <trkpt lat="50.673278588801622" lon="13.460022211074829">
        <ele>567</ele>
        <time>2026-08-29T07:13:17Z</time>
      </trkpt>
      <trkpt lat="50.673292838037014" lon="13.460025228559971">
        <ele>567</ele>
        <time>2026-08-29T07:13:18Z</time>
      </trkpt>
      <trkpt lat="50.673307757824659" lon="13.460030173882842">
        <ele>567</ele>
        <time>2026-08-29T07:13:19Z</time>
      </trkpt>
      <trkpt lat="50.673313541337848" lon="13.460030844435096">
        <ele>567</ele>
        <time>2026-08-29T07:13:20Z</time>
      </trkpt>
      <trkpt lat="50.673325192183256" lon="13.460034364834428">
        <ele>567</ele>
        <time>2026-08-29T07:13:21Z</time>
      </trkpt>
      <trkpt lat="50.673336759209633" lon="13.46003151498735">
        <ele>567</ele>
        <time>2026-08-29T07:13:22Z</time>
      </trkpt>
      <trkpt lat="50.673342207446694" lon="13.46003444865346">
        <ele>567</ele>
        <time>2026-08-29T07:13:23Z</time>
      </trkpt>
      <trkpt lat="50.673345644026995" lon="13.460045680403709">
        <ele>568</ele>
        <time>2026-08-29T07:13:24Z</time>
      </trkpt>
      <trkpt lat="50.673351930454373" lon="13.460058756172657">
        <ele>568</ele>
        <time>2026-08-29T07:13:25Z</time>
      </trkpt>
      <trkpt lat="50.673355367034674" lon="13.460064120590687">
        <ele>567</ele>
        <time>2026-08-29T07:13:26Z</time>
      </trkpt>
      <trkpt lat="50.673364503309131" lon="13.460066551342607">
        <ele>568</ele>
        <time>2026-08-29T07:13:27Z</time>
      </trkpt>
      <trkpt lat="50.673361569643021" lon="13.460074011236429">
        <ele>569</ele>
        <time>2026-08-29T07:13:28Z</time>
      </trkpt>
      <trkpt lat="50.673359055072069" lon="13.460080465301871">
        <ele>569</ele>
        <time>2026-08-29T07:13:29Z</time>
      </trkpt>
      <trkpt lat="50.673358468338847" lon="13.46008038148284">
        <ele>569</ele>
        <time>2026-08-29T07:13:30Z</time>
      </trkpt>
      <trkpt lat="50.673353942111135" lon="13.460083482787013">
        <ele>569</ele>
        <time>2026-08-29T07:13:31Z</time>
      </trkpt>
      <trkpt lat="50.673352098092437" lon="13.460083566606045">
        <ele>569</ele>
        <time>2026-08-29T07:13:32Z</time>
      </trkpt>
      <trkpt lat="50.673349751159549" lon="13.460080800577998">
        <ele>569</ele>
        <time>2026-08-29T07:13:33Z</time>
      </trkpt>
      <trkpt lat="50.673349751159549" lon="13.460073256865144">
        <ele>569</ele>
        <time>2026-08-29T07:13:34Z</time>
      </trkpt>
      <trkpt lat="50.673347907140851" lon="13.460056073963642">
        <ele>569</ele>
        <time>2026-08-29T07:13:35Z</time>
      </trkpt>
      <trkpt lat="50.673350254073739" lon="13.460047356784344">
        <ele>569</ele>
        <time>2026-08-29T07:13:36Z</time>
      </trkpt>
      <trkpt lat="50.673353858292103" lon="13.460032185539603">
        <ele>569</ele>
        <time>2026-08-29T07:13:37Z</time>
      </trkpt>
      <trkpt lat="50.673353439196944" lon="13.460021121427417">
        <ele>569</ele>
        <time>2026-08-29T07:13:38Z</time>
      </trkpt>
      <trkpt lat="50.673353187739849" lon="13.460010979324579">
        <ele>568</ele>
        <time>2026-08-29T07:13:39Z</time>
      </trkpt>
      <trkpt lat="50.673356959596276" lon="13.459998574107885">
        <ele>568</ele>
        <time>2026-08-29T07:13:40Z</time>
      </trkpt>
      <trkpt lat="50.673368275165558" lon="13.459996478632092">
        <ele>567</ele>
        <time>2026-08-29T07:13:41Z</time>
      </trkpt>
      <trkpt lat="50.673370622098446" lon="13.459991617128253">
        <ele>566</ele>
        <time>2026-08-29T07:13:42Z</time>
      </trkpt>
      <trkpt lat="50.673366850242019" lon="13.460002848878503">
        <ele>566</ele>
        <time>2026-08-29T07:13:43Z</time>
      </trkpt>
      <trkpt lat="50.673367269337177" lon="13.460002429783344">
        <ele>566</ele>
        <time>2026-08-29T07:13:44Z</time>
      </trkpt>
      <trkpt lat="50.673367269337177" lon="13.460001926869154">
        <ele>566</ele>
        <time>2026-08-29T07:13:45Z</time>
      </trkpt>
      <trkpt lat="50.673367436975241" lon="13.460001759231091">
        <ele>566</ele>
        <time>2026-08-29T07:13:46Z</time>
      </trkpt>
      <trkpt lat="50.673367436975241" lon="13.460001843050122">
        <ele>566</ele>
        <time>2026-08-29T07:13:47Z</time>
      </trkpt>
      <trkpt lat="50.673371879383922" lon="13.460002848878503">
        <ele>567</ele>
        <time>2026-08-29T07:13:48Z</time>
      </trkpt>
      <trkpt lat="50.673375818878412" lon="13.459998657926917">
        <ele>567</ele>
        <time>2026-08-29T07:13:49Z</time>
      </trkpt>
      <trkpt lat="50.673379171639681" lon="13.460000166669488">
        <ele>567</ele>
        <time>2026-08-29T07:13:50Z</time>
      </trkpt>
      <trkpt lat="50.673386799171567" lon="13.460005782544613">
        <ele>567</ele>
        <time>2026-08-29T07:13:51Z</time>
      </trkpt>
      <trkpt lat="50.673389229923487" lon="13.460007878020406">
        <ele>566</ele>
        <time>2026-08-29T07:13:52Z</time>
      </trkpt>
      <trkpt lat="50.673393001779914" lon="13.459988012909889">
        <ele>567</ele>
        <time>2026-08-29T07:13:53Z</time>
      </trkpt>
      <trkpt lat="50.673392750322819" lon="13.459987593814731">
        <ele>567</ele>
        <time>2026-08-29T07:13:54Z</time>
      </trkpt>
      <trkpt lat="50.673393420875072" lon="13.459981307387352">
        <ele>566</ele>
        <time>2026-08-29T07:13:55Z</time>
      </trkpt>
      <trkpt lat="50.673395851626992" lon="13.459974769502878">
        <ele>567</ele>
        <time>2026-08-29T07:13:56Z</time>
      </trkpt>
      <trkpt lat="50.673395851626992" lon="13.459974685683846">
        <ele>567</ele>
        <time>2026-08-29T07:13:57Z</time>
      </trkpt>
      <trkpt lat="50.673395935446024" lon="13.459974518045783">
        <ele>567</ele>
        <time>2026-08-29T07:13:58Z</time>
      </trkpt>
      <trkpt lat="50.67331706173718" lon="13.459836132824421">
        <ele>534</ele>
        <time>2026-08-29T07:31:41Z</time>
      </trkpt>
      <trkpt lat="50.673316139727831" lon="13.459836719557643">
        <ele>535</ele>
        <time>2026-08-29T07:31:42Z</time>
      </trkpt>
      <trkpt lat="50.673342710360885" lon="13.459835210815072">
        <ele>536</ele>
        <time>2026-08-29T07:31:43Z</time>
      </trkpt>
      <trkpt lat="50.673348410055041" lon="13.459841329604387">
        <ele>540</ele>
        <time>2026-08-29T07:31:44Z</time>
      </trkpt>
      <trkpt lat="50.673349499702454" lon="13.4598458558321">
        <ele>545</ele>
        <time>2026-08-29T07:31:45Z</time>
      </trkpt>
      <trkpt lat="50.673344638198614" lon="13.459850968793035">
        <ele>547</ele>
        <time>2026-08-29T07:31:46Z</time>
      </trkpt>
      <trkpt lat="50.67333759739995" lon="13.459838563576341">
        <ele>549</ele>
        <time>2026-08-29T07:31:47Z</time>
      </trkpt>
      <trkpt lat="50.673337429761887" lon="13.459829930216074">
        <ele>551</ele>
        <time>2026-08-29T07:31:48Z</time>
      </trkpt>
      <trkpt lat="50.67333810031414" lon="13.459818530827761">
        <ele>553</ele>
        <time>2026-08-29T07:31:49Z</time>
      </trkpt>
      <trkpt lat="50.673337178304791" lon="13.459794893860817">
        <ele>554</ele>
        <time>2026-08-29T07:31:50Z</time>
      </trkpt>
      <trkpt lat="50.673345727846026" lon="13.45977209508419">
        <ele>556</ele>
        <time>2026-08-29T07:31:51Z</time>
      </trkpt>
      <trkpt lat="50.673347488045692" lon="13.45974326133728">
        <ele>555</ele>
        <time>2026-08-29T07:31:52Z</time>
      </trkpt>
      <trkpt lat="50.6733522657305" lon="13.459727754816413">
        <ele>554</ele>
        <time>2026-08-29T07:31:53Z</time>
      </trkpt>
      <trkpt lat="50.673356791958213" lon="13.459701687097549">
        <ele>554</ele>
        <time>2026-08-29T07:31:54Z</time>
      </trkpt>
      <trkpt lat="50.673350254073739" lon="13.45967335626483">
        <ele>555</ele>
        <time>2026-08-29T07:31:55Z</time>
      </trkpt>
      <trkpt lat="50.673335921019316" lon="13.459641253575683">
        <ele>555</ele>
        <time>2026-08-29T07:31:56Z</time>
      </trkpt>
      <trkpt lat="50.673305746167898" lon="13.459633961319923">
        <ele>557</ele>
        <time>2026-08-29T07:31:57Z</time>
      </trkpt>
      <trkpt lat="50.673281690105796" lon="13.459655921906233">
        <ele>558</ele>
        <time>2026-08-29T07:31:58Z</time>
      </trkpt>
      <trkpt lat="50.673262579366565" lon="13.45969146117568">
        <ele>558</ele>
        <time>2026-08-29T07:31:59Z</time>
      </trkpt>
      <trkpt lat="50.673255370929837" lon="13.45974032767117">
        <ele>558</ele>
        <time>2026-08-29T07:32:00Z</time>
      </trkpt>
      <trkpt lat="50.673256292939186" lon="13.459796234965324">
        <ele>558</ele>
        <time>2026-08-29T07:32:01Z</time>
      </trkpt>
      <trkpt lat="50.673251431435347" lon="13.459855578839779">
        <ele>558</ele>
        <time>2026-08-29T07:32:02Z</time>
      </trkpt>
      <trkpt lat="50.673250090330839" lon="13.459923472255468">
        <ele>559</ele>
        <time>2026-08-29T07:32:03Z</time>
      </trkpt>
      <trkpt lat="50.673254281282425" lon="13.459993880242109">
        <ele>560</ele>
        <time>2026-08-29T07:32:04Z</time>
      </trkpt>
      <trkpt lat="50.673251263797283" lon="13.460046937689185">
        <ele>560</ele>
        <time>2026-08-29T07:32:05Z</time>
      </trkpt>
      <trkpt lat="50.673245647922158" lon="13.460100162774324">
        <ele>560</ele>
        <time>2026-08-29T07:32:06Z</time>
      </trkpt>
      <trkpt lat="50.673243552446365" lon="13.460153555497527">
        <ele>560</ele>
        <time>2026-08-29T07:32:07Z</time>
      </trkpt>
      <trkpt lat="50.673240032047033" lon="13.460208121687174">
        <ele>560</ele>
        <time>2026-08-29T07:32:08Z</time>
      </trkpt>
      <trkpt lat="50.673234080895782" lon="13.460262520238757">
        <ele>561</ele>
        <time>2026-08-29T07:32:09Z</time>
      </trkpt>
      <trkpt lat="50.673225279897451" lon="13.460297305136919">
        <ele>561</ele>
        <time>2026-08-29T07:32:10Z</time>
      </trkpt>
      <trkpt lat="50.673202900215983" lon="13.460314236581326">
        <ele>561</ele>
        <time>2026-08-29T07:32:11Z</time>
      </trkpt>
      <trkpt lat="50.673176581040025" lon="13.460314488038421">
        <ele>562</ele>
        <time>2026-08-29T07:32:12Z</time>
      </trkpt>
      <trkpt lat="50.673157470300794" lon="13.460299903526902">
        <ele>562</ele>
        <time>2026-08-29T07:32:13Z</time>
      </trkpt>
      <trkpt lat="50.67314556799829" lon="13.460260257124901">
        <ele>563</ele>
        <time>2026-08-29T07:32:14Z</time>
      </trkpt>
      <trkpt lat="50.673141879960895" lon="13.46019915305078">
        <ele>564</ele>
        <time>2026-08-29T07:32:15Z</time>
      </trkpt>
      <trkpt lat="50.673146992921829" lon="13.460149113088846">
        <ele>564</ele>
        <time>2026-08-29T07:32:16Z</time>
      </trkpt>
      <trkpt lat="50.673154620453715" lon="13.460093876346946">
        <ele>564</ele>
        <time>2026-08-29T07:32:17Z</time>
      </trkpt>
      <trkpt lat="50.673154452815652" lon="13.460052972659469">
        <ele>564</ele>
        <time>2026-08-29T07:32:18Z</time>
      </trkpt>
      <trkpt lat="50.673155374825001" lon="13.46001441590488">
        <ele>564</ele>
        <time>2026-08-29T07:32:19Z</time>
      </trkpt>
      <trkpt lat="50.673153111711144" lon="13.459987929090858">
        <ele>565</ele>
        <time>2026-08-29T07:32:20Z</time>
      </trkpt>
      <trkpt lat="50.673156213015318" lon="13.459959514439106">
        <ele>565</ele>
        <time>2026-08-29T07:32:21Z</time>
      </trkpt>
      <trkpt lat="50.673155877739191" lon="13.459943924099207">
        <ele>565</ele>
        <time>2026-08-29T07:32:22Z</time>
      </trkpt>
      <trkpt lat="50.673155458644032" lon="13.459929842501879">
        <ele>564</ele>
        <time>2026-08-29T07:32:23Z</time>
      </trkpt>
      <trkpt lat="50.67315436899662" lon="13.459921544417739">
        <ele>564</ele>
        <time>2026-08-29T07:32:24Z</time>
      </trkpt>
      <trkpt lat="50.673157637938857" lon="13.459918946027756">
        <ele>564</ele>
        <time>2026-08-29T07:32:25Z</time>
      </trkpt>
      <trkpt lat="50.673157889395952" lon="13.459918694570661">
        <ele>564</ele>
        <time>2026-08-29T07:32:26Z</time>
      </trkpt>
      <trkpt lat="50.673157051205635" lon="13.4599235560745">
        <ele>564</ele>
        <time>2026-08-29T07:32:27Z</time>
      </trkpt>
      <trkpt lat="50.673156967386603" lon="13.459923723712564">
        <ele>564</ele>
        <time>2026-08-29T07:32:28Z</time>
      </trkpt>
      <trkpt lat="50.673156967386603" lon="13.459923807531595">
        <ele>564</ele>
        <time>2026-08-29T07:32:29Z</time>
      </trkpt>
      <trkpt lat="50.673156967386603" lon="13.459923807531595">
        <ele>564</ele>
        <time>2026-08-29T07:32:30Z</time>
      </trkpt>
      <trkpt lat="50.673156967386603" lon="13.459923891350627">
        <ele>564</ele>
        <time>2026-08-29T07:32:31Z</time>
      </trkpt>
      <trkpt lat="50.673156967386603" lon="13.459923891350627">
        <ele>564</ele>
        <time>2026-08-29T07:32:32Z</time>
      </trkpt>
      <trkpt lat="50.673156967386603" lon="13.459923891350627">
        <ele>564</ele>
        <time>2026-08-29T07:32:33Z</time>
      </trkpt>
      <trkpt lat="50.673157051205635" lon="13.459923975169659">
        <ele>564</ele>
        <time>2026-08-29T07:32:34Z</time>
      </trkpt>
      <trkpt lat="50.673157051205635" lon="13.459923975169659">
        <ele>564</ele>
        <time>2026-08-29T07:32:35Z</time>
      </trkpt>
      <trkpt lat="50.673157051205635" lon="13.459923975169659">
        <ele>564</ele>
        <time>2026-08-29T07:32:36Z</time>
      </trkpt>
      <trkpt lat="50.673157051205635" lon="13.459923975169659">
        <ele>564</ele>
        <time>2026-08-29T07:32:37Z</time>
      </trkpt>
      <trkpt lat="50.673157051205635" lon="13.459923975169659">
        <ele>564</ele>
        <time>2026-08-29T07:32:38Z</time>
      </trkpt>
      <trkpt lat="50.673157051205635" lon="13.459923975169659">
        <ele>564</ele>
        <time>2026-08-29T07:32:39Z</time>
      </trkpt>
      <trkpt lat="50.673157051205635" lon="13.459923975169659">
        <ele>564</ele>
        <time>2026-08-29T07:32:40Z</time>
      </trkpt>
      <trkpt lat="50.673157051205635" lon="13.459923975169659">
        <ele>564</ele>
        <time>2026-08-29T07:32:41Z</time>
      </trkpt>
      <trkpt lat="50.673157051205635" lon="13.459923975169659">
        <ele>564</ele>
        <time>2026-08-29T07:32:42Z</time>
      </trkpt>
      <trkpt lat="50.673157051205635" lon="13.459923975169659">
        <ele>564</ele>
        <time>2026-08-29T07:32:43Z</time>
      </trkpt>
      <trkpt lat="50.673157051205635" lon="13.459923975169659">
        <ele>564</ele>
        <time>2026-08-29T07:32:44Z</time>
      </trkpt>
      <trkpt lat="50.673157051205635" lon="13.459923975169659">
        <ele>564</ele>
        <time>2026-08-29T07:32:45Z</time>
      </trkpt>
      <trkpt lat="50.673157051205635" lon="13.459923975169659">
        <ele>564</ele>
        <time>2026-08-29T07:32:46Z</time>
      </trkpt>
      <trkpt lat="50.673157051205635" lon="13.459923975169659">
        <ele>564</ele>
        <time>2026-08-29T07:32:47Z</time>
      </trkpt>
      <trkpt lat="50.673157051205635" lon="13.459923975169659">
        <ele>564</ele>
        <time>2026-08-29T07:32:48Z</time>
      </trkpt>
      <trkpt lat="50.673157218843699" lon="13.45992405898869">
        <ele>564</ele>
        <time>2026-08-29T07:32:49Z</time>
      </trkpt>
      <trkpt lat="50.673157218843699" lon="13.45992405898869">
        <ele>564</ele>
        <time>2026-08-29T07:32:50Z</time>
      </trkpt>
      <trkpt lat="50.673157218843699" lon="13.45992405898869">
        <ele>564</ele>
        <time>2026-08-29T07:32:51Z</time>
      </trkpt>
      <trkpt lat="50.673157218843699" lon="13.45992405898869">
        <ele>564</ele>
        <time>2026-08-29T07:32:52Z</time>
      </trkpt>
      <trkpt lat="50.673157218843699" lon="13.45992405898869">
        <ele>564</ele>
        <time>2026-08-29T07:32:53Z</time>
      </trkpt>
      <trkpt lat="50.673157218843699" lon="13.45992405898869">
        <ele>564</ele>
        <time>2026-08-29T07:32:54Z</time>
      </trkpt>
      <trkpt lat="50.673157218843699" lon="13.45992405898869">
        <ele>564</ele>
        <time>2026-08-29T07:32:55Z</time>
      </trkpt>
      <trkpt lat="50.673155877739191" lon="13.459918778389692">
        <ele>563</ele>
        <time>2026-08-29T07:32:56Z</time>
      </trkpt>
      <trkpt lat="50.673153111711144" lon="13.459908301010728">
        <ele>563</ele>
        <time>2026-08-29T07:32:57Z</time>
      </trkpt>
      <trkpt lat="50.673150680959225" lon="13.459894973784685">
        <ele>563</ele>
        <time>2026-08-29T07:32:58Z</time>
      </trkpt>
      <trkpt lat="50.673149758949876" lon="13.459870498627424">
        <ele>564</ele>
        <time>2026-08-29T07:32:59Z</time>
      </trkpt>
      <trkpt lat="50.673149172216654" lon="13.459832947701216">
        <ele>564</ele>
        <time>2026-08-29T07:33:00Z</time>
      </trkpt>
      <trkpt lat="50.673148417845368" lon="13.459783829748631">
        <ele>564</ele>
        <time>2026-08-29T07:33:01Z</time>
      </trkpt>
      <trkpt lat="50.673147831112146" lon="13.459729598835111">
        <ele>564</ele>
        <time>2026-08-29T07:33:02Z</time>
      </trkpt>
      <trkpt lat="50.673149172216654" lon="13.459674529731274">
        <ele>563</ele>
        <time>2026-08-29T07:33:03Z</time>
      </trkpt>
      <trkpt lat="50.673149842768908" lon="13.459612084552646">
        <ele>563</ele>
        <time>2026-08-29T07:33:04Z</time>
      </trkpt>
      <trkpt lat="50.673160739243031" lon="13.459545196965337">
        <ele>563</ele>
        <time>2026-08-29T07:33:05Z</time>
      </trkpt>
      <trkpt lat="50.673170378431678" lon="13.459478477016091">
        <ele>563</ele>
        <time>2026-08-29T07:33:06Z</time>
      </trkpt>
      <trkpt lat="50.673181945458055" lon="13.45940756611526">
        <ele>564</ele>
        <time>2026-08-29T07:33:07Z</time>
      </trkpt>
      <trkpt lat="50.673194853588939" lon="13.459322154521942">
        <ele>564</ele>
        <time>2026-08-29T07:33:08Z</time>
      </trkpt>
      <trkpt lat="50.673206755891442" lon="13.459236575290561">
        <ele>564</ele>
        <time>2026-08-29T07:33:09Z</time>
      </trkpt>
      <trkpt lat="50.673223938792944" lon="13.459145128726959">
        <ele>564</ele>
        <time>2026-08-29T07:33:10Z</time>
      </trkpt>
      <trkpt lat="50.67323449999094" lon="13.459061058238149">
        <ele>564</ele>
        <time>2026-08-29T07:33:11Z</time>
      </trkpt>
      <trkpt lat="50.67325159907341" lon="13.458972377702594">
        <ele>564</ele>
        <time>2026-08-29T07:33:12Z</time>
      </trkpt>
      <trkpt lat="50.673266770318151" lon="13.45888763666153">
        <ele>564</ele>
        <time>2026-08-29T07:33:13Z</time>
      </trkpt>
      <trkpt lat="50.673269620165229" lon="13.458796693012118">
        <ele>564</ele>
        <time>2026-08-29T07:33:14Z</time>
      </trkpt>
      <trkpt lat="50.673268781974912" lon="13.45869904384017">
        <ele>563</ele>
        <time>2026-08-29T07:33:15Z</time>
      </trkpt>
      <trkpt lat="50.673265093937516" lon="13.458601227030158">
        <ele>564</ele>
        <time>2026-08-29T07:33:16Z</time>
      </trkpt>
      <trkpt lat="50.673262160271406" lon="13.458514977246523">
        <ele>564</ele>
        <time>2026-08-29T07:33:17Z</time>
      </trkpt>
      <trkpt lat="50.673254951834679" lon="13.458418920636177">
        <ele>564</ele>
        <time>2026-08-29T07:33:18Z</time>
      </trkpt>
      <trkpt lat="50.67324087023735" lon="13.458323702216148">
        <ele>564</ele>
        <time>2026-08-29T07:33:19Z</time>
      </trkpt>
      <trkpt lat="50.673215473070741" lon="13.458237871527672">
        <ele>564</ele>
        <time>2026-08-29T07:33:20Z</time>
      </trkpt>
      <trkpt lat="50.673193680122495" lon="13.458160758018494">
        <ele>564</ele>
        <time>2026-08-29T07:33:21Z</time>
      </trkpt>
      <trkpt lat="50.673165516927838" lon="13.458088673651218">
        <ele>563</ele>
        <time>2026-08-29T07:33:22Z</time>
      </trkpt>
      <trkpt lat="50.67313140258193" lon="13.458024384453893">
        <ele>563</ele>
        <time>2026-08-29T07:33:23Z</time>
      </trkpt>
      <trkpt lat="50.673091001808643" lon="13.457959089428186">
        <ele>563</ele>
        <time>2026-08-29T07:33:24Z</time>
      </trkpt>
      <trkpt lat="50.673056216910481" lon="13.457894548773766">
        <ele>563</ele>
        <time>2026-08-29T07:33:25Z</time>
      </trkpt>
      <trkpt lat="50.673022689297795" lon="13.457823470234871">
        <ele>563</ele>
        <time>2026-08-29T07:33:26Z</time>
      </trkpt>
      <trkpt lat="50.673002488911152" lon="13.457746524363756">
        <ele>563</ele>
        <time>2026-08-29T07:33:27Z</time>
      </trkpt>
      <trkpt lat="50.672978851944208" lon="13.457678044214845">
        <ele>563</ele>
        <time>2026-08-29T07:33:28Z</time>
      </trkpt>
      <trkpt lat="50.672956723719835" lon="13.457599421963096">
        <ele>562</ele>
        <time>2026-08-29T07:33:29Z</time>
      </trkpt>
      <trkpt lat="50.672936774790287" lon="13.457527505233884">
        <ele>562</ele>
        <time>2026-08-29T07:33:30Z</time>
      </trkpt>
      <trkpt lat="50.672915065661073" lon="13.457442680373788">
        <ele>563</ele>
        <time>2026-08-29T07:33:31Z</time>
      </trkpt>
      <trkpt lat="50.67289687693119" lon="13.457356430590153">
        <ele>562</ele>
        <time>2026-08-29T07:33:32Z</time>
      </trkpt>
      <trkpt lat="50.672876844182611" lon="13.457268755882978">
        <ele>562</ele>
        <time>2026-08-29T07:33:33Z</time>
      </trkpt>
      <trkpt lat="50.672855721786618" lon="13.457173621281981">
        <ele>562</ele>
        <time>2026-08-29T07:33:34Z</time>
      </trkpt>
      <trkpt lat="50.672836191952229" lon="13.457088125869632">
        <ele>562</ele>
        <time>2026-08-29T07:33:35Z</time>
      </trkpt>
      <trkpt lat="50.672820266336203" lon="13.457001121714711">
        <ele>561</ele>
        <time>2026-08-29T07:33:36Z</time>
      </trkpt>
      <trkpt lat="50.672805933281779" lon="13.456911519169807">
        <ele>562</ele>
        <time>2026-08-29T07:33:37Z</time>
      </trkpt>
      <trkpt lat="50.672790678218007" lon="13.456827867776155">
        <ele>561</ele>
        <time>2026-08-29T07:33:38Z</time>
      </trkpt>
      <trkpt lat="50.672775590792298" lon="13.456753436475992">
        <ele>561</ele>
        <time>2026-08-29T07:33:39Z</time>
      </trkpt>
      <trkpt lat="50.672749690711498" lon="13.45669224858284">
        <ele>561</ele>
        <time>2026-08-29T07:33:40Z</time>
      </trkpt>
      <trkpt lat="50.67270627245307" lon="13.456646567210555">
        <ele>561</ele>
        <time>2026-08-29T07:33:41Z</time>
      </trkpt>
      <trkpt lat="50.672662770375609" lon="13.456595856696367">
        <ele>560</ele>
        <time>2026-08-29T07:33:42Z</time>
      </trkpt>
      <trkpt lat="50.672626392915845" lon="13.456555036827922">
        <ele>561</ele>
        <time>2026-08-29T07:33:43Z</time>
      </trkpt>
      <trkpt lat="50.672585992142558" lon="13.456534082069993">
        <ele>561</ele>
        <time>2026-08-29T07:33:44Z</time>
      </trkpt>
      <trkpt lat="50.672549363225698" lon="13.456504745408893">
        <ele>561</ele>
        <time>2026-08-29T07:33:45Z</time>
      </trkpt>
      <trkpt lat="50.672517428174615" lon="13.456476833671331">
        <ele>561</ele>
        <time>2026-08-29T07:33:46Z</time>
      </trkpt>
      <trkpt lat="50.672485576942563" lon="13.456456633284688">
        <ele>562</ele>
        <time>2026-08-29T07:33:47Z</time>
      </trkpt>
      <trkpt lat="50.672470321878791" lon="13.456436935812235">
        <ele>562</ele>
        <time>2026-08-29T07:33:48Z</time>
      </trkpt>
      <trkpt lat="50.672460431233048" lon="13.456433163955808">
        <ele>562</ele>
        <time>2026-08-29T07:33:49Z</time>
      </trkpt>
      <trkpt lat="50.672461772337556" lon="13.456430146470666">
        <ele>562</ele>
        <time>2026-08-29T07:33:50Z</time>
      </trkpt>
      <trkpt lat="50.672464538365602" lon="13.456426374614239">
        <ele>562</ele>
        <time>2026-08-29T07:33:51Z</time>
      </trkpt>
      <trkpt lat="50.672461604699492" lon="13.456435259431601">
        <ele>563</ele>
        <time>2026-08-29T07:33:52Z</time>
      </trkpt>
      <trkpt lat="50.672457497566938" lon="13.456431990489364">
        <ele>563</ele>
        <time>2026-08-29T07:33:53Z</time>
      </trkpt>
      <trkpt lat="50.672455905005336" lon="13.456425368785858">
        <ele>563</ele>
        <time>2026-08-29T07:33:54Z</time>
      </trkpt>
      <trkpt lat="50.672456240281463" lon="13.456425536423922">
        <ele>563</ele>
        <time>2026-08-29T07:33:55Z</time>
      </trkpt>
      <trkpt lat="50.672453474253416" lon="13.456419669091702">
        <ele>563</ele>
        <time>2026-08-29T07:33:56Z</time>
      </trkpt>
      <trkpt lat="50.672455066815019" lon="13.456430900841951">
        <ele>563</ele>
        <time>2026-08-29T07:33:57Z</time>
      </trkpt>
      <trkpt lat="50.672454228624701" lon="13.456434840336442">
        <ele>563</ele>
        <time>2026-08-29T07:33:58Z</time>
      </trkpt>
      <trkpt lat="50.672453641891479" lon="13.456430314108729">
        <ele>563</ele>
        <time>2026-08-29T07:33:59Z</time>
      </trkpt>
      <trkpt lat="50.672458000481129" lon="13.456426542252302">
        <ele>564</ele>
        <time>2026-08-29T07:34:00Z</time>
      </trkpt>
      <trkpt lat="50.672458838671446" lon="13.456422351300716">
        <ele>564</ele>
        <time>2026-08-29T07:34:01Z</time>
      </trkpt>
      <trkpt lat="50.672458587214351" lon="13.456421932205558">
        <ele>564</ele>
        <time>2026-08-29T07:34:02Z</time>
      </trkpt>
      <trkpt lat="50.67245515063405" lon="13.456415142863989">
        <ele>565</ele>
        <time>2026-08-29T07:34:03Z</time>
      </trkpt>
      <trkpt lat="50.67245515063405" lon="13.456414472311735">
        <ele>565</ele>
        <time>2026-08-29T07:34:04Z</time>
      </trkpt>
      <trkpt lat="50.672452384606004" lon="13.456419333815575">
        <ele>565</ele>
        <time>2026-08-29T07:34:05Z</time>
      </trkpt>
      <trkpt lat="50.672458168119192" lon="13.456406341865659">
        <ele>565</ele>
        <time>2026-08-29T07:34:06Z</time>
      </trkpt>
      <trkpt lat="50.672462861984968" lon="13.456404749304056">
        <ele>565</ele>
        <time>2026-08-29T07:34:07Z</time>
      </trkpt>
      <trkpt lat="50.672461520880461" lon="13.456399636343122">
        <ele>565</ele>
        <time>2026-08-29T07:34:08Z</time>
      </trkpt>
      <trkpt lat="50.672461856156588" lon="13.456394858658314">
        <ele>566</ele>
        <time>2026-08-29T07:34:09Z</time>
      </trkpt>
      <trkpt lat="50.672468394041061" lon="13.456386979669333">
        <ele>566</ele>
        <time>2026-08-29T07:34:10Z</time>
      </trkpt>
      <trkpt lat="50.672466298565269" lon="13.456387901678681">
        <ele>565</ele>
        <time>2026-08-29T07:34:11Z</time>
      </trkpt>
      <trkpt lat="50.672463783994317" lon="13.456386141479015">
        <ele>565</ele>
        <time>2026-08-29T07:34:12Z</time>
      </trkpt>
      <trkpt lat="50.672456827014685" lon="13.456390164792538">
        <ele>565</ele>
        <time>2026-08-29T07:34:13Z</time>
      </trkpt>
      <trkpt lat="50.672454480081797" lon="13.456393852829933">
        <ele>565</ele>
        <time>2026-08-29T07:34:14Z</time>
      </trkpt>
      <trkpt lat="50.672453977167606" lon="13.456386644393206">
        <ele>566</ele>
        <time>2026-08-29T07:34:15Z</time>
      </trkpt>
      <trkpt lat="50.672450540587306" lon="13.456379603594542">
        <ele>566</ele>
        <time>2026-08-29T07:34:16Z</time>
      </trkpt>
      <trkpt lat="50.672445930540562" lon="13.456360409036279">
        <ele>566</ele>
        <time>2026-08-29T07:34:17Z</time>
      </trkpt>
      <trkpt lat="50.672436794266105" lon="13.456358565017581">
        <ele>566</ele>
        <time>2026-08-29T07:34:18Z</time>
      </trkpt>
      <trkpt lat="50.672430926933885" lon="13.456351859495044">
        <ele>566</ele>
        <time>2026-08-29T07:34:19Z</time>
      </trkpt>
      <trkpt lat="50.672422461211681" lon="13.456348087638617">
        <ele>566</ele>
        <time>2026-08-29T07:34:20Z</time>
      </trkpt>
      <trkpt lat="50.672412822023034" lon="13.456346411257982">
        <ele>567</ele>
        <time>2026-08-29T07:34:21Z</time>
      </trkpt>
      <trkpt lat="50.672406200319529" lon="13.456338113173842">
        <ele>566</ele>
        <time>2026-08-29T07:34:22Z</time>
      </trkpt>
      <trkpt lat="50.67239698022604" lon="13.456342052668333">
        <ele>566</ele>
        <time>2026-08-29T07:34:23Z</time>
      </trkpt>
      <trkpt lat="50.67238817922771" lon="13.456352278590202">
        <ele>565</ele>
        <time>2026-08-29T07:34:24Z</time>
      </trkpt>
      <trkpt lat="50.672379629686475" lon="13.456362504512072">
        <ele>565</ele>
        <time>2026-08-29T07:34:25Z</time>
      </trkpt>
      <trkpt lat="50.672368817031384" lon="13.456381447613239">
        <ele>565</ele>
        <time>2026-08-29T07:34:26Z</time>
      </trkpt>
      <trkpt lat="50.672373175621033" lon="13.456398714333773">
        <ele>565</ele>
        <time>2026-08-29T07:34:27Z</time>
      </trkpt>
      <trkpt lat="50.672385832294822" lon="13.456420004367828">
        <ele>564</ele>
        <time>2026-08-29T07:34:28Z</time>
      </trkpt>
      <trkpt lat="50.672397650778294" lon="13.456437522545457">
        <ele>564</ele>
        <time>2026-08-29T07:34:29Z</time>
      </trkpt>
      <trkpt lat="50.672400584444404" lon="13.456452358514071">
        <ele>564</ele>
        <time>2026-08-29T07:34:30Z</time>
      </trkpt>
      <trkpt lat="50.672402260825038" lon="13.456459231674671">
        <ele>564</ele>
        <time>2026-08-29T07:34:31Z</time>
      </trkpt>
      <trkpt lat="50.672401757910848" lon="13.456464596092701">
        <ele>564</ele>
        <time>2026-08-29T07:34:32Z</time>
      </trkpt>
      <trkpt lat="50.672402260825038" lon="13.456461913883686">
        <ele>564</ele>
        <time>2026-08-29T07:34:33Z</time>
      </trkpt>
      <trkpt lat="50.672402093186975" lon="13.456468703225255">
        <ele>565</ele>
        <time>2026-08-29T07:34:34Z</time>
      </trkpt>
      <trkpt lat="50.672402260825038" lon="13.456469373777509">
        <ele>565</ele>
        <time>2026-08-29T07:34:35Z</time>
      </trkpt>
      <trkpt lat="50.672396812587976" lon="13.456474067643285">
        <ele>565</ele>
        <time>2026-08-29T07:34:36Z</time>
      </trkpt>
      <trkpt lat="50.672396812587976" lon="13.456474067643285">
        <ele>565</ele>
        <time>2026-08-29T07:34:37Z</time>
      </trkpt>
      <trkpt lat="50.672396812587976" lon="13.456474067643285">
        <ele>565</ele>
        <time>2026-08-29T07:34:38Z</time>
      </trkpt>
      <trkpt lat="50.672396812587976" lon="13.456474067643285">
        <ele>565</ele>
        <time>2026-08-29T07:34:39Z</time>
      </trkpt>
      <trkpt lat="50.672396812587976" lon="13.456474067643285">
        <ele>565</ele>
        <time>2026-08-29T07:34:40Z</time>
      </trkpt>
      <trkpt lat="50.672396812587976" lon="13.456474067643285">
        <ele>565</ele>
        <time>2026-08-29T07:34:41Z</time>
      </trkpt>
      <trkpt lat="50.672396812587976" lon="13.456474067643285">
        <ele>565</ele>
        <time>2026-08-29T07:34:42Z</time>
      </trkpt>
      <trkpt lat="50.672396812587976" lon="13.456474067643285">
        <ele>565</ele>
        <time>2026-08-29T07:34:43Z</time>
      </trkpt>
      <trkpt lat="50.672396812587976" lon="13.456474067643285">
        <ele>565</ele>
        <time>2026-08-29T07:34:44Z</time>
      </trkpt>
      <trkpt lat="50.672396812587976" lon="13.456474067643285">
        <ele>565</ele>
        <time>2026-08-29T07:34:45Z</time>
      </trkpt>
      <trkpt lat="50.672396812587976" lon="13.456474067643285">
        <ele>565</ele>
        <time>2026-08-29T07:34:46Z</time>
      </trkpt>
      <trkpt lat="50.672396812587976" lon="13.456474067643285">
        <ele>565</ele>
        <time>2026-08-29T07:34:47Z</time>
      </trkpt>
      <trkpt lat="50.672396812587976" lon="13.456474067643285">
        <ele>565</ele>
        <time>2026-08-29T07:34:48Z</time>
      </trkpt>
      <trkpt lat="50.672396812587976" lon="13.456474067643285">
        <ele>565</ele>
        <time>2026-08-29T07:34:49Z</time>
      </trkpt>
      <trkpt lat="50.672396812587976" lon="13.456474067643285">
        <ele>565</ele>
        <time>2026-08-29T07:34:50Z</time>
      </trkpt>
      <trkpt lat="50.672396812587976" lon="13.456474067643285">
        <ele>565</ele>
        <time>2026-08-29T07:34:51Z</time>
      </trkpt>
      <trkpt lat="50.672396812587976" lon="13.456474067643285">
        <ele>565</ele>
        <time>2026-08-29T07:34:52Z</time>
      </trkpt>
      <trkpt lat="50.672396812587976" lon="13.456474067643285">
        <ele>565</ele>
        <time>2026-08-29T07:34:53Z</time>
      </trkpt>
      <trkpt lat="50.672396812587976" lon="13.456474067643285">
        <ele>565</ele>
        <time>2026-08-29T07:34:54Z</time>
      </trkpt>
      <trkpt lat="50.672396812587976" lon="13.456474067643285">
        <ele>565</ele>
        <time>2026-08-29T07:34:55Z</time>
      </trkpt>
      <trkpt lat="50.672396812587976" lon="13.456474067643285">
        <ele>565</ele>
        <time>2026-08-29T07:34:56Z</time>
      </trkpt>
      <trkpt lat="50.672396812587976" lon="13.456474067643285">
        <ele>565</ele>
        <time>2026-08-29T07:34:57Z</time>
      </trkpt>
      <trkpt lat="50.672396812587976" lon="13.456474067643285">
        <ele>565</ele>
        <time>2026-08-29T07:34:58Z</time>
      </trkpt>
      <trkpt lat="50.672396812587976" lon="13.456474067643285">
        <ele>565</ele>
        <time>2026-08-29T07:34:59Z</time>
      </trkpt>
      <trkpt lat="50.672396812587976" lon="13.456474067643285">
        <ele>565</ele>
        <time>2026-08-29T07:35:00Z</time>
      </trkpt>
      <trkpt lat="50.672396812587976" lon="13.456474067643285">
        <ele>565</ele>
        <time>2026-08-29T07:35:01Z</time>
      </trkpt>
      <trkpt lat="50.672396812587976" lon="13.456474067643285">
        <ele>565</ele>
        <time>2026-08-29T07:35:02Z</time>
      </trkpt>
      <trkpt lat="50.672396812587976" lon="13.456474067643285">
        <ele>565</ele>
        <time>2026-08-29T07:35:03Z</time>
      </trkpt>
      <trkpt lat="50.672396812587976" lon="13.456474067643285">
        <ele>565</ele>
        <time>2026-08-29T07:35:04Z</time>
      </trkpt>
      <trkpt lat="50.672396812587976" lon="13.456474067643285">
        <ele>565</ele>
        <time>2026-08-29T07:35:05Z</time>
      </trkpt>
      <trkpt lat="50.672396812587976" lon="13.456474067643285">
        <ele>565</ele>
        <time>2026-08-29T07:35:06Z</time>
      </trkpt>
      <trkpt lat="50.672396812587976" lon="13.456474067643285">
        <ele>565</ele>
        <time>2026-08-29T07:35:07Z</time>
      </trkpt>
      <trkpt lat="50.672396812587976" lon="13.456474067643285">
        <ele>565</ele>
        <time>2026-08-29T07:35:08Z</time>
      </trkpt>
      <trkpt lat="50.672396812587976" lon="13.456474067643285">
        <ele>565</ele>
        <time>2026-08-29T07:35:09Z</time>
      </trkpt>
      <trkpt lat="50.672396812587976" lon="13.456474067643285">
        <ele>565</ele>
        <time>2026-08-29T07:35:10Z</time>
      </trkpt>
      <trkpt lat="50.672396812587976" lon="13.456474067643285">
        <ele>565</ele>
        <time>2026-08-29T07:35:11Z</time>
      </trkpt>
      <trkpt lat="50.672396812587976" lon="13.456474067643285">
        <ele>565</ele>
        <time>2026-08-29T07:35:12Z</time>
      </trkpt>
      <trkpt lat="50.672396812587976" lon="13.456474067643285">
        <ele>565</ele>
        <time>2026-08-29T07:35:13Z</time>
      </trkpt>
      <trkpt lat="50.672396812587976" lon="13.456474067643285">
        <ele>565</ele>
        <time>2026-08-29T07:35:14Z</time>
      </trkpt>
      <trkpt lat="50.672396812587976" lon="13.456474067643285">
        <ele>565</ele>
        <time>2026-08-29T07:35:15Z</time>
      </trkpt>
      <trkpt lat="50.672396812587976" lon="13.456474067643285">
        <ele>565</ele>
        <time>2026-08-29T07:35:16Z</time>
      </trkpt>
      <trkpt lat="50.672396812587976" lon="13.456474067643285">
        <ele>565</ele>
        <time>2026-08-29T07:35:17Z</time>
      </trkpt>
      <trkpt lat="50.672396812587976" lon="13.456474067643285">
        <ele>565</ele>
        <time>2026-08-29T07:35:18Z</time>
      </trkpt>
      <trkpt lat="50.672396812587976" lon="13.456474067643285">
        <ele>565</ele>
        <time>2026-08-29T07:35:19Z</time>
      </trkpt>
      <trkpt lat="50.672396812587976" lon="13.456474067643285">
        <ele>565</ele>
        <time>2026-08-29T07:35:20Z</time>
      </trkpt>
      <trkpt lat="50.672396812587976" lon="13.456474067643285">
        <ele>565</ele>
        <time>2026-08-29T07:35:21Z</time>
      </trkpt>
      <trkpt lat="50.672396812587976" lon="13.456474067643285">
        <ele>565</ele>
        <time>2026-08-29T07:35:22Z</time>
      </trkpt>
      <trkpt lat="50.672396812587976" lon="13.456474067643285">
        <ele>565</ele>
        <time>2026-08-29T07:35:23Z</time>
      </trkpt>
      <trkpt lat="50.672396812587976" lon="13.456474067643285">
        <ele>565</ele>
        <time>2026-08-29T07:35:24Z</time>
      </trkpt>
      <trkpt lat="50.672396812587976" lon="13.456474067643285">
        <ele>565</ele>
        <time>2026-08-29T07:35:25Z</time>
      </trkpt>
      <trkpt lat="50.672396812587976" lon="13.456474067643285">
        <ele>565</ele>
        <time>2026-08-29T07:35:26Z</time>
      </trkpt>
      <trkpt lat="50.672396812587976" lon="13.456474067643285">
        <ele>565</ele>
        <time>2026-08-29T07:35:27Z</time>
      </trkpt>
      <trkpt lat="50.672396812587976" lon="13.456474067643285">
        <ele>565</ele>
        <time>2026-08-29T07:35:28Z</time>
      </trkpt>
      <trkpt lat="50.672396812587976" lon="13.456474067643285">
        <ele>565</ele>
        <time>2026-08-29T07:35:29Z</time>
      </trkpt>
      <trkpt lat="50.672396812587976" lon="13.456474067643285">
        <ele>565</ele>
        <time>2026-08-29T07:35:30Z</time>
      </trkpt>
      <trkpt lat="50.672396812587976" lon="13.456474067643285">
        <ele>565</ele>
        <time>2026-08-29T07:35:31Z</time>
      </trkpt>
      <trkpt lat="50.672396812587976" lon="13.456474067643285">
        <ele>565</ele>
        <time>2026-08-29T07:35:32Z</time>
      </trkpt>
      <trkpt lat="50.672396812587976" lon="13.456474067643285">
        <ele>565</ele>
        <time>2026-08-29T07:35:33Z</time>
      </trkpt>
      <trkpt lat="50.672396812587976" lon="13.456474067643285">
        <ele>565</ele>
        <time>2026-08-29T07:35:34Z</time>
      </trkpt>
      <trkpt lat="50.672396812587976" lon="13.456474067643285">
        <ele>565</ele>
        <time>2026-08-29T07:35:35Z</time>
      </trkpt>
      <trkpt lat="50.672396812587976" lon="13.456474067643285">
        <ele>565</ele>
        <time>2026-08-29T07:35:36Z</time>
      </trkpt>
      <trkpt lat="50.672396812587976" lon="13.456474067643285">
        <ele>565</ele>
        <time>2026-08-29T07:35:37Z</time>
      </trkpt>
      <trkpt lat="50.672396812587976" lon="13.456474067643285">
        <ele>565</ele>
        <time>2026-08-29T07:35:38Z</time>
      </trkpt>
      <trkpt lat="50.672396812587976" lon="13.456474067643285">
        <ele>565</ele>
        <time>2026-08-29T07:35:39Z</time>
      </trkpt>
      <trkpt lat="50.672396812587976" lon="13.456474067643285">
        <ele>565</ele>
        <time>2026-08-29T07:35:40Z</time>
      </trkpt>
      <trkpt lat="50.672396812587976" lon="13.456474067643285">
        <ele>565</ele>
        <time>2026-08-29T07:35:41Z</time>
      </trkpt>
      <trkpt lat="50.672396812587976" lon="13.456474067643285">
        <ele>565</ele>
        <time>2026-08-29T07:35:42Z</time>
      </trkpt>
      <trkpt lat="50.672396812587976" lon="13.456474067643285">
        <ele>565</ele>
        <time>2026-08-29T07:35:43Z</time>
      </trkpt>
      <trkpt lat="50.672396812587976" lon="13.456474067643285">
        <ele>565</ele>
        <time>2026-08-29T07:35:44Z</time>
      </trkpt>
      <trkpt lat="50.672396812587976" lon="13.456474067643285">
        <ele>565</ele>
        <time>2026-08-29T07:35:45Z</time>
      </trkpt>
      <trkpt lat="50.672396812587976" lon="13.456474067643285">
        <ele>565</ele>
        <time>2026-08-29T07:35:46Z</time>
      </trkpt>
      <trkpt lat="50.672396812587976" lon="13.456474067643285">
        <ele>565</ele>
        <time>2026-08-29T07:35:47Z</time>
      </trkpt>
      <trkpt lat="50.672396812587976" lon="13.456474067643285">
        <ele>565</ele>
        <time>2026-08-29T07:35:48Z</time>
      </trkpt>
      <trkpt lat="50.672396812587976" lon="13.456474067643285">
        <ele>565</ele>
        <time>2026-08-29T07:35:49Z</time>
      </trkpt>
      <trkpt lat="50.672396812587976" lon="13.456474067643285">
        <ele>565</ele>
        <time>2026-08-29T07:35:50Z</time>
      </trkpt>
      <trkpt lat="50.672396812587976" lon="13.456474067643285">
        <ele>565</ele>
        <time>2026-08-29T07:35:51Z</time>
      </trkpt>
      <trkpt lat="50.672396812587976" lon="13.456474067643285">
        <ele>565</ele>
        <time>2026-08-29T07:35:52Z</time>
      </trkpt>
      <trkpt lat="50.672396812587976" lon="13.456474067643285">
        <ele>565</ele>
        <time>2026-08-29T07:35:53Z</time>
      </trkpt>
      <trkpt lat="50.672396812587976" lon="13.456474067643285">
        <ele>565</ele>
        <time>2026-08-29T07:35:54Z</time>
      </trkpt>
      <trkpt lat="50.672396812587976" lon="13.456474067643285">
        <ele>565</ele>
        <time>2026-08-29T07:35:55Z</time>
      </trkpt>
      <trkpt lat="50.672396812587976" lon="13.456474067643285">
        <ele>565</ele>
        <time>2026-08-29T07:35:56Z</time>
      </trkpt>
      <trkpt lat="50.672396812587976" lon="13.456474067643285">
        <ele>565</ele>
        <time>2026-08-29T07:35:57Z</time>
      </trkpt>
      <trkpt lat="50.672396812587976" lon="13.456474067643285">
        <ele>565</ele>
        <time>2026-08-29T07:35:58Z</time>
      </trkpt>
      <trkpt lat="50.672396812587976" lon="13.456474067643285">
        <ele>565</ele>
        <time>2026-08-29T07:35:59Z</time>
      </trkpt>
      <trkpt lat="50.672396812587976" lon="13.456474067643285">
        <ele>565</ele>
        <time>2026-08-29T07:36:00Z</time>
      </trkpt>
      <trkpt lat="50.672396812587976" lon="13.456474067643285">
        <ele>565</ele>
        <time>2026-08-29T07:36:01Z</time>
      </trkpt>
      <trkpt lat="50.672396812587976" lon="13.456474067643285">
        <ele>565</ele>
        <time>2026-08-29T07:36:02Z</time>
      </trkpt>
      <trkpt lat="50.672396812587976" lon="13.456474067643285">
        <ele>565</ele>
        <time>2026-08-29T07:36:03Z</time>
      </trkpt>
      <trkpt lat="50.672396812587976" lon="13.456474067643285">
        <ele>565</ele>
        <time>2026-08-29T07:36:04Z</time>
      </trkpt>
      <trkpt lat="50.672396812587976" lon="13.456474067643285">
        <ele>565</ele>
        <time>2026-08-29T07:36:05Z</time>
      </trkpt>
      <trkpt lat="50.672396812587976" lon="13.456474067643285">
        <ele>565</ele>
        <time>2026-08-29T07:36:06Z</time>
      </trkpt>
      <trkpt lat="50.672396812587976" lon="13.456474067643285">
        <ele>565</ele>
        <time>2026-08-29T07:36:07Z</time>
      </trkpt>
      <trkpt lat="50.672396812587976" lon="13.456474067643285">
        <ele>565</ele>
        <time>2026-08-29T07:36:08Z</time>
      </trkpt>
      <trkpt lat="50.672396812587976" lon="13.456474067643285">
        <ele>565</ele>
        <time>2026-08-29T07:36:09Z</time>
      </trkpt>
      <trkpt lat="50.672396812587976" lon="13.456474067643285">
        <ele>565</ele>
        <time>2026-08-29T07:36:10Z</time>
      </trkpt>
      <trkpt lat="50.672396812587976" lon="13.456474067643285">
        <ele>565</ele>
        <time>2026-08-29T07:36:11Z</time>
      </trkpt>
      <trkpt lat="50.672396812587976" lon="13.456474067643285">
        <ele>565</ele>
        <time>2026-08-29T07:36:12Z</time>
      </trkpt>
      <trkpt lat="50.672396812587976" lon="13.456474067643285">
        <ele>565</ele>
        <time>2026-08-29T07:36:13Z</time>
      </trkpt>
      <trkpt lat="50.672396812587976" lon="13.456474067643285">
        <ele>565</ele>
        <time>2026-08-29T07:36:14Z</time>
      </trkpt>
      <trkpt lat="50.672396812587976" lon="13.456474067643285">
        <ele>565</ele>
        <time>2026-08-29T07:36:15Z</time>
      </trkpt>
      <trkpt lat="50.672396812587976" lon="13.456474067643285">
        <ele>565</ele>
        <time>2026-08-29T07:36:16Z</time>
      </trkpt>
      <trkpt lat="50.672396812587976" lon="13.456474067643285">
        <ele>565</ele>
        <time>2026-08-29T07:36:17Z</time>
      </trkpt>
      <trkpt lat="50.672396812587976" lon="13.456474067643285">
        <ele>565</ele>
        <time>2026-08-29T07:36:18Z</time>
      </trkpt>
      <trkpt lat="50.672396812587976" lon="13.456474067643285">
        <ele>565</ele>
        <time>2026-08-29T07:36:19Z</time>
      </trkpt>
      <trkpt lat="50.672396812587976" lon="13.456474067643285">
        <ele>565</ele>
        <time>2026-08-29T07:36:20Z</time>
      </trkpt>
      <trkpt lat="50.672396812587976" lon="13.456474067643285">
        <ele>565</ele>
        <time>2026-08-29T07:36:21Z</time>
      </trkpt>
      <trkpt lat="50.672396812587976" lon="13.456474067643285">
        <ele>565</ele>
        <time>2026-08-29T07:36:22Z</time>
      </trkpt>
      <trkpt lat="50.672396812587976" lon="13.456474067643285">
        <ele>565</ele>
        <time>2026-08-29T07:36:23Z</time>
      </trkpt>
      <trkpt lat="50.672396812587976" lon="13.456474067643285">
        <ele>565</ele>
        <time>2026-08-29T07:36:24Z</time>
      </trkpt>
      <trkpt lat="50.672396812587976" lon="13.456474067643285">
        <ele>565</ele>
        <time>2026-08-29T07:36:25Z</time>
      </trkpt>
      <trkpt lat="50.672398069873452" lon="13.456472558900714">
        <ele>565</ele>
        <time>2026-08-29T07:36:26Z</time>
      </trkpt>
      <trkpt lat="50.672398991882801" lon="13.456472977995872">
        <ele>565</ele>
        <time>2026-08-29T07:36:27Z</time>
      </trkpt>
      <trkpt lat="50.672398908063769" lon="13.456472810357809">
        <ele>565</ele>
        <time>2026-08-29T07:36:28Z</time>
      </trkpt>
      <trkpt lat="50.672398991882801" lon="13.456472810357809">
        <ele>565</ele>
        <time>2026-08-29T07:36:29Z</time>
      </trkpt>
      <trkpt lat="50.672399997711182" lon="13.456470211967826">
        <ele>564</ele>
        <time>2026-08-29T07:36:30Z</time>
      </trkpt>
      <trkpt lat="50.672402009367943" lon="13.456475241109729">
        <ele>564</ele>
        <time>2026-08-29T07:36:31Z</time>
      </trkpt>
      <trkpt lat="50.672404440119863" lon="13.456477923318744">
        <ele>564</ele>
        <time>2026-08-29T07:36:32Z</time>
      </trkpt>
      <trkpt lat="50.672412989661098" lon="13.45647431910038">
        <ele>564</ele>
        <time>2026-08-29T07:36:33Z</time>
      </trkpt>
      <trkpt lat="50.672413660213351" lon="13.456455795094371">
        <ele>564</ele>
        <time>2026-08-29T07:36:34Z</time>
      </trkpt>
      <trkpt lat="50.672410810366273" lon="13.456432241946459">
        <ele>564</ele>
        <time>2026-08-29T07:36:35Z</time>
      </trkpt>
      <trkpt lat="50.672403853386641" lon="13.456406760960817">
        <ele>564</ele>
        <time>2026-08-29T07:36:36Z</time>
      </trkpt>
      <trkpt lat="50.672394130378962" lon="13.456390835344791">
        <ele>564</ele>
        <time>2026-08-29T07:36:37Z</time>
      </trkpt>
      <trkpt lat="50.672386921942234" lon="13.456369880586863">
        <ele>564</ele>
        <time>2026-08-29T07:36:38Z</time>
      </trkpt>
      <trkpt lat="50.672372421249747" lon="13.456344651058316">
        <ele>563</ele>
        <time>2026-08-29T07:36:39Z</time>
      </trkpt>
      <trkpt lat="50.672353645786643" lon="13.456320846453309">
        <ele>563</ele>
        <time>2026-08-29T07:36:40Z</time>
      </trkpt>
      <trkpt lat="50.67233637906611" lon="13.456292515620589">
        <ele>563</ele>
        <time>2026-08-29T07:36:41Z</time>
      </trkpt>
      <trkpt lat="50.672317938879132" lon="13.456256808713078">
        <ele>563</ele>
        <time>2026-08-29T07:36:42Z</time>
      </trkpt>
      <trkpt lat="50.672294301912189" lon="13.456228310242295">
        <ele>563</ele>
        <time>2026-08-29T07:36:43Z</time>
      </trkpt>
      <trkpt lat="50.672272760421038" lon="13.456187741830945">
        <ele>563</ele>
        <time>2026-08-29T07:36:44Z</time>
      </trkpt>
      <trkpt lat="50.672247530892491" lon="13.456141222268343">
        <ele>563</ele>
        <time>2026-08-29T07:36:45Z</time>
      </trkpt>
      <trkpt lat="50.672221044078469" lon="13.456075340509415">
        <ele>563</ele>
        <time>2026-08-29T07:36:46Z</time>
      </trkpt>
      <trkpt lat="50.672194976359606" lon="13.456009710207582">
        <ele>564</ele>
        <time>2026-08-29T07:36:47Z</time>
      </trkpt>
      <trkpt lat="50.672177961096168" lon="13.455952377989888">
        <ele>563</ele>
        <time>2026-08-29T07:36:48Z</time>
      </trkpt>
      <trkpt lat="50.672158598899841" lon="13.45588456839323">
        <ele>563</ele>
        <time>2026-08-29T07:36:49Z</time>
      </trkpt>
      <trkpt lat="50.672144601121545" lon="13.455819524824619">
        <ele>563</ele>
        <time>2026-08-29T07:36:50Z</time>
      </trkpt>
      <trkpt lat="50.672123311087489" lon="13.455752218142152">
        <ele>563</ele>
        <time>2026-08-29T07:36:51Z</time>
      </trkpt>
      <trkpt lat="50.672100009396672" lon="13.455679714679718">
        <ele>564</ele>
        <time>2026-08-29T07:36:52Z</time>
      </trkpt>
      <trkpt lat="50.672076288610697" lon="13.455607462674379">
        <ele>564</ele>
        <time>2026-08-29T07:36:53Z</time>
      </trkpt>
      <trkpt lat="50.672055250033736" lon="13.455529510974884">
        <ele>564</ele>
        <time>2026-08-29T07:36:54Z</time>
      </trkpt>
      <trkpt lat="50.672034211456776" lon="13.4554457757622">
        <ele>565</ele>
        <time>2026-08-29T07:36:55Z</time>
      </trkpt>
      <trkpt lat="50.672005629166961" lon="13.455374194309115">
        <ele>565</ele>
        <time>2026-08-29T07:36:56Z</time>
      </trkpt>
      <trkpt lat="50.671976041048765" lon="13.455302277579904">
        <ele>565</ele>
        <time>2026-08-29T07:36:57Z</time>
      </trkpt>
      <trkpt lat="50.671947794035077" lon="13.455237569287419">
        <ele>565</ele>
        <time>2026-08-29T07:36:58Z</time>
      </trkpt>
      <trkpt lat="50.671919044107199" lon="13.45516380853951">
        <ele>565</ele>
        <time>2026-08-29T07:36:59Z</time>
      </trkpt>
      <trkpt lat="50.671893060207367" lon="13.455087449401617">
        <ele>564</ele>
        <time>2026-08-29T07:37:00Z</time>
      </trkpt>
      <trkpt lat="50.671867411583662" lon="13.455019891262054">
        <ele>565</ele>
        <time>2026-08-29T07:37:01Z</time>
      </trkpt>
      <trkpt lat="50.671839583665133" lon="13.454947303980589">
        <ele>565</ele>
        <time>2026-08-29T07:37:02Z</time>
      </trkpt>
      <trkpt lat="50.671816952526569" lon="13.454871447756886">
        <ele>566</ele>
        <time>2026-08-29T07:37:03Z</time>
      </trkpt>
      <trkpt lat="50.671788370236754" lon="13.454799698665738">
        <ele>566</ele>
        <time>2026-08-29T07:37:04Z</time>
      </trkpt>
      <trkpt lat="50.671762051060796" lon="13.454721160233021">
        <ele>566</ele>
        <time>2026-08-29T07:37:05Z</time>
      </trkpt>
      <trkpt lat="50.671732127666473" lon="13.454650333151221">
        <ele>567</ele>
        <time>2026-08-29T07:37:06Z</time>
      </trkpt>
      <trkpt lat="50.671704970300198" lon="13.454570285975933">
        <ele>567</ele>
        <time>2026-08-29T07:37:07Z</time>
      </trkpt>
      <trkpt lat="50.671673873439431" lon="13.454493843019009">
        <ele>567</ele>
        <time>2026-08-29T07:37:08Z</time>
      </trkpt>
      <trkpt lat="50.671649649739265" lon="13.454412706196308">
        <ele>567</ele>
        <time>2026-08-29T07:37:09Z</time>
      </trkpt>
      <trkpt lat="50.671619055792689" lon="13.454327629879117">
        <ele>567</ele>
        <time>2026-08-29T07:37:10Z</time>
      </trkpt>
      <trkpt lat="50.671592820435762" lon="13.454250516369939">
        <ele>567</ele>
        <time>2026-08-29T07:37:11Z</time>
      </trkpt>
      <trkpt lat="50.671560801565647" lon="13.454159907996655">
        <ele>567</ele>
        <time>2026-08-29T07:37:12Z</time>
      </trkpt>
      <trkpt lat="50.671529369428754" lon="13.454076256603003">
        <ele>567</ele>
        <time>2026-08-29T07:37:13Z</time>
      </trkpt>
      <trkpt lat="50.671496680006385" lon="13.453994868323207">
        <ele>567</ele>
        <time>2026-08-29T07:37:14Z</time>
      </trkpt>
      <trkpt lat="50.671466840431094" lon="13.453910294920206">
        <ele>567</ele>
        <time>2026-08-29T07:37:15Z</time>
      </trkpt>
      <trkpt lat="50.671428702771664" lon="13.453823709860444">
        <ele>566</ele>
        <time>2026-08-29T07:37:16Z</time>
      </trkpt>
      <trkpt lat="50.671391570940614" lon="13.453746093437076">
        <ele>567</ele>
        <time>2026-08-29T07:37:17Z</time>
      </trkpt>
      <trkpt lat="50.67135863006115" lon="13.453664956614375">
        <ele>567</ele>
        <time>2026-08-29T07:37:18Z</time>
      </trkpt>
      <trkpt lat="50.671327114105225" lon="13.453586753457785">
        <ele>566</ele>
        <time>2026-08-29T07:37:19Z</time>
      </trkpt>
      <trkpt lat="50.671294424682856" lon="13.453512657433748">
        <ele>566</ele>
        <time>2026-08-29T07:37:20Z</time>
      </trkpt>
      <trkpt lat="50.671262741088867" lon="13.45343554392457">
        <ele>566</ele>
        <time>2026-08-29T07:37:21Z</time>
      </trkpt>
      <trkpt lat="50.671222172677517" lon="13.453364381566644">
        <ele>565</ele>
        <time>2026-08-29T07:37:22Z</time>
      </trkpt>
      <trkpt lat="50.671183783560991" lon="13.453298080712557">
        <ele>565</ele>
        <time>2026-08-29T07:37:23Z</time>
      </trkpt>
      <trkpt lat="50.671148579567671" lon="13.453219458460808">
        <ele>565</ele>
        <time>2026-08-29T07:37:24Z</time>
      </trkpt>
      <trkpt lat="50.671112202107906" lon="13.45313505269587">
        <ele>565</ele>
        <time>2026-08-29T07:37:25Z</time>
      </trkpt>
      <trkpt lat="50.671078506857157" lon="13.45305492170155">
        <ele>565</ele>
        <time>2026-08-29T07:37:26Z</time>
      </trkpt>
      <trkpt lat="50.671038860455155" lon="13.452981244772673">
        <ele>565</ele>
        <time>2026-08-29T07:37:27Z</time>
      </trkpt>
      <trkpt lat="50.670994939282537" lon="13.452902287244797">
        <ele>564</ele>
        <time>2026-08-29T07:37:28Z</time>
      </trkpt>
      <trkpt lat="50.67095261067152" lon="13.4528296161443">
        <ele>564</ele>
        <time>2026-08-29T07:37:29Z</time>
      </trkpt>
      <trkpt lat="50.670912796631455" lon="13.452747724950314">
        <ele>564</ele>
        <time>2026-08-29T07:37:30Z</time>
      </trkpt>
      <trkpt lat="50.670871222391725" lon="13.452670024707913">
        <ele>564</ele>
        <time>2026-08-29T07:37:31Z</time>
      </trkpt>
      <trkpt lat="50.670826211571693" lon="13.452601712197065">
        <ele>564</ele>
        <time>2026-08-29T07:37:32Z</time>
      </trkpt>
      <trkpt lat="50.670783631503582" lon="13.452527867630124">
        <ele>565</ele>
        <time>2026-08-29T07:37:33Z</time>
      </trkpt>
      <trkpt lat="50.670742141082883" lon="13.452444383874536">
        <ele>565</ele>
        <time>2026-08-29T07:37:34Z</time>
      </trkpt>
      <trkpt lat="50.670694783329964" lon="13.452378418296576">
        <ele>564</ele>
        <time>2026-08-29T07:37:35Z</time>
      </trkpt>
      <trkpt lat="50.670645078644156" lon="13.452314799651504">
        <ele>564</ele>
        <time>2026-08-29T07:37:36Z</time>
      </trkpt>
      <trkpt lat="50.670601157471538" lon="13.452246906235814">
        <ele>564</ele>
        <time>2026-08-29T07:37:37Z</time>
      </trkpt>
      <trkpt lat="50.670559499412775" lon="13.452180186286569">
        <ele>564</ele>
        <time>2026-08-29T07:37:38Z</time>
      </trkpt>
      <trkpt lat="50.670522032305598" lon="13.452118327841163">
        <ele>564</ele>
        <time>2026-08-29T07:37:39Z</time>
      </trkpt>
      <trkpt lat="50.670480709522963" lon="13.45205320045352">
        <ele>564</ele>
        <time>2026-08-29T07:37:40Z</time>
      </trkpt>
      <trkpt lat="50.670437458902597" lon="13.451993186026812">
        <ele>564</ele>
        <time>2026-08-29T07:37:41Z</time>
      </trkpt>
      <trkpt lat="50.670383982360363" lon="13.451940715312958">
        <ele>564</ele>
        <time>2026-08-29T07:37:42Z</time>
      </trkpt>
      <trkpt lat="50.670326231047511" lon="13.451902745291591">
        <ele>565</ele>
        <time>2026-08-29T07:37:43Z</time>
      </trkpt>
      <trkpt lat="50.67027241922915" lon="13.451866284012794">
        <ele>565</ele>
        <time>2026-08-29T07:37:44Z</time>
      </trkpt>
      <trkpt lat="50.670215589925647" lon="13.451831582933664">
        <ele>565</ele>
        <time>2026-08-29T07:37:45Z</time>
      </trkpt>
      <trkpt lat="50.670159095898271" lon="13.451806772500277">
        <ele>565</ele>
        <time>2026-08-29T07:37:46Z</time>
      </trkpt>
      <trkpt lat="50.670102350413799" lon="13.451793109998107">
        <ele>564</ele>
        <time>2026-08-29T07:37:47Z</time>
      </trkpt>
      <trkpt lat="50.67004325799644" lon="13.451776849105954">
        <ele>564</ele>
        <time>2026-08-29T07:37:48Z</time>
      </trkpt>
      <trkpt lat="50.669988188892603" lon="13.451757151633501">
        <ele>564</ele>
        <time>2026-08-29T07:37:49Z</time>
      </trkpt>
      <trkpt lat="50.66993379034102" lon="13.451736364513636">
        <ele>564</ele>
        <time>2026-08-29T07:37:50Z</time>
      </trkpt>
      <trkpt lat="50.669881654903293" lon="13.451719349250197">
        <ele>563</ele>
        <time>2026-08-29T07:37:51Z</time>
      </trkpt>
      <trkpt lat="50.669838655740023" lon="13.451707782223821">
        <ele>562</ele>
        <time>2026-08-29T07:37:52Z</time>
      </trkpt>
      <trkpt lat="50.669805379584432" lon="13.451688503846526">
        <ele>562</ele>
        <time>2026-08-29T07:37:53Z</time>
      </trkpt>
      <trkpt lat="50.669781491160393" lon="13.451658161357045">
        <ele>562</ele>
        <time>2026-08-29T07:37:54Z</time>
      </trkpt>
      <trkpt lat="50.669764559715986" lon="13.451610971242189">
        <ele>562</ele>
        <time>2026-08-29T07:37:55Z</time>
      </trkpt>
      <trkpt lat="50.66976179368794" lon="13.451547436416149">
        <ele>563</ele>
        <time>2026-08-29T07:37:56Z</time>
      </trkpt>
      <trkpt lat="50.669769840314984" lon="13.451484655961394">
        <ele>562</ele>
        <time>2026-08-29T07:37:57Z</time>
      </trkpt>
      <trkpt lat="50.669778389856219" lon="13.451418774202466">
        <ele>562</ele>
        <time>2026-08-29T07:37:58Z</time>
      </trkpt>
      <trkpt lat="50.669780988246202" lon="13.451353898271918">
        <ele>562</ele>
        <time>2026-08-29T07:37:59Z</time>
      </trkpt>
      <trkpt lat="50.669780569151044" lon="13.451296398416162">
        <ele>562</ele>
        <time>2026-08-29T07:38:00Z</time>
      </trkpt>
      <trkpt lat="50.669776545837522" lon="13.451246023178101">
        <ele>562</ele>
        <time>2026-08-29T07:38:01Z</time>
      </trkpt>
      <trkpt lat="50.669777719303966" lon="13.451203946024179">
        <ele>562</ele>
        <time>2026-08-29T07:38:02Z</time>
      </trkpt>
      <trkpt lat="50.669778138399124" lon="13.451165640726686">
        <ele>562</ele>
        <time>2026-08-29T07:38:03Z</time>
      </trkpt>
      <trkpt lat="50.669777132570744" lon="13.451135968789458">
        <ele>562</ele>
        <time>2026-08-29T07:38:04Z</time>
      </trkpt>
      <trkpt lat="50.669771516695619" lon="13.451099675148726">
        <ele>562</ele>
        <time>2026-08-29T07:38:05Z</time>
      </trkpt>
      <trkpt lat="50.669762380421162" lon="13.451057430356741">
        <ele>561</ele>
        <time>2026-08-29T07:38:06Z</time>
      </trkpt>
      <trkpt lat="50.669746790081263" lon="13.451014012098312">
        <ele>561</ele>
        <time>2026-08-29T07:38:07Z</time>
      </trkpt>
      <trkpt lat="50.669722482562065" lon="13.450976209715009">
        <ele>561</ele>
        <time>2026-08-29T07:38:08Z</time>
      </trkpt>
      <trkpt lat="50.669696414843202" lon="13.450937820598483">
        <ele>561</ele>
        <time>2026-08-29T07:38:09Z</time>
      </trkpt>
      <trkpt lat="50.669660037383437" lon="13.450895994901657">
        <ele>561</ele>
        <time>2026-08-29T07:38:10Z</time>
      </trkpt>
      <trkpt lat="50.669623576104641" lon="13.450847128406167">
        <ele>561</ele>
        <time>2026-08-29T07:38:11Z</time>
      </trkpt>
      <trkpt lat="50.669593065977097" lon="13.450798094272614">
        <ele>561</ele>
        <time>2026-08-29T07:38:12Z</time>
      </trkpt>
      <trkpt lat="50.669555682688951" lon="13.450750233605504">
        <ele>561</ele>
        <time>2026-08-29T07:38:13Z</time>
      </trkpt>
      <trkpt lat="50.669516371563077" lon="13.45070262439549">
        <ele>561</ele>
        <time>2026-08-29T07:38:14Z</time>
      </trkpt>
      <trkpt lat="50.669469349086285" lon="13.450659206137061">
        <ele>561</ele>
        <time>2026-08-29T07:38:15Z</time>
      </trkpt>
      <trkpt lat="50.669424422085285" lon="13.450603550300002">
        <ele>561</ele>
        <time>2026-08-29T07:38:16Z</time>
      </trkpt>
      <trkpt lat="50.669381758198142" lon="13.450545463711023">
        <ele>560</ele>
        <time>2026-08-29T07:38:17Z</time>
      </trkpt>
      <trkpt lat="50.669338256120682" lon="13.450488969683647">
        <ele>560</ele>
        <time>2026-08-29T07:38:18Z</time>
      </trkpt>
      <trkpt lat="50.669296681880951" lon="13.450443791225553">
        <ele>560</ele>
        <time>2026-08-29T07:38:19Z</time>
      </trkpt>
      <trkpt lat="50.669251587241888" lon="13.450400456786156">
        <ele>560</ele>
        <time>2026-08-29T07:38:20Z</time>
      </trkpt>
      <trkpt lat="50.669209007173777" lon="13.450351757928729">
        <ele>559</ele>
        <time>2026-08-29T07:38:21Z</time>
      </trkpt>
      <trkpt lat="50.669174557551742" lon="13.450309596955776">
        <ele>560</ele>
        <time>2026-08-29T07:38:22Z</time>
      </trkpt>
      <trkpt lat="50.669137509539723" lon="13.450272968038917">
        <ele>560</ele>
        <time>2026-08-29T07:38:23Z</time>
      </trkpt>
      <trkpt lat="50.66910557448864" lon="13.45021940767765">
        <ele>560</ele>
        <time>2026-08-29T07:38:24Z</time>
      </trkpt>
      <trkpt lat="50.669080596417189" lon="13.450162746012211">
        <ele>560</ele>
        <time>2026-08-29T07:38:25Z</time>
      </trkpt>
      <trkpt lat="50.669077159836888" lon="13.450111532583833">
        <ele>560</ele>
        <time>2026-08-29T07:38:26Z</time>
      </trkpt>
      <trkpt lat="50.669047236442566" lon="13.450075825676322">
        <ele>560</ele>
        <time>2026-08-29T07:38:27Z</time>
      </trkpt>
      <trkpt lat="50.669013960286975" lon="13.450029892846942">
        <ele>561</ele>
        <time>2026-08-29T07:38:28Z</time>
      </trkpt>
      <trkpt lat="50.668980181217194" lon="13.449987815693021">
        <ele>561</ele>
        <time>2026-08-29T07:38:29Z</time>
      </trkpt>
      <trkpt lat="50.668942630290985" lon="13.449951689690351">
        <ele>562</ele>
        <time>2026-08-29T07:38:30Z</time>
      </trkpt>
      <trkpt lat="50.668912958353758" lon="13.449908019974828">
        <ele>562</ele>
        <time>2026-08-29T07:38:31Z</time>
      </trkpt>
      <trkpt lat="50.668881610035896" lon="13.449876420199871">
        <ele>562</ele>
        <time>2026-08-29T07:38:32Z</time>
      </trkpt>
      <trkpt lat="50.668850680813193" lon="13.449843898415565">
        <ele>562</ele>
        <time>2026-08-29T07:38:33Z</time>
      </trkpt>
      <trkpt lat="50.668821092694998" lon="13.449809951707721">
        <ele>562</ele>
        <time>2026-08-29T07:38:34Z</time>
      </trkpt>
      <trkpt lat="50.668795108795166" lon="13.449780363589525">
        <ele>562</ele>
        <time>2026-08-29T07:38:35Z</time>
      </trkpt>
      <trkpt lat="50.668769460171461" lon="13.449750021100044">
        <ele>562</ele>
        <time>2026-08-29T07:38:36Z</time>
      </trkpt>
      <trkpt lat="50.668746158480644" lon="13.449723366647959">
        <ele>562</ele>
        <time>2026-08-29T07:38:37Z</time>
      </trkpt>
      <trkpt lat="50.668727550655603" lon="13.449692185968161">
        <ele>562</ele>
        <time>2026-08-29T07:38:38Z</time>
      </trkpt>
      <trkpt lat="50.668708691373467" lon="13.449667459353805">
        <ele>562</ele>
        <time>2026-08-29T07:38:39Z</time>
      </trkpt>
      <trkpt lat="50.668694106861949" lon="13.449646420776844">
        <ele>562</ele>
        <time>2026-08-29T07:38:40Z</time>
      </trkpt>
      <trkpt lat="50.668672900646925" lon="13.449627477675676">
        <ele>562</ele>
        <time>2026-08-29T07:38:41Z</time>
      </trkpt>
      <trkpt lat="50.668658567592502" lon="13.449600907042623">
        <ele>562</ele>
        <time>2026-08-29T07:38:42Z</time>
      </trkpt>
      <trkpt lat="50.668637780472636" lon="13.449571989476681">
        <ele>562</ele>
        <time>2026-08-29T07:38:43Z</time>
      </trkpt>
      <trkpt lat="50.668617160990834" lon="13.449546927586198">
        <ele>562</ele>
        <time>2026-08-29T07:38:44Z</time>
      </trkpt>
      <trkpt lat="50.668598553165793" lon="13.449525805190206">
        <ele>562</ele>
        <time>2026-08-29T07:38:45Z</time>
      </trkpt>
      <trkpt lat="50.668577933683991" lon="13.449506191536784">
        <ele>562</ele>
        <time>2026-08-29T07:38:46Z</time>
      </trkpt>
      <trkpt lat="50.66855588927865" lon="13.449484566226602">
        <ele>562</ele>
        <time>2026-08-29T07:38:47Z</time>
      </trkpt>
      <trkpt lat="50.668535940349102" lon="13.449464114382863">
        <ele>563</ele>
        <time>2026-08-29T07:38:48Z</time>
      </trkpt>
      <trkpt lat="50.668519092723727" lon="13.449439303949475">
        <ele>563</ele>
        <time>2026-08-29T07:38:49Z</time>
      </trkpt>
      <trkpt lat="50.668503334745765" lon="13.449417091906071">
        <ele>563</ele>
        <time>2026-08-29T07:38:50Z</time>
      </trkpt>
      <trkpt lat="50.668493863195181" lon="13.449395634233952">
        <ele>563</ele>
        <time>2026-08-29T07:38:51Z</time>
      </trkpt>
      <trkpt lat="50.668481457978487" lon="13.449380546808243">
        <ele>564</ele>
        <time>2026-08-29T07:38:52Z</time>
      </trkpt>
      <trkpt lat="50.668473327532411" lon="13.449354479089379">
        <ele>564</ele>
        <time>2026-08-29T07:38:53Z</time>
      </trkpt>
      <trkpt lat="50.6684635207057" lon="13.449328243732452">
        <ele>564</ele>
        <time>2026-08-29T07:38:54Z</time>
      </trkpt>
      <trkpt lat="50.668459748849273" lon="13.449294380843639">
        <ele>564</ele>
        <time>2026-08-29T07:38:55Z</time>
      </trkpt>
      <trkpt lat="50.668455976992846" lon="13.449252806603909">
        <ele>564</ele>
        <time>2026-08-29T07:38:56Z</time>
      </trkpt>
      <trkpt lat="50.668461760506034" lon="13.449212154373527">
        <ele>564</ele>
        <time>2026-08-29T07:38:57Z</time>
      </trkpt>
      <trkpt lat="50.668468801304698" lon="13.449164712801576">
        <ele>565</ele>
        <time>2026-08-29T07:38:58Z</time>
      </trkpt>
      <trkpt lat="50.668470058590174" lon="13.449115930125117">
        <ele>565</ele>
        <time>2026-08-29T07:38:59Z</time>
      </trkpt>
      <trkpt lat="50.668471148237586" lon="13.449062285944819">
        <ele>564</ele>
        <time>2026-08-29T07:39:00Z</time>
      </trkpt>
      <trkpt lat="50.668471734970808" lon="13.449004618450999">
        <ele>564</ele>
        <time>2026-08-29T07:39:01Z</time>
      </trkpt>
      <trkpt lat="50.668467879295349" lon="13.44894602894783">
        <ele>564</ele>
        <time>2026-08-29T07:39:02Z</time>
      </trkpt>
      <trkpt lat="50.668459832668304" lon="13.448895150795579">
        <ele>563</ele>
        <time>2026-08-29T07:39:03Z</time>
      </trkpt>
      <trkpt lat="50.668448600918055" lon="13.448827341198921">
        <ele>562</ele>
        <time>2026-08-29T07:39:04Z</time>
      </trkpt>
      <trkpt lat="50.668442817404866" lon="13.448768835514784">
        <ele>562</ele>
        <time>2026-08-29T07:39:05Z</time>
      </trkpt>
      <trkpt lat="50.668427059426904" lon="13.44869683496654">
        <ele>562</ele>
        <time>2026-08-29T07:39:06Z</time>
      </trkpt>
      <trkpt lat="50.668406020849943" lon="13.448625588789582">
        <ele>562</ele>
        <time>2026-08-29T07:39:07Z</time>
      </trkpt>
      <trkpt lat="50.668384479358792" lon="13.448562975972891">
        <ele>561</ele>
        <time>2026-08-29T07:39:08Z</time>
      </trkpt>
      <trkpt lat="50.668356819078326" lon="13.448507655411959">
        <ele>561</ele>
        <time>2026-08-29T07:39:09Z</time>
      </trkpt>
      <trkpt lat="50.668331757187843" lon="13.44844956882298">
        <ele>561</ele>
        <time>2026-08-29T07:39:10Z</time>
      </trkpt>
      <trkpt lat="50.668312227353454" lon="13.44838947057724">
        <ele>561</ele>
        <time>2026-08-29T07:39:11Z</time>
      </trkpt>
      <trkpt lat="50.668304013088346" lon="13.448331383988261">
        <ele>561</ele>
        <time>2026-08-29T07:39:12Z</time>
      </trkpt>
      <trkpt lat="50.66828372888267" lon="13.448283523321152">
        <ele>562</ele>
        <time>2026-08-29T07:39:13Z</time>
      </trkpt>
      <trkpt lat="50.668263528496027" lon="13.448241362348199">
        <ele>562</ele>
        <time>2026-08-29T07:39:14Z</time>
      </trkpt>
      <trkpt lat="50.668239556252956" lon="13.448202973231673">
        <ele>562</ele>
        <time>2026-08-29T07:39:15Z</time>
      </trkpt>
      <trkpt lat="50.668210638687015" lon="13.448165087029338">
        <ele>562</ele>
        <time>2026-08-29T07:39:16Z</time>
      </trkpt>
      <trkpt lat="50.668183648958802" lon="13.44813390634954">
        <ele>562</ele>
        <time>2026-08-29T07:39:17Z</time>
      </trkpt>
      <trkpt lat="50.668150959536433" lon="13.448103815317154">
        <ele>561</ele>
        <time>2026-08-29T07:39:18Z</time>
      </trkpt>
      <trkpt lat="50.668116258457303" lon="13.448075065389276">
        <ele>561</ele>
        <time>2026-08-29T07:39:19Z</time>
      </trkpt>
      <trkpt lat="50.66807652823627" lon="13.448042208328843">
        <ele>561</ele>
        <time>2026-08-29T07:39:20Z</time>
      </trkpt>
      <trkpt lat="50.668038809671998" lon="13.448012620210648">
        <ele>561</ele>
        <time>2026-08-29T07:39:21Z</time>
      </trkpt>
      <trkpt lat="50.668002599850297" lon="13.447971548885107">
        <ele>561</ele>
        <time>2026-08-29T07:39:22Z</time>
      </trkpt>
      <trkpt lat="50.667970161885023" lon="13.447926621884108">
        <ele>561</ele>
        <time>2026-08-29T07:39:23Z</time>
      </trkpt>
      <trkpt lat="50.667931018397212" lon="13.447888987138867">
        <ele>561</ele>
        <time>2026-08-29T07:39:24Z</time>
      </trkpt>
      <trkpt lat="50.667894473299384" lon="13.447841294109821">
        <ele>562</ele>
        <time>2026-08-29T07:39:25Z</time>
      </trkpt>
      <trkpt lat="50.667859604582191" lon="13.447790080681443">
        <ele>561</ele>
        <time>2026-08-29T07:39:26Z</time>
      </trkpt>
      <trkpt lat="50.667824149131775" lon="13.447741884738207">
        <ele>561</ele>
        <time>2026-08-29T07:39:27Z</time>
      </trkpt>
      <trkpt lat="50.667795818299055" lon="13.447679942473769">
        <ele>561</ele>
        <time>2026-08-29T07:39:28Z</time>
      </trkpt>
      <trkpt lat="50.66776379942894" lon="13.447642307728529">
        <ele>561</ele>
        <time>2026-08-29T07:39:29Z</time>
      </trkpt>
      <trkpt lat="50.667732870206237" lon="13.447602158412337">
        <ele>561</ele>
        <time>2026-08-29T07:39:30Z</time>
      </trkpt>
      <trkpt lat="50.667703030630946" lon="13.447555135935545">
        <ele>561</ele>
        <time>2026-08-29T07:39:31Z</time>
      </trkpt>
      <trkpt lat="50.667674783617258" lon="13.44750945456326">
        <ele>561</ele>
        <time>2026-08-29T07:39:32Z</time>
      </trkpt>
      <trkpt lat="50.667647542431951" lon="13.447471987456083">
        <ele>561</ele>
        <time>2026-08-29T07:39:33Z</time>
      </trkpt>
      <trkpt lat="50.66760890185833" lon="13.447436280548573">
        <ele>561</ele>
        <time>2026-08-29T07:39:34Z</time>
      </trkpt>
      <trkpt lat="50.667576128616929" lon="13.447404596954584">
        <ele>561</ele>
        <time>2026-08-29T07:39:35Z</time>
      </trkpt>
      <trkpt lat="50.667551821097732" lon="13.447361849248409">
        <ele>561</ele>
        <time>2026-08-29T07:39:36Z</time>
      </trkpt>
      <trkpt lat="50.667521813884377" lon="13.447326309978962">
        <ele>561</ele>
        <time>2026-08-29T07:39:37Z</time>
      </trkpt>
      <trkpt lat="50.667492728680372" lon="13.447283897548914">
        <ele>561</ele>
        <time>2026-08-29T07:39:38Z</time>
      </trkpt>
      <trkpt lat="50.667467415332794" lon="13.447242071852088">
        <ele>560</ele>
        <time>2026-08-29T07:39:39Z</time>
      </trkpt>
      <trkpt lat="50.667436486110091" lon="13.447206951677799">
        <ele>560</ele>
        <time>2026-08-29T07:39:40Z</time>
      </trkpt>
      <trkpt lat="50.667406897991896" lon="13.447155570611358">
        <ele>559</ele>
        <time>2026-08-29T07:39:41Z</time>
      </trkpt>
      <trkpt lat="50.667370269075036" lon="13.447110140696168">
        <ele>559</ele>
        <time>2026-08-29T07:39:42Z</time>
      </trkpt>
      <trkpt lat="50.667341519147158" lon="13.447059514001012">
        <ele>559</ele>
        <time>2026-08-29T07:39:43Z</time>
      </trkpt>
      <trkpt lat="50.667316038161516" lon="13.447015509009361">
        <ele>559</ele>
        <time>2026-08-29T07:39:44Z</time>
      </trkpt>
      <trkpt lat="50.66728737205267" lon="13.446974353864789">
        <ele>560</ele>
        <time>2026-08-29T07:39:45Z</time>
      </trkpt>
      <trkpt lat="50.667271530255675" lon="13.446914507076144">
        <ele>560</ele>
        <time>2026-08-29T07:39:46Z</time>
      </trkpt>
      <trkpt lat="50.667254012078047" lon="13.446864383295178">
        <ele>559</ele>
        <time>2026-08-29T07:39:47Z</time>
      </trkpt>
      <trkpt lat="50.667243367061019" lon="13.446796992793679">
        <ele>559</ele>
        <time>2026-08-29T07:39:48Z</time>
      </trkpt>
      <trkpt lat="50.667235404253006" lon="13.446722561493516">
        <ele>559</ele>
        <time>2026-08-29T07:39:49Z</time>
      </trkpt>
      <trkpt lat="50.667230291292071" lon="13.446649219840765">
        <ele>559</ele>
        <time>2026-08-29T07:39:50Z</time>
      </trkpt>
      <trkpt lat="50.667228614911437" lon="13.446571351960301">
        <ele>559</ele>
        <time>2026-08-29T07:39:51Z</time>
      </trkpt>
      <trkpt lat="50.667232722043991" lon="13.44649750739336">
        <ele>559</ele>
        <time>2026-08-29T07:39:52Z</time>
      </trkpt>
      <trkpt lat="50.667223250493407" lon="13.446434140205383">
        <ele>560</ele>
        <time>2026-08-29T07:39:53Z</time>
      </trkpt>
      <trkpt lat="50.667212437838316" lon="13.446375383064151">
        <ele>559</ele>
        <time>2026-08-29T07:39:54Z</time>
      </trkpt>
      <trkpt lat="50.667196428403258" lon="13.446319308131933">
        <ele>559</ele>
        <time>2026-08-29T07:39:55Z</time>
      </trkpt>
      <trkpt lat="50.667183352634311" lon="13.446272118017077">
        <ele>559</ele>
        <time>2026-08-29T07:39:56Z</time>
      </trkpt>
      <trkpt lat="50.667166421189904" lon="13.446230459958315">
        <ele>559</ele>
        <time>2026-08-29T07:39:57Z</time>
      </trkpt>
      <trkpt lat="50.667154267430305" lon="13.446190897375345">
        <ele>559</ele>
        <time>2026-08-29T07:39:58Z</time>
      </trkpt>
      <trkpt lat="50.667147310450673" lon="13.446164326742291">
        <ele>559</ele>
        <time>2026-08-29T07:39:59Z</time>
      </trkpt>
      <trkpt lat="50.66713540814817" lon="13.44614764675498">
        <ele>559</ele>
        <time>2026-08-29T07:40:00Z</time>
      </trkpt>
      <trkpt lat="50.667123170569539" lon="13.446123003959656">
        <ele>559</ele>
        <time>2026-08-29T07:40:01Z</time>
      </trkpt>
      <trkpt lat="50.667113531380892" lon="13.44610464759171">
        <ele>558</ele>
        <time>2026-08-29T07:40:02Z</time>
      </trkpt>
      <trkpt lat="50.667102048173547" lon="13.446088470518589">
        <ele>558</ele>
        <time>2026-08-29T07:40:03Z</time>
      </trkpt>
      <trkpt lat="50.667094504460692" lon="13.446068773046136">
        <ele>558</ele>
        <time>2026-08-29T07:40:04Z</time>
      </trkpt>
      <trkpt lat="50.667089307680726" lon="13.446048907935619">
        <ele>559</ele>
        <time>2026-08-29T07:40:05Z</time>
      </trkpt>
      <trkpt lat="50.667083105072379" lon="13.446029964834452">
        <ele>559</ele>
        <time>2026-08-29T07:40:06Z</time>
      </trkpt>
      <trkpt lat="50.667080339044333" lon="13.446019235998392">
        <ele>559</ele>
        <time>2026-08-29T07:40:07Z</time>
      </trkpt>
      <trkpt lat="50.667074052616954" lon="13.445996018126607">
        <ele>559</ele>
        <time>2026-08-29T07:40:08Z</time>
      </trkpt>
      <trkpt lat="50.667062066495419" lon="13.445984786376357">
        <ele>559</ele>
        <time>2026-08-29T07:40:09Z</time>
      </trkpt>
      <trkpt lat="50.667056031525135" lon="13.445963077247143">
        <ele>559</ele>
        <time>2026-08-29T07:40:10Z</time>
      </trkpt>
      <trkpt lat="50.667050331830978" lon="13.445941200479865">
        <ele>559</ele>
        <time>2026-08-29T07:40:11Z</time>
      </trkpt>
      <trkpt lat="50.667039938271046" lon="13.445916641503572">
        <ele>559</ele>
        <time>2026-08-29T07:40:12Z</time>
      </trkpt>
      <trkpt lat="50.667034070938826" lon="13.445896273478866">
        <ele>559</ele>
        <time>2026-08-29T07:40:13Z</time>
      </trkpt>
      <trkpt lat="50.667022671550512" lon="13.445874815806746">
        <ele>558</ele>
        <time>2026-08-29T07:40:14Z</time>
      </trkpt>
      <trkpt lat="50.667009931057692" lon="13.445848077535629">
        <ele>558</ele>
        <time>2026-08-29T07:40:15Z</time>
      </trkpt>
      <trkpt lat="50.666995011270046" lon="13.445811113342643">
        <ele>558</ele>
        <time>2026-08-29T07:40:16Z</time>
      </trkpt>
      <trkpt lat="50.666980259120464" lon="13.445765348151326">
        <ele>558</ele>
        <time>2026-08-29T07:40:17Z</time>
      </trkpt>
      <trkpt lat="50.666956622153521" lon="13.445712123066187">
        <ele>558</ele>
        <time>2026-08-29T07:40:18Z</time>
      </trkpt>
      <trkpt lat="50.666926112025976" lon="13.445650348439813">
        <ele>558</ele>
        <time>2026-08-29T07:40:19Z</time>
      </trkpt>
      <trkpt lat="50.666891410946846" lon="13.445595195516944">
        <ele>558</ele>
        <time>2026-08-29T07:40:20Z</time>
      </trkpt>
      <trkpt lat="50.666865259408951" lon="13.44553635455668">
        <ele>558</ele>
        <time>2026-08-29T07:40:21Z</time>
      </trkpt>
      <trkpt lat="50.666828295215964" lon="13.445488410070539">
        <ele>558</ele>
        <time>2026-08-29T07:40:22Z</time>
      </trkpt>
      <trkpt lat="50.666795019060373" lon="13.445425545796752">
        <ele>558</ele>
        <time>2026-08-29T07:40:23Z</time>
      </trkpt>
      <trkpt lat="50.666769370436668" lon="13.445355473086238">
        <ele>558</ele>
        <time>2026-08-29T07:40:24Z</time>
      </trkpt>
      <trkpt lat="50.666749002411962" lon="13.445292022079229">
        <ele>558</ele>
        <time>2026-08-29T07:40:25Z</time>
      </trkpt>
      <trkpt lat="50.6667210906744" lon="13.44523536041379">
        <ele>558</ele>
        <time>2026-08-29T07:40:26Z</time>
      </trkpt>
      <trkpt lat="50.6666917540133" lon="13.44517526216805">
        <ele>558</ele>
        <time>2026-08-29T07:40:27Z</time>
      </trkpt>
      <trkpt lat="50.666658980771899" lon="13.445119941607118">
        <ele>558</ele>
        <time>2026-08-29T07:40:28Z</time>
      </trkpt>
      <trkpt lat="50.666636349633336" lon="13.44505020417273">
        <ele>558</ele>
        <time>2026-08-29T07:40:29Z</time>
      </trkpt>
      <trkpt lat="50.666610617190599" lon="13.444997062906623">
        <ele>558</ele>
        <time>2026-08-29T07:40:30Z</time>
      </trkpt>
      <trkpt lat="50.666584130376577" lon="13.444939395412803">
        <ele>558</ele>
        <time>2026-08-29T07:40:31Z</time>
      </trkpt>
      <trkpt lat="50.666554542258382" lon="13.44487963244319">
        <ele>558</ele>
        <time>2026-08-29T07:40:32Z</time>
      </trkpt>
      <trkpt lat="50.666524032130837" lon="13.444818109273911">
        <ele>558</ele>
        <time>2026-08-29T07:40:33Z</time>
      </trkpt>
      <trkpt lat="50.666497880592942" lon="13.444761196151376">
        <ele>558</ele>
        <time>2026-08-29T07:40:34Z</time>
      </trkpt>
      <trkpt lat="50.666474411264062" lon="13.444692213088274">
        <ele>558</ele>
        <time>2026-08-29T07:40:35Z</time>
      </trkpt>
      <trkpt lat="50.666449768468738" lon="13.444628762081265">
        <ele>559</ele>
        <time>2026-08-29T07:40:36Z</time>
      </trkpt>
      <trkpt lat="50.666426382958889" lon="13.44454544596374">
        <ele>559</ele>
        <time>2026-08-29T07:40:37Z</time>
      </trkpt>
      <trkpt lat="50.666406182572246" lon="13.444471936672926">
        <ele>559</ele>
        <time>2026-08-29T07:40:38Z</time>
      </trkpt>
      <trkpt lat="50.666388999670744" lon="13.444392895326018">
        <ele>559</ele>
        <time>2026-08-29T07:40:39Z</time>
      </trkpt>
      <trkpt lat="50.666375756263733" lon="13.444319134578109">
        <ele>559</ele>
        <time>2026-08-29T07:40:40Z</time>
      </trkpt>
      <trkpt lat="50.666363770142198" lon="13.444262975826859">
        <ele>558</ele>
        <time>2026-08-29T07:40:41Z</time>
      </trkpt>
      <trkpt lat="50.666350945830345" lon="13.444195752963424">
        <ele>558</ele>
        <time>2026-08-29T07:40:42Z</time>
      </trkpt>
      <trkpt lat="50.666342815384269" lon="13.444136744365096">
        <ele>558</ele>
        <time>2026-08-29T07:40:43Z</time>
      </trkpt>
      <trkpt lat="50.666329739615321" lon="13.444087291136384">
        <ele>558</ele>
        <time>2026-08-29T07:40:44Z</time>
      </trkpt>
      <trkpt lat="50.666319681331515" lon="13.44403238967061">
        <ele>558</ele>
        <time>2026-08-29T07:40:45Z</time>
      </trkpt>
      <trkpt lat="50.666305599734187" lon="13.443963155150414">
        <ele>558</ele>
        <time>2026-08-29T07:40:46Z</time>
      </trkpt>
      <trkpt lat="50.666286321356893" lon="13.44387992285192">
        <ele>558</ele>
        <time>2026-08-29T07:40:47Z</time>
      </trkpt>
      <trkpt lat="50.666270479559898" lon="13.443812029436231">
        <ele>558</ele>
        <time>2026-08-29T07:40:48Z</time>
      </trkpt>
      <trkpt lat="50.666253631934524" lon="13.443749835714698">
        <ele>558</ele>
        <time>2026-08-29T07:40:49Z</time>
      </trkpt>
      <trkpt lat="50.666233850643039" lon="13.443681858479977">
        <ele>558</ele>
        <time>2026-08-29T07:40:50Z</time>
      </trkpt>
      <trkpt lat="50.666212309151888" lon="13.443618072196841">
        <ele>558</ele>
        <time>2026-08-29T07:40:51Z</time>
      </trkpt>
      <trkpt lat="50.666194958612323" lon="13.443562751635909">
        <ele>557</ele>
        <time>2026-08-29T07:40:52Z</time>
      </trkpt>
      <trkpt lat="50.666180877014995" lon="13.443485973402858">
        <ele>557</ele>
        <time>2026-08-29T07:40:53Z</time>
      </trkpt>
      <trkpt lat="50.666158329695463" lon="13.443414140492678">
        <ele>557</ele>
        <time>2026-08-29T07:40:54Z</time>
      </trkpt>
      <trkpt lat="50.666146008297801" lon="13.443337865173817">
        <ele>557</ele>
        <time>2026-08-29T07:40:55Z</time>
      </trkpt>
      <trkpt lat="50.666128490120173" lon="13.443272653967142">
        <ele>557</ele>
        <time>2026-08-29T07:40:56Z</time>
      </trkpt>
      <trkpt lat="50.66612203605473" lon="13.443206353113055">
        <ele>557</ele>
        <time>2026-08-29T07:40:57Z</time>
      </trkpt>
      <trkpt lat="50.666119186207652" lon="13.443135693669319">
        <ele>557</ele>
        <time>2026-08-29T07:40:58Z</time>
      </trkpt>
      <trkpt lat="50.666106110438704" lon="13.44306293874979">
        <ele>557</ele>
        <time>2026-08-29T07:40:59Z</time>
      </trkpt>
      <trkpt lat="50.666088089346886" lon="13.442985489964485">
        <ele>556</ele>
        <time>2026-08-29T07:41:00Z</time>
      </trkpt>
      <trkpt lat="50.666073253378272" lon="13.442923296242952">
        <ele>556</ele>
        <time>2026-08-29T07:41:01Z</time>
      </trkpt>
      <trkpt lat="50.666061099618673" lon="13.442857330664992">
        <ele>556</ele>
        <time>2026-08-29T07:41:02Z</time>
      </trkpt>
      <trkpt lat="50.666047018021345" lon="13.442781558260322">
        <ele>556</ele>
        <time>2026-08-29T07:41:03Z</time>
      </trkpt>
      <trkpt lat="50.666033020243049" lon="13.442704025655985">
        <ele>555</ele>
        <time>2026-08-29T07:41:04Z</time>
      </trkpt>
      <trkpt lat="50.666017010807991" lon="13.442633785307407">
        <ele>555</ele>
        <time>2026-08-29T07:41:05Z</time>
      </trkpt>
      <trkpt lat="50.665997061878443" lon="13.442549211904407">
        <ele>554</ele>
        <time>2026-08-29T07:41:06Z</time>
      </trkpt>
      <trkpt lat="50.665980549529195" lon="13.44247804954648">
        <ele>554</ele>
        <time>2026-08-29T07:41:07Z</time>
      </trkpt>
      <trkpt lat="50.665963450446725" lon="13.442404707893729">
        <ele>554</ele>
        <time>2026-08-29T07:41:08Z</time>
      </trkpt>
      <trkpt lat="50.665950542315841" lon="13.442330108955503">
        <ele>554</ele>
        <time>2026-08-29T07:41:09Z</time>
      </trkpt>
      <trkpt lat="50.665941070765257" lon="13.442249475046992">
        <ele>554</ele>
        <time>2026-08-29T07:41:10Z</time>
      </trkpt>
      <trkpt lat="50.665930509567261" lon="13.44217462465167">
        <ele>553</ele>
        <time>2026-08-29T07:41:11Z</time>
      </trkpt>
      <trkpt lat="50.665922462940216" lon="13.442094409838319">
        <ele>554</ele>
        <time>2026-08-29T07:41:12Z</time>
      </trkpt>
      <trkpt lat="50.665917349979281" lon="13.442008579149842">
        <ele>554</ele>
        <time>2026-08-29T07:41:13Z</time>
      </trkpt>
      <trkpt lat="50.665913410484791" lon="13.441917719319463">
        <ele>555</ele>
        <time>2026-08-29T07:41:14Z</time>
      </trkpt>
      <trkpt lat="50.66591827198863" lon="13.441837169229984">
        <ele>555</ele>
        <time>2026-08-29T07:41:15Z</time>
      </trkpt>
      <trkpt lat="50.665932102128863" lon="13.441745555028319">
        <ele>555</ele>
        <time>2026-08-29T07:41:16Z</time>
      </trkpt>
      <trkpt lat="50.665942579507828" lon="13.441659137606621">
        <ele>555</ele>
        <time>2026-08-29T07:41:17Z</time>
      </trkpt>
      <trkpt lat="50.66595540381968" lon="13.441570121794939">
        <ele>555</ele>
        <time>2026-08-29T07:41:18Z</time>
      </trkpt>
      <trkpt lat="50.665967557579279" lon="13.441481273621321">
        <ele>555</ele>
        <time>2026-08-29T07:41:19Z</time>
      </trkpt>
      <trkpt lat="50.665978789329529" lon="13.441396784037352">
        <ele>555</ele>
        <time>2026-08-29T07:41:20Z</time>
      </trkpt>
      <trkpt lat="50.665985662490129" lon="13.441316233947873">
        <ele>555</ele>
        <time>2026-08-29T07:41:21Z</time>
      </trkpt>
      <trkpt lat="50.665974598377943" lon="13.441235180944204">
        <ele>555</ele>
        <time>2026-08-29T07:41:22Z</time>
      </trkpt>
      <trkpt lat="50.66595003940165" lon="13.441170724108815">
        <ele>555</ele>
        <time>2026-08-29T07:41:23Z</time>
      </trkpt>
      <trkpt lat="50.665916930884123" lon="13.441115152090788">
        <ele>555</ele>
        <time>2026-08-29T07:41:24Z</time>
      </trkpt>
      <trkpt lat="50.665867729112506" lon="13.441083552315831">
        <ele>554</ele>
        <time>2026-08-29T07:41:25Z</time>
      </trkpt>
      <trkpt lat="50.665820958092809" lon="13.441066956147552">
        <ele>553</ele>
        <time>2026-08-29T07:41:26Z</time>
      </trkpt>
      <trkpt lat="50.665774187073112" lon="13.441055472940207">
        <ele>553</ele>
        <time>2026-08-29T07:41:27Z</time>
      </trkpt>
      <trkpt lat="50.665726410225034" lon="13.441048096865416">
        <ele>553</ele>
        <time>2026-08-29T07:41:28Z</time>
      </trkpt>
      <trkpt lat="50.665680980309844" lon="13.44105270691216">
        <ele>553</ele>
        <time>2026-08-29T07:41:29Z</time>
      </trkpt>
      <trkpt lat="50.665634879842401" lon="13.441054048016667">
        <ele>553</ele>
        <time>2026-08-29T07:41:30Z</time>
      </trkpt>
      <trkpt lat="50.665584253147244" lon="13.441062681376934">
        <ele>553</ele>
        <time>2026-08-29T07:41:31Z</time>
      </trkpt>
      <trkpt lat="50.665539158508182" lon="13.441078439354897">
        <ele>553</ele>
        <time>2026-08-29T07:41:32Z</time>
      </trkpt>
      <trkpt lat="50.66549414768815" lon="13.441091012209654">
        <ele>552</ele>
        <time>2026-08-29T07:41:33Z</time>
      </trkpt>
      <trkpt lat="50.665449053049088" lon="13.441095873713493">
        <ele>552</ele>
        <time>2026-08-29T07:41:34Z</time>
      </trkpt>
      <trkpt lat="50.665409155189991" lon="13.441097801551223">
        <ele>553</ele>
        <time>2026-08-29T07:41:35Z</time>
      </trkpt>
      <trkpt lat="50.665372861549258" lon="13.441099645569921">
        <ele>552</ele>
        <time>2026-08-29T07:41:36Z</time>
      </trkpt>
      <trkpt lat="50.665329778566957" lon="13.441096460446715">
        <ele>552</ele>
        <time>2026-08-29T07:41:37Z</time>
      </trkpt>
      <trkpt lat="50.665295831859112" lon="13.441099561750889">
        <ele>552</ele>
        <time>2026-08-29T07:41:38Z</time>
      </trkpt>
      <trkpt lat="50.665262471884489" lon="13.441093610599637">
        <ele>551</ele>
        <time>2026-08-29T07:41:39Z</time>
      </trkpt>
      <trkpt lat="50.665226094424725" lon="13.441092940047383">
        <ele>552</ele>
        <time>2026-08-29T07:41:40Z</time>
      </trkpt>
      <trkpt lat="50.665191560983658" lon="13.441089671105146">
        <ele>552</ele>
        <time>2026-08-29T07:41:41Z</time>
      </trkpt>
      <trkpt lat="50.665160296484828" lon="13.44109277240932">
        <ele>552</ele>
        <time>2026-08-29T07:41:42Z</time>
      </trkpt>
      <trkpt lat="50.665127020329237" lon="13.44108447432518">
        <ele>552</ele>
        <time>2026-08-29T07:41:43Z</time>
      </trkpt>
      <trkpt lat="50.665102209895849" lon="13.441062849014997">
        <ele>552</ele>
        <time>2026-08-29T07:41:44Z</time>
      </trkpt>
      <trkpt lat="50.665086368098855" lon="13.441033428534865">
        <ele>552</ele>
        <time>2026-08-29T07:41:45Z</time>
      </trkpt>
      <trkpt lat="50.665071532130241" lon="13.441012222319841">
        <ele>553</ele>
        <time>2026-08-29T07:41:46Z</time>
      </trkpt>
      <trkpt lat="50.665059797465801" lon="13.440987076610327">
        <ele>553</ele>
        <time>2026-08-29T07:41:47Z</time>
      </trkpt>
      <trkpt lat="50.665053008124232" lon="13.440960086882114">
        <ele>553</ele>
        <time>2026-08-29T07:41:48Z</time>
      </trkpt>
      <trkpt lat="50.665059629827738" lon="13.440928235650063">
        <ele>553</ele>
        <time>2026-08-29T07:41:49Z</time>
      </trkpt>
      <trkpt lat="50.665070777758956" lon="13.440886745229363">
        <ele>553</ele>
        <time>2026-08-29T07:41:50Z</time>
      </trkpt>
      <trkpt lat="50.665079411119223" lon="13.440825808793306">
        <ele>553</ele>
        <time>2026-08-29T07:41:51Z</time>
      </trkpt>
      <trkpt lat="50.665085194632411" lon="13.440752970054746">
        <ele>553</ele>
        <time>2026-08-29T07:41:52Z</time>
      </trkpt>
      <trkpt lat="50.665086787194014" lon="13.440705025568604">
        <ele>554</ele>
        <time>2026-08-29T07:41:53Z</time>
      </trkpt>
      <trkpt lat="50.665088044479489" lon="13.440652722492814">
        <ele>554</ele>
        <time>2026-08-29T07:41:54Z</time>
      </trkpt>
      <trkpt lat="50.665095252916217" lon="13.440597737208009">
        <ele>554</ele>
        <time>2026-08-29T07:41:55Z</time>
      </trkpt>
      <trkpt lat="50.665099611505866" lon="13.44054258428514">
        <ele>554</ele>
        <time>2026-08-29T07:41:56Z</time>
      </trkpt>
      <trkpt lat="50.665100701153278" lon="13.44049665145576">
        <ele>554</ele>
        <time>2026-08-29T07:41:57Z</time>
      </trkpt>
      <trkpt lat="50.665102964267135" lon="13.440433703362942">
        <ele>554</ele>
        <time>2026-08-29T07:41:58Z</time>
      </trkpt>
      <trkpt lat="50.66511008888483" lon="13.440374527126551">
        <ele>554</ele>
        <time>2026-08-29T07:41:59Z</time>
      </trkpt>
      <trkpt lat="50.665117548778653" lon="13.44031878747046">
        <ele>554</ele>
        <time>2026-08-29T07:42:00Z</time>
      </trkpt>
      <trkpt lat="50.665113357827067" lon="13.440251899883151">
        <ele>555</ele>
        <time>2026-08-29T07:42:01Z</time>
      </trkpt>
      <trkpt lat="50.665104389190674" lon="13.44018341973424">
        <ele>555</ele>
        <time>2026-08-29T07:42:02Z</time>
      </trkpt>
      <trkpt lat="50.665096594020724" lon="13.440124494954944">
        <ele>555</ele>
        <time>2026-08-29T07:42:03Z</time>
      </trkpt>
      <trkpt lat="50.665089720860124" lon="13.440056517720222">
        <ele>555</ele>
        <time>2026-08-29T07:42:04Z</time>
      </trkpt>
      <trkpt lat="50.665077399462461" lon="13.439996503293514">
        <ele>555</ele>
        <time>2026-08-29T07:42:05Z</time>
      </trkpt>
      <trkpt lat="50.665071867406368" lon="13.439927352592349">
        <ele>555</ele>
        <time>2026-08-29T07:42:06Z</time>
      </trkpt>
      <trkpt lat="50.665066922083497" lon="13.439860129728913">
        <ele>555</ele>
        <time>2026-08-29T07:42:07Z</time>
      </trkpt>
      <trkpt lat="50.66506708972156" lon="13.439789721742272">
        <ele>556</ele>
        <time>2026-08-29T07:42:08Z</time>
      </trkpt>
      <trkpt lat="50.665070610120893" lon="13.439716631546617">
        <ele>555</ele>
        <time>2026-08-29T07:42:09Z</time>
      </trkpt>
      <trkpt lat="50.665070107206702" lon="13.439652761444449">
        <ele>555</ele>
        <time>2026-08-29T07:42:10Z</time>
      </trkpt>
      <trkpt lat="50.665068430826068" lon="13.439582521095872">
        <ele>555</ele>
        <time>2026-08-29T07:42:11Z</time>
      </trkpt>
      <trkpt lat="50.665074549615383" lon="13.439507083967328">
        <ele>556</ele>
        <time>2026-08-29T07:42:12Z</time>
      </trkpt>
      <trkpt lat="50.665083434432745" lon="13.439429802820086">
        <ele>555</ele>
        <time>2026-08-29T07:42:13Z</time>
      </trkpt>
      <trkpt lat="50.66508661955595" lon="13.439354114234447">
        <ele>556</ele>
        <time>2026-08-29T07:42:14Z</time>
      </trkpt>
      <trkpt lat="50.665094247087836" lon="13.439276413992047">
        <ele>557</ele>
        <time>2026-08-29T07:42:15Z</time>
      </trkpt>
      <trkpt lat="50.665101790800691" lon="13.439200725406408">
        <ele>557</ele>
        <time>2026-08-29T07:42:16Z</time>
      </trkpt>
      <trkpt lat="50.665116878226399" lon="13.439123947173357">
        <ele>557</ele>
        <time>2026-08-29T07:42:17Z</time>
      </trkpt>
      <trkpt lat="50.665122158825397" lon="13.439050186425447">
        <ele>557</ele>
        <time>2026-08-29T07:42:18Z</time>
      </trkpt>
      <trkpt lat="50.665128193795681" lon="13.438972989097238">
        <ele>558</ele>
        <time>2026-08-29T07:42:19Z</time>
      </trkpt>
      <trkpt lat="50.665139425545931" lon="13.438895540311933">
        <ele>558</ele>
        <time>2026-08-29T07:42:20Z</time>
      </trkpt>
      <trkpt lat="50.665149400010705" lon="13.438815660774708">
        <ele>558</ele>
        <time>2026-08-29T07:42:21Z</time>
      </trkpt>
      <trkpt lat="50.665162978693843" lon="13.438731841742992">
        <ele>558</ele>
        <time>2026-08-29T07:42:22Z</time>
      </trkpt>
      <trkpt lat="50.665175719186664" lon="13.438648022711277">
        <ele>558</ele>
        <time>2026-08-29T07:42:23Z</time>
      </trkpt>
      <trkpt lat="50.665189549326897" lon="13.438559006899595">
        <ele>559</ele>
        <time>2026-08-29T07:42:24Z</time>
      </trkpt>
      <trkpt lat="50.665202038362622" lon="13.438468566164374">
        <ele>559</ele>
        <time>2026-08-29T07:42:25Z</time>
      </trkpt>
      <trkpt lat="50.66521461121738" lon="13.438377035781741">
        <ele>559</ele>
        <time>2026-08-29T07:42:26Z</time>
      </trkpt>
      <trkpt lat="50.6652239151299" lon="13.438282571732998">
        <ele>560</ele>
        <time>2026-08-29T07:42:27Z</time>
      </trkpt>
      <trkpt lat="50.665234811604023" lon="13.438191460445523">
        <ele>560</ele>
        <time>2026-08-29T07:42:28Z</time>
      </trkpt>
      <trkpt lat="50.665251575410366" lon="13.438101941719651">
        <ele>560</ele>
        <time>2026-08-29T07:42:29Z</time>
      </trkpt>
      <trkpt lat="50.665267249569297" lon="13.438018625602126">
        <ele>560</ele>
        <time>2026-08-29T07:42:30Z</time>
      </trkpt>
      <trkpt lat="50.665283929556608" lon="13.437931034713984">
        <ele>561</ele>
        <time>2026-08-29T07:42:31Z</time>
      </trkpt>
      <trkpt lat="50.665296837687492" lon="13.437843024730682">
        <ele>561</ele>
        <time>2026-08-29T07:42:32Z</time>
      </trkpt>
      <trkpt lat="50.665314439684153" lon="13.437760462984443">
        <ele>561</ele>
        <time>2026-08-29T07:42:33Z</time>
      </trkpt>
      <trkpt lat="50.665333047509193" lon="13.437667675316334">
        <ele>561</ele>
        <time>2026-08-29T07:42:34Z</time>
      </trkpt>
      <trkpt lat="50.665353583171964" lon="13.437568098306656">
        <ele>561</ele>
        <time>2026-08-29T07:42:35Z</time>
      </trkpt>
      <trkpt lat="50.665380069985986" lon="13.437486793845892">
        <ele>561</ele>
        <time>2026-08-29T07:42:36Z</time>
      </trkpt>
      <trkpt lat="50.665410412475467" lon="13.437390737235546">
        <ele>561</ele>
        <time>2026-08-29T07:42:37Z</time>
      </trkpt>
      <trkpt lat="50.665435306727886" lon="13.437296021729708">
        <ele>561</ele>
        <time>2026-08-29T07:42:38Z</time>
      </trkpt>
      <trkpt lat="50.665456429123878" lon="13.437204910442233">
        <ele>561</ele>
        <time>2026-08-29T07:42:39Z</time>
      </trkpt>
      <trkpt lat="50.665486268699169" lon="13.437123438343406">
        <ele>561</ele>
        <time>2026-08-29T07:42:40Z</time>
      </trkpt>
      <trkpt lat="50.665508983656764" lon="13.437029141932726">
        <ele>561</ele>
        <time>2026-08-29T07:42:41Z</time>
      </trkpt>
      <trkpt lat="50.665539158508182" lon="13.436944652348757">
        <ele>561</ele>
        <time>2026-08-29T07:42:42Z</time>
      </trkpt>
      <trkpt lat="50.665552318096161" lon="13.436848092824221">
        <ele>561</ele>
        <time>2026-08-29T07:42:43Z</time>
      </trkpt>
      <trkpt lat="50.665581822395325" lon="13.436746252700686">
        <ele>561</ele>
        <time>2026-08-29T07:42:44Z</time>
      </trkpt>
      <trkpt lat="50.665603280067444" lon="13.436650699004531">
        <ele>561</ele>
        <time>2026-08-29T07:42:45Z</time>
      </trkpt>
      <trkpt lat="50.665616942569613" lon="13.436559503898025">
        <ele>561</ele>
        <time>2026-08-29T07:42:46Z</time>
      </trkpt>
      <trkpt lat="50.66563630476594" lon="13.436458501964808">
        <ele>561</ele>
        <time>2026-08-29T07:42:47Z</time>
      </trkpt>
      <trkpt lat="50.665663378313184" lon="13.436361523345113">
        <ele>561</ele>
        <time>2026-08-29T07:42:48Z</time>
      </trkpt>
      <trkpt lat="50.665686009451747" lon="13.436253229156137">
        <ele>561</ele>
        <time>2026-08-29T07:42:49Z</time>
      </trkpt>
      <trkpt lat="50.665715262293816" lon="13.436149125918746">
        <ele>561</ele>
        <time>2026-08-29T07:42:50Z</time>
      </trkpt>
      <trkpt lat="50.665729511529207" lon="13.436038652434945">
        <ele>561</ele>
        <time>2026-08-29T07:42:51Z</time>
      </trkpt>
      <trkpt lat="50.665750969201326" lon="13.435932118445635">
        <ele>560</ele>
        <time>2026-08-29T07:42:52Z</time>
      </trkpt>
      <trkpt lat="50.665775025263429" lon="13.435819381847978">
        <ele>560</ele>
        <time>2026-08-29T07:42:53Z</time>
      </trkpt>
      <trkpt lat="50.66580536775291" lon="13.435694742947817">
        <ele>560</ele>
        <time>2026-08-29T07:42:54Z</time>
      </trkpt>
      <trkpt lat="50.665835374966264" lon="13.435573875904083">
        <ele>559</ele>
        <time>2026-08-29T07:42:55Z</time>
      </trkpt>
      <trkpt lat="50.665865382179618" lon="13.435441944748163">
        <ele>559</ele>
        <time>2026-08-29T07:42:56Z</time>
      </trkpt>
      <trkpt lat="50.665890946984291" lon="13.435307750478387">
        <ele>559</ele>
        <time>2026-08-29T07:42:57Z</time>
      </trkpt>
      <trkpt lat="50.665921289473772" lon="13.435173723846674">
        <ele>559</ele>
        <time>2026-08-29T07:42:58Z</time>
      </trkpt>
      <trkpt lat="50.665953811258078" lon="13.435041038319468">
        <ele>559</ele>
        <time>2026-08-29T07:42:59Z</time>
      </trkpt>
      <trkpt lat="50.665984656661749" lon="13.4349081851542">
        <ele>557</ele>
        <time>2026-08-29T07:43:00Z</time>
      </trkpt>
      <trkpt lat="50.666010640561581" lon="13.434773655608296">
        <ele>557</ele>
        <time>2026-08-29T07:43:01Z</time>
      </trkpt>
      <trkpt lat="50.666044000536203" lon="13.434642646461725">
        <ele>557</ele>
        <time>2026-08-29T07:43:02Z</time>
      </trkpt>
      <trkpt lat="50.666074510663748" lon="13.434517839923501">
        <ele>556</ele>
        <time>2026-08-29T07:43:03Z</time>
      </trkpt>
      <trkpt lat="50.666109379380941" lon="13.434389848262072">
        <ele>556</ele>
        <time>2026-08-29T07:43:04Z</time>
      </trkpt>
      <trkpt lat="50.666152881458402" lon="13.434263030067086">
        <ele>556</ele>
        <time>2026-08-29T07:43:05Z</time>
      </trkpt>
      <trkpt lat="50.66619529388845" lon="13.434143085032701">
        <ele>555</ele>
        <time>2026-08-29T07:43:06Z</time>
      </trkpt>
      <trkpt lat="50.666234688833356" lon="13.434030516073108">
        <ele>554</ele>
        <time>2026-08-29T07:43:07Z</time>
      </trkpt>
      <trkpt lat="50.666272658854723" lon="13.433910487219691">
        <ele>555</ele>
        <time>2026-08-29T07:43:08Z</time>
      </trkpt>
      <trkpt lat="50.666312808170915" lon="13.433797834441066">
        <ele>555</ele>
        <time>2026-08-29T07:43:09Z</time>
      </trkpt>
      <trkpt lat="50.666353292763233" lon="13.433690462261438">
        <ele>555</ele>
        <time>2026-08-29T07:43:10Z</time>
      </trkpt>
      <trkpt lat="50.666387658566236" lon="13.433569259941578">
        <ele>555</ele>
        <time>2026-08-29T07:43:11Z</time>
      </trkpt>
      <trkpt lat="50.666431412100792" lon="13.433446800336242">
        <ele>555</ele>
        <time>2026-08-29T07:43:12Z</time>
      </trkpt>
      <trkpt lat="50.666461838409305" lon="13.433330878615379">
        <ele>554</ele>
        <time>2026-08-29T07:43:13Z</time>
      </trkpt>
      <trkpt lat="50.666483044624329" lon="13.433209927752614">
        <ele>554</ele>
        <time>2026-08-29T07:43:14Z</time>
      </trkpt>
      <trkpt lat="50.66650751978159" lon="13.43309735879302">
        <ele>554</ele>
        <time>2026-08-29T07:43:15Z</time>
      </trkpt>
      <trkpt lat="50.666523361578584" lon="13.432980263605714">
        <ele>553</ele>
        <time>2026-08-29T07:43:16Z</time>
      </trkpt>
      <trkpt lat="50.666540209203959" lon="13.432865431532264">
        <ele>553</ele>
        <time>2026-08-29T07:43:17Z</time>
      </trkpt>
      <trkpt lat="50.666551189497113" lon="13.432749258354306">
        <ele>554</ele>
        <time>2026-08-29T07:43:18Z</time>
      </trkpt>
      <trkpt lat="50.666570551693439" lon="13.432635013014078">
        <ele>554</ele>
        <time>2026-08-29T07:43:19Z</time>
      </trkpt>
      <trkpt lat="50.66658522002399" lon="13.432514229789376">
        <ele>554</ele>
        <time>2026-08-29T07:43:20Z</time>
      </trkpt>
      <trkpt lat="50.666596619412303" lon="13.432394955307245">
        <ele>554</ele>
        <time>2026-08-29T07:43:21Z</time>
      </trkpt>
      <trkpt lat="50.666600810363889" lon="13.432277608662844">
        <ele>553</ele>
        <time>2026-08-29T07:43:22Z</time>
      </trkpt>
      <trkpt lat="50.666615478694439" lon="13.432158753275871">
        <ele>552</ele>
        <time>2026-08-29T07:43:23Z</time>
      </trkpt>
      <trkpt lat="50.666637187823653" lon="13.432055236771703">
        <ele>552</ele>
        <time>2026-08-29T07:43:24Z</time>
      </trkpt>
      <trkpt lat="50.666667949408293" lon="13.431963287293911">
        <ele>551</ele>
        <time>2026-08-29T07:43:25Z</time>
      </trkpt>
      <trkpt lat="50.66668982617557" lon="13.431867063045502">
        <ele>550</ele>
        <time>2026-08-29T07:43:26Z</time>
      </trkpt>
      <trkpt lat="50.666710529476404" lon="13.431763714179397">
        <ele>551</ele>
        <time>2026-08-29T07:43:27Z</time>
      </trkpt>
      <trkpt lat="50.666730981320143" lon="13.431665310636163">
        <ele>550</ele>
        <time>2026-08-29T07:43:28Z</time>
      </trkpt>
      <trkpt lat="50.666750930249691" lon="13.431571433320642">
        <ele>550</ele>
        <time>2026-08-29T07:43:29Z</time>
      </trkpt>
      <trkpt lat="50.666769538074732" lon="13.431470599025488">
        <ele>550</ele>
        <time>2026-08-29T07:43:30Z</time>
      </trkpt>
      <trkpt lat="50.666793677955866" lon="13.431377476081252">
        <ele>550</ele>
        <time>2026-08-29T07:43:31Z</time>
      </trkpt>
      <trkpt lat="50.666815722361207" lon="13.431278150528669">
        <ele>550</ele>
        <time>2026-08-29T07:43:32Z</time>
      </trkpt>
      <trkpt lat="50.666838437318802" lon="13.431175220757723">
        <ele>550</ele>
        <time>2026-08-29T07:43:33Z</time>
      </trkpt>
      <trkpt lat="50.666857045143843" lon="13.431078996509314">
        <ele>551</ele>
        <time>2026-08-29T07:43:34Z</time>
      </trkpt>
      <trkpt lat="50.66687548533082" lon="13.430990986526012">
        <ele>550</ele>
        <time>2026-08-29T07:43:35Z</time>
      </trkpt>
      <trkpt lat="50.666878251358867" lon="13.43089803121984">
        <ele>550</ele>
        <time>2026-08-29T07:43:36Z</time>
      </trkpt>
      <trkpt lat="50.666886297985911" lon="13.43080272898078">
        <ele>550</ele>
        <time>2026-08-29T07:43:37Z</time>
      </trkpt>
      <trkpt lat="50.666889566928148" lon="13.430703319609165">
        <ele>551</ele>
        <time>2026-08-29T07:43:38Z</time>
      </trkpt>
      <trkpt lat="50.666895769536495" lon="13.430607849732041">
        <ele>551</ele>
        <time>2026-08-29T07:43:39Z</time>
      </trkpt>
      <trkpt lat="50.666892835870385" lon="13.43051296658814">
        <ele>551</ele>
        <time>2026-08-29T07:43:40Z</time>
      </trkpt>
      <trkpt lat="50.666891075670719" lon="13.430428057909012">
        <ele>551</ele>
        <time>2026-08-29T07:43:41Z</time>
      </trkpt>
      <trkpt lat="50.666890069842339" lon="13.430344322696328">
        <ele>551</ele>
        <time>2026-08-29T07:43:42Z</time>
      </trkpt>
      <trkpt lat="50.666879760101438" lon="13.430250864475965">
        <ele>551</ele>
        <time>2026-08-29T07:43:43Z</time>
      </trkpt>
      <trkpt lat="50.666874228045344" lon="13.430156065151095">
        <ele>550</ele>
        <time>2026-08-29T07:43:44Z</time>
      </trkpt>
      <trkpt lat="50.666869282722473" lon="13.430059254169464">
        <ele>550</ele>
        <time>2026-08-29T07:43:45Z</time>
      </trkpt>
      <trkpt lat="50.666856374591589" lon="13.429959928616881">
        <ele>549</ele>
        <time>2026-08-29T07:43:46Z</time>
      </trkpt>
      <trkpt lat="50.6668437179178" lon="13.429864626377821">
        <ele>549</ele>
        <time>2026-08-29T07:43:47Z</time>
      </trkpt>
      <trkpt lat="50.666827792301774" lon="13.429770832881331">
        <ele>548</ele>
        <time>2026-08-29T07:43:48Z</time>
      </trkpt>
      <trkpt lat="50.66681144759059" lon="13.429680727422237">
        <ele>549</ele>
        <time>2026-08-29T07:43:49Z</time>
      </trkpt>
      <trkpt lat="50.666789067909122" lon="13.429588694125414">
        <ele>548</ele>
        <time>2026-08-29T07:43:50Z</time>
      </trkpt>
      <trkpt lat="50.666765766218305" lon="13.429497499018908">
        <ele>548</ele>
        <time>2026-08-29T07:43:51Z</time>
      </trkpt>
      <trkpt lat="50.666746320202947" lon="13.429411249235272">
        <ele>548</ele>
        <time>2026-08-29T07:43:52Z</time>
      </trkpt>
      <trkpt lat="50.666723269969225" lon="13.429321898147464">
        <ele>548</ele>
        <time>2026-08-29T07:43:53Z</time>
      </trkpt>
      <trkpt lat="50.666695525869727" lon="13.429226763546467">
        <ele>548</ele>
        <time>2026-08-29T07:43:54Z</time>
      </trkpt>
      <trkpt lat="50.666670044884086" lon="13.429144369438291">
        <ele>548</ele>
        <time>2026-08-29T07:43:55Z</time>
      </trkpt>
      <trkpt lat="50.666640037670732" lon="13.429061640053988">
        <ele>548</ele>
        <time>2026-08-29T07:43:56Z</time>
      </trkpt>
      <trkpt lat="50.666601061820984" lon="13.428977318108082">
        <ele>547</ele>
        <time>2026-08-29T07:43:57Z</time>
      </trkpt>
      <trkpt lat="50.666558649390936" lon="13.428895175457001">
        <ele>547</ele>
        <time>2026-08-29T07:43:58Z</time>
      </trkpt>
      <trkpt lat="50.666520008817315" lon="13.428819989785552">
        <ele>547</ele>
        <time>2026-08-29T07:43:59Z</time>
      </trkpt>
      <trkpt lat="50.666478602215648" lon="13.428751677274704">
        <ele>547</ele>
        <time>2026-08-29T07:44:00Z</time>
      </trkpt>
      <trkpt lat="50.666433591395617" lon="13.428688477724791">
        <ele>548</ele>
        <time>2026-08-29T07:44:01Z</time>
      </trkpt>
      <trkpt lat="50.666384389624" lon="13.428628882393241">
        <ele>548</ele>
        <time>2026-08-29T07:44:02Z</time>
      </trkpt>
      <trkpt lat="50.666338289156556" lon="13.428566101938486">
        <ele>548</ele>
        <time>2026-08-29T07:44:03Z</time>
      </trkpt>
      <trkpt lat="50.666295122355223" lon="13.428502902388573">
        <ele>548</ele>
        <time>2026-08-29T07:44:04Z</time>
      </trkpt>
      <trkpt lat="50.666244495660067" lon="13.428449425846338">
        <ele>548</ele>
        <time>2026-08-29T07:44:05Z</time>
      </trkpt>
      <trkpt lat="50.666193617507815" lon="13.428392261266708">
        <ele>548</ele>
        <time>2026-08-29T07:44:06Z</time>
      </trkpt>
      <trkpt lat="50.66614056006074" lon="13.428334007039666">
        <ele>548</ele>
        <time>2026-08-29T07:44:07Z</time>
      </trkpt>
      <trkpt lat="50.666088759899139" lon="13.42828681692481">
        <ele>548</ele>
        <time>2026-08-29T07:44:08Z</time>
      </trkpt>
      <trkpt lat="50.666036959737539" lon="13.428235352039337">
        <ele>548</ele>
        <time>2026-08-29T07:44:09Z</time>
      </trkpt>
      <trkpt lat="50.665981639176607" lon="13.428187742829323">
        <ele>548</ele>
        <time>2026-08-29T07:44:10Z</time>
      </trkpt>
      <trkpt lat="50.665931850671768" lon="13.42813678085804">
        <ele>549</ele>
        <time>2026-08-29T07:44:11Z</time>
      </trkpt>
      <trkpt lat="50.665875356644392" lon="13.428094955161214">
        <ele>549</ele>
        <time>2026-08-29T07:44:12Z</time>
      </trkpt>
      <trkpt lat="50.665822131559253" lon="13.428048687055707">
        <ele>549</ele>
        <time>2026-08-29T07:44:13Z</time>
      </trkpt>
      <trkpt lat="50.665768487378955" lon="13.428010968491435">
        <ele>549</ele>
        <time>2026-08-29T07:44:14Z</time>
      </trkpt>
      <trkpt lat="50.665713837370276" lon="13.427963778376579">
        <ele>549</ele>
        <time>2026-08-29T07:44:15Z</time>
      </trkpt>
      <trkpt lat="50.665662791579962" lon="13.427922204136848">
        <ele>549</ele>
        <time>2026-08-29T07:44:16Z</time>
      </trkpt>
      <trkpt lat="50.665600514039397" lon="13.427892364561558">
        <ele>549</ele>
        <time>2026-08-29T07:44:17Z</time>
      </trkpt>
      <trkpt lat="50.66554008051753" lon="13.427857831120491">
        <ele>549</ele>
        <time>2026-08-29T07:44:18Z</time>
      </trkpt>
      <trkpt lat="50.665484508499503" lon="13.427827069535851">
        <ele>548</ele>
        <time>2026-08-29T07:44:19Z</time>
      </trkpt>
      <trkpt lat="50.665419800207019" lon="13.427809551358223">
        <ele>548</ele>
        <time>2026-08-29T07:44:20Z</time>
      </trkpt>
      <trkpt lat="50.665358360856771" lon="13.427796978503466">
        <ele>548</ele>
        <time>2026-08-29T07:44:21Z</time>
      </trkpt>
      <trkpt lat="50.66529868170619" lon="13.427788009867072">
        <ele>549</ele>
        <time>2026-08-29T07:44:22Z</time>
      </trkpt>
      <trkpt lat="50.665238834917545" lon="13.427770072594285">
        <ele>549</ele>
        <time>2026-08-29T07:44:23Z</time>
      </trkpt>
      <trkpt lat="50.665182340890169" lon="13.427748950198293">
        <ele>549</ele>
        <time>2026-08-29T07:44:24Z</time>
      </trkpt>
      <trkpt lat="50.66512567922473" lon="13.427740316838026">
        <ele>549</ele>
        <time>2026-08-29T07:44:25Z</time>
      </trkpt>
      <trkpt lat="50.665066419169307" lon="13.427727743983269">
        <ele>548</ele>
        <time>2026-08-29T07:44:26Z</time>
      </trkpt>
      <trkpt lat="50.665004476904869" lon="13.427715506404638">
        <ele>548</ele>
        <time>2026-08-29T07:44:27Z</time>
      </trkpt>
      <trkpt lat="50.664948150515556" lon="13.427707208320498">
        <ele>548</ele>
        <time>2026-08-29T07:44:28Z</time>
      </trkpt>
      <trkpt lat="50.664889477193356" lon="13.427701592445374">
        <ele>548</ele>
        <time>2026-08-29T07:44:29Z</time>
      </trkpt>
      <trkpt lat="50.664827870205045" lon="13.427691198885441">
        <ele>548</ele>
        <time>2026-08-29T07:44:30Z</time>
      </trkpt>
      <trkpt lat="50.664769029244781" lon="13.427684912458062">
        <ele>548</ele>
        <time>2026-08-29T07:44:31Z</time>
      </trkpt>
      <trkpt lat="50.664715049788356" lon="13.427670830860734">
        <ele>548</ele>
        <time>2026-08-29T07:44:32Z</time>
      </trkpt>
      <trkpt lat="50.664656208828092" lon="13.42766135931015">
        <ele>549</ele>
        <time>2026-08-29T07:44:33Z</time>
      </trkpt>
      <trkpt lat="50.664596781134605" lon="13.427648115903139">
        <ele>548</ele>
        <time>2026-08-29T07:44:34Z</time>
      </trkpt>
      <trkpt lat="50.664538610726595" lon="13.427638057619333">
        <ele>548</ele>
        <time>2026-08-29T07:44:35Z</time>
      </trkpt>
      <trkpt lat="50.66448169760406" lon="13.427636213600636">
        <ele>548</ele>
        <time>2026-08-29T07:44:36Z</time>
      </trkpt>
      <trkpt lat="50.664428388699889" lon="13.427629005163908">
        <ele>548</ele>
        <time>2026-08-29T07:44:37Z</time>
      </trkpt>
      <trkpt lat="50.664373571053147" lon="13.427621126174927">
        <ele>548</ele>
        <time>2026-08-29T07:44:38Z</time>
      </trkpt>
      <trkpt lat="50.664321938529611" lon="13.427606541663408">
        <ele>548</ele>
        <time>2026-08-29T07:44:39Z</time>
      </trkpt>
      <trkpt lat="50.66426913253963" lon="13.42759589664638">
        <ele>548</ele>
        <time>2026-08-29T07:44:40Z</time>
      </trkpt>
      <trkpt lat="50.664214985445142" lon="13.427575780078769">
        <ele>548</ele>
        <time>2026-08-29T07:44:41Z</time>
      </trkpt>
      <trkpt lat="50.664162766188383" lon="13.427554657682776">
        <ele>548</ele>
        <time>2026-08-29T07:44:42Z</time>
      </trkpt>
      <trkpt lat="50.664106188341975" lon="13.427528506144881">
        <ele>548</ele>
        <time>2026-08-29T07:44:43Z</time>
      </trkpt>
      <trkpt lat="50.664050281047821" lon="13.42750109732151">
        <ele>548</ele>
        <time>2026-08-29T07:44:44Z</time>
      </trkpt>
      <trkpt lat="50.663997642695904" lon="13.42747519724071">
        <ele>548</ele>
        <time>2026-08-29T07:44:45Z</time>
      </trkpt>
      <trkpt lat="50.663944752886891" lon="13.427447788417339">
        <ele>547</ele>
        <time>2026-08-29T07:44:46Z</time>
      </trkpt>
      <trkpt lat="50.66389337182045" lon="13.427408393472433">
        <ele>547</ele>
        <time>2026-08-29T07:44:47Z</time>
      </trkpt>
      <trkpt lat="50.663840901106596" lon="13.427378134801984">
        <ele>547</ele>
        <time>2026-08-29T07:44:48Z</time>
      </trkpt>
      <trkpt lat="50.66378440707922" lon="13.427338488399982">
        <ele>547</ele>
        <time>2026-08-29T07:44:49Z</time>
      </trkpt>
      <trkpt lat="50.663732355460525" lon="13.427285933867097">
        <ele>547</ele>
        <time>2026-08-29T07:44:50Z</time>
      </trkpt>
      <trkpt lat="50.663675609976053" lon="13.427235726267099">
        <ele>547</ele>
        <time>2026-08-29T07:44:51Z</time>
      </trkpt>
      <trkpt lat="50.663615427911282" lon="13.427189374342561">
        <ele>547</ele>
        <time>2026-08-29T07:44:52Z</time>
      </trkpt>
      <trkpt lat="50.66355817951262" lon="13.427136652171612">
        <ele>546</ele>
        <time>2026-08-29T07:44:53Z</time>
      </trkpt>
      <trkpt lat="50.663500428199768" lon="13.427081415429711">
        <ele>546</ele>
        <time>2026-08-29T07:44:54Z</time>
      </trkpt>
      <trkpt lat="50.663448879495263" lon="13.427018718793988">
        <ele>546</ele>
        <time>2026-08-29T07:44:55Z</time>
      </trkpt>
      <trkpt lat="50.663401018828154" lon="13.426953591406345">
        <ele>546</ele>
        <time>2026-08-29T07:44:56Z</time>
      </trkpt>
      <trkpt lat="50.663359193131328" lon="13.426879160106182">
        <ele>546</ele>
        <time>2026-08-29T07:44:57Z</time>
      </trkpt>
      <trkpt lat="50.66332072019577" lon="13.426787378266454">
        <ele>546</ele>
        <time>2026-08-29T07:44:58Z</time>
      </trkpt>
      <trkpt lat="50.663287444040179" lon="13.426696602255106">
        <ele>546</ele>
        <time>2026-08-29T07:44:59Z</time>
      </trkpt>
      <trkpt lat="50.663262382149696" lon="13.426611525937915">
        <ele>545</ele>
        <time>2026-08-29T07:45:00Z</time>
      </trkpt>
      <trkpt lat="50.663235979154706" lon="13.426513206213713">
        <ele>546</ele>
        <time>2026-08-29T07:45:01Z</time>
      </trkpt>
      <trkpt lat="50.66321711987257" lon="13.426411366090178">
        <ele>546</ele>
        <time>2026-08-29T07:45:02Z</time>
      </trkpt>
      <trkpt lat="50.663209659978747" lon="13.426314638927579">
        <ele>546</ele>
        <time>2026-08-29T07:45:03Z</time>
      </trkpt>
      <trkpt lat="50.663217706605792" lon="13.42621355317533">
        <ele>546</ele>
        <time>2026-08-29T07:45:04Z</time>
      </trkpt>
      <trkpt lat="50.663230028003454" lon="13.426104923710227">
        <ele>546</ele>
        <time>2026-08-29T07:45:05Z</time>
      </trkpt>
      <trkpt lat="50.663244780153036" lon="13.426010962575674">
        <ele>546</ele>
        <time>2026-08-29T07:45:06Z</time>
      </trkpt>
      <trkpt lat="50.663259699940681" lon="13.425896633416414">
        <ele>547</ele>
        <time>2026-08-29T07:45:07Z</time>
      </trkpt>
      <trkpt lat="50.663277469575405" lon="13.425794960930943">
        <ele>547</ele>
        <time>2026-08-29T07:45:08Z</time>
      </trkpt>
      <trkpt lat="50.663281995803118" lon="13.425689768046141">
        <ele>547</ele>
        <time>2026-08-29T07:45:09Z</time>
      </trkpt>
      <trkpt lat="50.66329431720078" lon="13.425594381988049">
        <ele>547</ele>
        <time>2026-08-29T07:45:10Z</time>
      </trkpt>
      <trkpt lat="50.663297502323985" lon="13.425502181053162">
        <ele>547</ele>
        <time>2026-08-29T07:45:11Z</time>
      </trkpt>
      <trkpt lat="50.663308650255203" lon="13.425412829965353">
        <ele>547</ele>
        <time>2026-08-29T07:45:12Z</time>
      </trkpt>
      <trkpt lat="50.663319546729326" lon="13.4253154322505">
        <ele>547</ele>
        <time>2026-08-29T07:45:13Z</time>
      </trkpt>
      <trkpt lat="50.663322312757373" lon="13.425222644582391">
        <ele>547</ele>
        <time>2026-08-29T07:45:14Z</time>
      </trkpt>
      <trkpt lat="50.663330862298608" lon="13.425139412283897">
        <ele>547</ele>
        <time>2026-08-29T07:45:15Z</time>
      </trkpt>
      <trkpt lat="50.663344776257873" lon="13.425049223005772">
        <ele>547</ele>
        <time>2026-08-29T07:45:16Z</time>
      </trkpt>
      <trkpt lat="50.663348799571395" lon="13.424962051212788">
        <ele>547</ele>
        <time>2026-08-29T07:45:17Z</time>
      </trkpt>
      <trkpt lat="50.663353828713298" lon="13.424884518608451">
        <ele>547</ele>
        <time>2026-08-29T07:45:18Z</time>
      </trkpt>
      <trkpt lat="50.66335734911263" lon="13.424803633242846">
        <ele>547</ele>
        <time>2026-08-29T07:45:19Z</time>
      </trkpt>
      <trkpt lat="50.663362378254533" lon="13.424732051789761">
        <ele>546</ele>
        <time>2026-08-29T07:45:20Z</time>
      </trkpt>
      <trkpt lat="50.663367658853531" lon="13.42466164380312">
        <ele>546</ele>
        <time>2026-08-29T07:45:21Z</time>
      </trkpt>
      <trkpt lat="50.663367910310626" lon="13.424586039036512">
        <ele>545</ele>
        <time>2026-08-29T07:45:22Z</time>
      </trkpt>
      <trkpt lat="50.663375286385417" lon="13.424508674070239">
        <ele>545</ele>
        <time>2026-08-29T07:45:23Z</time>
      </trkpt>
      <trkpt lat="50.663384171202779" lon="13.424433823674917">
        <ele>546</ele>
        <time>2026-08-29T07:45:24Z</time>
      </trkpt>
      <trkpt lat="50.663395319133997" lon="13.424364253878593">
        <ele>546</ele>
        <time>2026-08-29T07:45:25Z</time>
      </trkpt>
      <trkpt lat="50.663407221436501" lon="13.424292337149382">
        <ele>545</ele>
        <time>2026-08-29T07:45:26Z</time>
      </trkpt>
      <trkpt lat="50.663415435701609" lon="13.424218408763409">
        <ele>545</ele>
        <time>2026-08-29T07:45:27Z</time>
      </trkpt>
      <trkpt lat="50.663424069061875" lon="13.424142384901643">
        <ele>545</ele>
        <time>2026-08-29T07:45:28Z</time>
      </trkpt>
      <trkpt lat="50.663427924737334" lon="13.424063008278608">
        <ele>545</ele>
        <time>2026-08-29T07:45:29Z</time>
      </trkpt>
      <trkpt lat="50.663434881716967" lon="13.423983044922352">
        <ele>545</ele>
        <time>2026-08-29T07:45:30Z</time>
      </trkpt>
      <trkpt lat="50.663436725735664" lon="13.423909535631537">
        <ele>545</ele>
        <time>2026-08-29T07:45:31Z</time>
      </trkpt>
      <trkpt lat="50.663441000506282" lon="13.423834601417184">
        <ele>545</ele>
        <time>2026-08-29T07:45:32Z</time>
      </trkpt>
      <trkpt lat="50.663444017991424" lon="13.423760002478957">
        <ele>546</ele>
        <time>2026-08-29T07:45:33Z</time>
      </trkpt>
      <trkpt lat="50.663450220599771" lon="13.423680290579796">
        <ele>546</ele>
        <time>2026-08-29T07:45:34Z</time>
      </trkpt>
      <trkpt lat="50.663456339389086" lon="13.423608122393489">
        <ele>546</ele>
        <time>2026-08-29T07:45:35Z</time>
      </trkpt>
      <trkpt lat="50.663466397672892" lon="13.423532685264945">
        <ele>546</ele>
        <time>2026-08-29T07:45:36Z</time>
      </trkpt>
      <trkpt lat="50.663470588624477" lon="13.423464624211192">
        <ele>546</ele>
        <time>2026-08-29T07:45:37Z</time>
      </trkpt>
      <trkpt lat="50.663477880880237" lon="13.423393964767456">
        <ele>546</ele>
        <time>2026-08-29T07:45:38Z</time>
      </trkpt>
      <trkpt lat="50.66348341293633" lon="13.423327999189496">
        <ele>546</ele>
        <time>2026-08-29T07:45:39Z</time>
      </trkpt>
      <trkpt lat="50.663492549210787" lon="13.423258429393172">
        <ele>546</ele>
        <time>2026-08-29T07:45:40Z</time>
      </trkpt>
      <trkpt lat="50.663500428199768" lon="13.42318500392139">
        <ele>545</ele>
        <time>2026-08-29T07:45:41Z</time>
      </trkpt>
      <trkpt lat="50.663503529503942" lon="13.42310830950737">
        <ele>546</ele>
        <time>2026-08-29T07:45:42Z</time>
      </trkpt>
      <trkpt lat="50.663509061560035" lon="13.42303111217916">
        <ele>546</ele>
        <time>2026-08-29T07:45:43Z</time>
      </trkpt>
      <trkpt lat="50.66351467743516" lon="13.422964727506042">
        <ele>546</ele>
        <time>2026-08-29T07:45:44Z</time>
      </trkpt>
      <trkpt lat="50.663522640243173" lon="13.422894403338432">
        <ele>545</ele>
        <time>2026-08-29T07:45:45Z</time>
      </trkpt>
      <trkpt lat="50.663527753204107" lon="13.422819217666984">
        <ele>545</ele>
        <time>2026-08-29T07:45:46Z</time>
      </trkpt>
      <trkpt lat="50.663533369079232" lon="13.422741601243615">
        <ele>545</ele>
        <time>2026-08-29T07:45:47Z</time>
      </trkpt>
      <trkpt lat="50.663541750982404" lon="13.42265292070806">
        <ele>545</ele>
        <time>2026-08-29T07:45:48Z</time>
      </trkpt>
      <trkpt lat="50.663547785952687" lon="13.422574549913406">
        <ele>545</ele>
        <time>2026-08-29T07:45:49Z</time>
      </trkpt>
      <trkpt lat="50.663555664941669" lon="13.422497771680355">
        <ele>546</ele>
        <time>2026-08-29T07:45:50Z</time>
      </trkpt>
      <trkpt lat="50.663558850064874" lon="13.422419484704733">
        <ele>546</ele>
        <time>2026-08-29T07:45:51Z</time>
      </trkpt>
      <trkpt lat="50.66356161609292" lon="13.422335917130113">
        <ele>546</ele>
        <time>2026-08-29T07:45:52Z</time>
      </trkpt>
      <trkpt lat="50.663571087643504" lon="13.42225763015449">
        <ele>546</ele>
        <time>2026-08-29T07:45:53Z</time>
      </trkpt>
      <trkpt lat="50.663582570850849" lon="13.422175152227283">
        <ele>546</ele>
        <time>2026-08-29T07:45:54Z</time>
      </trkpt>
      <trkpt lat="50.66358994692564" lon="13.422087142243981">
        <ele>546</ele>
        <time>2026-08-29T07:45:55Z</time>
      </trkpt>
      <trkpt lat="50.663599921390414" lon="13.421997958794236">
        <ele>546</ele>
        <time>2026-08-29T07:45:56Z</time>
      </trkpt>
      <trkpt lat="50.663614002987742" lon="13.421917073428631">
        <ele>546</ele>
        <time>2026-08-29T07:45:57Z</time>
      </trkpt>
      <trkpt lat="50.663619199767709" lon="13.421839289367199">
        <ele>546</ele>
        <time>2026-08-29T07:45:58Z</time>
      </trkpt>
      <trkpt lat="50.663626324385405" lon="13.421755973249674">
        <ele>546</ele>
        <time>2026-08-29T07:45:59Z</time>
      </trkpt>
      <trkpt lat="50.663631772622466" lon="13.421664107590914">
        <ele>546</ele>
        <time>2026-08-29T07:46:00Z</time>
      </trkpt>
      <trkpt lat="50.663635209202766" lon="13.421575259417295">
        <ele>547</ele>
        <time>2026-08-29T07:46:01Z</time>
      </trkpt>
      <trkpt lat="50.663638729602098" lon="13.421486830338836">
        <ele>547</ele>
        <time>2026-08-29T07:46:02Z</time>
      </trkpt>
      <trkpt lat="50.663643172010779" lon="13.421412482857704">
        <ele>546</ele>
        <time>2026-08-29T07:46:03Z</time>
      </trkpt>
      <trkpt lat="50.663649626076221" lon="13.42132430523634">
        <ele>546</ele>
        <time>2026-08-29T07:46:04Z</time>
      </trkpt>
      <trkpt lat="50.663661109283566" lon="13.421237552538514">
        <ele>546</ele>
        <time>2026-08-29T07:46:05Z</time>
      </trkpt>
      <trkpt lat="50.663669491186738" lon="13.42115918174386">
        <ele>547</ele>
        <time>2026-08-29T07:46:06Z</time>
      </trkpt>
      <trkpt lat="50.663681225851178" lon="13.421077625826001">
        <ele>547</ele>
        <time>2026-08-29T07:46:07Z</time>
      </trkpt>
      <trkpt lat="50.66369648091495" lon="13.420994393527508">
        <ele>547</ele>
        <time>2026-08-29T07:46:08Z</time>
      </trkpt>
      <trkpt lat="50.663707796484232" lon="13.420910239219666">
        <ele>547</ele>
        <time>2026-08-29T07:46:09Z</time>
      </trkpt>
      <trkpt lat="50.663723722100258" lon="13.420834299176931">
        <ele>547</ele>
        <time>2026-08-29T07:46:10Z</time>
      </trkpt>
      <trkpt lat="50.663738222792745" lon="13.42074385844171">
        <ele>547</ele>
        <time>2026-08-29T07:46:11Z</time>
      </trkpt>
      <trkpt lat="50.663753980770707" lon="13.420662386342883">
        <ele>547</ele>
        <time>2026-08-29T07:46:12Z</time>
      </trkpt>
      <trkpt lat="50.663789100944996" lon="13.4206079877913">
        <ele>547</ele>
        <time>2026-08-29T07:46:13Z</time>
      </trkpt>
      <trkpt lat="50.663844002410769" lon="13.420582506805658">
        <ele>547</ele>
        <time>2026-08-29T07:46:14Z</time>
      </trkpt>
      <trkpt lat="50.663897646591067" lon="13.420553002506495">
        <ele>547</ele>
        <time>2026-08-29T07:46:15Z</time>
      </trkpt>
      <trkpt lat="50.663933185860515" lon="13.420486701652408">
        <ele>547</ele>
        <time>2026-08-29T07:46:16Z</time>
      </trkpt>
      <trkpt lat="50.663966629654169" lon="13.420403385534883">
        <ele>547</ele>
        <time>2026-08-29T07:46:17Z</time>
      </trkpt>
      <trkpt lat="50.663998061791062" lon="13.420342030003667">
        <ele>547</ele>
        <time>2026-08-29T07:46:18Z</time>
      </trkpt>
      <trkpt lat="50.664021447300911" lon="13.420263072475791">
        <ele>547</ele>
        <time>2026-08-29T07:46:19Z</time>
      </trkpt>
      <trkpt lat="50.664041480049491" lon="13.420181684195995">
        <ele>547</ele>
        <time>2026-08-29T07:46:20Z</time>
      </trkpt>
      <trkpt lat="50.664054891094565" lon="13.420109516009688">
        <ele>548</ele>
        <time>2026-08-29T07:46:21Z</time>
      </trkpt>
      <trkpt lat="50.664055142551661" lon="13.420020248740911">
        <ele>547</ele>
        <time>2026-08-29T07:46:22Z</time>
      </trkpt>
      <trkpt lat="50.664043659344316" lon="13.419953947886825">
        <ele>547</ele>
        <time>2026-08-29T07:46:23Z</time>
      </trkpt>
      <trkpt lat="50.664018932729959" lon="13.419885886833072">
        <ele>547</ele>
        <time>2026-08-29T07:46:24Z</time>
      </trkpt>
      <trkpt lat="50.664003761485219" lon="13.419801397249103">
        <ele>547</ele>
        <time>2026-08-29T07:46:25Z</time>
      </trkpt>
      <trkpt lat="50.664002671837807" lon="13.419723194092512">
        <ele>546</ele>
        <time>2026-08-29T07:46:26Z</time>
      </trkpt>
      <trkpt lat="50.664008790627122" lon="13.419667202979326">
        <ele>546</ele>
        <time>2026-08-29T07:46:27Z</time>
      </trkpt>
      <trkpt lat="50.66401750780642" lon="13.419605009257793">
        <ele>546</ele>
        <time>2026-08-29T07:46:28Z</time>
      </trkpt>
      <trkpt lat="50.664034774526954" lon="13.419544491916895">
        <ele>547</ele>
        <time>2026-08-29T07:46:29Z</time>
      </trkpt>
      <trkpt lat="50.664043240249157" lon="13.41949830763042">
        <ele>547</ele>
        <time>2026-08-29T07:46:30Z</time>
      </trkpt>
      <trkpt lat="50.664050029590726" lon="13.419460337609053">
        <ele>547</ele>
        <time>2026-08-29T07:46:31Z</time>
      </trkpt>
      <trkpt lat="50.664061261340976" lon="13.419419266283512">
        <ele>547</ele>
        <time>2026-08-29T07:46:32Z</time>
      </trkpt>
      <trkpt lat="50.664070062339306" lon="13.419373417273164">
        <ele>547</ele>
        <time>2026-08-29T07:46:33Z</time>
      </trkpt>
      <trkpt lat="50.664077689871192" lon="13.419327484443784">
        <ele>547</ele>
        <time>2026-08-29T07:46:34Z</time>
      </trkpt>
      <trkpt lat="50.66408540122211" lon="13.419284569099545">
        <ele>547</ele>
        <time>2026-08-29T07:46:35Z</time>
      </trkpt>
      <trkpt lat="50.664094286039472" lon="13.419239977374673">
        <ele>546</ele>
        <time>2026-08-29T07:46:36Z</time>
      </trkpt>
      <trkpt lat="50.664111049845815" lon="13.419187758117914">
        <ele>546</ele>
        <time>2026-08-29T07:46:37Z</time>
      </trkpt>
      <trkpt lat="50.664130244404078" lon="13.419133191928267">
        <ele>546</ele>
        <time>2026-08-29T07:46:38Z</time>
      </trkpt>
      <trkpt lat="50.664142984896898" lon="13.41909421607852">
        <ele>546</ele>
        <time>2026-08-29T07:46:39Z</time>
      </trkpt>
      <trkpt lat="50.664151450619102" lon="13.419037722051144">
        <ele>546</ele>
        <time>2026-08-29T07:46:40Z</time>
      </trkpt>
      <trkpt lat="50.664154719561338" lon="13.418972259387374">
        <ele>546</ele>
        <time>2026-08-29T07:46:41Z</time>
      </trkpt>
      <trkpt lat="50.664146756753325" lon="13.418913334608078">
        <ele>545</ele>
        <time>2026-08-29T07:46:42Z</time>
      </trkpt>
      <trkpt lat="50.664146589115262" lon="13.418843848630786">
        <ele>545</ele>
        <time>2026-08-29T07:46:43Z</time>
      </trkpt>
      <trkpt lat="50.664135860279202" lon="13.418778050690889">
        <ele>544</ele>
        <time>2026-08-29T07:46:44Z</time>
      </trkpt>
      <trkpt lat="50.664128148928285" lon="13.418701272457838">
        <ele>544</ele>
        <time>2026-08-29T07:46:45Z</time>
      </trkpt>
      <trkpt lat="50.664119767025113" lon="13.418637737631798">
        <ele>545</ele>
        <time>2026-08-29T07:46:46Z</time>
      </trkpt>
      <trkpt lat="50.664101829752326" lon="13.418580740690231">
        <ele>545</ele>
        <time>2026-08-29T07:46:47Z</time>
      </trkpt>
      <trkpt lat="50.664079282432795" lon="13.418522235006094">
        <ele>545</ele>
        <time>2026-08-29T07:46:48Z</time>
      </trkpt>
      <trkpt lat="50.664052963256836" lon="13.418478732928634">
        <ele>545</ele>
        <time>2026-08-29T07:46:49Z</time>
      </trkpt>
      <trkpt lat="50.664033349603415" lon="13.418434727936983">
        <ele>545</ele>
        <time>2026-08-29T07:46:50Z</time>
      </trkpt>
      <trkpt lat="50.664010467007756" lon="13.418387873098254">
        <ele>545</ele>
        <time>2026-08-29T07:46:51Z</time>
      </trkpt>
      <trkpt lat="50.663989344611764" lon="13.418340012431145">
        <ele>545</ele>
        <time>2026-08-29T07:46:52Z</time>
      </trkpt>
      <trkpt lat="50.663983225822449" lon="13.418289637193084">
        <ele>545</ele>
        <time>2026-08-29T07:46:53Z</time>
      </trkpt>
      <trkpt lat="50.663981968536973" lon="13.418240435421467">
        <ele>546</ele>
        <time>2026-08-29T07:46:54Z</time>
      </trkpt>
      <trkpt lat="50.663988590240479" lon="13.418196346610785">
        <ele>546</ele>
        <time>2026-08-29T07:46:55Z</time>
      </trkpt>
      <trkpt lat="50.66399403847754" lon="13.418156700208783">
        <ele>546</ele>
        <time>2026-08-29T07:46:56Z</time>
      </trkpt>
      <trkpt lat="50.66399697214365" lon="13.418121915310621">
        <ele>546</ele>
        <time>2026-08-29T07:46:57Z</time>
      </trkpt>
      <trkpt lat="50.664003929123282" lon="13.418097356334329">
        <ele>546</ele>
        <time>2026-08-29T07:46:58Z</time>
      </trkpt>
      <trkpt lat="50.664011891931295" lon="13.418073048815131">
        <ele>546</ele>
        <time>2026-08-29T07:46:59Z</time>
      </trkpt>
      <trkpt lat="50.664021028205752" lon="13.418038180097938">
        <ele>545</ele>
        <time>2026-08-29T07:47:00Z</time>
      </trkpt>
      <trkpt lat="50.664030499756336" lon="13.418008424341679">
        <ele>545</ele>
        <time>2026-08-29T07:47:01Z</time>
      </trkpt>
      <trkpt lat="50.664043575525284" lon="13.417970202863216">
        <ele>545</ele>
        <time>2026-08-29T07:47:02Z</time>
      </trkpt>
      <trkpt lat="50.664057489484549" lon="13.417939944192767">
        <ele>545</ele>
        <time>2026-08-29T07:47:03Z</time>
      </trkpt>
      <trkpt lat="50.664072409272194" lon="13.41790834441781">
        <ele>545</ele>
        <time>2026-08-29T07:47:04Z</time>
      </trkpt>
      <trkpt lat="50.664085149765015" lon="13.417883450165391">
        <ele>545</ele>
        <time>2026-08-29T07:47:05Z</time>
      </trkpt>
      <trkpt lat="50.664101243019104" lon="13.417853191494942">
        <ele>545</ele>
        <time>2026-08-29T07:47:06Z</time>
      </trkpt>
      <trkpt lat="50.664115911349654" lon="13.417829470708966">
        <ele>545</ele>
        <time>2026-08-29T07:47:07Z</time>
      </trkpt>
      <trkpt lat="50.664129741489887" lon="13.417802900075912">
        <ele>545</ele>
        <time>2026-08-29T07:47:08Z</time>
      </trkpt>
      <trkpt lat="50.664147678762674" lon="13.417767863720655">
        <ele>545</ele>
        <time>2026-08-29T07:47:09Z</time>
      </trkpt>
      <trkpt lat="50.664161844179034" lon="13.417735928669572">
        <ele>545</ele>
        <time>2026-08-29T07:47:10Z</time>
      </trkpt>
      <trkpt lat="50.664175171405077" lon="13.417712040245533">
        <ele>546</ele>
        <time>2026-08-29T07:47:11Z</time>
      </trkpt>
      <trkpt lat="50.664188917726278" lon="13.417683457955718">
        <ele>546</ele>
        <time>2026-08-29T07:47:12Z</time>
      </trkpt>
      <trkpt lat="50.66420610062778" lon="13.417640291154385">
        <ele>546</ele>
        <time>2026-08-29T07:47:13Z</time>
      </trkpt>
      <trkpt lat="50.664220098406076" lon="13.417614474892616">
        <ele>546</ele>
        <time>2026-08-29T07:47:14Z</time>
      </trkpt>
      <trkpt lat="50.664230827242136" lon="13.417586395516992">
        <ele>547</ele>
        <time>2026-08-29T07:47:15Z</time>
      </trkpt>
      <trkpt lat="50.664240131154656" lon="13.417561082169414">
        <ele>546</ele>
        <time>2026-08-29T07:47:16Z</time>
      </trkpt>
      <trkpt lat="50.664255889132619" lon="13.417523950338364">
        <ele>546</ele>
        <time>2026-08-29T07:47:17Z</time>
      </trkpt>
      <trkpt lat="50.66426670178771" lon="13.417499307543039">
        <ele>546</ele>
        <time>2026-08-29T07:47:18Z</time>
      </trkpt>
      <trkpt lat="50.664278687909245" lon="13.417471311986446">
        <ele>546</ele>
        <time>2026-08-29T07:47:19Z</time>
      </trkpt>
      <trkpt lat="50.664291931316257" lon="13.417436610907316">
        <ele>546</ele>
        <time>2026-08-29T07:47:20Z</time>
      </trkpt>
      <trkpt lat="50.664305593818426" lon="13.417402748018503">
        <ele>546</ele>
        <time>2026-08-29T07:47:21Z</time>
      </trkpt>
      <trkpt lat="50.664314478635788" lon="13.417368046939373">
        <ele>546</ele>
        <time>2026-08-29T07:47:22Z</time>
      </trkpt>
      <trkpt lat="50.664328308776021" lon="13.417339883744717">
        <ele>546</ele>
        <time>2026-08-29T07:47:23Z</time>
      </trkpt>
      <trkpt lat="50.664337612688541" lon="13.417316917330027">
        <ele>546</ele>
        <time>2026-08-29T07:47:24Z</time>
      </trkpt>
      <trkpt lat="50.664350101724267" lon="13.417289257049561">
        <ele>546</ele>
        <time>2026-08-29T07:47:25Z</time>
      </trkpt>
      <trkpt lat="50.664366027340293" lon="13.41726578772068">
        <ele>546</ele>
        <time>2026-08-29T07:47:26Z</time>
      </trkpt>
      <trkpt lat="50.664385305717587" lon="13.417232343927026">
        <ele>546</ele>
        <time>2026-08-29T07:47:27Z</time>
      </trkpt>
      <trkpt lat="50.664397040382028" lon="13.417206946760416">
        <ele>546</ele>
        <time>2026-08-29T07:47:28Z</time>
      </trkpt>
      <trkpt lat="50.664407517760992" lon="13.417174927890301">
        <ele>547</ele>
        <time>2026-08-29T07:47:29Z</time>
      </trkpt>
      <trkpt lat="50.664417827501893" lon="13.417143244296312">
        <ele>547</ele>
        <time>2026-08-29T07:47:30Z</time>
      </trkpt>
      <trkpt lat="50.664428891614079" lon="13.417115584015846">
        <ele>547</ele>
        <time>2026-08-29T07:47:31Z</time>
      </trkpt>
      <trkpt lat="50.66444112919271" lon="13.417085409164429">
        <ele>547</ele>
        <time>2026-08-29T07:47:32Z</time>
      </trkpt>
      <trkpt lat="50.664454121142626" lon="13.417054396122694">
        <ele>547</ele>
        <time>2026-08-29T07:47:33Z</time>
      </trkpt>
      <trkpt lat="50.66446702927351" lon="13.417028076946735">
        <ele>546</ele>
        <time>2026-08-29T07:47:34Z</time>
      </trkpt>
      <trkpt lat="50.664481278508902" lon="13.417003601789474">
        <ele>547</ele>
        <time>2026-08-29T07:47:35Z</time>
      </trkpt>
      <trkpt lat="50.664492091163993" lon="13.416980132460594">
        <ele>547</ele>
        <time>2026-08-29T07:47:36Z</time>
      </trkpt>
      <trkpt lat="50.664505837485194" lon="13.416963620111346">
        <ele>546</ele>
        <time>2026-08-29T07:47:37Z</time>
      </trkpt>
      <trkpt lat="50.664519164711237" lon="13.416936965659261">
        <ele>547</ele>
        <time>2026-08-29T07:47:38Z</time>
      </trkpt>
      <trkpt lat="50.664528300985694" lon="13.416904108598828">
        <ele>547</ele>
        <time>2026-08-29T07:47:39Z</time>
      </trkpt>
      <trkpt lat="50.664537940174341" lon="13.416885249316692">
        <ele>547</ele>
        <time>2026-08-29T07:47:40Z</time>
      </trkpt>
      <trkpt lat="50.664544645696878" lon="13.416857672855258">
        <ele>547</ele>
        <time>2026-08-29T07:47:41Z</time>
      </trkpt>
      <trkpt lat="50.664549255743623" lon="13.416831437498331">
        <ele>547</ele>
        <time>2026-08-29T07:47:42Z</time>
      </trkpt>
      <trkpt lat="50.66456082277" lon="13.416800424456596">
        <ele>547</ele>
        <time>2026-08-29T07:47:43Z</time>
      </trkpt>
      <trkpt lat="50.664570378139615" lon="13.416767651215196">
        <ele>548</ele>
        <time>2026-08-29T07:47:44Z</time>
      </trkpt>
      <trkpt lat="50.66457306034863" lon="13.416743176057935">
        <ele>548</ele>
        <time>2026-08-29T07:47:45Z</time>
      </trkpt>
      <trkpt lat="50.664572473615408" lon="13.416712079197168">
        <ele>548</ele>
        <time>2026-08-29T07:47:46Z</time>
      </trkpt>
      <trkpt lat="50.664569539949298" lon="13.416691208258271">
        <ele>549</ele>
        <time>2026-08-29T07:47:47Z</time>
      </trkpt>
      <trkpt lat="50.664569288492203" lon="13.416667236015201">
        <ele>549</ele>
        <time>2026-08-29T07:47:48Z</time>
      </trkpt>
      <trkpt lat="50.664565097540617" lon="13.416649801656604">
        <ele>549</ele>
        <time>2026-08-29T07:47:49Z</time>
      </trkpt>
      <trkpt lat="50.664560487493873" lon="13.416633624583483">
        <ele>550</ele>
        <time>2026-08-29T07:47:50Z</time>
      </trkpt>
      <trkpt lat="50.664555877447128" lon="13.416617112234235">
        <ele>550</ele>
        <time>2026-08-29T07:47:51Z</time>
      </trkpt>
      <trkpt lat="50.66455009393394" lon="13.416604539379478">
        <ele>551</ele>
        <time>2026-08-29T07:47:52Z</time>
      </trkpt>
      <trkpt lat="50.664540119469166" lon="13.416598085314035">
        <ele>551</ele>
        <time>2026-08-29T07:47:53Z</time>
      </trkpt>
      <trkpt lat="50.66453006118536" lon="13.416586518287659">
        <ele>552</ele>
        <time>2026-08-29T07:47:54Z</time>
      </trkpt>
      <trkpt lat="50.664527043700218" lon="13.416572855785489">
        <ele>552</ele>
        <time>2026-08-29T07:47:55Z</time>
      </trkpt>
      <trkpt lat="50.664522098377347" lon="13.416565479710698">
        <ele>553</ele>
        <time>2026-08-29T07:47:56Z</time>
      </trkpt>
      <trkpt lat="50.664516147226095" lon="13.416550643742085">
        <ele>553</ele>
        <time>2026-08-29T07:47:57Z</time>
      </trkpt>
      <trkpt lat="50.664502400904894" lon="13.416532035917044">
        <ele>553</ele>
        <time>2026-08-29T07:47:58Z</time>
      </trkpt>
      <trkpt lat="50.664492761716247" lon="13.416513176634908">
        <ele>554</ele>
        <time>2026-08-29T07:47:59Z</time>
      </trkpt>
      <trkpt lat="50.664486140012741" lon="13.416494149714708">
        <ele>554</ele>
        <time>2026-08-29T07:48:00Z</time>
      </trkpt>
      <trkpt lat="50.664477422833443" lon="13.41647612862289">
        <ele>555</ele>
        <time>2026-08-29T07:48:01Z</time>
      </trkpt>
      <trkpt lat="50.664468873292208" lon="13.416455090045929">
        <ele>555</ele>
        <time>2026-08-29T07:48:02Z</time>
      </trkpt>
      <trkpt lat="50.664462922140956" lon="13.416426256299019">
        <ele>555</ele>
        <time>2026-08-29T07:48:03Z</time>
      </trkpt>
      <trkpt lat="50.664454372599721" lon="13.41641410253942">
        <ele>556</ele>
        <time>2026-08-29T07:48:04Z</time>
      </trkpt>
      <trkpt lat="50.664451019838452" lon="13.416399098932743">
        <ele>556</ele>
        <time>2026-08-29T07:48:05Z</time>
      </trkpt>
      <trkpt lat="50.664441967383027" lon="13.416375713422894">
        <ele>556</ele>
        <time>2026-08-29T07:48:06Z</time>
      </trkpt>
      <trkpt lat="50.664437608793378" lon="13.416355596855283">
        <ele>557</ele>
        <time>2026-08-29T07:48:07Z</time>
      </trkpt>
      <trkpt lat="50.664430819451809" lon="13.416340509429574">
        <ele>557</ele>
        <time>2026-08-29T07:48:08Z</time>
      </trkpt>
      <trkpt lat="50.66442646086216" lon="13.416317123919725">
        <ele>558</ele>
        <time>2026-08-29T07:48:09Z</time>
      </trkpt>
      <trkpt lat="50.664412463083863" lon="13.41629046946764">
        <ele>558</ele>
        <time>2026-08-29T07:48:10Z</time>
      </trkpt>
      <trkpt lat="50.664408858865499" lon="13.416267586871982">
        <ele>558</ele>
        <time>2026-08-29T07:48:11Z</time>
      </trkpt>
      <trkpt lat="50.664402320981026" lon="13.416238082572818">
        <ele>558</ele>
        <time>2026-08-29T07:48:12Z</time>
      </trkpt>
      <trkpt lat="50.664399722591043" lon="13.416215954348445">
        <ele>559</ele>
        <time>2026-08-29T07:48:13Z</time>
      </trkpt>
      <trkpt lat="50.664393687620759" lon="13.41619960963726">
        <ele>559</ele>
        <time>2026-08-29T07:48:14Z</time>
      </trkpt>
      <trkpt lat="50.664389161393046" lon="13.416177397593856">
        <ele>559</ele>
        <time>2026-08-29T07:48:15Z</time>
      </trkpt>
      <trkpt lat="50.664386563003063" lon="13.416167171671987">
        <ele>560</ele>
        <time>2026-08-29T07:48:16Z</time>
      </trkpt>
      <trkpt lat="50.664385976269841" lon="13.41616733931005">
        <ele>560</ele>
        <time>2026-08-29T07:48:17Z</time>
      </trkpt>
      <trkpt lat="50.664386311545968" lon="13.416168512776494">
        <ele>560</ele>
        <time>2026-08-29T07:48:18Z</time>
      </trkpt>
      <trkpt lat="50.664386311545968" lon="13.416168428957462">
        <ele>560</ele>
        <time>2026-08-29T07:48:19Z</time>
      </trkpt>
      <trkpt lat="50.664386479184031" lon="13.416168428957462">
        <ele>560</ele>
        <time>2026-08-29T07:48:20Z</time>
      </trkpt>
      <trkpt lat="50.664386563003063" lon="13.416168177500367">
        <ele>560</ele>
        <time>2026-08-29T07:48:21Z</time>
      </trkpt>
      <trkpt lat="50.664386563003063" lon="13.416168428957462">
        <ele>560</ele>
        <time>2026-08-29T07:48:22Z</time>
      </trkpt>
      <trkpt lat="50.664386311545968" lon="13.416168764233589">
        <ele>560</ele>
        <time>2026-08-29T07:48:23Z</time>
      </trkpt>
      <trkpt lat="50.664386227726936" lon="13.416169015690684">
        <ele>560</ele>
        <time>2026-08-29T07:48:24Z</time>
      </trkpt>
      <trkpt lat="50.664386227726936" lon="13.416169434785843">
        <ele>560</ele>
        <time>2026-08-29T07:48:25Z</time>
      </trkpt>
      <trkpt lat="50.664386060088873" lon="13.416169853881001">
        <ele>560</ele>
        <time>2026-08-29T07:48:26Z</time>
      </trkpt>
      <trkpt lat="50.664385640993714" lon="13.416170189157128">
        <ele>560</ele>
        <time>2026-08-29T07:48:27Z</time>
      </trkpt>
      <trkpt lat="50.664385473355651" lon="13.416170356795192">
        <ele>560</ele>
        <time>2026-08-29T07:48:28Z</time>
      </trkpt>
      <trkpt lat="50.664385389536619" lon="13.416170440614223">
        <ele>560</ele>
        <time>2026-08-29T07:48:29Z</time>
      </trkpt>
      <trkpt lat="50.664385221898556" lon="13.416170524433255">
        <ele>560</ele>
        <time>2026-08-29T07:48:30Z</time>
      </trkpt>
      <trkpt lat="50.664385138079524" lon="13.41617077589035">
        <ele>560</ele>
        <time>2026-08-29T07:48:31Z</time>
      </trkpt>
      <trkpt lat="50.664384970441461" lon="13.416170859709382">
        <ele>560</ele>
        <time>2026-08-29T07:48:32Z</time>
      </trkpt>
      <trkpt lat="50.664384970441461" lon="13.41617077589035">
        <ele>560</ele>
        <time>2026-08-29T07:48:33Z</time>
      </trkpt>
      <trkpt lat="50.664384802803397" lon="13.416170859709382">
        <ele>560</ele>
        <time>2026-08-29T07:48:34Z</time>
      </trkpt>
      <trkpt lat="50.664384718984365" lon="13.416170943528414">
        <ele>560</ele>
        <time>2026-08-29T07:48:35Z</time>
      </trkpt>
      <trkpt lat="50.664384802803397" lon="13.416170943528414">
        <ele>560</ele>
        <time>2026-08-29T07:48:36Z</time>
      </trkpt>
      <trkpt lat="50.664384970441461" lon="13.416170859709382">
        <ele>560</ele>
        <time>2026-08-29T07:48:37Z</time>
      </trkpt>
      <trkpt lat="50.664385138079524" lon="13.416171027347445">
        <ele>560</ele>
        <time>2026-08-29T07:48:38Z</time>
      </trkpt>
      <trkpt lat="50.664385138079524" lon="13.416171278804541">
        <ele>560</ele>
        <time>2026-08-29T07:48:39Z</time>
      </trkpt>
      <trkpt lat="50.664385138079524" lon="13.416171446442604">
        <ele>560</ele>
        <time>2026-08-29T07:48:40Z</time>
      </trkpt>
      <trkpt lat="50.664385221898556" lon="13.416171446442604">
        <ele>560</ele>
        <time>2026-08-29T07:48:41Z</time>
      </trkpt>
      <trkpt lat="50.664385389536619" lon="13.416171530261636">
        <ele>560</ele>
        <time>2026-08-29T07:48:42Z</time>
      </trkpt>
      <trkpt lat="50.664385389536619" lon="13.416171614080667">
        <ele>560</ele>
        <time>2026-08-29T07:48:43Z</time>
      </trkpt>
      <trkpt lat="50.664385221898556" lon="13.416171781718731">
        <ele>560</ele>
        <time>2026-08-29T07:48:44Z</time>
      </trkpt>
      <trkpt lat="50.664385221898556" lon="13.416172033175826">
        <ele>560</ele>
        <time>2026-08-29T07:48:45Z</time>
      </trkpt>
      <trkpt lat="50.664385138079524" lon="13.416172033175826">
        <ele>560</ele>
        <time>2026-08-29T07:48:46Z</time>
      </trkpt>
      <trkpt lat="50.664385054260492" lon="13.41617220081389">
        <ele>560</ele>
        <time>2026-08-29T07:48:47Z</time>
      </trkpt>
      <trkpt lat="50.664384970441461" lon="13.416172116994858">
        <ele>560</ele>
        <time>2026-08-29T07:48:48Z</time>
      </trkpt>
      <trkpt lat="50.664385138079524" lon="13.416172368451953">
        <ele>560</ele>
        <time>2026-08-29T07:48:49Z</time>
      </trkpt>
      <trkpt lat="50.664385138079524" lon="13.416172452270985">
        <ele>560</ele>
        <time>2026-08-29T07:48:50Z</time>
      </trkpt>
      <trkpt lat="50.664385054260492" lon="13.416172368451953">
        <ele>560</ele>
        <time>2026-08-29T07:48:51Z</time>
      </trkpt>
      <trkpt lat="50.664385054260492" lon="13.416172368451953">
        <ele>560</ele>
        <time>2026-08-29T07:48:52Z</time>
      </trkpt>
      <trkpt lat="50.664392346516252" lon="13.416178906336427">
        <ele>560</ele>
        <time>2026-08-29T07:48:53Z</time>
      </trkpt>
      <trkpt lat="50.664395028725266" lon="13.416181253269315">
        <ele>560</ele>
        <time>2026-08-29T07:48:54Z</time>
      </trkpt>
      <trkpt lat="50.664397291839123" lon="13.416183851659298">
        <ele>560</ele>
        <time>2026-08-29T07:48:55Z</time>
      </trkpt>
      <trkpt lat="50.664397291839123" lon="13.416183348745108">
        <ele>560</ele>
        <time>2026-08-29T07:48:56Z</time>
      </trkpt>
      <trkpt lat="50.664399303495884" lon="13.416180079802871">
        <ele>560</ele>
        <time>2026-08-29T07:48:57Z</time>
      </trkpt>
      <trkpt lat="50.664398716762662" lon="13.416178151965141">
        <ele>559</ele>
        <time>2026-08-29T07:48:58Z</time>
      </trkpt>
      <trkpt lat="50.664391592144966" lon="13.416174883022904">
        <ele>560</ele>
        <time>2026-08-29T07:48:59Z</time>
      </trkpt>
      <trkpt lat="50.664383377879858" lon="13.416168596595526">
        <ele>560</ele>
        <time>2026-08-29T07:49:00Z</time>
      </trkpt>
      <trkpt lat="50.664374073967338" lon="13.416163064539433">
        <ele>560</ele>
        <time>2026-08-29T07:49:01Z</time>
      </trkpt>
      <trkpt lat="50.664361920207739" lon="13.416151581332088">
        <ele>560</ele>
        <time>2026-08-29T07:49:02Z</time>
      </trkpt>
      <trkpt lat="50.664346162229776" lon="13.416122496128082">
        <ele>560</ele>
        <time>2026-08-29T07:49:03Z</time>
      </trkpt>
      <trkpt lat="50.664325039833784" lon="13.416080418974161">
        <ele>560</ele>
        <time>2026-08-29T07:49:04Z</time>
      </trkpt>
      <trkpt lat="50.664302408695221" lon="13.416037587448955">
        <ele>560</ele>
        <time>2026-08-29T07:49:05Z</time>
      </trkpt>
      <trkpt lat="50.664269551634789" lon="13.415990062057972">
        <ele>560</ele>
        <time>2026-08-29T07:49:06Z</time>
      </trkpt>
      <trkpt lat="50.664235018193722" lon="13.415939016267657">
        <ele>560</ele>
        <time>2026-08-29T07:49:07Z</time>
      </trkpt>
      <trkpt lat="50.664202244952321" lon="13.415883025154471">
        <ele>561</ele>
        <time>2026-08-29T07:49:08Z</time>
      </trkpt>
      <trkpt lat="50.664175422862172" lon="13.415839355438948">
        <ele>561</ele>
        <time>2026-08-29T07:49:09Z</time>
      </trkpt>
      <trkpt lat="50.664146589115262" lon="13.415795769542456">
        <ele>561</ele>
        <time>2026-08-29T07:49:10Z</time>
      </trkpt>
      <trkpt lat="50.66411959938705" lon="13.415751177817583">
        <ele>561</ele>
        <time>2026-08-29T07:49:11Z</time>
      </trkpt>
      <trkpt lat="50.664099063724279" lon="13.415707089006901">
        <ele>561</ele>
        <time>2026-08-29T07:49:12Z</time>
      </trkpt>
      <trkpt lat="50.664074420928955" lon="13.415659898892045">
        <ele>561</ele>
        <time>2026-08-29T07:49:13Z</time>
      </trkpt>
      <trkpt lat="50.664051957428455" lon="13.415610026568174">
        <ele>561</ele>
        <time>2026-08-29T07:49:14Z</time>
      </trkpt>
      <trkpt lat="50.664028404280543" lon="13.415556969121099">
        <ele>562</ele>
        <time>2026-08-29T07:49:15Z</time>
      </trkpt>
      <trkpt lat="50.664001330733299" lon="13.415500978007913">
        <ele>562</ele>
        <time>2026-08-29T07:49:16Z</time>
      </trkpt>
      <trkpt lat="50.663980711251497" lon="13.415441131219268">
        <ele>562</ele>
        <time>2026-08-29T07:49:17Z</time>
      </trkpt>
      <trkpt lat="50.663954140618443" lon="13.415375920012593">
        <ele>561</ele>
        <time>2026-08-29T07:49:18Z</time>
      </trkpt>
      <trkpt lat="50.663934694603086" lon="13.415316492319107">
        <ele>561</ele>
        <time>2026-08-29T07:49:19Z</time>
      </trkpt>
      <trkpt lat="50.66391876898706" lon="13.415251700207591">
        <ele>561</ele>
        <time>2026-08-29T07:49:20Z</time>
      </trkpt>
      <trkpt lat="50.66389731131494" lon="13.415191518142819">
        <ele>562</ele>
        <time>2026-08-29T07:49:21Z</time>
      </trkpt>
      <trkpt lat="50.66387090831995" lon="13.415120858699083">
        <ele>562</ele>
        <time>2026-08-29T07:49:22Z</time>
      </trkpt>
      <trkpt lat="50.663842661306262" lon="13.415047181770205">
        <ele>562</ele>
        <time>2026-08-29T07:49:23Z</time>
      </trkpt>
      <trkpt lat="50.663816090673208" lon="13.414975935593247">
        <ele>561</ele>
        <time>2026-08-29T07:49:24Z</time>
      </trkpt>
      <trkpt lat="50.663786921650171" lon="13.414906449615955">
        <ele>562</ele>
        <time>2026-08-29T07:49:25Z</time>
      </trkpt>
      <trkpt lat="50.66376093775034" lon="13.414830593392253">
        <ele>562</ele>
        <time>2026-08-29T07:49:26Z</time>
      </trkpt>
      <trkpt lat="50.663735372945666" lon="13.414748702198267">
        <ele>561</ele>
        <time>2026-08-29T07:49:27Z</time>
      </trkpt>
      <trkpt lat="50.663708215579391" lon="13.414674689993262">
        <ele>561</ele>
        <time>2026-08-29T07:49:28Z</time>
      </trkpt>
      <trkpt lat="50.663679465651512" lon="13.414589110761881">
        <ele>561</ele>
        <time>2026-08-29T07:49:29Z</time>
      </trkpt>
      <trkpt lat="50.663653733208776" lon="13.414507051929832">
        <ele>561</ele>
        <time>2026-08-29T07:49:30Z</time>
      </trkpt>
      <trkpt lat="50.663623977452517" lon="13.414429519325495">
        <ele>560</ele>
        <time>2026-08-29T07:49:31Z</time>
      </trkpt>
      <trkpt lat="50.663595059886575" lon="13.414346035569906">
        <ele>561</ele>
        <time>2026-08-29T07:49:32Z</time>
      </trkpt>
      <trkpt lat="50.663564382120967" lon="13.414261713624001">
        <ele>560</ele>
        <time>2026-08-29T07:49:33Z</time>
      </trkpt>
      <trkpt lat="50.663541499525309" lon="13.41417764313519">
        <ele>560</ele>
        <time>2026-08-29T07:49:34Z</time>
      </trkpt>
      <trkpt lat="50.663515934720635" lon="13.414087118580937">
        <ele>559</ele>
        <time>2026-08-29T07:49:35Z</time>
      </trkpt>
      <trkpt lat="50.663486681878567" lon="13.413982596248388">
        <ele>559</ele>
        <time>2026-08-29T07:49:36Z</time>
      </trkpt>
      <trkpt lat="50.66346094943583" lon="13.413881761953235">
        <ele>559</ele>
        <time>2026-08-29T07:49:37Z</time>
      </trkpt>
      <trkpt lat="50.663437061011791" lon="13.413779586553574">
        <ele>559</ele>
        <time>2026-08-29T07:49:38Z</time>
      </trkpt>
      <trkpt lat="50.663413340225816" lon="13.413675734773278">
        <ele>558</ele>
        <time>2026-08-29T07:49:39Z</time>
      </trkpt>
      <trkpt lat="50.663392469286919" lon="13.413567440584302">
        <ele>558</ele>
        <time>2026-08-29T07:49:40Z</time>
      </trkpt>
      <trkpt lat="50.66336908377707" lon="13.413458224385977">
        <ele>558</ele>
        <time>2026-08-29T07:49:41Z</time>
      </trkpt>
      <trkpt lat="50.663339495658875" lon="13.413357306271791">
        <ele>558</ele>
        <time>2026-08-29T07:49:42Z</time>
      </trkpt>
      <trkpt lat="50.663310326635838" lon="13.413250437006354">
        <ele>558</ele>
        <time>2026-08-29T07:49:43Z</time>
      </trkpt>
      <trkpt lat="50.663282079622149" lon="13.413141723722219">
        <ele>557</ele>
        <time>2026-08-29T07:49:44Z</time>
      </trkpt>
      <trkpt lat="50.663251737132668" lon="13.41304013505578">
        <ele>557</ele>
        <time>2026-08-29T07:49:45Z</time>
      </trkpt>
      <trkpt lat="50.663220221176744" lon="13.412929074838758">
        <ele>556</ele>
        <time>2026-08-29T07:49:46Z</time>
      </trkpt>
      <trkpt lat="50.663192979991436" lon="13.412824803963304">
        <ele>556</ele>
        <time>2026-08-29T07:49:47Z</time>
      </trkpt>
      <trkpt lat="50.663169762119651" lon="13.412731848657131">
        <ele>555</ele>
        <time>2026-08-29T07:49:48Z</time>
      </trkpt>
      <trkpt lat="50.663142018020153" lon="13.412642162293196">
        <ele>555</ele>
        <time>2026-08-29T07:49:49Z</time>
      </trkpt>
      <trkpt lat="50.66311595030129" lon="13.41255147010088">
        <ele>554</ele>
        <time>2026-08-29T07:49:50Z</time>
      </trkpt>
      <trkpt lat="50.663087954744697" lon="13.412463879212737">
        <ele>554</ele>
        <time>2026-08-29T07:49:51Z</time>
      </trkpt>
      <trkpt lat="50.663056774064898" lon="13.412379892542958">
        <ele>553</ele>
        <time>2026-08-29T07:49:52Z</time>
      </trkpt>
      <trkpt lat="50.663028359413147" lon="13.412292720749974">
        <ele>553</ele>
        <time>2026-08-29T07:49:53Z</time>
      </trkpt>
      <trkpt lat="50.663006650283933" lon="13.412202782928944">
        <ele>554</ele>
        <time>2026-08-29T07:49:54Z</time>
      </trkpt>
      <trkpt lat="50.662985779345036" lon="13.412108151242137">
        <ele>553</ele>
        <time>2026-08-29T07:49:55Z</time>
      </trkpt>
      <trkpt lat="50.662960968911648" lon="13.412006730213761">
        <ele>553</ele>
        <time>2026-08-29T07:49:56Z</time>
      </trkpt>
      <trkpt lat="50.662917969748378" lon="13.411925928667188">
        <ele>553</ele>
        <time>2026-08-29T07:49:57Z</time>
      </trkpt>
      <trkpt lat="50.662869438529015" lon="13.411860466003418">
        <ele>553</ele>
        <time>2026-08-29T07:49:58Z</time>
      </trkpt>
      <trkpt lat="50.662827529013157" lon="13.4117975179106">
        <ele>553</ele>
        <time>2026-08-29T07:49:59Z</time>
      </trkpt>
      <trkpt lat="50.662776231765747" lon="13.411740688607097">
        <ele>553</ele>
        <time>2026-08-29T07:50:00Z</time>
      </trkpt>
      <trkpt lat="50.662726778537035" lon="13.411683607846498">
        <ele>554</ele>
        <time>2026-08-29T07:50:01Z</time>
      </trkpt>
      <trkpt lat="50.662679085507989" lon="13.411639602854848">
        <ele>554</ele>
        <time>2026-08-29T07:50:02Z</time>
      </trkpt>
      <trkpt lat="50.662624770775437" lon="13.411601632833481">
        <ele>553</ele>
        <time>2026-08-29T07:50:03Z</time>
      </trkpt>
      <trkpt lat="50.66257556900382" lon="13.411555867642164">
        <ele>553</ele>
        <time>2026-08-29T07:50:04Z</time>
      </trkpt>
      <trkpt lat="50.662521421909332" lon="13.411526363343">
        <ele>554</ele>
        <time>2026-08-29T07:50:05Z</time>
      </trkpt>
      <trkpt lat="50.66247096285224" lon="13.411484705284238">
        <ele>554</ele>
        <time>2026-08-29T07:50:06Z</time>
      </trkpt>
      <trkpt lat="50.662422431632876" lon="13.411435084417462">
        <ele>554</ele>
        <time>2026-08-29T07:50:07Z</time>
      </trkpt>
      <trkpt lat="50.662377839908004" lon="13.411386972293258">
        <ele>554</ele>
        <time>2026-08-29T07:50:08Z</time>
      </trkpt>
      <trkpt lat="50.662332326173782" lon="13.411332992836833">
        <ele>554</ele>
        <time>2026-08-29T07:50:09Z</time>
      </trkpt>
      <trkpt lat="50.662297960370779" lon="13.411280103027821">
        <ele>554</ele>
        <time>2026-08-29T07:50:10Z</time>
      </trkpt>
      <trkpt lat="50.662257727235556" lon="13.411223944276571">
        <ele>554</ele>
        <time>2026-08-29T07:50:11Z</time>
      </trkpt>
      <trkpt lat="50.662221349775791" lon="13.411167534068227">
        <ele>555</ele>
        <time>2026-08-29T07:50:12Z</time>
      </trkpt>
      <trkpt lat="50.66219000145793" lon="13.411109196022153">
        <ele>554</ele>
        <time>2026-08-29T07:50:13Z</time>
      </trkpt>
      <trkpt lat="50.662160832434893" lon="13.411055384203792">
        <ele>554</ele>
        <time>2026-08-29T07:50:14Z</time>
      </trkpt>
      <trkpt lat="50.662134597077966" lon="13.410992687568069">
        <ele>554</ele>
        <time>2026-08-29T07:50:15Z</time>
      </trkpt>
      <trkpt lat="50.662111379206181" lon="13.410936864092946">
        <ele>553</ele>
        <time>2026-08-29T07:50:16Z</time>
      </trkpt>
      <trkpt lat="50.662090592086315" lon="13.41087844222784">
        <ele>553</ele>
        <time>2026-08-29T07:50:17Z</time>
      </trkpt>
      <trkpt lat="50.662075839936733" lon="13.410814572125673">
        <ele>554</ele>
        <time>2026-08-29T07:50:18Z</time>
      </trkpt>
      <trkpt lat="50.662061255425215" lon="13.410745924338698">
        <ele>554</ele>
        <time>2026-08-29T07:50:19Z</time>
      </trkpt>
      <trkpt lat="50.662041222676635" lon="13.410677276551723">
        <ele>554</ele>
        <time>2026-08-29T07:50:20Z</time>
      </trkpt>
      <trkpt lat="50.662016747519374" lon="13.41060041449964">
        <ele>554</ele>
        <time>2026-08-29T07:50:21Z</time>
      </trkpt>
      <trkpt lat="50.661996882408857" lon="13.41052858158946">
        <ele>554</ele>
        <time>2026-08-29T07:50:22Z</time>
      </trkpt>
      <trkpt lat="50.661974921822548" lon="13.410460436716676">
        <ele>554</ele>
        <time>2026-08-29T07:50:23Z</time>
      </trkpt>
      <trkpt lat="50.661947429180145" lon="13.410385251045227">
        <ele>554</ele>
        <time>2026-08-29T07:50:24Z</time>
      </trkpt>
      <trkpt lat="50.661922870203853" lon="13.410319369286299">
        <ele>554</ele>
        <time>2026-08-29T07:50:25Z</time>
      </trkpt>
      <trkpt lat="50.661903424188495" lon="13.410262120887637">
        <ele>554</ele>
        <time>2026-08-29T07:50:26Z</time>
      </trkpt>
      <trkpt lat="50.661880290135741" lon="13.410204201936722">
        <ele>554</ele>
        <time>2026-08-29T07:50:27Z</time>
      </trkpt>
      <trkpt lat="50.661853468045592" lon="13.41013572178781">
        <ele>553</ele>
        <time>2026-08-29T07:50:28Z</time>
      </trkpt>
      <trkpt lat="50.661828573793173" lon="13.410060703754425">
        <ele>553</ele>
        <time>2026-08-29T07:50:29Z</time>
      </trkpt>
      <trkpt lat="50.661798566579819" lon="13.40998568572104">
        <ele>553</ele>
        <time>2026-08-29T07:50:30Z</time>
      </trkpt>
      <trkpt lat="50.661772079765797" lon="13.409909661859274">
        <ele>552</ele>
        <time>2026-08-29T07:50:31Z</time>
      </trkpt>
      <trkpt lat="50.661729415878654" lon="13.409821819514036">
        <ele>551</ele>
        <time>2026-08-29T07:50:32Z</time>
      </trkpt>
      <trkpt lat="50.661686332896352" lon="13.409722242504358">
        <ele>551</ele>
        <time>2026-08-29T07:50:33Z</time>
      </trkpt>
      <trkpt lat="50.661649787798524" lon="13.40961093083024">
        <ele>550</ele>
        <time>2026-08-29T07:50:34Z</time>
      </trkpt>
      <trkpt lat="50.661607962101698" lon="13.4094955958426">
        <ele>549</ele>
        <time>2026-08-29T07:50:35Z</time>
      </trkpt>
      <trkpt lat="50.661562196910381" lon="13.409377327188849">
        <ele>549</ele>
        <time>2026-08-29T07:50:36Z</time>
      </trkpt>
      <trkpt lat="50.661516515538096" lon="13.409259058535099">
        <ele>548</ele>
        <time>2026-08-29T07:50:37Z</time>
      </trkpt>
      <trkpt lat="50.661474941298366" lon="13.409139700233936">
        <ele>548</ele>
        <time>2026-08-29T07:50:38Z</time>
      </trkpt>
      <trkpt lat="50.661428170278668" lon="13.409021096304059">
        <ele>548</ele>
        <time>2026-08-29T07:50:39Z</time>
      </trkpt>
      <trkpt lat="50.661384668201208" lon="13.408909533172846">
        <ele>548</ele>
        <time>2026-08-29T07:50:40Z</time>
      </trkpt>
      <trkpt lat="50.66133932210505" lon="13.408802999183536">
        <ele>548</ele>
        <time>2026-08-29T07:50:41Z</time>
      </trkpt>
      <trkpt lat="50.661292634904385" lon="13.408694202080369">
        <ele>548</ele>
        <time>2026-08-29T07:50:42Z</time>
      </trkpt>
      <trkpt lat="50.661245780065656" lon="13.408596804365516">
        <ele>548</ele>
        <time>2026-08-29T07:50:43Z</time>
      </trkpt>
      <trkpt lat="50.661200182512403" lon="13.408506279811263">
        <ele>548</ele>
        <time>2026-08-29T07:50:44Z</time>
      </trkpt>
      <trkpt lat="50.66115265712142" lon="13.408418018370867">
        <ele>548</ele>
        <time>2026-08-29T07:50:45Z</time>
      </trkpt>
      <trkpt lat="50.661102784797549" lon="13.408338390290737">
        <ele>547</ele>
        <time>2026-08-29T07:50:46Z</time>
      </trkpt>
      <trkpt lat="50.661056851968169" lon="13.408257337287068">
        <ele>548</ele>
        <time>2026-08-29T07:50:47Z</time>
      </trkpt>
      <trkpt lat="50.661015277728438" lon="13.408172596246004">
        <ele>548</ele>
        <time>2026-08-29T07:50:48Z</time>
      </trkpt>
      <trkpt lat="50.660967668518424" lon="13.408097075298429">
        <ele>548</ele>
        <time>2026-08-29T07:50:49Z</time>
      </trkpt>
      <trkpt lat="50.660913437604904" lon="13.408020045608282">
        <ele>547</ele>
        <time>2026-08-29T07:50:50Z</time>
      </trkpt>
      <trkpt lat="50.660866247490048" lon="13.407939998432994">
        <ele>547</ele>
        <time>2026-08-29T07:50:51Z</time>
      </trkpt>
      <trkpt lat="50.660818470641971" lon="13.407858274877071">
        <ele>547</ele>
        <time>2026-08-29T07:50:52Z</time>
      </trkpt>
      <trkpt lat="50.660764910280704" lon="13.407787280157208">
        <ele>546</ele>
        <time>2026-08-29T07:50:53Z</time>
      </trkpt>
      <trkpt lat="50.660709757357836" lon="13.407712932676077">
        <ele>546</ele>
        <time>2026-08-29T07:50:54Z</time>
      </trkpt>
      <trkpt lat="50.660656029358506" lon="13.407631628215313">
        <ele>545</ele>
        <time>2026-08-29T07:50:55Z</time>
      </trkpt>
      <trkpt lat="50.66061126999557" lon="13.407549150288105">
        <ele>545</ele>
        <time>2026-08-29T07:50:56Z</time>
      </trkpt>
      <trkpt lat="50.660572880879045" lon="13.407479664310813">
        <ele>544</ele>
        <time>2026-08-29T07:50:57Z</time>
      </trkpt>
      <trkpt lat="50.660530719906092" lon="13.407390816137195">
        <ele>545</ele>
        <time>2026-08-29T07:50:58Z</time>
      </trkpt>
      <trkpt lat="50.660505909472704" lon="13.407267602160573">
        <ele>544</ele>
        <time>2026-08-29T07:50:59Z</time>
      </trkpt>
      <trkpt lat="50.660491492599249" lon="13.407131647691131">
        <ele>543</ele>
        <time>2026-08-29T07:51:00Z</time>
      </trkpt>
      <trkpt lat="50.660485709086061" lon="13.407003739848733">
        <ele>542</ele>
        <time>2026-08-29T07:51:01Z</time>
      </trkpt>
      <trkpt lat="50.660477411001921" lon="13.406860660761595">
        <ele>541</ele>
        <time>2026-08-29T07:51:02Z</time>
      </trkpt>
      <trkpt lat="50.66047539934516" lon="13.406725712120533">
        <ele>541</ele>
        <time>2026-08-29T07:51:03Z</time>
      </trkpt>
      <trkpt lat="50.660452181473374" lon="13.406599564477801">
        <ele>541</ele>
        <time>2026-08-29T07:51:04Z</time>
      </trkpt>
      <trkpt lat="50.660418989136815" lon="13.406487917527556">
        <ele>541</ele>
        <time>2026-08-29T07:51:05Z</time>
      </trkpt>
      <trkpt lat="50.660386215895414" lon="13.406394124031067">
        <ele>541</ele>
        <time>2026-08-29T07:51:06Z</time>
      </trkpt>
      <trkpt lat="50.660357298329473" lon="13.406305108219385">
        <ele>541</ele>
        <time>2026-08-29T07:51:07Z</time>
      </trkpt>
      <trkpt lat="50.660324692726135" lon="13.406216679140925">
        <ele>542</ele>
        <time>2026-08-29T07:51:08Z</time>
      </trkpt>
      <trkpt lat="50.660298457369208" lon="13.406137889251113">
        <ele>542</ele>
        <time>2026-08-29T07:51:09Z</time>
      </trkpt>
      <trkpt lat="50.660274988040328" lon="13.406079802662134">
        <ele>542</ele>
        <time>2026-08-29T07:51:10Z</time>
      </trkpt>
      <trkpt lat="50.660257050767541" lon="13.406022470444441">
        <ele>542</ele>
        <time>2026-08-29T07:51:11Z</time>
      </trkpt>
      <trkpt lat="50.660236179828644" lon="13.405968910083175">
        <ele>542</ele>
        <time>2026-08-29T07:51:12Z</time>
      </trkpt>
      <trkpt lat="50.66021841019392" lon="13.405906800180674">
        <ele>543</ele>
        <time>2026-08-29T07:51:13Z</time>
      </trkpt>
      <trkpt lat="50.660201730206609" lon="13.405846199020743">
        <ele>543</ele>
        <time>2026-08-29T07:51:14Z</time>
      </trkpt>
      <trkpt lat="50.660181529819965" lon="13.405797835439444">
        <ele>543</ele>
        <time>2026-08-29T07:51:15Z</time>
      </trkpt>
      <trkpt lat="50.660167532041669" lon="13.405742095783353">
        <ele>543</ele>
        <time>2026-08-29T07:51:16Z</time>
      </trkpt>
      <trkpt lat="50.660153534263372" lon="13.40568769723177">
        <ele>543</ele>
        <time>2026-08-29T07:51:17Z</time>
      </trkpt>
      <trkpt lat="50.660144230350852" lon="13.405638914555311">
        <ele>543</ele>
        <time>2026-08-29T07:51:18Z</time>
      </trkpt>
      <trkpt lat="50.660130148753524" lon="13.405590131878853">
        <ele>543</ele>
        <time>2026-08-29T07:51:19Z</time>
      </trkpt>
      <trkpt lat="50.660113552585244" lon="13.405548976734281">
        <ele>543</ele>
        <time>2026-08-29T07:51:20Z</time>
      </trkpt>
      <trkpt lat="50.660098632797599" lon="13.405501702800393">
        <ele>544</ele>
        <time>2026-08-29T07:51:21Z</time>
      </trkpt>
      <trkpt lat="50.660086059942842" lon="13.405454680323601">
        <ele>544</ele>
        <time>2026-08-29T07:51:22Z</time>
      </trkpt>
      <trkpt lat="50.660077258944511" lon="13.40540531091392">
        <ele>544</ele>
        <time>2026-08-29T07:51:23Z</time>
      </trkpt>
      <trkpt lat="50.660069631412625" lon="13.405356276780367">
        <ele>545</ele>
        <time>2026-08-29T07:51:24Z</time>
      </trkpt>
      <trkpt lat="50.660058818757534" lon="13.405309421941638">
        <ele>545</ele>
        <time>2026-08-29T07:51:25Z</time>
      </trkpt>
      <trkpt lat="50.660049179568887" lon="13.405259801074862">
        <ele>545</ele>
        <time>2026-08-29T07:51:26Z</time>
      </trkpt>
      <trkpt lat="50.660036439076066" lon="13.405220406129956">
        <ele>545</ele>
        <time>2026-08-29T07:51:27Z</time>
      </trkpt>
      <trkpt lat="50.660025207325816" lon="13.405174808576703">
        <ele>545</ele>
        <time>2026-08-29T07:51:28Z</time>
      </trkpt>
      <trkpt lat="50.660020681098104" lon="13.405124768614769">
        <ele>545</ele>
        <time>2026-08-29T07:51:29Z</time>
      </trkpt>
      <trkpt lat="50.660012718290091" lon="13.405088391155005">
        <ele>545</ele>
        <time>2026-08-29T07:51:30Z</time>
      </trkpt>
      <trkpt lat="50.660004504024982" lon="13.405051929876208">
        <ele>545</ele>
        <time>2026-08-29T07:51:31Z</time>
      </trkpt>
      <trkpt lat="50.659997630864382" lon="13.405011696740985">
        <ele>545</ele>
        <time>2026-08-29T07:51:32Z</time>
      </trkpt>
      <trkpt lat="50.659991595894098" lon="13.404980516061187">
        <ele>545</ele>
        <time>2026-08-29T07:51:33Z</time>
      </trkpt>
      <trkpt lat="50.659979861229658" lon="13.404955705627799">
        <ele>545</ele>
        <time>2026-08-29T07:51:34Z</time>
      </trkpt>
      <trkpt lat="50.659967288374901" lon="13.404930979013443">
        <ele>545</ele>
        <time>2026-08-29T07:51:35Z</time>
      </trkpt>
      <trkpt lat="50.659957733005285" lon="13.404910946264863">
        <ele>546</ele>
        <time>2026-08-29T07:51:36Z</time>
      </trkpt>
      <trkpt lat="50.659952703863382" lon="13.404890410602093">
        <ele>546</ele>
        <time>2026-08-29T07:51:37Z</time>
      </trkpt>
      <trkpt lat="50.659947171807289" lon="13.404867108911276">
        <ele>546</ele>
        <time>2026-08-29T07:51:38Z</time>
      </trkpt>
      <trkpt lat="50.659942058846354" lon="13.40482871979475">
        <ele>545</ele>
        <time>2026-08-29T07:51:39Z</time>
      </trkpt>
      <trkpt lat="50.659941891208291" lon="13.404810111969709">
        <ele>545</ele>
        <time>2026-08-29T07:51:40Z</time>
      </trkpt>
      <trkpt lat="50.659941891208291" lon="13.404792509973049">
        <ele>545</ele>
        <time>2026-08-29T07:51:41Z</time>
      </trkpt>
      <trkpt lat="50.659945663064718" lon="13.404774572700262">
        <ele>545</ele>
        <time>2026-08-29T07:51:42Z</time>
      </trkpt>
      <trkpt lat="50.659940633922815" lon="13.404752193018794">
        <ele>546</ele>
        <time>2026-08-29T07:51:43Z</time>
      </trkpt>
      <trkpt lat="50.65993501804769" lon="13.404721012338996">
        <ele>546</ele>
        <time>2026-08-29T07:51:44Z</time>
      </trkpt>
      <trkpt lat="50.659932922571898" lon="13.404693435877562">
        <ele>546</ele>
        <time>2026-08-29T07:51:45Z</time>
      </trkpt>
      <trkpt lat="50.659927139058709" lon="13.404669379815459">
        <ele>546</ele>
        <time>2026-08-29T07:51:46Z</time>
      </trkpt>
      <trkpt lat="50.659922948107123" lon="13.404635936021805">
        <ele>546</ele>
        <time>2026-08-29T07:51:47Z</time>
      </trkpt>
      <trkpt lat="50.659913644194603" lon="13.404605509713292">
        <ele>546</ele>
        <time>2026-08-29T07:51:48Z</time>
      </trkpt>
      <trkpt lat="50.659910291433334" lon="13.404577597975731">
        <ele>547</ele>
        <time>2026-08-29T07:51:49Z</time>
      </trkpt>
      <trkpt lat="50.65991347655654" lon="13.404540214687586">
        <ele>547</ele>
        <time>2026-08-29T07:51:50Z</time>
      </trkpt>
      <trkpt lat="50.659910878166556" lon="13.404513308778405">
        <ele>547</ele>
        <time>2026-08-29T07:51:51Z</time>
      </trkpt>
      <trkpt lat="50.659912889823318" lon="13.404493946582079">
        <ele>547</ele>
        <time>2026-08-29T07:51:52Z</time>
      </trkpt>
      <trkpt lat="50.659915572032332" lon="13.404468549415469">
        <ele>548</ele>
        <time>2026-08-29T07:51:53Z</time>
      </trkpt>
      <trkpt lat="50.659913308918476" lon="13.404451701790094">
        <ele>548</ele>
        <time>2026-08-29T07:51:54Z</time>
      </trkpt>
      <trkpt lat="50.659909620881081" lon="13.404432255774736">
        <ele>548</ele>
        <time>2026-08-29T07:51:55Z</time>
      </trkpt>
      <trkpt lat="50.659906938672066" lon="13.40442068874836">
        <ele>548</ele>
        <time>2026-08-29T07:51:56Z</time>
      </trkpt>
      <trkpt lat="50.659904591739178" lon="13.404405433684587">
        <ele>548</ele>
        <time>2026-08-29T07:51:57Z</time>
      </trkpt>
      <trkpt lat="50.659904591739178" lon="13.404380287975073">
        <ele>549</ele>
        <time>2026-08-29T07:51:58Z</time>
      </trkpt>
      <trkpt lat="50.659906771034002" lon="13.404346844181418">
        <ele>549</ele>
        <time>2026-08-29T07:51:59Z</time>
      </trkpt>
      <trkpt lat="50.659904088824987" lon="13.404327565804124">
        <ele>549</ele>
        <time>2026-08-29T07:52:00Z</time>
      </trkpt>
      <trkpt lat="50.659904340282083" lon="13.404312478378415">
        <ele>549</ele>
        <time>2026-08-29T07:52:01Z</time>
      </trkpt>
      <trkpt lat="50.659901238977909" lon="13.404295463114977">
        <ele>550</ele>
        <time>2026-08-29T07:52:02Z</time>
      </trkpt>
      <trkpt lat="50.659893276169896" lon="13.404280375689268">
        <ele>551</ele>
        <time>2026-08-29T07:52:03Z</time>
      </trkpt>
      <trkpt lat="50.659891767427325" lon="13.404261767864227">
        <ele>551</ele>
        <time>2026-08-29T07:52:04Z</time>
      </trkpt>
      <trkpt lat="50.659892521798611" lon="13.404245171695948">
        <ele>551</ele>
        <time>2026-08-29T07:52:05Z</time>
      </trkpt>
      <trkpt lat="50.659895287826657" lon="13.40422379784286">
        <ele>552</ele>
        <time>2026-08-29T07:52:06Z</time>
      </trkpt>
      <trkpt lat="50.659897467121482" lon="13.404203178361058">
        <ele>552</ele>
        <time>2026-08-29T07:52:07Z</time>
      </trkpt>
      <trkpt lat="50.659902328625321" lon="13.404183648526669">
        <ele>552</ele>
        <time>2026-08-29T07:52:08Z</time>
      </trkpt>
      <trkpt lat="50.659897802397609" lon="13.404162190854549">
        <ele>552</ele>
        <time>2026-08-29T07:52:09Z</time>
      </trkpt>
      <trkpt lat="50.659895958378911" lon="13.404140649363399">
        <ele>552</ele>
        <time>2026-08-29T07:52:10Z</time>
      </trkpt>
      <trkpt lat="50.659892354160547" lon="13.404121706262231">
        <ele>552</ele>
        <time>2026-08-29T07:52:11Z</time>
      </trkpt>
      <trkpt lat="50.659887408837676" lon="13.404099326580763">
        <ele>553</ele>
        <time>2026-08-29T07:52:12Z</time>
      </trkpt>
      <trkpt lat="50.659882044419646" lon="13.404078204184771">
        <ele>553</ele>
        <time>2026-08-29T07:52:13Z</time>
      </trkpt>
      <trkpt lat="50.659876512363553" lon="13.404057752341032">
        <ele>553</ele>
        <time>2026-08-29T07:52:14Z</time>
      </trkpt>
      <trkpt lat="50.659878943115473" lon="13.404028583317995">
        <ele>554</ele>
        <time>2026-08-29T07:52:15Z</time>
      </trkpt>
      <trkpt lat="50.659883888438344" lon="13.404003772884607">
        <ele>554</ele>
        <time>2026-08-29T07:52:16Z</time>
      </trkpt>
      <trkpt lat="50.659888247027993" lon="13.403987092897296">
        <ele>554</ele>
        <time>2026-08-29T07:52:17Z</time>
      </trkpt>
      <trkpt lat="50.659894701093435" lon="13.403962198644876">
        <ele>555</ele>
        <time>2026-08-29T07:52:18Z</time>
      </trkpt>
      <trkpt lat="50.659895790740848" lon="13.403939483687282">
        <ele>555</ele>
        <time>2026-08-29T07:52:19Z</time>
      </trkpt>
      <trkpt lat="50.659895539283752" lon="13.403918696567416">
        <ele>556</ele>
        <time>2026-08-29T07:52:20Z</time>
      </trkpt>
      <trkpt lat="50.65989394672215" lon="13.403894724324346">
        <ele>556</ele>
        <time>2026-08-29T07:52:21Z</time>
      </trkpt>
      <trkpt lat="50.65989495255053" lon="13.40386806987226">
        <ele>557</ele>
        <time>2026-08-29T07:52:22Z</time>
      </trkpt>
      <trkpt lat="50.659895623102784" lon="13.403846109285951">
        <ele>557</ele>
        <time>2026-08-29T07:52:23Z</time>
      </trkpt>
      <trkpt lat="50.659903921186924" lon="13.403822723776102">
        <ele>557</ele>
        <time>2026-08-29T07:52:24Z</time>
      </trkpt>
      <trkpt lat="50.659913560375571" lon="13.40379673987627">
        <ele>557</ele>
        <time>2026-08-29T07:52:25Z</time>
      </trkpt>
      <trkpt lat="50.659914817661047" lon="13.403777042403817">
        <ele>557</ele>
        <time>2026-08-29T07:52:26Z</time>
      </trkpt>
      <trkpt lat="50.659914147108793" lon="13.403758769854903">
        <ele>557</ele>
        <time>2026-08-29T07:52:27Z</time>
      </trkpt>
      <trkpt lat="50.659908698871732" lon="13.403733288869262">
        <ele>557</ele>
        <time>2026-08-29T07:52:28Z</time>
      </trkpt>
      <trkpt lat="50.659905010834336" lon="13.403711412101984">
        <ele>557</ele>
        <time>2026-08-29T07:52:29Z</time>
      </trkpt>
      <trkpt lat="50.659904591739178" lon="13.40369070880115">
        <ele>558</ele>
        <time>2026-08-29T07:52:30Z</time>
      </trkpt>
      <trkpt lat="50.659907860681415" lon="13.403668412938714">
        <ele>558</ele>
        <time>2026-08-29T07:52:31Z</time>
      </trkpt>
      <trkpt lat="50.659910207614303" lon="13.4036501403898">
        <ele>558</ele>
        <time>2026-08-29T07:52:32Z</time>
      </trkpt>
      <trkpt lat="50.659910039976239" lon="13.4036276768893">
        <ele>559</ele>
        <time>2026-08-29T07:52:33Z</time>
      </trkpt>
      <trkpt lat="50.659908950328827" lon="13.403603117913008">
        <ele>559</ele>
        <time>2026-08-29T07:52:34Z</time>
      </trkpt>
      <trkpt lat="50.659907273948193" lon="13.403578558936715">
        <ele>559</ele>
        <time>2026-08-29T07:52:35Z</time>
      </trkpt>
      <trkpt lat="50.659907609224319" lon="13.403555676341057">
        <ele>560</ele>
        <time>2026-08-29T07:52:36Z</time>
      </trkpt>
      <trkpt lat="50.659912386909127" lon="13.403530782088637">
        <ele>560</ele>
        <time>2026-08-29T07:52:37Z</time>
      </trkpt>
      <trkpt lat="50.659918421879411" lon="13.403510581701994">
        <ele>560</ele>
        <time>2026-08-29T07:52:38Z</time>
      </trkpt>
      <trkpt lat="50.65992227755487" lon="13.403485268354416">
        <ele>560</ele>
        <time>2026-08-29T07:52:39Z</time>
      </trkpt>
      <trkpt lat="50.659926049411297" lon="13.403460625559092">
        <ele>560</ele>
        <time>2026-08-29T07:52:40Z</time>
      </trkpt>
      <trkpt lat="50.659928312525153" lon="13.403438748791814">
        <ele>561</ele>
        <time>2026-08-29T07:52:41Z</time>
      </trkpt>
      <trkpt lat="50.659927474334836" lon="13.403420057147741">
        <ele>561</ele>
        <time>2026-08-29T07:52:42Z</time>
      </trkpt>
      <trkpt lat="50.659924121573567" lon="13.403399689123034">
        <ele>561</ele>
        <time>2026-08-29T07:52:43Z</time>
      </trkpt>
      <trkpt lat="50.659922193735838" lon="13.403374794870615">
        <ele>561</ele>
        <time>2026-08-29T07:52:44Z</time>
      </trkpt>
      <trkpt lat="50.659923451021314" lon="13.403351325541735">
        <ele>562</ele>
        <time>2026-08-29T07:52:45Z</time>
      </trkpt>
      <trkpt lat="50.659930240362883" lon="13.40333255007863">
        <ele>562</ele>
        <time>2026-08-29T07:52:46Z</time>
      </trkpt>
      <trkpt lat="50.659930659458041" lon="13.403314109891653">
        <ele>562</ele>
        <time>2026-08-29T07:52:47Z</time>
      </trkpt>
      <trkpt lat="50.659925630316138" lon="13.403299609199166">
        <ele>562</ele>
        <time>2026-08-29T07:52:48Z</time>
      </trkpt>
      <trkpt lat="50.659923031926155" lon="13.403280079364777">
        <ele>561</ele>
        <time>2026-08-29T07:52:49Z</time>
      </trkpt>
      <trkpt lat="50.65992278046906" lon="13.403260800987482">
        <ele>561</ele>
        <time>2026-08-29T07:52:50Z</time>
      </trkpt>
      <trkpt lat="50.65992085263133" lon="13.403249653056264">
        <ele>561</ele>
        <time>2026-08-29T07:52:51Z</time>
      </trkpt>
      <trkpt lat="50.659921187907457" lon="13.403233727440238">
        <ele>561</ele>
        <time>2026-08-29T07:52:52Z</time>
      </trkpt>
      <trkpt lat="50.659915152937174" lon="13.403218891471624">
        <ele>561</ele>
        <time>2026-08-29T07:52:53Z</time>
      </trkpt>
      <trkpt lat="50.659912889823318" lon="13.403204893693328">
        <ele>560</ele>
        <time>2026-08-29T07:52:54Z</time>
      </trkpt>
      <trkpt lat="50.65991104580462" lon="13.403190979734063">
        <ele>560</ele>
        <time>2026-08-29T07:52:55Z</time>
      </trkpt>
      <trkpt lat="50.659913141280413" lon="13.403181424364448">
        <ele>559</ele>
        <time>2026-08-29T07:52:56Z</time>
      </trkpt>
      <trkpt lat="50.659909788519144" lon="13.403169019147754">
        <ele>559</ele>
        <time>2026-08-29T07:52:57Z</time>
      </trkpt>
      <trkpt lat="50.659906519576907" lon="13.403143873438239">
        <ele>559</ele>
        <time>2026-08-29T07:52:58Z</time>
      </trkpt>
      <trkpt lat="50.659906100481749" lon="13.403125097975135">
        <ele>559</ele>
        <time>2026-08-29T07:52:59Z</time>
      </trkpt>
      <trkpt lat="50.659907357767224" lon="13.403097437694669">
        <ele>559</ele>
        <time>2026-08-29T07:53:00Z</time>
      </trkpt>
      <trkpt lat="50.659910291433334" lon="13.403078159317374">
        <ele>559</ele>
        <time>2026-08-29T07:53:01Z</time>
      </trkpt>
      <trkpt lat="50.659907693043351" lon="13.403060808777809">
        <ele>558</ele>
        <time>2026-08-29T07:53:02Z</time>
      </trkpt>
      <trkpt lat="50.65990325063467" lon="13.403038512915373">
        <ele>558</ele>
        <time>2026-08-29T07:53:03Z</time>
      </trkpt>
      <trkpt lat="50.659906100481749" lon="13.403015965595841">
        <ele>558</ele>
        <time>2026-08-29T07:53:04Z</time>
      </trkpt>
      <trkpt lat="50.659907022491097" lon="13.402984784916043">
        <ele>558</ele>
        <time>2026-08-29T07:53:05Z</time>
      </trkpt>
      <trkpt lat="50.659903669729829" lon="13.402957459911704">
        <ele>558</ele>
        <time>2026-08-29T07:53:06Z</time>
      </trkpt>
      <trkpt lat="50.659905849024653" lon="13.402926279231906">
        <ele>558</ele>
        <time>2026-08-29T07:53:07Z</time>
      </trkpt>
      <trkpt lat="50.659909620881081" lon="13.402905073016882">
        <ele>559</ele>
        <time>2026-08-29T07:53:08Z</time>
      </trkpt>
      <trkpt lat="50.659909201785922" lon="13.402888141572475">
        <ele>559</ele>
        <time>2026-08-29T07:53:09Z</time>
      </trkpt>
      <trkpt lat="50.659910039976239" lon="13.402871796861291">
        <ele>559</ele>
        <time>2026-08-29T07:53:10Z</time>
      </trkpt>
      <trkpt lat="50.65991448238492" lon="13.402850087732077">
        <ele>559</ele>
        <time>2026-08-29T07:53:11Z</time>
      </trkpt>
      <trkpt lat="50.659922612830997" lon="13.402823349460959">
        <ele>559</ele>
        <time>2026-08-29T07:53:12Z</time>
      </trkpt>
      <trkpt lat="50.659927558153868" lon="13.402801556512713">
        <ele>559</ele>
        <time>2026-08-29T07:53:13Z</time>
      </trkpt>
      <trkpt lat="50.659925630316138" lon="13.402775907889009">
        <ele>560</ele>
        <time>2026-08-29T07:53:14Z</time>
      </trkpt>
      <trkpt lat="50.659923618659377" lon="13.402744391933084">
        <ele>560</ele>
        <time>2026-08-29T07:53:15Z</time>
      </trkpt>
      <trkpt lat="50.659920936450362" lon="13.402721090242267">
        <ele>560</ele>
        <time>2026-08-29T07:53:16Z</time>
      </trkpt>
      <trkpt lat="50.659916996955872" lon="13.402700973674655">
        <ele>561</ele>
        <time>2026-08-29T07:53:17Z</time>
      </trkpt>
      <trkpt lat="50.659917164593935" lon="13.402667948976159">
        <ele>561</ele>
        <time>2026-08-29T07:53:18Z</time>
      </trkpt>
      <trkpt lat="50.659913141280413" lon="13.402644898742437">
        <ele>561</ele>
        <time>2026-08-29T07:53:19Z</time>
      </trkpt>
      <trkpt lat="50.659909788519144" lon="13.402617322281003">
        <ele>561</ele>
        <time>2026-08-29T07:53:20Z</time>
      </trkpt>
      <trkpt lat="50.659907273948193" lon="13.402581447735429">
        <ele>560</ele>
        <time>2026-08-29T07:53:21Z</time>
      </trkpt>
      <trkpt lat="50.659901490435004" lon="13.402556134387851">
        <ele>560</ele>
        <time>2026-08-29T07:53:22Z</time>
      </trkpt>
      <trkpt lat="50.659896042197943" lon="13.402539119124413">
        <ele>560</ele>
        <time>2026-08-29T07:53:23Z</time>
      </trkpt>
      <trkpt lat="50.659892270341516" lon="13.402508273720741">
        <ele>560</ele>
        <time>2026-08-29T07:53:24Z</time>
      </trkpt>
      <trkpt lat="50.65989151597023" lon="13.402486145496368">
        <ele>560</ele>
        <time>2026-08-29T07:53:25Z</time>
      </trkpt>
      <trkpt lat="50.659887157380581" lon="13.402464520186186">
        <ele>561</ele>
        <time>2026-08-29T07:53:26Z</time>
      </trkpt>
      <trkpt lat="50.659884810447693" lon="13.402435602620244">
        <ele>561</ele>
        <time>2026-08-29T07:53:27Z</time>
      </trkpt>
      <trkpt lat="50.659881709143519" lon="13.402404086664319">
        <ele>561</ele>
        <time>2026-08-29T07:53:28Z</time>
      </trkpt>
      <trkpt lat="50.659878943115473" lon="13.402374917641282">
        <ele>561</ele>
        <time>2026-08-29T07:53:29Z</time>
      </trkpt>
      <trkpt lat="50.659881457686424" lon="13.402349352836609">
        <ele>562</ele>
        <time>2026-08-29T07:53:30Z</time>
      </trkpt>
      <trkpt lat="50.659883972257376" lon="13.402329236268997">
        <ele>562</ele>
        <time>2026-08-29T07:53:31Z</time>
      </trkpt>
      <trkpt lat="50.659883301705122" lon="13.402303671464324">
        <ele>562</ele>
        <time>2026-08-29T07:53:32Z</time>
      </trkpt>
      <trkpt lat="50.659885229542851" lon="13.402280788868666">
        <ele>562</ele>
        <time>2026-08-29T07:53:33Z</time>
      </trkpt>
      <trkpt lat="50.659883469343185" lon="13.402254972606897">
        <ele>562</ele>
        <time>2026-08-29T07:53:34Z</time>
      </trkpt>
      <trkpt lat="50.659886403009295" lon="13.402228821069002">
        <ele>563</ele>
        <time>2026-08-29T07:53:35Z</time>
      </trkpt>
      <trkpt lat="50.659883301705122" lon="13.402207111939788">
        <ele>563</ele>
        <time>2026-08-29T07:53:36Z</time>
      </trkpt>
      <trkpt lat="50.659880787134171" lon="13.40218523517251">
        <ele>563</ele>
        <time>2026-08-29T07:53:37Z</time>
      </trkpt>
      <trkpt lat="50.659878188744187" lon="13.40216419659555">
        <ele>563</ele>
        <time>2026-08-29T07:53:38Z</time>
      </trkpt>
      <trkpt lat="50.659876093268394" lon="13.402142487466335">
        <ele>564</ele>
        <time>2026-08-29T07:53:39Z</time>
      </trkpt>
      <trkpt lat="50.659870728850365" lon="13.40211683884263">
        <ele>564</ele>
        <time>2026-08-29T07:53:40Z</time>
      </trkpt>
      <trkpt lat="50.659870728850365" lon="13.402101583778858">
        <ele>564</ele>
        <time>2026-08-29T07:53:41Z</time>
      </trkpt>
      <trkpt lat="50.659875255078077" lon="13.402076018974185">
        <ele>565</ele>
        <time>2026-08-29T07:53:42Z</time>
      </trkpt>
      <trkpt lat="50.659872489050031" lon="13.402050621807575">
        <ele>565</ele>
        <time>2026-08-29T07:53:43Z</time>
      </trkpt>
      <trkpt lat="50.659872489050031" lon="13.402026565745473">
        <ele>565</ele>
        <time>2026-08-29T07:53:44Z</time>
      </trkpt>
      <trkpt lat="50.659868298098445" lon="13.402002593502402">
        <ele>565</ele>
        <time>2026-08-29T07:53:45Z</time>
      </trkpt>
      <trkpt lat="50.659862430766225" lon="13.401986584067345">
        <ele>565</ele>
        <time>2026-08-29T07:53:46Z</time>
      </trkpt>
      <trkpt lat="50.659859329462051" lon="13.401967976242304">
        <ele>566</ele>
        <time>2026-08-29T07:53:47Z</time>
      </trkpt>
      <trkpt lat="50.65985631197691" lon="13.401951296254992">
        <ele>566</ele>
        <time>2026-08-29T07:53:48Z</time>
      </trkpt>
      <trkpt lat="50.659854048863053" lon="13.40193310752511">
        <ele>566</ele>
        <time>2026-08-29T07:53:49Z</time>
      </trkpt>
      <trkpt lat="50.659853629767895" lon="13.401906955987215">
        <ele>567</ele>
        <time>2026-08-29T07:53:50Z</time>
      </trkpt>
      <trkpt lat="50.659852791577578" lon="13.4018818102777">
        <ele>567</ele>
        <time>2026-08-29T07:53:51Z</time>
      </trkpt>
      <trkpt lat="50.659850109368563" lon="13.401865381747484">
        <ele>567</ele>
        <time>2026-08-29T07:53:52Z</time>
      </trkpt>
      <trkpt lat="50.659847427159548" lon="13.401843085885048">
        <ele>567</ele>
        <time>2026-08-29T07:53:53Z</time>
      </trkpt>
      <trkpt lat="50.659847762435675" lon="13.401825819164515">
        <ele>567</ele>
        <time>2026-08-29T07:53:54Z</time>
      </trkpt>
      <trkpt lat="50.659847091883421" lon="13.401802601292729">
        <ele>568</ele>
        <time>2026-08-29T07:53:55Z</time>
      </trkpt>
      <trkpt lat="50.659846421331167" lon="13.401776617392898">
        <ele>568</ele>
        <time>2026-08-29T07:53:56Z</time>
      </trkpt>
      <trkpt lat="50.659841559827328" lon="13.401756668463349">
        <ele>568</ele>
        <time>2026-08-29T07:53:57Z</time>
      </trkpt>
      <trkpt lat="50.659834770485759" lon="13.40173227712512">
        <ele>569</ele>
        <time>2026-08-29T07:53:58Z</time>
      </trkpt>
      <trkpt lat="50.659828735515475" lon="13.401708221063018">
        <ele>568</ele>
        <time>2026-08-29T07:53:59Z</time>
      </trkpt>
      <trkpt lat="50.659824796020985" lon="13.401690116152167">
        <ele>568</ele>
        <time>2026-08-29T07:54:00Z</time>
      </trkpt>
      <trkpt lat="50.659821778535843" lon="13.401665892452002">
        <ele>569</ele>
        <time>2026-08-29T07:54:01Z</time>
      </trkpt>
      <trkpt lat="50.659817084670067" lon="13.401635214686394">
        <ele>569</ele>
        <time>2026-08-29T07:54:02Z</time>
      </trkpt>
      <trkpt lat="50.6598084513098" lon="13.401612583547831">
        <ele>569</ele>
        <time>2026-08-29T07:54:03Z</time>
      </trkpt>
      <trkpt lat="50.659801242873073" lon="13.401591964066029">
        <ele>569</ele>
        <time>2026-08-29T07:54:04Z</time>
      </trkpt>
      <trkpt lat="50.659795962274075" lon="13.40157394297421">
        <ele>570</ele>
        <time>2026-08-29T07:54:05Z</time>
      </trkpt>
      <trkpt lat="50.659786574542522" lon="13.401556173339486">
        <ele>571</ele>
        <time>2026-08-29T07:54:06Z</time>
      </trkpt>
      <trkpt lat="50.659784059971571" lon="13.401530189439654">
        <ele>570</ele>
        <time>2026-08-29T07:54:07Z</time>
      </trkpt>
      <trkpt lat="50.659775678068399" lon="13.401509486138821">
        <ele>571</ele>
        <time>2026-08-29T07:54:08Z</time>
      </trkpt>
      <trkpt lat="50.659765033051372" lon="13.401484675705433">
        <ele>571</ele>
        <time>2026-08-29T07:54:09Z</time>
      </trkpt>
      <trkpt lat="50.6597566511482" lon="13.401464810594916">
        <ele>571</ele>
        <time>2026-08-29T07:54:10Z</time>
      </trkpt>
      <trkpt lat="50.659748855978251" lon="13.401443688198924">
        <ele>571</ele>
        <time>2026-08-29T07:54:11Z</time>
      </trkpt>
      <trkpt lat="50.659737959504128" lon="13.401429941877723">
        <ele>572</ele>
        <time>2026-08-29T07:54:12Z</time>
      </trkpt>
      <trkpt lat="50.659728571772575" lon="13.40141418389976">
        <ele>573</ele>
        <time>2026-08-29T07:54:13Z</time>
      </trkpt>
      <trkpt lat="50.659718681126833" lon="13.401403790339828">
        <ele>574</ele>
        <time>2026-08-29T07:54:14Z</time>
      </trkpt>
      <trkpt lat="50.659708119928837" lon="13.401389708742499">
        <ele>574</ele>
        <time>2026-08-29T07:54:15Z</time>
      </trkpt>
      <trkpt lat="50.659697558730841" lon="13.401379231363535">
        <ele>574</ele>
        <time>2026-08-29T07:54:16Z</time>
      </trkpt>
      <trkpt lat="50.659686578437686" lon="13.401374872773886">
        <ele>575</ele>
        <time>2026-08-29T07:54:17Z</time>
      </trkpt>
      <trkpt lat="50.659673837944865" lon="13.401373783126473">
        <ele>575</ele>
        <time>2026-08-29T07:54:18Z</time>
      </trkpt>
      <trkpt lat="50.659661181271076" lon="13.40136774815619">
        <ele>575</ele>
        <time>2026-08-29T07:54:19Z</time>
      </trkpt>
      <trkpt lat="50.659647854045033" lon="13.401361964643002">
        <ele>576</ele>
        <time>2026-08-29T07:54:20Z</time>
      </trkpt>
      <trkpt lat="50.659635532647371" lon="13.401354756206274">
        <ele>577</ele>
        <time>2026-08-29T07:54:21Z</time>
      </trkpt>
      <trkpt lat="50.659623211249709" lon="13.401341596618295">
        <ele>577</ele>
        <time>2026-08-29T07:54:22Z</time>
      </trkpt>
      <trkpt lat="50.659611308947206" lon="13.401328604668379">
        <ele>577</ele>
        <time>2026-08-29T07:54:23Z</time>
      </trkpt>
      <trkpt lat="50.659593371674418" lon="13.401311505585909">
        <ele>578</ele>
        <time>2026-08-29T07:54:24Z</time>
      </trkpt>
      <trkpt lat="50.659580379724503" lon="13.40130278840661">
        <ele>578</ele>
        <time>2026-08-29T07:54:25Z</time>
      </trkpt>
      <trkpt lat="50.659566968679428" lon="13.401297675445676">
        <ele>578</ele>
        <time>2026-08-29T07:54:26Z</time>
      </trkpt>
      <trkpt lat="50.65955338999629" lon="13.401292143389583">
        <ele>578</ele>
        <time>2026-08-29T07:54:27Z</time>
      </trkpt>
      <trkpt lat="50.659542409703135" lon="13.401291975751519">
        <ele>578</ele>
        <time>2026-08-29T07:54:28Z</time>
      </trkpt>
      <trkpt lat="50.659527406096458" lon="13.401301531121135">
        <ele>578</ele>
        <time>2026-08-29T07:54:29Z</time>
      </trkpt>
      <trkpt lat="50.659513240680099" lon="13.401301531121135">
        <ele>578</ele>
        <time>2026-08-29T07:54:30Z</time>
      </trkpt>
      <trkpt lat="50.659500835463405" lon="13.401303375139832">
        <ele>578</ele>
        <time>2026-08-29T07:54:31Z</time>
      </trkpt>
      <trkpt lat="50.659489938989282" lon="13.401293400675058">
        <ele>579</ele>
        <time>2026-08-29T07:54:32Z</time>
      </trkpt>
      <trkpt lat="50.659478288143873" lon="13.401284432038665">
        <ele>579</ele>
        <time>2026-08-29T07:54:33Z</time>
      </trkpt>
      <trkpt lat="50.659467978402972" lon="13.401278061792254">
        <ele>579</ele>
        <time>2026-08-29T07:54:34Z</time>
      </trkpt>
      <trkpt lat="50.659454399719834" lon="13.401275714859366">
        <ele>580</ele>
        <time>2026-08-29T07:54:35Z</time>
      </trkpt>
      <trkpt lat="50.65944098867476" lon="13.401264818385243">
        <ele>580</ele>
        <time>2026-08-29T07:54:36Z</time>
      </trkpt>
      <trkpt lat="50.659428499639034" lon="13.401262555271387">
        <ele>581</ele>
        <time>2026-08-29T07:54:37Z</time>
      </trkpt>
      <trkpt lat="50.659417603164911" lon="13.401257274672389">
        <ele>581</ele>
        <time>2026-08-29T07:54:38Z</time>
      </trkpt>
      <trkpt lat="50.65940922126174" lon="13.401248389855027">
        <ele>581</ele>
        <time>2026-08-29T07:54:39Z</time>
      </trkpt>
      <trkpt lat="50.659401258453727" lon="13.401239085942507">
        <ele>581</ele>
        <time>2026-08-29T07:54:40Z</time>
      </trkpt>
      <trkpt lat="50.659390781074762" lon="13.401230033487082">
        <ele>581</ele>
        <time>2026-08-29T07:54:41Z</time>
      </trkpt>
      <trkpt lat="50.659381560981274" lon="13.401222238317132">
        <ele>581</ele>
        <time>2026-08-29T07:54:42Z</time>
      </trkpt>
      <trkpt lat="50.659365551546216" lon="13.401216370984912">
        <ele>581</ele>
        <time>2026-08-29T07:54:43Z</time>
      </trkpt>
      <trkpt lat="50.659354152157903" lon="13.401211090385914">
        <ele>582</ele>
        <time>2026-08-29T07:54:44Z</time>
      </trkpt>
      <trkpt lat="50.659346859902143" lon="13.401214694604278">
        <ele>582</ele>
        <time>2026-08-29T07:54:45Z</time>
      </trkpt>
      <trkpt lat="50.659334370866418" lon="13.401211593300104">
        <ele>582</ele>
        <time>2026-08-29T07:54:46Z</time>
      </trkpt>
      <trkpt lat="50.659317690879107" lon="13.401203965768218">
        <ele>582</ele>
        <time>2026-08-29T07:54:47Z</time>
      </trkpt>
      <trkpt lat="50.659299502149224" lon="13.40120111592114">
        <ele>582</ele>
        <time>2026-08-29T07:54:48Z</time>
      </trkpt>
      <trkpt lat="50.659285420551896" lon="13.401188459247351">
        <ele>582</ele>
        <time>2026-08-29T07:54:49Z</time>
      </trkpt>
      <trkpt lat="50.659270081669092" lon="13.401181921362877">
        <ele>582</ele>
        <time>2026-08-29T07:54:50Z</time>
      </trkpt>
      <trkpt lat="50.65925725735724" lon="13.40117622166872">
        <ele>582</ele>
        <time>2026-08-29T07:54:51Z</time>
      </trkpt>
      <trkpt lat="50.659244433045387" lon="13.401171192526817">
        <ele>582</ele>
        <time>2026-08-29T07:54:52Z</time>
      </trkpt>
      <trkpt lat="50.659228339791298" lon="13.401168845593929">
        <ele>582</ele>
        <time>2026-08-29T07:54:53Z</time>
      </trkpt>
      <trkpt lat="50.659216437488794" lon="13.401162559166551">
        <ele>582</ele>
        <time>2026-08-29T07:54:54Z</time>
      </trkpt>
      <trkpt lat="50.659202858805656" lon="13.401155434548855">
        <ele>582</ele>
        <time>2026-08-29T07:54:55Z</time>
      </trkpt>
      <trkpt lat="50.65918643027544" lon="13.401151327416301">
        <ele>582</ele>
        <time>2026-08-29T07:54:56Z</time>
      </trkpt>
      <trkpt lat="50.65917419269681" lon="13.401140430942178">
        <ele>582</ele>
        <time>2026-08-29T07:54:57Z</time>
      </trkpt>
      <trkpt lat="50.659157512709498" lon="13.401140263304114">
        <ele>582</ele>
        <time>2026-08-29T07:54:58Z</time>
      </trkpt>
      <trkpt lat="50.659141838550568" lon="13.401138419285417">
        <ele>583</ele>
        <time>2026-08-29T07:54:59Z</time>
      </trkpt>
      <trkpt lat="50.65912582911551" lon="13.401137832552195">
        <ele>583</ele>
        <time>2026-08-29T07:55:00Z</time>
      </trkpt>
      <trkpt lat="50.659112250432372" lon="13.401137329638004">
        <ele>583</ele>
        <time>2026-08-29T07:55:01Z</time>
      </trkpt>
      <trkpt lat="50.65910235978663" lon="13.401127774268389">
        <ele>583</ele>
        <time>2026-08-29T07:55:02Z</time>
      </trkpt>
      <trkpt lat="50.659090960398316" lon="13.401122745126486">
        <ele>584</ele>
        <time>2026-08-29T07:55:03Z</time>
      </trkpt>
      <trkpt lat="50.659082159399986" lon="13.401114782318473">
        <ele>584</ele>
        <time>2026-08-29T07:55:04Z</time>
      </trkpt>
      <trkpt lat="50.659071346744895" lon="13.401109166443348">
        <ele>584</ele>
        <time>2026-08-29T07:55:05Z</time>
      </trkpt>
      <trkpt lat="50.659057348966599" lon="13.401099611073732">
        <ele>584</ele>
        <time>2026-08-29T07:55:06Z</time>
      </trkpt>
      <trkpt lat="50.659046871587634" lon="13.401090055704117">
        <ele>585</ele>
        <time>2026-08-29T07:55:07Z</time>
      </trkpt>
      <trkpt lat="50.659035891294479" lon="13.401088044047356">
        <ele>585</ele>
        <time>2026-08-29T07:55:08Z</time>
      </trkpt>
      <trkpt lat="50.65902859903872" lon="13.401085613295436">
        <ele>586</ele>
        <time>2026-08-29T07:55:09Z</time>
      </trkpt>
      <trkpt lat="50.659021139144897" lon="13.401078153401613">
        <ele>586</ele>
        <time>2026-08-29T07:55:10Z</time>
      </trkpt>
      <trkpt lat="50.659003620967269" lon="13.401073878630996">
        <ele>586</ele>
        <time>2026-08-29T07:55:11Z</time>
      </trkpt>
      <trkpt lat="50.658993562683463" lon="13.401072202250361">
        <ele>587</ele>
        <time>2026-08-29T07:55:12Z</time>
      </trkpt>
      <trkpt lat="50.658984929323196" lon="13.401067089289427">
        <ele>587</ele>
        <time>2026-08-29T07:55:13Z</time>
      </trkpt>
      <trkpt lat="50.658977972343564" lon="13.401056947186589">
        <ele>587</ele>
        <time>2026-08-29T07:55:14Z</time>
      </trkpt>
      <trkpt lat="50.658973781391978" lon="13.401053259149194">
        <ele>587</ele>
        <time>2026-08-29T07:55:15Z</time>
      </trkpt>
      <trkpt lat="50.658962884917855" lon="13.401040267199278">
        <ele>587</ele>
        <time>2026-08-29T07:55:16Z</time>
      </trkpt>
      <trkpt lat="50.658953581005335" lon="13.401036579161882">
        <ele>588</ele>
        <time>2026-08-29T07:55:17Z</time>
      </trkpt>
      <trkpt lat="50.658934721723199" lon="13.401024593040347">
        <ele>587</ele>
        <time>2026-08-29T07:55:18Z</time>
      </trkpt>
      <trkpt lat="50.658919466659427" lon="13.401025934144855">
        <ele>588</ele>
        <time>2026-08-29T07:55:19Z</time>
      </trkpt>
      <trkpt lat="50.658900188282132" lon="13.401018474251032">
        <ele>587</ele>
        <time>2026-08-29T07:55:20Z</time>
      </trkpt>
      <trkpt lat="50.658889459446073" lon="13.401014283299446">
        <ele>588</ele>
        <time>2026-08-29T07:55:21Z</time>
      </trkpt>
      <trkpt lat="50.658875210210681" lon="13.401014786213636">
        <ele>588</ele>
        <time>2026-08-29T07:55:22Z</time>
      </trkpt>
      <trkpt lat="50.658857608214021" lon="13.401012355461717">
        <ele>588</ele>
        <time>2026-08-29T07:55:23Z</time>
      </trkpt>
      <trkpt lat="50.658843275159597" lon="13.401017971336842">
        <ele>589</ele>
        <time>2026-08-29T07:55:24Z</time>
      </trkpt>
      <trkpt lat="50.658832378685474" lon="13.400998525321484">
        <ele>589</ele>
        <time>2026-08-29T07:55:25Z</time>
      </trkpt>
      <trkpt lat="50.658822152763605" lon="13.400994334369898">
        <ele>589</ele>
        <time>2026-08-29T07:55:26Z</time>
      </trkpt>
      <trkpt lat="50.658808909356594" lon="13.400988383218646">
        <ele>589</ele>
        <time>2026-08-29T07:55:27Z</time>
      </trkpt>
      <trkpt lat="50.658794660121202" lon="13.400987293571234">
        <ele>589</ele>
        <time>2026-08-29T07:55:28Z</time>
      </trkpt>
      <trkpt lat="50.658785859122872" lon="13.400991149246693">
        <ele>589</ele>
        <time>2026-08-29T07:55:29Z</time>
      </trkpt>
      <trkpt lat="50.658773789182305" lon="13.400994837284088">
        <ele>590</ele>
        <time>2026-08-29T07:55:30Z</time>
      </trkpt>
      <trkpt lat="50.658765574917197" lon="13.401001458987594">
        <ele>590</ele>
        <time>2026-08-29T07:55:31Z</time>
      </trkpt>
      <trkpt lat="50.658755181357265" lon="13.40100129134953">
        <ele>590</ele>
        <time>2026-08-29T07:55:32Z</time>
      </trkpt>
      <trkpt lat="50.65874420106411" lon="13.400993412360549">
        <ele>590</ele>
        <time>2026-08-29T07:55:33Z</time>
      </trkpt>
      <trkpt lat="50.658725928515196" lon="13.400992406532168">
        <ele>590</ele>
        <time>2026-08-29T07:55:34Z</time>
      </trkpt>
      <trkpt lat="50.658713020384312" lon="13.400979414582253">
        <ele>590</ele>
        <time>2026-08-29T07:55:35Z</time>
      </trkpt>
      <trkpt lat="50.658699860796332" lon="13.400972541421652">
        <ele>590</ele>
        <time>2026-08-29T07:55:36Z</time>
      </trkpt>
      <trkpt lat="50.658684186637402" lon="13.400980504229665">
        <ele>590</ele>
        <time>2026-08-29T07:55:37Z</time>
      </trkpt>
      <trkpt lat="50.658671781420708" lon="13.40098955668509">
        <ele>590</ele>
        <time>2026-08-29T07:55:38Z</time>
      </trkpt>
      <trkpt lat="50.658655436709523" lon="13.401004141196609">
        <ele>590</ele>
        <time>2026-08-29T07:55:39Z</time>
      </trkpt>
      <trkpt lat="50.658635655418038" lon="13.401008332148194">
        <ele>590</ele>
        <time>2026-08-29T07:55:40Z</time>
      </trkpt>
      <trkpt lat="50.658619059249759" lon="13.401005649939179">
        <ele>590</ele>
        <time>2026-08-29T07:55:41Z</time>
      </trkpt>
      <trkpt lat="50.658603049814701" lon="13.401003135368228">
        <ele>590</ele>
        <time>2026-08-29T07:55:42Z</time>
      </trkpt>
      <trkpt lat="50.658585699275136" lon="13.401002213358879">
        <ele>590</ele>
        <time>2026-08-29T07:55:43Z</time>
      </trkpt>
      <trkpt lat="50.658568516373634" lon="13.401013193652034">
        <ele>590</ele>
        <time>2026-08-29T07:55:44Z</time>
      </trkpt>
      <trkpt lat="50.658551501110196" lon="13.401022329926491">
        <ele>590</ele>
        <time>2026-08-29T07:55:45Z</time>
      </trkpt>
      <trkpt lat="50.65853456966579" lon="13.401029538363218">
        <ele>590</ele>
        <time>2026-08-29T07:55:46Z</time>
      </trkpt>
      <trkpt lat="50.658520571887493" lon="13.401032891124487">
        <ele>590</ele>
        <time>2026-08-29T07:55:47Z</time>
      </trkpt>
      <trkpt lat="50.658498527482152" lon="13.401045463979244">
        <ele>590</ele>
        <time>2026-08-29T07:55:48Z</time>
      </trkpt>
      <trkpt lat="50.658482937142253" lon="13.401052840054035">
        <ele>590</ele>
        <time>2026-08-29T07:55:49Z</time>
      </trkpt>
      <trkpt lat="50.658464832231402" lon="13.401057533919811">
        <ele>590</ele>
        <time>2026-08-29T07:55:50Z</time>
      </trkpt>
      <trkpt lat="50.658440440893173" lon="13.40106725692749">
        <ele>590</ele>
        <time>2026-08-29T07:55:51Z</time>
      </trkpt>
      <trkpt lat="50.658420994877815" lon="13.401069939136505">
        <ele>589</ele>
        <time>2026-08-29T07:55:52Z</time>
      </trkpt>
      <trkpt lat="50.65840121358633" lon="13.401069771498442">
        <ele>589</ele>
        <time>2026-08-29T07:55:53Z</time>
      </trkpt>
      <trkpt lat="50.658391322940588" lon="13.401063568890095">
        <ele>590</ele>
        <time>2026-08-29T07:55:54Z</time>
      </trkpt>
      <trkpt lat="50.658377828076482" lon="13.401066167280078">
        <ele>590</ele>
        <time>2026-08-29T07:55:55Z</time>
      </trkpt>
      <trkpt lat="50.658360477536917" lon="13.401065161451697">
        <ele>590</ele>
        <time>2026-08-29T07:55:56Z</time>
      </trkpt>
      <trkpt lat="50.658339522778988" lon="13.401061305776238">
        <ele>590</ele>
        <time>2026-08-29T07:55:57Z</time>
      </trkpt>
      <trkpt lat="50.658321166411042" lon="13.401055857539177">
        <ele>591</ele>
        <time>2026-08-29T07:55:58Z</time>
      </trkpt>
      <trkpt lat="50.658302307128906" lon="13.401055103167892">
        <ele>590</ele>
        <time>2026-08-29T07:55:59Z</time>
      </trkpt>
      <trkpt lat="50.658283699303865" lon="13.401050576940179">
        <ele>590</ele>
        <time>2026-08-29T07:56:00Z</time>
      </trkpt>
      <trkpt lat="50.658258050680161" lon="13.401046050712466">
        <ele>591</ele>
        <time>2026-08-29T07:56:01Z</time>
      </trkpt>
      <trkpt lat="50.658232402056456" lon="13.401036579161882">
        <ele>591</ele>
        <time>2026-08-29T07:56:02Z</time>
      </trkpt>
      <trkpt lat="50.65820625051856" lon="13.40102962218225">
        <ele>591</ele>
        <time>2026-08-29T07:56:03Z</time>
      </trkpt>
      <trkpt lat="50.658192085102201" lon="13.401019144803286">
        <ele>591</ele>
        <time>2026-08-29T07:56:04Z</time>
      </trkpt>
      <trkpt lat="50.658175740391016" lon="13.401009757071733">
        <ele>592</ele>
        <time>2026-08-29T07:56:05Z</time>
      </trkpt>
      <trkpt lat="50.658158892765641" lon="13.400999614968896">
        <ele>592</ele>
        <time>2026-08-29T07:56:06Z</time>
      </trkpt>
      <trkpt lat="50.658144308254123" lon="13.400997435674071">
        <ele>593</ele>
        <time>2026-08-29T07:56:07Z</time>
      </trkpt>
      <trkpt lat="50.658126957714558" lon="13.400996513664722">
        <ele>593</ele>
        <time>2026-08-29T07:56:08Z</time>
      </trkpt>
      <trkpt lat="50.658114301040769" lon="13.400992071256042">
        <ele>594</ele>
        <time>2026-08-29T07:56:09Z</time>
      </trkpt>
      <trkpt lat="50.658105835318565" lon="13.400983437895775">
        <ele>595</ele>
        <time>2026-08-29T07:56:10Z</time>
      </trkpt>
      <trkpt lat="50.658097621053457" lon="13.400976732373238">
        <ele>595</ele>
        <time>2026-08-29T07:56:11Z</time>
      </trkpt>
      <trkpt lat="50.658085215836763" lon="13.400973211973906">
        <ele>596</ele>
        <time>2026-08-29T07:56:12Z</time>
      </trkpt>
      <trkpt lat="50.65806794911623" lon="13.400964494794607">
        <ele>596</ele>
        <time>2026-08-29T07:56:13Z</time>
      </trkpt>
      <trkpt lat="50.658055879175663" lon="13.400952005758882">
        <ele>597</ele>
        <time>2026-08-29T07:56:14Z</time>
      </trkpt>
      <trkpt lat="50.658046072348952" lon="13.400945048779249">
        <ele>597</ele>
        <time>2026-08-29T07:56:15Z</time>
      </trkpt>
      <trkpt lat="50.658027967438102" lon="13.400938678532839">
        <ele>597</ele>
        <time>2026-08-29T07:56:16Z</time>
      </trkpt>
      <trkpt lat="50.65801371820271" lon="13.400931805372238">
        <ele>597</ele>
        <time>2026-08-29T07:56:17Z</time>
      </trkpt>
      <trkpt lat="50.657997373491526" lon="13.400904899463058">
        <ele>597</ele>
        <time>2026-08-29T07:56:18Z</time>
      </trkpt>
      <trkpt lat="50.657984968274832" lon="13.400890482589602">
        <ele>597</ele>
        <time>2026-08-29T07:56:19Z</time>
      </trkpt>
      <trkpt lat="50.657979268580675" lon="13.400875562801957">
        <ele>598</ele>
        <time>2026-08-29T07:56:20Z</time>
      </trkpt>
      <trkpt lat="50.657965941354632" lon="13.40085125528276">
        <ele>598</ele>
        <time>2026-08-29T07:56:21Z</time>
      </trkpt>
      <trkpt lat="50.657948590815067" lon="13.400827115401626">
        <ele>598</ele>
        <time>2026-08-29T07:56:22Z</time>
      </trkpt>
      <trkpt lat="50.657932665199041" lon="13.40081705711782">
        <ele>598</ele>
        <time>2026-08-29T07:56:23Z</time>
      </trkpt>
      <trkpt lat="50.657917493954301" lon="13.400801802054048">
        <ele>598</ele>
        <time>2026-08-29T07:56:24Z</time>
      </trkpt>
      <trkpt lat="50.657904418185353" lon="13.400791576132178">
        <ele>598</ele>
        <time>2026-08-29T07:56:25Z</time>
      </trkpt>
      <trkpt lat="50.657893856987357" lon="13.400774141773582">
        <ele>598</ele>
        <time>2026-08-29T07:56:26Z</time>
      </trkpt>
      <trkpt lat="50.657884385436773" lon="13.400758467614651">
        <ele>599</ele>
        <time>2026-08-29T07:56:27Z</time>
      </trkpt>
      <trkpt lat="50.657877847552299" lon="13.4007369261235">
        <ele>599</ele>
        <time>2026-08-29T07:56:28Z</time>
      </trkpt>
      <trkpt lat="50.657868292182684" lon="13.40071496553719">
        <ele>599</ele>
        <time>2026-08-29T07:56:29Z</time>
      </trkpt>
      <trkpt lat="50.657856808975339" lon="13.400694262236357">
        <ele>600</ele>
        <time>2026-08-29T07:56:30Z</time>
      </trkpt>
      <trkpt lat="50.657850774005055" lon="13.400666601955891">
        <ele>599</ele>
        <time>2026-08-29T07:56:31Z</time>
      </trkpt>
      <trkpt lat="50.657844739034772" lon="13.400646988302469">
        <ele>600</ele>
        <time>2026-08-29T07:56:32Z</time>
      </trkpt>
      <trkpt lat="50.657832501456141" lon="13.400623938068748">
        <ele>600</ele>
        <time>2026-08-29T07:56:33Z</time>
      </trkpt>
      <trkpt lat="50.657828645780683" lon="13.400603653863072">
        <ele>600</ele>
        <time>2026-08-29T07:56:34Z</time>
      </trkpt>
      <trkpt lat="50.657826298847795" lon="13.400585548952222">
        <ele>601</ele>
        <time>2026-08-29T07:56:35Z</time>
      </trkpt>
      <trkpt lat="50.657825795933604" lon="13.400565097108483">
        <ele>601</ele>
        <time>2026-08-29T07:56:36Z</time>
      </trkpt>
      <trkpt lat="50.657819593325257" lon="13.400546070188284">
        <ele>602</ele>
        <time>2026-08-29T07:56:37Z</time>
      </trkpt>
      <trkpt lat="50.657812720164657" lon="13.400534838438034">
        <ele>603</ele>
        <time>2026-08-29T07:56:38Z</time>
      </trkpt>
      <trkpt lat="50.657801488414407" lon="13.400507597252727">
        <ele>603</ele>
        <time>2026-08-29T07:56:39Z</time>
      </trkpt>
      <trkpt lat="50.657793693244457" lon="13.400489324703813">
        <ele>603</ele>
        <time>2026-08-29T07:56:40Z</time>
      </trkpt>
      <trkpt lat="50.65778162330389" lon="13.400477673858404">
        <ele>604</ele>
        <time>2026-08-29T07:56:41Z</time>
      </trkpt>
      <trkpt lat="50.657776510342956" lon="13.400453450158238">
        <ele>604</ele>
        <time>2026-08-29T07:56:42Z</time>
      </trkpt>
      <trkpt lat="50.657768128439784" lon="13.400430651381612">
        <ele>604</ele>
        <time>2026-08-29T07:56:43Z</time>
      </trkpt>
      <trkpt lat="50.657766787335277" lon="13.400417491793633">
        <ele>605</ele>
        <time>2026-08-29T07:56:44Z</time>
      </trkpt>
      <trkpt lat="50.657759411260486" lon="13.400397710502148">
        <ele>605</ele>
        <time>2026-08-29T07:56:45Z</time>
      </trkpt>
      <trkpt lat="50.657755639404058" lon="13.400375414639711">
        <ele>606</ele>
        <time>2026-08-29T07:56:46Z</time>
      </trkpt>
      <trkpt lat="50.65775329247117" lon="13.400348173454404">
        <ele>606</ele>
        <time>2026-08-29T07:56:47Z</time>
      </trkpt>
      <trkpt lat="50.657752119004726" lon="13.40032646432519">
        <ele>607</ele>
        <time>2026-08-29T07:56:48Z</time>
      </trkpt>
      <trkpt lat="50.65775035880506" lon="13.400307269766927">
        <ele>607</ele>
        <time>2026-08-29T07:56:49Z</time>
      </trkpt>
      <trkpt lat="50.657747592777014" lon="13.40029327198863">
        <ele>608</ele>
        <time>2026-08-29T07:56:50Z</time>
      </trkpt>
      <trkpt lat="50.657748598605394" lon="13.400268713012338">
        <ele>608</ele>
        <time>2026-08-29T07:56:51Z</time>
      </trkpt>
      <trkpt lat="50.657749939709902" lon="13.400240549817681">
        <ele>609</ele>
        <time>2026-08-29T07:56:52Z</time>
      </trkpt>
      <trkpt lat="50.657747089862823" lon="13.400209369137883">
        <ele>609</ele>
        <time>2026-08-29T07:56:53Z</time>
      </trkpt>
      <trkpt lat="50.657746000215411" lon="13.400174668058753">
        <ele>609</ele>
        <time>2026-08-29T07:56:54Z</time>
      </trkpt>
      <trkpt lat="50.65774935297668" lon="13.400149689987302">
        <ele>609</ele>
        <time>2026-08-29T07:56:55Z</time>
      </trkpt>
      <trkpt lat="50.657748933881521" lon="13.400113815441728">
        <ele>610</ele>
        <time>2026-08-29T07:56:56Z</time>
      </trkpt>
      <trkpt lat="50.65775035880506" lon="13.400080371648073">
        <ele>610</ele>
        <time>2026-08-29T07:56:57Z</time>
      </trkpt>
      <trkpt lat="50.657753711566329" lon="13.400050112977624">
        <ele>610</ele>
        <time>2026-08-29T07:56:58Z</time>
      </trkpt>
      <trkpt lat="50.657755807042122" lon="13.400017758831382">
        <ele>611</ele>
        <time>2026-08-29T07:56:59Z</time>
      </trkpt>
      <trkpt lat="50.657757818698883" lon="13.399984231218696">
        <ele>611</ele>
        <time>2026-08-29T07:57:00Z</time>
      </trkpt>
      <trkpt lat="50.657758573070168" lon="13.399951877072453">
        <ele>611</ele>
        <time>2026-08-29T07:57:01Z</time>
      </trkpt>
      <trkpt lat="50.657756309956312" lon="13.399927150458097">
        <ele>612</ele>
        <time>2026-08-29T07:57:02Z</time>
      </trkpt>
      <trkpt lat="50.657756058499217" lon="13.399896053597331">
        <ele>612</ele>
        <time>2026-08-29T07:57:03Z</time>
      </trkpt>
      <trkpt lat="50.657757734879851" lon="13.399865962564945">
        <ele>612</ele>
        <time>2026-08-29T07:57:04Z</time>
      </trkpt>
      <trkpt lat="50.657758573070168" lon="13.39984517544508">
        <ele>613</ele>
        <time>2026-08-29T07:57:05Z</time>
      </trkpt>
      <trkpt lat="50.657760081812739" lon="13.399823801591992">
        <ele>614</ele>
        <time>2026-08-29T07:57:06Z</time>
      </trkpt>
      <trkpt lat="50.657763350754976" lon="13.399807708337903">
        <ele>615</ele>
        <time>2026-08-29T07:57:07Z</time>
      </trkpt>
      <trkpt lat="50.657771397382021" lon="13.399792537093163">
        <ele>615</ele>
        <time>2026-08-29T07:57:08Z</time>
      </trkpt>
      <trkpt lat="50.657776510342956" lon="13.399772755801678">
        <ele>615</ele>
        <time>2026-08-29T07:57:09Z</time>
      </trkpt>
      <trkpt lat="50.65777818672359" lon="13.399752220138907">
        <ele>616</ele>
        <time>2026-08-29T07:57:10Z</time>
      </trkpt>
      <trkpt lat="50.657776845619082" lon="13.39972447603941">
        <ele>616</ele>
        <time>2026-08-29T07:57:11Z</time>
      </trkpt>
      <trkpt lat="50.657782461494207" lon="13.399701258167624">
        <ele>616</ele>
        <time>2026-08-29T07:57:12Z</time>
      </trkpt>
      <trkpt lat="50.65778941847384" lon="13.399682231247425">
        <ele>616</ele>
        <time>2026-08-29T07:57:13Z</time>
      </trkpt>
      <trkpt lat="50.657793190330267" lon="13.399658091366291">
        <ele>616</ele>
        <time>2026-08-29T07:57:14Z</time>
      </trkpt>
      <trkpt lat="50.657800314947963" lon="13.399627162143588">
        <ele>616</ele>
        <time>2026-08-29T07:57:15Z</time>
      </trkpt>
      <trkpt lat="50.657807355746627" lon="13.399596903473139">
        <ele>616</ele>
        <time>2026-08-29T07:57:16Z</time>
      </trkpt>
      <trkpt lat="50.657808110117912" lon="13.399563124403358">
        <ele>616</ele>
        <time>2026-08-29T07:57:17Z</time>
      </trkpt>
      <trkpt lat="50.657803080976009" lon="13.399532362818718">
        <ele>616</ele>
        <time>2026-08-29T07:57:18Z</time>
      </trkpt>
      <trkpt lat="50.657801572233438" lon="13.399505876004696">
        <ele>616</ele>
        <time>2026-08-29T07:57:19Z</time>
      </trkpt>
      <trkpt lat="50.657796962186694" lon="13.399475114420056">
        <ele>617</ele>
        <time>2026-08-29T07:57:20Z</time>
      </trkpt>
      <trkpt lat="50.657795956358314" lon="13.399452567100525">
        <ele>617</ele>
        <time>2026-08-29T07:57:21Z</time>
      </trkpt>
      <trkpt lat="50.657791011035442" lon="13.399423062801361">
        <ele>617</ele>
        <time>2026-08-29T07:57:22Z</time>
      </trkpt>
      <trkpt lat="50.657786652445793" lon="13.399404371157289">
        <ele>617</ele>
        <time>2026-08-29T07:57:23Z</time>
      </trkpt>
      <trkpt lat="50.657788664102554" lon="13.399383584037423">
        <ele>617</ele>
        <time>2026-08-29T07:57:24Z</time>
      </trkpt>
      <trkpt lat="50.657786652445793" lon="13.399362210184336">
        <ele>618</ele>
        <time>2026-08-29T07:57:25Z</time>
      </trkpt>
      <trkpt lat="50.657784221693873" lon="13.399338992312551">
        <ele>618</ele>
        <time>2026-08-29T07:57:26Z</time>
      </trkpt>
      <trkpt lat="50.657783299684525" lon="13.39931309223175">
        <ele>619</ele>
        <time>2026-08-29T07:57:27Z</time>
      </trkpt>
      <trkpt lat="50.657783802598715" lon="13.399302950128913">
        <ele>618</ele>
        <time>2026-08-29T07:57:28Z</time>
      </trkpt>
      <trkpt lat="50.657787658274174" lon="13.399278642609715">
        <ele>618</ele>
        <time>2026-08-29T07:57:29Z</time>
      </trkpt>
      <trkpt lat="50.657787322998047" lon="13.399248970672488">
        <ele>618</ele>
        <time>2026-08-29T07:57:30Z</time>
      </trkpt>
      <trkpt lat="50.65778749063611" lon="13.399226758629084">
        <ele>618</ele>
        <time>2026-08-29T07:57:31Z</time>
      </trkpt>
      <trkpt lat="50.657790005207062" lon="13.399206139147282">
        <ele>619</ele>
        <time>2026-08-29T07:57:32Z</time>
      </trkpt>
      <trkpt lat="50.657792268320918" lon="13.399180239066482">
        <ele>619</ele>
        <time>2026-08-29T07:57:33Z</time>
      </trkpt>
      <trkpt lat="50.65778992138803" lon="13.399159200489521">
        <ele>620</ele>
        <time>2026-08-29T07:57:34Z</time>
      </trkpt>
      <trkpt lat="50.657784976065159" lon="13.399135731160641">
        <ele>620</ele>
        <time>2026-08-29T07:57:35Z</time>
      </trkpt>
      <trkpt lat="50.657785311341286" lon="13.399110333994031">
        <ele>620</ele>
        <time>2026-08-29T07:57:36Z</time>
      </trkpt>
      <trkpt lat="50.657783802598715" lon="13.399086697027087">
        <ele>621</ele>
        <time>2026-08-29T07:57:37Z</time>
      </trkpt>
      <trkpt lat="50.657784221693873" lon="13.399072447791696">
        <ele>621</ele>
        <time>2026-08-29T07:57:38Z</time>
      </trkpt>
      <trkpt lat="50.657784724608064" lon="13.399056438356638">
        <ele>620</ele>
        <time>2026-08-29T07:57:39Z</time>
      </trkpt>
      <trkpt lat="50.657788831740618" lon="13.399038752540946">
        <ele>620</ele>
        <time>2026-08-29T07:57:40Z</time>
      </trkpt>
      <trkpt lat="50.65778992138803" lon="13.399016037583351">
        <ele>620</ele>
        <time>2026-08-29T07:57:41Z</time>
      </trkpt>
      <trkpt lat="50.657790089026093" lon="13.398989886045456">
        <ele>621</ele>
        <time>2026-08-29T07:57:42Z</time>
      </trkpt>
      <trkpt lat="50.657792771235108" lon="13.39896616525948">
        <ele>621</ele>
        <time>2026-08-29T07:57:43Z</time>
      </trkpt>
      <trkpt lat="50.657795118167996" lon="13.39894219301641">
        <ele>621</ele>
        <time>2026-08-29T07:57:44Z</time>
      </trkpt>
      <trkpt lat="50.657799560576677" lon="13.398912688717246">
        <ele>621</ele>
        <time>2026-08-29T07:57:45Z</time>
      </trkpt>
      <trkpt lat="50.657799309119582" lon="13.398890560492873">
        <ele>621</ele>
        <time>2026-08-29T07:57:46Z</time>
      </trkpt>
      <trkpt lat="50.657800398766994" lon="13.398860888555646">
        <ele>621</ele>
        <time>2026-08-29T07:57:47Z</time>
      </trkpt>
      <trkpt lat="50.657796207815409" lon="13.398829456418753">
        <ele>621</ele>
        <time>2026-08-29T07:57:48Z</time>
      </trkpt>
      <trkpt lat="50.657797800377011" lon="13.398802801966667">
        <ele>621</ele>
        <time>2026-08-29T07:57:49Z</time>
      </trkpt>
      <trkpt lat="50.657798387110233" lon="13.398773297667503">
        <ele>621</ele>
        <time>2026-08-29T07:57:50Z</time>
      </trkpt>
      <trkpt lat="50.657799057662487" lon="13.398747313767672">
        <ele>621</ele>
        <time>2026-08-29T07:57:51Z</time>
      </trkpt>
      <trkpt lat="50.657802913337946" lon="13.398720994591713">
        <ele>621</ele>
        <time>2026-08-29T07:57:52Z</time>
      </trkpt>
      <trkpt lat="50.657806098461151" lon="13.398702219128609">
        <ele>621</ele>
        <time>2026-08-29T07:57:53Z</time>
      </trkpt>
      <trkpt lat="50.657807355746627" lon="13.39868520386517">
        <ele>621</ele>
        <time>2026-08-29T07:57:54Z</time>
      </trkpt>
      <trkpt lat="50.657801572233438" lon="13.398663243278861">
        <ele>621</ele>
        <time>2026-08-29T07:57:55Z</time>
      </trkpt>
      <trkpt lat="50.657796710729599" lon="13.398644048720598">
        <ele>621</ele>
        <time>2026-08-29T07:57:56Z</time>
      </trkpt>
      <trkpt lat="50.657793525606394" lon="13.398623093962669">
        <ele>622</ele>
        <time>2026-08-29T07:57:57Z</time>
      </trkpt>
      <trkpt lat="50.657793190330267" lon="13.398594344034791">
        <ele>622</ele>
        <time>2026-08-29T07:57:58Z</time>
      </trkpt>
      <trkpt lat="50.657790172845125" lon="13.398573640733957">
        <ele>623</ele>
        <time>2026-08-29T07:57:59Z</time>
      </trkpt>
      <trkpt lat="50.657783802598715" lon="13.398555954918265">
        <ele>623</ele>
        <time>2026-08-29T07:58:00Z</time>
      </trkpt>
      <trkpt lat="50.657778941094875" lon="13.398540867492557">
        <ele>624</ele>
        <time>2026-08-29T07:58:01Z</time>
      </trkpt>
      <trkpt lat="50.657772906124592" lon="13.398516559973359">
        <ele>624</ele>
        <time>2026-08-29T07:58:02Z</time>
      </trkpt>
      <trkpt lat="50.657768212258816" lon="13.398502394556999">
        <ele>624</ele>
        <time>2026-08-29T07:58:03Z</time>
      </trkpt>
      <trkpt lat="50.657766116783023" lon="13.398488396778703">
        <ele>624</ele>
        <time>2026-08-29T07:58:04Z</time>
      </trkpt>
      <trkpt lat="50.657759578898549" lon="13.398470291867852">
        <ele>624</ele>
        <time>2026-08-29T07:58:05Z</time>
      </trkpt>
      <trkpt lat="50.65775228664279" lon="13.398449588567019">
        <ele>625</ele>
        <time>2026-08-29T07:58:06Z</time>
      </trkpt>
      <trkpt lat="50.657745329663157" lon="13.398429723456502">
        <ele>625</ele>
        <time>2026-08-29T07:58:07Z</time>
      </trkpt>
      <trkpt lat="50.657736361026764" lon="13.398407427594066">
        <ele>625</ele>
        <time>2026-08-29T07:58:08Z</time>
      </trkpt>
      <trkpt lat="50.657724961638451" lon="13.398388065397739">
        <ele>625</ele>
        <time>2026-08-29T07:58:09Z</time>
      </trkpt>
      <trkpt lat="50.657716412097216" lon="13.398370714858174">
        <ele>625</ele>
        <time>2026-08-29T07:58:10Z</time>
      </trkpt>
      <trkpt lat="50.657711047679186" lon="13.398349173367023">
        <ele>625</ele>
        <time>2026-08-29T07:58:11Z</time>
      </trkpt>
      <trkpt lat="50.657710460945964" lon="13.398324195295572">
        <ele>625</ele>
        <time>2026-08-29T07:58:12Z</time>
      </trkpt>
      <trkpt lat="50.657703671604395" lon="13.398311790078878">
        <ele>626</ele>
        <time>2026-08-29T07:58:13Z</time>
      </trkpt>
      <trkpt lat="50.657696211710572" lon="13.398298379033804">
        <ele>626</ele>
        <time>2026-08-29T07:58:14Z</time>
      </trkpt>
      <trkpt lat="50.657682046294212" lon="13.39827373623848">
        <ele>626</ele>
        <time>2026-08-29T07:58:15Z</time>
      </trkpt>
      <trkpt lat="50.657660337164998" lon="13.3982537034899">
        <ele>626</ele>
        <time>2026-08-29T07:58:16Z</time>
      </trkpt>
      <trkpt lat="50.65764281898737" lon="13.398237274959683">
        <ele>626</ele>
        <time>2026-08-29T07:58:17Z</time>
      </trkpt>
      <trkpt lat="50.657626558095217" lon="13.398215984925628">
        <ele>627</ele>
        <time>2026-08-29T07:58:18Z</time>
      </trkpt>
      <trkpt lat="50.657615158706903" lon="13.398200143128633">
        <ele>627</ele>
        <time>2026-08-29T07:58:19Z</time>
      </trkpt>
      <trkpt lat="50.657604932785034" lon="13.398177344352007">
        <ele>627</ele>
        <time>2026-08-29T07:58:20Z</time>
      </trkpt>
      <trkpt lat="50.657590935006738" lon="13.398156892508268">
        <ele>627</ele>
        <time>2026-08-29T07:58:21Z</time>
      </trkpt>
      <trkpt lat="50.65757785923779" lon="13.398129818961024">
        <ele>627</ele>
        <time>2026-08-29T07:58:22Z</time>
      </trkpt>
      <trkpt lat="50.657562771812081" lon="13.398106768727303">
        <ele>627</ele>
        <time>2026-08-29T07:58:23Z</time>
      </trkpt>
      <trkpt lat="50.657548354938626" lon="13.398089166730642">
        <ele>627</ele>
        <time>2026-08-29T07:58:24Z</time>
      </trkpt>
      <trkpt lat="50.65753385424614" lon="13.398068463429809">
        <ele>627</ele>
        <time>2026-08-29T07:58:25Z</time>
      </trkpt>
      <trkpt lat="50.657519772648811" lon="13.398048179224133">
        <ele>627</ele>
        <time>2026-08-29T07:58:26Z</time>
      </trkpt>
      <trkpt lat="50.657504601404071" lon="13.398031750693917">
        <ele>627</ele>
        <time>2026-08-29T07:58:27Z</time>
      </trkpt>
      <trkpt lat="50.657493621110916" lon="13.398011885583401">
        <ele>627</ele>
        <time>2026-08-29T07:58:28Z</time>
      </trkpt>
      <trkpt lat="50.657480210065842" lon="13.39799084700644">
        <ele>627</ele>
        <time>2026-08-29T07:58:29Z</time>
      </trkpt>
      <trkpt lat="50.657456908375025" lon="13.397977938875556">
        <ele>627</ele>
        <time>2026-08-29T07:58:30Z</time>
      </trkpt>
      <trkpt lat="50.657438971102238" lon="13.397961175069213">
        <ele>627</ele>
        <time>2026-08-29T07:58:31Z</time>
      </trkpt>
      <trkpt lat="50.657419105991721" lon="13.397937035188079">
        <ele>627</ele>
        <time>2026-08-29T07:58:32Z</time>
      </trkpt>
      <trkpt lat="50.657393541187048" lon="13.397907447069883">
        <ele>627</ele>
        <time>2026-08-29T07:58:33Z</time>
      </trkpt>
      <trkpt lat="50.657369485124946" lon="13.397889425978065">
        <ele>627</ele>
        <time>2026-08-29T07:58:34Z</time>
      </trkpt>
      <trkpt lat="50.657346770167351" lon="13.397864699363708">
        <ele>627</ele>
        <time>2026-08-29T07:58:35Z</time>
      </trkpt>
      <trkpt lat="50.657332772389054" lon="13.397835697978735">
        <ele>627</ele>
        <time>2026-08-29T07:58:36Z</time>
      </trkpt>
      <trkpt lat="50.657316092401743" lon="13.397818682715297">
        <ele>627</ele>
        <time>2026-08-29T07:58:37Z</time>
      </trkpt>
      <trkpt lat="50.657298490405083" lon="13.397806445136666">
        <ele>627</ele>
        <time>2026-08-29T07:58:38Z</time>
      </trkpt>
      <trkpt lat="50.657277535647154" lon="13.397784233093262">
        <ele>627</ele>
        <time>2026-08-29T07:58:39Z</time>
      </trkpt>
      <trkpt lat="50.657264208421111" lon="13.397768056020141">
        <ele>627</ele>
        <time>2026-08-29T07:58:40Z</time>
      </trkpt>
      <trkpt lat="50.657253647223115" lon="13.397747352719307">
        <ele>627</ele>
        <time>2026-08-29T07:58:41Z</time>
      </trkpt>
      <trkpt lat="50.657238978892565" lon="13.397732768207788">
        <ele>627</ele>
        <time>2026-08-29T07:58:42Z</time>
      </trkpt>
      <trkpt lat="50.657226489856839" lon="13.397710891440511">
        <ele>627</ele>
        <time>2026-08-29T07:58:43Z</time>
      </trkpt>
      <trkpt lat="50.657204864546657" lon="13.397692618891597">
        <ele>627</ele>
        <time>2026-08-29T07:58:44Z</time>
      </trkpt>
      <trkpt lat="50.657190699130297" lon="13.397677028551698">
        <ele>628</ele>
        <time>2026-08-29T07:58:45Z</time>
      </trkpt>
      <trkpt lat="50.657169576734304" lon="13.39765808545053">
        <ele>627</ele>
        <time>2026-08-29T07:58:46Z</time>
      </trkpt>
      <trkpt lat="50.657141329720616" lon="13.397644087672234">
        <ele>628</ele>
        <time>2026-08-29T07:58:47Z</time>
      </trkpt>
      <trkpt lat="50.65711660310626" lon="13.397628162056208">
        <ele>628</ele>
        <time>2026-08-29T07:58:48Z</time>
      </trkpt>
      <trkpt lat="50.657091373577714" lon="13.397603938356042">
        <ele>628</ele>
        <time>2026-08-29T07:58:49Z</time>
      </trkpt>
      <trkpt lat="50.657068071886897" lon="13.397583235055208">
        <ele>628</ele>
        <time>2026-08-29T07:58:50Z</time>
      </trkpt>
      <trkpt lat="50.657045524567366" lon="13.397564124315977">
        <ele>627</ele>
        <time>2026-08-29T07:58:51Z</time>
      </trkpt>
      <trkpt lat="50.6570247374475" lon="13.397540906444192">
        <ele>627</ele>
        <time>2026-08-29T07:58:52Z</time>
      </trkpt>
      <trkpt lat="50.65700713545084" lon="13.397516431286931">
        <ele>627</ele>
        <time>2026-08-29T07:58:53Z</time>
      </trkpt>
      <trkpt lat="50.65698710270226" lon="13.397499918937683">
        <ele>627</ele>
        <time>2026-08-29T07:58:54Z</time>
      </trkpt>
      <trkpt lat="50.656963968649507" lon="13.397476701065898">
        <ele>628</ele>
        <time>2026-08-29T07:58:55Z</time>
      </trkpt>
      <trkpt lat="50.656940918415785" lon="13.397458512336016">
        <ele>628</ele>
        <time>2026-08-29T07:58:56Z</time>
      </trkpt>
      <trkpt lat="50.656916778534651" lon="13.397438144311309">
        <ele>628</ele>
        <time>2026-08-29T07:58:57Z</time>
      </trkpt>
      <trkpt lat="50.656893979758024" lon="13.397417608648539">
        <ele>628</ele>
        <time>2026-08-29T07:58:58Z</time>
      </trkpt>
      <trkpt lat="50.656869672238827" lon="13.397389277815819">
        <ele>627</ele>
        <time>2026-08-29T07:58:59Z</time>
      </trkpt>
      <trkpt lat="50.656852992251515" lon="13.39736195281148">
        <ele>627</ele>
        <time>2026-08-29T07:59:00Z</time>
      </trkpt>
      <trkpt lat="50.656829858198762" lon="13.397337896749377">
        <ele>628</ele>
        <time>2026-08-29T07:59:01Z</time>
      </trkpt>
      <trkpt lat="50.656809909269214" lon="13.397310236468911">
        <ele>628</ele>
        <time>2026-08-29T07:59:02Z</time>
      </trkpt>
      <trkpt lat="50.65679213963449" lon="13.397280648350716">
        <ele>628</ele>
        <time>2026-08-29T07:59:03Z</time>
      </trkpt>
      <trkpt lat="50.656773783266544" lon="13.397250641137362">
        <ele>628</ele>
        <time>2026-08-29T07:59:04Z</time>
      </trkpt>
      <trkpt lat="50.656758528202772" lon="13.397227171808481">
        <ele>628</ele>
        <time>2026-08-29T07:59:05Z</time>
      </trkpt>
      <trkpt lat="50.656742099672556" lon="13.397208899259567">
        <ele>628</ele>
        <time>2026-08-29T07:59:06Z</time>
      </trkpt>
      <trkpt lat="50.656732628121972" lon="13.397196158766747">
        <ele>628</ele>
        <time>2026-08-29T07:59:07Z</time>
      </trkpt>
      <trkpt lat="50.656718462705612" lon="13.397186771035194">
        <ele>628</ele>
        <time>2026-08-29T07:59:08Z</time>
      </trkpt>
      <trkpt lat="50.656706979498267" lon="13.397181322798133">
        <ele>628</ele>
        <time>2026-08-29T07:59:09Z</time>
      </trkpt>
      <trkpt lat="50.65669390372932" lon="13.397169504314661">
        <ele>628</ele>
        <time>2026-08-29T07:59:10Z</time>
      </trkpt>
      <trkpt lat="50.656686192378402" lon="13.397151902318001">
        <ele>629</ele>
        <time>2026-08-29T07:59:11Z</time>
      </trkpt>
      <trkpt lat="50.656672110781074" lon="13.39713966473937">
        <ele>629</ele>
        <time>2026-08-29T07:59:12Z</time>
      </trkpt>
      <trkpt lat="50.656657610088587" lon="13.397123822942376">
        <ele>629</ele>
        <time>2026-08-29T07:59:13Z</time>
      </trkpt>
      <trkpt lat="50.656647300347686" lon="13.397108735516667">
        <ele>630</ele>
        <time>2026-08-29T07:59:14Z</time>
      </trkpt>
      <trkpt lat="50.65663137473166" lon="13.397088199853897">
        <ele>630</ele>
        <time>2026-08-29T07:59:15Z</time>
      </trkpt>
      <trkpt lat="50.656616538763046" lon="13.397068334743381">
        <ele>630</ele>
        <time>2026-08-29T07:59:16Z</time>
      </trkpt>
      <trkpt lat="50.656597847118974" lon="13.39705366641283">
        <ele>630</ele>
        <time>2026-08-29T07:59:17Z</time>
      </trkpt>
      <trkpt lat="50.656580328941345" lon="13.397040423005819">
        <ele>630</ele>
        <time>2026-08-29T07:59:18Z</time>
      </trkpt>
      <trkpt lat="50.656560966745019" lon="13.397024078294635">
        <ele>631</ele>
        <time>2026-08-29T07:59:19Z</time>
      </trkpt>
      <trkpt lat="50.656541269272566" lon="13.397007146850228">
        <ele>631</ele>
        <time>2026-08-29T07:59:20Z</time>
      </trkpt>
      <trkpt lat="50.656525259837508" lon="13.396989209577441">
        <ele>631</ele>
        <time>2026-08-29T07:59:21Z</time>
      </trkpt>
      <trkpt lat="50.656512770801783" lon="13.396963980048895">
        <ele>631</ele>
        <time>2026-08-29T07:59:22Z</time>
      </trkpt>
      <trkpt lat="50.656497934833169" lon="13.396941684186459">
        <ele>631</ele>
        <time>2026-08-29T07:59:23Z</time>
      </trkpt>
      <trkpt lat="50.656480500474572" lon="13.396921148523688">
        <ele>630</ele>
        <time>2026-08-29T07:59:24Z</time>
      </trkpt>
      <trkpt lat="50.656464323401451" lon="13.396908910945058">
        <ele>630</ele>
        <time>2026-08-29T07:59:25Z</time>
      </trkpt>
      <trkpt lat="50.656453259289265" lon="13.3968894649297">
        <ele>630</ele>
        <time>2026-08-29T07:59:26Z</time>
      </trkpt>
      <trkpt lat="50.656436160206795" lon="13.396868845447898">
        <ele>630</ele>
        <time>2026-08-29T07:59:27Z</time>
      </trkpt>
      <trkpt lat="50.656416295096278" lon="13.39685233309865">
        <ele>630</ele>
        <time>2026-08-29T07:59:28Z</time>
      </trkpt>
      <trkpt lat="50.656396010890603" lon="13.396840430796146">
        <ele>630</ele>
        <time>2026-08-29T07:59:29Z</time>
      </trkpt>
      <trkpt lat="50.656372793018818" lon="13.396822661161423">
        <ele>631</ele>
        <time>2026-08-29T07:59:30Z</time>
      </trkpt>
      <trkpt lat="50.656355861574411" lon="13.396800868213177">
        <ele>631</ele>
        <time>2026-08-29T07:59:31Z</time>
      </trkpt>
      <trkpt lat="50.6563357450068" lon="13.396777650341392">
        <ele>631</ele>
        <time>2026-08-29T07:59:32Z</time>
      </trkpt>
      <trkpt lat="50.656312191858888" lon="13.396753929555416">
        <ele>631</ele>
        <time>2026-08-29T07:59:33Z</time>
      </trkpt>
      <trkpt lat="50.656293500214815" lon="13.396728783845901">
        <ele>631</ele>
        <time>2026-08-29T07:59:34Z</time>
      </trkpt>
      <trkpt lat="50.656272880733013" lon="13.396710678935051">
        <ele>631</ele>
        <time>2026-08-29T07:59:35Z</time>
      </trkpt>
      <trkpt lat="50.656254440546036" lon="13.396700620651245">
        <ele>631</ele>
        <time>2026-08-29T07:59:36Z</time>
      </trkpt>
      <trkpt lat="50.656237928196788" lon="13.396687461063266">
        <ele>632</ele>
        <time>2026-08-29T07:59:37Z</time>
      </trkpt>
      <trkpt lat="50.656217643991113" lon="13.396658124402165">
        <ele>632</ele>
        <time>2026-08-29T07:59:38Z</time>
      </trkpt>
      <trkpt lat="50.656199790537357" lon="13.396639013662934">
        <ele>632</ele>
        <time>2026-08-29T07:59:39Z</time>
      </trkpt>
      <trkpt lat="50.656183278188109" lon="13.3966148737818">
        <ele>632</ele>
        <time>2026-08-29T07:59:40Z</time>
      </trkpt>
      <trkpt lat="50.656169112771749" lon="13.396593919023871">
        <ele>632</ele>
        <time>2026-08-29T07:59:41Z</time>
      </trkpt>
      <trkpt lat="50.656152768060565" lon="13.396577909588814">
        <ele>632</ele>
        <time>2026-08-29T07:59:42Z</time>
      </trkpt>
      <trkpt lat="50.656140446662903" lon="13.396553434431553">
        <ele>632</ele>
        <time>2026-08-29T07:59:43Z</time>
      </trkpt>
      <trkpt lat="50.656124521046877" lon="13.39653423987329">
        <ele>632</ele>
        <time>2026-08-29T07:59:44Z</time>
      </trkpt>
      <trkpt lat="50.65611002035439" lon="13.396514793857932">
        <ele>632</ele>
        <time>2026-08-29T07:59:45Z</time>
      </trkpt>
      <trkpt lat="50.656089233234525" lon="13.39649761095643">
        <ele>632</ele>
        <time>2026-08-29T07:59:46Z</time>
      </trkpt>
      <trkpt lat="50.656075738370419" lon="13.396478081122041">
        <ele>633</ele>
        <time>2026-08-29T07:59:47Z</time>
      </trkpt>
      <trkpt lat="50.656059812754393" lon="13.396458383649588">
        <ele>633</ele>
        <time>2026-08-29T07:59:48Z</time>
      </trkpt>
      <trkpt lat="50.656040450558066" lon="13.396434327587485">
        <ele>633</ele>
        <time>2026-08-29T07:59:49Z</time>
      </trkpt>
      <trkpt lat="50.65602351911366" lon="13.396410522982478">
        <ele>633</ele>
        <time>2026-08-29T07:59:50Z</time>
      </trkpt>
      <trkpt lat="50.65600398927927" lon="13.396384455263615">
        <ele>633</ele>
        <time>2026-08-29T07:59:51Z</time>
      </trkpt>
      <trkpt lat="50.655984962359071" lon="13.396363165229559">
        <ele>633</ele>
        <time>2026-08-29T07:59:52Z</time>
      </trkpt>
      <trkpt lat="50.655959816649556" lon="13.39633877389133">
        <ele>633</ele>
        <time>2026-08-29T07:59:53Z</time>
      </trkpt>
      <trkpt lat="50.655934335663915" lon="13.396312706172466">
        <ele>633</ele>
        <time>2026-08-29T07:59:54Z</time>
      </trkpt>
      <trkpt lat="50.655912375077605" lon="13.396288063377142">
        <ele>634</ele>
        <time>2026-08-29T07:59:55Z</time>
      </trkpt>
      <trkpt lat="50.65589452162385" lon="13.396261660382152">
        <ele>634</ele>
        <time>2026-08-29T07:59:56Z</time>
      </trkpt>
      <trkpt lat="50.655873231589794" lon="13.39623961597681">
        <ele>634</ele>
        <time>2026-08-29T07:59:57Z</time>
      </trkpt>
      <trkpt lat="50.655853869393468" lon="13.396223187446594">
        <ele>634</ele>
        <time>2026-08-29T07:59:58Z</time>
      </trkpt>
      <trkpt lat="50.655834339559078" lon="13.396206004545093">
        <ele>634</ele>
        <time>2026-08-29T07:59:59Z</time>
      </trkpt>
      <trkpt lat="50.655814977362752" lon="13.396188654005527">
        <ele>635</ele>
        <time>2026-08-29T08:00:00Z</time>
      </trkpt>
      <trkpt lat="50.655790334567428" lon="13.396168453618884">
        <ele>635</ele>
        <time>2026-08-29T08:00:01Z</time>
      </trkpt>
      <trkpt lat="50.65576896071434" lon="13.396149594336748">
        <ele>635</ele>
        <time>2026-08-29T08:00:02Z</time>
      </trkpt>
      <trkpt lat="50.655750939622521" lon="13.396128052845597">
        <ele>635</ele>
        <time>2026-08-29T08:00:03Z</time>
      </trkpt>
      <trkpt lat="50.655728979036212" lon="13.396114222705364">
        <ele>635</ele>
        <time>2026-08-29T08:00:04Z</time>
      </trkpt>
      <trkpt lat="50.65571422688663" lon="13.396106092259288">
        <ele>636</ele>
        <time>2026-08-29T08:00:05Z</time>
      </trkpt>
      <trkpt lat="50.655700229108334" lon="13.396093687042594">
        <ele>636</ele>
        <time>2026-08-29T08:00:06Z</time>
      </trkpt>
      <trkpt lat="50.655674412846565" lon="13.39608077891171">
        <ele>637</ele>
        <time>2026-08-29T08:00:07Z</time>
      </trkpt>
      <trkpt lat="50.655647506937385" lon="13.396073402836919">
        <ele>637</ele>
        <time>2026-08-29T08:00:08Z</time>
      </trkpt>
      <trkpt lat="50.655624289065599" lon="13.396059907972813">
        <ele>637</ele>
        <time>2026-08-29T08:00:09Z</time>
      </trkpt>
      <trkpt lat="50.655601071193814" lon="13.396042389795184">
        <ele>637</ele>
        <time>2026-08-29T08:00:10Z</time>
      </trkpt>
      <trkpt lat="50.655579026788473" lon="13.396022440865636">
        <ele>637</ele>
        <time>2026-08-29T08:00:11Z</time>
      </trkpt>
      <trkpt lat="50.655559999868274" lon="13.396005425602198">
        <ele>638</ele>
        <time>2026-08-29T08:00:12Z</time>
      </trkpt>
      <trkpt lat="50.655543906614184" lon="13.395977513864636">
        <ele>638</ele>
        <time>2026-08-29T08:00:13Z</time>
      </trkpt>
      <trkpt lat="50.655527310445905" lon="13.395951949059963">
        <ele>638</ele>
        <time>2026-08-29T08:00:14Z</time>
      </trkpt>
      <trkpt lat="50.65550409257412" lon="13.395919678732753">
        <ele>638</ele>
        <time>2026-08-29T08:00:15Z</time>
      </trkpt>
      <trkpt lat="50.655487747862935" lon="13.395896209403872">
        <ele>639</ele>
        <time>2026-08-29T08:00:16Z</time>
      </trkpt>
      <trkpt lat="50.655473582446575" lon="13.39586678892374">
        <ele>639</ele>
        <time>2026-08-29T08:00:17Z</time>
      </trkpt>
      <trkpt lat="50.655460171401501" lon="13.395839044824243">
        <ele>639</ele>
        <time>2026-08-29T08:00:18Z</time>
      </trkpt>
      <trkpt lat="50.655448688194156" lon="13.395824963226914">
        <ele>639</ele>
        <time>2026-08-29T08:00:19Z</time>
      </trkpt>
      <trkpt lat="50.655430080369115" lon="13.395807445049286">
        <ele>639</ele>
        <time>2026-08-29T08:00:20Z</time>
      </trkpt>
      <trkpt lat="50.655409628525376" lon="13.395785568282008">
        <ele>639</ele>
        <time>2026-08-29T08:00:21Z</time>
      </trkpt>
      <trkpt lat="50.655389428138733" lon="13.395771067589521">
        <ele>639</ele>
        <time>2026-08-29T08:00:22Z</time>
      </trkpt>
      <trkpt lat="50.655380040407181" lon="13.395755561068654">
        <ele>640</ele>
        <time>2026-08-29T08:00:23Z</time>
      </trkpt>
      <trkpt lat="50.65536729991436" lon="13.395735109224916">
        <ele>640</ele>
        <time>2026-08-29T08:00:24Z</time>
      </trkpt>
      <trkpt lat="50.655355732887983" lon="13.395721949636936">
        <ele>639</ele>
        <time>2026-08-29T08:00:25Z</time>
      </trkpt>
      <trkpt lat="50.655345087870955" lon="13.395701413974166">
        <ele>640</ele>
        <time>2026-08-29T08:00:26Z</time>
      </trkpt>
      <trkpt lat="50.655337208881974" lon="13.395694205537438">
        <ele>640</ele>
        <time>2026-08-29T08:00:27Z</time>
      </trkpt>
      <trkpt lat="50.655327150598168" lon="13.395672244951129">
        <ele>641</ele>
        <time>2026-08-29T08:00:28Z</time>
      </trkpt>
      <trkpt lat="50.655319355428219" lon="13.39565321803093">
        <ele>642</ele>
        <time>2026-08-29T08:00:29Z</time>
      </trkpt>
      <trkpt lat="50.655309967696667" lon="13.395630419254303">
        <ele>641</ele>
        <time>2026-08-29T08:00:30Z</time>
      </trkpt>
      <trkpt lat="50.655299657955766" lon="13.39561072178185">
        <ele>642</ele>
        <time>2026-08-29T08:00:31Z</time>
      </trkpt>
      <trkpt lat="50.655285995453596" lon="13.395599154755473">
        <ele>642</ele>
        <time>2026-08-29T08:00:32Z</time>
      </trkpt>
      <trkpt lat="50.655276356264949" lon="13.395589599385858">
        <ele>643</ele>
        <time>2026-08-29T08:00:33Z</time>
      </trkpt>
      <trkpt lat="50.655263615772128" lon="13.395583564415574">
        <ele>643</ele>
        <time>2026-08-29T08:00:34Z</time>
      </trkpt>
      <trkpt lat="50.655253641307354" lon="13.395567554980516">
        <ele>644</ele>
        <time>2026-08-29T08:00:35Z</time>
      </trkpt>
      <trkpt lat="50.655241571366787" lon="13.395544840022922">
        <ele>644</ele>
        <time>2026-08-29T08:00:36Z</time>
      </trkpt>
      <trkpt lat="50.655231848359108" lon="13.395523549988866">
        <ele>644</ele>
        <time>2026-08-29T08:00:37Z</time>
      </trkpt>
      <trkpt lat="50.655222879722714" lon="13.395493542775512">
        <ele>644</ele>
        <time>2026-08-29T08:00:38Z</time>
      </trkpt>
      <trkpt lat="50.655210642144084" lon="13.395466888323426">
        <ele>644</ele>
        <time>2026-08-29T08:00:39Z</time>
      </trkpt>
      <trkpt lat="50.655203014612198" lon="13.39543285779655">
        <ele>645</ele>
        <time>2026-08-29T08:00:40Z</time>
      </trkpt>
      <trkpt lat="50.655187759548426" lon="13.395408298820257">
        <ele>645</ele>
        <time>2026-08-29T08:00:41Z</time>
      </trkpt>
      <trkpt lat="50.655173510313034" lon="13.395378291606903">
        <ele>645</ele>
        <time>2026-08-29T08:00:42Z</time>
      </trkpt>
      <trkpt lat="50.655153561383486" lon="13.395347027108073">
        <ele>645</ele>
        <time>2026-08-29T08:00:43Z</time>
      </trkpt>
      <trkpt lat="50.655134115368128" lon="13.395321294665337">
        <ele>645</ele>
        <time>2026-08-29T08:00:44Z</time>
      </trkpt>
      <trkpt lat="50.65511710010469" lon="13.395309476181865">
        <ele>646</ele>
        <time>2026-08-29T08:00:45Z</time>
      </trkpt>
      <trkpt lat="50.655100587755442" lon="13.395285839214921">
        <ele>646</ele>
        <time>2026-08-29T08:00:46Z</time>
      </trkpt>
      <trkpt lat="50.655087595805526" lon="13.395262369886041">
        <ele>646</ele>
        <time>2026-08-29T08:00:47Z</time>
      </trkpt>
      <trkpt lat="50.655081979930401" lon="13.395247282460332">
        <ele>646</ele>
        <time>2026-08-29T08:00:48Z</time>
      </trkpt>
      <trkpt lat="50.655072340741754" lon="13.395235044881701">
        <ele>646</ele>
        <time>2026-08-29T08:00:49Z</time>
      </trkpt>
      <trkpt lat="50.655057588592172" lon="13.395211743190885">
        <ele>647</ele>
        <time>2026-08-29T08:00:50Z</time>
      </trkpt>
      <trkpt lat="50.655046440660954" lon="13.39519489556551">
        <ele>647</ele>
        <time>2026-08-29T08:00:51Z</time>
      </trkpt>
      <trkpt lat="50.65502624027431" lon="13.395175533369184">
        <ele>648</ele>
        <time>2026-08-29T08:00:52Z</time>
      </trkpt>
      <trkpt lat="50.655011488124728" lon="13.395157931372523">
        <ele>648</ele>
        <time>2026-08-29T08:00:53Z</time>
      </trkpt>
      <trkpt lat="50.655000926926732" lon="13.395139575004578">
        <ele>649</ele>
        <time>2026-08-29T08:00:54Z</time>
      </trkpt>
      <trkpt lat="50.654987180605531" lon="13.395117949694395">
        <ele>649</ele>
        <time>2026-08-29T08:00:55Z</time>
      </trkpt>
      <trkpt lat="50.65497687086463" lon="13.3950917981565">
        <ele>649</ele>
        <time>2026-08-29T08:00:56Z</time>
      </trkpt>
      <trkpt lat="50.654969327151775" lon="13.395073609426618">
        <ele>649</ele>
        <time>2026-08-29T08:00:57Z</time>
      </trkpt>
      <trkpt lat="50.654959017410874" lon="13.395052067935467">
        <ele>649</ele>
        <time>2026-08-29T08:00:58Z</time>
      </trkpt>
      <trkpt lat="50.654945522546768" lon="13.395037734881043">
        <ele>650</ele>
        <time>2026-08-29T08:00:59Z</time>
      </trkpt>
      <trkpt lat="50.65493781119585" lon="13.395021809265018">
        <ele>650</ele>
        <time>2026-08-29T08:01:00Z</time>
      </trkpt>
      <trkpt lat="50.654919538646936" lon="13.394998507574201">
        <ele>650</ele>
        <time>2026-08-29T08:01:01Z</time>
      </trkpt>
      <trkpt lat="50.654906881973147" lon="13.394973110407591">
        <ele>650</ele>
        <time>2026-08-29T08:01:02Z</time>
      </trkpt>
      <trkpt lat="50.654896320775151" lon="13.394950395449996">
        <ele>650</ele>
        <time>2026-08-29T08:01:03Z</time>
      </trkpt>
      <trkpt lat="50.654880059882998" lon="13.394931368529797">
        <ele>650</ele>
        <time>2026-08-29T08:01:04Z</time>
      </trkpt>
      <trkpt lat="50.654868828132749" lon="13.39491686783731">
        <ele>650</ele>
        <time>2026-08-29T08:01:05Z</time>
      </trkpt>
      <trkpt lat="50.654861703515053" lon="13.394901948049664">
        <ele>651</ele>
        <time>2026-08-29T08:01:06Z</time>
      </trkpt>
      <trkpt lat="50.654843598604202" lon="13.394882250577211">
        <ele>651</ele>
        <time>2026-08-29T08:01:07Z</time>
      </trkpt>
      <trkpt lat="50.654828762635589" lon="13.39485383592546">
        <ele>652</ele>
        <time>2026-08-29T08:01:08Z</time>
      </trkpt>
      <trkpt lat="50.654816776514053" lon="13.394825253635645">
        <ele>652</ele>
        <time>2026-08-29T08:01:09Z</time>
      </trkpt>
      <trkpt lat="50.654806718230247" lon="13.394810250028968">
        <ele>652</ele>
        <time>2026-08-29T08:01:10Z</time>
      </trkpt>
      <trkpt lat="50.654796911403537" lon="13.394783930853009">
        <ele>653</ele>
        <time>2026-08-29T08:01:11Z</time>
      </trkpt>
      <trkpt lat="50.654780818149447" lon="13.394757863134146">
        <ele>653</ele>
        <time>2026-08-29T08:01:12Z</time>
      </trkpt>
      <trkpt lat="50.654766149818897" lon="13.394738668575883">
        <ele>653</ele>
        <time>2026-08-29T08:01:13Z</time>
      </trkpt>
      <trkpt lat="50.654752487316728" lon="13.394728191196918">
        <ele>653</ele>
        <time>2026-08-29T08:01:14Z</time>
      </trkpt>
      <trkpt lat="50.654734717682004" lon="13.39470187202096">
        <ele>653</ele>
        <time>2026-08-29T08:01:15Z</time>
      </trkpt>
      <trkpt lat="50.654717115685344" lon="13.394673373550177">
        <ele>653</ele>
        <time>2026-08-29T08:01:16Z</time>
      </trkpt>
      <trkpt lat="50.654706051573157" lon="13.394649317488074">
        <ele>653</ele>
        <time>2026-08-29T08:01:17Z</time>
      </trkpt>
      <trkpt lat="50.654690880328417" lon="13.394638756290078">
        <ele>653</ele>
        <time>2026-08-29T08:01:18Z</time>
      </trkpt>
      <trkpt lat="50.654681911692023" lon="13.394615203142166">
        <ele>653</ele>
        <time>2026-08-29T08:01:19Z</time>
      </trkpt>
      <trkpt lat="50.654672021046281" lon="13.394593661651015">
        <ele>654</ele>
        <time>2026-08-29T08:01:20Z</time>
      </trkpt>
      <trkpt lat="50.654659448191524" lon="13.394574718549848">
        <ele>654</ele>
        <time>2026-08-29T08:01:21Z</time>
      </trkpt>
      <trkpt lat="50.654639080166817" lon="13.394552003592253">
        <ele>654</ele>
        <time>2026-08-29T08:01:22Z</time>
      </trkpt>
      <trkpt lat="50.654625250026584" lon="13.394533731043339">
        <ele>654</ele>
        <time>2026-08-29T08:01:23Z</time>
      </trkpt>
      <trkpt lat="50.654610581696033" lon="13.394510177895427">
        <ele>655</ele>
        <time>2026-08-29T08:01:24Z</time>
      </trkpt>
      <trkpt lat="50.654598595574498" lon="13.394496347755194">
        <ele>655</ele>
        <time>2026-08-29T08:01:25Z</time>
      </trkpt>
      <trkpt lat="50.654588369652629" lon="13.39448151178658">
        <ele>655</ele>
        <time>2026-08-29T08:01:26Z</time>
      </trkpt>
      <trkpt lat="50.654577305540442" lon="13.394456282258034">
        <ele>655</ele>
        <time>2026-08-29T08:01:27Z</time>
      </trkpt>
      <trkpt lat="50.654574371874332" lon="13.394457288086414">
        <ele>655</ele>
        <time>2026-08-29T08:01:28Z</time>
      </trkpt>
      <trkpt lat="50.654569258913398" lon="13.394451085478067">
        <ele>655</ele>
        <time>2026-08-29T08:01:29Z</time>
      </trkpt>
      <trkpt lat="50.654568085446954" lon="13.394448235630989">
        <ele>655</ele>
        <time>2026-08-29T08:01:30Z</time>
      </trkpt>
      <trkpt lat="50.654568588361144" lon="13.394444547593594">
        <ele>654</ele>
        <time>2026-08-29T08:01:31Z</time>
      </trkpt>
      <trkpt lat="50.654567833989859" lon="13.394445637241006">
        <ele>655</ele>
        <time>2026-08-29T08:01:32Z</time>
      </trkpt>
      <trkpt lat="50.654565570876002" lon="13.39444630779326">
        <ele>655</ele>
        <time>2026-08-29T08:01:33Z</time>
      </trkpt>
      <trkpt lat="50.654553920030594" lon="13.394428789615631">
        <ele>655</ele>
        <time>2026-08-29T08:01:34Z</time>
      </trkpt>
      <trkpt lat="50.654544029384851" lon="13.394417641684413">
        <ele>655</ele>
        <time>2026-08-29T08:01:35Z</time>
      </trkpt>
      <trkpt lat="50.654544364660978" lon="13.394414875656366">
        <ele>656</ele>
        <time>2026-08-29T08:01:36Z</time>
      </trkpt>
      <trkpt lat="50.654545454308391" lon="13.394414540380239">
        <ele>656</ele>
        <time>2026-08-29T08:01:37Z</time>
      </trkpt>
      <trkpt lat="50.654545789584517" lon="13.394414791837335">
        <ele>656</ele>
        <time>2026-08-29T08:01:38Z</time>
      </trkpt>
      <trkpt lat="50.654545789584517" lon="13.394414288923144">
        <ele>656</ele>
        <time>2026-08-29T08:01:39Z</time>
      </trkpt>
      <trkpt lat="50.654540844261646" lon="13.394420156255364">
        <ele>656</ele>
        <time>2026-08-29T08:01:40Z</time>
      </trkpt>
      <trkpt lat="50.654541850090027" lon="13.394419569522142">
        <ele>656</ele>
        <time>2026-08-29T08:01:41Z</time>
      </trkpt>
      <trkpt lat="50.654542436823249" lon="13.394419569522142">
        <ele>656</ele>
        <time>2026-08-29T08:01:42Z</time>
      </trkpt>
      <trkpt lat="50.654543275013566" lon="13.394419401884079">
        <ele>656</ele>
        <time>2026-08-29T08:01:43Z</time>
      </trkpt>
      <trkpt lat="50.654543777927756" lon="13.394419234246016">
        <ele>656</ele>
        <time>2026-08-29T08:01:44Z</time>
      </trkpt>
      <trkpt lat="50.65454444848001" lon="13.394419653341174">
        <ele>656</ele>
        <time>2026-08-29T08:01:45Z</time>
      </trkpt>
      <trkpt lat="50.654544699937105" lon="13.394419485703111">
        <ele>656</ele>
        <time>2026-08-29T08:01:46Z</time>
      </trkpt>
      <trkpt lat="50.6545449513942" lon="13.394419485703111">
        <ele>656</ele>
        <time>2026-08-29T08:01:47Z</time>
      </trkpt>
      <trkpt lat="50.654545621946454" lon="13.394419569522142">
        <ele>656</ele>
        <time>2026-08-29T08:01:48Z</time>
      </trkpt>
      <trkpt lat="50.654546041041613" lon="13.394419401884079">
        <ele>656</ele>
        <time>2026-08-29T08:01:49Z</time>
      </trkpt>
      <trkpt lat="50.654546711593866" lon="13.394419150426984">
        <ele>656</ele>
        <time>2026-08-29T08:01:50Z</time>
      </trkpt>
      <trkpt lat="50.654546963050961" lon="13.394419150426984">
        <ele>656</ele>
        <time>2026-08-29T08:01:51Z</time>
      </trkpt>
      <trkpt lat="50.654552159830928" lon="13.394409427419305">
        <ele>657</ele>
        <time>2026-08-29T08:01:52Z</time>
      </trkpt>
      <trkpt lat="50.654553081840277" lon="13.394409343600273">
        <ele>657</ele>
        <time>2026-08-29T08:01:53Z</time>
      </trkpt>
      <trkpt lat="50.654553500935435" lon="13.394409259781241">
        <ele>657</ele>
        <time>2026-08-29T08:01:54Z</time>
      </trkpt>
      <trkpt lat="50.654553920030594" lon="13.394409259781241">
        <ele>657</ele>
        <time>2026-08-29T08:01:55Z</time>
      </trkpt>
      <trkpt lat="50.654554506763816" lon="13.394409092143178">
        <ele>657</ele>
        <time>2026-08-29T08:01:56Z</time>
      </trkpt>
      <trkpt lat="50.654554925858974" lon="13.394408673048019">
        <ele>657</ele>
        <time>2026-08-29T08:01:57Z</time>
      </trkpt>
      <trkpt lat="50.654555428773165" lon="13.394408756867051">
        <ele>657</ele>
        <time>2026-08-29T08:01:58Z</time>
      </trkpt>
      <trkpt lat="50.654551573097706" lon="13.394410433247685">
        <ele>658</ele>
        <time>2026-08-29T08:01:59Z</time>
      </trkpt>
      <trkpt lat="50.654545119032264" lon="13.394414456561208">
        <ele>657</ele>
        <time>2026-08-29T08:02:00Z</time>
      </trkpt>
      <trkpt lat="50.654550064355135" lon="13.394421078264713">
        <ele>657</ele>
        <time>2026-08-29T08:02:01Z</time>
      </trkpt>
      <trkpt lat="50.654553584754467" lon="13.394418647512794">
        <ele>657</ele>
        <time>2026-08-29T08:02:02Z</time>
      </trkpt>
      <trkpt lat="50.654561379924417" lon="13.394412277266383">
        <ele>657</ele>
        <time>2026-08-29T08:02:03Z</time>
      </trkpt>
      <trkpt lat="50.654562553390861" lon="13.394414959475398">
        <ele>657</ele>
        <time>2026-08-29T08:02:04Z</time>
      </trkpt>
      <trkpt lat="50.654566157609224" lon="13.394413283094764">
        <ele>656</ele>
        <time>2026-08-29T08:02:05Z</time>
      </trkpt>
      <trkpt lat="50.654564229771495" lon="13.394414708018303">
        <ele>656</ele>
        <time>2026-08-29T08:02:06Z</time>
      </trkpt>
      <trkpt lat="50.654559871181846" lon="13.394417306408286">
        <ele>656</ele>
        <time>2026-08-29T08:02:07Z</time>
      </trkpt>
      <trkpt lat="50.65455618314445" lon="13.394418396055698">
        <ele>656</ele>
        <time>2026-08-29T08:02:08Z</time>
      </trkpt>
      <trkpt lat="50.654556853696704" lon="13.39442971162498">
        <ele>656</ele>
        <time>2026-08-29T08:02:09Z</time>
      </trkpt>
      <trkpt lat="50.654552578926086" lon="13.394441027194262">
        <ele>656</ele>
        <time>2026-08-29T08:02:10Z</time>
      </trkpt>
      <trkpt lat="50.654553417116404" lon="13.394445888698101">
        <ele>656</ele>
        <time>2026-08-29T08:02:11Z</time>
      </trkpt>
      <trkpt lat="50.654551908373833" lon="13.394451085478067">
        <ele>656</ele>
        <time>2026-08-29T08:02:12Z</time>
      </trkpt>
      <trkpt lat="50.654554925858974" lon="13.394450582563877">
        <ele>656</ele>
        <time>2026-08-29T08:02:13Z</time>
      </trkpt>
      <trkpt lat="50.654556937515736" lon="13.394451420754194">
        <ele>655</ele>
        <time>2026-08-29T08:02:14Z</time>
      </trkpt>
      <trkpt lat="50.654561128467321" lon="13.39445854537189">
        <ele>656</ele>
        <time>2026-08-29T08:02:15Z</time>
      </trkpt>
      <trkpt lat="50.654564648866653" lon="13.394458629190922">
        <ele>656</ele>
        <time>2026-08-29T08:02:16Z</time>
      </trkpt>
      <trkpt lat="50.654570180922747" lon="13.394469609484076">
        <ele>656</ele>
        <time>2026-08-29T08:02:17Z</time>
      </trkpt>
      <trkpt lat="50.654570600017905" lon="13.394470028579235">
        <ele>656</ele>
        <time>2026-08-29T08:02:18Z</time>
      </trkpt>
      <trkpt lat="50.654570600017905" lon="13.394469525665045">
        <ele>656</ele>
        <time>2026-08-29T08:02:19Z</time>
      </trkpt>
      <trkpt lat="50.65457034856081" lon="13.39446927420795">
        <ele>656</ele>
        <time>2026-08-29T08:02:20Z</time>
      </trkpt>
      <trkpt lat="50.654569091275334" lon="13.394472459331155">
        <ele>656</ele>
        <time>2026-08-29T08:02:21Z</time>
      </trkpt>
      <trkpt lat="50.654569761827588" lon="13.394470866769552">
        <ele>656</ele>
        <time>2026-08-29T08:02:22Z</time>
      </trkpt>
      <trkpt lat="50.65456934273243" lon="13.394470782950521">
        <ele>656</ele>
        <time>2026-08-29T08:02:23Z</time>
      </trkpt>
      <trkpt lat="50.654571019113064" lon="13.394467094913125">
        <ele>655</ele>
        <time>2026-08-29T08:02:24Z</time>
      </trkpt>
      <trkpt lat="50.65457521006465" lon="13.394464245066047">
        <ele>655</ele>
        <time>2026-08-29T08:02:25Z</time>
      </trkpt>
      <trkpt lat="50.654577137902379" lon="13.394462233409286">
        <ele>655</ele>
        <time>2026-08-29T08:02:26Z</time>
      </trkpt>
      <trkpt lat="50.654578059911728" lon="13.394462484866381">
        <ele>655</ele>
        <time>2026-08-29T08:02:27Z</time>
      </trkpt>
      <trkpt lat="50.654576132073998" lon="13.394459635019302">
        <ele>655</ele>
        <time>2026-08-29T08:02:28Z</time>
      </trkpt>
      <trkpt lat="50.654573366045952" lon="13.394455444067717">
        <ele>655</ele>
        <time>2026-08-29T08:02:29Z</time>
      </trkpt>
      <trkpt lat="50.654572611674666" lon="13.394453432410955">
        <ele>655</ele>
        <time>2026-08-29T08:02:30Z</time>
      </trkpt>
      <trkpt lat="50.65457571297884" lon="13.394451504573226">
        <ele>656</ele>
        <time>2026-08-29T08:02:31Z</time>
      </trkpt>
      <trkpt lat="50.654574790969491" lon="13.394444212317467">
        <ele>656</ele>
        <time>2026-08-29T08:02:32Z</time>
      </trkpt>
      <trkpt lat="50.654568001627922" lon="13.394443793222308">
        <ele>656</ele>
        <time>2026-08-29T08:02:33Z</time>
      </trkpt>
      <trkpt lat="50.654559619724751" lon="13.394438847899437">
        <ele>656</ele>
        <time>2026-08-29T08:02:34Z</time>
      </trkpt>
      <trkpt lat="50.654541430994868" lon="13.394437590613961">
        <ele>656</ele>
        <time>2026-08-29T08:02:35Z</time>
      </trkpt>
      <trkpt lat="50.654514860361814" lon="13.39444337412715">
        <ele>655</ele>
        <time>2026-08-29T08:02:36Z</time>
      </trkpt>
      <trkpt lat="50.654493486508727" lon="13.39444044046104">
        <ele>656</ele>
        <time>2026-08-29T08:02:37Z</time>
      </trkpt>
      <trkpt lat="50.654458617791533" lon="13.394446726888418">
        <ele>655</ele>
        <time>2026-08-29T08:02:38Z</time>
      </trkpt>
      <trkpt lat="50.654426598921418" lon="13.394455024972558">
        <ele>655</ele>
        <time>2026-08-29T08:02:39Z</time>
      </trkpt>
      <trkpt lat="50.654394160956144" lon="13.394461562857032">
        <ele>654</ele>
        <time>2026-08-29T08:02:40Z</time>
      </trkpt>
      <trkpt lat="50.654360549524426" lon="13.394460305571556">
        <ele>654</ele>
        <time>2026-08-29T08:02:41Z</time>
      </trkpt>
      <trkpt lat="50.654330290853977" lon="13.39444337412715">
        <ele>653</ele>
        <time>2026-08-29T08:02:42Z</time>
      </trkpt>
      <trkpt lat="50.654297098517418" lon="13.394439266994596">
        <ele>653</ele>
        <time>2026-08-29T08:02:43Z</time>
      </trkpt>
      <trkpt lat="50.654262481257319" lon="13.394430717453361">
        <ele>653</ele>
        <time>2026-08-29T08:02:44Z</time>
      </trkpt>
      <trkpt lat="50.654222667217255" lon="13.394428370520473">
        <ele>654</ele>
        <time>2026-08-29T08:02:45Z</time>
      </trkpt>
      <trkpt lat="50.654168939217925" lon="13.394420659169555">
        <ele>654</ele>
        <time>2026-08-29T08:02:46Z</time>
      </trkpt>
      <trkpt lat="50.654116300866008" lon="13.394405068829656">
        <ele>654</ele>
        <time>2026-08-29T08:02:47Z</time>
      </trkpt>
      <trkpt lat="50.654063830152154" lon="13.394406829029322">
        <ele>654</ele>
        <time>2026-08-29T08:02:48Z</time>
      </trkpt>
      <trkpt lat="50.654009263962507" lon="13.394400542601943">
        <ele>653</ele>
        <time>2026-08-29T08:02:49Z</time>
      </trkpt>
      <trkpt lat="50.653952769935131" lon="13.394389562308788">
        <ele>653</ele>
        <time>2026-08-29T08:02:50Z</time>
      </trkpt>
      <trkpt lat="50.653894599527121" lon="13.394391657784581">
        <ele>652</ele>
        <time>2026-08-29T08:02:51Z</time>
      </trkpt>
      <trkpt lat="50.65383986569941" lon="13.394384030252695">
        <ele>652</ele>
        <time>2026-08-29T08:02:52Z</time>
      </trkpt>
      <trkpt lat="50.653785550966859" lon="13.394355364143848">
        <ele>652</ele>
        <time>2026-08-29T08:02:53Z</time>
      </trkpt>
      <trkpt lat="50.653735594823956" lon="13.394320076331496">
        <ele>652</ele>
        <time>2026-08-29T08:02:54Z</time>
      </trkpt>
      <trkpt lat="50.653679184615612" lon="13.394279340282083">
        <ele>652</ele>
        <time>2026-08-29T08:02:55Z</time>
      </trkpt>
      <trkpt lat="50.653623612597585" lon="13.394244387745857">
        <ele>652</ele>
        <time>2026-08-29T08:02:56Z</time>
      </trkpt>
      <trkpt lat="50.653569381684065" lon="13.394213793799281">
        <ele>652</ele>
        <time>2026-08-29T08:02:57Z</time>
      </trkpt>
      <trkpt lat="50.653517749160528" lon="13.394179176539183">
        <ele>652</ele>
        <time>2026-08-29T08:02:58Z</time>
      </trkpt>
      <trkpt lat="50.653470307588577" lon="13.394142044708133">
        <ele>652</ele>
        <time>2026-08-29T08:02:59Z</time>
      </trkpt>
      <trkpt lat="50.653426721692085" lon="13.394104912877083">
        <ele>652</ele>
        <time>2026-08-29T08:03:00Z</time>
      </trkpt>
      <trkpt lat="50.653381459414959" lon="13.394069625064731">
        <ele>651</ele>
        <time>2026-08-29T08:03:01Z</time>
      </trkpt>
      <trkpt lat="50.65334340557456" lon="13.394027212634683">
        <ele>651</ele>
        <time>2026-08-29T08:03:02Z</time>
      </trkpt>
      <trkpt lat="50.653308117762208" lon="13.393973233178258">
        <ele>650</ele>
        <time>2026-08-29T08:03:03Z</time>
      </trkpt>
      <trkpt lat="50.653274590149522" lon="13.393906094133854">
        <ele>651</ele>
        <time>2026-08-29T08:03:04Z</time>
      </trkpt>
      <trkpt lat="50.653249612078071" lon="13.393841218203306">
        <ele>650</ele>
        <time>2026-08-29T08:03:05Z</time>
      </trkpt>
      <trkpt lat="50.653234859928489" lon="13.393789669498801">
        <ele>650</ele>
        <time>2026-08-29T08:03:06Z</time>
      </trkpt>
      <trkpt lat="50.653216000646353" lon="13.393753878772259">
        <ele>650</ele>
        <time>2026-08-29T08:03:07Z</time>
      </trkpt>
      <trkpt lat="50.653198650106788" lon="13.393712639808655">
        <ele>649</ele>
        <time>2026-08-29T08:03:08Z</time>
      </trkpt>
      <trkpt lat="50.653194123879075" lon="13.393693109974265">
        <ele>649</ele>
        <time>2026-08-29T08:03:09Z</time>
      </trkpt>
      <trkpt lat="50.653190687298775" lon="13.393692271783948">
        <ele>649</ele>
        <time>2026-08-29T08:03:10Z</time>
      </trkpt>
      <trkpt lat="50.653192531317472" lon="13.393706856295466">
        <ele>648</ele>
        <time>2026-08-29T08:03:11Z</time>
      </trkpt>
      <trkpt lat="50.653192447498441" lon="13.393707107752562">
        <ele>648</ele>
        <time>2026-08-29T08:03:12Z</time>
      </trkpt>
      <trkpt lat="50.65319730900228" lon="13.393707945942879">
        <ele>648</ele>
        <time>2026-08-29T08:03:13Z</time>
      </trkpt>
      <trkpt lat="50.653197979554534" lon="13.393701910972595">
        <ele>647</ele>
        <time>2026-08-29T08:03:14Z</time>
      </trkpt>
      <trkpt lat="50.653197728097439" lon="13.393701575696468">
        <ele>647</ele>
        <time>2026-08-29T08:03:15Z</time>
      </trkpt>
      <trkpt lat="50.653206277638674" lon="13.39370752684772">
        <ele>647</ele>
        <time>2026-08-29T08:03:16Z</time>
      </trkpt>
      <trkpt lat="50.653206361457705" lon="13.393707694485784">
        <ele>647</ele>
        <time>2026-08-29T08:03:17Z</time>
      </trkpt>
      <trkpt lat="50.653206361457705" lon="13.393707610666752">
        <ele>647</ele>
        <time>2026-08-29T08:03:18Z</time>
      </trkpt>
      <trkpt lat="50.653206445276737" lon="13.393707694485784">
        <ele>647</ele>
        <time>2026-08-29T08:03:19Z</time>
      </trkpt>
      <trkpt lat="50.653206529095769" lon="13.393707610666752">
        <ele>647</ele>
        <time>2026-08-29T08:03:20Z</time>
      </trkpt>
      <trkpt lat="50.653206529095769" lon="13.39370752684772">
        <ele>647</ele>
        <time>2026-08-29T08:03:21Z</time>
      </trkpt>
      <trkpt lat="50.653206445276737" lon="13.393707191571593">
        <ele>647</ele>
        <time>2026-08-29T08:03:22Z</time>
      </trkpt>
      <trkpt lat="50.653211390599608" lon="13.39370652101934">
        <ele>647</ele>
        <time>2026-08-29T08:03:23Z</time>
      </trkpt>
      <trkpt lat="50.653212899342179" lon="13.39370995759964">
        <ele>647</ele>
        <time>2026-08-29T08:03:24Z</time>
      </trkpt>
      <trkpt lat="50.653214240446687" lon="13.393717249855399">
        <ele>647</ele>
        <time>2026-08-29T08:03:25Z</time>
      </trkpt>
      <trkpt lat="50.65321491099894" lon="13.393717082217336">
        <ele>647</ele>
        <time>2026-08-29T08:03:26Z</time>
      </trkpt>
      <trkpt lat="50.653219018131495" lon="13.393712807446718">
        <ele>647</ele>
        <time>2026-08-29T08:03:27Z</time>
      </trkpt>
      <trkpt lat="50.653215581551194" lon="13.393718171864748">
        <ele>647</ele>
        <time>2026-08-29T08:03:28Z</time>
      </trkpt>
      <trkpt lat="50.653215413913131" lon="13.39371825568378">
        <ele>647</ele>
        <time>2026-08-29T08:03:29Z</time>
      </trkpt>
      <trkpt lat="50.653214827179909" lon="13.393720434978604">
        <ele>647</ele>
        <time>2026-08-29T08:03:30Z</time>
      </trkpt>
      <trkpt lat="50.653212312608957" lon="13.393713561818004">
        <ele>647</ele>
        <time>2026-08-29T08:03:31Z</time>
      </trkpt>
      <trkpt lat="50.653212228789926" lon="13.393713142722845">
        <ele>647</ele>
        <time>2026-08-29T08:03:32Z</time>
      </trkpt>
      <trkpt lat="50.653208959847689" lon="13.393707275390625">
        <ele>647</ele>
        <time>2026-08-29T08:03:33Z</time>
      </trkpt>
      <trkpt lat="50.653208708390594" lon="13.393707107752562">
        <ele>647</ele>
        <time>2026-08-29T08:03:34Z</time>
      </trkpt>
      <trkpt lat="50.653208373114467" lon="13.393706940114498">
        <ele>647</ele>
        <time>2026-08-29T08:03:35Z</time>
      </trkpt>
      <trkpt lat="50.653208289295435" lon="13.393706772476435">
        <ele>647</ele>
        <time>2026-08-29T08:03:36Z</time>
      </trkpt>
      <trkpt lat="50.653208205476403" lon="13.393706940114498">
        <ele>647</ele>
        <time>2026-08-29T08:03:37Z</time>
      </trkpt>
      <trkpt lat="50.653205858543515" lon="13.393709203228354">
        <ele>646</ele>
        <time>2026-08-29T08:03:38Z</time>
      </trkpt>
      <trkpt lat="50.65320611000061" lon="13.393717082217336">
        <ele>646</ele>
        <time>2026-08-29T08:03:39Z</time>
      </trkpt>
      <trkpt lat="50.65321097150445" lon="13.393724877387285">
        <ele>646</ele>
        <time>2026-08-29T08:03:40Z</time>
      </trkpt>
      <trkpt lat="50.653211893513799" lon="13.393720099702477">
        <ele>646</ele>
        <time>2026-08-29T08:03:41Z</time>
      </trkpt>
      <trkpt lat="50.653212061151862" lon="13.393720267340541">
        <ele>646</ele>
        <time>2026-08-29T08:03:42Z</time>
      </trkpt>
      <trkpt lat="50.653213318437338" lon="13.393722530454397">
        <ele>646</ele>
        <time>2026-08-29T08:03:43Z</time>
      </trkpt>
      <trkpt lat="50.653210552409291" lon="13.393715154379606">
        <ele>646</ele>
        <time>2026-08-29T08:03:44Z</time>
      </trkpt>
      <trkpt lat="50.653203092515469" lon="13.393699564039707">
        <ele>646</ele>
        <time>2026-08-29T08:03:45Z</time>
      </trkpt>
      <trkpt lat="50.653194291517138" lon="13.393671065568924">
        <ele>646</ele>
        <time>2026-08-29T08:03:46Z</time>
      </trkpt>
      <trkpt lat="50.653182389214635" lon="13.393643237650394">
        <ele>645</ele>
        <time>2026-08-29T08:03:47Z</time>
      </trkpt>
      <trkpt lat="50.653170151636004" lon="13.393608368933201">
        <ele>645</ele>
        <time>2026-08-29T08:03:48Z</time>
      </trkpt>
      <trkpt lat="50.653155818581581" lon="13.393561597913504">
        <ele>645</ele>
        <time>2026-08-29T08:03:49Z</time>
      </trkpt>
      <trkpt lat="50.653139809146523" lon="13.39351600036025">
        <ele>645</ele>
        <time>2026-08-29T08:03:50Z</time>
      </trkpt>
      <trkpt lat="50.653117680922151" lon="13.393458500504494">
        <ele>646</ele>
        <time>2026-08-29T08:03:51Z</time>
      </trkpt>
      <trkpt lat="50.653098067268729" lon="13.393403515219688">
        <ele>645</ele>
        <time>2026-08-29T08:03:52Z</time>
      </trkpt>
      <trkpt lat="50.653074262663722" lon="13.393356995657086">
        <ele>645</ele>
        <time>2026-08-29T08:03:53Z</time>
      </trkpt>
      <trkpt lat="50.653052804991603" lon="13.39333226904273">
        <ele>646</ele>
        <time>2026-08-29T08:03:54Z</time>
      </trkpt>
      <trkpt lat="50.653033526614308" lon="13.393301758915186">
        <ele>646</ele>
        <time>2026-08-29T08:03:55Z</time>
      </trkpt>
      <trkpt lat="50.653008548542857" lon="13.393264878541231">
        <ele>646</ele>
        <time>2026-08-29T08:03:56Z</time>
      </trkpt>
      <trkpt lat="50.652976362034678" lon="13.393217353150249">
        <ele>645</ele>
        <time>2026-08-29T08:03:57Z</time>
      </trkpt>
      <trkpt lat="50.652934871613979" lon="13.393173683434725">
        <ele>646</ele>
        <time>2026-08-29T08:03:58Z</time>
      </trkpt>
      <trkpt lat="50.652898410335183" lon="13.39313386939466">
        <ele>646</ele>
        <time>2026-08-29T08:03:59Z</time>
      </trkpt>
      <trkpt lat="50.652870666235685" lon="13.393090618774295">
        <ele>645</ele>
        <time>2026-08-29T08:04:00Z</time>
      </trkpt>
      <trkpt lat="50.652850214391947" lon="13.393072765320539">
        <ele>645</ele>
        <time>2026-08-29T08:04:01Z</time>
      </trkpt>
      <trkpt lat="50.652837473899126" lon="13.393056252971292">
        <ele>646</ele>
        <time>2026-08-29T08:04:02Z</time>
      </trkpt>
      <trkpt lat="50.652820961549878" lon="13.393044350668788">
        <ele>646</ele>
        <time>2026-08-29T08:04:03Z</time>
      </trkpt>
      <trkpt lat="50.652809981256723" lon="13.393037393689156">
        <ele>646</ele>
        <time>2026-08-29T08:04:04Z</time>
      </trkpt>
      <trkpt lat="50.652805455029011" lon="13.393039237707853">
        <ele>645</ele>
        <time>2026-08-29T08:04:05Z</time>
      </trkpt>
      <trkpt lat="50.652800593525171" lon="13.39303563348949">
        <ele>645</ele>
        <time>2026-08-29T08:04:06Z</time>
      </trkpt>
      <trkpt lat="50.652792882174253" lon="13.393022557720542">
        <ele>645</ele>
        <time>2026-08-29T08:04:07Z</time>
      </trkpt>
      <trkpt lat="50.652780309319496" lon="13.393005207180977">
        <ele>645</ele>
        <time>2026-08-29T08:04:08Z</time>
      </trkpt>
      <trkpt lat="50.652764299884439" lon="13.392990957945585">
        <ele>645</ele>
        <time>2026-08-29T08:04:09Z</time>
      </trkpt>
      <trkpt lat="50.652750972658396" lon="13.392970925197005">
        <ele>645</ele>
        <time>2026-08-29T08:04:10Z</time>
      </trkpt>
      <trkpt lat="50.652737226337194" lon="13.392945444211364">
        <ele>645</ele>
        <time>2026-08-29T08:04:11Z</time>
      </trkpt>
      <trkpt lat="50.652712667360902" lon="13.392925160005689">
        <ele>645</ele>
        <time>2026-08-29T08:04:12Z</time>
      </trkpt>
      <trkpt lat="50.65269012004137" lon="13.392904540523887">
        <ele>645</ele>
        <time>2026-08-29T08:04:13Z</time>
      </trkpt>
      <trkpt lat="50.652664639055729" lon="13.392882077023387">
        <ele>645</ele>
        <time>2026-08-29T08:04:14Z</time>
      </trkpt>
      <trkpt lat="50.652642510831356" lon="13.392860870808363">
        <ele>645</ele>
        <time>2026-08-29T08:04:15Z</time>
      </trkpt>
      <trkpt lat="50.652624070644379" lon="13.392837317660451">
        <ele>646</ele>
        <time>2026-08-29T08:04:16Z</time>
      </trkpt>
      <trkpt lat="50.652607558295131" lon="13.392826002091169">
        <ele>646</ele>
        <time>2026-08-29T08:04:17Z</time>
      </trkpt>
      <trkpt lat="50.652595488354564" lon="13.39281527325511">
        <ele>646</ele>
        <time>2026-08-29T08:04:18Z</time>
      </trkpt>
      <trkpt lat="50.65258115530014" lon="13.3927933126688">
        <ele>647</ele>
        <time>2026-08-29T08:04:19Z</time>
      </trkpt>
      <trkpt lat="50.652566319331527" lon="13.392774201929569">
        <ele>646</ele>
        <time>2026-08-29T08:04:20Z</time>
      </trkpt>
      <trkpt lat="50.652555758133531" lon="13.392763640731573">
        <ele>646</ele>
        <time>2026-08-29T08:04:21Z</time>
      </trkpt>
      <trkpt lat="50.652536228299141" lon="13.392745368182659">
        <ele>646</ele>
        <time>2026-08-29T08:04:22Z</time>
      </trkpt>
      <trkpt lat="50.652512758970261" lon="13.392726508900523">
        <ele>646</ele>
        <time>2026-08-29T08:04:23Z</time>
      </trkpt>
      <trkpt lat="50.652500940486789" lon="13.392704464495182">
        <ele>646</ele>
        <time>2026-08-29T08:04:24Z</time>
      </trkpt>
      <trkpt lat="50.652484176680446" lon="13.392682755365968">
        <ele>646</ele>
        <time>2026-08-29T08:04:25Z</time>
      </trkpt>
      <trkpt lat="50.652474369853735" lon="13.392656184732914">
        <ele>646</ele>
        <time>2026-08-29T08:04:26Z</time>
      </trkpt>
      <trkpt lat="50.652467999607325" lon="13.392644701525569">
        <ele>646</ele>
        <time>2026-08-29T08:04:27Z</time>
      </trkpt>
      <trkpt lat="50.652468418702483" lon="13.392644450068474">
        <ele>646</ele>
        <time>2026-08-29T08:04:28Z</time>
      </trkpt>
      <trkpt lat="50.652468502521515" lon="13.392644450068474">
        <ele>646</ele>
        <time>2026-08-29T08:04:29Z</time>
      </trkpt>
      <trkpt lat="50.652468670159578" lon="13.392644533887506">
        <ele>646</ele>
        <time>2026-08-29T08:04:30Z</time>
      </trkpt>
      <trkpt lat="50.6524692568928" lon="13.392644617706537">
        <ele>646</ele>
        <time>2026-08-29T08:04:31Z</time>
      </trkpt>
      <trkpt lat="50.652469340711832" lon="13.392644617706537">
        <ele>646</ele>
        <time>2026-08-29T08:04:32Z</time>
      </trkpt>
      <trkpt lat="50.652469592168927" lon="13.392644701525569">
        <ele>646</ele>
        <time>2026-08-29T08:04:33Z</time>
      </trkpt>
      <trkpt lat="50.652470933273435" lon="13.39264721609652">
        <ele>646</ele>
        <time>2026-08-29T08:04:34Z</time>
      </trkpt>
      <trkpt lat="50.652468586340547" lon="13.392656771466136">
        <ele>646</ele>
        <time>2026-08-29T08:04:35Z</time>
      </trkpt>
      <trkpt lat="50.652462048456073" lon="13.392646629363298">
        <ele>646</ele>
        <time>2026-08-29T08:04:36Z</time>
      </trkpt>
      <trkpt lat="50.652453415095806" lon="13.392632463946939">
        <ele>646</ele>
        <time>2026-08-29T08:04:37Z</time>
      </trkpt>
      <trkpt lat="50.652447631582618" lon="13.392611006274819">
        <ele>646</ele>
        <time>2026-08-29T08:04:38Z</time>
      </trkpt>
      <trkpt lat="50.652442518621683" lon="13.392589297145605">
        <ele>646</ele>
        <time>2026-08-29T08:04:39Z</time>
      </trkpt>
      <trkpt lat="50.652429610490799" lon="13.392564989626408">
        <ele>646</ele>
        <time>2026-08-29T08:04:40Z</time>
      </trkpt>
      <trkpt lat="50.652400609105825" lon="13.392534730955958">
        <ele>646</ele>
        <time>2026-08-29T08:04:41Z</time>
      </trkpt>
      <trkpt lat="50.652372948825359" lon="13.392501538619399">
        <ele>646</ele>
        <time>2026-08-29T08:04:42Z</time>
      </trkpt>
      <trkpt lat="50.652346629649401" lon="13.392469016835093">
        <ele>647</ele>
        <time>2026-08-29T08:04:43Z</time>
      </trkpt>
      <trkpt lat="50.652319472283125" lon="13.392440099269152">
        <ele>647</ele>
        <time>2026-08-29T08:04:44Z</time>
      </trkpt>
      <trkpt lat="50.652296170592308" lon="13.392410259693861">
        <ele>647</ele>
        <time>2026-08-29T08:04:45Z</time>
      </trkpt>
      <trkpt lat="50.652269180864096" lon="13.392371032387018">
        <ele>647</ele>
        <time>2026-08-29T08:04:46Z</time>
      </trkpt>
      <trkpt lat="50.652241939678788" lon="13.392348904162645">
        <ele>646</ele>
        <time>2026-08-29T08:04:47Z</time>
      </trkpt>
      <trkpt lat="50.652212770655751" lon="13.392326273024082">
        <ele>646</ele>
        <time>2026-08-29T08:04:48Z</time>
      </trkpt>
      <trkpt lat="50.652167340740561" lon="13.392298445105553">
        <ele>646</ele>
        <time>2026-08-29T08:04:49Z</time>
      </trkpt>
      <trkpt lat="50.65211839042604" lon="13.392262905836105">
        <ele>646</ele>
        <time>2026-08-29T08:04:50Z</time>
      </trkpt>
      <trkpt lat="50.65207933075726" lon="13.392226612195373">
        <ele>647</ele>
        <time>2026-08-29T08:04:51Z</time>
      </trkpt>
      <trkpt lat="50.652043120935559" lon="13.392210938036442">
        <ele>648</ele>
        <time>2026-08-29T08:04:52Z</time>
      </trkpt>
      <trkpt lat="50.651984950527549" lon="13.392177242785692">
        <ele>647</ele>
        <time>2026-08-29T08:04:53Z</time>
      </trkpt>
      <trkpt lat="50.651948992162943" lon="13.392150672152638">
        <ele>647</ele>
        <time>2026-08-29T08:04:54Z</time>
      </trkpt>
      <trkpt lat="50.651912027969956" lon="13.392109600827098">
        <ele>646</ele>
        <time>2026-08-29T08:04:55Z</time>
      </trkpt>
      <trkpt lat="50.651869028806686" lon="13.392076576128602">
        <ele>646</ele>
        <time>2026-08-29T08:04:56Z</time>
      </trkpt>
      <trkpt lat="50.651835920289159" lon="13.392048748210073">
        <ele>646</ele>
        <time>2026-08-29T08:04:57Z</time>
      </trkpt>
      <trkpt lat="50.651806332170963" lon="13.392019914463162">
        <ele>646</ele>
        <time>2026-08-29T08:04:58Z</time>
      </trkpt>
      <trkpt lat="50.65178076736629" lon="13.392004072666168">
        <ele>646</ele>
        <time>2026-08-29T08:04:59Z</time>
      </trkpt>
      <trkpt lat="50.651740031316876" lon="13.391974987462163">
        <ele>646</ele>
        <time>2026-08-29T08:05:00Z</time>
      </trkpt>
      <trkpt lat="50.651691667735577" lon="13.391945315524936">
        <ele>646</ele>
        <time>2026-08-29T08:05:01Z</time>
      </trkpt>
      <trkpt lat="50.651637772098184" lon="13.39192058891058">
        <ele>646</ele>
        <time>2026-08-29T08:05:02Z</time>
      </trkpt>
      <trkpt lat="50.651577590033412" lon="13.391898041591048">
        <ele>646</ele>
        <time>2026-08-29T08:05:03Z</time>
      </trkpt>
      <trkpt lat="50.651538362726569" lon="13.391880607232451">
        <ele>646</ele>
        <time>2026-08-29T08:05:04Z</time>
      </trkpt>
      <trkpt lat="50.651500141248107" lon="13.391865435987711">
        <ele>646</ele>
        <time>2026-08-29T08:05:05Z</time>
      </trkpt>
      <trkpt lat="50.651466362178326" lon="13.391853533685207">
        <ele>646</ele>
        <time>2026-08-29T08:05:06Z</time>
      </trkpt>
      <trkpt lat="50.651424201205373" lon="13.391823777928948">
        <ele>645</ele>
        <time>2026-08-29T08:05:07Z</time>
      </trkpt>
      <trkpt lat="50.65138841047883" lon="13.39180139824748">
        <ele>645</ele>
        <time>2026-08-29T08:05:08Z</time>
      </trkpt>
      <trkpt lat="50.651341890916228" lon="13.391789328306913">
        <ele>645</ele>
        <time>2026-08-29T08:05:09Z</time>
      </trkpt>
      <trkpt lat="50.651280535385013" lon="13.391788238659501">
        <ele>645</ele>
        <time>2026-08-29T08:05:10Z</time>
      </trkpt>
      <trkpt lat="50.651225298643112" lon="13.391785137355328">
        <ele>644</ele>
        <time>2026-08-29T08:05:11Z</time>
      </trkpt>
      <trkpt lat="50.651183389127254" lon="13.391770301386714">
        <ele>644</ele>
        <time>2026-08-29T08:05:12Z</time>
      </trkpt>
      <trkpt lat="50.65113577991724" lon="13.391737611964345">
        <ele>644</ele>
        <time>2026-08-29T08:05:13Z</time>
      </trkpt>
      <trkpt lat="50.65108154900372" lon="13.391713555902243">
        <ele>644</ele>
        <time>2026-08-29T08:05:14Z</time>
      </trkpt>
      <trkpt lat="50.651034945622087" lon="13.391677597537637">
        <ele>644</ele>
        <time>2026-08-29T08:05:15Z</time>
      </trkpt>
      <trkpt lat="50.650992030277848" lon="13.391640800982714">
        <ele>644</ele>
        <time>2026-08-29T08:05:16Z</time>
      </trkpt>
      <trkpt lat="50.65095204859972" lon="13.391600819304585">
        <ele>644</ele>
        <time>2026-08-29T08:05:17Z</time>
      </trkpt>
      <trkpt lat="50.650909887626767" lon="13.391578691080213">
        <ele>644</ele>
        <time>2026-08-29T08:05:18Z</time>
      </trkpt>
      <trkpt lat="50.650864122435451" lon="13.391559580340981">
        <ele>644</ele>
        <time>2026-08-29T08:05:19Z</time>
      </trkpt>
      <trkpt lat="50.650819949805737" lon="13.391529237851501">
        <ele>643</ele>
        <time>2026-08-29T08:05:20Z</time>
      </trkpt>
      <trkpt lat="50.650791451334953" lon="13.391520353034139">
        <ele>643</ele>
        <time>2026-08-29T08:05:21Z</time>
      </trkpt>
      <trkpt lat="50.650759600102901" lon="13.391507025808096">
        <ele>643</ele>
        <time>2026-08-29T08:05:22Z</time>
      </trkpt>
      <trkpt lat="50.650721378624439" lon="13.39149160310626">
        <ele>643</ele>
        <time>2026-08-29T08:05:23Z</time>
      </trkpt>
      <trkpt lat="50.650691706687212" lon="13.391477270051837">
        <ele>643</ele>
        <time>2026-08-29T08:05:24Z</time>
      </trkpt>
      <trkpt lat="50.650654826313257" lon="13.391473330557346">
        <ele>642</ele>
        <time>2026-08-29T08:05:25Z</time>
      </trkpt>
      <trkpt lat="50.650621550157666" lon="13.391466205939651">
        <ele>642</ele>
        <time>2026-08-29T08:05:26Z</time>
      </trkpt>
      <trkpt lat="50.650594057515264" lon="13.391452124342322">
        <ele>642</ele>
        <time>2026-08-29T08:05:27Z</time>
      </trkpt>
      <trkpt lat="50.650563379749656" lon="13.39144759811461">
        <ele>642</ele>
        <time>2026-08-29T08:05:28Z</time>
      </trkpt>
      <trkpt lat="50.650538401678205" lon="13.391438545659184">
        <ele>641</ele>
        <time>2026-08-29T08:05:29Z</time>
      </trkpt>
      <trkpt lat="50.650511411949992" lon="13.391442485153675">
        <ele>641</ele>
        <time>2026-08-29T08:05:30Z</time>
      </trkpt>
      <trkpt lat="50.650491798296571" lon="13.391439635306597">
        <ele>641</ele>
        <time>2026-08-29T08:05:31Z</time>
      </trkpt>
      <trkpt lat="50.650467239320278" lon="13.391436534002423">
        <ele>641</ele>
        <time>2026-08-29T08:05:32Z</time>
      </trkpt>
      <trkpt lat="50.650443518534303" lon="13.391435192897916">
        <ele>641</ele>
        <time>2026-08-29T08:05:33Z</time>
      </trkpt>
      <trkpt lat="50.650409823283553" lon="13.391433348879218">
        <ele>642</ele>
        <time>2026-08-29T08:05:34Z</time>
      </trkpt>
      <trkpt lat="50.650383001193404" lon="13.39142756536603">
        <ele>642</ele>
        <time>2026-08-29T08:05:35Z</time>
      </trkpt>
      <trkpt lat="50.65036715939641" lon="13.391418680548668">
        <ele>641</ele>
        <time>2026-08-29T08:05:36Z</time>
      </trkpt>
      <trkpt lat="50.650348467752337" lon="13.391415495425463">
        <ele>641</ele>
        <time>2026-08-29T08:05:37Z</time>
      </trkpt>
      <trkpt lat="50.650322986766696" lon="13.391405688598752">
        <ele>641</ele>
        <time>2026-08-29T08:05:38Z</time>
      </trkpt>
      <trkpt lat="50.650300607085228" lon="13.391391607001424">
        <ele>641</ele>
        <time>2026-08-29T08:05:39Z</time>
      </trkpt>
      <trkpt lat="50.65028116106987" lon="13.391372077167034">
        <ele>641</ele>
        <time>2026-08-29T08:05:40Z</time>
      </trkpt>
      <trkpt lat="50.650264983996749" lon="13.391360761597753">
        <ele>641</ele>
        <time>2026-08-29T08:05:41Z</time>
      </trkpt>
      <trkpt lat="50.650244448333979" lon="13.391356989741325">
        <ele>641</ele>
        <time>2026-08-29T08:05:42Z</time>
      </trkpt>
      <trkpt lat="50.650219051167369" lon="13.391342237591743">
        <ele>640</ele>
        <time>2026-08-29T08:05:43Z</time>
      </trkpt>
      <trkpt lat="50.650201700627804" lon="13.391330167651176">
        <ele>640</ele>
        <time>2026-08-29T08:05:44Z</time>
      </trkpt>
      <trkpt lat="50.650182086974382" lon="13.391318013891578">
        <ele>640</ele>
        <time>2026-08-29T08:05:45Z</time>
      </trkpt>
      <trkpt lat="50.650161383673549" lon="13.391305692493916">
        <ele>640</ele>
        <time>2026-08-29T08:05:46Z</time>
      </trkpt>
      <trkpt lat="50.650148978456855" lon="13.391286749392748">
        <ele>640</ele>
        <time>2026-08-29T08:05:47Z</time>
      </trkpt>
      <trkpt lat="50.650137411430478" lon="13.391267219558358">
        <ele>639</ele>
        <time>2026-08-29T08:05:48Z</time>
      </trkpt>
      <trkpt lat="50.650128107517958" lon="13.391250539571047">
        <ele>639</ele>
        <time>2026-08-29T08:05:49Z</time>
      </trkpt>
      <trkpt lat="50.65011989325285" lon="13.391234362497926">
        <ele>639</ele>
        <time>2026-08-29T08:05:50Z</time>
      </trkpt>
      <trkpt lat="50.650103967636824" lon="13.391225812956691">
        <ele>639</ele>
        <time>2026-08-29T08:05:51Z</time>
      </trkpt>
      <trkpt lat="50.650094076991081" lon="13.391224890947342">
        <ele>639</ele>
        <time>2026-08-29T08:05:52Z</time>
      </trkpt>
      <trkpt lat="50.65009550191462" lon="13.391210976988077">
        <ele>639</ele>
        <time>2026-08-29T08:05:53Z</time>
      </trkpt>
      <trkpt lat="50.650090472772717" lon="13.391200751066208">
        <ele>639</ele>
        <time>2026-08-29T08:05:54Z</time>
      </trkpt>
      <trkpt lat="50.650093490257859" lon="13.391191866248846">
        <ele>639</ele>
        <time>2026-08-29T08:05:55Z</time>
      </trkpt>
      <trkpt lat="50.650081839412451" lon="13.391165211796761">
        <ele>639</ele>
        <time>2026-08-29T08:05:56Z</time>
      </trkpt>
      <trkpt lat="50.650063147768378" lon="13.39115297421813">
        <ele>639</ele>
        <time>2026-08-29T08:05:57Z</time>
      </trkpt>
      <trkpt lat="50.650049401447177" lon="13.391131600365043">
        <ele>639</ele>
        <time>2026-08-29T08:05:58Z</time>
      </trkpt>
      <trkpt lat="50.650037666782737" lon="13.391101509332657">
        <ele>638</ele>
        <time>2026-08-29T08:05:59Z</time>
      </trkpt>
      <trkpt lat="50.650034984573722" lon="13.391078542917967">
        <ele>639</ele>
        <time>2026-08-29T08:06:00Z</time>
      </trkpt>
      <trkpt lat="50.650032050907612" lon="13.391062701120973">
        <ele>639</ele>
        <time>2026-08-29T08:06:01Z</time>
      </trkpt>
      <trkpt lat="50.650026015937328" lon="13.391039567068219">
        <ele>639</ele>
        <time>2026-08-29T08:06:02Z</time>
      </trkpt>
      <trkpt lat="50.650026267394423" lon="13.391023389995098">
        <ele>639</ele>
        <time>2026-08-29T08:06:03Z</time>
      </trkpt>
      <trkpt lat="50.650017885491252" lon="13.391012912616134">
        <ele>639</ele>
        <time>2026-08-29T08:06:04Z</time>
      </trkpt>
      <trkpt lat="50.65001143142581" lon="13.390997741371393">
        <ele>639</ele>
        <time>2026-08-29T08:06:05Z</time>
      </trkpt>
      <trkpt lat="50.650002546608448" lon="13.390970081090927">
        <ele>639</ele>
        <time>2026-08-29T08:06:06Z</time>
      </trkpt>
      <trkpt lat="50.649995589628816" lon="13.390940744429827">
        <ele>639</ele>
        <time>2026-08-29T08:06:07Z</time>
      </trkpt>
      <trkpt lat="50.649984441697598" lon="13.390907384455204">
        <ele>639</ele>
        <time>2026-08-29T08:06:08Z</time>
      </trkpt>
      <trkpt lat="50.649967594072223" lon="13.390884250402451">
        <ele>639</ele>
        <time>2026-08-29T08:06:09Z</time>
      </trkpt>
      <trkpt lat="50.649957451969385" lon="13.39084661565721">
        <ele>638</ele>
        <time>2026-08-29T08:06:10Z</time>
      </trkpt>
      <trkpt lat="50.649939849972725" lon="13.390807388350368">
        <ele>638</ele>
        <time>2026-08-29T08:06:11Z</time>
      </trkpt>
      <trkpt lat="50.649916045367718" lon="13.390776459127665">
        <ele>638</ele>
        <time>2026-08-29T08:06:12Z</time>
      </trkpt>
      <trkpt lat="50.649886289611459" lon="13.390730526298285">
        <ele>638</ele>
        <time>2026-08-29T08:06:13Z</time>
      </trkpt>
      <trkpt lat="50.649861982092261" lon="13.390676379203796">
        <ele>637</ele>
        <time>2026-08-29T08:06:14Z</time>
      </trkpt>
      <trkpt lat="50.649839099496603" lon="13.390614269301295">
        <ele>637</ele>
        <time>2026-08-29T08:06:15Z</time>
      </trkpt>
      <trkpt lat="50.649822000414133" lon="13.390560792759061">
        <ele>637</ele>
        <time>2026-08-29T08:06:16Z</time>
      </trkpt>
      <trkpt lat="50.649809762835503" lon="13.390515362843871">
        <ele>636</ele>
        <time>2026-08-29T08:06:17Z</time>
      </trkpt>
      <trkpt lat="50.649801297113299" lon="13.39046448469162">
        <ele>636</ele>
        <time>2026-08-29T08:06:18Z</time>
      </trkpt>
      <trkpt lat="50.649784198030829" lon="13.390418803319335">
        <ele>637</ele>
        <time>2026-08-29T08:06:19Z</time>
      </trkpt>
      <trkpt lat="50.649768272414804" lon="13.390359207987785">
        <ele>637</ele>
        <time>2026-08-29T08:06:20Z</time>
      </trkpt>
      <trkpt lat="50.649745054543018" lon="13.390296092256904">
        <ele>637</ele>
        <time>2026-08-29T08:06:21Z</time>
      </trkpt>
      <trkpt lat="50.649718651548028" lon="13.390244375914335">
        <ele>638</ele>
        <time>2026-08-29T08:06:22Z</time>
      </trkpt>
      <trkpt lat="50.649703396484256" lon="13.390184445306659">
        <ele>638</ele>
        <time>2026-08-29T08:06:23Z</time>
      </trkpt>
      <trkpt lat="50.649678250774741" lon="13.390119904652238">
        <ele>638</ele>
        <time>2026-08-29T08:06:24Z</time>
      </trkpt>
      <trkpt lat="50.649652350693941" lon="13.390047065913677">
        <ele>638</ele>
        <time>2026-08-29T08:06:25Z</time>
      </trkpt>
      <trkpt lat="50.649638939648867" lon="13.389981016516685">
        <ele>638</ele>
        <time>2026-08-29T08:06:26Z</time>
      </trkpt>
      <trkpt lat="50.649623768404126" lon="13.389913626015186">
        <ele>638</ele>
        <time>2026-08-29T08:06:27Z</time>
      </trkpt>
      <trkpt lat="50.649604992941022" lon="13.389836428686976">
        <ele>637</ele>
        <time>2026-08-29T08:06:28Z</time>
      </trkpt>
      <trkpt lat="50.649589570239186" lon="13.389757974073291">
        <ele>637</ele>
        <time>2026-08-29T08:06:29Z</time>
      </trkpt>
      <trkpt lat="50.649572890251875" lon="13.38971296325326">
        <ele>636</ele>
        <time>2026-08-29T08:06:30Z</time>
      </trkpt>
      <trkpt lat="50.649562077596784" lon="13.389680273830891">
        <ele>636</ele>
        <time>2026-08-29T08:06:31Z</time>
      </trkpt>
      <trkpt lat="50.649549923837185" lon="13.389648506417871">
        <ele>636</ele>
        <time>2026-08-29T08:06:32Z</time>
      </trkpt>
      <trkpt lat="50.649540452286601" lon="13.389611877501011">
        <ele>636</ele>
        <time>2026-08-29T08:06:33Z</time>
      </trkpt>
      <trkpt lat="50.649519581347704" lon="13.389569884166121">
        <ele>636</ele>
        <time>2026-08-29T08:06:34Z</time>
      </trkpt>
      <trkpt lat="50.64948907122016" lon="13.389518586918712">
        <ele>636</ele>
        <time>2026-08-29T08:06:35Z</time>
      </trkpt>
      <trkpt lat="50.649452861398458" lon="13.38947013951838">
        <ele>635</ele>
        <time>2026-08-29T08:06:36Z</time>
      </trkpt>
      <trkpt lat="50.64941774122417" lon="13.389417920261621">
        <ele>635</ele>
        <time>2026-08-29T08:06:37Z</time>
      </trkpt>
      <trkpt lat="50.649384297430515" lon="13.389371987432241">
        <ele>635</ele>
        <time>2026-08-29T08:06:38Z</time>
      </trkpt>
      <trkpt lat="50.649349428713322" lon="13.389314487576485">
        <ele>634</ele>
        <time>2026-08-29T08:06:39Z</time>
      </trkpt>
      <trkpt lat="50.649329060688615" lon="13.389271572232246">
        <ele>634</ele>
        <time>2026-08-29T08:06:40Z</time>
      </trkpt>
      <trkpt lat="50.649318918585777" lon="13.389208624139428">
        <ele>634</ele>
        <time>2026-08-29T08:06:41Z</time>
      </trkpt>
      <trkpt lat="50.649306178092957" lon="13.389157745987177">
        <ele>634</ele>
        <time>2026-08-29T08:06:42Z</time>
      </trkpt>
      <trkpt lat="50.649297880008817" lon="13.389103850349784">
        <ele>634</ele>
        <time>2026-08-29T08:06:43Z</time>
      </trkpt>
      <trkpt lat="50.649292347952724" lon="13.38903377763927">
        <ele>634</ele>
        <time>2026-08-29T08:06:44Z</time>
      </trkpt>
      <trkpt lat="50.649296371266246" lon="13.388970494270325">
        <ele>634</ele>
        <time>2026-08-29T08:06:45Z</time>
      </trkpt>
      <trkpt lat="50.6493004783988" lon="13.38892187923193">
        <ele>633</ele>
        <time>2026-08-29T08:06:46Z</time>
      </trkpt>
      <trkpt lat="50.649308944121003" lon="13.38887644931674">
        <ele>633</ele>
        <time>2026-08-29T08:06:47Z</time>
      </trkpt>
      <trkpt lat="50.649323863908648" lon="13.388830097392201">
        <ele>632</ele>
        <time>2026-08-29T08:06:48Z</time>
      </trkpt>
      <trkpt lat="50.649346327409148" lon="13.388788942247629">
        <ele>632</ele>
        <time>2026-08-29T08:06:49Z</time>
      </trkpt>
      <trkpt lat="50.649360911920667" lon="13.388736890628934">
        <ele>632</ele>
        <time>2026-08-29T08:06:50Z</time>
      </trkpt>
      <trkpt lat="50.649370802566409" lon="13.388684587553144">
        <ele>632</ele>
        <time>2026-08-29T08:06:51Z</time>
      </trkpt>
      <trkpt lat="50.649383962154388" lon="13.388641001656651">
        <ele>631</ele>
        <time>2026-08-29T08:06:52Z</time>
      </trkpt>
      <trkpt lat="50.649395948275924" lon="13.388597499579191">
        <ele>631</ele>
        <time>2026-08-29T08:06:53Z</time>
      </trkpt>
      <trkpt lat="50.649412963539362" lon="13.388532204553485">
        <ele>631</ele>
        <time>2026-08-29T08:06:54Z</time>
      </trkpt>
      <trkpt lat="50.649430984631181" lon="13.388471938669682">
        <ele>631</ele>
        <time>2026-08-29T08:06:55Z</time>
      </trkpt>
      <trkpt lat="50.649442970752716" lon="13.388400943949819">
        <ele>631</ele>
        <time>2026-08-29T08:06:56Z</time>
      </trkpt>
      <trkpt lat="50.649456130340695" lon="13.388329865410924">
        <ele>629</ele>
        <time>2026-08-29T08:06:57Z</time>
      </trkpt>
      <trkpt lat="50.649456046521664" lon="13.388257110491395">
        <ele>629</ele>
        <time>2026-08-29T08:06:58Z</time>
      </trkpt>
      <trkpt lat="50.649467948824167" lon="13.388187792152166">
        <ele>628</ele>
        <time>2026-08-29T08:06:59Z</time>
      </trkpt>
      <trkpt lat="50.649483371526003" lon="13.388120150193572">
        <ele>628</ele>
        <time>2026-08-29T08:07:00Z</time>
      </trkpt>
      <trkpt lat="50.649492340162396" lon="13.388050580397248">
        <ele>629</ele>
        <time>2026-08-29T08:07:01Z</time>
      </trkpt>
      <trkpt lat="50.649499548599124" lon="13.387974891811609">
        <ele>629</ele>
        <time>2026-08-29T08:07:02Z</time>
      </trkpt>
      <trkpt lat="50.649517569690943" lon="13.387901298701763">
        <ele>629</ele>
        <time>2026-08-29T08:07:03Z</time>
      </trkpt>
      <trkpt lat="50.649530058726668" lon="13.387818150222301">
        <ele>628</ele>
        <time>2026-08-29T08:07:04Z</time>
      </trkpt>
      <trkpt lat="50.649550342932343" lon="13.387749083340168">
        <ele>628</ele>
        <time>2026-08-29T08:07:05Z</time>
      </trkpt>
      <trkpt lat="50.649572052061558" lon="13.387699881568551">
        <ele>628</ele>
        <time>2026-08-29T08:07:06Z</time>
      </trkpt>
      <trkpt lat="50.649591581895947" lon="13.387639112770557">
        <ele>628</ele>
        <time>2026-08-29T08:07:07Z</time>
      </trkpt>
      <trkpt lat="50.649623768404126" lon="13.387590581551194">
        <ele>627</ele>
        <time>2026-08-29T08:07:08Z</time>
      </trkpt>
      <trkpt lat="50.649636257439852" lon="13.387526292353868">
        <ele>627</ele>
        <time>2026-08-29T08:07:09Z</time>
      </trkpt>
      <trkpt lat="50.64965084195137" lon="13.387466697022319">
        <ele>625</ele>
        <time>2026-08-29T08:07:10Z</time>
      </trkpt>
      <trkpt lat="50.649666097015142" lon="13.387387488037348">
        <ele>626</ele>
        <time>2026-08-29T08:07:11Z</time>
      </trkpt>
      <trkpt lat="50.649688979610801" lon="13.387344991788268">
        <ele>625</ele>
        <time>2026-08-29T08:07:12Z</time>
      </trkpt>
      <trkpt lat="50.649704653769732" lon="13.387302830815315">
        <ele>625</ele>
        <time>2026-08-29T08:07:13Z</time>
      </trkpt>
      <trkpt lat="50.649720244109631" lon="13.387269806116819">
        <ele>625</ele>
        <time>2026-08-29T08:07:14Z</time>
      </trkpt>
      <trkpt lat="50.649737007915974" lon="13.387242313474417">
        <ele>625</ele>
        <time>2026-08-29T08:07:15Z</time>
      </trkpt>
      <trkpt lat="50.649754358455539" lon="13.387196883559227">
        <ele>624</ele>
        <time>2026-08-29T08:07:16Z</time>
      </trkpt>
      <trkpt lat="50.649770954623818" lon="13.387137623503804">
        <ele>624</ele>
        <time>2026-08-29T08:07:17Z</time>
      </trkpt>
      <trkpt lat="50.649801380932331" lon="13.387072747573256">
        <ele>623</ele>
        <time>2026-08-29T08:07:18Z</time>
      </trkpt>
      <trkpt lat="50.64983650110662" lon="13.387012397870421">
        <ele>621</ele>
        <time>2026-08-29T08:07:19Z</time>
      </trkpt>
      <trkpt lat="50.649858042597771" lon="13.386931847780943">
        <ele>620</ele>
        <time>2026-08-29T08:07:20Z</time>
      </trkpt>
      <trkpt lat="50.649881092831492" lon="13.386852722615004">
        <ele>619</ele>
        <time>2026-08-29T08:07:21Z</time>
      </trkpt>
      <trkpt lat="50.64990590326488" lon="13.386756414547563">
        <ele>619</ele>
        <time>2026-08-29T08:07:22Z</time>
      </trkpt>
      <trkpt lat="50.649929707869887" lon="13.386659687384963">
        <ele>618</ele>
        <time>2026-08-29T08:07:23Z</time>
      </trkpt>
      <trkpt lat="50.649963151663542" lon="13.386583244428039">
        <ele>617</ele>
        <time>2026-08-29T08:07:24Z</time>
      </trkpt>
      <trkpt lat="50.649991147220135" lon="13.38650319725275">
        <ele>616</ele>
        <time>2026-08-29T08:07:25Z</time>
      </trkpt>
      <trkpt lat="50.650020567700267" lon="13.386417618021369">
        <ele>615</ele>
        <time>2026-08-29T08:07:26Z</time>
      </trkpt>
      <trkpt lat="50.650055352598429" lon="13.386329859495163">
        <ele>614</ele>
        <time>2026-08-29T08:07:27Z</time>
      </trkpt>
      <trkpt lat="50.650084689259529" lon="13.386245705187321">
        <ele>612</ele>
        <time>2026-08-29T08:07:28Z</time>
      </trkpt>
      <trkpt lat="50.650120479986072" lon="13.386151324957609">
        <ele>611</ele>
        <time>2026-08-29T08:07:29Z</time>
      </trkpt>
      <trkpt lat="50.650148810818791" lon="13.386073708534241">
        <ele>610</ele>
        <time>2026-08-29T08:07:30Z</time>
      </trkpt>
      <trkpt lat="50.650173872709274" lon="13.386006988584995">
        <ele>608</ele>
        <time>2026-08-29T08:07:31Z</time>
      </trkpt>
      <trkpt lat="50.650194827467203" lon="13.385949824005365">
        <ele>608</ele>
        <time>2026-08-29T08:07:32Z</time>
      </trkpt>
      <trkpt lat="50.650216620415449" lon="13.385893162339926">
        <ele>606</ele>
        <time>2026-08-29T08:07:33Z</time>
      </trkpt>
      <trkpt lat="50.650232629850507" lon="13.385847313329577">
        <ele>605</ele>
        <time>2026-08-29T08:07:34Z</time>
      </trkpt>
      <trkpt lat="50.650257356464863" lon="13.385816048830748">
        <ele>605</ele>
        <time>2026-08-29T08:07:35Z</time>
      </trkpt>
      <trkpt lat="50.650279233232141" lon="13.385786460712552">
        <ele>605</ele>
        <time>2026-08-29T08:07:36Z</time>
      </trkpt>
      <trkpt lat="50.650295158848166" lon="13.385750250890851">
        <ele>604</ele>
        <time>2026-08-29T08:07:37Z</time>
      </trkpt>
      <trkpt lat="50.650316448882222" lon="13.385729966685176">
        <ele>603</ele>
        <time>2026-08-29T08:07:38Z</time>
      </trkpt>
      <trkpt lat="50.650334050878882" lon="13.385708509013057">
        <ele>602</ele>
        <time>2026-08-29T08:07:39Z</time>
      </trkpt>
      <trkpt lat="50.650348383933306" lon="13.385683028027415">
        <ele>602</ele>
        <time>2026-08-29T08:07:40Z</time>
      </trkpt>
      <trkpt lat="50.65036372281611" lon="13.385646734386683">
        <ele>601</ele>
        <time>2026-08-29T08:07:41Z</time>
      </trkpt>
      <trkpt lat="50.650374870747328" lon="13.385592419654131">
        <ele>601</ele>
        <time>2026-08-29T08:07:42Z</time>
      </trkpt>
      <trkpt lat="50.650393730029464" lon="13.385546905919909">
        <ele>600</ele>
        <time>2026-08-29T08:07:43Z</time>
      </trkpt>
      <trkpt lat="50.650411080569029" lon="13.385499380528927">
        <ele>600</ele>
        <time>2026-08-29T08:07:44Z</time>
      </trkpt>
      <trkpt lat="50.650423066690564" lon="13.385446071624756">
        <ele>600</ele>
        <time>2026-08-29T08:07:45Z</time>
      </trkpt>
      <trkpt lat="50.650428934022784" lon="13.385381111875176">
        <ele>599</ele>
        <time>2026-08-29T08:07:46Z</time>
      </trkpt>
      <trkpt lat="50.650428850203753" lon="13.385321768000722">
        <ele>598</ele>
        <time>2026-08-29T08:07:47Z</time>
      </trkpt>
      <trkpt lat="50.650427676737309" lon="13.385256808251143">
        <ele>597</ele>
        <time>2026-08-29T08:07:48Z</time>
      </trkpt>
      <trkpt lat="50.650423150509596" lon="13.385208612307906">
        <ele>596</ele>
        <time>2026-08-29T08:07:49Z</time>
      </trkpt>
      <trkpt lat="50.650418708100915" lon="13.38515748269856">
        <ele>596</ele>
        <time>2026-08-29T08:07:50Z</time>
      </trkpt>
      <trkpt lat="50.650409907102585" lon="13.38511792011559">
        <ele>596</ele>
        <time>2026-08-29T08:07:51Z</time>
      </trkpt>
      <trkpt lat="50.650393310934305" lon="13.385098893195391">
        <ele>595</ele>
        <time>2026-08-29T08:07:52Z</time>
      </trkpt>
      <trkpt lat="50.650368919596076" lon="13.385067293420434">
        <ele>594</ele>
        <time>2026-08-29T08:07:53Z</time>
      </trkpt>
      <trkpt lat="50.650335559621453" lon="13.385027647018433">
        <ele>593</ele>
        <time>2026-08-29T08:07:54Z</time>
      </trkpt>
      <trkpt lat="50.650296248495579" lon="13.3849913533777">
        <ele>592</ele>
        <time>2026-08-29T08:07:55Z</time>
      </trkpt>
      <trkpt lat="50.650276299566031" lon="13.3849464263767">
        <ele>590</ele>
        <time>2026-08-29T08:07:56Z</time>
      </trkpt>
      <trkpt lat="50.650248136371374" lon="13.384884484112263">
        <ele>589</ele>
        <time>2026-08-29T08:07:57Z</time>
      </trkpt>
      <trkpt lat="50.6502156984061" lon="13.384815249592066">
        <ele>587</ele>
        <time>2026-08-29T08:07:58Z</time>
      </trkpt>
      <trkpt lat="50.650179237127304" lon="13.384731682017446">
        <ele>587</ele>
        <time>2026-08-29T08:07:59Z</time>
      </trkpt>
      <trkpt lat="50.650144787505269" lon="13.384654736146331">
        <ele>585</ele>
        <time>2026-08-29T08:08:00Z</time>
      </trkpt>
      <trkpt lat="50.650115283206105" lon="13.384581143036485">
        <ele>583</ele>
        <time>2026-08-29T08:08:01Z</time>
      </trkpt>
      <trkpt lat="50.650085024535656" lon="13.384516099467874">
        <ele>582</ele>
        <time>2026-08-29T08:08:02Z</time>
      </trkpt>
      <trkpt lat="50.650062309578061" lon="13.384465808048844">
        <ele>581</ele>
        <time>2026-08-29T08:08:03Z</time>
      </trkpt>
      <trkpt lat="50.650042193010449" lon="13.384400345385075">
        <ele>580</ele>
        <time>2026-08-29T08:08:04Z</time>
      </trkpt>
      <trkpt lat="50.650023501366377" lon="13.384333541616797">
        <ele>579</ele>
        <time>2026-08-29T08:08:05Z</time>
      </trkpt>
      <trkpt lat="50.650008749216795" lon="13.384256428107619">
        <ele>578</ele>
        <time>2026-08-29T08:08:06Z</time>
      </trkpt>
      <trkpt lat="50.650000870227814" lon="13.384171603247523">
        <ele>576</ele>
        <time>2026-08-29T08:08:07Z</time>
      </trkpt>
      <trkpt lat="50.649993410333991" lon="13.384078396484256">
        <ele>575</ele>
        <time>2026-08-29T08:08:08Z</time>
      </trkpt>
      <trkpt lat="50.649987710639834" lon="13.383970521390438">
        <ele>575</ele>
        <time>2026-08-29T08:08:09Z</time>
      </trkpt>
      <trkpt lat="50.649983016774058" lon="13.383856359869242">
        <ele>574</ele>
        <time>2026-08-29T08:08:10Z</time>
      </trkpt>
      <trkpt lat="50.649979244917631" lon="13.383733481168747">
        <ele>573</ele>
        <time>2026-08-29T08:08:11Z</time>
      </trkpt>
      <trkpt lat="50.649974131956697" lon="13.383633904159069">
        <ele>572</ele>
        <time>2026-08-29T08:08:12Z</time>
      </trkpt>
      <trkpt lat="50.649966169148684" lon="13.383521167561412">
        <ele>570</ele>
        <time>2026-08-29T08:08:13Z</time>
      </trkpt>
      <trkpt lat="50.649958960711956" lon="13.383401222527027">
        <ele>569</ele>
        <time>2026-08-29T08:08:14Z</time>
      </trkpt>
      <trkpt lat="50.649956949055195" lon="13.383275074884295">
        <ele>569</ele>
        <time>2026-08-29T08:08:15Z</time>
      </trkpt>
      <trkpt lat="50.649955440312624" lon="13.383150519803166">
        <ele>567</ele>
        <time>2026-08-29T08:08:16Z</time>
      </trkpt>
      <trkpt lat="50.649962313473225" lon="13.383044824004173">
        <ele>566</ele>
        <time>2026-08-29T08:08:17Z</time>
      </trkpt>
      <trkpt lat="50.649971282109618" lon="13.3829381223768">
        <ele>565</ele>
        <time>2026-08-29T08:08:18Z</time>
      </trkpt>
      <trkpt lat="50.649985363706946" lon="13.382838545367122">
        <ele>564</ele>
        <time>2026-08-29T08:08:19Z</time>
      </trkpt>
      <trkpt lat="50.6499894708395" lon="13.38274952955544">
        <ele>562</ele>
        <time>2026-08-29T08:08:20Z</time>
      </trkpt>
      <trkpt lat="50.649996092543006" lon="13.382675601169467">
        <ele>562</ele>
        <time>2026-08-29T08:08:21Z</time>
      </trkpt>
      <trkpt lat="50.650004725903273" lon="13.382626818493009">
        <ele>561</ele>
        <time>2026-08-29T08:08:22Z</time>
      </trkpt>
      <trkpt lat="50.650019645690918" lon="13.382591614499688">
        <ele>561</ele>
        <time>2026-08-29T08:08:23Z</time>
      </trkpt>
      <trkpt lat="50.650033140555024" lon="13.382582142949104">
        <ele>561</ele>
        <time>2026-08-29T08:08:24Z</time>
      </trkpt>
      <trkpt lat="50.650033308193088" lon="13.382579376921058">
        <ele>561</ele>
        <time>2026-08-29T08:08:25Z</time>
      </trkpt>
      <trkpt lat="50.650029871612787" lon="13.382576275616884">
        <ele>561</ele>
        <time>2026-08-29T08:08:26Z</time>
      </trkpt>
      <trkpt lat="50.650029620155692" lon="13.382576359435916">
        <ele>561</ele>
        <time>2026-08-29T08:08:27Z</time>
      </trkpt>
      <trkpt lat="50.650029787793756" lon="13.382576107978821">
        <ele>561</ele>
        <time>2026-08-29T08:08:28Z</time>
      </trkpt>
      <trkpt lat="50.650029452517629" lon="13.38257409632206">
        <ele>561</ele>
        <time>2026-08-29T08:08:29Z</time>
      </trkpt>
      <trkpt lat="50.650027943775058" lon="13.382570743560791">
        <ele>561</ele>
        <time>2026-08-29T08:08:30Z</time>
      </trkpt>
      <trkpt lat="50.65002660267055" lon="13.382570408284664">
        <ele>561</ele>
        <time>2026-08-29T08:08:31Z</time>
      </trkpt>
      <trkpt lat="50.650024423375726" lon="13.382568312808871">
        <ele>561</ele>
        <time>2026-08-29T08:08:32Z</time>
      </trkpt>
      <trkpt lat="50.650024255737662" lon="13.382568648084998">
        <ele>561</ele>
        <time>2026-08-29T08:08:33Z</time>
      </trkpt>
      <trkpt lat="50.650023920461535" lon="13.382569150999188">
        <ele>561</ele>
        <time>2026-08-29T08:08:34Z</time>
      </trkpt>
      <trkpt lat="50.650023920461535" lon="13.382569486275315">
        <ele>561</ele>
        <time>2026-08-29T08:08:35Z</time>
      </trkpt>
      <trkpt lat="50.650023920461535" lon="13.382569318637252">
        <ele>561</ele>
        <time>2026-08-29T08:08:36Z</time>
      </trkpt>
      <trkpt lat="50.650024088099599" lon="13.38256923481822">
        <ele>561</ele>
        <time>2026-08-29T08:08:37Z</time>
      </trkpt>
      <trkpt lat="50.650024171918631" lon="13.382569570094347">
        <ele>561</ele>
        <time>2026-08-29T08:08:38Z</time>
      </trkpt>
      <trkpt lat="50.650024507194757" lon="13.382569486275315">
        <ele>561</ele>
        <time>2026-08-29T08:08:39Z</time>
      </trkpt>
      <trkpt lat="50.650024674832821" lon="13.382569653913379">
        <ele>561</ele>
        <time>2026-08-29T08:08:40Z</time>
      </trkpt>
      <trkpt lat="50.650024674832821" lon="13.38256973773241">
        <ele>561</ele>
        <time>2026-08-29T08:08:41Z</time>
      </trkpt>
      <trkpt lat="50.650026937946677" lon="13.382571078836918">
        <ele>561</ele>
        <time>2026-08-29T08:08:42Z</time>
      </trkpt>
      <trkpt lat="50.650022160261869" lon="13.382572755217552">
        <ele>560</ele>
        <time>2026-08-29T08:08:43Z</time>
      </trkpt>
      <trkpt lat="50.650020819157362" lon="13.382571833208203">
        <ele>559</ele>
        <time>2026-08-29T08:08:44Z</time>
      </trkpt>
      <trkpt lat="50.650024758651853" lon="13.382567474618554">
        <ele>559</ele>
        <time>2026-08-29T08:08:45Z</time>
      </trkpt>
      <trkpt lat="50.650024171918631" lon="13.382571414113045">
        <ele>559</ele>
        <time>2026-08-29T08:08:46Z</time>
      </trkpt>
      <trkpt lat="50.650024088099599" lon="13.382571330294013">
        <ele>559</ele>
        <time>2026-08-29T08:08:47Z</time>
      </trkpt>
      <trkpt lat="50.650024088099599" lon="13.382571414113045">
        <ele>559</ele>
        <time>2026-08-29T08:08:48Z</time>
      </trkpt>
      <trkpt lat="50.650024171918631" lon="13.38257166557014">
        <ele>559</ele>
        <time>2026-08-29T08:08:49Z</time>
      </trkpt>
      <trkpt lat="50.650024339556694" lon="13.38257166557014">
        <ele>559</ele>
        <time>2026-08-29T08:08:50Z</time>
      </trkpt>
      <trkpt lat="50.650024088099599" lon="13.38256873190403">
        <ele>559</ele>
        <time>2026-08-29T08:08:51Z</time>
      </trkpt>
      <trkpt lat="50.650016041472554" lon="13.382565127685666">
        <ele>557</ele>
        <time>2026-08-29T08:08:52Z</time>
      </trkpt>
      <trkpt lat="50.650018388405442" lon="13.3825599309057">
        <ele>557</ele>
        <time>2026-08-29T08:08:53Z</time>
      </trkpt>
      <trkpt lat="50.650011263787746" lon="13.382545514032245">
        <ele>556</ele>
        <time>2026-08-29T08:08:54Z</time>
      </trkpt>
      <trkpt lat="50.649993661791086" lon="13.38250963948667">
        <ele>555</ele>
        <time>2026-08-29T08:08:55Z</time>
      </trkpt>
      <trkpt lat="50.649986285716295" lon="13.382450882345438">
        <ele>555</ele>
        <time>2026-08-29T08:08:56Z</time>
      </trkpt>
      <trkpt lat="50.649985279887915" lon="13.38238793425262">
        <ele>554</ele>
        <time>2026-08-29T08:08:57Z</time>
      </trkpt>
      <trkpt lat="50.649981591850519" lon="13.382315346971154">
        <ele>554</ele>
        <time>2026-08-29T08:08:58Z</time>
      </trkpt>
      <trkpt lat="50.649977149441838" lon="13.382238568738103">
        <ele>553</ele>
        <time>2026-08-29T08:08:59Z</time>
      </trkpt>
      <trkpt lat="50.649969689548016" lon="13.382154498249292">
        <ele>552</ele>
        <time>2026-08-29T08:09:00Z</time>
      </trkpt>
      <trkpt lat="50.649956949055195" lon="13.382070930674672">
        <ele>552</ele>
        <time>2026-08-29T08:09:01Z</time>
      </trkpt>
      <trkpt lat="50.649939179420471" lon="13.381994822993875">
        <ele>550</ele>
        <time>2026-08-29T08:09:02Z</time>
      </trkpt>
      <trkpt lat="50.649923086166382" lon="13.381912345066667">
        <ele>550</ele>
        <time>2026-08-29T08:09:03Z</time>
      </trkpt>
      <trkpt lat="50.649900790303946" lon="13.381825089454651">
        <ele>549</ele>
        <time>2026-08-29T08:09:04Z</time>
      </trkpt>
      <trkpt lat="50.649878159165382" lon="13.381730709224939">
        <ele>549</ele>
        <time>2026-08-29T08:09:05Z</time>
      </trkpt>
      <trkpt lat="50.649858545511961" lon="13.381637753918767">
        <ele>548</ele>
        <time>2026-08-29T08:09:06Z</time>
      </trkpt>
      <trkpt lat="50.64984044060111" lon="13.381545301526785">
        <ele>546</ele>
        <time>2026-08-29T08:09:07Z</time>
      </trkpt>
      <trkpt lat="50.649831891059875" lon="13.381449999287724">
        <ele>545</ele>
        <time>2026-08-29T08:09:08Z</time>
      </trkpt>
      <trkpt lat="50.649826526641846" lon="13.381339106708765">
        <ele>543</ele>
        <time>2026-08-29T08:09:09Z</time>
      </trkpt>
      <trkpt lat="50.649828119203448" lon="13.381232405081391">
        <ele>541</ele>
        <time>2026-08-29T08:09:10Z</time>
      </trkpt>
      <trkpt lat="50.649835495278239" lon="13.381131906062365">
        <ele>540</ele>
        <time>2026-08-29T08:09:11Z</time>
      </trkpt>
      <trkpt lat="50.649840775877237" lon="13.381029898300767">
        <ele>539</ele>
        <time>2026-08-29T08:09:12Z</time>
      </trkpt>
      <trkpt lat="50.649843290448189" lon="13.380936188623309">
        <ele>538</ele>
        <time>2026-08-29T08:09:13Z</time>
      </trkpt>
      <trkpt lat="50.649840189144015" lon="13.380843736231327">
        <ele>537</ele>
        <time>2026-08-29T08:09:14Z</time>
      </trkpt>
      <trkpt lat="50.649829460307956" lon="13.380754385143518">
        <ele>537</ele>
        <time>2026-08-29T08:09:15Z</time>
      </trkpt>
      <trkpt lat="50.649801380932331" lon="13.380681546404958">
        <ele>536</ele>
        <time>2026-08-29T08:09:16Z</time>
      </trkpt>
      <trkpt lat="50.649770200252533" lon="13.380623627454042">
        <ele>536</ele>
        <time>2026-08-29T08:09:17Z</time>
      </trkpt>
      <trkpt lat="50.649743881076574" lon="13.380576269701123">
        <ele>535</ele>
        <time>2026-08-29T08:09:18Z</time>
      </trkpt>
      <trkpt lat="50.649726362898946" lon="13.380537461489439">
        <ele>534</ele>
        <time>2026-08-29T08:09:19Z</time>
      </trkpt>
      <trkpt lat="50.649719322100282" lon="13.380484152585268">
        <ele>533</ele>
        <time>2026-08-29T08:09:20Z</time>
      </trkpt>
      <trkpt lat="50.649727368727326" lon="13.38041290640831">
        <ele>533</ele>
        <time>2026-08-29T08:09:21Z</time>
      </trkpt>
      <trkpt lat="50.64974270761013" lon="13.380337972193956">
        <ele>532</ele>
        <time>2026-08-29T08:09:22Z</time>
      </trkpt>
      <trkpt lat="50.649758549407125" lon="13.380271503701806">
        <ele>532</ele>
        <time>2026-08-29T08:09:23Z</time>
      </trkpt>
      <trkpt lat="50.649772295728326" lon="13.380196820944548">
        <ele>532</ele>
        <time>2026-08-29T08:09:24Z</time>
      </trkpt>
      <trkpt lat="50.649781012907624" lon="13.38011434301734">
        <ele>532</ele>
        <time>2026-08-29T08:09:25Z</time>
      </trkpt>
      <trkpt lat="50.649789730086923" lon="13.380027087405324">
        <ele>531</ele>
        <time>2026-08-29T08:09:26Z</time>
      </trkpt>
      <trkpt lat="50.64979987218976" lon="13.379943855106831">
        <ele>531</ele>
        <time>2026-08-29T08:09:27Z</time>
      </trkpt>
      <trkpt lat="50.649812361225486" lon="13.379859197884798">
        <ele>531</ele>
        <time>2026-08-29T08:09:28Z</time>
      </trkpt>
      <trkpt lat="50.649829544126987" lon="13.379773451015353">
        <ele>531</ele>
        <time>2026-08-29T08:09:29Z</time>
      </trkpt>
      <trkpt lat="50.649843877181411" lon="13.379674879834056">
        <ele>532</ele>
        <time>2026-08-29T08:09:30Z</time>
      </trkpt>
      <trkpt lat="50.649858210235834" lon="13.379581002518535">
        <ele>532</ele>
        <time>2026-08-29T08:09:31Z</time>
      </trkpt>
      <trkpt lat="50.64987463876605" lon="13.379480084404349">
        <ele>531</ele>
        <time>2026-08-29T08:09:32Z</time>
      </trkpt>
      <trkpt lat="50.649889977648854" lon="13.379375310614705">
        <ele>531</ele>
        <time>2026-08-29T08:09:33Z</time>
      </trkpt>
      <trkpt lat="50.649905232712626" lon="13.379277409985662">
        <ele>530</ele>
        <time>2026-08-29T08:09:34Z</time>
      </trkpt>
      <trkpt lat="50.649927528575063" lon="13.379169618710876">
        <ele>530</ele>
        <time>2026-08-29T08:09:35Z</time>
      </trkpt>
      <trkpt lat="50.649948231875896" lon="13.379052355885506">
        <ele>530</ele>
        <time>2026-08-29T08:09:36Z</time>
      </trkpt>
      <trkpt lat="50.649974551051855" lon="13.378943391144276">
        <ele>530</ele>
        <time>2026-08-29T08:09:37Z</time>
      </trkpt>
      <trkpt lat="50.650003971531987" lon="13.37884146720171">
        <ele>530</ele>
        <time>2026-08-29T08:09:38Z</time>
      </trkpt>
      <trkpt lat="50.650039175525308" lon="13.378742728382349">
        <ele>529</ele>
        <time>2026-08-29T08:09:39Z</time>
      </trkpt>
      <trkpt lat="50.650075301527977" lon="13.378639211878181">
        <ele>529</ele>
        <time>2026-08-29T08:09:40Z</time>
      </trkpt>
      <trkpt lat="50.650112181901932" lon="13.378544077277184">
        <ele>528</ele>
        <time>2026-08-29T08:09:41Z</time>
      </trkpt>
      <trkpt lat="50.650152331218123" lon="13.37844617664814">
        <ele>528</ele>
        <time>2026-08-29T08:09:42Z</time>
      </trkpt>
      <trkpt lat="50.650190468877554" lon="13.378351461142302">
        <ele>528</ele>
        <time>2026-08-29T08:09:43Z</time>
      </trkpt>
      <trkpt lat="50.650224331766367" lon="13.378253728151321">
        <ele>528</ele>
        <time>2026-08-29T08:09:44Z</time>
      </trkpt>
      <trkpt lat="50.65025869756937" lon="13.378156246617436">
        <ele>528</ele>
        <time>2026-08-29T08:09:45Z</time>
      </trkpt>
      <trkpt lat="50.650294907391071" lon="13.378070499747992">
        <ele>528</ele>
        <time>2026-08-29T08:09:46Z</time>
      </trkpt>
      <trkpt lat="50.650329608470201" lon="13.377977376803756">
        <ele>528</ele>
        <time>2026-08-29T08:09:47Z</time>
      </trkpt>
      <trkpt lat="50.650361459702253" lon="13.377892049029469">
        <ele>528</ele>
        <time>2026-08-29T08:09:48Z</time>
      </trkpt>
      <trkpt lat="50.650391131639481" lon="13.377813762053847">
        <ele>528</ele>
        <time>2026-08-29T08:09:49Z</time>
      </trkpt>
      <trkpt lat="50.650430358946323" lon="13.377745449542999">
        <ele>528</ele>
        <time>2026-08-29T08:09:50Z</time>
      </trkpt>
      <trkpt lat="50.650461791083217" lon="13.377658948302269">
        <ele>528</ele>
        <time>2026-08-29T08:09:51Z</time>
      </trkpt>
      <trkpt lat="50.650492971763015" lon="13.377584768459201">
        <ele>528</ele>
        <time>2026-08-29T08:09:52Z</time>
      </trkpt>
      <trkpt lat="50.650527589023113" lon="13.377511845901608">
        <ele>528</ele>
        <time>2026-08-29T08:09:53Z</time>
      </trkpt>
      <trkpt lat="50.650558266788721" lon="13.377429200336337">
        <ele>528</ele>
        <time>2026-08-29T08:09:54Z</time>
      </trkpt>
      <trkpt lat="50.650586010888219" lon="13.377355858683586">
        <ele>528</ele>
        <time>2026-08-29T08:09:55Z</time>
      </trkpt>
      <trkpt lat="50.650614760816097" lon="13.377275057137012">
        <ele>529</ele>
        <time>2026-08-29T08:09:56Z</time>
      </trkpt>
      <trkpt lat="50.650646528229117" lon="13.377200458198786">
        <ele>529</ele>
        <time>2026-08-29T08:09:57Z</time>
      </trkpt>
      <trkpt lat="50.65067645162344" lon="13.37712250649929">
        <ele>529</ele>
        <time>2026-08-29T08:09:58Z</time>
      </trkpt>
      <trkpt lat="50.650705872103572" lon="13.377057295292616">
        <ele>529</ele>
        <time>2026-08-29T08:09:59Z</time>
      </trkpt>
      <trkpt lat="50.650731101632118" lon="13.376994095742702">
        <ele>529</ele>
        <time>2026-08-29T08:10:00Z</time>
      </trkpt>
      <trkpt lat="50.650747697800398" lon="13.376939445734024">
        <ele>529</ele>
        <time>2026-08-29T08:10:01Z</time>
      </trkpt>
      <trkpt lat="50.650770580396056" lon="13.376897871494293">
        <ele>529</ele>
        <time>2026-08-29T08:10:02Z</time>
      </trkpt>
      <trkpt lat="50.650799665600061" lon="13.376864595338702">
        <ele>529</ele>
        <time>2026-08-29T08:10:03Z</time>
      </trkpt>
      <trkpt lat="50.650827493518591" lon="13.37682930752635">
        <ele>529</ele>
        <time>2026-08-29T08:10:04Z</time>
      </trkpt>
      <trkpt lat="50.650850459933281" lon="13.376794354990125">
        <ele>529</ele>
        <time>2026-08-29T08:10:05Z</time>
      </trkpt>
      <trkpt lat="50.650871582329273" lon="13.376758564263582">
        <ele>529</ele>
        <time>2026-08-29T08:10:06Z</time>
      </trkpt>
      <trkpt lat="50.650893040001392" lon="13.376731490716338">
        <ele>530</ele>
        <time>2026-08-29T08:10:07Z</time>
      </trkpt>
      <trkpt lat="50.650908630341291" lon="13.376707853749394">
        <ele>530</ele>
        <time>2026-08-29T08:10:08Z</time>
      </trkpt>
      <trkpt lat="50.650925058871508" lon="13.376682288944721">
        <ele>530</ele>
        <time>2026-08-29T08:10:09Z</time>
      </trkpt>
      <trkpt lat="50.650939140468836" lon="13.376652365550399">
        <ele>530</ele>
        <time>2026-08-29T08:10:10Z</time>
      </trkpt>
      <trkpt lat="50.650948528200388" lon="13.376627722755075">
        <ele>530</ele>
        <time>2026-08-29T08:10:11Z</time>
      </trkpt>
      <trkpt lat="50.650959257036448" lon="13.376605343073606">
        <ele>530</ele>
        <time>2026-08-29T08:10:12Z</time>
      </trkpt>
      <trkpt lat="50.650964537635446" lon="13.376591764390469">
        <ele>530</ele>
        <time>2026-08-29T08:10:13Z</time>
      </trkpt>
      <trkpt lat="50.650970991700888" lon="13.376583298668265">
        <ele>530</ele>
        <time>2026-08-29T08:10:14Z</time>
      </trkpt>
      <trkpt lat="50.650976859033108" lon="13.376575671136379">
        <ele>530</ele>
        <time>2026-08-29T08:10:15Z</time>
      </trkpt>
      <trkpt lat="50.650981301441789" lon="13.376566618680954">
        <ele>530</ele>
        <time>2026-08-29T08:10:16Z</time>
      </trkpt>
      <trkpt lat="50.650977613404393" lon="13.37656888179481">
        <ele>530</ele>
        <time>2026-08-29T08:10:17Z</time>
      </trkpt>
      <trkpt lat="50.650979541242123" lon="13.376577096059918">
        <ele>530</ele>
        <time>2026-08-29T08:10:18Z</time>
      </trkpt>
      <trkpt lat="50.650979541242123" lon="13.37657717987895">
        <ele>530</ele>
        <time>2026-08-29T08:10:19Z</time>
      </trkpt>
      <trkpt lat="50.650979457423091" lon="13.376577347517014">
        <ele>530</ele>
        <time>2026-08-29T08:10:20Z</time>
      </trkpt>
      <trkpt lat="50.650979541242123" lon="13.376577347517014">
        <ele>530</ele>
        <time>2026-08-29T08:10:21Z</time>
      </trkpt>
      <trkpt lat="50.650979625061154" lon="13.37657717987895">
        <ele>530</ele>
        <time>2026-08-29T08:10:22Z</time>
      </trkpt>
      <trkpt lat="50.650979625061154" lon="13.376577096059918">
        <ele>530</ele>
        <time>2026-08-29T08:10:23Z</time>
      </trkpt>
      <trkpt lat="50.650979708880186" lon="13.376577012240887">
        <ele>530</ele>
        <time>2026-08-29T08:10:24Z</time>
      </trkpt>
      <trkpt lat="50.650979792699218" lon="13.376576928421855">
        <ele>530</ele>
        <time>2026-08-29T08:10:25Z</time>
      </trkpt>
      <trkpt lat="50.650979960337281" lon="13.376576760783792">
        <ele>530</ele>
        <time>2026-08-29T08:10:26Z</time>
      </trkpt>
      <trkpt lat="50.650980211794376" lon="13.376577012240887">
        <ele>530</ele>
        <time>2026-08-29T08:10:27Z</time>
      </trkpt>
      <trkpt lat="50.650980211794376" lon="13.376577012240887">
        <ele>530</ele>
        <time>2026-08-29T08:10:28Z</time>
      </trkpt>
      <trkpt lat="50.65098037943244" lon="13.376576760783792">
        <ele>530</ele>
        <time>2026-08-29T08:10:29Z</time>
      </trkpt>
      <trkpt lat="50.650980798527598" lon="13.376577012240887">
        <ele>530</ele>
        <time>2026-08-29T08:10:30Z</time>
      </trkpt>
      <trkpt lat="50.650981049984694" lon="13.376577012240887">
        <ele>530</ele>
        <time>2026-08-29T08:10:31Z</time>
      </trkpt>
      <trkpt lat="50.650981301441789" lon="13.376577096059918">
        <ele>530</ele>
        <time>2026-08-29T08:10:32Z</time>
      </trkpt>
      <trkpt lat="50.650981469079852" lon="13.376577096059918">
        <ele>530</ele>
        <time>2026-08-29T08:10:33Z</time>
      </trkpt>
      <trkpt lat="50.650981469079852" lon="13.376577012240887">
        <ele>530</ele>
        <time>2026-08-29T08:10:34Z</time>
      </trkpt>
      <trkpt lat="50.650981301441789" lon="13.37657667696476">
        <ele>530</ele>
        <time>2026-08-29T08:10:35Z</time>
      </trkpt>
      <trkpt lat="50.650976691395044" lon="13.376571061089635">
        <ele>529</ele>
        <time>2026-08-29T08:10:36Z</time>
      </trkpt>
      <trkpt lat="50.650974428281188" lon="13.376569971442223">
        <ele>530</ele>
        <time>2026-08-29T08:10:37Z</time>
      </trkpt>
      <trkpt lat="50.650972416624427" lon="13.37656837888062">
        <ele>530</ele>
        <time>2026-08-29T08:10:38Z</time>
      </trkpt>
      <trkpt lat="50.650975937023759" lon="13.376570474356413">
        <ele>529</ele>
        <time>2026-08-29T08:10:39Z</time>
      </trkpt>
      <trkpt lat="50.650972919538617" lon="13.376571899279952">
        <ele>529</ele>
        <time>2026-08-29T08:10:40Z</time>
      </trkpt>
      <trkpt lat="50.650972248986363" lon="13.376574162393808">
        <ele>529</ele>
        <time>2026-08-29T08:10:41Z</time>
      </trkpt>
      <trkpt lat="50.650976942852139" lon="13.376575084403157">
        <ele>529</ele>
        <time>2026-08-29T08:10:42Z</time>
      </trkpt>
      <trkpt lat="50.650975350290537" lon="13.376556979492307">
        <ele>529</ele>
        <time>2026-08-29T08:10:43Z</time>
      </trkpt>
      <trkpt lat="50.650977026671171" lon="13.376543736085296">
        <ele>529</ele>
        <time>2026-08-29T08:10:44Z</time>
      </trkpt>
      <trkpt lat="50.650985576212406" lon="13.376529486849904">
        <ele>529</ele>
        <time>2026-08-29T08:10:45Z</time>
      </trkpt>
      <trkpt lat="50.650986414402723" lon="13.376511884853244">
        <ele>529</ele>
        <time>2026-08-29T08:10:46Z</time>
      </trkpt>
      <trkpt lat="50.650992868468165" lon="13.376492438837886">
        <ele>529</ele>
        <time>2026-08-29T08:10:47Z</time>
      </trkpt>
      <trkpt lat="50.650999322533607" lon="13.376474836841226">
        <ele>529</ele>
        <time>2026-08-29T08:10:48Z</time>
      </trkpt>
      <trkpt lat="50.651009548455477" lon="13.376451451331377">
        <ele>529</ele>
        <time>2026-08-29T08:10:49Z</time>
      </trkpt>
      <trkpt lat="50.651019271463156" lon="13.376442734152079">
        <ele>528</ele>
        <time>2026-08-29T08:10:50Z</time>
      </trkpt>
      <trkpt lat="50.651029581204057" lon="13.376426724717021">
        <ele>528</ele>
        <time>2026-08-29T08:10:51Z</time>
      </trkpt>
      <trkpt lat="50.65104047767818" lon="13.376422701403499">
        <ele>528</ele>
        <time>2026-08-29T08:10:52Z</time>
      </trkpt>
      <trkpt lat="50.651053218171" lon="13.376416163519025">
        <ele>528</ele>
        <time>2026-08-29T08:10:53Z</time>
      </trkpt>
      <trkpt lat="50.651064617559314" lon="13.376404093578458">
        <ele>528</ele>
        <time>2026-08-29T08:10:54Z</time>
      </trkpt>
      <trkpt lat="50.651077441871166" lon="13.376388419419527">
        <ele>528</ele>
        <time>2026-08-29T08:10:55Z</time>
      </trkpt>
      <trkpt lat="50.651089930906892" lon="13.376365788280964">
        <ele>528</ele>
        <time>2026-08-29T08:10:56Z</time>
      </trkpt>
      <trkpt lat="50.651101749390364" lon="13.376340977847576">
        <ele>528</ele>
        <time>2026-08-29T08:10:57Z</time>
      </trkpt>
      <trkpt lat="50.65111524425447" lon="13.376321364194155">
        <ele>527</ele>
        <time>2026-08-29T08:10:58Z</time>
      </trkpt>
      <trkpt lat="50.651136618107557" lon="13.376300577074289">
        <ele>528</ele>
        <time>2026-08-29T08:10:59Z</time>
      </trkpt>
      <trkpt lat="50.651156818494201" lon="13.376280711963773">
        <ele>528</ele>
        <time>2026-08-29T08:11:00Z</time>
      </trkpt>
      <trkpt lat="50.651175761595368" lon="13.37625808082521">
        <ele>528</ele>
        <time>2026-08-29T08:11:01Z</time>
      </trkpt>
      <trkpt lat="50.651194201782346" lon="13.376228408887982">
        <ele>528</ele>
        <time>2026-08-29T08:11:02Z</time>
      </trkpt>
      <trkpt lat="50.651211803779006" lon="13.376200832426548">
        <ele>528</ele>
        <time>2026-08-29T08:11:03Z</time>
      </trkpt>
      <trkpt lat="50.651236111298203" lon="13.376164706423879">
        <ele>528</ele>
        <time>2026-08-29T08:11:04Z</time>
      </trkpt>
      <trkpt lat="50.651259077712893" lon="13.37613008916378">
        <ele>528</ele>
        <time>2026-08-29T08:11:05Z</time>
      </trkpt>
      <trkpt lat="50.651285899803042" lon="13.376098573207855">
        <ele>528</ele>
        <time>2026-08-29T08:11:06Z</time>
      </trkpt>
      <trkpt lat="50.651310291141272" lon="13.376067224889994">
        <ele>528</ele>
        <time>2026-08-29T08:11:07Z</time>
      </trkpt>
      <trkpt lat="50.651332251727581" lon="13.376025399193168">
        <ele>528</ele>
        <time>2026-08-29T08:11:08Z</time>
      </trkpt>
      <trkpt lat="50.651354799047112" lon="13.375991201028228">
        <ele>529</ele>
        <time>2026-08-29T08:11:09Z</time>
      </trkpt>
      <trkpt lat="50.651374496519566" lon="13.375957505777478">
        <ele>529</ele>
        <time>2026-08-29T08:11:10Z</time>
      </trkpt>
      <trkpt lat="50.651396457105875" lon="13.375923642888665">
        <ele>529</ele>
        <time>2026-08-29T08:11:11Z</time>
      </trkpt>
      <trkpt lat="50.651415986940265" lon="13.375887097790837">
        <ele>529</ele>
        <time>2026-08-29T08:11:12Z</time>
      </trkpt>
      <trkpt lat="50.651428643614054" lon="13.375847367569804">
        <ele>529</ele>
        <time>2026-08-29T08:11:13Z</time>
      </trkpt>
      <trkpt lat="50.651442473754287" lon="13.375811576843262">
        <ele>529</ele>
        <time>2026-08-29T08:11:14Z</time>
      </trkpt>
      <trkpt lat="50.651447251439095" lon="13.375773020088673">
        <ele>529</ele>
        <time>2026-08-29T08:11:15Z</time>
      </trkpt>
      <trkpt lat="50.651447419077158" lon="13.375733541324735">
        <ele>528</ele>
        <time>2026-08-29T08:11:16Z</time>
      </trkpt>
      <trkpt lat="50.651443982496858" lon="13.375680232420564">
        <ele>528</ele>
        <time>2026-08-29T08:11:17Z</time>
      </trkpt>
      <trkpt lat="50.651442222297192" lon="13.375626672059298">
        <ele>528</ele>
        <time>2026-08-29T08:11:18Z</time>
      </trkpt>
      <trkpt lat="50.651443311944604" lon="13.375566238537431">
        <ele>527</ele>
        <time>2026-08-29T08:11:19Z</time>
      </trkpt>
      <trkpt lat="50.651430068537593" lon="13.375512259081006">
        <ele>527</ele>
        <time>2026-08-29T08:11:20Z</time>
      </trkpt>
      <trkpt lat="50.651413137093186" lon="13.375465404242277">
        <ele>527</ele>
        <time>2026-08-29T08:11:21Z</time>
      </trkpt>
      <trkpt lat="50.651401653885841" lon="13.375420058146119">
        <ele>527</ele>
        <time>2026-08-29T08:11:22Z</time>
      </trkpt>
      <trkpt lat="50.651389332488179" lon="13.375379322096705">
        <ele>527</ele>
        <time>2026-08-29T08:11:23Z</time>
      </trkpt>
      <trkpt lat="50.651379693299532" lon="13.37534923106432">
        <ele>528</ele>
        <time>2026-08-29T08:11:24Z</time>
      </trkpt>
      <trkpt lat="50.651374580338597" lon="13.375320816412568">
        <ele>528</ele>
        <time>2026-08-29T08:11:25Z</time>
      </trkpt>
      <trkpt lat="50.651370892301202" lon="13.375288546085358">
        <ele>528</ele>
        <time>2026-08-29T08:11:26Z</time>
      </trkpt>
      <trkpt lat="50.651364102959633" lon="13.375259125605226">
        <ele>528</ele>
        <time>2026-08-29T08:11:27Z</time>
      </trkpt>
      <trkpt lat="50.651352955028415" lon="13.375239092856646">
        <ele>528</ele>
        <time>2026-08-29T08:11:28Z</time>
      </trkpt>
      <trkpt lat="50.651348931714892" lon="13.375210845842957">
        <ele>528</ele>
        <time>2026-08-29T08:11:29Z</time>
      </trkpt>
      <trkpt lat="50.651343651115894" lon="13.375181928277016">
        <ele>528</ele>
        <time>2026-08-29T08:11:30Z</time>
      </trkpt>
      <trkpt lat="50.65134197473526" lon="13.375158542767167">
        <ele>528</ele>
        <time>2026-08-29T08:11:31Z</time>
      </trkpt>
      <trkpt lat="50.651340130716562" lon="13.375124428421259">
        <ele>528</ele>
        <time>2026-08-29T08:11:32Z</time>
      </trkpt>
      <trkpt lat="50.651342058554292" lon="13.375089559704065">
        <ele>528</ele>
        <time>2026-08-29T08:11:33Z</time>
      </trkpt>
      <trkpt lat="50.651341807097197" lon="13.375049326568842">
        <ele>528</ele>
        <time>2026-08-29T08:11:34Z</time>
      </trkpt>
      <trkpt lat="50.651335939764977" lon="13.37501454167068">
        <ele>528</ele>
        <time>2026-08-29T08:11:35Z</time>
      </trkpt>
      <trkpt lat="50.65133317373693" lon="13.37497640401125">
        <ele>528</ele>
        <time>2026-08-29T08:11:36Z</time>
      </trkpt>
      <trkpt lat="50.65132973715663" lon="13.374942122027278">
        <ele>528</ele>
        <time>2026-08-29T08:11:37Z</time>
      </trkpt>
      <trkpt lat="50.651328815147281" lon="13.374899039044976">
        <ele>528</ele>
        <time>2026-08-29T08:11:38Z</time>
      </trkpt>
      <trkpt lat="50.651323702186346" lon="13.374849418178201">
        <ele>528</ele>
        <time>2026-08-29T08:11:39Z</time>
      </trkpt>
      <trkpt lat="50.651320181787014" lon="13.374799210578203">
        <ele>528</ele>
        <time>2026-08-29T08:11:40Z</time>
      </trkpt>
      <trkpt lat="50.651320852339268" lon="13.374746823683381">
        <ele>528</ele>
        <time>2026-08-29T08:11:41Z</time>
      </trkpt>
      <trkpt lat="50.651317248120904" lon="13.374697873368859">
        <ele>528</ele>
        <time>2026-08-29T08:11:42Z</time>
      </trkpt>
      <trkpt lat="50.651317164301872" lon="13.374641546979547">
        <ele>528</ele>
        <time>2026-08-29T08:11:43Z</time>
      </trkpt>
      <trkpt lat="50.651318589225411" lon="13.37458455003798">
        <ele>528</ele>
        <time>2026-08-29T08:11:44Z</time>
      </trkpt>
      <trkpt lat="50.651314901188016" lon="13.374531073495746">
        <ele>529</ele>
        <time>2026-08-29T08:11:45Z</time>
      </trkpt>
      <trkpt lat="50.651314482092857" lon="13.374468879774213">
        <ele>529</ele>
        <time>2026-08-29T08:11:46Z</time>
      </trkpt>
      <trkpt lat="50.651308866217732" lon="13.374388078227639">
        <ele>529</ele>
        <time>2026-08-29T08:11:47Z</time>
      </trkpt>
      <trkpt lat="50.651312470436096" lon="13.374333092942834">
        <ele>529</ele>
        <time>2026-08-29T08:11:48Z</time>
      </trkpt>
      <trkpt lat="50.651310039684176" lon="13.374267043545842">
        <ele>529</ele>
        <time>2026-08-29T08:11:49Z</time>
      </trkpt>
      <trkpt lat="50.651306938380003" lon="13.374210298061371">
        <ele>529</ele>
        <time>2026-08-29T08:11:50Z</time>
      </trkpt>
      <trkpt lat="50.651303753256798" lon="13.37414919398725">
        <ele>530</ele>
        <time>2026-08-29T08:11:51Z</time>
      </trkpt>
      <trkpt lat="50.651302747428417" lon="13.374077612534165">
        <ele>530</ele>
        <time>2026-08-29T08:11:52Z</time>
      </trkpt>
      <trkpt lat="50.651300819590688" lon="13.374009467661381">
        <ele>530</ele>
        <time>2026-08-29T08:11:53Z</time>
      </trkpt>
      <trkpt lat="50.651303501799703" lon="13.373941741883755">
        <ele>530</ele>
        <time>2026-08-29T08:11:54Z</time>
      </trkpt>
      <trkpt lat="50.651308950036764" lon="13.373886169865727">
        <ele>530</ele>
        <time>2026-08-29T08:11:55Z</time>
      </trkpt>
      <trkpt lat="50.651300987228751" lon="13.37381886318326">
        <ele>531</ele>
        <time>2026-08-29T08:11:56Z</time>
      </trkpt>
      <trkpt lat="50.651302998885512" lon="13.37375826202333">
        <ele>530</ele>
        <time>2026-08-29T08:11:57Z</time>
      </trkpt>
      <trkpt lat="50.651301071047783" lon="13.373685590922832">
        <ele>531</ele>
        <time>2026-08-29T08:11:58Z</time>
      </trkpt>
      <trkpt lat="50.651292772963643" lon="13.373611327260733">
        <ele>530</ele>
        <time>2026-08-29T08:11:59Z</time>
      </trkpt>
      <trkpt lat="50.651281541213393" lon="13.373540500178933">
        <ele>531</ele>
        <time>2026-08-29T08:12:00Z</time>
      </trkpt>
      <trkpt lat="50.651268549263477" lon="13.373463386669755">
        <ele>530</ele>
        <time>2026-08-29T08:12:01Z</time>
      </trkpt>
      <trkpt lat="50.651258155703545" lon="13.373393816873431">
        <ele>530</ele>
        <time>2026-08-29T08:12:02Z</time>
      </trkpt>
      <trkpt lat="50.651244660839438" lon="13.373327851295471">
        <ele>530</ele>
        <time>2026-08-29T08:12:03Z</time>
      </trkpt>
      <trkpt lat="50.651234099641442" lon="13.373255850747228">
        <ele>530</ele>
        <time>2026-08-29T08:12:04Z</time>
      </trkpt>
      <trkpt lat="50.651225801557302" lon="13.373186616227031">
        <ele>530</ele>
        <time>2026-08-29T08:12:05Z</time>
      </trkpt>
      <trkpt lat="50.651223957538605" lon="13.3731157053262">
        <ele>530</ele>
        <time>2026-08-29T08:12:06Z</time>
      </trkpt>
      <trkpt lat="50.651226807385683" lon="13.373042782768607">
        <ele>530</ele>
        <time>2026-08-29T08:12:07Z</time>
      </trkpt>
      <trkpt lat="50.651224460452795" lon="13.372973296791315">
        <ele>530</ele>
        <time>2026-08-29T08:12:08Z</time>
      </trkpt>
      <trkpt lat="50.651230243965983" lon="13.372901380062103">
        <ele>530</ele>
        <time>2026-08-29T08:12:09Z</time>
      </trkpt>
      <trkpt lat="50.651229908689857" lon="13.372837761417031">
        <ele>529</ele>
        <time>2026-08-29T08:12:10Z</time>
      </trkpt>
      <trkpt lat="50.651228902861476" lon="13.372772801667452">
        <ele>530</ele>
        <time>2026-08-29T08:12:11Z</time>
      </trkpt>
      <trkpt lat="50.651226891204715" lon="13.372706165537238">
        <ele>530</ele>
        <time>2026-08-29T08:12:12Z</time>
      </trkpt>
      <trkpt lat="50.65122663974762" lon="13.372648246586323">
        <ele>530</ele>
        <time>2026-08-29T08:12:13Z</time>
      </trkpt>
      <trkpt lat="50.651223538443446" lon="13.372590411454439">
        <ele>530</ele>
        <time>2026-08-29T08:12:14Z</time>
      </trkpt>
      <trkpt lat="50.651218090206385" lon="13.372533246874809">
        <ele>530</ele>
        <time>2026-08-29T08:12:15Z</time>
      </trkpt>
      <trkpt lat="50.65121834166348" lon="13.372474489733577">
        <ele>530</ele>
        <time>2026-08-29T08:12:16Z</time>
      </trkpt>
      <trkpt lat="50.651215659454465" lon="13.372408859431744">
        <ele>530</ele>
        <time>2026-08-29T08:12:17Z</time>
      </trkpt>
      <trkpt lat="50.651216078549623" lon="13.372344234958291">
        <ele>531</ele>
        <time>2026-08-29T08:12:18Z</time>
      </trkpt>
      <trkpt lat="50.651218760758638" lon="13.372278520837426">
        <ele>531</ele>
        <time>2026-08-29T08:12:19Z</time>
      </trkpt>
      <trkpt lat="50.651220269501209" lon="13.372215069830418">
        <ele>530</ele>
        <time>2026-08-29T08:12:20Z</time>
      </trkpt>
      <trkpt lat="50.651221107691526" lon="13.37215606123209">
        <ele>531</ele>
        <time>2026-08-29T08:12:21Z</time>
      </trkpt>
      <trkpt lat="50.651224292814732" lon="13.372094035148621">
        <ele>531</ele>
        <time>2026-08-29T08:12:22Z</time>
      </trkpt>
      <trkpt lat="50.651228902861476" lon="13.372031422331929">
        <ele>531</ele>
        <time>2026-08-29T08:12:23Z</time>
      </trkpt>
      <trkpt lat="50.651230411604047" lon="13.371985992416739">
        <ele>532</ele>
        <time>2026-08-29T08:12:24Z</time>
      </trkpt>
      <trkpt lat="50.651234518736601" lon="13.371935449540615">
        <ele>532</ele>
        <time>2026-08-29T08:12:25Z</time>
      </trkpt>
      <trkpt lat="50.651243319734931" lon="13.37188733741641">
        <ele>532</ele>
        <time>2026-08-29T08:12:26Z</time>
      </trkpt>
      <trkpt lat="50.651251701638103" lon="13.371843751519918">
        <ele>532</ele>
        <time>2026-08-29T08:12:27Z</time>
      </trkpt>
      <trkpt lat="50.65126963891089" lon="13.371793879196048">
        <ele>533</ele>
        <time>2026-08-29T08:12:28Z</time>
      </trkpt>
      <trkpt lat="50.651285061612725" lon="13.371750796213746">
        <ele>533</ele>
        <time>2026-08-29T08:12:29Z</time>
      </trkpt>
      <trkpt lat="50.651297466829419" lon="13.371699163690209">
        <ele>533</ele>
        <time>2026-08-29T08:12:30Z</time>
      </trkpt>
      <trkpt lat="50.651308614760637" lon="13.371654907241464">
        <ele>533</ele>
        <time>2026-08-29T08:12:31Z</time>
      </trkpt>
      <trkpt lat="50.651321522891521" lon="13.371614506468177">
        <ele>533</ele>
        <time>2026-08-29T08:12:32Z</time>
      </trkpt>
      <trkpt lat="50.651331078261137" lon="13.371571088209748">
        <ele>533</ele>
        <time>2026-08-29T08:12:33Z</time>
      </trkpt>
      <trkpt lat="50.651339376345277" lon="13.371532950550318">
        <ele>533</ele>
        <time>2026-08-29T08:12:34Z</time>
      </trkpt>
      <trkpt lat="50.65134541131556" lon="13.371495734900236">
        <ele>533</ele>
        <time>2026-08-29T08:12:35Z</time>
      </trkpt>
      <trkpt lat="50.651349434629083" lon="13.37145977653563">
        <ele>533</ele>
        <time>2026-08-29T08:12:36Z</time>
      </trkpt>
      <trkpt lat="50.651352871209383" lon="13.371431948617101">
        <ele>534</ele>
        <time>2026-08-29T08:12:37Z</time>
      </trkpt>
      <trkpt lat="50.651360834017396" lon="13.37140747345984">
        <ele>534</ele>
        <time>2026-08-29T08:12:38Z</time>
      </trkpt>
      <trkpt lat="50.651367958635092" lon="13.371378136798739">
        <ele>534</ele>
        <time>2026-08-29T08:12:39Z</time>
      </trkpt>
      <trkpt lat="50.651376927271485" lon="13.371351314708591">
        <ele>534</ele>
        <time>2026-08-29T08:12:40Z</time>
      </trkpt>
      <trkpt lat="50.651383548974991" lon="13.371329437941313">
        <ele>535</ele>
        <time>2026-08-29T08:12:41Z</time>
      </trkpt>
      <trkpt lat="50.651393188163638" lon="13.371303621679544">
        <ele>535</ele>
        <time>2026-08-29T08:12:42Z</time>
      </trkpt>
      <trkpt lat="50.651402827352285" lon="13.371272524818778">
        <ele>535</ele>
        <time>2026-08-29T08:12:43Z</time>
      </trkpt>
      <trkpt lat="50.65141087397933" lon="13.371245283633471">
        <ele>535</ele>
        <time>2026-08-29T08:12:44Z</time>
      </trkpt>
      <trkpt lat="50.65141431055963" lon="13.371217623353004">
        <ele>536</ele>
        <time>2026-08-29T08:12:45Z</time>
      </trkpt>
      <trkpt lat="50.651415400207043" lon="13.371194154024124">
        <ele>536</ele>
        <time>2026-08-29T08:12:46Z</time>
      </trkpt>
      <trkpt lat="50.651422860100865" lon="13.371159536764026">
        <ele>536</ele>
        <time>2026-08-29T08:12:47Z</time>
      </trkpt>
      <trkpt lat="50.651437109336257" lon="13.371114023029804">
        <ele>537</ele>
        <time>2026-08-29T08:12:48Z</time>
      </trkpt>
      <trkpt lat="50.651451861485839" lon="13.371057445183396">
        <ele>537</ele>
        <time>2026-08-29T08:12:49Z</time>
      </trkpt>
      <trkpt lat="50.651462757959962" lon="13.37100338190794">
        <ele>537</ele>
        <time>2026-08-29T08:12:50Z</time>
      </trkpt>
      <trkpt lat="50.651470050215721" lon="13.370942529290915">
        <ele>537</ele>
        <time>2026-08-29T08:12:51Z</time>
      </trkpt>
      <trkpt lat="50.651471810415387" lon="13.370892405509949">
        <ele>537</ele>
        <time>2026-08-29T08:12:52Z</time>
      </trkpt>
      <trkpt lat="50.651467619463801" lon="13.370824512094259">
        <ele>538</ele>
        <time>2026-08-29T08:12:53Z</time>
      </trkpt>
      <trkpt lat="50.651466948911548" lon="13.370758211240172">
        <ele>538</ele>
        <time>2026-08-29T08:12:54Z</time>
      </trkpt>
      <trkpt lat="50.651476252824068" lon="13.370686210691929">
        <ele>538</ele>
        <time>2026-08-29T08:12:55Z</time>
      </trkpt>
      <trkpt lat="50.651482623070478" lon="13.370609097182751">
        <ele>539</ele>
        <time>2026-08-29T08:12:56Z</time>
      </trkpt>
      <trkpt lat="50.651488909497857" lon="13.370537264272571">
        <ele>539</ele>
        <time>2026-08-29T08:12:57Z</time>
      </trkpt>
      <trkpt lat="50.651510199531913" lon="13.370463168248534">
        <ele>538</ele>
        <time>2026-08-29T08:12:58Z</time>
      </trkpt>
      <trkpt lat="50.651524951681495" lon="13.370387060567737">
        <ele>537</ele>
        <time>2026-08-29T08:12:59Z</time>
      </trkpt>
      <trkpt lat="50.651545487344265" lon="13.370300056412816">
        <ele>537</ele>
        <time>2026-08-29T08:13:00Z</time>
      </trkpt>
      <trkpt lat="50.651562418788671" lon="13.370214561000466">
        <ele>536</ele>
        <time>2026-08-29T08:13:01Z</time>
      </trkpt>
      <trkpt lat="50.651573231443763" lon="13.370125126093626">
        <ele>536</ele>
        <time>2026-08-29T08:13:02Z</time>
      </trkpt>
      <trkpt lat="50.651581780984998" lon="13.370050610974431">
        <ele>536</ele>
        <time>2026-08-29T08:13:03Z</time>
      </trkpt>
      <trkpt lat="50.651593180373311" lon="13.369977353140712">
        <ele>535</ele>
        <time>2026-08-29T08:13:04Z</time>
      </trkpt>
      <trkpt lat="50.651613296940923" lon="13.369914824143052">
        <ele>533</ele>
        <time>2026-08-29T08:13:05Z</time>
      </trkpt>
      <trkpt lat="50.651635089889169" lon="13.369862101972103">
        <ele>532</ele>
        <time>2026-08-29T08:13:06Z</time>
      </trkpt>
      <trkpt lat="50.651662079617381" lon="13.369798483327031">
        <ele>530</ele>
        <time>2026-08-29T08:13:07Z</time>
      </trkpt>
      <trkpt lat="50.651694433763623" lon="13.369734948500991">
        <ele>529</ele>
        <time>2026-08-29T08:13:08Z</time>
      </trkpt>
      <trkpt lat="50.651735169813037" lon="13.369675101712346">
        <ele>528</ele>
        <time>2026-08-29T08:13:09Z</time>
      </trkpt>
      <trkpt lat="50.651780096814036" lon="13.369618775323033">
        <ele>528</ele>
        <time>2026-08-29T08:13:10Z</time>
      </trkpt>
      <trkpt lat="50.651832399889827" lon="13.369554737582803">
        <ele>527</ele>
        <time>2026-08-29T08:13:11Z</time>
      </trkpt>
      <trkpt lat="50.651885289698839" lon="13.369505787268281">
        <ele>526</ele>
        <time>2026-08-29T08:13:12Z</time>
      </trkpt>
      <trkpt lat="50.651938933879137" lon="13.369466727599502">
        <ele>525</ele>
        <time>2026-08-29T08:13:13Z</time>
      </trkpt>
      <trkpt lat="50.651994338259101" lon="13.369434289634228">
        <ele>525</ele>
        <time>2026-08-29T08:13:14Z</time>
      </trkpt>
      <trkpt lat="50.652046138420701" lon="13.369406126439571">
        <ele>525</ele>
        <time>2026-08-29T08:13:15Z</time>
      </trkpt>
      <trkpt lat="50.652098022401333" lon="13.369388356804848">
        <ele>525</ele>
        <time>2026-08-29T08:13:16Z</time>
      </trkpt>
      <trkpt lat="50.652136243879795" lon="13.369359690696001">
        <ele>525</ele>
        <time>2026-08-29T08:13:17Z</time>
      </trkpt>
      <trkpt lat="50.652145883068442" lon="13.369314847514033">
        <ele>525</ele>
        <time>2026-08-29T08:13:18Z</time>
      </trkpt>
      <trkpt lat="50.652142614126205" lon="13.369266400113702">
        <ele>525</ele>
        <time>2026-08-29T08:13:19Z</time>
      </trkpt>
      <trkpt lat="50.652141021564603" lon="13.369224742054939">
        <ele>525</ele>
        <time>2026-08-29T08:13:20Z</time>
      </trkpt>
      <trkpt lat="50.652141021564603" lon="13.369198422878981">
        <ele>525</ele>
        <time>2026-08-29T08:13:21Z</time>
      </trkpt>
      <trkpt lat="50.652147391811013" lon="13.36917101405561">
        <ele>525</ele>
        <time>2026-08-29T08:13:22Z</time>
      </trkpt>
      <trkpt lat="50.652158288285136" lon="13.369153579697013">
        <ele>525</ele>
        <time>2026-08-29T08:13:23Z</time>
      </trkpt>
      <trkpt lat="50.652173375710845" lon="13.369142347946763">
        <ele>525</ele>
        <time>2026-08-29T08:13:24Z</time>
      </trkpt>
      <trkpt lat="50.652191480621696" lon="13.369133211672306">
        <ele>525</ele>
        <time>2026-08-29T08:13:25Z</time>
      </trkpt>
      <trkpt lat="50.652207657694817" lon="13.369120135903358">
        <ele>525</ele>
        <time>2026-08-29T08:13:26Z</time>
      </trkpt>
      <trkpt lat="50.652220230549574" lon="13.369112256914377">
        <ele>526</ele>
        <time>2026-08-29T08:13:27Z</time>
      </trkpt>
      <trkpt lat="50.652230959385633" lon="13.369096834212542">
        <ele>526</ele>
        <time>2026-08-29T08:13:28Z</time>
      </trkpt>
      <trkpt lat="50.652245962992311" lon="13.369087781757116">
        <ele>526</ele>
        <time>2026-08-29T08:13:29Z</time>
      </trkpt>
      <trkpt lat="50.652263229712844" lon="13.369085853919387">
        <ele>526</ele>
        <time>2026-08-29T08:13:30Z</time>
      </trkpt>
      <trkpt lat="50.652282675728202" lon="13.36909188888967">
        <ele>526</ele>
        <time>2026-08-29T08:13:31Z</time>
      </trkpt>
      <trkpt lat="50.652304720133543" lon="13.369091637432575">
        <ele>526</ele>
        <time>2026-08-29T08:13:32Z</time>
      </trkpt>
      <trkpt lat="50.652324920520186" lon="13.369085099548101">
        <ele>526</ele>
        <time>2026-08-29T08:13:33Z</time>
      </trkpt>
      <trkpt lat="50.652344701811671" lon="13.369070766493678">
        <ele>526</ele>
        <time>2026-08-29T08:13:34Z</time>
      </trkpt>
      <trkpt lat="50.652365405112505" lon="13.369063558056951">
        <ele>526</ele>
        <time>2026-08-29T08:13:35Z</time>
      </trkpt>
      <trkpt lat="50.652380743995309" lon="13.36904251947999">
        <ele>526</ele>
        <time>2026-08-29T08:13:36Z</time>
      </trkpt>
      <trkpt lat="50.652391640469432" lon="13.369015110656619">
        <ele>526</ele>
        <time>2026-08-29T08:13:37Z</time>
      </trkpt>
      <trkpt lat="50.652400525286794" lon="13.368986109271646">
        <ele>526</ele>
        <time>2026-08-29T08:13:38Z</time>
      </trkpt>
      <trkpt lat="50.652404800057411" lon="13.368959790095687">
        <ele>526</ele>
        <time>2026-08-29T08:13:39Z</time>
      </trkpt>
      <trkpt lat="50.652408236637712" lon="13.368925089016557">
        <ele>526</ele>
        <time>2026-08-29T08:13:40Z</time>
      </trkpt>
      <trkpt lat="50.652410835027695" lon="13.368895333260298">
        <ele>526</ele>
        <time>2026-08-29T08:13:41Z</time>
      </trkpt>
      <trkpt lat="50.652403961867094" lon="13.368858704343438">
        <ele>526</ele>
        <time>2026-08-29T08:13:42Z</time>
      </trkpt>
      <trkpt lat="50.652399519458413" lon="13.368836492300034">
        <ele>526</ele>
        <time>2026-08-29T08:13:43Z</time>
      </trkpt>
      <trkpt lat="50.652388371527195" lon="13.368807407096028">
        <ele>526</ele>
        <time>2026-08-29T08:13:44Z</time>
      </trkpt>
      <trkpt lat="50.652375379577279" lon="13.368788128718734">
        <ele>525</ele>
        <time>2026-08-29T08:13:45Z</time>
      </trkpt>
      <trkpt lat="50.652358951047063" lon="13.368773376569152">
        <ele>526</ele>
        <time>2026-08-29T08:13:46Z</time>
      </trkpt>
      <trkpt lat="50.652347467839718" lon="13.368752673268318">
        <ele>526</ele>
        <time>2026-08-29T08:13:47Z</time>
      </trkpt>
      <trkpt lat="50.652335062623024" lon="13.36872735992074">
        <ele>526</ele>
        <time>2026-08-29T08:13:48Z</time>
      </trkpt>
      <trkpt lat="50.652314778417349" lon="13.368717050179839">
        <ele>526</ele>
        <time>2026-08-29T08:13:49Z</time>
      </trkpt>
      <trkpt lat="50.652302540838718" lon="13.368700705468655">
        <ele>526</ele>
        <time>2026-08-29T08:13:50Z</time>
      </trkpt>
      <trkpt lat="50.652287285774946" lon="13.36868486367166">
        <ele>526</ele>
        <time>2026-08-29T08:13:51Z</time>
      </trkpt>
      <trkpt lat="50.652272198349237" lon="13.36865896359086">
        <ele>526</ele>
        <time>2026-08-29T08:13:52Z</time>
      </trkpt>
      <trkpt lat="50.65225568599999" lon="13.368631554767489">
        <ele>526</ele>
        <time>2026-08-29T08:13:53Z</time>
      </trkpt>
      <trkpt lat="50.652242694050074" lon="13.368613701313734">
        <ele>526</ele>
        <time>2026-08-29T08:13:54Z</time>
      </trkpt>
      <trkpt lat="50.652230959385633" lon="13.368600960820913">
        <ele>526</ele>
        <time>2026-08-29T08:13:55Z</time>
      </trkpt>
      <trkpt lat="50.652214279398322" lon="13.368595764040947">
        <ele>526</ele>
        <time>2026-08-29T08:13:56Z</time>
      </trkpt>
      <trkpt lat="50.65220145508647" lon="13.368581179529428">
        <ele>526</ele>
        <time>2026-08-29T08:13:57Z</time>
      </trkpt>
      <trkpt lat="50.652190474793315" lon="13.368563577532768">
        <ele>526</ele>
        <time>2026-08-29T08:13:58Z</time>
      </trkpt>
      <trkpt lat="50.652180667966604" lon="13.368545053526759">
        <ele>526</ele>
        <time>2026-08-29T08:13:59Z</time>
      </trkpt>
      <trkpt lat="50.652165915817022" lon="13.368529295548797">
        <ele>526</ele>
        <time>2026-08-29T08:14:00Z</time>
      </trkpt>
      <trkpt lat="50.652152253314853" lon="13.368511945009232">
        <ele>526</ele>
        <time>2026-08-29T08:14:01Z</time>
      </trkpt>
      <trkpt lat="50.65214185975492" lon="13.368499958887696">
        <ele>526</ele>
        <time>2026-08-29T08:14:02Z</time>
      </trkpt>
      <trkpt lat="50.652132388204336" lon="13.368481183424592">
        <ele>527</ele>
        <time>2026-08-29T08:14:03Z</time>
      </trkpt>
      <trkpt lat="50.652121240273118" lon="13.368467437103391">
        <ele>527</ele>
        <time>2026-08-29T08:14:04Z</time>
      </trkpt>
      <trkpt lat="50.6521135289222" lon="13.368457211181521">
        <ele>528</ele>
        <time>2026-08-29T08:14:05Z</time>
      </trkpt>
      <trkpt lat="50.652107242494822" lon="13.368442626670003">
        <ele>528</ele>
        <time>2026-08-29T08:14:06Z</time>
      </trkpt>
      <trkpt lat="50.652099447324872" lon="13.368428461253643">
        <ele>529</ele>
        <time>2026-08-29T08:14:07Z</time>
      </trkpt>
      <trkpt lat="50.65209005959332" lon="13.368418905884027">
        <ele>530</ele>
        <time>2026-08-29T08:14:08Z</time>
      </trkpt>
      <trkpt lat="50.652083270251751" lon="13.368401555344462">
        <ele>530</ele>
        <time>2026-08-29T08:14:09Z</time>
      </trkpt>
      <trkpt lat="50.652078660205007" lon="13.368378924205899">
        <ele>530</ele>
        <time>2026-08-29T08:14:10Z</time>
      </trkpt>
      <trkpt lat="50.652076983824372" lon="13.368364088237286">
        <ele>530</ele>
        <time>2026-08-29T08:14:11Z</time>
      </trkpt>
      <trkpt lat="50.652080588042736" lon="13.368339780718088">
        <ele>530</ele>
        <time>2026-08-29T08:14:12Z</time>
      </trkpt>
      <trkpt lat="50.652082599699497" lon="13.36831639520824">
        <ele>530</ele>
        <time>2026-08-29T08:14:13Z</time>
      </trkpt>
      <trkpt lat="50.652086958289146" lon="13.368298290297389">
        <ele>530</ele>
        <time>2026-08-29T08:14:14Z</time>
      </trkpt>
      <trkpt lat="50.652090143412352" lon="13.368277586996555">
        <ele>530</ele>
        <time>2026-08-29T08:14:15Z</time>
      </trkpt>
      <trkpt lat="50.652097268030047" lon="13.368249423801899">
        <ele>530</ele>
        <time>2026-08-29T08:14:16Z</time>
      </trkpt>
      <trkpt lat="50.652109170332551" lon="13.368222517892718">
        <ele>530</ele>
        <time>2026-08-29T08:14:17Z</time>
      </trkpt>
      <trkpt lat="50.652118641883135" lon="13.368194773793221">
        <ele>530</ele>
        <time>2026-08-29T08:14:18Z</time>
      </trkpt>
      <trkpt lat="50.652128951624036" lon="13.368159988895059">
        <ele>530</ele>
        <time>2026-08-29T08:14:19Z</time>
      </trkpt>
      <trkpt lat="50.652136076241732" lon="13.368126461282372">
        <ele>530</ele>
        <time>2026-08-29T08:14:20Z</time>
      </trkpt>
      <trkpt lat="50.652140602469444" lon="13.36809360422194">
        <ele>530</ele>
        <time>2026-08-29T08:14:21Z</time>
      </trkpt>
      <trkpt lat="50.652148900553584" lon="13.368064183741808">
        <ele>530</ele>
        <time>2026-08-29T08:14:22Z</time>
      </trkpt>
      <trkpt lat="50.652157282456756" lon="13.368034176528454">
        <ele>529</ele>
        <time>2026-08-29T08:14:23Z</time>
      </trkpt>
      <trkpt lat="50.652163317427039" lon="13.367999978363514">
        <ele>529</ele>
        <time>2026-08-29T08:14:24Z</time>
      </trkpt>
      <trkpt lat="50.652176393195987" lon="13.367966953665018">
        <ele>530</ele>
        <time>2026-08-29T08:14:25Z</time>
      </trkpt>
      <trkpt lat="50.652189888060093" lon="13.367930492386222">
        <ele>530</ele>
        <time>2026-08-29T08:14:26Z</time>
      </trkpt>
      <trkpt lat="50.652199862524867" lon="13.367894701659679">
        <ele>530</ele>
        <time>2026-08-29T08:14:27Z</time>
      </trkpt>
      <trkpt lat="50.652208747342229" lon="13.367849523201585">
        <ele>530</ele>
        <time>2026-08-29T08:14:28Z</time>
      </trkpt>
      <trkpt lat="50.652221068739891" lon="13.367811134085059">
        <ele>530</ele>
        <time>2026-08-29T08:14:29Z</time>
      </trkpt>
      <trkpt lat="50.652236072346568" lon="13.367770649492741">
        <ele>530</ele>
        <time>2026-08-29T08:14:30Z</time>
      </trkpt>
      <trkpt lat="50.652246968820691" lon="13.367725890129805">
        <ele>530</ele>
        <time>2026-08-29T08:14:31Z</time>
      </trkpt>
      <trkpt lat="50.652261385694146" lon="13.367680627852678">
        <ele>530</ele>
        <time>2026-08-29T08:14:32Z</time>
      </trkpt>
      <trkpt lat="50.652280077338219" lon="13.367639807984233">
        <ele>530</ele>
        <time>2026-08-29T08:14:33Z</time>
      </trkpt>
      <trkpt lat="50.652302289381623" lon="13.367591947317123">
        <ele>531</ele>
        <time>2026-08-29T08:14:34Z</time>
      </trkpt>
      <trkpt lat="50.652318382635713" lon="13.367547271773219">
        <ele>532</ele>
        <time>2026-08-29T08:14:35Z</time>
      </trkpt>
      <trkpt lat="50.652337158098817" lon="13.367489017546177">
        <ele>532</ele>
        <time>2026-08-29T08:14:36Z</time>
      </trkpt>
      <trkpt lat="50.652355598285794" lon="13.367445012554526">
        <ele>532</ele>
        <time>2026-08-29T08:14:37Z</time>
      </trkpt>
      <trkpt lat="50.652381917461753" lon="13.367397906258702">
        <ele>533</ele>
        <time>2026-08-29T08:14:38Z</time>
      </trkpt>
      <trkpt lat="50.652400860562921" lon="13.367345435544848">
        <ele>533</ele>
        <time>2026-08-29T08:14:39Z</time>
      </trkpt>
      <trkpt lat="50.652419300749898" lon="13.367290617898107">
        <ele>534</ele>
        <time>2026-08-29T08:14:40Z</time>
      </trkpt>
      <trkpt lat="50.652442770078778" lon="13.367238063365221">
        <ele>533</ele>
        <time>2026-08-29T08:14:41Z</time>
      </trkpt>
      <trkpt lat="50.652465401217341" lon="13.367177462205291">
        <ele>534</ele>
        <time>2026-08-29T08:14:42Z</time>
      </trkpt>
      <trkpt lat="50.652491552755237" lon="13.367119962349534">
        <ele>534</ele>
        <time>2026-08-29T08:14:43Z</time>
      </trkpt>
      <trkpt lat="50.65250831656158" lon="13.367061037570238">
        <ele>534</ele>
        <time>2026-08-29T08:14:44Z</time>
      </trkpt>
      <trkpt lat="50.65252885222435" lon="13.366996245458722">
        <ele>534</ele>
        <time>2026-08-29T08:14:45Z</time>
      </trkpt>
      <trkpt lat="50.652547627687454" lon="13.366939499974251">
        <ele>534</ele>
        <time>2026-08-29T08:14:46Z</time>
      </trkpt>
      <trkpt lat="50.652562379837036" lon="13.366876970976591">
        <ele>534</ele>
        <time>2026-08-29T08:14:47Z</time>
      </trkpt>
      <trkpt lat="50.652577048167586" lon="13.366816453635693">
        <ele>534</ele>
        <time>2026-08-29T08:14:48Z</time>
      </trkpt>
      <trkpt lat="50.65259775146842" lon="13.366753589361906">
        <ele>534</ele>
        <time>2026-08-29T08:14:49Z</time>
      </trkpt>
      <trkpt lat="50.652613928541541" lon="13.366697346791625">
        <ele>534</ele>
        <time>2026-08-29T08:14:50Z</time>
      </trkpt>
      <trkpt lat="50.652628848329186" lon="13.36663750000298">
        <ele>534</ele>
        <time>2026-08-29T08:14:51Z</time>
      </trkpt>
      <trkpt lat="50.65264125354588" lon="13.366574300453067">
        <ele>534</ele>
        <time>2026-08-29T08:14:52Z</time>
      </trkpt>
      <trkpt lat="50.652658771723509" lon="13.366506239399314">
        <ele>535</ele>
        <time>2026-08-29T08:14:53Z</time>
      </trkpt>
      <trkpt lat="50.652673691511154" lon="13.36644496768713">
        <ele>535</ele>
        <time>2026-08-29T08:14:54Z</time>
      </trkpt>
      <trkpt lat="50.652691964060068" lon="13.366387719288468">
        <ele>534</ele>
        <time>2026-08-29T08:14:55Z</time>
      </trkpt>
      <trkpt lat="50.652709398418665" lon="13.366328878328204">
        <ele>534</ele>
        <time>2026-08-29T08:14:56Z</time>
      </trkpt>
      <trkpt lat="50.652728592976928" lon="13.366265930235386">
        <ele>535</ele>
        <time>2026-08-29T08:14:57Z</time>
      </trkpt>
      <trkpt lat="50.652739908546209" lon="13.366201557219028">
        <ele>534</ele>
        <time>2026-08-29T08:14:58Z</time>
      </trkpt>
      <trkpt lat="50.652753990143538" lon="13.366147829219699">
        <ele>534</ele>
        <time>2026-08-29T08:14:59Z</time>
      </trkpt>
      <trkpt lat="50.652769077569246" lon="13.366087563335896">
        <ele>534</ele>
        <time>2026-08-29T08:15:00Z</time>
      </trkpt>
      <trkpt lat="50.652785673737526" lon="13.366023441776633">
        <ele>534</ele>
        <time>2026-08-29T08:15:01Z</time>
      </trkpt>
      <trkpt lat="50.652801934629679" lon="13.365960326045752">
        <ele>535</ele>
        <time>2026-08-29T08:15:02Z</time>
      </trkpt>
      <trkpt lat="50.652817692607641" lon="13.365904921665788">
        <ele>534</ele>
        <time>2026-08-29T08:15:03Z</time>
      </trkpt>
      <trkpt lat="50.652835629880428" lon="13.365843817591667">
        <ele>535</ele>
        <time>2026-08-29T08:15:04Z</time>
      </trkpt>
      <trkpt lat="50.652850298210979" lon="13.365776678547263">
        <ele>535</ele>
        <time>2026-08-29T08:15:05Z</time>
      </trkpt>
      <trkpt lat="50.65286748111248" lon="13.365700235590339">
        <ele>535</ele>
        <time>2026-08-29T08:15:06Z</time>
      </trkpt>
      <trkpt lat="50.652884328737855" lon="13.365635192021728">
        <ele>535</ele>
        <time>2026-08-29T08:15:07Z</time>
      </trkpt>
      <trkpt lat="50.652911569923162" lon="13.365571573376656">
        <ele>535</ele>
        <time>2026-08-29T08:15:08Z</time>
      </trkpt>
      <trkpt lat="50.652934955433011" lon="13.365500243380666">
        <ele>535</ele>
        <time>2026-08-29T08:15:09Z</time>
      </trkpt>
      <trkpt lat="50.652954317629337" lon="13.365421956405044">
        <ele>535</ele>
        <time>2026-08-29T08:15:10Z</time>
      </trkpt>
      <trkpt lat="50.65297300927341" lon="13.365345010533929">
        <ele>535</ele>
        <time>2026-08-29T08:15:11Z</time>
      </trkpt>
      <trkpt lat="50.65298818051815" lon="13.365264711901546">
        <ele>535</ele>
        <time>2026-08-29T08:15:12Z</time>
      </trkpt>
      <trkpt lat="50.653005950152874" lon="13.365189442411065">
        <ele>535</ele>
        <time>2026-08-29T08:15:13Z</time>
      </trkpt>
      <trkpt lat="50.653032856062055" lon="13.365109730511904">
        <ele>534</ele>
        <time>2026-08-29T08:15:14Z</time>
      </trkpt>
      <trkpt lat="50.653061522170901" lon="13.365031611174345">
        <ele>534</ele>
        <time>2026-08-29T08:15:15Z</time>
      </trkpt>
      <trkpt lat="50.65308147110045" lon="13.364947540685534">
        <ele>534</ele>
        <time>2026-08-29T08:15:16Z</time>
      </trkpt>
      <trkpt lat="50.653104102239013" lon="13.364856345579028">
        <ele>534</ele>
        <time>2026-08-29T08:15:17Z</time>
      </trkpt>
      <trkpt lat="50.653127068653703" lon="13.364761043339968">
        <ele>534</ele>
        <time>2026-08-29T08:15:18Z</time>
      </trkpt>
      <trkpt lat="50.653158500790596" lon="13.36466389708221">
        <ele>533</ele>
        <time>2026-08-29T08:15:19Z</time>
      </trkpt>
      <trkpt lat="50.6531997397542" lon="13.364569768309593">
        <ele>532</ele>
        <time>2026-08-29T08:15:20Z</time>
      </trkpt>
      <trkpt lat="50.653249695897102" lon="13.364501455798745">
        <ele>531</ele>
        <time>2026-08-29T08:15:21Z</time>
      </trkpt>
      <trkpt lat="50.653310799971223" lon="13.364425180479884">
        <ele>531</ele>
        <time>2026-08-29T08:15:22Z</time>
      </trkpt>
      <trkpt lat="50.653372071683407" lon="13.36434974335134">
        <ele>530</ele>
        <time>2026-08-29T08:15:23Z</time>
      </trkpt>
      <trkpt lat="50.653432253748178" lon="13.364265086129308">
        <ele>529</ele>
        <time>2026-08-29T08:15:24Z</time>
      </trkpt>
      <trkpt lat="50.653478102758527" lon="13.364164251834154">
        <ele>529</ele>
        <time>2026-08-29T08:15:25Z</time>
      </trkpt>
      <trkpt lat="50.653510624542832" lon="13.364044642075896">
        <ele>529</ele>
        <time>2026-08-29T08:15:26Z</time>
      </trkpt>
      <trkpt lat="50.653529567644" lon="13.363930732011795">
        <ele>529</ele>
        <time>2026-08-29T08:15:27Z</time>
      </trkpt>
      <trkpt lat="50.653543649241328" lon="13.363814558833838">
        <ele>529</ele>
        <time>2026-08-29T08:15:28Z</time>
      </trkpt>
      <trkpt lat="50.653546499088407" lon="13.363699140027165">
        <ele>529</ele>
        <time>2026-08-29T08:15:29Z</time>
      </trkpt>
      <trkpt lat="50.653545660898089" lon="13.363598976284266">
        <ele>530</ele>
        <time>2026-08-29T08:15:30Z</time>
      </trkpt>
      <trkpt lat="50.653554629534483" lon="13.363503254950047">
        <ele>531</ele>
        <time>2026-08-29T08:15:31Z</time>
      </trkpt>
      <trkpt lat="50.653558569028974" lon="13.363434355705976">
        <ele>532</ele>
        <time>2026-08-29T08:15:32Z</time>
      </trkpt>
      <trkpt lat="50.65356720238924" lon="13.363387333229184">
        <ele>531</ele>
        <time>2026-08-29T08:15:33Z</time>
      </trkpt>
      <trkpt lat="50.653570387512445" lon="13.36334316059947">
        <ele>532</ele>
        <time>2026-08-29T08:15:34Z</time>
      </trkpt>
      <trkpt lat="50.653569884598255" lon="13.363304939121008">
        <ele>533</ele>
        <time>2026-08-29T08:15:35Z</time>
      </trkpt>
      <trkpt lat="50.653569549322128" lon="13.36327325552702">
        <ele>533</ele>
        <time>2026-08-29T08:15:36Z</time>
      </trkpt>
      <trkpt lat="50.653573907911777" lon="13.363246768712997">
        <ele>532</ele>
        <time>2026-08-29T08:15:37Z</time>
      </trkpt>
      <trkpt lat="50.653580781072378" lon="13.363227657973766">
        <ele>532</ele>
        <time>2026-08-29T08:15:38Z</time>
      </trkpt>
      <trkpt lat="50.653583714738488" lon="13.363204943016171">
        <ele>533</ele>
        <time>2026-08-29T08:15:39Z</time>
      </trkpt>
      <trkpt lat="50.653585810214281" lon="13.363185497000813">
        <ele>533</ele>
        <time>2026-08-29T08:15:40Z</time>
      </trkpt>
      <trkpt lat="50.653587989509106" lon="13.363152053207159">
        <ele>533</ele>
        <time>2026-08-29T08:15:41Z</time>
      </trkpt>
      <trkpt lat="50.653591929003596" lon="13.363126404583454">
        <ele>533</ele>
        <time>2026-08-29T08:15:42Z</time>
      </trkpt>
      <trkpt lat="50.653595868498087" lon="13.36309346370399">
        <ele>533</ele>
        <time>2026-08-29T08:15:43Z</time>
      </trkpt>
      <trkpt lat="50.653602993115783" lon="13.36306270211935">
        <ele>533</ele>
        <time>2026-08-29T08:15:44Z</time>
      </trkpt>
      <trkpt lat="50.65361506305635" lon="13.363023893907666">
        <ele>533</ele>
        <time>2026-08-29T08:15:45Z</time>
      </trkpt>
      <trkpt lat="50.653622271493077" lon="13.362983493134379">
        <ele>533</ele>
        <time>2026-08-29T08:15:46Z</time>
      </trkpt>
      <trkpt lat="50.65363023430109" lon="13.362939404323697">
        <ele>533</ele>
        <time>2026-08-29T08:15:47Z</time>
      </trkpt>
      <trkpt lat="50.653636856004596" lon="13.362897913902998">
        <ele>534</ele>
        <time>2026-08-29T08:15:48Z</time>
      </trkpt>
      <trkpt lat="50.653642723336816" lon="13.362849298864603">
        <ele>534</ele>
        <time>2026-08-29T08:15:49Z</time>
      </trkpt>
      <trkpt lat="50.653652362525463" lon="13.362793894484639">
        <ele>534</ele>
        <time>2026-08-29T08:15:50Z</time>
      </trkpt>
      <trkpt lat="50.653660241514444" lon="13.362745530903339">
        <ele>534</ele>
        <time>2026-08-29T08:15:51Z</time>
      </trkpt>
      <trkpt lat="50.653667701408267" lon="13.362705884501338">
        <ele>534</ele>
        <time>2026-08-29T08:15:52Z</time>
      </trkpt>
      <trkpt lat="50.653674658387899" lon="13.362656431272626">
        <ele>534</ele>
        <time>2026-08-29T08:15:53Z</time>
      </trkpt>
      <trkpt lat="50.653680022805929" lon="13.362604044377804">
        <ele>534</ele>
        <time>2026-08-29T08:15:54Z</time>
      </trkpt>
      <trkpt lat="50.65368790179491" lon="13.362551741302013">
        <ele>534</ele>
        <time>2026-08-29T08:15:55Z</time>
      </trkpt>
      <trkpt lat="50.653694858774543" lon="13.362493151798844">
        <ele>534</ele>
        <time>2026-08-29T08:15:56Z</time>
      </trkpt>
      <trkpt lat="50.653695361688733" lon="13.362444872036576">
        <ele>534</ele>
        <time>2026-08-29T08:15:57Z</time>
      </trkpt>
      <trkpt lat="50.653698546811938" lon="13.362383348867297">
        <ele>534</ele>
        <time>2026-08-29T08:15:58Z</time>
      </trkpt>
      <trkpt lat="50.653707012534142" lon="13.362328698858619">
        <ele>534</ele>
        <time>2026-08-29T08:15:59Z</time>
      </trkpt>
      <trkpt lat="50.653713215142488" lon="13.362273797392845">
        <ele>534</ele>
        <time>2026-08-29T08:16:00Z</time>
      </trkpt>
      <trkpt lat="50.653721177950501" lon="13.362213196232915">
        <ele>535</ele>
        <time>2026-08-29T08:16:01Z</time>
      </trkpt>
      <trkpt lat="50.653728470206261" lon="13.362156702205539">
        <ele>535</ele>
        <time>2026-08-29T08:16:02Z</time>
      </trkpt>
      <trkpt lat="50.65373232588172" lon="13.362098447978497">
        <ele>534</ele>
        <time>2026-08-29T08:16:03Z</time>
      </trkpt>
      <trkpt lat="50.653736852109432" lon="13.362034326419234">
        <ele>535</ele>
        <time>2026-08-29T08:16:04Z</time>
      </trkpt>
      <trkpt lat="50.65374112688005" lon="13.361971713602543">
        <ele>534</ele>
        <time>2026-08-29T08:16:05Z</time>
      </trkpt>
      <trkpt lat="50.653749508783221" lon="13.361906753852963">
        <ele>534</ele>
        <time>2026-08-29T08:16:06Z</time>
      </trkpt>
      <trkpt lat="50.653755962848663" lon="13.361849756911397">
        <ele>534</ele>
        <time>2026-08-29T08:16:07Z</time>
      </trkpt>
      <trkpt lat="50.653767278417945" lon="13.361788485199213">
        <ele>534</ele>
        <time>2026-08-29T08:16:08Z</time>
      </trkpt>
      <trkpt lat="50.653769122436643" lon="13.361721597611904">
        <ele>534</ele>
        <time>2026-08-29T08:16:09Z</time>
      </trkpt>
      <trkpt lat="50.653777252882719" lon="13.361655464395881">
        <ele>535</ele>
        <time>2026-08-29T08:16:10Z</time>
      </trkpt>
      <trkpt lat="50.653783706948161" lon="13.361592851579189">
        <ele>535</ele>
        <time>2026-08-29T08:16:11Z</time>
      </trkpt>
      <trkpt lat="50.653791166841984" lon="13.361527556553483">
        <ele>535</ele>
        <time>2026-08-29T08:16:12Z</time>
      </trkpt>
      <trkpt lat="50.653796531260014" lon="13.361463602632284">
        <ele>535</ele>
        <time>2026-08-29T08:16:13Z</time>
      </trkpt>
      <trkpt lat="50.653801308944821" lon="13.361401157453656">
        <ele>535</ele>
        <time>2026-08-29T08:16:14Z</time>
      </trkpt>
      <trkpt lat="50.653809187933803" lon="13.361335275694728">
        <ele>535</ele>
        <time>2026-08-29T08:16:15Z</time>
      </trkpt>
      <trkpt lat="50.653816061094403" lon="13.361272159963846">
        <ele>535</ele>
        <time>2026-08-29T08:16:16Z</time>
      </trkpt>
      <trkpt lat="50.65382712520659" lon="13.361209714785218">
        <ele>535</ele>
        <time>2026-08-29T08:16:17Z</time>
      </trkpt>
      <trkpt lat="50.653837267309427" lon="13.361148023977876">
        <ele>535</ele>
        <time>2026-08-29T08:16:18Z</time>
      </trkpt>
      <trkpt lat="50.653844475746155" lon="13.361080717295408">
        <ele>535</ele>
        <time>2026-08-29T08:16:19Z</time>
      </trkpt>
      <trkpt lat="50.653854701668024" lon="13.361014584079385">
        <ele>536</ele>
        <time>2026-08-29T08:16:20Z</time>
      </trkpt>
      <trkpt lat="50.653866687789559" lon="13.360951384529471">
        <ele>536</ele>
        <time>2026-08-29T08:16:21Z</time>
      </trkpt>
      <trkpt lat="50.653878841549158" lon="13.360885586589575">
        <ele>536</ele>
        <time>2026-08-29T08:16:22Z</time>
      </trkpt>
      <trkpt lat="50.653888396918774" lon="13.360811490565538">
        <ele>536</ele>
        <time>2026-08-29T08:16:23Z</time>
      </trkpt>
      <trkpt lat="50.653898706659675" lon="13.3607461117208">
        <ele>536</ele>
        <time>2026-08-29T08:16:24Z</time>
      </trkpt>
      <trkpt lat="50.653916308656335" lon="13.360679475590587">
        <ele>536</ele>
        <time>2026-08-29T08:16:25Z</time>
      </trkpt>
      <trkpt lat="50.65392779186368" lon="13.36061610840261">
        <ele>536</ele>
        <time>2026-08-29T08:16:26Z</time>
      </trkpt>
      <trkpt lat="50.653938772156835" lon="13.360547628253698">
        <ele>536</ele>
        <time>2026-08-29T08:16:27Z</time>
      </trkpt>
      <trkpt lat="50.653951428830624" lon="13.36048417724669">
        <ele>536</ele>
        <time>2026-08-29T08:16:28Z</time>
      </trkpt>
      <trkpt lat="50.653958134353161" lon="13.360408404842019">
        <ele>536</ele>
        <time>2026-08-29T08:16:29Z</time>
      </trkpt>
      <trkpt lat="50.653968779370189" lon="13.360337410122156">
        <ele>536</ele>
        <time>2026-08-29T08:16:30Z</time>
      </trkpt>
      <trkpt lat="50.653978418558836" lon="13.360267002135515">
        <ele>536</ele>
        <time>2026-08-29T08:16:31Z</time>
      </trkpt>
      <trkpt lat="50.653986549004912" lon="13.360195336863399">
        <ele>536</ele>
        <time>2026-08-29T08:16:32Z</time>
      </trkpt>
      <trkpt lat="50.654001049697399" lon="13.360134400427341">
        <ele>536</ele>
        <time>2026-08-29T08:16:33Z</time>
      </trkpt>
      <trkpt lat="50.65402502194047" lon="13.360081845894456">
        <ele>536</ele>
        <time>2026-08-29T08:16:34Z</time>
      </trkpt>
      <trkpt lat="50.654050586745143" lon="13.360034320503473">
        <ele>536</ele>
        <time>2026-08-29T08:16:35Z</time>
      </trkpt>
      <trkpt lat="50.654083527624607" lon="13.359989142045379">
        <ele>537</ele>
        <time>2026-08-29T08:16:36Z</time>
      </trkpt>
      <trkpt lat="50.654117977246642" lon="13.359945137053728">
        <ele>537</ele>
        <time>2026-08-29T08:16:37Z</time>
      </trkpt>
      <trkpt lat="50.654154941439629" lon="13.35989635437727">
        <ele>537</ele>
        <time>2026-08-29T08:16:38Z</time>
      </trkpt>
      <trkpt lat="50.654192911460996" lon="13.359859557822347">
        <ele>538</ele>
        <time>2026-08-29T08:16:39Z</time>
      </trkpt>
      <trkpt lat="50.654226941987872" lon="13.35981672629714">
        <ele>538</ele>
        <time>2026-08-29T08:16:40Z</time>
      </trkpt>
      <trkpt lat="50.65424932166934" lon="13.359775822609663">
        <ele>538</ele>
        <time>2026-08-29T08:16:41Z</time>
      </trkpt>
      <trkpt lat="50.654275892302394" lon="13.359733493998647">
        <ele>539</ele>
        <time>2026-08-29T08:16:42Z</time>
      </trkpt>
      <trkpt lat="50.654303468763828" lon="13.359689237549901">
        <ele>539</ele>
        <time>2026-08-29T08:16:43Z</time>
      </trkpt>
      <trkpt lat="50.654331464320421" lon="13.359639616683125">
        <ele>539</ele>
        <time>2026-08-29T08:16:44Z</time>
      </trkpt>
      <trkpt lat="50.654356107115746" lon="13.359597455710173">
        <ele>540</ele>
        <time>2026-08-29T08:16:45Z</time>
      </trkpt>
      <trkpt lat="50.654380833730102" lon="13.359557222574949">
        <ele>539</ele>
        <time>2026-08-29T08:16:46Z</time>
      </trkpt>
      <trkpt lat="50.65440321341157" lon="13.35950986482203">
        <ele>539</ele>
        <time>2026-08-29T08:16:47Z</time>
      </trkpt>
      <trkpt lat="50.654427520930767" lon="13.359454292804003">
        <ele>539</ele>
        <time>2026-08-29T08:16:48Z</time>
      </trkpt>
      <trkpt lat="50.654453588649631" lon="13.359394865110517">
        <ele>539</ele>
        <time>2026-08-29T08:16:49Z</time>
      </trkpt>
      <trkpt lat="50.654470939189196" lon="13.359323618933558">
        <ele>539</ele>
        <time>2026-08-29T08:16:50Z</time>
      </trkpt>
      <trkpt lat="50.654483763501048" lon="13.359259497374296">
        <ele>539</ele>
        <time>2026-08-29T08:16:51Z</time>
      </trkpt>
      <trkpt lat="50.654503544792533" lon="13.359198477119207">
        <ele>539</ele>
        <time>2026-08-29T08:16:52Z</time>
      </trkpt>
      <trkpt lat="50.654517374932766" lon="13.359142988920212">
        <ele>539</ele>
        <time>2026-08-29T08:16:53Z</time>
      </trkpt>
      <trkpt lat="50.654528439044952" lon="13.359081465750933">
        <ele>538</ele>
        <time>2026-08-29T08:16:54Z</time>
      </trkpt>
      <trkpt lat="50.654540089890361" lon="13.359028324484825">
        <ele>539</ele>
        <time>2026-08-29T08:16:55Z</time>
      </trkpt>
      <trkpt lat="50.65455081872642" lon="13.358967388048768">
        <ele>539</ele>
        <time>2026-08-29T08:16:56Z</time>
      </trkpt>
      <trkpt lat="50.654561379924417" lon="13.35890443995595">
        <ele>539</ele>
        <time>2026-08-29T08:16:57Z</time>
      </trkpt>
      <trkpt lat="50.654569594189525" lon="13.358841659501195">
        <ele>539</ele>
        <time>2026-08-29T08:16:58Z</time>
      </trkpt>
      <trkpt lat="50.654574120417237" lon="13.35877493955195">
        <ele>539</ele>
        <time>2026-08-29T08:16:59Z</time>
      </trkpt>
      <trkpt lat="50.654578898102045" lon="13.358717355877161">
        <ele>540</ele>
        <time>2026-08-29T08:17:00Z</time>
      </trkpt>
      <trkpt lat="50.654586190357804" lon="13.35864887572825">
        <ele>539</ele>
        <time>2026-08-29T08:17:01Z</time>
      </trkpt>
      <trkpt lat="50.654594069346786" lon="13.358578719198704">
        <ele>539</ele>
        <time>2026-08-29T08:17:02Z</time>
      </trkpt>
      <trkpt lat="50.654600271955132" lon="13.358505126088858">
        <ele>539</ele>
        <time>2026-08-29T08:17:03Z</time>
      </trkpt>
      <trkpt lat="50.654608821496367" lon="13.358427844941616">
        <ele>539</ele>
        <time>2026-08-29T08:17:04Z</time>
      </trkpt>
      <trkpt lat="50.654614772647619" lon="13.358341511338949">
        <ele>538</ele>
        <time>2026-08-29T08:17:05Z</time>
      </trkpt>
      <trkpt lat="50.654623825103045" lon="13.358259117230773">
        <ele>538</ele>
        <time>2026-08-29T08:17:06Z</time>
      </trkpt>
      <trkpt lat="50.654635392129421" lon="13.358179656788707">
        <ele>538</ele>
        <time>2026-08-29T08:17:07Z</time>
      </trkpt>
      <trkpt lat="50.654649138450623" lon="13.358092568814754">
        <ele>538</ele>
        <time>2026-08-29T08:17:08Z</time>
      </trkpt>
      <trkpt lat="50.654667830094695" lon="13.358012940734625">
        <ele>537</ele>
        <time>2026-08-29T08:17:09Z</time>
      </trkpt>
      <trkpt lat="50.654696077108383" lon="13.357939012348652">
        <ele>537</ele>
        <time>2026-08-29T08:17:10Z</time>
      </trkpt>
      <trkpt lat="50.654726168140769" lon="13.35787246003747">
        <ele>537</ele>
        <time>2026-08-29T08:17:11Z</time>
      </trkpt>
      <trkpt lat="50.654751900583506" lon="13.357806829735637">
        <ele>537</ele>
        <time>2026-08-29T08:17:12Z</time>
      </trkpt>
      <trkpt lat="50.654785092920065" lon="13.357747821137309">
        <ele>536</ele>
        <time>2026-08-29T08:17:13Z</time>
      </trkpt>
      <trkpt lat="50.654821051284671" lon="13.357696440070868">
        <ele>536</ele>
        <time>2026-08-29T08:17:14Z</time>
      </trkpt>
      <trkpt lat="50.654855081811547" lon="13.357656039297581">
        <ele>536</ele>
        <time>2026-08-29T08:17:15Z</time>
      </trkpt>
      <trkpt lat="50.654881149530411" lon="13.357604742050171">
        <ele>536</ele>
        <time>2026-08-29T08:17:16Z</time>
      </trkpt>
      <trkpt lat="50.654906798154116" lon="13.357557049021125">
        <ele>536</ele>
        <time>2026-08-29T08:17:17Z</time>
      </trkpt>
      <trkpt lat="50.654933117330074" lon="13.357516312971711">
        <ele>537</ele>
        <time>2026-08-29T08:17:18Z</time>
      </trkpt>
      <trkpt lat="50.65496371127665" lon="13.357472307980061">
        <ele>537</ele>
        <time>2026-08-29T08:17:19Z</time>
      </trkpt>
      <trkpt lat="50.654988940805197" lon="13.357421010732651">
        <ele>537</ele>
        <time>2026-08-29T08:17:20Z</time>
      </trkpt>
      <trkpt lat="50.655007800087333" lon="13.357352195307612">
        <ele>536</ele>
        <time>2026-08-29T08:17:21Z</time>
      </trkpt>
      <trkpt lat="50.655033783987164" lon="13.357287319377065">
        <ele>536</ele>
        <time>2026-08-29T08:17:22Z</time>
      </trkpt>
      <trkpt lat="50.655054654926062" lon="13.357236357405782">
        <ele>536</ele>
        <time>2026-08-29T08:17:23Z</time>
      </trkpt>
      <trkpt lat="50.655074687674642" lon="13.357192017138004">
        <ele>536</ele>
        <time>2026-08-29T08:17:24Z</time>
      </trkpt>
      <trkpt lat="50.655101258307695" lon="13.357138372957706">
        <ele>536</ele>
        <time>2026-08-29T08:17:25Z</time>
      </trkpt>
      <trkpt lat="50.655136127024889" lon="13.357086572796106">
        <ele>536</ele>
        <time>2026-08-29T08:17:26Z</time>
      </trkpt>
      <trkpt lat="50.655167810618877" lon="13.357039550319314">
        <ele>536</ele>
        <time>2026-08-29T08:17:27Z</time>
      </trkpt>
      <trkpt lat="50.655196392908692" lon="13.356992024928331">
        <ele>536</ele>
        <time>2026-08-29T08:17:28Z</time>
      </trkpt>
      <trkpt lat="50.655229752883315" lon="13.356937794014812">
        <ele>536</ele>
        <time>2026-08-29T08:17:29Z</time>
      </trkpt>
      <trkpt lat="50.655263112857938" lon="13.356878785416484">
        <ele>536</ele>
        <time>2026-08-29T08:17:30Z</time>
      </trkpt>
      <trkpt lat="50.655297981575131" lon="13.356827823445201">
        <ele>536</ele>
        <time>2026-08-29T08:17:31Z</time>
      </trkpt>
      <trkpt lat="50.655331760644913" lon="13.356775939464569">
        <ele>536</ele>
        <time>2026-08-29T08:17:32Z</time>
      </trkpt>
      <trkpt lat="50.655364282429218" lon="13.356724223122001">
        <ele>537</ele>
        <time>2026-08-29T08:17:33Z</time>
      </trkpt>
      <trkpt lat="50.655393367633224" lon="13.356676697731018">
        <ele>537</ele>
        <time>2026-08-29T08:17:34Z</time>
      </trkpt>
      <trkpt lat="50.655426392331719" lon="13.356622215360403">
        <ele>537</ele>
        <time>2026-08-29T08:17:35Z</time>
      </trkpt>
      <trkpt lat="50.655458411201835" lon="13.356574773788452">
        <ele>537</ele>
        <time>2026-08-29T08:17:36Z</time>
      </trkpt>
      <trkpt lat="50.655488837510347" lon="13.356526745483279">
        <ele>537</ele>
        <time>2026-08-29T08:17:37Z</time>
      </trkpt>
      <trkpt lat="50.655514318495989" lon="13.356484081596136">
        <ele>537</ele>
        <time>2026-08-29T08:17:38Z</time>
      </trkpt>
      <trkpt lat="50.655540302395821" lon="13.356440495699644">
        <ele>537</ele>
        <time>2026-08-29T08:17:39Z</time>
      </trkpt>
      <trkpt lat="50.655563017353415" lon="13.356399675831199">
        <ele>537</ele>
        <time>2026-08-29T08:17:40Z</time>
      </trkpt>
      <trkpt lat="50.655580954626203" lon="13.356349468231201">
        <ele>537</ele>
        <time>2026-08-29T08:17:41Z</time>
      </trkpt>
      <trkpt lat="50.655590761452913" lon="13.356294902041554">
        <ele>537</ele>
        <time>2026-08-29T08:17:42Z</time>
      </trkpt>
      <trkpt lat="50.65559696406126" lon="13.356236815452576">
        <ele>537</ele>
        <time>2026-08-29T08:17:43Z</time>
      </trkpt>
      <trkpt lat="50.65560718998313" lon="13.356171688064933">
        <ele>537</ele>
        <time>2026-08-29T08:17:44Z</time>
      </trkpt>
      <trkpt lat="50.655624708160758" lon="13.356102956458926">
        <ele>538</ele>
        <time>2026-08-29T08:17:45Z</time>
      </trkpt>
      <trkpt lat="50.655641052871943" lon="13.356039002537727">
        <ele>537</ele>
        <time>2026-08-29T08:17:46Z</time>
      </trkpt>
      <trkpt lat="50.655655050650239" lon="13.355966247618198">
        <ele>537</ele>
        <time>2026-08-29T08:17:47Z</time>
      </trkpt>
      <trkpt lat="50.655677430331707" lon="13.355896174907684">
        <ele>536</ele>
        <time>2026-08-29T08:17:48Z</time>
      </trkpt>
      <trkpt lat="50.655698301270604" lon="13.355834819376469">
        <ele>536</ele>
        <time>2026-08-29T08:17:49Z</time>
      </trkpt>
      <trkpt lat="50.655724033713341" lon="13.355771619826555">
        <ele>536</ele>
        <time>2026-08-29T08:17:50Z</time>
      </trkpt>
      <trkpt lat="50.655745910480618" lon="13.355706995353103">
        <ele>536</ele>
        <time>2026-08-29T08:17:51Z</time>
      </trkpt>
      <trkpt lat="50.65576652996242" lon="13.355653518810868">
        <ele>535</ele>
        <time>2026-08-29T08:17:52Z</time>
      </trkpt>
      <trkpt lat="50.655783042311668" lon="13.355590486899018">
        <ele>535</ele>
        <time>2026-08-29T08:17:53Z</time>
      </trkpt>
      <trkpt lat="50.655807936564088" lon="13.355526868253946">
        <ele>535</ele>
        <time>2026-08-29T08:17:54Z</time>
      </trkpt>
      <trkpt lat="50.655829394236207" lon="13.355451431125402">
        <ele>535</ele>
        <time>2026-08-29T08:17:55Z</time>
      </trkpt>
      <trkpt lat="50.655842805281281" lon="13.355373227968812">
        <ele>534</ele>
        <time>2026-08-29T08:17:56Z</time>
      </trkpt>
      <trkpt lat="50.65584909170866" lon="13.355290750041604">
        <ele>533</ele>
        <time>2026-08-29T08:17:57Z</time>
      </trkpt>
      <trkpt lat="50.655851438641548" lon="13.355192095041275">
        <ele>533</ele>
        <time>2026-08-29T08:17:58Z</time>
      </trkpt>
      <trkpt lat="50.655854120850563" lon="13.355090338736773">
        <ele>533</ele>
        <time>2026-08-29T08:17:59Z</time>
      </trkpt>
      <trkpt lat="50.655847666785121" lon="13.354979027062654">
        <ele>532</ele>
        <time>2026-08-29T08:18:00Z</time>
      </trkpt>
      <trkpt lat="50.655844481661916" lon="13.354865787550807">
        <ele>531</ele>
        <time>2026-08-29T08:18:01Z</time>
      </trkpt>
      <trkpt lat="50.655844900757074" lon="13.354744836688042">
        <ele>530</ele>
        <time>2026-08-29T08:18:02Z</time>
      </trkpt>
      <trkpt lat="50.655842637643218" lon="13.354625646024942">
        <ele>529</ele>
        <time>2026-08-29T08:18:03Z</time>
      </trkpt>
      <trkpt lat="50.655837189406157" lon="13.354500336572528">
        <ele>529</ele>
        <time>2026-08-29T08:18:04Z</time>
      </trkpt>
      <trkpt lat="50.655835596844554" lon="13.354379720985889">
        <ele>528</ele>
        <time>2026-08-29T08:18:05Z</time>
      </trkpt>
      <trkpt lat="50.655830400064588" lon="13.35424636490643">
        <ele>528</ele>
        <time>2026-08-29T08:18:06Z</time>
      </trkpt>
      <trkpt lat="50.655820341780782" lon="13.354107141494751">
        <ele>527</ele>
        <time>2026-08-29T08:18:07Z</time>
      </trkpt>
      <trkpt lat="50.655811876058578" lon="13.35396783426404">
        <ele>526</ele>
        <time>2026-08-29T08:18:08Z</time>
      </trkpt>
      <trkpt lat="50.655806260183454" lon="13.353828443214297">
        <ele>525</ele>
        <time>2026-08-29T08:18:09Z</time>
      </trkpt>
      <trkpt lat="50.655799219384789" lon="13.353685950860381">
        <ele>525</ele>
        <time>2026-08-29T08:18:10Z</time>
      </trkpt>
      <trkpt lat="50.65579092130065" lon="13.353543123230338">
        <ele>524</ele>
        <time>2026-08-29T08:18:11Z</time>
      </trkpt>
      <trkpt lat="50.655779521912336" lon="13.353394344449043">
        <ele>523</ele>
        <time>2026-08-29T08:18:12Z</time>
      </trkpt>
      <trkpt lat="50.655763680115342" lon="13.353244140744209">
        <ele>522</ele>
        <time>2026-08-29T08:18:13Z</time>
      </trkpt>
      <trkpt lat="50.655749598518014" lon="13.353090584278107">
        <ele>521</ele>
        <time>2026-08-29T08:18:14Z</time>
      </trkpt>
      <trkpt lat="50.655729314312339" lon="13.352943900972605">
        <ele>520</ele>
        <time>2026-08-29T08:18:15Z</time>
      </trkpt>
      <trkpt lat="50.655704420059919" lon="13.352803839370608">
        <ele>519</ele>
        <time>2026-08-29T08:18:16Z</time>
      </trkpt>
      <trkpt lat="50.65567902289331" lon="13.352658497169614">
        <ele>519</ele>
        <time>2026-08-29T08:18:17Z</time>
      </trkpt>
      <trkpt lat="50.655663348734379" lon="13.352502090856433">
        <ele>519</ele>
        <time>2026-08-29T08:18:18Z</time>
      </trkpt>
      <trkpt lat="50.655645998194814" lon="13.352352725341916">
        <ele>518</ele>
        <time>2026-08-29T08:18:19Z</time>
      </trkpt>
      <trkpt lat="50.655635856091976" lon="13.352206125855446">
        <ele>517</ele>
        <time>2026-08-29T08:18:20Z</time>
      </trkpt>
      <trkpt lat="50.655621942132711" lon="13.352068997919559">
        <ele>517</ele>
        <time>2026-08-29T08:18:21Z</time>
      </trkpt>
      <trkpt lat="50.655608782544732" lon="13.351948969066143">
        <ele>516</ele>
        <time>2026-08-29T08:18:22Z</time>
      </trkpt>
      <trkpt lat="50.655603418126702" lon="13.351855343207717">
        <ele>515</ele>
        <time>2026-08-29T08:18:23Z</time>
      </trkpt>
      <trkpt lat="50.65560769289732" lon="13.351795831695199">
        <ele>515</ele>
        <time>2026-08-29T08:18:24Z</time>
      </trkpt>
      <trkpt lat="50.655615236610174" lon="13.351767836138606">
        <ele>515</ele>
        <time>2026-08-29T08:18:25Z</time>
      </trkpt>
      <trkpt lat="50.655623786151409" lon="13.351769680157304">
        <ele>515</ele>
        <time>2026-08-29T08:18:26Z</time>
      </trkpt>
      <trkpt lat="50.655627138912678" lon="13.351767919957638">
        <ele>515</ele>
        <time>2026-08-29T08:18:27Z</time>
      </trkpt>
      <trkpt lat="50.655633006244898" lon="13.351761633530259">
        <ele>515</ele>
        <time>2026-08-29T08:18:28Z</time>
      </trkpt>
      <trkpt lat="50.655638454481959" lon="13.351767417043447">
        <ele>515</ele>
        <time>2026-08-29T08:18:29Z</time>
      </trkpt>
      <trkpt lat="50.655643399804831" lon="13.35177537985146">
        <ele>515</ele>
        <time>2026-08-29T08:18:30Z</time>
      </trkpt>
      <trkpt lat="50.655648093670607" lon="13.351784180849791">
        <ele>514</ele>
        <time>2026-08-29T08:18:31Z</time>
      </trkpt>
      <trkpt lat="50.655657397583127" lon="13.351790634915233">
        <ele>515</ele>
        <time>2026-08-29T08:18:32Z</time>
      </trkpt>
      <trkpt lat="50.655665528029203" lon="13.351798513904214">
        <ele>515</ele>
        <time>2026-08-29T08:18:33Z</time>
      </trkpt>
      <trkpt lat="50.655676340684295" lon="13.351802788674831">
        <ele>515</ele>
        <time>2026-08-29T08:18:34Z</time>
      </trkpt>
      <trkpt lat="50.655683381482959" lon="13.35179683752358">
        <ele>515</ele>
        <time>2026-08-29T08:18:35Z</time>
      </trkpt>
      <trkpt lat="50.655693775042892" lon="13.351786779239774">
        <ele>515</ele>
        <time>2026-08-29T08:18:36Z</time>
      </trkpt>
      <trkpt lat="50.655711628496647" lon="13.351777056232095">
        <ele>515</ele>
        <time>2026-08-29T08:18:37Z</time>
      </trkpt>
      <trkpt lat="50.655726129189134" lon="13.351769093424082">
        <ele>514</ele>
        <time>2026-08-29T08:18:38Z</time>
      </trkpt>
      <trkpt lat="50.655745575204492" lon="13.351753503084183">
        <ele>514</ele>
        <time>2026-08-29T08:18:39Z</time>
      </trkpt>
      <trkpt lat="50.655768038704991" lon="13.351736906915903">
        <ele>514</ele>
        <time>2026-08-29T08:18:40Z</time>
      </trkpt>
      <trkpt lat="50.655790418386459" lon="13.351718131452799">
        <ele>514</ele>
        <time>2026-08-29T08:18:41Z</time>
      </trkpt>
      <trkpt lat="50.655806679278612" lon="13.351691979914904">
        <ele>515</ele>
        <time>2026-08-29T08:18:42Z</time>
      </trkpt>
      <trkpt lat="50.655823862180114" lon="13.351658200845122">
        <ele>515</ele>
        <time>2026-08-29T08:18:43Z</time>
      </trkpt>
      <trkpt lat="50.655841296538711" lon="13.351630121469498">
        <ele>516</ele>
        <time>2026-08-29T08:18:44Z</time>
      </trkpt>
      <trkpt lat="50.655862251296639" lon="13.351603047922254">
        <ele>516</ele>
        <time>2026-08-29T08:18:45Z</time>
      </trkpt>
      <trkpt lat="50.655879098922014" lon="13.351568933576345">
        <ele>516</ele>
        <time>2026-08-29T08:18:46Z</time>
      </trkpt>
      <trkpt lat="50.655897790566087" lon="13.35153984837234">
        <ele>517</ele>
        <time>2026-08-29T08:18:47Z</time>
      </trkpt>
      <trkpt lat="50.655913297086954" lon="13.35150808095932">
        <ele>517</ele>
        <time>2026-08-29T08:18:48Z</time>
      </trkpt>
      <trkpt lat="50.655936598777771" lon="13.351479666307569">
        <ele>518</ele>
        <time>2026-08-29T08:18:49Z</time>
      </trkpt>
      <trkpt lat="50.655961409211159" lon="13.35145678371191">
        <ele>517</ele>
        <time>2026-08-29T08:18:50Z</time>
      </trkpt>
      <trkpt lat="50.65598295070231" lon="13.351438343524933">
        <ele>517</ele>
        <time>2026-08-29T08:18:51Z</time>
      </trkpt>
      <trkpt lat="50.656006671488285" lon="13.351410180330276">
        <ele>517</ele>
        <time>2026-08-29T08:18:52Z</time>
      </trkpt>
      <trkpt lat="50.656030392274261" lon="13.351378999650478">
        <ele>517</ele>
        <time>2026-08-29T08:18:53Z</time>
      </trkpt>
      <trkpt lat="50.656052017584443" lon="13.351357290521264">
        <ele>517</ele>
        <time>2026-08-29T08:18:54Z</time>
      </trkpt>
      <trkpt lat="50.656074648723006" lon="13.351328708231449">
        <ele>517</ele>
        <time>2026-08-29T08:18:55Z</time>
      </trkpt>
      <trkpt lat="50.656095184385777" lon="13.351296605542302">
        <ele>518</ele>
        <time>2026-08-29T08:18:56Z</time>
      </trkpt>
      <trkpt lat="50.656107757240534" lon="13.351262575015426">
        <ele>518</ele>
        <time>2026-08-29T08:18:57Z</time>
      </trkpt>
      <trkpt lat="50.656120330095291" lon="13.351227454841137">
        <ele>518</ele>
        <time>2026-08-29T08:18:58Z</time>
      </trkpt>
      <trkpt lat="50.656130891293287" lon="13.351191664114594">
        <ele>518</ele>
        <time>2026-08-29T08:18:59Z</time>
      </trkpt>
      <trkpt lat="50.656143799424171" lon="13.351159226149321">
        <ele>518</ele>
        <time>2026-08-29T08:19:00Z</time>
      </trkpt>
      <trkpt lat="50.656162407249212" lon="13.351137349382043">
        <ele>518</ele>
        <time>2026-08-29T08:19:01Z</time>
      </trkpt>
      <trkpt lat="50.656183278188109" lon="13.351116394624114">
        <ele>518</ele>
        <time>2026-08-29T08:19:02Z</time>
      </trkpt>
      <trkpt lat="50.656205071136355" lon="13.351089740172029">
        <ele>517</ele>
        <time>2026-08-29T08:19:03Z</time>
      </trkpt>
      <trkpt lat="50.656230971217155" lon="13.351058140397072">
        <ele>517</ele>
        <time>2026-08-29T08:19:04Z</time>
      </trkpt>
      <trkpt lat="50.656254943460226" lon="13.351029390469193">
        <ele>517</ele>
        <time>2026-08-29T08:19:05Z</time>
      </trkpt>
      <trkpt lat="50.656285872682929" lon="13.350995779037476">
        <ele>517</ele>
        <time>2026-08-29T08:19:06Z</time>
      </trkpt>
      <trkpt lat="50.656321160495281" lon="13.350958814844489">
        <ele>517</ele>
        <time>2026-08-29T08:19:07Z</time>
      </trkpt>
      <trkpt lat="50.656352257356048" lon="13.350907769054174">
        <ele>517</ele>
        <time>2026-08-29T08:19:08Z</time>
      </trkpt>
      <trkpt lat="50.656386120244861" lon="13.350861333310604">
        <ele>516</ele>
        <time>2026-08-29T08:19:09Z</time>
      </trkpt>
      <trkpt lat="50.656424928456545" lon="13.350807940587401">
        <ele>516</ele>
        <time>2026-08-29T08:19:10Z</time>
      </trkpt>
      <trkpt lat="50.656467759981751" lon="13.350741388276219">
        <ele>515</ele>
        <time>2026-08-29T08:19:11Z</time>
      </trkpt>
      <trkpt lat="50.656517129391432" lon="13.350670393556356">
        <ele>514</ele>
        <time>2026-08-29T08:19:12Z</time>
      </trkpt>
      <trkpt lat="50.656572869047523" lon="13.350593280047178">
        <ele>514</ele>
        <time>2026-08-29T08:19:13Z</time>
      </trkpt>
      <trkpt lat="50.656623495742679" lon="13.35051516070962">
        <ele>513</ele>
        <time>2026-08-29T08:19:14Z</time>
      </trkpt>
      <trkpt lat="50.656674792990088" lon="13.350428324192762">
        <ele>513</ele>
        <time>2026-08-29T08:19:15Z</time>
      </trkpt>
      <trkpt lat="50.656730532646179" lon="13.350350791588426">
        <ele>513</ele>
        <time>2026-08-29T08:19:16Z</time>
      </trkpt>
      <trkpt lat="50.656772777438164" lon="13.350271666422486">
        <ele>512</ele>
        <time>2026-08-29T08:19:17Z</time>
      </trkpt>
      <trkpt lat="50.656810998916626" lon="13.350178794935346">
        <ele>512</ele>
        <time>2026-08-29T08:19:18Z</time>
      </trkpt>
      <trkpt lat="50.656832791864872" lon="13.35008810274303">
        <ele>512</ele>
        <time>2026-08-29T08:19:19Z</time>
      </trkpt>
      <trkpt lat="50.656838491559029" lon="13.349994476884604">
        <ele>512</ele>
        <time>2026-08-29T08:19:20Z</time>
      </trkpt>
      <trkpt lat="50.656828684732318" lon="13.349907975643873">
        <ele>512</ele>
        <time>2026-08-29T08:19:21Z</time>
      </trkpt>
      <trkpt lat="50.656803539022803" lon="13.349841590970755">
        <ele>511</ele>
        <time>2026-08-29T08:19:22Z</time>
      </trkpt>
      <trkpt lat="50.65677453763783" lon="13.349781325086951">
        <ele>511</ele>
        <time>2026-08-29T08:19:23Z</time>
      </trkpt>
      <trkpt lat="50.656747044995427" lon="13.349714856594801">
        <ele>510</ele>
        <time>2026-08-29T08:19:24Z</time>
      </trkpt>
      <trkpt lat="50.656728353351355" lon="13.349640844389796">
        <ele>510</ele>
        <time>2026-08-29T08:19:25Z</time>
      </trkpt>
      <trkpt lat="50.65671100281179" lon="13.349568927660584">
        <ele>510</ele>
        <time>2026-08-29T08:19:26Z</time>
      </trkpt>
      <trkpt lat="50.656695580109954" lon="13.349504303187132">
        <ele>510</ele>
        <time>2026-08-29T08:19:27Z</time>
      </trkpt>
      <trkpt lat="50.656683929264545" lon="13.349436325952411">
        <ele>509</ele>
        <time>2026-08-29T08:19:28Z</time>
      </trkpt>
      <trkpt lat="50.656676301732659" lon="13.349356781691313">
        <ele>509</ele>
        <time>2026-08-29T08:19:29Z</time>
      </trkpt>
      <trkpt lat="50.656679654493928" lon="13.349292743951082">
        <ele>509</ele>
        <time>2026-08-29T08:19:30Z</time>
      </trkpt>
      <trkpt lat="50.65668904222548" lon="13.349227197468281">
        <ele>509</ele>
        <time>2026-08-29T08:19:31Z</time>
      </trkpt>
      <trkpt lat="50.65670614130795" lon="13.349146815016866">
        <ele>509</ele>
        <time>2026-08-29T08:19:32Z</time>
      </trkpt>
      <trkpt lat="50.65672567114234" lon="13.349086632952094">
        <ele>509</ele>
        <time>2026-08-29T08:19:33Z</time>
      </trkpt>
      <trkpt lat="50.656745452433825" lon="13.349025612697005">
        <ele>510</ele>
        <time>2026-08-29T08:19:34Z</time>
      </trkpt>
      <trkpt lat="50.656762551516294" lon="13.348975908011198">
        <ele>509</ele>
        <time>2026-08-29T08:19:35Z</time>
      </trkpt>
      <trkpt lat="50.656775627285242" lon="13.348923102021217">
        <ele>509</ele>
        <time>2026-08-29T08:19:36Z</time>
      </trkpt>
      <trkpt lat="50.656785601750016" lon="13.348864177241921">
        <ele>509</ele>
        <time>2026-08-29T08:19:37Z</time>
      </trkpt>
      <trkpt lat="50.65678576938808" lon="13.348806593567133">
        <ele>510</ele>
        <time>2026-08-29T08:19:38Z</time>
      </trkpt>
      <trkpt lat="50.656790630891919" lon="13.348751356825233">
        <ele>510</ele>
        <time>2026-08-29T08:19:39Z</time>
      </trkpt>
      <trkpt lat="50.656793816015124" lon="13.348696790635586">
        <ele>510</ele>
        <time>2026-08-29T08:19:40Z</time>
      </trkpt>
      <trkpt lat="50.656794738024473" lon="13.348633255809546">
        <ele>510</ele>
        <time>2026-08-29T08:19:41Z</time>
      </trkpt>
      <trkpt lat="50.656796162948012" lon="13.348569804802537">
        <ele>510</ele>
        <time>2026-08-29T08:19:42Z</time>
      </trkpt>
      <trkpt lat="50.656794738024473" lon="13.348508113995194">
        <ele>510</ele>
        <time>2026-08-29T08:19:43Z</time>
      </trkpt>
      <trkpt lat="50.656795911490917" lon="13.348464528098702">
        <ele>509</ele>
        <time>2026-08-29T08:19:44Z</time>
      </trkpt>
      <trkpt lat="50.656791385263205" lon="13.34841993637383">
        <ele>509</ele>
        <time>2026-08-29T08:19:45Z</time>
      </trkpt>
      <trkpt lat="50.656795157119632" lon="13.34837744012475">
        <ele>509</ele>
        <time>2026-08-29T08:19:46Z</time>
      </trkpt>
      <trkpt lat="50.656807646155357" lon="13.348334524780512">
        <ele>509</ele>
        <time>2026-08-29T08:19:47Z</time>
      </trkpt>
      <trkpt lat="50.656816530972719" lon="13.348282473161817">
        <ele>508</ele>
        <time>2026-08-29T08:19:48Z</time>
      </trkpt>
      <trkpt lat="50.656822733581066" lon="13.348220530897379">
        <ele>508</ele>
        <time>2026-08-29T08:19:49Z</time>
      </trkpt>
      <trkpt lat="50.656832875683904" lon="13.34815414622426">
        <ele>508</ele>
        <time>2026-08-29T08:19:50Z</time>
      </trkpt>
      <trkpt lat="50.656845951452851" lon="13.348083486780524">
        <ele>508</ele>
        <time>2026-08-29T08:19:51Z</time>
      </trkpt>
      <trkpt lat="50.656862799078226" lon="13.34801584482193">
        <ele>508</ele>
        <time>2026-08-29T08:19:52Z</time>
      </trkpt>
      <trkpt lat="50.656877132132649" lon="13.347947364673018">
        <ele>508</ele>
        <time>2026-08-29T08:19:53Z</time>
      </trkpt>
      <trkpt lat="50.656890962272882" lon="13.347876705229282">
        <ele>508</ele>
        <time>2026-08-29T08:19:54Z</time>
      </trkpt>
      <trkpt lat="50.656906301155686" lon="13.347799340263009">
        <ele>508</ele>
        <time>2026-08-29T08:19:55Z</time>
      </trkpt>
      <trkpt lat="50.656921723857522" lon="13.347725830972195">
        <ele>508</ele>
        <time>2026-08-29T08:19:56Z</time>
      </trkpt>
      <trkpt lat="50.656934548169374" lon="13.347654081881046">
        <ele>508</ele>
        <time>2026-08-29T08:19:57Z</time>
      </trkpt>
      <trkpt lat="50.656944019719958" lon="13.347571352496743">
        <ele>508</ele>
        <time>2026-08-29T08:19:58Z</time>
      </trkpt>
      <trkpt lat="50.656955419108272" lon="13.347497591748834">
        <ele>508</ele>
        <time>2026-08-29T08:19:59Z</time>
      </trkpt>
      <trkpt lat="50.656973021104932" lon="13.347424250096083">
        <ele>508</ele>
        <time>2026-08-29T08:20:00Z</time>
      </trkpt>
      <trkpt lat="50.656983163207769" lon="13.347340598702431">
        <ele>508</ele>
        <time>2026-08-29T08:20:01Z</time>
      </trkpt>
      <trkpt lat="50.656995819881558" lon="13.347254768013954">
        <ele>508</ele>
        <time>2026-08-29T08:20:02Z</time>
      </trkpt>
      <trkpt lat="50.657011829316616" lon="13.347169859334826">
        <ele>507</ele>
        <time>2026-08-29T08:20:03Z</time>
      </trkpt>
      <trkpt lat="50.657022139057517" lon="13.347077909857035">
        <ele>507</ele>
        <time>2026-08-29T08:20:04Z</time>
      </trkpt>
      <trkpt lat="50.657026162371039" lon="13.346993336454034">
        <ele>507</ele>
        <time>2026-08-29T08:20:05Z</time>
      </trkpt>
      <trkpt lat="50.657039908692241" lon="13.346907086670399">
        <ele>506</ele>
        <time>2026-08-29T08:20:06Z</time>
      </trkpt>
      <trkpt lat="50.657054912298918" lon="13.346822429448366">
        <ele>506</ele>
        <time>2026-08-29T08:20:07Z</time>
      </trkpt>
      <trkpt lat="50.657066227868199" lon="13.346735006198287">
        <ele>506</ele>
        <time>2026-08-29T08:20:08Z</time>
      </trkpt>
      <trkpt lat="50.657080560922623" lon="13.346648924052715">
        <ele>507</ele>
        <time>2026-08-29T08:20:09Z</time>
      </trkpt>
      <trkpt lat="50.657089864835143" lon="13.346557896584272">
        <ele>507</ele>
        <time>2026-08-29T08:20:10Z</time>
      </trkpt>
      <trkpt lat="50.657099839299917" lon="13.346473658457398">
        <ele>507</ele>
        <time>2026-08-29T08:20:11Z</time>
      </trkpt>
      <trkpt lat="50.657122889533639" lon="13.346380703151226">
        <ele>506</ele>
        <time>2026-08-29T08:20:12Z</time>
      </trkpt>
      <trkpt lat="50.657146358862519" lon="13.34628657437861">
        <ele>506</ele>
        <time>2026-08-29T08:20:13Z</time>
      </trkpt>
      <trkpt lat="50.657168570905924" lon="13.346202671527863">
        <ele>506</ele>
        <time>2026-08-29T08:20:14Z</time>
      </trkpt>
      <trkpt lat="50.657195392996073" lon="13.34611457772553">
        <ele>506</ele>
        <time>2026-08-29T08:20:15Z</time>
      </trkpt>
      <trkpt lat="50.657226154580712" lon="13.346028830856085">
        <ele>506</ele>
        <time>2026-08-29T08:20:16Z</time>
      </trkpt>
      <trkpt lat="50.657255910336971" lon="13.345944928005338">
        <ele>506</ele>
        <time>2026-08-29T08:20:17Z</time>
      </trkpt>
      <trkpt lat="50.657282313331962" lon="13.345861276611686">
        <ele>505</ele>
        <time>2026-08-29T08:20:18Z</time>
      </trkpt>
      <trkpt lat="50.657308297231793" lon="13.345785001292825">
        <ele>506</ele>
        <time>2026-08-29T08:20:19Z</time>
      </trkpt>
      <trkpt lat="50.657338639721274" lon="13.34570269100368">
        <ele>506</ele>
        <time>2026-08-29T08:20:20Z</time>
      </trkpt>
      <trkpt lat="50.657370910048485" lon="13.345623565837741">
        <ele>506</ele>
        <time>2026-08-29T08:20:21Z</time>
      </trkpt>
      <trkpt lat="50.657405694946647" lon="13.345542009919882">
        <ele>506</ele>
        <time>2026-08-29T08:20:22Z</time>
      </trkpt>
      <trkpt lat="50.65743662416935" lon="13.345458609983325">
        <ele>506</ele>
        <time>2026-08-29T08:20:23Z</time>
      </trkpt>
      <trkpt lat="50.657463110983372" lon="13.345366660505533">
        <ele>505</ele>
        <time>2026-08-29T08:20:24Z</time>
      </trkpt>
      <trkpt lat="50.657493369653821" lon="13.34528342820704">
        <ele>505</ele>
        <time>2026-08-29T08:20:25Z</time>
      </trkpt>
      <trkpt lat="50.657529579475522" lon="13.345200950279832">
        <ele>505</ele>
        <time>2026-08-29T08:20:26Z</time>
      </trkpt>
      <trkpt lat="50.657558580860496" lon="13.345115454867482">
        <ele>505</ele>
        <time>2026-08-29T08:20:27Z</time>
      </trkpt>
      <trkpt lat="50.657590180635452" lon="13.345032809302211">
        <ele>505</ele>
        <time>2026-08-29T08:20:28Z</time>
      </trkpt>
      <trkpt lat="50.657621612772346" lon="13.34494337439537">
        <ele>505</ele>
        <time>2026-08-29T08:20:29Z</time>
      </trkpt>
      <trkpt lat="50.657657571136951" lon="13.3448676019907">
        <ele>505</ele>
        <time>2026-08-29T08:20:30Z</time>
      </trkpt>
      <trkpt lat="50.657688248902559" lon="13.344779843464494">
        <ele>505</ele>
        <time>2026-08-29T08:20:31Z</time>
      </trkpt>
      <trkpt lat="50.657721105962992" lon="13.344701388850808">
        <ele>505</ele>
        <time>2026-08-29T08:20:32Z</time>
      </trkpt>
      <trkpt lat="50.657754633575678" lon="13.344608768820763">
        <ele>505</ele>
        <time>2026-08-29T08:20:33Z</time>
      </trkpt>
      <trkpt lat="50.657788077369332" lon="13.344523189589381">
        <ele>505</ele>
        <time>2026-08-29T08:20:34Z</time>
      </trkpt>
      <trkpt lat="50.657816492021084" lon="13.344437610358">
        <ele>505</ele>
        <time>2026-08-29T08:20:35Z</time>
      </trkpt>
      <trkpt lat="50.657852031290531" lon="13.344343649223447">
        <ele>506</ele>
        <time>2026-08-29T08:20:36Z</time>
      </trkpt>
      <trkpt lat="50.6578881572932" lon="13.344257483258843">
        <ele>506</ele>
        <time>2026-08-29T08:20:37Z</time>
      </trkpt>
      <trkpt lat="50.657920092344284" lon="13.344173412770033">
        <ele>505</ele>
        <time>2026-08-29T08:20:38Z</time>
      </trkpt>
      <trkpt lat="50.657946579158306" lon="13.344088923186064">
        <ele>505</ele>
        <time>2026-08-29T08:20:39Z</time>
      </trkpt>
      <trkpt lat="50.657973485067487" lon="13.344006361439824">
        <ele>505</ele>
        <time>2026-08-29T08:20:40Z</time>
      </trkpt>
      <trkpt lat="50.657995529472828" lon="13.343921955674887">
        <ele>505</ele>
        <time>2026-08-29T08:20:41Z</time>
      </trkpt>
      <trkpt lat="50.658022686839104" lon="13.343842076137662">
        <ele>505</ele>
        <time>2026-08-29T08:20:42Z</time>
      </trkpt>
      <trkpt lat="50.658052191138268" lon="13.343771081417799">
        <ele>504</ele>
        <time>2026-08-29T08:20:43Z</time>
      </trkpt>
      <trkpt lat="50.658079599961638" lon="13.343700924888253">
        <ele>504</ele>
        <time>2026-08-29T08:20:44Z</time>
      </trkpt>
      <trkpt lat="50.658102482557297" lon="13.343633031472564">
        <ele>504</ele>
        <time>2026-08-29T08:20:45Z</time>
      </trkpt>
      <trkpt lat="50.65812855027616" lon="13.34356882609427">
        <ele>505</ele>
        <time>2026-08-29T08:20:46Z</time>
      </trkpt>
      <trkpt lat="50.658154366537929" lon="13.343512415885925">
        <ele>505</ele>
        <time>2026-08-29T08:20:47Z</time>
      </trkpt>
      <trkpt lat="50.658174147829413" lon="13.343469751998782">
        <ele>504</ele>
        <time>2026-08-29T08:20:48Z</time>
      </trkpt>
      <trkpt lat="50.658177165314555" lon="13.34343790076673">
        <ele>504</ele>
        <time>2026-08-29T08:20:49Z</time>
      </trkpt>
      <trkpt lat="50.658179428428411" lon="13.343417532742023">
        <ele>504</ele>
        <time>2026-08-29T08:20:50Z</time>
      </trkpt>
      <trkpt lat="50.658183367922902" lon="13.343400433659554">
        <ele>504</ele>
        <time>2026-08-29T08:20:51Z</time>
      </trkpt>
      <trkpt lat="50.65819744952023" lon="13.3433772996068">
        <ele>504</ele>
        <time>2026-08-29T08:20:52Z</time>
      </trkpt>
      <trkpt lat="50.658211028203368" lon="13.343340000137687">
        <ele>503</ele>
        <time>2026-08-29T08:20:53Z</time>
      </trkpt>
      <trkpt lat="50.658232402056456" lon="13.343302784487605">
        <ele>503</ele>
        <time>2026-08-29T08:20:54Z</time>
      </trkpt>
      <trkpt lat="50.658259727060795" lon="13.343264646828175">
        <ele>502</ele>
        <time>2026-08-29T08:20:55Z</time>
      </trkpt>
      <trkpt lat="50.658275568857789" lon="13.34322583861649">
        <ele>502</ele>
        <time>2026-08-29T08:20:56Z</time>
      </trkpt>
      <trkpt lat="50.658283866941929" lon="13.343195915222168">
        <ele>502</ele>
        <time>2026-08-29T08:20:57Z</time>
      </trkpt>
      <trkpt lat="50.658285627141595" lon="13.343182671815157">
        <ele>501</ele>
        <time>2026-08-29T08:20:58Z</time>
      </trkpt>
      <trkpt lat="50.658280430361629" lon="13.343180157244205">
        <ele>500</ele>
        <time>2026-08-29T08:20:59Z</time>
      </trkpt>
      <trkpt lat="50.658271377906203" lon="13.343179821968079">
        <ele>499</ele>
        <time>2026-08-29T08:21:00Z</time>
      </trkpt>
      <trkpt lat="50.65826877951622" lon="13.343172948807478">
        <ele>498</ele>
        <time>2026-08-29T08:21:01Z</time>
      </trkpt>
      <trkpt lat="50.658255368471146" lon="13.343155514448881">
        <ele>498</ele>
        <time>2026-08-29T08:21:02Z</time>
      </trkpt>
      <trkpt lat="50.658229384571314" lon="13.343133889138699">
        <ele>498</ele>
        <time>2026-08-29T08:21:03Z</time>
      </trkpt>
      <trkpt lat="50.658196527510881" lon="13.343088962137699">
        <ele>497</ele>
        <time>2026-08-29T08:21:04Z</time>
      </trkpt>
      <trkpt lat="50.658165765926242" lon="13.343060631304979">
        <ele>497</ele>
        <time>2026-08-29T08:21:05Z</time>
      </trkpt>
      <trkpt lat="50.6581368483603" lon="13.343038335442543">
        <ele>497</ele>
        <time>2026-08-29T08:21:06Z</time>
      </trkpt>
      <trkpt lat="50.658112876117229" lon="13.343008663505316">
        <ele>497</ele>
        <time>2026-08-29T08:21:07Z</time>
      </trkpt>
      <trkpt lat="50.658090580254793" lon="13.342979829758406">
        <ele>496</ele>
        <time>2026-08-29T08:21:08Z</time>
      </trkpt>
      <trkpt lat="50.65807281062007" lon="13.342959210276604">
        <ele>496</ele>
        <time>2026-08-29T08:21:09Z</time>
      </trkpt>
      <trkpt lat="50.658054118975997" lon="13.342930627986789">
        <ele>496</ele>
        <time>2026-08-29T08:21:10Z</time>
      </trkpt>
      <trkpt lat="50.658030649647117" lon="13.342906823381782">
        <ele>495</ele>
        <time>2026-08-29T08:21:11Z</time>
      </trkpt>
      <trkpt lat="50.658012628555298" lon="13.342873044312">
        <ele>495</ele>
        <time>2026-08-29T08:21:12Z</time>
      </trkpt>
      <trkpt lat="50.657993601635098" lon="13.342848569154739">
        <ele>495</ele>
        <time>2026-08-29T08:21:13Z</time>
      </trkpt>
      <trkpt lat="50.657979268580675" lon="13.3428212441504">
        <ele>495</ele>
        <time>2026-08-29T08:21:14Z</time>
      </trkpt>
      <trkpt lat="50.657966444268823" lon="13.342796266078949">
        <ele>495</ele>
        <time>2026-08-29T08:21:15Z</time>
      </trkpt>
      <trkpt lat="50.657967450097203" lon="13.342767516151071">
        <ele>496</ele>
        <time>2026-08-29T08:21:16Z</time>
      </trkpt>
      <trkpt lat="50.657981280237436" lon="13.342730132862926">
        <ele>496</ele>
        <time>2026-08-29T08:21:17Z</time>
      </trkpt>
      <trkpt lat="50.657998882234097" lon="13.342693671584129">
        <ele>496</ele>
        <time>2026-08-29T08:21:18Z</time>
      </trkpt>
      <trkpt lat="50.658018747344613" lon="13.342651594430208">
        <ele>496</ele>
        <time>2026-08-29T08:21:19Z</time>
      </trkpt>
      <trkpt lat="50.658045653253794" lon="13.34260088391602">
        <ele>496</ele>
        <time>2026-08-29T08:21:20Z</time>
      </trkpt>
      <trkpt lat="50.658073481172323" lon="13.342572385445237">
        <ele>496</ele>
        <time>2026-08-29T08:21:21Z</time>
      </trkpt>
      <trkpt lat="50.658104242756963" lon="13.342515556141734">
        <ele>495</ele>
        <time>2026-08-29T08:21:22Z</time>
      </trkpt>
      <trkpt lat="50.658138692378998" lon="13.34245721809566">
        <ele>496</ele>
        <time>2026-08-29T08:21:23Z</time>
      </trkpt>
      <trkpt lat="50.658175991848111" lon="13.342398796230555">
        <ele>496</ele>
        <time>2026-08-29T08:21:24Z</time>
      </trkpt>
      <trkpt lat="50.658205160871148" lon="13.342348001897335">
        <ele>496</ele>
        <time>2026-08-29T08:21:25Z</time>
      </trkpt>
      <trkpt lat="50.658235251903534" lon="13.342301901429892">
        <ele>496</ele>
        <time>2026-08-29T08:21:26Z</time>
      </trkpt>
      <trkpt lat="50.658261738717556" lon="13.342251107096672">
        <ele>496</ele>
        <time>2026-08-29T08:21:27Z</time>
      </trkpt>
      <trkpt lat="50.658292332664132" lon="13.342194445431232">
        <ele>496</ele>
        <time>2026-08-29T08:21:28Z</time>
      </trkpt>
      <trkpt lat="50.658320998772979" lon="13.342135017737746">
        <ele>496</ele>
        <time>2026-08-29T08:21:29Z</time>
      </trkpt>
      <trkpt lat="50.658358549699187" lon="13.34208925254643">
        <ele>496</ele>
        <time>2026-08-29T08:21:30Z</time>
      </trkpt>
      <trkpt lat="50.65839777700603" lon="13.342037871479988">
        <ele>497</ele>
        <time>2026-08-29T08:21:31Z</time>
      </trkpt>
      <trkpt lat="50.658429712057114" lon="13.341990513727069">
        <ele>497</ele>
        <time>2026-08-29T08:21:32Z</time>
      </trkpt>
      <trkpt lat="50.658459300175309" lon="13.341936953365803">
        <ele>497</ele>
        <time>2026-08-29T08:21:33Z</time>
      </trkpt>
      <trkpt lat="50.658491989597678" lon="13.341885320842266">
        <ele>497</ele>
        <time>2026-08-29T08:21:34Z</time>
      </trkpt>
      <trkpt lat="50.658522332087159" lon="13.341829078271985">
        <ele>497</ele>
        <time>2026-08-29T08:21:35Z</time>
      </trkpt>
      <trkpt lat="50.658554350957274" lon="13.341780211776495">
        <ele>497</ele>
        <time>2026-08-29T08:21:36Z</time>
      </trkpt>
      <trkpt lat="50.658590393140912" lon="13.341728243976831">
        <ele>497</ele>
        <time>2026-08-29T08:21:37Z</time>
      </trkpt>
      <trkpt lat="50.658619729802012" lon="13.341685244813561">
        <ele>497</ele>
        <time>2026-08-29T08:21:38Z</time>
      </trkpt>
      <trkpt lat="50.658652000129223" lon="13.341653477400541">
        <ele>496</ele>
        <time>2026-08-29T08:21:39Z</time>
      </trkpt>
      <trkpt lat="50.658675050362945" lon="13.341622296720743">
        <ele>497</ele>
        <time>2026-08-29T08:21:40Z</time>
      </trkpt>
      <trkpt lat="50.658696172758937" lon="13.341580303385854">
        <ele>496</ele>
        <time>2026-08-29T08:21:41Z</time>
      </trkpt>
      <trkpt lat="50.658712601289153" lon="13.341554319486022">
        <ele>496</ele>
        <time>2026-08-29T08:21:42Z</time>
      </trkpt>
      <trkpt lat="50.658723246306181" lon="13.341526826843619">
        <ele>496</ele>
        <time>2026-08-29T08:21:43Z</time>
      </trkpt>
      <trkpt lat="50.658738501369953" lon="13.341499920934439">
        <ele>497</ele>
        <time>2026-08-29T08:21:44Z</time>
      </trkpt>
      <trkpt lat="50.658752080053091" lon="13.341476116329432">
        <ele>497</ele>
        <time>2026-08-29T08:21:45Z</time>
      </trkpt>
      <trkpt lat="50.658769430592656" lon="13.341452647000551">
        <ele>497</ele>
        <time>2026-08-29T08:21:46Z</time>
      </trkpt>
      <trkpt lat="50.658787032589316" lon="13.341422891244292">
        <ele>497</ele>
        <time>2026-08-29T08:21:47Z</time>
      </trkpt>
      <trkpt lat="50.658805137500167" lon="13.341398667544127">
        <ele>497</ele>
        <time>2026-08-29T08:21:48Z</time>
      </trkpt>
      <trkpt lat="50.65882139839232" lon="13.341374779120088">
        <ele>497</ele>
        <time>2026-08-29T08:21:49Z</time>
      </trkpt>
      <trkpt lat="50.65883413888514" lon="13.341351393610239">
        <ele>497</ele>
        <time>2026-08-29T08:21:50Z</time>
      </trkpt>
      <trkpt lat="50.658852411434054" lon="13.341326918452978">
        <ele>497</ele>
        <time>2026-08-29T08:21:51Z</time>
      </trkpt>
      <trkpt lat="50.658874623477459" lon="13.341297162696719">
        <ele>497</ele>
        <time>2026-08-29T08:21:52Z</time>
      </trkpt>
      <trkpt lat="50.658898511901498" lon="13.341273022815585">
        <ele>497</ele>
        <time>2026-08-29T08:21:53Z</time>
      </trkpt>
      <trkpt lat="50.6589191313833" lon="13.341251397505403">
        <ele>496</ele>
        <time>2026-08-29T08:21:54Z</time>
      </trkpt>
      <trkpt lat="50.658940756693482" lon="13.341225162148476">
        <ele>496</ele>
        <time>2026-08-29T08:21:55Z</time>
      </trkpt>
      <trkpt lat="50.658961040899158" lon="13.341195741668344">
        <ele>496</ele>
        <time>2026-08-29T08:21:56Z</time>
      </trkpt>
      <trkpt lat="50.658983420580626" lon="13.341168584302068">
        <ele>496</ele>
        <time>2026-08-29T08:21:57Z</time>
      </trkpt>
      <trkpt lat="50.659007728099823" lon="13.341141929849982">
        <ele>496</ele>
        <time>2026-08-29T08:21:58Z</time>
      </trkpt>
      <trkpt lat="50.659030359238386" lon="13.341107480227947">
        <ele>496</ele>
        <time>2026-08-29T08:21:59Z</time>
      </trkpt>
      <trkpt lat="50.659055588766932" lon="13.341076048091054">
        <ele>496</ele>
        <time>2026-08-29T08:22:00Z</time>
      </trkpt>
      <trkpt lat="50.659078639000654" lon="13.341046879068017">
        <ele>496</ele>
        <time>2026-08-29T08:22:01Z</time>
      </trkpt>
      <trkpt lat="50.659104371443391" lon="13.341010669246316">
        <ele>496</ele>
        <time>2026-08-29T08:22:02Z</time>
      </trkpt>
      <trkpt lat="50.659133959561586" lon="13.340974375605583">
        <ele>496</ele>
        <time>2026-08-29T08:22:03Z</time>
      </trkpt>
      <trkpt lat="50.659168660640717" lon="13.34093707613647">
        <ele>496</ele>
        <time>2026-08-29T08:22:04Z</time>
      </trkpt>
      <trkpt lat="50.65919523127377" lon="13.340904889628291">
        <ele>496</ele>
        <time>2026-08-29T08:22:05Z</time>
      </trkpt>
      <trkpt lat="50.659222388640046" lon="13.340866919606924">
        <ele>496</ele>
        <time>2026-08-29T08:22:06Z</time>
      </trkpt>
      <trkpt lat="50.659255497157574" lon="13.34083498455584">
        <ele>495</ele>
        <time>2026-08-29T08:22:07Z</time>
      </trkpt>
      <trkpt lat="50.659284917637706" lon="13.340805899351835">
        <ele>495</ele>
        <time>2026-08-29T08:22:08Z</time>
      </trkpt>
      <trkpt lat="50.659314757212996" lon="13.34077388048172">
        <ele>495</ele>
        <time>2026-08-29T08:22:09Z</time>
      </trkpt>
      <trkpt lat="50.65934862010181" lon="13.340735239908099">
        <ele>496</ele>
        <time>2026-08-29T08:22:10Z</time>
      </trkpt>
      <trkpt lat="50.659376280382276" lon="13.340701209381223">
        <ele>495</ele>
        <time>2026-08-29T08:22:11Z</time>
      </trkpt>
      <trkpt lat="50.659407377243042" lon="13.340666173025966">
        <ele>495</ele>
        <time>2026-08-29T08:22:12Z</time>
      </trkpt>
      <trkpt lat="50.659436881542206" lon="13.340638848021626">
        <ele>494</ele>
        <time>2026-08-29T08:22:13Z</time>
      </trkpt>
      <trkpt lat="50.659461608156562" lon="13.340600626543164">
        <ele>494</ele>
        <time>2026-08-29T08:22:14Z</time>
      </trkpt>
      <trkpt lat="50.659491112455726" lon="13.340564500540495">
        <ele>494</ele>
        <time>2026-08-29T08:22:15Z</time>
      </trkpt>
      <trkpt lat="50.65952111966908" lon="13.340524015948176">
        <ele>494</ele>
        <time>2026-08-29T08:22:16Z</time>
      </trkpt>
      <trkpt lat="50.65954752266407" lon="13.340483112260699">
        <ele>494</ele>
        <time>2026-08-29T08:22:17Z</time>
      </trkpt>
      <trkpt lat="50.659572081640363" lon="13.340448075905442">
        <ele>495</ele>
        <time>2026-08-29T08:22:18Z</time>
      </trkpt>
      <trkpt lat="50.659595215693116" lon="13.340417314320803">
        <ele>495</ele>
        <time>2026-08-29T08:22:19Z</time>
      </trkpt>
      <trkpt lat="50.659619607031345" lon="13.340382529422641">
        <ele>495</ele>
        <time>2026-08-29T08:22:20Z</time>
      </trkpt>
      <trkpt lat="50.659643076360226" lon="13.340345900505781">
        <ele>495</ele>
        <time>2026-08-29T08:22:21Z</time>
      </trkpt>
      <trkpt lat="50.659662857651711" lon="13.340311367064714">
        <ele>495</ele>
        <time>2026-08-29T08:22:22Z</time>
      </trkpt>
      <trkpt lat="50.659686829894781" lon="13.340281276032329">
        <ele>495</ele>
        <time>2026-08-29T08:22:23Z</time>
      </trkpt>
      <trkpt lat="50.659706695005298" lon="13.340255375951529">
        <ele>495</ele>
        <time>2026-08-29T08:22:24Z</time>
      </trkpt>
      <trkpt lat="50.65972781740129" lon="13.340237103402615">
        <ele>495</ele>
        <time>2026-08-29T08:22:25Z</time>
      </trkpt>
      <trkpt lat="50.659739719703794" lon="13.340228302404284">
        <ele>495</ele>
        <time>2026-08-29T08:22:26Z</time>
      </trkpt>
      <trkpt lat="50.659743659198284" lon="13.340221764519811">
        <ele>495</ele>
        <time>2026-08-29T08:22:27Z</time>
      </trkpt>
      <trkpt lat="50.659747179597616" lon="13.34023199044168">
        <ele>495</ele>
        <time>2026-08-29T08:22:28Z</time>
      </trkpt>
      <trkpt lat="50.659746760502458" lon="13.340245317667723">
        <ele>495</ele>
        <time>2026-08-29T08:22:29Z</time>
      </trkpt>
      <trkpt lat="50.659751705825329" lon="13.340237187221646">
        <ele>495</ele>
        <time>2026-08-29T08:22:30Z</time>
      </trkpt>
      <trkpt lat="50.659752041101456" lon="13.340234840288758">
        <ele>495</ele>
        <time>2026-08-29T08:22:31Z</time>
      </trkpt>
      <trkpt lat="50.659757321700454" lon="13.340242635458708">
        <ele>495</ele>
        <time>2026-08-29T08:22:32Z</time>
      </trkpt>
      <trkpt lat="50.659766290336847" lon="13.340246407315135">
        <ele>495</ele>
        <time>2026-08-29T08:22:33Z</time>
      </trkpt>
      <trkpt lat="50.659775510430336" lon="13.340242886915803">
        <ele>495</ele>
        <time>2026-08-29T08:22:34Z</time>
      </trkpt>
      <trkpt lat="50.659776348620653" lon="13.340242300182581">
        <ele>496</ele>
        <time>2026-08-29T08:22:35Z</time>
      </trkpt>
      <trkpt lat="50.659776432439685" lon="13.340242300182581">
        <ele>496</ele>
        <time>2026-08-29T08:22:36Z</time>
      </trkpt>
      <trkpt lat="50.659775510430336" lon="13.340240120887756">
        <ele>495</ele>
        <time>2026-08-29T08:22:37Z</time>
      </trkpt>
      <trkpt lat="50.659778444096446" lon="13.340224027633667">
        <ele>495</ele>
        <time>2026-08-29T08:22:38Z</time>
      </trkpt>
      <trkpt lat="50.659789424389601" lon="13.340201145038009">
        <ele>495</ele>
        <time>2026-08-29T08:22:39Z</time>
      </trkpt>
      <trkpt lat="50.659799566492438" lon="13.340179771184921">
        <ele>495</ele>
        <time>2026-08-29T08:22:40Z</time>
      </trkpt>
      <trkpt lat="50.65981381572783" lon="13.340157056227326">
        <ele>495</ele>
        <time>2026-08-29T08:22:41Z</time>
      </trkpt>
      <trkpt lat="50.659821862354875" lon="13.340144483372569">
        <ele>494</ele>
        <time>2026-08-29T08:22:42Z</time>
      </trkpt>
      <trkpt lat="50.659825298935175" lon="13.340128306299448">
        <ele>494</ele>
        <time>2026-08-29T08:22:43Z</time>
      </trkpt>
      <trkpt lat="50.659830663353205" lon="13.340123863890767">
        <ele>495</ele>
        <time>2026-08-29T08:22:44Z</time>
      </trkpt>
      <trkpt lat="50.659835524857044" lon="13.340115146711469">
        <ele>495</ele>
        <time>2026-08-29T08:22:45Z</time>
      </trkpt>
      <trkpt lat="50.659836698323488" lon="13.340109111741185">
        <ele>495</ele>
        <time>2026-08-29T08:22:46Z</time>
      </trkpt>
      <trkpt lat="50.65983192063868" lon="13.340102909132838">
        <ele>495</ele>
        <time>2026-08-29T08:22:47Z</time>
      </trkpt>
      <trkpt lat="50.659825801849365" lon="13.340095449239016">
        <ele>495</ele>
        <time>2026-08-29T08:22:48Z</time>
      </trkpt>
      <trkpt lat="50.659820940345526" lon="13.34007809869945">
        <ele>495</ele>
        <time>2026-08-29T08:22:49Z</time>
      </trkpt>
      <trkpt lat="50.659809960052371" lon="13.340063598006964">
        <ele>495</ele>
        <time>2026-08-29T08:22:50Z</time>
      </trkpt>
      <trkpt lat="50.659803170710802" lon="13.340039122849703">
        <ele>495</ele>
        <time>2026-08-29T08:22:51Z</time>
      </trkpt>
      <trkpt lat="50.659813228994608" lon="13.340005679056048">
        <ele>496</ele>
        <time>2026-08-29T08:22:52Z</time>
      </trkpt>
      <trkpt lat="50.659828400239348" lon="13.339979276061058">
        <ele>496</ele>
        <time>2026-08-29T08:22:53Z</time>
      </trkpt>
      <trkpt lat="50.659843822941184" lon="13.339944826439023">
        <ele>495</ele>
        <time>2026-08-29T08:22:54Z</time>
      </trkpt>
      <trkpt lat="50.659855138510466" lon="13.339903587475419">
        <ele>495</ele>
        <time>2026-08-29T08:22:55Z</time>
      </trkpt>
      <trkpt lat="50.659875841811299" lon="13.339859750121832">
        <ele>496</ele>
        <time>2026-08-29T08:22:56Z</time>
      </trkpt>
      <trkpt lat="50.659899478778243" lon="13.33980250172317">
        <ele>495</ele>
        <time>2026-08-29T08:22:57Z</time>
      </trkpt>
      <trkpt lat="50.659924540668726" lon="13.33974240347743">
        <ele>495</ele>
        <time>2026-08-29T08:22:58Z</time>
      </trkpt>
      <trkpt lat="50.65995940938592" lon="13.339685825631022">
        <ele>495</ele>
        <time>2026-08-29T08:22:59Z</time>
      </trkpt>
      <trkpt lat="50.659987488761544" lon="13.339620195329189">
        <ele>495</ele>
        <time>2026-08-29T08:23:00Z</time>
      </trkpt>
      <trkpt lat="50.660020848736167" lon="13.339565712958574">
        <ele>494</ele>
        <time>2026-08-29T08:23:01Z</time>
      </trkpt>
      <trkpt lat="50.660047335550189" lon="13.339503519237041">
        <ele>494</ele>
        <time>2026-08-29T08:23:02Z</time>
      </trkpt>
      <trkpt lat="50.660077510401607" lon="13.339444594457746">
        <ele>495</ele>
        <time>2026-08-29T08:23:03Z</time>
      </trkpt>
      <trkpt lat="50.660111457109451" lon="13.339381478726864">
        <ele>495</ele>
        <time>2026-08-29T08:23:04Z</time>
      </trkpt>
      <trkpt lat="50.660144481807947" lon="13.339323727414012">
        <ele>494</ele>
        <time>2026-08-29T08:23:05Z</time>
      </trkpt>
      <trkpt lat="50.660176500678062" lon="13.339275112375617">
        <ele>495</ele>
        <time>2026-08-29T08:23:06Z</time>
      </trkpt>
      <trkpt lat="50.660209525376558" lon="13.339220797643065">
        <ele>495</ele>
        <time>2026-08-29T08:23:07Z</time>
      </trkpt>
      <trkpt lat="50.660236515104771" lon="13.339161118492484">
        <ele>495</ele>
        <time>2026-08-29T08:23:08Z</time>
      </trkpt>
      <trkpt lat="50.660270294174552" lon="13.339100517332554">
        <ele>496</ele>
        <time>2026-08-29T08:23:09Z</time>
      </trkpt>
      <trkpt lat="50.660306168720126" lon="13.339049387723207">
        <ele>496</ele>
        <time>2026-08-29T08:23:10Z</time>
      </trkpt>
      <trkpt lat="50.66032980568707" lon="13.338991217315197">
        <ele>496</ele>
        <time>2026-08-29T08:23:11Z</time>
      </trkpt>
      <trkpt lat="50.660362998023629" lon="13.338932543992996">
        <ele>497</ele>
        <time>2026-08-29T08:23:12Z</time>
      </trkpt>
      <trkpt lat="50.660394849255681" lon="13.338878648355603">
        <ele>496</ele>
        <time>2026-08-29T08:23:13Z</time>
      </trkpt>
      <trkpt lat="50.660428209230304" lon="13.338822992518544">
        <ele>497</ele>
        <time>2026-08-29T08:23:14Z</time>
      </trkpt>
      <trkpt lat="50.660449163988233" lon="13.338768007233739">
        <ele>497</ele>
        <time>2026-08-29T08:23:15Z</time>
      </trkpt>
      <trkpt lat="50.660473890602589" lon="13.338720314204693">
        <ele>498</ele>
        <time>2026-08-29T08:23:16Z</time>
      </trkpt>
      <trkpt lat="50.660489397123456" lon="13.338675471022725">
        <ele>497</ele>
        <time>2026-08-29T08:23:17Z</time>
      </trkpt>
      <trkpt lat="50.660505406558514" lon="13.338624089956284">
        <ele>497</ele>
        <time>2026-08-29T08:23:18Z</time>
      </trkpt>
      <trkpt lat="50.660529797896743" lon="13.338581845164299">
        <ele>498</ele>
        <time>2026-08-29T08:23:19Z</time>
      </trkpt>
      <trkpt lat="50.660550417378545" lon="13.33853549323976">
        <ele>497</ele>
        <time>2026-08-29T08:23:20Z</time>
      </trkpt>
      <trkpt lat="50.6605682708323" lon="13.338500121608377">
        <ele>498</ele>
        <time>2026-08-29T08:23:21Z</time>
      </trkpt>
      <trkpt lat="50.660584950819612" lon="13.33845972083509">
        <ele>498</ele>
        <time>2026-08-29T08:23:22Z</time>
      </trkpt>
      <trkpt lat="50.660600792616606" lon="13.338422421365976">
        <ele>498</ele>
        <time>2026-08-29T08:23:23Z</time>
      </trkpt>
      <trkpt lat="50.660616885870695" lon="13.338382691144943">
        <ele>498</ele>
        <time>2026-08-29T08:23:24Z</time>
      </trkpt>
      <trkpt lat="50.660631470382214" lon="13.338338937610388">
        <ele>499</ele>
        <time>2026-08-29T08:23:25Z</time>
      </trkpt>
      <trkpt lat="50.660650497302413" lon="13.338294932618737">
        <ele>499</ele>
        <time>2026-08-29T08:23:26Z</time>
      </trkpt>
      <trkpt lat="50.660670278593898" lon="13.338246066123247">
        <ele>499</ele>
        <time>2026-08-29T08:23:27Z</time>
      </trkpt>
      <trkpt lat="50.660683773458004" lon="13.338182279840112">
        <ele>499</ele>
        <time>2026-08-29T08:23:28Z</time>
      </trkpt>
      <trkpt lat="50.660696011036634" lon="13.338128300383687">
        <ele>499</ele>
        <time>2026-08-29T08:23:29Z</time>
      </trkpt>
      <trkpt lat="50.66071093082428" lon="13.338081110268831">
        <ele>499</ele>
        <time>2026-08-29T08:23:30Z</time>
      </trkpt>
      <trkpt lat="50.660731298848987" lon="13.338028807193041">
        <ele>499</ele>
        <time>2026-08-29T08:23:31Z</time>
      </trkpt>
      <trkpt lat="50.660743704065681" lon="13.337973989546299">
        <ele>499</ele>
        <time>2026-08-29T08:23:32Z</time>
      </trkpt>
      <trkpt lat="50.660761389881372" lon="13.337927469983697">
        <ele>499</ele>
        <time>2026-08-29T08:23:33Z</time>
      </trkpt>
      <trkpt lat="50.660769268870354" lon="13.337873071432114">
        <ele>499</ele>
        <time>2026-08-29T08:23:34Z</time>
      </trkpt>
      <trkpt lat="50.660783937200904" lon="13.337824288755655">
        <ele>499</ele>
        <time>2026-08-29T08:23:35Z</time>
      </trkpt>
      <trkpt lat="50.66080279648304" lon="13.337767710909247">
        <ele>499</ele>
        <time>2026-08-29T08:23:36Z</time>
      </trkpt>
      <trkpt lat="50.660813525319099" lon="13.337711971253157">
        <ele>499</ele>
        <time>2026-08-29T08:23:37Z</time>
      </trkpt>
      <trkpt lat="50.660815201699734" lon="13.337645838037133">
        <ele>500</ele>
        <time>2026-08-29T08:23:38Z</time>
      </trkpt>
      <trkpt lat="50.660821991041303" lon="13.337580040097237">
        <ele>500</ele>
        <time>2026-08-29T08:23:39Z</time>
      </trkpt>
      <trkpt lat="50.660825846716762" lon="13.337532011792064">
        <ele>500</ele>
        <time>2026-08-29T08:23:40Z</time>
      </trkpt>
      <trkpt lat="50.660838922485709" lon="13.337478116154671">
        <ele>500</ele>
        <time>2026-08-29T08:23:41Z</time>
      </trkpt>
      <trkpt lat="50.660844119265676" lon="13.337413994595408">
        <ele>500</ele>
        <time>2026-08-29T08:23:42Z</time>
      </trkpt>
      <trkpt lat="50.660848561674356" lon="13.337348951026797">
        <ele>500</ele>
        <time>2026-08-29T08:23:43Z</time>
      </trkpt>
      <trkpt lat="50.66085166297853" lon="13.337275106459856">
        <ele>500</ele>
        <time>2026-08-29T08:23:44Z</time>
      </trkpt>
      <trkpt lat="50.660849567502737" lon="13.33719908259809">
        <ele>501</ele>
        <time>2026-08-29T08:23:45Z</time>
      </trkpt>
      <trkpt lat="50.660869851708412" lon="13.337147366255522">
        <ele>501</ele>
        <time>2026-08-29T08:23:46Z</time>
      </trkpt>
      <trkpt lat="50.66087706014514" lon="13.337082071229815">
        <ele>502</ele>
        <time>2026-08-29T08:23:47Z</time>
      </trkpt>
      <trkpt lat="50.660892901942134" lon="13.337016440927982">
        <ele>502</ele>
        <time>2026-08-29T08:23:48Z</time>
      </trkpt>
      <trkpt lat="50.660905558615923" lon="13.336943434551358">
        <ele>503</ele>
        <time>2026-08-29T08:23:49Z</time>
      </trkpt>
      <trkpt lat="50.660914108157158" lon="13.336877971887589">
        <ele>502</ele>
        <time>2026-08-29T08:23:50Z</time>
      </trkpt>
      <trkpt lat="50.660922825336456" lon="13.336828853935003">
        <ele>502</ele>
        <time>2026-08-29T08:23:51Z</time>
      </trkpt>
      <trkpt lat="50.660939170047641" lon="13.336769929155707">
        <ele>502</ele>
        <time>2026-08-29T08:23:52Z</time>
      </trkpt>
      <trkpt lat="50.660955347120762" lon="13.336719637736678">
        <ele>503</ele>
        <time>2026-08-29T08:23:53Z</time>
      </trkpt>
      <trkpt lat="50.660969261080027" lon="13.336672531440854">
        <ele>502</ele>
        <time>2026-08-29T08:23:54Z</time>
      </trkpt>
      <trkpt lat="50.660981750115752" lon="13.336624335497618">
        <ele>502</ele>
        <time>2026-08-29T08:23:55Z</time>
      </trkpt>
      <trkpt lat="50.660997591912746" lon="13.336576726287603">
        <ele>502</ele>
        <time>2026-08-29T08:23:56Z</time>
      </trkpt>
      <trkpt lat="50.661013768985868" lon="13.336528027430177">
        <ele>502</ele>
        <time>2026-08-29T08:23:57Z</time>
      </trkpt>
      <trkpt lat="50.661027347669005" lon="13.336468348279595">
        <ele>502</ele>
        <time>2026-08-29T08:23:58Z</time>
      </trkpt>
      <trkpt lat="50.661037070676684" lon="13.336413111537695">
        <ele>502</ele>
        <time>2026-08-29T08:23:59Z</time>
      </trkpt>
      <trkpt lat="50.661043608561158" lon="13.336358210071921">
        <ele>502</ele>
        <time>2026-08-29T08:24:00Z</time>
      </trkpt>
      <trkpt lat="50.661056600511074" lon="13.336302973330021">
        <ele>502</ele>
        <time>2026-08-29T08:24:01Z</time>
      </trkpt>
      <trkpt lat="50.661067329347134" lon="13.336250837892294">
        <ele>502</ele>
        <time>2026-08-29T08:24:02Z</time>
      </trkpt>
      <trkpt lat="50.66107302904129" lon="13.336202809587121">
        <ele>501</ele>
        <time>2026-08-29T08:24:03Z</time>
      </trkpt>
      <trkpt lat="50.661079650744796" lon="13.336160480976105">
        <ele>501</ele>
        <time>2026-08-29T08:24:04Z</time>
      </trkpt>
      <trkpt lat="50.661084679886699" lon="13.33612603135407">
        <ele>501</ele>
        <time>2026-08-29T08:24:05Z</time>
      </trkpt>
      <trkpt lat="50.66108618862927" lon="13.336096191778779">
        <ele>501</ele>
        <time>2026-08-29T08:24:06Z</time>
      </trkpt>
      <trkpt lat="50.661090631037951" lon="13.336075572296977">
        <ele>500</ele>
        <time>2026-08-29T08:24:07Z</time>
      </trkpt>
      <trkpt lat="50.661096749827266" lon="13.336051013320684">
        <ele>500</ele>
        <time>2026-08-29T08:24:08Z</time>
      </trkpt>
      <trkpt lat="50.661107562482357" lon="13.336025197058916">
        <ele>500</ele>
        <time>2026-08-29T08:24:09Z</time>
      </trkpt>
      <trkpt lat="50.661113010719419" lon="13.335996363312006">
        <ele>500</ele>
        <time>2026-08-29T08:24:10Z</time>
      </trkpt>
      <trkpt lat="50.661127092316747" lon="13.335972223430872">
        <ele>500</ele>
        <time>2026-08-29T08:24:11Z</time>
      </trkpt>
      <trkpt lat="50.661146957427263" lon="13.335953783243895">
        <ele>499</ele>
        <time>2026-08-29T08:24:12Z</time>
      </trkpt>
      <trkpt lat="50.661162631586194" lon="13.33592914044857">
        <ele>499</ele>
        <time>2026-08-29T08:24:13Z</time>
      </trkpt>
      <trkpt lat="50.66117855720222" lon="13.335899636149406">
        <ele>499</ele>
        <time>2026-08-29T08:24:14Z</time>
      </trkpt>
      <trkpt lat="50.66119372844696" lon="13.33588220179081">
        <ele>499</ele>
        <time>2026-08-29T08:24:15Z</time>
      </trkpt>
      <trkpt lat="50.661206720396876" lon="13.335866443812847">
        <ele>499</ele>
        <time>2026-08-29T08:24:16Z</time>
      </trkpt>
      <trkpt lat="50.661220801994205" lon="13.335836436599493">
        <ele>499</ele>
        <time>2026-08-29T08:24:17Z</time>
      </trkpt>
      <trkpt lat="50.661237481981516" lon="13.335809027776122">
        <ele>499</ele>
        <time>2026-08-29T08:24:18Z</time>
      </trkpt>
      <trkpt lat="50.661250473931432" lon="13.335775835439563">
        <ele>499</ele>
        <time>2026-08-29T08:24:19Z</time>
      </trkpt>
      <trkpt lat="50.66126799210906" lon="13.335741385817528">
        <ele>499</ele>
        <time>2026-08-29T08:24:20Z</time>
      </trkpt>
      <trkpt lat="50.661279391497374" lon="13.335709199309349">
        <ele>499</ele>
        <time>2026-08-29T08:24:21Z</time>
      </trkpt>
      <trkpt lat="50.661292131990194" lon="13.335680868476629">
        <ele>499</ele>
        <time>2026-08-29T08:24:22Z</time>
      </trkpt>
      <trkpt lat="50.661305040121078" lon="13.335644658654928">
        <ele>499</ele>
        <time>2026-08-29T08:24:23Z</time>
      </trkpt>
      <trkpt lat="50.661313338205218" lon="13.335608281195164">
        <ele>499</ele>
        <time>2026-08-29T08:24:24Z</time>
      </trkpt>
      <trkpt lat="50.661326078698039" lon="13.335571736097336">
        <ele>499</ele>
        <time>2026-08-29T08:24:25Z</time>
      </trkpt>
      <trkpt lat="50.661334712058306" lon="13.335535861551762">
        <ele>499</ele>
        <time>2026-08-29T08:24:26Z</time>
      </trkpt>
      <trkpt lat="50.661349799484015" lon="13.335499232634902">
        <ele>499</ele>
        <time>2026-08-29T08:24:27Z</time>
      </trkpt>
      <trkpt lat="50.661357510834932" lon="13.335460172966123">
        <ele>499</ele>
        <time>2026-08-29T08:24:28Z</time>
      </trkpt>
      <trkpt lat="50.661364970728755" lon="13.335417676717043">
        <ele>499</ele>
        <time>2026-08-29T08:24:29Z</time>
      </trkpt>
      <trkpt lat="50.661376370117068" lon="13.335374761372805">
        <ele>499</ele>
        <time>2026-08-29T08:24:30Z</time>
      </trkpt>
      <trkpt lat="50.661394977942109" lon="13.335330588743091">
        <ele>499</ele>
        <time>2026-08-29T08:24:31Z</time>
      </trkpt>
      <trkpt lat="50.661415262147784" lon="13.335291361436248">
        <ele>499</ele>
        <time>2026-08-29T08:24:32Z</time>
      </trkpt>
      <trkpt lat="50.661427667364478" lon="13.335245177149773">
        <ele>499</ele>
        <time>2026-08-29T08:24:33Z</time>
      </trkpt>
      <trkpt lat="50.661444012075663" lon="13.335208632051945">
        <ele>499</ele>
        <time>2026-08-29T08:24:34Z</time>
      </trkpt>
      <trkpt lat="50.661454992368817" lon="13.335170242935419">
        <ele>498</ele>
        <time>2026-08-29T08:24:35Z</time>
      </trkpt>
      <trkpt lat="50.661466391757131" lon="13.335140319541097">
        <ele>498</ele>
        <time>2026-08-29T08:24:36Z</time>
      </trkpt>
      <trkpt lat="50.661486340686679" lon="13.33510528318584">
        <ele>498</ele>
        <time>2026-08-29T08:24:37Z</time>
      </trkpt>
      <trkpt lat="50.661499919369817" lon="13.335062954574823">
        <ele>498</ele>
        <time>2026-08-29T08:24:38Z</time>
      </trkpt>
      <trkpt lat="50.661512743681669" lon="13.335028337314725">
        <ele>499</ele>
        <time>2026-08-29T08:24:39Z</time>
      </trkpt>
      <trkpt lat="50.6615284178406" lon="13.334997911006212">
        <ele>499</ele>
        <time>2026-08-29T08:24:40Z</time>
      </trkpt>
      <trkpt lat="50.661538140848279" lon="13.334971759468317">
        <ele>499</ele>
        <time>2026-08-29T08:24:41Z</time>
      </trkpt>
      <trkpt lat="50.661549791693687" lon="13.334940494969487">
        <ele>500</ele>
        <time>2026-08-29T08:24:42Z</time>
      </trkpt>
      <trkpt lat="50.66155725158751" lon="13.334910487756133">
        <ele>500</ele>
        <time>2026-08-29T08:24:43Z</time>
      </trkpt>
      <trkpt lat="50.661564040929079" lon="13.3348932210356">
        <ele>500</ele>
        <time>2026-08-29T08:24:44Z</time>
      </trkpt>
      <trkpt lat="50.661574099212885" lon="13.334870841354132">
        <ele>500</ele>
        <time>2026-08-29T08:24:45Z</time>
      </trkpt>
      <trkpt lat="50.661582900211215" lon="13.334846533834934">
        <ele>500</ele>
        <time>2026-08-29T08:24:46Z</time>
      </trkpt>
      <trkpt lat="50.661589521914721" lon="13.334827842190862">
        <ele>501</ele>
        <time>2026-08-29T08:24:47Z</time>
      </trkpt>
      <trkpt lat="50.661584828048944" lon="13.334815017879009">
        <ele>500</ele>
        <time>2026-08-29T08:24:48Z</time>
      </trkpt>
      <trkpt lat="50.661584911867976" lon="13.334815688431263">
        <ele>500</ele>
        <time>2026-08-29T08:24:49Z</time>
      </trkpt>
      <trkpt lat="50.661584744229913" lon="13.334815772250295">
        <ele>500</ele>
        <time>2026-08-29T08:24:50Z</time>
      </trkpt>
      <trkpt lat="50.661586336791515" lon="13.334815269336104">
        <ele>500</ele>
        <time>2026-08-29T08:24:51Z</time>
      </trkpt>
      <trkpt lat="50.661591533571482" lon="13.334815353155136">
        <ele>500</ele>
        <time>2026-08-29T08:24:52Z</time>
      </trkpt>
      <trkpt lat="50.661587761715055" lon="13.334832536056638">
        <ele>500</ele>
        <time>2026-08-29T08:24:53Z</time>
      </trkpt>
      <trkpt lat="50.661587258800864" lon="13.334832787513733">
        <ele>500</ele>
        <time>2026-08-29T08:24:54Z</time>
      </trkpt>
      <trkpt lat="50.661586923524737" lon="13.334832200780511">
        <ele>500</ele>
        <time>2026-08-29T08:24:55Z</time>
      </trkpt>
      <trkpt lat="50.661587091162801" lon="13.334831697866321">
        <ele>500</ele>
        <time>2026-08-29T08:24:56Z</time>
      </trkpt>
      <trkpt lat="50.661587510257959" lon="13.334831530228257">
        <ele>500</ele>
        <time>2026-08-29T08:24:57Z</time>
      </trkpt>
      <trkpt lat="50.661587594076991" lon="13.334831278771162">
        <ele>500</ele>
        <time>2026-08-29T08:24:58Z</time>
      </trkpt>
      <trkpt lat="50.66158851608634" lon="13.334831697866321">
        <ele>500</ele>
        <time>2026-08-29T08:24:59Z</time>
      </trkpt>
      <trkpt lat="50.661588599905372" lon="13.334831278771162">
        <ele>500</ele>
        <time>2026-08-29T08:25:00Z</time>
      </trkpt>
      <trkpt lat="50.66158901900053" lon="13.334831446409225">
        <ele>500</ele>
        <time>2026-08-29T08:25:01Z</time>
      </trkpt>
      <trkpt lat="50.66158901900053" lon="13.334831949323416">
        <ele>500</ele>
        <time>2026-08-29T08:25:02Z</time>
      </trkpt>
      <trkpt lat="50.661589521914721" lon="13.334832033142447">
        <ele>500</ele>
        <time>2026-08-29T08:25:03Z</time>
      </trkpt>
      <trkpt lat="50.661589941009879" lon="13.334832284599543">
        <ele>500</ele>
        <time>2026-08-29T08:25:04Z</time>
      </trkpt>
      <trkpt lat="50.661590024828911" lon="13.334832284599543">
        <ele>500</ele>
        <time>2026-08-29T08:25:05Z</time>
      </trkpt>
      <trkpt lat="50.661590192466974" lon="13.334832619875669">
        <ele>500</ele>
        <time>2026-08-29T08:25:06Z</time>
      </trkpt>
      <trkpt lat="50.661590360105038" lon="13.334832536056638">
        <ele>500</ele>
        <time>2026-08-29T08:25:07Z</time>
      </trkpt>
      <trkpt lat="50.661590192466974" lon="13.334832536056638">
        <ele>500</ele>
        <time>2026-08-29T08:25:08Z</time>
      </trkpt>
      <trkpt lat="50.661590192466974" lon="13.334832536056638">
        <ele>500</ele>
        <time>2026-08-29T08:25:09Z</time>
      </trkpt>
      <trkpt lat="50.661590192466974" lon="13.334832452237606">
        <ele>500</ele>
        <time>2026-08-29T08:25:10Z</time>
      </trkpt>
      <trkpt lat="50.661590108647943" lon="13.334832368418574">
        <ele>500</ele>
        <time>2026-08-29T08:25:11Z</time>
      </trkpt>
      <trkpt lat="50.661590276286006" lon="13.334832116961479">
        <ele>500</ele>
        <time>2026-08-29T08:25:12Z</time>
      </trkpt>
      <trkpt lat="50.661590192466974" lon="13.334831949323416">
        <ele>500</ele>
        <time>2026-08-29T08:25:13Z</time>
      </trkpt>
      <trkpt lat="50.661590527743101" lon="13.334831949323416">
        <ele>500</ele>
        <time>2026-08-29T08:25:14Z</time>
      </trkpt>
      <trkpt lat="50.661590443924069" lon="13.334831614047289">
        <ele>500</ele>
        <time>2026-08-29T08:25:15Z</time>
      </trkpt>
      <trkpt lat="50.661590360105038" lon="13.334831362590194">
        <ele>500</ele>
        <time>2026-08-29T08:25:16Z</time>
      </trkpt>
      <trkpt lat="50.661590192466974" lon="13.334831278771162">
        <ele>500</ele>
        <time>2026-08-29T08:25:17Z</time>
      </trkpt>
      <trkpt lat="50.661590192466974" lon="13.334831362590194">
        <ele>500</ele>
        <time>2026-08-29T08:25:18Z</time>
      </trkpt>
      <trkpt lat="50.661590024828911" lon="13.33483119495213">
        <ele>500</ele>
        <time>2026-08-29T08:25:19Z</time>
      </trkpt>
      <trkpt lat="50.661589941009879" lon="13.334831446409225">
        <ele>500</ele>
        <time>2026-08-29T08:25:20Z</time>
      </trkpt>
      <trkpt lat="50.661590108647943" lon="13.334831781685352">
        <ele>500</ele>
        <time>2026-08-29T08:25:21Z</time>
      </trkpt>
      <trkpt lat="50.661590108647943" lon="13.334831362590194">
        <ele>500</ele>
        <time>2026-08-29T08:25:22Z</time>
      </trkpt>
      <trkpt lat="50.661589941009879" lon="13.334831530228257">
        <ele>500</ele>
        <time>2026-08-29T08:25:23Z</time>
      </trkpt>
      <trkpt lat="50.661589773371816" lon="13.334831446409225">
        <ele>500</ele>
        <time>2026-08-29T08:25:24Z</time>
      </trkpt>
      <trkpt lat="50.661589857190847" lon="13.334831697866321">
        <ele>500</ele>
        <time>2026-08-29T08:25:25Z</time>
      </trkpt>
      <trkpt lat="50.661589857190847" lon="13.334831362590194">
        <ele>500</ele>
        <time>2026-08-29T08:25:26Z</time>
      </trkpt>
      <trkpt lat="50.661589857190847" lon="13.33483119495213">
        <ele>500</ele>
        <time>2026-08-29T08:25:27Z</time>
      </trkpt>
      <trkpt lat="50.661589438095689" lon="13.334823735058308">
        <ele>499</ele>
        <time>2026-08-29T08:25:28Z</time>
      </trkpt>
      <trkpt lat="50.661583067849278" lon="13.334828009828925">
        <ele>498</ele>
        <time>2026-08-29T08:25:29Z</time>
      </trkpt>
      <trkpt lat="50.661583319306374" lon="13.334823818877339">
        <ele>498</ele>
        <time>2026-08-29T08:25:30Z</time>
      </trkpt>
      <trkpt lat="50.661587929353118" lon="13.334825662896037">
        <ele>498</ele>
        <time>2026-08-29T08:25:31Z</time>
      </trkpt>
      <trkpt lat="50.661585917696357" lon="13.334828512743115">
        <ele>498</ele>
        <time>2026-08-29T08:25:32Z</time>
      </trkpt>
      <trkpt lat="50.66157627850771" lon="13.334823483601213">
        <ele>498</ele>
        <time>2026-08-29T08:25:33Z</time>
      </trkpt>
      <trkpt lat="50.661575440317392" lon="13.334821471944451">
        <ele>498</ele>
        <time>2026-08-29T08:25:34Z</time>
      </trkpt>
      <trkpt lat="50.661575105041265" lon="13.334820214658976">
        <ele>499</ele>
        <time>2026-08-29T08:25:35Z</time>
      </trkpt>
      <trkpt lat="50.6615767814219" lon="13.334813173860312">
        <ele>499</ele>
        <time>2026-08-29T08:25:36Z</time>
      </trkpt>
      <trkpt lat="50.661585163325071" lon="13.334803031757474">
        <ele>499</ele>
        <time>2026-08-29T08:25:37Z</time>
      </trkpt>
      <trkpt lat="50.661597568541765" lon="13.334789536893368">
        <ele>499</ele>
        <time>2026-08-29T08:25:38Z</time>
      </trkpt>
      <trkpt lat="50.66161148250103" lon="13.334774700924754">
        <ele>498</ele>
        <time>2026-08-29T08:25:39Z</time>
      </trkpt>
      <trkpt lat="50.661636544391513" lon="13.334757182747126">
        <ele>498</ele>
        <time>2026-08-29T08:25:40Z</time>
      </trkpt>
      <trkpt lat="50.661657080054283" lon="13.33473295904696">
        <ele>497</ele>
        <time>2026-08-29T08:25:41Z</time>
      </trkpt>
      <trkpt lat="50.661681219935417" lon="13.33470513112843">
        <ele>497</ele>
        <time>2026-08-29T08:25:42Z</time>
      </trkpt>
      <trkpt lat="50.661695972084999" lon="13.334669088944793">
        <ele>496</ele>
        <time>2026-08-29T08:25:43Z</time>
      </trkpt>
      <trkpt lat="50.661701839417219" lon="13.334617791697383">
        <ele>496</ele>
        <time>2026-08-29T08:25:44Z</time>
      </trkpt>
      <trkpt lat="50.66171265207231" lon="13.334571691229939">
        <ele>497</ele>
        <time>2026-08-29T08:25:45Z</time>
      </trkpt>
      <trkpt lat="50.661733690649271" lon="13.33451310172677">
        <ele>497</ele>
        <time>2026-08-29T08:25:46Z</time>
      </trkpt>
      <trkpt lat="50.66175171174109" lon="13.334468677639961">
        <ele>497</ele>
        <time>2026-08-29T08:25:47Z</time>
      </trkpt>
      <trkpt lat="50.661762440577149" lon="13.334421571344137">
        <ele>497</ele>
        <time>2026-08-29T08:25:48Z</time>
      </trkpt>
      <trkpt lat="50.661778198555112" lon="13.334384355694056">
        <ele>497</ele>
        <time>2026-08-29T08:25:49Z</time>
      </trkpt>
      <trkpt lat="50.661789262667298" lon="13.334348648786545">
        <ele>497</ele>
        <time>2026-08-29T08:25:50Z</time>
      </trkpt>
      <trkpt lat="50.661807116121054" lon="13.334328448399901">
        <ele>497</ele>
        <time>2026-08-29T08:25:51Z</time>
      </trkpt>
      <trkpt lat="50.661835027858615" lon="13.334334148094058">
        <ele>496</ele>
        <time>2026-08-29T08:25:52Z</time>
      </trkpt>
      <trkpt lat="50.661871992051601" lon="13.334365328773856">
        <ele>496</ele>
        <time>2026-08-29T08:25:53Z</time>
      </trkpt>
      <trkpt lat="50.661921529099345" lon="13.334404891356826">
        <ele>496</ele>
        <time>2026-08-29T08:25:54Z</time>
      </trkpt>
      <trkpt lat="50.661970479413867" lon="13.33443146198988">
        <ele>496</ele>
        <time>2026-08-29T08:25:55Z</time>
      </trkpt>
      <trkpt lat="50.662025799974799" lon="13.334468845278025">
        <ele>496</ele>
        <time>2026-08-29T08:25:56Z</time>
      </trkpt>
      <trkpt lat="50.66207910887897" lon="13.334515867754817">
        <ele>495</ele>
        <time>2026-08-29T08:25:57Z</time>
      </trkpt>
      <trkpt lat="50.662123616784811" lon="13.334548976272345">
        <ele>493</ele>
        <time>2026-08-29T08:25:58Z</time>
      </trkpt>
      <trkpt lat="50.662161335349083" lon="13.334548976272345">
        <ele>493</ele>
        <time>2026-08-29T08:25:59Z</time>
      </trkpt>
      <trkpt lat="50.662188660353422" lon="13.334525339305401">
        <ele>493</ele>
        <time>2026-08-29T08:26:00Z</time>
      </trkpt>
      <trkpt lat="50.662208860740066" lon="13.334480999037623">
        <ele>494</ele>
        <time>2026-08-29T08:26:01Z</time>
      </trkpt>
      <trkpt lat="50.662225121632218" lon="13.334429282695055">
        <ele>494</ele>
        <time>2026-08-29T08:26:02Z</time>
      </trkpt>
      <trkpt lat="50.662240879610181" lon="13.334372872486711">
        <ele>494</ele>
        <time>2026-08-29T08:26:03Z</time>
      </trkpt>
      <trkpt lat="50.662261750549078" lon="13.334304559975863">
        <ele>493</ele>
        <time>2026-08-29T08:26:04Z</time>
      </trkpt>
      <trkpt lat="50.662280609831214" lon="13.334245132282376">
        <ele>494</ele>
        <time>2026-08-29T08:26:05Z</time>
      </trkpt>
      <trkpt lat="50.662315394729376" lon="13.334195176139474">
        <ele>495</ele>
        <time>2026-08-29T08:26:06Z</time>
      </trkpt>
      <trkpt lat="50.662352610379457" lon="13.334139939397573">
        <ele>494</ele>
        <time>2026-08-29T08:26:07Z</time>
      </trkpt>
      <trkpt lat="50.662384461611509" lon="13.334074979647994">
        <ele>494</ele>
        <time>2026-08-29T08:26:08Z</time>
      </trkpt>
      <trkpt lat="50.662417067214847" lon="13.334021167829633">
        <ele>494</ele>
        <time>2026-08-29T08:26:09Z</time>
      </trkpt>
      <trkpt lat="50.662450511008501" lon="13.33395654335618">
        <ele>494</ele>
        <time>2026-08-29T08:26:10Z</time>
      </trkpt>
      <trkpt lat="50.662482194602489" lon="13.333894349634647">
        <ele>494</ele>
        <time>2026-08-29T08:26:11Z</time>
      </trkpt>
      <trkpt lat="50.662521002814174" lon="13.333839867264032">
        <ele>494</ele>
        <time>2026-08-29T08:26:12Z</time>
      </trkpt>
      <trkpt lat="50.662554111331701" lon="13.333788905292749">
        <ele>494</ele>
        <time>2026-08-29T08:26:13Z</time>
      </trkpt>
      <trkpt lat="50.662570875138044" lon="13.333738949149847">
        <ele>494</ele>
        <time>2026-08-29T08:26:14Z</time>
      </trkpt>
      <trkpt lat="50.662577664479613" lon="13.333681365475059">
        <ele>494</ele>
        <time>2026-08-29T08:26:15Z</time>
      </trkpt>
      <trkpt lat="50.662592332810163" lon="13.333621099591255">
        <ele>494</ele>
        <time>2026-08-29T08:26:16Z</time>
      </trkpt>
      <trkpt lat="50.662601636722684" lon="13.333556558936834">
        <ele>494</ele>
        <time>2026-08-29T08:26:17Z</time>
      </trkpt>
      <trkpt lat="50.662609850987792" lon="13.333490258082747">
        <ele>494</ele>
        <time>2026-08-29T08:26:18Z</time>
      </trkpt>
      <trkpt lat="50.662619741633534" lon="13.333414318040013">
        <ele>493</ele>
        <time>2026-08-29T08:26:19Z</time>
      </trkpt>
      <trkpt lat="50.662624184042215" lon="13.333334103226662">
        <ele>493</ele>
        <time>2026-08-29T08:26:20Z</time>
      </trkpt>
      <trkpt lat="50.662628961727023" lon="13.33325581625104">
        <ele>493</ele>
        <time>2026-08-29T08:26:21Z</time>
      </trkpt>
      <trkpt lat="50.662633068859577" lon="13.333176439628005">
        <ele>492</ele>
        <time>2026-08-29T08:26:22Z</time>
      </trkpt>
      <trkpt lat="50.662645557895303" lon="13.333092117682099">
        <ele>492</ele>
        <time>2026-08-29T08:26:23Z</time>
      </trkpt>
      <trkpt lat="50.662658382207155" lon="13.333014333620667">
        <ele>492</ele>
        <time>2026-08-29T08:26:24Z</time>
      </trkpt>
      <trkpt lat="50.662663243710995" lon="13.332937974482775">
        <ele>492</ele>
        <time>2026-08-29T08:26:25Z</time>
      </trkpt>
      <trkpt lat="50.662668524309993" lon="13.332852898165584">
        <ele>492</ele>
        <time>2026-08-29T08:26:26Z</time>
      </trkpt>
      <trkpt lat="50.662675900384784" lon="13.332770420238376">
        <ele>493</ele>
        <time>2026-08-29T08:26:27Z</time>
      </trkpt>
      <trkpt lat="50.662683360278606" lon="13.33268609829247">
        <ele>493</ele>
        <time>2026-08-29T08:26:28Z</time>
      </trkpt>
      <trkpt lat="50.662688557058573" lon="13.332604626193643">
        <ele>493</ele>
        <time>2026-08-29T08:26:29Z</time>
      </trkpt>
      <trkpt lat="50.662705069407821" lon="13.332524495199323">
        <ele>492</ele>
        <time>2026-08-29T08:26:30Z</time>
      </trkpt>
      <trkpt lat="50.662727868184447" lon="13.332433719187975">
        <ele>492</ele>
        <time>2026-08-29T08:26:31Z</time>
      </trkpt>
      <trkpt lat="50.662744296714664" lon="13.332347637042403">
        <ele>492</ele>
        <time>2026-08-29T08:26:32Z</time>
      </trkpt>
      <trkpt lat="50.662760809063911" lon="13.33226096816361">
        <ele>492</ele>
        <time>2026-08-29T08:26:33Z</time>
      </trkpt>
      <trkpt lat="50.662784613668919" lon="13.332176394760609">
        <ele>492</ele>
        <time>2026-08-29T08:26:34Z</time>
      </trkpt>
      <trkpt lat="50.662806322798133" lon="13.332089222967625">
        <ele>493</ele>
        <time>2026-08-29T08:26:35Z</time>
      </trkpt>
      <trkpt lat="50.662825517356396" lon="13.331994758918881">
        <ele>492</ele>
        <time>2026-08-29T08:26:36Z</time>
      </trkpt>
      <trkpt lat="50.6628477293998" lon="13.331914292648435">
        <ele>492</ele>
        <time>2026-08-29T08:26:37Z</time>
      </trkpt>
      <trkpt lat="50.662868851795793" lon="13.331836592406034">
        <ele>492</ele>
        <time>2026-08-29T08:26:38Z</time>
      </trkpt>
      <trkpt lat="50.662890309467912" lon="13.331746906042099">
        <ele>492</ele>
        <time>2026-08-29T08:26:39Z</time>
      </trkpt>
      <trkpt lat="50.662916712462902" lon="13.331664679571986">
        <ele>493</ele>
        <time>2026-08-29T08:26:40Z</time>
      </trkpt>
      <trkpt lat="50.662938421592116" lon="13.331578010693192">
        <ele>493</ele>
        <time>2026-08-29T08:26:41Z</time>
      </trkpt>
      <trkpt lat="50.662962645292282" lon="13.33149922080338">
        <ele>493</ele>
        <time>2026-08-29T08:26:42Z</time>
      </trkpt>
      <trkpt lat="50.662987120449543" lon="13.331414731219411">
        <ele>493</ele>
        <time>2026-08-29T08:26:43Z</time>
      </trkpt>
      <trkpt lat="50.663004470989108" lon="13.331333845853806">
        <ele>493</ele>
        <time>2026-08-29T08:26:44Z</time>
      </trkpt>
      <trkpt lat="50.663027688860893" lon="13.331249104812741">
        <ele>493</ele>
        <time>2026-08-29T08:26:45Z</time>
      </trkpt>
      <trkpt lat="50.663051912561059" lon="13.331177523359656">
        <ele>493</ele>
        <time>2026-08-29T08:26:46Z</time>
      </trkpt>
      <trkpt lat="50.663075717166066" lon="13.331096889451146">
        <ele>493</ele>
        <time>2026-08-29T08:26:47Z</time>
      </trkpt>
      <trkpt lat="50.663094157353044" lon="13.331017680466175">
        <ele>493</ele>
        <time>2026-08-29T08:26:48Z</time>
      </trkpt>
      <trkpt lat="50.663112429901958" lon="13.330938471481204">
        <ele>493</ele>
        <time>2026-08-29T08:26:49Z</time>
      </trkpt>
      <trkpt lat="50.663128271698952" lon="13.330859765410423">
        <ele>492</ele>
        <time>2026-08-29T08:26:50Z</time>
      </trkpt>
      <trkpt lat="50.663149058818817" lon="13.330776700749993">
        <ele>492</ele>
        <time>2026-08-29T08:26:51Z</time>
      </trkpt>
      <trkpt lat="50.663172360509634" lon="13.330700341612101">
        <ele>493</ele>
        <time>2026-08-29T08:26:52Z</time>
      </trkpt>
      <trkpt lat="50.663201780989766" lon="13.33062456920743">
        <ele>492</ele>
        <time>2026-08-29T08:26:53Z</time>
      </trkpt>
      <trkpt lat="50.663225250318646" lon="13.330546282231808">
        <ele>492</ele>
        <time>2026-08-29T08:26:54Z</time>
      </trkpt>
      <trkpt lat="50.663244528695941" lon="13.330469001084566">
        <ele>491</ele>
        <time>2026-08-29T08:26:55Z</time>
      </trkpt>
      <trkpt lat="50.663261963054538" lon="13.330386858433485">
        <ele>491</ele>
        <time>2026-08-29T08:26:56Z</time>
      </trkpt>
      <trkpt lat="50.663276296108961" lon="13.330312762409449">
        <ele>491</ele>
        <time>2026-08-29T08:26:57Z</time>
      </trkpt>
      <trkpt lat="50.663288533687592" lon="13.330237409099936">
        <ele>491</ele>
        <time>2026-08-29T08:26:58Z</time>
      </trkpt>
      <trkpt lat="50.663304040208459" lon="13.330164905637503">
        <ele>490</ele>
        <time>2026-08-29T08:26:59Z</time>
      </trkpt>
      <trkpt lat="50.663322899490595" lon="13.330094749107957">
        <ele>489</ele>
        <time>2026-08-29T08:27:00Z</time>
      </trkpt>
      <trkpt lat="50.663340920582414" lon="13.330017384141684">
        <ele>489</ele>
        <time>2026-08-29T08:27:01Z</time>
      </trkpt>
      <trkpt lat="50.663358857855201" lon="13.329932559281588">
        <ele>490</ele>
        <time>2026-08-29T08:27:02Z</time>
      </trkpt>
      <trkpt lat="50.66337738186121" lon="13.329848991706967">
        <ele>490</ele>
        <time>2026-08-29T08:27:03Z</time>
      </trkpt>
      <trkpt lat="50.663399510085583" lon="13.329758048057556">
        <ele>490</ele>
        <time>2026-08-29T08:27:04Z</time>
      </trkpt>
      <trkpt lat="50.663415603339672" lon="13.329673642292619">
        <ele>490</ele>
        <time>2026-08-29T08:27:05Z</time>
      </trkpt>
      <trkpt lat="50.663434127345681" lon="13.329586889594793">
        <ele>489</ele>
        <time>2026-08-29T08:27:06Z</time>
      </trkpt>
      <trkpt lat="50.663454663008451" lon="13.329496700316668">
        <ele>490</ele>
        <time>2026-08-29T08:27:07Z</time>
      </trkpt>
      <trkpt lat="50.66347167827189" lon="13.329408019781113">
        <ele>489</ele>
        <time>2026-08-29T08:27:08Z</time>
      </trkpt>
      <trkpt lat="50.663491878658533" lon="13.329317662864923">
        <ele>489</ele>
        <time>2026-08-29T08:27:09Z</time>
      </trkpt>
      <trkpt lat="50.663513168692589" lon="13.329228227958083">
        <ele>489</ele>
        <time>2026-08-29T08:27:10Z</time>
      </trkpt>
      <trkpt lat="50.663535380735993" lon="13.329138960689306">
        <ele>489</ele>
        <time>2026-08-29T08:27:11Z</time>
      </trkpt>
      <trkpt lat="50.663552479818463" lon="13.329051537439227">
        <ele>489</ele>
        <time>2026-08-29T08:27:12Z</time>
      </trkpt>
      <trkpt lat="50.663573769852519" lon="13.328957324847579">
        <ele>489</ele>
        <time>2026-08-29T08:27:13Z</time>
      </trkpt>
      <trkpt lat="50.663592461496592" lon="13.328868560492992">
        <ele>489</ele>
        <time>2026-08-29T08:27:14Z</time>
      </trkpt>
      <trkpt lat="50.663607465103269" lon="13.328781556338072">
        <ele>489</ele>
        <time>2026-08-29T08:27:15Z</time>
      </trkpt>
      <trkpt lat="50.663624564185739" lon="13.328694300726056">
        <ele>489</ele>
        <time>2026-08-29T08:27:16Z</time>
      </trkpt>
      <trkpt lat="50.663635712116957" lon="13.328595981001854">
        <ele>489</ele>
        <time>2026-08-29T08:27:17Z</time>
      </trkpt>
      <trkpt lat="50.66364468075335" lon="13.328501768410206">
        <ele>489</ele>
        <time>2026-08-29T08:27:18Z</time>
      </trkpt>
      <trkpt lat="50.663656499236822" lon="13.328402023762465">
        <ele>488</ele>
        <time>2026-08-29T08:27:19Z</time>
      </trkpt>
      <trkpt lat="50.663667730987072" lon="13.328305380418897">
        <ele>488</ele>
        <time>2026-08-29T08:27:20Z</time>
      </trkpt>
      <trkpt lat="50.6636749394238" lon="13.328212425112724">
        <ele>488</ele>
        <time>2026-08-29T08:27:21Z</time>
      </trkpt>
      <trkpt lat="50.663682902231812" lon="13.328122403472662">
        <ele>489</ele>
        <time>2026-08-29T08:27:22Z</time>
      </trkpt>
      <trkpt lat="50.663690697401762" lon="13.328028107061982">
        <ele>489</ele>
        <time>2026-08-29T08:27:23Z</time>
      </trkpt>
      <trkpt lat="50.663704443722963" lon="13.327932301908731">
        <ele>489</ele>
        <time>2026-08-29T08:27:24Z</time>
      </trkpt>
      <trkpt lat="50.663721458986402" lon="13.327833814546466">
        <ele>489</ele>
        <time>2026-08-29T08:27:25Z</time>
      </trkpt>
      <trkpt lat="50.663741240277886" lon="13.327732644975185">
        <ele>489</ele>
        <time>2026-08-29T08:27:26Z</time>
      </trkpt>
      <trkpt lat="50.663756998255849" lon="13.327633570879698">
        <ele>489</ele>
        <time>2026-08-29T08:27:27Z</time>
      </trkpt>
      <trkpt lat="50.663771331310272" lon="13.327538101002574">
        <ele>489</ele>
        <time>2026-08-29T08:27:28Z</time>
      </trkpt>
      <trkpt lat="50.663788011297584" lon="13.327442547306418">
        <ele>490</ele>
        <time>2026-08-29T08:27:29Z</time>
      </trkpt>
      <trkpt lat="50.663801087066531" lon="13.327355794608593">
        <ele>490</ele>
        <time>2026-08-29T08:27:30Z</time>
      </trkpt>
      <trkpt lat="50.663812821730971" lon="13.327260911464691">
        <ele>490</ele>
        <time>2026-08-29T08:27:31Z</time>
      </trkpt>
      <trkpt lat="50.663817599415779" lon="13.32716753706336">
        <ele>489</ele>
        <time>2026-08-29T08:27:32Z</time>
      </trkpt>
      <trkpt lat="50.663820281624794" lon="13.327068714424968">
        <ele>489</ele>
        <time>2026-08-29T08:27:33Z</time>
      </trkpt>
      <trkpt lat="50.663831429556012" lon="13.326966455206275">
        <ele>488</ele>
        <time>2026-08-29T08:27:34Z</time>
      </trkpt>
      <trkpt lat="50.663845092058182" lon="13.326869644224644">
        <ele>488</ele>
        <time>2026-08-29T08:27:35Z</time>
      </trkpt>
      <trkpt lat="50.66385431215167" lon="13.326773922890425">
        <ele>488</ele>
        <time>2026-08-29T08:27:36Z</time>
      </trkpt>
      <trkpt lat="50.663865711539984" lon="13.326681386679411">
        <ele>489</ele>
        <time>2026-08-29T08:27:37Z</time>
      </trkpt>
      <trkpt lat="50.663876188918948" lon="13.326599914580584">
        <ele>488</ele>
        <time>2026-08-29T08:27:38Z</time>
      </trkpt>
      <trkpt lat="50.663881218060851" lon="13.326508719474077">
        <ele>488</ele>
        <time>2026-08-29T08:27:39Z</time>
      </trkpt>
      <trkpt lat="50.66389094106853" lon="13.32641651853919">
        <ele>488</ele>
        <time>2026-08-29T08:27:40Z</time>
      </trkpt>
      <trkpt lat="50.663896389305592" lon="13.32632708363235">
        <ele>488</ele>
        <time>2026-08-29T08:27:41Z</time>
      </trkpt>
      <trkpt lat="50.66389923915267" lon="13.326240330934525">
        <ele>488</ele>
        <time>2026-08-29T08:27:42Z</time>
      </trkpt>
      <trkpt lat="50.663897059857845" lon="13.326162546873093">
        <ele>487</ele>
        <time>2026-08-29T08:27:43Z</time>
      </trkpt>
      <trkpt lat="50.663893958553672" lon="13.326075375080109">
        <ele>487</ele>
        <time>2026-08-29T08:27:44Z</time>
      </trkpt>
      <trkpt lat="50.663889599964023" lon="13.325990214943886">
        <ele>487</ele>
        <time>2026-08-29T08:27:45Z</time>
      </trkpt>
      <trkpt lat="50.663887923583388" lon="13.32590639591217">
        <ele>487</ele>
        <time>2026-08-29T08:27:46Z</time>
      </trkpt>
      <trkpt lat="50.663890689611435" lon="13.325824588537216">
        <ele>487</ele>
        <time>2026-08-29T08:27:47Z</time>
      </trkpt>
      <trkpt lat="50.663894293829799" lon="13.325747475028038">
        <ele>487</ele>
        <time>2026-08-29T08:27:48Z</time>
      </trkpt>
      <trkpt lat="50.663898317143321" lon="13.325667260214686">
        <ele>487</ele>
        <time>2026-08-29T08:27:49Z</time>
      </trkpt>
      <trkpt lat="50.663903430104256" lon="13.325589392334223">
        <ele>487</ele>
        <time>2026-08-29T08:27:50Z</time>
      </trkpt>
      <trkpt lat="50.663912147283554" lon="13.32551646977663">
        <ele>487</ele>
        <time>2026-08-29T08:27:51Z</time>
      </trkpt>
      <trkpt lat="50.66392807289958" lon="13.32544120028615">
        <ele>488</ele>
        <time>2026-08-29T08:27:52Z</time>
      </trkpt>
      <trkpt lat="50.663950368762016" lon="13.325375402346253">
        <ele>487</ele>
        <time>2026-08-29T08:27:53Z</time>
      </trkpt>
      <trkpt lat="50.66397450864315" lon="13.325312035158277">
        <ele>487</ele>
        <time>2026-08-29T08:27:54Z</time>
      </trkpt>
      <trkpt lat="50.664003845304251" lon="13.3252521045506">
        <ele>488</ele>
        <time>2026-08-29T08:27:55Z</time>
      </trkpt>
      <trkpt lat="50.664031505584717" lon="13.325191335752606">
        <ele>488</ele>
        <time>2026-08-29T08:27:56Z</time>
      </trkpt>
      <trkpt lat="50.664061680436134" lon="13.325123190879822">
        <ele>488</ele>
        <time>2026-08-29T08:27:57Z</time>
      </trkpt>
      <trkpt lat="50.664092861115932" lon="13.325046915560961">
        <ele>488</ele>
        <time>2026-08-29T08:27:58Z</time>
      </trkpt>
      <trkpt lat="50.664123622700572" lon="13.324982794001698">
        <ele>488</ele>
        <time>2026-08-29T08:27:59Z</time>
      </trkpt>
      <trkpt lat="50.664149187505245" lon="13.324908530339599">
        <ele>488</ele>
        <time>2026-08-29T08:28:00Z</time>
      </trkpt>
      <trkpt lat="50.664172321557999" lon="13.32482798025012">
        <ele>487</ele>
        <time>2026-08-29T08:28:01Z</time>
      </trkpt>
      <trkpt lat="50.664192354306579" lon="13.324749693274498">
        <ele>487</ele>
        <time>2026-08-29T08:28:02Z</time>
      </trkpt>
      <trkpt lat="50.6642085313797" lon="13.324662940576673">
        <ele>487</ele>
        <time>2026-08-29T08:28:03Z</time>
      </trkpt>
      <trkpt lat="50.664216913282871" lon="13.32457585260272">
        <ele>487</ele>
        <time>2026-08-29T08:28:04Z</time>
      </trkpt>
      <trkpt lat="50.664218589663506" lon="13.324490776285529">
        <ele>487</ele>
        <time>2026-08-29T08:28:05Z</time>
      </trkpt>
      <trkpt lat="50.664219930768013" lon="13.324412908405066">
        <ele>487</ele>
        <time>2026-08-29T08:28:06Z</time>
      </trkpt>
      <trkpt lat="50.66421196796" lon="13.324332274496555">
        <ele>486</ele>
        <time>2026-08-29T08:28:07Z</time>
      </trkpt>
      <trkpt lat="50.664192019030452" lon="13.324256334453821">
        <ele>487</ele>
        <time>2026-08-29T08:28:08Z</time>
      </trkpt>
      <trkpt lat="50.664179529994726" lon="13.324183244258165">
        <ele>487</ele>
        <time>2026-08-29T08:28:09Z</time>
      </trkpt>
      <trkpt lat="50.664168549701571" lon="13.324109734967351">
        <ele>486</ele>
        <time>2026-08-29T08:28:10Z</time>
      </trkpt>
      <trkpt lat="50.66415237262845" lon="13.324034046381712">
        <ele>486</ele>
        <time>2026-08-29T08:28:11Z</time>
      </trkpt>
      <trkpt lat="50.664127310737967" lon="13.323972439393401">
        <ele>486</ele>
        <time>2026-08-29T08:28:12Z</time>
      </trkpt>
      <trkpt lat="50.664101578295231" lon="13.323910497128963">
        <ele>485</ele>
        <time>2026-08-29T08:28:13Z</time>
      </trkpt>
      <trkpt lat="50.664063189178705" lon="13.323863307014108">
        <ele>486</ele>
        <time>2026-08-29T08:28:14Z</time>
      </trkpt>
      <trkpt lat="50.66401993855834" lon="13.323823241516948">
        <ele>486</ele>
        <time>2026-08-29T08:28:15Z</time>
      </trkpt>
      <trkpt lat="50.663977945223451" lon="13.323789797723293">
        <ele>486</ele>
        <time>2026-08-29T08:28:16Z</time>
      </trkpt>
      <trkpt lat="50.663934862241149" lon="13.323758784681559">
        <ele>486</ele>
        <time>2026-08-29T08:28:17Z</time>
      </trkpt>
      <trkpt lat="50.663892365992069" lon="13.323719641193748">
        <ele>486</ele>
        <time>2026-08-29T08:28:18Z</time>
      </trkpt>
      <trkpt lat="50.663848528638482" lon="13.323695166036487">
        <ele>487</ele>
        <time>2026-08-29T08:28:19Z</time>
      </trkpt>
      <trkpt lat="50.663799243047833" lon="13.323674127459526">
        <ele>487</ele>
        <time>2026-08-29T08:28:20Z</time>
      </trkpt>
      <trkpt lat="50.663756830617785" lon="13.323651915416121">
        <ele>486</ele>
        <time>2026-08-29T08:28:21Z</time>
      </trkpt>
      <trkpt lat="50.663718609139323" lon="13.323635989800096">
        <ele>487</ele>
        <time>2026-08-29T08:28:22Z</time>
      </trkpt>
      <trkpt lat="50.663690529763699" lon="13.323591398075223">
        <ele>487</ele>
        <time>2026-08-29T08:28:23Z</time>
      </trkpt>
      <trkpt lat="50.66368130967021" lon="13.323519062250853">
        <ele>487</ele>
        <time>2026-08-29T08:28:24Z</time>
      </trkpt>
      <trkpt lat="50.663690948858857" lon="13.323443960398436">
        <ele>487</ele>
        <time>2026-08-29T08:28:25Z</time>
      </trkpt>
      <trkpt lat="50.663710730150342" lon="13.323372127488256">
        <ele>487</ele>
        <time>2026-08-29T08:28:26Z</time>
      </trkpt>
      <trkpt lat="50.663729589432478" lon="13.323302557691932">
        <ele>487</ele>
        <time>2026-08-29T08:28:27Z</time>
      </trkpt>
      <trkpt lat="50.663740569725633" lon="13.323226198554039">
        <ele>487</ele>
        <time>2026-08-29T08:28:28Z</time>
      </trkpt>
      <trkpt lat="50.663758590817451" lon="13.32314514555037">
        <ele>487</ele>
        <time>2026-08-29T08:28:29Z</time>
      </trkpt>
      <trkpt lat="50.663777533918619" lon="13.32306794822216">
        <ele>487</ele>
        <time>2026-08-29T08:28:30Z</time>
      </trkpt>
      <trkpt lat="50.663799159228802" lon="13.322990331798792">
        <ele>487</ele>
        <time>2026-08-29T08:28:31Z</time>
      </trkpt>
      <trkpt lat="50.663823802024126" lon="13.322916235774755">
        <ele>488</ele>
        <time>2026-08-29T08:28:32Z</time>
      </trkpt>
      <trkpt lat="50.663846181705594" lon="13.322838870808482">
        <ele>487</ele>
        <time>2026-08-29T08:28:33Z</time>
      </trkpt>
      <trkpt lat="50.663869148120284" lon="13.322760416194797">
        <ele>487</ele>
        <time>2026-08-29T08:28:34Z</time>
      </trkpt>
      <trkpt lat="50.663888761773705" lon="13.322686655446887">
        <ele>487</ele>
        <time>2026-08-29T08:28:35Z</time>
      </trkpt>
      <trkpt lat="50.663904352113605" lon="13.322607697919011">
        <ele>487</ele>
        <time>2026-08-29T08:28:36Z</time>
      </trkpt>
      <trkpt lat="50.663911309093237" lon="13.322527902200818">
        <ele>487</ele>
        <time>2026-08-29T08:28:37Z</time>
      </trkpt>
      <trkpt lat="50.663911309093237" lon="13.322455314919353">
        <ele>486</ele>
        <time>2026-08-29T08:28:38Z</time>
      </trkpt>
      <trkpt lat="50.663911392912269" lon="13.322379877790809">
        <ele>487</ele>
        <time>2026-08-29T08:28:39Z</time>
      </trkpt>
      <trkpt lat="50.663922289386392" lon="13.322309302166104">
        <ele>487</ele>
        <time>2026-08-29T08:28:40Z</time>
      </trkpt>
      <trkpt lat="50.663943914696574" lon="13.322240989655256">
        <ele>487</ele>
        <time>2026-08-29T08:28:41Z</time>
      </trkpt>
      <trkpt lat="50.663965540006757" lon="13.322167061269283">
        <ele>487</ele>
        <time>2026-08-29T08:28:42Z</time>
      </trkpt>
      <trkpt lat="50.663980040699244" lon="13.322090450674295">
        <ele>488</ele>
        <time>2026-08-29T08:28:43Z</time>
      </trkpt>
      <trkpt lat="50.663995295763016" lon="13.32201199606061">
        <ele>488</ele>
        <time>2026-08-29T08:28:44Z</time>
      </trkpt>
      <trkpt lat="50.66401356831193" lon="13.321946617215872">
        <ele>487</ele>
        <time>2026-08-29T08:28:45Z</time>
      </trkpt>
      <trkpt lat="50.664030332118273" lon="13.321864055469632">
        <ele>487</ele>
        <time>2026-08-29T08:28:46Z</time>
      </trkpt>
      <trkpt lat="50.664048856124282" lon="13.321787947788835">
        <ele>487</ele>
        <time>2026-08-29T08:28:47Z</time>
      </trkpt>
      <trkpt lat="50.664067631587386" lon="13.321714103221893">
        <ele>486</ele>
        <time>2026-08-29T08:28:48Z</time>
      </trkpt>
      <trkpt lat="50.664091100916266" lon="13.321649059653282">
        <ele>486</ele>
        <time>2026-08-29T08:28:49Z</time>
      </trkpt>
      <trkpt lat="50.664112558588386" lon="13.321570185944438">
        <ele>486</ele>
        <time>2026-08-29T08:28:50Z</time>
      </trkpt>
      <trkpt lat="50.664128232747316" lon="13.321484355255961">
        <ele>486</ele>
        <time>2026-08-29T08:28:51Z</time>
      </trkpt>
      <trkpt lat="50.664144828915596" lon="13.321405062451959">
        <ele>486</ele>
        <time>2026-08-29T08:28:52Z</time>
      </trkpt>
      <trkpt lat="50.66416553221643" lon="13.321323841810226">
        <ele>486</ele>
        <time>2026-08-29T08:28:53Z</time>
      </trkpt>
      <trkpt lat="50.664185481145978" lon="13.321252008900046">
        <ele>485</ele>
        <time>2026-08-29T08:28:54Z</time>
      </trkpt>
      <trkpt lat="50.664205010980368" lon="13.32117548212409">
        <ele>485</ele>
        <time>2026-08-29T08:28:55Z</time>
      </trkpt>
      <trkpt lat="50.664222948253155" lon="13.321101721376181">
        <ele>485</ele>
        <time>2026-08-29T08:28:56Z</time>
      </trkpt>
      <trkpt lat="50.664240382611752" lon="13.321030810475349">
        <ele>485</ele>
        <time>2026-08-29T08:28:57Z</time>
      </trkpt>
      <trkpt lat="50.664259996265173" lon="13.320960318669677">
        <ele>485</ele>
        <time>2026-08-29T08:28:58Z</time>
      </trkpt>
      <trkpt lat="50.664274245500565" lon="13.320886557921767">
        <ele>485</ele>
        <time>2026-08-29T08:28:59Z</time>
      </trkpt>
      <trkpt lat="50.664286147803068" lon="13.320809863507748">
        <ele>486</ele>
        <time>2026-08-29T08:29:00Z</time>
      </trkpt>
      <trkpt lat="50.664295284077525" lon="13.320746077224612">
        <ele>486</ele>
        <time>2026-08-29T08:29:01Z</time>
      </trkpt>
      <trkpt lat="50.664309030398726" lon="13.320682290941477">
        <ele>486</ele>
        <time>2026-08-29T08:29:02Z</time>
      </trkpt>
      <trkpt lat="50.664317160844803" lon="13.320634262636304">
        <ele>486</ele>
        <time>2026-08-29T08:29:03Z</time>
      </trkpt>
      <trkpt lat="50.66432436928153" lon="13.320609536021948">
        <ele>487</ele>
        <time>2026-08-29T08:29:04Z</time>
      </trkpt>
      <trkpt lat="50.66432923078537" lon="13.320613140240312">
        <ele>487</ele>
        <time>2026-08-29T08:29:05Z</time>
      </trkpt>
      <trkpt lat="50.664329901337624" lon="13.320605596527457">
        <ele>487</ele>
        <time>2026-08-29T08:29:06Z</time>
      </trkpt>
      <trkpt lat="50.66432973369956" lon="13.320605428889394">
        <ele>487</ele>
        <time>2026-08-29T08:29:07Z</time>
      </trkpt>
      <trkpt lat="50.664329649880528" lon="13.32060526125133">
        <ele>487</ele>
        <time>2026-08-29T08:29:08Z</time>
      </trkpt>
      <trkpt lat="50.664329649880528" lon="13.320605428889394">
        <ele>487</ele>
        <time>2026-08-29T08:29:09Z</time>
      </trkpt>
      <trkpt lat="50.664329649880528" lon="13.32060526125133">
        <ele>487</ele>
        <time>2026-08-29T08:29:10Z</time>
      </trkpt>
      <trkpt lat="50.66432973369956" lon="13.320605345070362">
        <ele>487</ele>
        <time>2026-08-29T08:29:11Z</time>
      </trkpt>
      <trkpt lat="50.664329817518592" lon="13.320605512708426">
        <ele>487</ele>
        <time>2026-08-29T08:29:12Z</time>
      </trkpt>
      <trkpt lat="50.664329901337624" lon="13.320605596527457">
        <ele>487</ele>
        <time>2026-08-29T08:29:13Z</time>
      </trkpt>
      <trkpt lat="50.664330068975687" lon="13.320605428889394">
        <ele>487</ele>
        <time>2026-08-29T08:29:14Z</time>
      </trkpt>
      <trkpt lat="50.664330152794719" lon="13.320605512708426">
        <ele>487</ele>
        <time>2026-08-29T08:29:15Z</time>
      </trkpt>
      <trkpt lat="50.664330152794719" lon="13.320605680346489">
        <ele>487</ele>
        <time>2026-08-29T08:29:16Z</time>
      </trkpt>
      <trkpt lat="50.664330152794719" lon="13.320605764165521">
        <ele>487</ele>
        <time>2026-08-29T08:29:17Z</time>
      </trkpt>
      <trkpt lat="50.664330320432782" lon="13.320605764165521">
        <ele>487</ele>
        <time>2026-08-29T08:29:18Z</time>
      </trkpt>
      <trkpt lat="50.664330488070846" lon="13.320605764165521">
        <ele>487</ele>
        <time>2026-08-29T08:29:19Z</time>
      </trkpt>
      <trkpt lat="50.664330655708909" lon="13.320606015622616">
        <ele>487</ele>
        <time>2026-08-29T08:29:20Z</time>
      </trkpt>
      <trkpt lat="50.664330739527941" lon="13.320606183260679">
        <ele>487</ele>
        <time>2026-08-29T08:29:21Z</time>
      </trkpt>
      <trkpt lat="50.664330907166004" lon="13.320606267079711">
        <ele>487</ele>
        <time>2026-08-29T08:29:22Z</time>
      </trkpt>
      <trkpt lat="50.664330990985036" lon="13.320606434717774">
        <ele>487</ele>
        <time>2026-08-29T08:29:23Z</time>
      </trkpt>
      <trkpt lat="50.664331158623099" lon="13.320606183260679">
        <ele>487</ele>
        <time>2026-08-29T08:29:24Z</time>
      </trkpt>
      <trkpt lat="50.664331158623099" lon="13.320606434717774">
        <ele>487</ele>
        <time>2026-08-29T08:29:25Z</time>
      </trkpt>
      <trkpt lat="50.664331242442131" lon="13.320606434717774">
        <ele>487</ele>
        <time>2026-08-29T08:29:26Z</time>
      </trkpt>
      <trkpt lat="50.664331326261163" lon="13.320606434717774">
        <ele>487</ele>
        <time>2026-08-29T08:29:27Z</time>
      </trkpt>
      <trkpt lat="50.664331242442131" lon="13.32060668617487">
        <ele>487</ele>
        <time>2026-08-29T08:29:28Z</time>
      </trkpt>
      <trkpt lat="50.664331242442131" lon="13.320606853812933">
        <ele>487</ele>
        <time>2026-08-29T08:29:29Z</time>
      </trkpt>
      <trkpt lat="50.664330990985036" lon="13.320606937631965">
        <ele>487</ele>
        <time>2026-08-29T08:29:30Z</time>
      </trkpt>
      <trkpt lat="50.664330990985036" lon="13.320606853812933">
        <ele>487</ele>
        <time>2026-08-29T08:29:31Z</time>
      </trkpt>
      <trkpt lat="50.664330907166004" lon="13.320606769993901">
        <ele>487</ele>
        <time>2026-08-29T08:29:32Z</time>
      </trkpt>
      <trkpt lat="50.664330907166004" lon="13.32060668617487">
        <ele>487</ele>
        <time>2026-08-29T08:29:33Z</time>
      </trkpt>
      <trkpt lat="50.664330739527941" lon="13.320606602355838">
        <ele>487</ele>
        <time>2026-08-29T08:29:34Z</time>
      </trkpt>
      <trkpt lat="50.664330739527941" lon="13.320606518536806">
        <ele>487</ele>
        <time>2026-08-29T08:29:35Z</time>
      </trkpt>
      <trkpt lat="50.664330655708909" lon="13.320606350898743">
        <ele>487</ele>
        <time>2026-08-29T08:29:36Z</time>
      </trkpt>
      <trkpt lat="50.664330571889877" lon="13.320606350898743">
        <ele>487</ele>
        <time>2026-08-29T08:29:37Z</time>
      </trkpt>
      <trkpt lat="50.664330655708909" lon="13.320606350898743">
        <ele>487</ele>
        <time>2026-08-29T08:29:38Z</time>
      </trkpt>
      <trkpt lat="50.664330571889877" lon="13.320606434717774">
        <ele>487</ele>
        <time>2026-08-29T08:29:39Z</time>
      </trkpt>
      <trkpt lat="50.664330571889877" lon="13.320606434717774">
        <ele>487</ele>
        <time>2026-08-29T08:29:40Z</time>
      </trkpt>
      <trkpt lat="50.664330571889877" lon="13.320606518536806">
        <ele>487</ele>
        <time>2026-08-29T08:29:41Z</time>
      </trkpt>
      <trkpt lat="50.664330320432782" lon="13.320606350898743">
        <ele>487</ele>
        <time>2026-08-29T08:29:42Z</time>
      </trkpt>
      <trkpt lat="50.664330152794719" lon="13.320606434717774">
        <ele>487</ele>
        <time>2026-08-29T08:29:43Z</time>
      </trkpt>
      <trkpt lat="50.664330068975687" lon="13.320606518536806">
        <ele>487</ele>
        <time>2026-08-29T08:29:44Z</time>
      </trkpt>
      <trkpt lat="50.664329901337624" lon="13.320606602355838">
        <ele>487</ele>
        <time>2026-08-29T08:29:45Z</time>
      </trkpt>
      <trkpt lat="50.664329817518592" lon="13.32060668617487">
        <ele>487</ele>
        <time>2026-08-29T08:29:46Z</time>
      </trkpt>
      <trkpt lat="50.664329649880528" lon="13.32060668617487">
        <ele>487</ele>
        <time>2026-08-29T08:29:47Z</time>
      </trkpt>
      <trkpt lat="50.664329566061497" lon="13.320606769993901">
        <ele>487</ele>
        <time>2026-08-29T08:29:48Z</time>
      </trkpt>
      <trkpt lat="50.664329482242465" lon="13.320607021450996">
        <ele>487</ele>
        <time>2026-08-29T08:29:49Z</time>
      </trkpt>
      <trkpt lat="50.664329482242465" lon="13.320607021450996">
        <ele>487</ele>
        <time>2026-08-29T08:29:50Z</time>
      </trkpt>
      <trkpt lat="50.664329566061497" lon="13.320607021450996">
        <ele>487</ele>
        <time>2026-08-29T08:29:51Z</time>
      </trkpt>
      <trkpt lat="50.664329482242465" lon="13.320607105270028">
        <ele>487</ele>
        <time>2026-08-29T08:29:52Z</time>
      </trkpt>
      <trkpt lat="50.664329482242465" lon="13.320607021450996">
        <ele>487</ele>
        <time>2026-08-29T08:29:53Z</time>
      </trkpt>
      <trkpt lat="50.664329482242465" lon="13.320606602355838">
        <ele>487</ele>
        <time>2026-08-29T08:29:54Z</time>
      </trkpt>
      <trkpt lat="50.664329398423433" lon="13.320606602355838">
        <ele>487</ele>
        <time>2026-08-29T08:29:55Z</time>
      </trkpt>
      <trkpt lat="50.664329398423433" lon="13.320606350898743">
        <ele>487</ele>
        <time>2026-08-29T08:29:56Z</time>
      </trkpt>
      <trkpt lat="50.664329398423433" lon="13.320606350898743">
        <ele>487</ele>
        <time>2026-08-29T08:29:57Z</time>
      </trkpt>
      <trkpt lat="50.664329398423433" lon="13.320606350898743">
        <ele>487</ele>
        <time>2026-08-29T08:29:58Z</time>
      </trkpt>
      <trkpt lat="50.664329314604402" lon="13.320606267079711">
        <ele>487</ele>
        <time>2026-08-29T08:29:59Z</time>
      </trkpt>
      <trkpt lat="50.664329398423433" lon="13.320605931803584">
        <ele>487</ele>
        <time>2026-08-29T08:30:00Z</time>
      </trkpt>
      <trkpt lat="50.664329398423433" lon="13.320605847984552">
        <ele>487</ele>
        <time>2026-08-29T08:30:01Z</time>
      </trkpt>
      <trkpt lat="50.664329398423433" lon="13.320605428889394">
        <ele>487</ele>
        <time>2026-08-29T08:30:02Z</time>
      </trkpt>
      <trkpt lat="50.664329398423433" lon="13.320605428889394">
        <ele>487</ele>
        <time>2026-08-29T08:30:03Z</time>
      </trkpt>
      <trkpt lat="50.664329314604402" lon="13.32060526125133">
        <ele>487</ele>
        <time>2026-08-29T08:30:04Z</time>
      </trkpt>
      <trkpt lat="50.664329398423433" lon="13.32060526125133">
        <ele>487</ele>
        <time>2026-08-29T08:30:05Z</time>
      </trkpt>
      <trkpt lat="50.664329398423433" lon="13.320605177432299">
        <ele>487</ele>
        <time>2026-08-29T08:30:06Z</time>
      </trkpt>
      <trkpt lat="50.664329398423433" lon="13.320605177432299">
        <ele>487</ele>
        <time>2026-08-29T08:30:07Z</time>
      </trkpt>
      <trkpt lat="50.66432923078537" lon="13.320605093613267">
        <ele>487</ele>
        <time>2026-08-29T08:30:08Z</time>
      </trkpt>
      <trkpt lat="50.664329146966338" lon="13.320605009794235">
        <ele>487</ele>
        <time>2026-08-29T08:30:09Z</time>
      </trkpt>
      <trkpt lat="50.664329063147306" lon="13.320604842156172">
        <ele>487</ele>
        <time>2026-08-29T08:30:10Z</time>
      </trkpt>
      <trkpt lat="50.664328979328275" lon="13.320604590699077">
        <ele>487</ele>
        <time>2026-08-29T08:30:11Z</time>
      </trkpt>
      <trkpt lat="50.664328979328275" lon="13.320604506880045">
        <ele>487</ele>
        <time>2026-08-29T08:30:12Z</time>
      </trkpt>
      <trkpt lat="50.664328979328275" lon="13.320604339241982">
        <ele>487</ele>
        <time>2026-08-29T08:30:13Z</time>
      </trkpt>
      <trkpt lat="50.664328979328275" lon="13.320604171603918">
        <ele>487</ele>
        <time>2026-08-29T08:30:14Z</time>
      </trkpt>
      <trkpt lat="50.664329063147306" lon="13.320604003965855">
        <ele>487</ele>
        <time>2026-08-29T08:30:15Z</time>
      </trkpt>
      <trkpt lat="50.664329146966338" lon="13.320603836327791">
        <ele>487</ele>
        <time>2026-08-29T08:30:16Z</time>
      </trkpt>
      <trkpt lat="50.664329146966338" lon="13.320603668689728">
        <ele>487</ele>
        <time>2026-08-29T08:30:17Z</time>
      </trkpt>
      <trkpt lat="50.664329398423433" lon="13.320603249594569">
        <ele>487</ele>
        <time>2026-08-29T08:30:18Z</time>
      </trkpt>
      <trkpt lat="50.664329482242465" lon="13.320602746680379">
        <ele>487</ele>
        <time>2026-08-29T08:30:19Z</time>
      </trkpt>
      <trkpt lat="50.664329398423433" lon="13.320602662861347">
        <ele>487</ele>
        <time>2026-08-29T08:30:20Z</time>
      </trkpt>
      <trkpt lat="50.66432680003345" lon="13.320597130805254">
        <ele>487</ele>
        <time>2026-08-29T08:30:21Z</time>
      </trkpt>
      <trkpt lat="50.664327470585704" lon="13.320596124976873">
        <ele>486</ele>
        <time>2026-08-29T08:30:22Z</time>
      </trkpt>
      <trkpt lat="50.66432730294764" lon="13.320600735023618">
        <ele>486</ele>
        <time>2026-08-29T08:30:23Z</time>
      </trkpt>
      <trkpt lat="50.664327638223767" lon="13.320601405575871">
        <ele>486</ele>
        <time>2026-08-29T08:30:24Z</time>
      </trkpt>
      <trkpt lat="50.664327638223767" lon="13.320601237937808">
        <ele>486</ele>
        <time>2026-08-29T08:30:25Z</time>
      </trkpt>
      <trkpt lat="50.66432579420507" lon="13.320598723366857">
        <ele>486</ele>
        <time>2026-08-29T08:30:26Z</time>
      </trkpt>
      <trkpt lat="50.664325626567006" lon="13.320598304271698">
        <ele>486</ele>
        <time>2026-08-29T08:30:27Z</time>
      </trkpt>
      <trkpt lat="50.664325710386038" lon="13.320596627891064">
        <ele>486</ele>
        <time>2026-08-29T08:30:28Z</time>
      </trkpt>
      <trkpt lat="50.664325542747974" lon="13.320596460253">
        <ele>486</ele>
        <time>2026-08-29T08:30:29Z</time>
      </trkpt>
      <trkpt lat="50.664330320432782" lon="13.320591514930129">
        <ele>486</ele>
        <time>2026-08-29T08:30:30Z</time>
      </trkpt>
      <trkpt lat="50.664328224956989" lon="13.320586821064353">
        <ele>485</ele>
        <time>2026-08-29T08:30:31Z</time>
      </trkpt>
      <trkpt lat="50.664321100339293" lon="13.320590676739812">
        <ele>485</ele>
        <time>2026-08-29T08:30:32Z</time>
      </trkpt>
      <trkpt lat="50.664317915216088" lon="13.320590676739812">
        <ele>486</ele>
        <time>2026-08-29T08:30:33Z</time>
      </trkpt>
      <trkpt lat="50.664320178329945" lon="13.320586150512099">
        <ele>486</ele>
        <time>2026-08-29T08:30:34Z</time>
      </trkpt>
      <trkpt lat="50.664321770891547" lon="13.320586904883385">
        <ele>486</ele>
        <time>2026-08-29T08:30:35Z</time>
      </trkpt>
      <trkpt lat="50.664316238835454" lon="13.320590425282717">
        <ele>486</ele>
        <time>2026-08-29T08:30:36Z</time>
      </trkpt>
      <trkpt lat="50.66431749612093" lon="13.320589838549495">
        <ele>486</ele>
        <time>2026-08-29T08:30:37Z</time>
      </trkpt>
      <trkpt lat="50.664317328482866" lon="13.320589754730463">
        <ele>486</ele>
        <time>2026-08-29T08:30:38Z</time>
      </trkpt>
      <trkpt lat="50.664317328482866" lon="13.320589419454336">
        <ele>486</ele>
        <time>2026-08-29T08:30:39Z</time>
      </trkpt>
      <trkpt lat="50.664317077025771" lon="13.320589838549495">
        <ele>486</ele>
        <time>2026-08-29T08:30:40Z</time>
      </trkpt>
      <trkpt lat="50.664316909387708" lon="13.320589838549495">
        <ele>486</ele>
        <time>2026-08-29T08:30:41Z</time>
      </trkpt>
      <trkpt lat="50.664316909387708" lon="13.320589754730463">
        <ele>486</ele>
        <time>2026-08-29T08:30:42Z</time>
      </trkpt>
      <trkpt lat="50.664316825568676" lon="13.320589754730463">
        <ele>486</ele>
        <time>2026-08-29T08:30:43Z</time>
      </trkpt>
      <trkpt lat="50.664316993206739" lon="13.320589419454336">
        <ele>486</ele>
        <time>2026-08-29T08:30:44Z</time>
      </trkpt>
      <trkpt lat="50.664316825568676" lon="13.320589000359178">
        <ele>486</ele>
        <time>2026-08-29T08:30:45Z</time>
      </trkpt>
      <trkpt lat="50.664316741749644" lon="13.320588916540146">
        <ele>486</ele>
        <time>2026-08-29T08:30:46Z</time>
      </trkpt>
      <trkpt lat="50.664316993206739" lon="13.320591012015939">
        <ele>486</ele>
        <time>2026-08-29T08:30:47Z</time>
      </trkpt>
      <trkpt lat="50.664316909387708" lon="13.320591012015939">
        <ele>486</ele>
        <time>2026-08-29T08:30:48Z</time>
      </trkpt>
      <trkpt lat="50.664316825568676" lon="13.320590928196907">
        <ele>486</ele>
        <time>2026-08-29T08:30:49Z</time>
      </trkpt>
      <trkpt lat="50.664316741749644" lon="13.320590928196907">
        <ele>486</ele>
        <time>2026-08-29T08:30:50Z</time>
      </trkpt>
      <trkpt lat="50.664316657930613" lon="13.320590676739812">
        <ele>486</ele>
        <time>2026-08-29T08:30:51Z</time>
      </trkpt>
      <trkpt lat="50.664316490292549" lon="13.320590425282717">
        <ele>486</ele>
        <time>2026-08-29T08:30:52Z</time>
      </trkpt>
      <trkpt lat="50.664316490292549" lon="13.320590341463685">
        <ele>486</ele>
        <time>2026-08-29T08:30:53Z</time>
      </trkpt>
      <trkpt lat="50.664316490292549" lon="13.320590425282717">
        <ele>486</ele>
        <time>2026-08-29T08:30:54Z</time>
      </trkpt>
      <trkpt lat="50.664316574111581" lon="13.32059059292078">
        <ele>486</ele>
        <time>2026-08-29T08:30:55Z</time>
      </trkpt>
      <trkpt lat="50.664316574111581" lon="13.320590676739812">
        <ele>486</ele>
        <time>2026-08-29T08:30:56Z</time>
      </trkpt>
      <trkpt lat="50.664316741749644" lon="13.320590676739812">
        <ele>486</ele>
        <time>2026-08-29T08:30:57Z</time>
      </trkpt>
      <trkpt lat="50.664316909387708" lon="13.320590760558844">
        <ele>486</ele>
        <time>2026-08-29T08:30:58Z</time>
      </trkpt>
      <trkpt lat="50.664317160844803" lon="13.320590676739812">
        <ele>486</ele>
        <time>2026-08-29T08:30:59Z</time>
      </trkpt>
      <trkpt lat="50.66431749612093" lon="13.320590676739812">
        <ele>486</ele>
        <time>2026-08-29T08:31:00Z</time>
      </trkpt>
      <trkpt lat="50.664317831397057" lon="13.320590760558844">
        <ele>486</ele>
        <time>2026-08-29T08:31:01Z</time>
      </trkpt>
      <trkpt lat="50.66431799903512" lon="13.320590676739812">
        <ele>486</ele>
        <time>2026-08-29T08:31:02Z</time>
      </trkpt>
      <trkpt lat="50.664323028177023" lon="13.320589670911431">
        <ele>486</ele>
        <time>2026-08-29T08:31:03Z</time>
      </trkpt>
      <trkpt lat="50.664328308776021" lon="13.32059545442462">
        <ele>487</ele>
        <time>2026-08-29T08:31:04Z</time>
      </trkpt>
      <trkpt lat="50.664326548576355" lon="13.320589335635304">
        <ele>487</ele>
        <time>2026-08-29T08:31:05Z</time>
      </trkpt>
      <trkpt lat="50.664326380938292" lon="13.320597549900413">
        <ele>488</ele>
        <time>2026-08-29T08:31:06Z</time>
      </trkpt>
      <trkpt lat="50.664326380938292" lon="13.32059939391911">
        <ele>488</ele>
        <time>2026-08-29T08:31:07Z</time>
      </trkpt>
      <trkpt lat="50.66432629711926" lon="13.32059939391911">
        <ele>488</ele>
        <time>2026-08-29T08:31:08Z</time>
      </trkpt>
      <trkpt lat="50.66432629711926" lon="13.320599561557174">
        <ele>488</ele>
        <time>2026-08-29T08:31:09Z</time>
      </trkpt>
      <trkpt lat="50.66432629711926" lon="13.320599310100079">
        <ele>488</ele>
        <time>2026-08-29T08:31:10Z</time>
      </trkpt>
      <trkpt lat="50.66432629711926" lon="13.320599477738142">
        <ele>488</ele>
        <time>2026-08-29T08:31:11Z</time>
      </trkpt>
      <trkpt lat="50.664326380938292" lon="13.320599477738142">
        <ele>488</ele>
        <time>2026-08-29T08:31:12Z</time>
      </trkpt>
      <trkpt lat="50.664326380938292" lon="13.320599477738142">
        <ele>488</ele>
        <time>2026-08-29T08:31:13Z</time>
      </trkpt>
      <trkpt lat="50.664326464757323" lon="13.320599645376205">
        <ele>488</ele>
        <time>2026-08-29T08:31:14Z</time>
      </trkpt>
      <trkpt lat="50.664326548576355" lon="13.320599561557174">
        <ele>488</ele>
        <time>2026-08-29T08:31:15Z</time>
      </trkpt>
      <trkpt lat="50.664326632395387" lon="13.32059939391911">
        <ele>488</ele>
        <time>2026-08-29T08:31:16Z</time>
      </trkpt>
      <trkpt lat="50.664326716214418" lon="13.320599561557174">
        <ele>488</ele>
        <time>2026-08-29T08:31:17Z</time>
      </trkpt>
      <trkpt lat="50.664326716214418" lon="13.320599477738142">
        <ele>488</ele>
        <time>2026-08-29T08:31:18Z</time>
      </trkpt>
      <trkpt lat="50.664326632395387" lon="13.32059939391911">
        <ele>488</ele>
        <time>2026-08-29T08:31:19Z</time>
      </trkpt>
      <trkpt lat="50.664326632395387" lon="13.32059939391911">
        <ele>488</ele>
        <time>2026-08-29T08:31:20Z</time>
      </trkpt>
      <trkpt lat="50.664326548576355" lon="13.320599310100079">
        <ele>488</ele>
        <time>2026-08-29T08:31:21Z</time>
      </trkpt>
      <trkpt lat="50.664326548576355" lon="13.320599310100079">
        <ele>488</ele>
        <time>2026-08-29T08:31:22Z</time>
      </trkpt>
      <trkpt lat="50.664326548576355" lon="13.320599310100079">
        <ele>488</ele>
        <time>2026-08-29T08:31:23Z</time>
      </trkpt>
      <trkpt lat="50.664326380938292" lon="13.320599142462015">
        <ele>488</ele>
        <time>2026-08-29T08:31:24Z</time>
      </trkpt>
      <trkpt lat="50.664326380938292" lon="13.320599310100079">
        <ele>488</ele>
        <time>2026-08-29T08:31:25Z</time>
      </trkpt>
      <trkpt lat="50.664326380938292" lon="13.32059939391911">
        <ele>488</ele>
        <time>2026-08-29T08:31:26Z</time>
      </trkpt>
      <trkpt lat="50.664326380938292" lon="13.320599310100079">
        <ele>488</ele>
        <time>2026-08-29T08:31:27Z</time>
      </trkpt>
      <trkpt lat="50.66432629711926" lon="13.320599226281047">
        <ele>488</ele>
        <time>2026-08-29T08:31:28Z</time>
      </trkpt>
      <trkpt lat="50.66432629711926" lon="13.320599142462015">
        <ele>488</ele>
        <time>2026-08-29T08:31:29Z</time>
      </trkpt>
      <trkpt lat="50.664326129481196" lon="13.32059939391911">
        <ele>488</ele>
        <time>2026-08-29T08:31:30Z</time>
      </trkpt>
      <trkpt lat="50.664326045662165" lon="13.320599310100079">
        <ele>488</ele>
        <time>2026-08-29T08:31:31Z</time>
      </trkpt>
      <trkpt lat="50.664325961843133" lon="13.320599477738142">
        <ele>488</ele>
        <time>2026-08-29T08:31:32Z</time>
      </trkpt>
      <trkpt lat="50.664325961843133" lon="13.320599561557174">
        <ele>488</ele>
        <time>2026-08-29T08:31:33Z</time>
      </trkpt>
      <trkpt lat="50.66432579420507" lon="13.320599477738142">
        <ele>488</ele>
        <time>2026-08-29T08:31:34Z</time>
      </trkpt>
      <trkpt lat="50.664325710386038" lon="13.320599226281047">
        <ele>488</ele>
        <time>2026-08-29T08:31:35Z</time>
      </trkpt>
      <trkpt lat="50.664325710386038" lon="13.320599226281047">
        <ele>488</ele>
        <time>2026-08-29T08:31:36Z</time>
      </trkpt>
      <trkpt lat="50.664325710386038" lon="13.320599142462015">
        <ele>488</ele>
        <time>2026-08-29T08:31:37Z</time>
      </trkpt>
      <trkpt lat="50.664325710386038" lon="13.320599058642983">
        <ele>488</ele>
        <time>2026-08-29T08:31:38Z</time>
      </trkpt>
      <trkpt lat="50.664325710386038" lon="13.320598974823952">
        <ele>488</ele>
        <time>2026-08-29T08:31:39Z</time>
      </trkpt>
      <trkpt lat="50.664325878024101" lon="13.320599142462015">
        <ele>488</ele>
        <time>2026-08-29T08:31:40Z</time>
      </trkpt>
      <trkpt lat="50.66432579420507" lon="13.320599142462015">
        <ele>488</ele>
        <time>2026-08-29T08:31:41Z</time>
      </trkpt>
      <trkpt lat="50.664325961843133" lon="13.320599142462015">
        <ele>488</ele>
        <time>2026-08-29T08:31:42Z</time>
      </trkpt>
      <trkpt lat="50.664325961843133" lon="13.320599142462015">
        <ele>488</ele>
        <time>2026-08-29T08:31:43Z</time>
      </trkpt>
      <trkpt lat="50.664326045662165" lon="13.320599142462015">
        <ele>488</ele>
        <time>2026-08-29T08:31:44Z</time>
      </trkpt>
      <trkpt lat="50.664326129481196" lon="13.320598974823952">
        <ele>488</ele>
        <time>2026-08-29T08:31:45Z</time>
      </trkpt>
      <trkpt lat="50.664326213300228" lon="13.320598974823952">
        <ele>488</ele>
        <time>2026-08-29T08:31:46Z</time>
      </trkpt>
      <trkpt lat="50.664326380938292" lon="13.320599226281047">
        <ele>488</ele>
        <time>2026-08-29T08:31:47Z</time>
      </trkpt>
      <trkpt lat="50.664326464757323" lon="13.32059939391911">
        <ele>488</ele>
        <time>2026-08-29T08:31:48Z</time>
      </trkpt>
      <trkpt lat="50.664326548576355" lon="13.32059939391911">
        <ele>488</ele>
        <time>2026-08-29T08:31:49Z</time>
      </trkpt>
      <trkpt lat="50.664326632395387" lon="13.320599813014269">
        <ele>488</ele>
        <time>2026-08-29T08:31:50Z</time>
      </trkpt>
      <trkpt lat="50.664326632395387" lon="13.320599980652332">
        <ele>488</ele>
        <time>2026-08-29T08:31:51Z</time>
      </trkpt>
      <trkpt lat="50.664326548576355" lon="13.320600148290396">
        <ele>488</ele>
        <time>2026-08-29T08:31:52Z</time>
      </trkpt>
      <trkpt lat="50.664326464757323" lon="13.320600399747491">
        <ele>488</ele>
        <time>2026-08-29T08:31:53Z</time>
      </trkpt>
      <trkpt lat="50.664326380938292" lon="13.320600651204586">
        <ele>488</ele>
        <time>2026-08-29T08:31:54Z</time>
      </trkpt>
      <trkpt lat="50.664326464757323" lon="13.320600818842649">
        <ele>488</ele>
        <time>2026-08-29T08:31:55Z</time>
      </trkpt>
      <trkpt lat="50.664326380938292" lon="13.32060132175684">
        <ele>488</ele>
        <time>2026-08-29T08:31:56Z</time>
      </trkpt>
      <trkpt lat="50.66432629711926" lon="13.320601657032967">
        <ele>488</ele>
        <time>2026-08-29T08:31:57Z</time>
      </trkpt>
      <trkpt lat="50.664326129481196" lon="13.320602076128125">
        <ele>488</ele>
        <time>2026-08-29T08:31:58Z</time>
      </trkpt>
      <trkpt lat="50.664326129481196" lon="13.320602411404252">
        <ele>488</ele>
        <time>2026-08-29T08:31:59Z</time>
      </trkpt>
      <trkpt lat="50.664325878024101" lon="13.320602746680379">
        <ele>488</ele>
        <time>2026-08-29T08:32:00Z</time>
      </trkpt>
      <trkpt lat="50.664325710386038" lon="13.320602914318442">
        <ele>488</ele>
        <time>2026-08-29T08:32:01Z</time>
      </trkpt>
      <trkpt lat="50.664325710386038" lon="13.320602914318442">
        <ele>488</ele>
        <time>2026-08-29T08:32:02Z</time>
      </trkpt>
      <trkpt lat="50.664325626567006" lon="13.320603081956506">
        <ele>488</ele>
        <time>2026-08-29T08:32:03Z</time>
      </trkpt>
      <trkpt lat="50.664327973499894" lon="13.3206154871732">
        <ele>488</ele>
        <time>2026-08-29T08:32:04Z</time>
      </trkpt>
      <trkpt lat="50.664328811690211" lon="13.320619929581881">
        <ele>488</ele>
        <time>2026-08-29T08:32:05Z</time>
      </trkpt>
      <trkpt lat="50.664327638223767" lon="13.320616241544485">
        <ele>488</ele>
        <time>2026-08-29T08:32:06Z</time>
      </trkpt>
      <trkpt lat="50.664327638223767" lon="13.32061649300158">
        <ele>488</ele>
        <time>2026-08-29T08:32:07Z</time>
      </trkpt>
      <trkpt lat="50.664327470585704" lon="13.320616325363517">
        <ele>488</ele>
        <time>2026-08-29T08:32:08Z</time>
      </trkpt>
      <trkpt lat="50.66432730294764" lon="13.320616241544485">
        <ele>488</ele>
        <time>2026-08-29T08:32:09Z</time>
      </trkpt>
      <trkpt lat="50.66432730294764" lon="13.32061599008739">
        <ele>488</ele>
        <time>2026-08-29T08:32:10Z</time>
      </trkpt>
      <trkpt lat="50.66432730294764" lon="13.320616073906422">
        <ele>488</ele>
        <time>2026-08-29T08:32:11Z</time>
      </trkpt>
      <trkpt lat="50.664327386766672" lon="13.320615906268358">
        <ele>488</ele>
        <time>2026-08-29T08:32:12Z</time>
      </trkpt>
      <trkpt lat="50.664327470585704" lon="13.320616073906422">
        <ele>488</ele>
        <time>2026-08-29T08:32:13Z</time>
      </trkpt>
      <trkpt lat="50.664327470585704" lon="13.32061599008739">
        <ele>488</ele>
        <time>2026-08-29T08:32:14Z</time>
      </trkpt>
      <trkpt lat="50.664327470585704" lon="13.320615822449327">
        <ele>488</ele>
        <time>2026-08-29T08:32:15Z</time>
      </trkpt>
      <trkpt lat="50.664327470585704" lon="13.320615738630295">
        <ele>488</ele>
        <time>2026-08-29T08:32:16Z</time>
      </trkpt>
      <trkpt lat="50.664327638223767" lon="13.320615570992231">
        <ele>488</ele>
        <time>2026-08-29T08:32:17Z</time>
      </trkpt>
      <trkpt lat="50.664327638223767" lon="13.320615403354168">
        <ele>488</ele>
        <time>2026-08-29T08:32:18Z</time>
      </trkpt>
      <trkpt lat="50.664327722042799" lon="13.320615235716105">
        <ele>488</ele>
        <time>2026-08-29T08:32:19Z</time>
      </trkpt>
      <trkpt lat="50.664327889680862" lon="13.320615151897073">
        <ele>488</ele>
        <time>2026-08-29T08:32:20Z</time>
      </trkpt>
      <trkpt lat="50.664327973499894" lon="13.320614816620946">
        <ele>488</ele>
        <time>2026-08-29T08:32:21Z</time>
      </trkpt>
      <trkpt lat="50.664328057318926" lon="13.320614648982882">
        <ele>488</ele>
        <time>2026-08-29T08:32:22Z</time>
      </trkpt>
      <trkpt lat="50.664327889680862" lon="13.320614648982882">
        <ele>488</ele>
        <time>2026-08-29T08:32:23Z</time>
      </trkpt>
      <trkpt lat="50.664327722042799" lon="13.320614732801914">
        <ele>488</ele>
        <time>2026-08-29T08:32:24Z</time>
      </trkpt>
      <trkpt lat="50.664327638223767" lon="13.320614648982882">
        <ele>488</ele>
        <time>2026-08-29T08:32:25Z</time>
      </trkpt>
      <trkpt lat="50.66432730294764" lon="13.320614648982882">
        <ele>488</ele>
        <time>2026-08-29T08:32:26Z</time>
      </trkpt>
      <trkpt lat="50.66432730294764" lon="13.320614900439978">
        <ele>488</ele>
        <time>2026-08-29T08:32:27Z</time>
      </trkpt>
      <trkpt lat="50.66432730294764" lon="13.320615068078041">
        <ele>488</ele>
        <time>2026-08-29T08:32:28Z</time>
      </trkpt>
      <trkpt lat="50.664327219128609" lon="13.320614984259009">
        <ele>488</ele>
        <time>2026-08-29T08:32:29Z</time>
      </trkpt>
      <trkpt lat="50.664327051490545" lon="13.320615319535136">
        <ele>488</ele>
        <time>2026-08-29T08:32:30Z</time>
      </trkpt>
      <trkpt lat="50.664326967671514" lon="13.320615570992231">
        <ele>488</ele>
        <time>2026-08-29T08:32:31Z</time>
      </trkpt>
      <trkpt lat="50.66432680003345" lon="13.320615738630295">
        <ele>488</ele>
        <time>2026-08-29T08:32:32Z</time>
      </trkpt>
      <trkpt lat="50.66432680003345" lon="13.320615738630295">
        <ele>488</ele>
        <time>2026-08-29T08:32:33Z</time>
      </trkpt>
      <trkpt lat="50.66432680003345" lon="13.320615570992231">
        <ele>488</ele>
        <time>2026-08-29T08:32:34Z</time>
      </trkpt>
      <trkpt lat="50.66432680003345" lon="13.320615319535136">
        <ele>488</ele>
        <time>2026-08-29T08:32:35Z</time>
      </trkpt>
      <trkpt lat="50.664326716214418" lon="13.320615319535136">
        <ele>488</ele>
        <time>2026-08-29T08:32:36Z</time>
      </trkpt>
      <trkpt lat="50.664326716214418" lon="13.320615403354168">
        <ele>488</ele>
        <time>2026-08-29T08:32:37Z</time>
      </trkpt>
      <trkpt lat="50.664326716214418" lon="13.320615151897073">
        <ele>488</ele>
        <time>2026-08-29T08:32:38Z</time>
      </trkpt>
      <trkpt lat="50.66432680003345" lon="13.320614984259009">
        <ele>488</ele>
        <time>2026-08-29T08:32:39Z</time>
      </trkpt>
      <trkpt lat="50.66432680003345" lon="13.320614900439978">
        <ele>488</ele>
        <time>2026-08-29T08:32:40Z</time>
      </trkpt>
      <trkpt lat="50.66432680003345" lon="13.320614816620946">
        <ele>488</ele>
        <time>2026-08-29T08:32:41Z</time>
      </trkpt>
      <trkpt lat="50.664326716214418" lon="13.320614732801914">
        <ele>488</ele>
        <time>2026-08-29T08:32:42Z</time>
      </trkpt>
      <trkpt lat="50.664326883852482" lon="13.320614900439978">
        <ele>488</ele>
        <time>2026-08-29T08:32:43Z</time>
      </trkpt>
      <trkpt lat="50.664327051490545" lon="13.320614984259009">
        <ele>488</ele>
        <time>2026-08-29T08:32:44Z</time>
      </trkpt>
      <trkpt lat="50.664327051490545" lon="13.320614984259009">
        <ele>488</ele>
        <time>2026-08-29T08:32:45Z</time>
      </trkpt>
      <trkpt lat="50.664326967671514" lon="13.320614984259009">
        <ele>488</ele>
        <time>2026-08-29T08:32:46Z</time>
      </trkpt>
      <trkpt lat="50.664326883852482" lon="13.320614984259009">
        <ele>488</ele>
        <time>2026-08-29T08:32:47Z</time>
      </trkpt>
      <trkpt lat="50.664326967671514" lon="13.320615151897073">
        <ele>488</ele>
        <time>2026-08-29T08:32:48Z</time>
      </trkpt>
      <trkpt lat="50.664326883852482" lon="13.320615151897073">
        <ele>488</ele>
        <time>2026-08-29T08:32:49Z</time>
      </trkpt>
      <trkpt lat="50.66432680003345" lon="13.320615151897073">
        <ele>488</ele>
        <time>2026-08-29T08:32:50Z</time>
      </trkpt>
      <trkpt lat="50.66432680003345" lon="13.320615235716105">
        <ele>488</ele>
        <time>2026-08-29T08:32:51Z</time>
      </trkpt>
      <trkpt lat="50.66432680003345" lon="13.320615319535136">
        <ele>488</ele>
        <time>2026-08-29T08:32:52Z</time>
      </trkpt>
      <trkpt lat="50.664326632395387" lon="13.3206154871732">
        <ele>488</ele>
        <time>2026-08-29T08:32:53Z</time>
      </trkpt>
      <trkpt lat="50.664326548576355" lon="13.320615570992231">
        <ele>488</ele>
        <time>2026-08-29T08:32:54Z</time>
      </trkpt>
      <trkpt lat="50.664326548576355" lon="13.320615654811263">
        <ele>488</ele>
        <time>2026-08-29T08:32:55Z</time>
      </trkpt>
      <trkpt lat="50.664326464757323" lon="13.320615738630295">
        <ele>488</ele>
        <time>2026-08-29T08:32:56Z</time>
      </trkpt>
      <trkpt lat="50.66432629711926" lon="13.320615738630295">
        <ele>488</ele>
        <time>2026-08-29T08:32:57Z</time>
      </trkpt>
      <trkpt lat="50.664326129481196" lon="13.320615822449327">
        <ele>488</ele>
        <time>2026-08-29T08:32:58Z</time>
      </trkpt>
      <trkpt lat="50.664325961843133" lon="13.320615822449327">
        <ele>488</ele>
        <time>2026-08-29T08:32:59Z</time>
      </trkpt>
      <trkpt lat="50.664325961843133" lon="13.320615906268358">
        <ele>488</ele>
        <time>2026-08-29T08:33:00Z</time>
      </trkpt>
      <trkpt lat="50.664325961843133" lon="13.320615822449327">
        <ele>488</ele>
        <time>2026-08-29T08:33:01Z</time>
      </trkpt>
      <trkpt lat="50.664325961843133" lon="13.320615822449327">
        <ele>488</ele>
        <time>2026-08-29T08:33:02Z</time>
      </trkpt>
      <trkpt lat="50.664325961843133" lon="13.320615654811263">
        <ele>488</ele>
        <time>2026-08-29T08:33:03Z</time>
      </trkpt>
      <trkpt lat="50.664325961843133" lon="13.320615654811263">
        <ele>488</ele>
        <time>2026-08-29T08:33:04Z</time>
      </trkpt>
      <trkpt lat="50.664325878024101" lon="13.320615654811263">
        <ele>488</ele>
        <time>2026-08-29T08:33:05Z</time>
      </trkpt>
      <trkpt lat="50.66432579420507" lon="13.320615654811263">
        <ele>488</ele>
        <time>2026-08-29T08:33:06Z</time>
      </trkpt>
      <trkpt lat="50.664325878024101" lon="13.320615822449327">
        <ele>488</ele>
        <time>2026-08-29T08:33:07Z</time>
      </trkpt>
      <trkpt lat="50.664325878024101" lon="13.320615906268358">
        <ele>488</ele>
        <time>2026-08-29T08:33:08Z</time>
      </trkpt>
      <trkpt lat="50.664323111996055" lon="13.320617247372866">
        <ele>488</ele>
        <time>2026-08-29T08:33:09Z</time>
      </trkpt>
      <trkpt lat="50.66432286053896" lon="13.320617331191897">
        <ele>488</ele>
        <time>2026-08-29T08:33:10Z</time>
      </trkpt>
      <trkpt lat="50.664322776719928" lon="13.320617498829961">
        <ele>488</ele>
        <time>2026-08-29T08:33:11Z</time>
      </trkpt>
      <trkpt lat="50.664322692900896" lon="13.320617415010929">
        <ele>488</ele>
        <time>2026-08-29T08:33:12Z</time>
      </trkpt>
      <trkpt lat="50.664322692900896" lon="13.320617247372866">
        <ele>488</ele>
        <time>2026-08-29T08:33:13Z</time>
      </trkpt>
      <trkpt lat="50.664322692900896" lon="13.320617415010929">
        <ele>488</ele>
        <time>2026-08-29T08:33:14Z</time>
      </trkpt>
      <trkpt lat="50.664322441443801" lon="13.320617498829961">
        <ele>488</ele>
        <time>2026-08-29T08:33:15Z</time>
      </trkpt>
      <trkpt lat="50.664322441443801" lon="13.320617415010929">
        <ele>488</ele>
        <time>2026-08-29T08:33:16Z</time>
      </trkpt>
      <trkpt lat="50.664322441443801" lon="13.320617331191897">
        <ele>488</ele>
        <time>2026-08-29T08:33:17Z</time>
      </trkpt>
      <trkpt lat="50.664322189986706" lon="13.320617247372866">
        <ele>488</ele>
        <time>2026-08-29T08:33:18Z</time>
      </trkpt>
      <trkpt lat="50.664322189986706" lon="13.320617163553834">
        <ele>488</ele>
        <time>2026-08-29T08:33:19Z</time>
      </trkpt>
      <trkpt lat="50.664322189986706" lon="13.320617331191897">
        <ele>488</ele>
        <time>2026-08-29T08:33:20Z</time>
      </trkpt>
      <trkpt lat="50.664322189986706" lon="13.320617331191897">
        <ele>488</ele>
        <time>2026-08-29T08:33:21Z</time>
      </trkpt>
      <trkpt lat="50.664322273805737" lon="13.320617331191897">
        <ele>488</ele>
        <time>2026-08-29T08:33:22Z</time>
      </trkpt>
      <trkpt lat="50.664322189986706" lon="13.320617415010929">
        <ele>488</ele>
        <time>2026-08-29T08:33:23Z</time>
      </trkpt>
      <trkpt lat="50.66432286053896" lon="13.320612134411931">
        <ele>487</ele>
        <time>2026-08-29T08:33:24Z</time>
      </trkpt>
      <trkpt lat="50.664322609081864" lon="13.320609033107758">
        <ele>487</ele>
        <time>2026-08-29T08:33:25Z</time>
      </trkpt>
      <trkpt lat="50.66432386636734" lon="13.320604842156172">
        <ele>487</ele>
        <time>2026-08-29T08:33:26Z</time>
      </trkpt>
      <trkpt lat="50.66432386636734" lon="13.320603752508759">
        <ele>487</ele>
        <time>2026-08-29T08:33:27Z</time>
      </trkpt>
      <trkpt lat="50.664321016520262" lon="13.320592772215605">
        <ele>486</ele>
        <time>2026-08-29T08:33:28Z</time>
      </trkpt>
      <trkpt lat="50.664319256320596" lon="13.320591766387224">
        <ele>486</ele>
        <time>2026-08-29T08:33:29Z</time>
      </trkpt>
      <trkpt lat="50.664321938529611" lon="13.320581037551165">
        <ele>486</ele>
        <time>2026-08-29T08:33:30Z</time>
      </trkpt>
      <trkpt lat="50.664321938529611" lon="13.320592353120446">
        <ele>487</ele>
        <time>2026-08-29T08:33:31Z</time>
      </trkpt>
      <trkpt lat="50.664320848882198" lon="13.320595789700747">
        <ele>487</ele>
        <time>2026-08-29T08:33:32Z</time>
      </trkpt>
      <trkpt lat="50.664320765063167" lon="13.320599226281047">
        <ele>487</ele>
        <time>2026-08-29T08:33:33Z</time>
      </trkpt>
      <trkpt lat="50.664326380938292" lon="13.320595538243651">
        <ele>487</ele>
        <time>2026-08-29T08:33:34Z</time>
      </trkpt>
      <trkpt lat="50.664324285462499" lon="13.320595873519778">
        <ele>486</ele>
        <time>2026-08-29T08:33:35Z</time>
      </trkpt>
      <trkpt lat="50.664324201643467" lon="13.320596376433969">
        <ele>486</ele>
        <time>2026-08-29T08:33:36Z</time>
      </trkpt>
      <trkpt lat="50.664325542747974" lon="13.320603333413601">
        <ele>486</ele>
        <time>2026-08-29T08:33:37Z</time>
      </trkpt>
      <trkpt lat="50.664327051490545" lon="13.320599310100079">
        <ele>486</ele>
        <time>2026-08-29T08:33:38Z</time>
      </trkpt>
      <trkpt lat="50.664325207471848" lon="13.320592017844319">
        <ele>487</ele>
        <time>2026-08-29T08:33:39Z</time>
      </trkpt>
      <trkpt lat="50.664328308776021" lon="13.320584306493402">
        <ele>487</ele>
        <time>2026-08-29T08:33:40Z</time>
      </trkpt>
      <trkpt lat="50.664329398423433" lon="13.320581456646323">
        <ele>487</ele>
        <time>2026-08-29T08:33:41Z</time>
      </trkpt>
      <trkpt lat="50.664328979328275" lon="13.320570895448327">
        <ele>487</ele>
        <time>2026-08-29T08:33:42Z</time>
      </trkpt>
      <trkpt lat="50.664327051490545" lon="13.32056662067771">
        <ele>487</ele>
        <time>2026-08-29T08:33:43Z</time>
      </trkpt>
      <trkpt lat="50.664328141137958" lon="13.320567291229963">
        <ele>487</ele>
        <time>2026-08-29T08:33:44Z</time>
      </trkpt>
      <trkpt lat="50.664328308776021" lon="13.320567207410932">
        <ele>487</ele>
        <time>2026-08-29T08:33:45Z</time>
      </trkpt>
      <trkpt lat="50.664328141137958" lon="13.320567039772868">
        <ele>487</ele>
        <time>2026-08-29T08:33:46Z</time>
      </trkpt>
      <trkpt lat="50.664324201643467" lon="13.320562094449997">
        <ele>487</ele>
        <time>2026-08-29T08:33:47Z</time>
      </trkpt>
      <trkpt lat="50.664321519434452" lon="13.32055932842195">
        <ele>487</ele>
        <time>2026-08-29T08:33:48Z</time>
      </trkpt>
      <trkpt lat="50.664321519434452" lon="13.320559663698077">
        <ele>487</ele>
        <time>2026-08-29T08:33:49Z</time>
      </trkpt>
      <trkpt lat="50.66432143561542" lon="13.320559915155172">
        <ele>487</ele>
        <time>2026-08-29T08:33:50Z</time>
      </trkpt>
      <trkpt lat="50.664321267977357" lon="13.320559998974204">
        <ele>487</ele>
        <time>2026-08-29T08:33:51Z</time>
      </trkpt>
      <trkpt lat="50.664321100339293" lon="13.320559747517109">
        <ele>487</ele>
        <time>2026-08-29T08:33:52Z</time>
      </trkpt>
      <trkpt lat="50.664321016520262" lon="13.320559831336141">
        <ele>487</ele>
        <time>2026-08-29T08:33:53Z</time>
      </trkpt>
      <trkpt lat="50.664320848882198" lon="13.320559663698077">
        <ele>487</ele>
        <time>2026-08-29T08:33:54Z</time>
      </trkpt>
      <trkpt lat="50.664320765063167" lon="13.320559579879045">
        <ele>487</ele>
        <time>2026-08-29T08:33:55Z</time>
      </trkpt>
      <trkpt lat="50.664320681244135" lon="13.320559579879045">
        <ele>487</ele>
        <time>2026-08-29T08:33:56Z</time>
      </trkpt>
      <trkpt lat="50.664322692900896" lon="13.32055832259357">
        <ele>486</ele>
        <time>2026-08-29T08:33:57Z</time>
      </trkpt>
      <trkpt lat="50.66432286053896" lon="13.320558154955506">
        <ele>486</ele>
        <time>2026-08-29T08:33:58Z</time>
      </trkpt>
      <trkpt lat="50.664323614910245" lon="13.32055639475584">
        <ele>486</ele>
        <time>2026-08-29T08:33:59Z</time>
      </trkpt>
      <trkpt lat="50.664323279634118" lon="13.320555808022618">
        <ele>486</ele>
        <time>2026-08-29T08:34:00Z</time>
      </trkpt>
      <trkpt lat="50.664323531091213" lon="13.320556143298745">
        <ele>486</ele>
        <time>2026-08-29T08:34:01Z</time>
      </trkpt>
      <trkpt lat="50.664298301562667" lon="13.32059352658689">
        <ele>496</ele>
        <time>2026-08-29T08:53:27Z</time>
      </trkpt>
      <trkpt lat="50.664316322654486" lon="13.320611799135804">
        <ele>494</ele>
        <time>2026-08-29T08:53:28Z</time>
      </trkpt>
      <trkpt lat="50.664316490292549" lon="13.320611799135804">
        <ele>494</ele>
        <time>2026-08-29T08:53:29Z</time>
      </trkpt>
      <trkpt lat="50.664316406473517" lon="13.320617079734802">
        <ele>495</ele>
        <time>2026-08-29T08:53:30Z</time>
      </trkpt>
      <trkpt lat="50.664316406473517" lon="13.320617079734802">
        <ele>495</ele>
        <time>2026-08-29T08:53:31Z</time>
      </trkpt>
      <trkpt lat="50.664316406473517" lon="13.320617079734802">
        <ele>495</ele>
        <time>2026-08-29T08:53:32Z</time>
      </trkpt>
      <trkpt lat="50.664316490292549" lon="13.320617163553834">
        <ele>495</ele>
        <time>2026-08-29T08:53:33Z</time>
      </trkpt>
      <trkpt lat="50.664315149188042" lon="13.320617331191897">
        <ele>495</ele>
        <time>2026-08-29T08:53:34Z</time>
      </trkpt>
      <trkpt lat="50.664312383159995" lon="13.320615738630295">
        <ele>495</ele>
        <time>2026-08-29T08:53:35Z</time>
      </trkpt>
      <trkpt lat="50.66430727019906" lon="13.320613224059343">
        <ele>495</ele>
        <time>2026-08-29T08:53:36Z</time>
      </trkpt>
      <trkpt lat="50.664302743971348" lon="13.320608697831631">
        <ele>496</ele>
        <time>2026-08-29T08:53:37Z</time>
      </trkpt>
      <trkpt lat="50.664298050105572" lon="13.320599561557174">
        <ele>496</ele>
        <time>2026-08-29T08:53:38Z</time>
      </trkpt>
      <trkpt lat="50.664293020963669" lon="13.320585312321782">
        <ele>496</ele>
        <time>2026-08-29T08:53:39Z</time>
      </trkpt>
      <trkpt lat="50.664288746193051" lon="13.320575086399913">
        <ele>496</ele>
        <time>2026-08-29T08:53:40Z</time>
      </trkpt>
      <trkpt lat="50.664287069812417" lon="13.320560501888394">
        <ele>496</ele>
        <time>2026-08-29T08:53:41Z</time>
      </trkpt>
      <trkpt lat="50.664286818355322" lon="13.32054222933948">
        <ele>496</ele>
        <time>2026-08-29T08:53:42Z</time>
      </trkpt>
      <trkpt lat="50.66428137011826" lon="13.320524208247662">
        <ele>496</ele>
        <time>2026-08-29T08:53:43Z</time>
      </trkpt>
      <trkpt lat="50.664278939366341" lon="13.320509120821953">
        <ele>496</ele>
        <time>2026-08-29T08:53:44Z</time>
      </trkpt>
      <trkpt lat="50.664277179166675" lon="13.320498559623957">
        <ele>496</ele>
        <time>2026-08-29T08:53:45Z</time>
      </trkpt>
      <trkpt lat="50.664275670424104" lon="13.320482969284058">
        <ele>495</ele>
        <time>2026-08-29T08:53:46Z</time>
      </trkpt>
      <trkpt lat="50.664270892739296" lon="13.32046159543097">
        <ele>494</ele>
        <time>2026-08-29T08:53:47Z</time>
      </trkpt>
      <trkpt lat="50.664270389825106" lon="13.320439215749502">
        <ele>494</ele>
        <time>2026-08-29T08:53:48Z</time>
      </trkpt>
      <trkpt lat="50.664278939366341" lon="13.320408286526799">
        <ele>493</ele>
        <time>2026-08-29T08:53:49Z</time>
      </trkpt>
      <trkpt lat="50.664281202480197" lon="13.32037316635251">
        <ele>493</ele>
        <time>2026-08-29T08:53:50Z</time>
      </trkpt>
      <trkpt lat="50.664290590211749" lon="13.320339303463697">
        <ele>492</ele>
        <time>2026-08-29T08:53:51Z</time>
      </trkpt>
      <trkpt lat="50.66430089995265" lon="13.320293622091413">
        <ele>492</ele>
        <time>2026-08-29T08:53:52Z</time>
      </trkpt>
      <trkpt lat="50.664313472807407" lon="13.320251293480396">
        <ele>492</ele>
        <time>2026-08-29T08:53:53Z</time>
      </trkpt>
      <trkpt lat="50.664324956014752" lon="13.320201840251684">
        <ele>492</ele>
        <time>2026-08-29T08:53:54Z</time>
      </trkpt>
      <trkpt lat="50.664338702335954" lon="13.320160349830985">
        <ele>492</ele>
        <time>2026-08-29T08:53:55Z</time>
      </trkpt>
      <trkpt lat="50.664351191371679" lon="13.320121290162206">
        <ele>491</ele>
        <time>2026-08-29T08:53:56Z</time>
      </trkpt>
      <trkpt lat="50.664362842217088" lon="13.320081643760204">
        <ele>491</ele>
        <time>2026-08-29T08:53:57Z</time>
      </trkpt>
      <trkpt lat="50.664374576881528" lon="13.320038896054029">
        <ele>491</ele>
        <time>2026-08-29T08:53:58Z</time>
      </trkpt>
      <trkpt lat="50.664388490840793" lon="13.319998746737838">
        <ele>491</ele>
        <time>2026-08-29T08:53:59Z</time>
      </trkpt>
      <trkpt lat="50.664398297667503" lon="13.319960860535502">
        <ele>490</ele>
        <time>2026-08-29T08:54:00Z</time>
      </trkpt>
      <trkpt lat="50.664405673742294" lon="13.319921297952533">
        <ele>490</ele>
        <time>2026-08-29T08:54:01Z</time>
      </trkpt>
      <trkpt lat="50.664415648207068" lon="13.319877544417977">
        <ele>490</ele>
        <time>2026-08-29T08:54:02Z</time>
      </trkpt>
      <trkpt lat="50.664429059252143" lon="13.319840999320149">
        <ele>490</ele>
        <time>2026-08-29T08:54:03Z</time>
      </trkpt>
      <trkpt lat="50.664439871907234" lon="13.319809986278415">
        <ele>489</ele>
        <time>2026-08-29T08:54:04Z</time>
      </trkpt>
      <trkpt lat="50.664454624056816" lon="13.319774027913809">
        <ele>489</ele>
        <time>2026-08-29T08:54:05Z</time>
      </trkpt>
      <trkpt lat="50.664465352892876" lon="13.319734549149871">
        <ele>489</ele>
        <time>2026-08-29T08:54:06Z</time>
      </trkpt>
      <trkpt lat="50.664472980424762" lon="13.319702697917819">
        <ele>489</ele>
        <time>2026-08-29T08:54:07Z</time>
      </trkpt>
      <trkpt lat="50.664478009566665" lon="13.319669757038355">
        <ele>489</ele>
        <time>2026-08-29T08:54:08Z</time>
      </trkpt>
      <trkpt lat="50.664488235488534" lon="13.319632709026337">
        <ele>489</ele>
        <time>2026-08-29T08:54:09Z</time>
      </trkpt>
      <trkpt lat="50.664494438096881" lon="13.319600019603968">
        <ele>489</ele>
        <time>2026-08-29T08:54:10Z</time>
      </trkpt>
      <trkpt lat="50.664503909647465" lon="13.319558193907142">
        <ele>488</ele>
        <time>2026-08-29T08:54:11Z</time>
      </trkpt>
      <trkpt lat="50.664509944617748" lon="13.31951511092484">
        <ele>488</ele>
        <time>2026-08-29T08:54:12Z</time>
      </trkpt>
      <trkpt lat="50.664515309035778" lon="13.319467669352889">
        <ele>488</ele>
        <time>2026-08-29T08:54:13Z</time>
      </trkpt>
      <trkpt lat="50.664521511644125" lon="13.319413522258401">
        <ele>488</ele>
        <time>2026-08-29T08:54:14Z</time>
      </trkpt>
      <trkpt lat="50.664544897153974" lon="13.319371193647385">
        <ele>487</ele>
        <time>2026-08-29T08:54:15Z</time>
      </trkpt>
      <trkpt lat="50.664563840255141" lon="13.319305730983615">
        <ele>487</ele>
        <time>2026-08-29T08:54:16Z</time>
      </trkpt>
      <trkpt lat="50.664579765871167" lon="13.319225935265422">
        <ele>487</ele>
        <time>2026-08-29T08:54:17Z</time>
      </trkpt>
      <trkpt lat="50.664596697315574" lon="13.319156030192971">
        <ele>487</ele>
        <time>2026-08-29T08:54:18Z</time>
      </trkpt>
      <trkpt lat="50.664615221321583" lon="13.319075647741556">
        <ele>487</ele>
        <time>2026-08-29T08:54:19Z</time>
      </trkpt>
      <trkpt lat="50.664637768641114" lon="13.319012196734548">
        <ele>487</ele>
        <time>2026-08-29T08:54:20Z</time>
      </trkpt>
      <trkpt lat="50.664659393951297" lon="13.318931646645069">
        <ele>487</ele>
        <time>2026-08-29T08:54:21Z</time>
      </trkpt>
      <trkpt lat="50.664679929614067" lon="13.318857466802001">
        <ele>488</ele>
        <time>2026-08-29T08:54:22Z</time>
      </trkpt>
      <trkpt lat="50.66469912417233" lon="13.318777587264776">
        <ele>488</ele>
        <time>2026-08-29T08:54:23Z</time>
      </trkpt>
      <trkpt lat="50.664722006767988" lon="13.318687481805682">
        <ele>488</ele>
        <time>2026-08-29T08:54:24Z</time>
      </trkpt>
      <trkpt lat="50.664738183841109" lon="13.318598298355937">
        <ele>488</ele>
        <time>2026-08-29T08:54:25Z</time>
      </trkpt>
      <trkpt lat="50.664758300408721" lon="13.318505762144923">
        <ele>487</ele>
        <time>2026-08-29T08:54:26Z</time>
      </trkpt>
      <trkpt lat="50.664779422804713" lon="13.318415908142924">
        <ele>487</ele>
        <time>2026-08-29T08:54:27Z</time>
      </trkpt>
      <trkpt lat="50.664799036458135" lon="13.318329071626067">
        <ele>487</ele>
        <time>2026-08-29T08:54:28Z</time>
      </trkpt>
      <trkpt lat="50.664825271815062" lon="13.318244330585003">
        <ele>486</ele>
        <time>2026-08-29T08:54:29Z</time>
      </trkpt>
      <trkpt lat="50.664844131097198" lon="13.31814693287015">
        <ele>486</ele>
        <time>2026-08-29T08:54:30Z</time>
      </trkpt>
      <trkpt lat="50.664861900731921" lon="13.318059341982007">
        <ele>486</ele>
        <time>2026-08-29T08:54:31Z</time>
      </trkpt>
      <trkpt lat="50.664877910166979" lon="13.31796714104712">
        <ele>486</ele>
        <time>2026-08-29T08:54:32Z</time>
      </trkpt>
      <trkpt lat="50.664894171059132" lon="13.317880723625422">
        <ele>486</ele>
        <time>2026-08-29T08:54:33Z</time>
      </trkpt>
      <trkpt lat="50.664905067533255" lon="13.317791372537613">
        <ele>486</ele>
        <time>2026-08-29T08:54:34Z</time>
      </trkpt>
      <trkpt lat="50.664904732257128" lon="13.317707385867834">
        <ele>486</ele>
        <time>2026-08-29T08:54:35Z</time>
      </trkpt>
      <trkpt lat="50.664883945137262" lon="13.31762608140707">
        <ele>485</ele>
        <time>2026-08-29T08:54:36Z</time>
      </trkpt>
      <trkpt lat="50.664858380332589" lon="13.317546956241131">
        <ele>485</ele>
        <time>2026-08-29T08:54:37Z</time>
      </trkpt>
      <trkpt lat="50.664835162460804" lon="13.317465987056494">
        <ele>485</ele>
        <time>2026-08-29T08:54:38Z</time>
      </trkpt>
      <trkpt lat="50.66481102257967" lon="13.317392058670521">
        <ele>485</ele>
        <time>2026-08-29T08:54:39Z</time>
      </trkpt>
      <trkpt lat="50.664787050336599" lon="13.317307401448488">
        <ele>485</ele>
        <time>2026-08-29T08:54:40Z</time>
      </trkpt>
      <trkpt lat="50.664765341207385" lon="13.317217379808426">
        <ele>485</ele>
        <time>2026-08-29T08:54:41Z</time>
      </trkpt>
      <trkpt lat="50.664756372570992" lon="13.317122161388397">
        <ele>485</ele>
        <time>2026-08-29T08:54:42Z</time>
      </trkpt>
      <trkpt lat="50.664756707847118" lon="13.317028786987066">
        <ele>484</ele>
        <time>2026-08-29T08:54:43Z</time>
      </trkpt>
      <trkpt lat="50.664785206317902" lon="13.316948739811778">
        <ele>485</ele>
        <time>2026-08-29T08:54:44Z</time>
      </trkpt>
      <trkpt lat="50.664813620969653" lon="13.316870871931314">
        <ele>485</ele>
        <time>2026-08-29T08:54:45Z</time>
      </trkpt>
      <trkpt lat="50.664833066985011" lon="13.316785292699933">
        <ele>485</ele>
        <time>2026-08-29T08:54:46Z</time>
      </trkpt>
      <trkpt lat="50.664853099733591" lon="13.316691080108285">
        <ele>484</ele>
        <time>2026-08-29T08:54:47Z</time>
      </trkpt>
      <trkpt lat="50.664871791377664" lon="13.316593850031495">
        <ele>484</ele>
        <time>2026-08-29T08:54:48Z</time>
      </trkpt>
      <trkpt lat="50.664878077805042" lon="13.31650123000145">
        <ele>484</ele>
        <time>2026-08-29T08:54:49Z</time>
      </trkpt>
      <trkpt lat="50.66486625932157" lon="13.316404419019818">
        <ele>484</ele>
        <time>2026-08-29T08:54:50Z</time>
      </trkpt>
      <trkpt lat="50.664845891296864" lon="13.316316576674581">
        <ele>483</ele>
        <time>2026-08-29T08:54:51Z</time>
      </trkpt>
      <trkpt lat="50.664827367290854" lon="13.316225213930011">
        <ele>483</ele>
        <time>2026-08-29T08:54:52Z</time>
      </trkpt>
      <trkpt lat="50.664809849113226" lon="13.316129241138697">
        <ele>483</ele>
        <time>2026-08-29T08:54:53Z</time>
      </trkpt>
      <trkpt lat="50.664790319278836" lon="13.316032011061907">
        <ele>483</ele>
        <time>2026-08-29T08:54:54Z</time>
      </trkpt>
      <trkpt lat="50.664772382006049" lon="13.315946850925684">
        <ele>483</ele>
        <time>2026-08-29T08:54:55Z</time>
      </trkpt>
      <trkpt lat="50.664752768352628" lon="13.315862026065588">
        <ele>484</ele>
        <time>2026-08-29T08:54:56Z</time>
      </trkpt>
      <trkpt lat="50.664733909070492" lon="13.315766807645559">
        <ele>484</ele>
        <time>2026-08-29T08:54:57Z</time>
      </trkpt>
      <trkpt lat="50.664713205769658" lon="13.31567008048296">
        <ele>483</ele>
        <time>2026-08-29T08:54:58Z</time>
      </trkpt>
      <trkpt lat="50.664699459448457" lon="13.315574610605836">
        <ele>483</ele>
        <time>2026-08-29T08:54:59Z</time>
      </trkpt>
      <trkpt lat="50.664687808603048" lon="13.315483750775456">
        <ele>483</ele>
        <time>2026-08-29T08:55:00Z</time>
      </trkpt>
      <trkpt lat="50.664671212434769" lon="13.315387275069952">
        <ele>483</ele>
        <time>2026-08-29T08:55:01Z</time>
      </trkpt>
      <trkpt lat="50.664663836359978" lon="13.315295828506351">
        <ele>482</ele>
        <time>2026-08-29T08:55:02Z</time>
      </trkpt>
      <trkpt lat="50.664660986512899" lon="13.315207064151764">
        <ele>483</ele>
        <time>2026-08-29T08:55:03Z</time>
      </trkpt>
      <trkpt lat="50.664667272940278" lon="13.315115449950099">
        <ele>483</ele>
        <time>2026-08-29T08:55:04Z</time>
      </trkpt>
      <trkpt lat="50.664679761976004" lon="13.31501729786396">
        <ele>482</ele>
        <time>2026-08-29T08:55:05Z</time>
      </trkpt>
      <trkpt lat="50.664688982069492" lon="13.314932640641928">
        <ele>482</ele>
        <time>2026-08-29T08:55:06Z</time>
      </trkpt>
      <trkpt lat="50.664699207991362" lon="13.314842786639929">
        <ele>482</ele>
        <time>2026-08-29T08:55:07Z</time>
      </trkpt>
      <trkpt lat="50.664703398942947" lon="13.314751926809549">
        <ele>482</ele>
        <time>2026-08-29T08:55:08Z</time>
      </trkpt>
      <trkpt lat="50.664711529389024" lon="13.314654696732759">
        <ele>482</ele>
        <time>2026-08-29T08:55:09Z</time>
      </trkpt>
      <trkpt lat="50.664720581844449" lon="13.314557382836938">
        <ele>482</ele>
        <time>2026-08-29T08:55:10Z</time>
      </trkpt>
      <trkpt lat="50.664729299023747" lon="13.314464008435607">
        <ele>481</ele>
        <time>2026-08-29T08:55:11Z</time>
      </trkpt>
      <trkpt lat="50.664738938212395" lon="13.314378680661321">
        <ele>481</ele>
        <time>2026-08-29T08:55:12Z</time>
      </trkpt>
      <trkpt lat="50.6647455599159" lon="13.314296286553144">
        <ele>481</ele>
        <time>2026-08-29T08:55:13Z</time>
      </trkpt>
      <trkpt lat="50.664752600714564" lon="13.314210958778858">
        <ele>482</ele>
        <time>2026-08-29T08:55:14Z</time>
      </trkpt>
      <trkpt lat="50.664760479703546" lon="13.314128899946809">
        <ele>481</ele>
        <time>2026-08-29T08:55:15Z</time>
      </trkpt>
      <trkpt lat="50.664768945425749" lon="13.314051702618599">
        <ele>481</ele>
        <time>2026-08-29T08:55:16Z</time>
      </trkpt>
      <trkpt lat="50.664774728938937" lon="13.313975008204579">
        <ele>481</ele>
        <time>2026-08-29T08:55:17Z</time>
      </trkpt>
      <trkpt lat="50.664783446118236" lon="13.313894877210259">
        <ele>481</ele>
        <time>2026-08-29T08:55:18Z</time>
      </trkpt>
      <trkpt lat="50.664789984002709" lon="13.313824301585555">
        <ele>481</ele>
        <time>2026-08-29T08:55:19Z</time>
      </trkpt>
      <trkpt lat="50.664799539372325" lon="13.313750708475709">
        <ele>481</ele>
        <time>2026-08-29T08:55:20Z</time>
      </trkpt>
      <trkpt lat="50.664803562685847" lon="13.313682731240988">
        <ele>481</ele>
        <time>2026-08-29T08:55:21Z</time>
      </trkpt>
      <trkpt lat="50.66480465233326" lon="13.313606455922127">
        <ele>481</ele>
        <time>2026-08-29T08:55:22Z</time>
      </trkpt>
      <trkpt lat="50.664811441674829" lon="13.313539819791913">
        <ele>481</ele>
        <time>2026-08-29T08:55:23Z</time>
      </trkpt>
      <trkpt lat="50.664818650111556" lon="13.313470669090748">
        <ele>481</ele>
        <time>2026-08-29T08:55:24Z</time>
      </trkpt>
      <trkpt lat="50.664823763072491" lon="13.313408643007278">
        <ele>481</ele>
        <time>2026-08-29T08:55:25Z</time>
      </trkpt>
      <trkpt lat="50.664829295128584" lon="13.313343934714794">
        <ele>480</ele>
        <time>2026-08-29T08:55:26Z</time>
      </trkpt>
      <trkpt lat="50.66483398899436" lon="13.313296912238002">
        <ele>481</ele>
        <time>2026-08-29T08:55:27Z</time>
      </trkpt>
      <trkpt lat="50.664839604869485" lon="13.313279142603278">
        <ele>481</ele>
        <time>2026-08-29T08:55:28Z</time>
      </trkpt>
      <trkpt lat="50.664842538535595" lon="13.313281573355198">
        <ele>481</ele>
        <time>2026-08-29T08:55:29Z</time>
      </trkpt>
      <trkpt lat="50.664845136925578" lon="13.313287105411291">
        <ele>481</ele>
        <time>2026-08-29T08:55:30Z</time>
      </trkpt>
      <trkpt lat="50.664845388382673" lon="13.313286853954196">
        <ele>481</ele>
        <time>2026-08-29T08:55:31Z</time>
      </trkpt>
      <trkpt lat="50.664843712002039" lon="13.313288111239672">
        <ele>481</ele>
        <time>2026-08-29T08:55:32Z</time>
      </trkpt>
      <trkpt lat="50.664843712002039" lon="13.313288111239672">
        <ele>481</ele>
        <time>2026-08-29T08:55:33Z</time>
      </trkpt>
      <trkpt lat="50.664843628183007" lon="13.313288195058703">
        <ele>481</ele>
        <time>2026-08-29T08:55:34Z</time>
      </trkpt>
      <trkpt lat="50.664843628183007" lon="13.313288195058703">
        <ele>481</ele>
        <time>2026-08-29T08:55:35Z</time>
      </trkpt>
      <trkpt lat="50.664843628183007" lon="13.313288195058703">
        <ele>481</ele>
        <time>2026-08-29T08:55:36Z</time>
      </trkpt>
      <trkpt lat="50.664843628183007" lon="13.313288195058703">
        <ele>481</ele>
        <time>2026-08-29T08:55:37Z</time>
      </trkpt>
      <trkpt lat="50.664843628183007" lon="13.313288195058703">
        <ele>481</ele>
        <time>2026-08-29T08:55:38Z</time>
      </trkpt>
      <trkpt lat="50.664843628183007" lon="13.313288195058703">
        <ele>481</ele>
        <time>2026-08-29T08:55:39Z</time>
      </trkpt>
      <trkpt lat="50.664843628183007" lon="13.313288195058703">
        <ele>481</ele>
        <time>2026-08-29T08:55:40Z</time>
      </trkpt>
      <trkpt lat="50.664843628183007" lon="13.313288195058703">
        <ele>481</ele>
        <time>2026-08-29T08:55:41Z</time>
      </trkpt>
      <trkpt lat="50.664843628183007" lon="13.313288195058703">
        <ele>481</ele>
        <time>2026-08-29T08:55:42Z</time>
      </trkpt>
      <trkpt lat="50.664843628183007" lon="13.313288195058703">
        <ele>481</ele>
        <time>2026-08-29T08:55:43Z</time>
      </trkpt>
      <trkpt lat="50.664843628183007" lon="13.313288195058703">
        <ele>481</ele>
        <time>2026-08-29T08:55:44Z</time>
      </trkpt>
      <trkpt lat="50.664843628183007" lon="13.313288195058703">
        <ele>481</ele>
        <time>2026-08-29T08:55:45Z</time>
      </trkpt>
      <trkpt lat="50.664843628183007" lon="13.313288195058703">
        <ele>481</ele>
        <time>2026-08-29T08:55:46Z</time>
      </trkpt>
      <trkpt lat="50.664843879640102" lon="13.313288278877735">
        <ele>481</ele>
        <time>2026-08-29T08:55:47Z</time>
      </trkpt>
      <trkpt lat="50.664844047278166" lon="13.313288446515799">
        <ele>481</ele>
        <time>2026-08-29T08:55:48Z</time>
      </trkpt>
      <trkpt lat="50.664843460544944" lon="13.313286770135164">
        <ele>481</ele>
        <time>2026-08-29T08:55:49Z</time>
      </trkpt>
      <trkpt lat="50.664843460544944" lon="13.313286686316133">
        <ele>481</ele>
        <time>2026-08-29T08:55:50Z</time>
      </trkpt>
      <trkpt lat="50.664843460544944" lon="13.313286770135164">
        <ele>481</ele>
        <time>2026-08-29T08:55:51Z</time>
      </trkpt>
      <trkpt lat="50.664843460544944" lon="13.313286686316133">
        <ele>481</ele>
        <time>2026-08-29T08:55:52Z</time>
      </trkpt>
      <trkpt lat="50.664843460544944" lon="13.313286686316133">
        <ele>481</ele>
        <time>2026-08-29T08:55:53Z</time>
      </trkpt>
      <trkpt lat="50.664843460544944" lon="13.313286686316133">
        <ele>481</ele>
        <time>2026-08-29T08:55:54Z</time>
      </trkpt>
      <trkpt lat="50.664843460544944" lon="13.313286602497101">
        <ele>481</ele>
        <time>2026-08-29T08:55:55Z</time>
      </trkpt>
      <trkpt lat="50.664843460544944" lon="13.313286602497101">
        <ele>481</ele>
        <time>2026-08-29T08:55:56Z</time>
      </trkpt>
      <trkpt lat="50.664843460544944" lon="13.313286518678069">
        <ele>481</ele>
        <time>2026-08-29T08:55:57Z</time>
      </trkpt>
      <trkpt lat="50.664843460544944" lon="13.313286518678069">
        <ele>481</ele>
        <time>2026-08-29T08:55:58Z</time>
      </trkpt>
      <trkpt lat="50.664843460544944" lon="13.313286518678069">
        <ele>481</ele>
        <time>2026-08-29T08:55:59Z</time>
      </trkpt>
      <trkpt lat="50.664843460544944" lon="13.313286434859037">
        <ele>481</ele>
        <time>2026-08-29T08:56:00Z</time>
      </trkpt>
      <trkpt lat="50.664843460544944" lon="13.313286434859037">
        <ele>481</ele>
        <time>2026-08-29T08:56:01Z</time>
      </trkpt>
      <trkpt lat="50.664843460544944" lon="13.313286434859037">
        <ele>481</ele>
        <time>2026-08-29T08:56:02Z</time>
      </trkpt>
      <trkpt lat="50.664843460544944" lon="13.313286351040006">
        <ele>481</ele>
        <time>2026-08-29T08:56:03Z</time>
      </trkpt>
      <trkpt lat="50.664843460544944" lon="13.313286351040006">
        <ele>481</ele>
        <time>2026-08-29T08:56:04Z</time>
      </trkpt>
      <trkpt lat="50.664843460544944" lon="13.313286267220974">
        <ele>481</ele>
        <time>2026-08-29T08:56:05Z</time>
      </trkpt>
      <trkpt lat="50.664843460544944" lon="13.313286267220974">
        <ele>481</ele>
        <time>2026-08-29T08:56:06Z</time>
      </trkpt>
      <trkpt lat="50.664843460544944" lon="13.313286267220974">
        <ele>481</ele>
        <time>2026-08-29T08:56:07Z</time>
      </trkpt>
      <trkpt lat="50.664843460544944" lon="13.313286267220974">
        <ele>481</ele>
        <time>2026-08-29T08:56:08Z</time>
      </trkpt>
      <trkpt lat="50.664843460544944" lon="13.313286267220974">
        <ele>481</ele>
        <time>2026-08-29T08:56:09Z</time>
      </trkpt>
      <trkpt lat="50.664843460544944" lon="13.313286183401942">
        <ele>481</ele>
        <time>2026-08-29T08:56:10Z</time>
      </trkpt>
      <trkpt lat="50.664843460544944" lon="13.313286267220974">
        <ele>481</ele>
        <time>2026-08-29T08:56:11Z</time>
      </trkpt>
      <trkpt lat="50.664843460544944" lon="13.313286267220974">
        <ele>481</ele>
        <time>2026-08-29T08:56:12Z</time>
      </trkpt>
      <trkpt lat="50.664843460544944" lon="13.313286267220974">
        <ele>481</ele>
        <time>2026-08-29T08:56:13Z</time>
      </trkpt>
      <trkpt lat="50.664843460544944" lon="13.313286267220974">
        <ele>481</ele>
        <time>2026-08-29T08:56:14Z</time>
      </trkpt>
      <trkpt lat="50.664843460544944" lon="13.313286267220974">
        <ele>481</ele>
        <time>2026-08-29T08:56:15Z</time>
      </trkpt>
      <trkpt lat="50.664843460544944" lon="13.313286267220974">
        <ele>481</ele>
        <time>2026-08-29T08:56:16Z</time>
      </trkpt>
      <trkpt lat="50.664843460544944" lon="13.313286267220974">
        <ele>481</ele>
        <time>2026-08-29T08:56:17Z</time>
      </trkpt>
      <trkpt lat="50.664843460544944" lon="13.313286267220974">
        <ele>481</ele>
        <time>2026-08-29T08:56:18Z</time>
      </trkpt>
      <trkpt lat="50.664843460544944" lon="13.313286267220974">
        <ele>481</ele>
        <time>2026-08-29T08:56:19Z</time>
      </trkpt>
      <trkpt lat="50.664843460544944" lon="13.313286267220974">
        <ele>481</ele>
        <time>2026-08-29T08:56:20Z</time>
      </trkpt>
      <trkpt lat="50.664843460544944" lon="13.313286267220974">
        <ele>481</ele>
        <time>2026-08-29T08:56:21Z</time>
      </trkpt>
      <trkpt lat="50.664843460544944" lon="13.313286267220974">
        <ele>481</ele>
        <time>2026-08-29T08:56:22Z</time>
      </trkpt>
      <trkpt lat="50.664843460544944" lon="13.313286267220974">
        <ele>481</ele>
        <time>2026-08-29T08:56:23Z</time>
      </trkpt>
      <trkpt lat="50.664843460544944" lon="13.313286267220974">
        <ele>481</ele>
        <time>2026-08-29T08:56:24Z</time>
      </trkpt>
      <trkpt lat="50.664843460544944" lon="13.313286267220974">
        <ele>481</ele>
        <time>2026-08-29T08:56:25Z</time>
      </trkpt>
      <trkpt lat="50.664843460544944" lon="13.313286267220974">
        <ele>481</ele>
        <time>2026-08-29T08:56:26Z</time>
      </trkpt>
      <trkpt lat="50.664843460544944" lon="13.313286267220974">
        <ele>481</ele>
        <time>2026-08-29T08:56:27Z</time>
      </trkpt>
      <trkpt lat="50.664843460544944" lon="13.313286267220974">
        <ele>481</ele>
        <time>2026-08-29T08:56:28Z</time>
      </trkpt>
      <trkpt lat="50.664843460544944" lon="13.313286267220974">
        <ele>481</ele>
        <time>2026-08-29T08:56:29Z</time>
      </trkpt>
      <trkpt lat="50.664843460544944" lon="13.313286267220974">
        <ele>481</ele>
        <time>2026-08-29T08:56:30Z</time>
      </trkpt>
      <trkpt lat="50.664843460544944" lon="13.313286267220974">
        <ele>481</ele>
        <time>2026-08-29T08:56:31Z</time>
      </trkpt>
      <trkpt lat="50.664843460544944" lon="13.313286267220974">
        <ele>481</ele>
        <time>2026-08-29T08:56:32Z</time>
      </trkpt>
      <trkpt lat="50.664843460544944" lon="13.313286267220974">
        <ele>481</ele>
        <time>2026-08-29T08:56:33Z</time>
      </trkpt>
      <trkpt lat="50.664843460544944" lon="13.313286267220974">
        <ele>481</ele>
        <time>2026-08-29T08:56:34Z</time>
      </trkpt>
      <trkpt lat="50.664843795821071" lon="13.313287021592259">
        <ele>481</ele>
        <time>2026-08-29T08:56:35Z</time>
      </trkpt>
      <trkpt lat="50.664843879640102" lon="13.313287273049355">
        <ele>481</ele>
        <time>2026-08-29T08:56:36Z</time>
      </trkpt>
      <trkpt lat="50.664843879640102" lon="13.313287440687418">
        <ele>481</ele>
        <time>2026-08-29T08:56:37Z</time>
      </trkpt>
      <trkpt lat="50.664844131097198" lon="13.313286686316133">
        <ele>481</ele>
        <time>2026-08-29T08:56:38Z</time>
      </trkpt>
      <trkpt lat="50.664844047278166" lon="13.313286351040006">
        <ele>481</ele>
        <time>2026-08-29T08:56:39Z</time>
      </trkpt>
      <trkpt lat="50.664844047278166" lon="13.313285680487752">
        <ele>481</ele>
        <time>2026-08-29T08:56:40Z</time>
      </trkpt>
      <trkpt lat="50.664844047278166" lon="13.313285512849689">
        <ele>481</ele>
        <time>2026-08-29T08:56:41Z</time>
      </trkpt>
      <trkpt lat="50.664844047278166" lon="13.313285512849689">
        <ele>481</ele>
        <time>2026-08-29T08:56:42Z</time>
      </trkpt>
      <trkpt lat="50.664844047278166" lon="13.313285429030657">
        <ele>481</ele>
        <time>2026-08-29T08:56:43Z</time>
      </trkpt>
      <trkpt lat="50.664844047278166" lon="13.313285429030657">
        <ele>481</ele>
        <time>2026-08-29T08:56:44Z</time>
      </trkpt>
      <trkpt lat="50.664844047278166" lon="13.313285345211625">
        <ele>481</ele>
        <time>2026-08-29T08:56:45Z</time>
      </trkpt>
      <trkpt lat="50.664844047278166" lon="13.313285345211625">
        <ele>481</ele>
        <time>2026-08-29T08:56:46Z</time>
      </trkpt>
      <trkpt lat="50.664844047278166" lon="13.313285345211625">
        <ele>481</ele>
        <time>2026-08-29T08:56:47Z</time>
      </trkpt>
      <trkpt lat="50.664844047278166" lon="13.313285345211625">
        <ele>481</ele>
        <time>2026-08-29T08:56:48Z</time>
      </trkpt>
      <trkpt lat="50.664844047278166" lon="13.313285345211625">
        <ele>481</ele>
        <time>2026-08-29T08:56:49Z</time>
      </trkpt>
      <trkpt lat="50.664844047278166" lon="13.313285345211625">
        <ele>481</ele>
        <time>2026-08-29T08:56:50Z</time>
      </trkpt>
      <trkpt lat="50.664844047278166" lon="13.313285345211625">
        <ele>481</ele>
        <time>2026-08-29T08:56:51Z</time>
      </trkpt>
      <trkpt lat="50.664844047278166" lon="13.313285345211625">
        <ele>481</ele>
        <time>2026-08-29T08:56:52Z</time>
      </trkpt>
      <trkpt lat="50.664844047278166" lon="13.313285345211625">
        <ele>481</ele>
        <time>2026-08-29T08:56:53Z</time>
      </trkpt>
      <trkpt lat="50.664844047278166" lon="13.313285345211625">
        <ele>481</ele>
        <time>2026-08-29T08:56:54Z</time>
      </trkpt>
      <trkpt lat="50.664844047278166" lon="13.313285345211625">
        <ele>481</ele>
        <time>2026-08-29T08:56:55Z</time>
      </trkpt>
      <trkpt lat="50.664844047278166" lon="13.313285345211625">
        <ele>481</ele>
        <time>2026-08-29T08:56:56Z</time>
      </trkpt>
      <trkpt lat="50.664844047278166" lon="13.313285345211625">
        <ele>481</ele>
        <time>2026-08-29T08:56:57Z</time>
      </trkpt>
      <trkpt lat="50.664844047278166" lon="13.313285345211625">
        <ele>481</ele>
        <time>2026-08-29T08:56:58Z</time>
      </trkpt>
      <trkpt lat="50.664844047278166" lon="13.313285345211625">
        <ele>481</ele>
        <time>2026-08-29T08:56:59Z</time>
      </trkpt>
      <trkpt lat="50.664844047278166" lon="13.313285345211625">
        <ele>481</ele>
        <time>2026-08-29T08:57:00Z</time>
      </trkpt>
      <trkpt lat="50.664844047278166" lon="13.313285345211625">
        <ele>481</ele>
        <time>2026-08-29T08:57:01Z</time>
      </trkpt>
      <trkpt lat="50.664844047278166" lon="13.313285345211625">
        <ele>481</ele>
        <time>2026-08-29T08:57:02Z</time>
      </trkpt>
      <trkpt lat="50.664844047278166" lon="13.313285345211625">
        <ele>481</ele>
        <time>2026-08-29T08:57:03Z</time>
      </trkpt>
      <trkpt lat="50.664844047278166" lon="13.313285345211625">
        <ele>481</ele>
        <time>2026-08-29T08:57:04Z</time>
      </trkpt>
      <trkpt lat="50.664844047278166" lon="13.313285345211625">
        <ele>481</ele>
        <time>2026-08-29T08:57:05Z</time>
      </trkpt>
      <trkpt lat="50.664844047278166" lon="13.313285345211625">
        <ele>481</ele>
        <time>2026-08-29T08:57:06Z</time>
      </trkpt>
      <trkpt lat="50.664844047278166" lon="13.313285345211625">
        <ele>481</ele>
        <time>2026-08-29T08:57:07Z</time>
      </trkpt>
      <trkpt lat="50.664843376725912" lon="13.313283668830991">
        <ele>481</ele>
        <time>2026-08-29T08:57:08Z</time>
      </trkpt>
      <trkpt lat="50.66484278999269" lon="13.313279813155532">
        <ele>481</ele>
        <time>2026-08-29T08:57:09Z</time>
      </trkpt>
      <trkpt lat="50.66484278999269" lon="13.31327578984201">
        <ele>481</ele>
        <time>2026-08-29T08:57:10Z</time>
      </trkpt>
      <trkpt lat="50.664843879640102" lon="13.313274700194597">
        <ele>481</ele>
        <time>2026-08-29T08:57:11Z</time>
      </trkpt>
      <trkpt lat="50.664844801649451" lon="13.313276041299105">
        <ele>481</ele>
        <time>2026-08-29T08:57:12Z</time>
      </trkpt>
      <trkpt lat="50.664844801649451" lon="13.313276125118136">
        <ele>481</ele>
        <time>2026-08-29T08:57:13Z</time>
      </trkpt>
      <trkpt lat="50.664844131097198" lon="13.313275622203946">
        <ele>481</ele>
        <time>2026-08-29T08:57:14Z</time>
      </trkpt>
      <trkpt lat="50.664844047278166" lon="13.313274700194597">
        <ele>481</ele>
        <time>2026-08-29T08:57:15Z</time>
      </trkpt>
      <trkpt lat="50.664844047278166" lon="13.313274700194597">
        <ele>481</ele>
        <time>2026-08-29T08:57:16Z</time>
      </trkpt>
      <trkpt lat="50.664844047278166" lon="13.313274616375566">
        <ele>481</ele>
        <time>2026-08-29T08:57:17Z</time>
      </trkpt>
      <trkpt lat="50.664844047278166" lon="13.313274532556534">
        <ele>481</ele>
        <time>2026-08-29T08:57:18Z</time>
      </trkpt>
      <trkpt lat="50.664844047278166" lon="13.313274532556534">
        <ele>481</ele>
        <time>2026-08-29T08:57:19Z</time>
      </trkpt>
      <trkpt lat="50.664844047278166" lon="13.313274616375566">
        <ele>481</ele>
        <time>2026-08-29T08:57:20Z</time>
      </trkpt>
      <trkpt lat="50.664844047278166" lon="13.313274616375566">
        <ele>481</ele>
        <time>2026-08-29T08:57:21Z</time>
      </trkpt>
      <trkpt lat="50.664845136925578" lon="13.313272101804614">
        <ele>481</ele>
        <time>2026-08-29T08:57:22Z</time>
      </trkpt>
      <trkpt lat="50.664846980944276" lon="13.313266737386584">
        <ele>481</ele>
        <time>2026-08-29T08:57:23Z</time>
      </trkpt>
      <trkpt lat="50.66484329290688" lon="13.313251314684749">
        <ele>481</ele>
        <time>2026-08-29T08:57:24Z</time>
      </trkpt>
      <trkpt lat="50.66484035924077" lon="13.313235808163881">
        <ele>481</ele>
        <time>2026-08-29T08:57:25Z</time>
      </trkpt>
      <trkpt lat="50.664837341755629" lon="13.313215943053365">
        <ele>481</ele>
        <time>2026-08-29T08:57:26Z</time>
      </trkpt>
      <trkpt lat="50.664839101955295" lon="13.313177637755871">
        <ele>481</ele>
        <time>2026-08-29T08:57:27Z</time>
      </trkpt>
      <trkpt lat="50.664835413917899" lon="13.313147714361548">
        <ele>481</ele>
        <time>2026-08-29T08:57:28Z</time>
      </trkpt>
      <trkpt lat="50.664835330098867" lon="13.313116449862719">
        <ele>481</ele>
        <time>2026-08-29T08:57:29Z</time>
      </trkpt>
      <trkpt lat="50.664835078641772" lon="13.313078228384256">
        <ele>481</ele>
        <time>2026-08-29T08:57:30Z</time>
      </trkpt>
      <trkpt lat="50.664834408089519" lon="13.313037157058716">
        <ele>481</ele>
        <time>2026-08-29T08:57:31Z</time>
      </trkpt>
      <trkpt lat="50.66483449190855" lon="13.312982590869069">
        <ele>481</ele>
        <time>2026-08-29T08:57:32Z</time>
      </trkpt>
      <trkpt lat="50.664839269593358" lon="13.312933221459389">
        <ele>481</ele>
        <time>2026-08-29T08:57:33Z</time>
      </trkpt>
      <trkpt lat="50.664843041449785" lon="13.312876895070076">
        <ele>480</ele>
        <time>2026-08-29T08:57:34Z</time>
      </trkpt>
      <trkpt lat="50.664847232401371" lon="13.31282090395689">
        <ele>480</ele>
        <time>2026-08-29T08:57:35Z</time>
      </trkpt>
      <trkpt lat="50.664855362847447" lon="13.312766253948212">
        <ele>480</ele>
        <time>2026-08-29T08:57:36Z</time>
      </trkpt>
      <trkpt lat="50.664863577112556" lon="13.312714621424675">
        <ele>480</ele>
        <time>2026-08-29T08:57:37Z</time>
      </trkpt>
      <trkpt lat="50.664866846054792" lon="13.312655612826347">
        <ele>480</ele>
        <time>2026-08-29T08:57:38Z</time>
      </trkpt>
      <trkpt lat="50.664873383939266" lon="13.312594424933195">
        <ele>480</ele>
        <time>2026-08-29T08:57:39Z</time>
      </trkpt>
      <trkpt lat="50.664872378110886" lon="13.312521167099476">
        <ele>480</ele>
        <time>2026-08-29T08:57:40Z</time>
      </trkpt>
      <trkpt lat="50.664875395596027" lon="13.312464840710163">
        <ele>480</ele>
        <time>2026-08-29T08:57:41Z</time>
      </trkpt>
      <trkpt lat="50.664878748357296" lon="13.312399629503489">
        <ele>479</ele>
        <time>2026-08-29T08:57:42Z</time>
      </trkpt>
      <trkpt lat="50.664888639003038" lon="13.31233081407845">
        <ele>479</ele>
        <time>2026-08-29T08:57:43Z</time>
      </trkpt>
      <trkpt lat="50.664890231564641" lon="13.312257807701826">
        <ele>479</ele>
        <time>2026-08-29T08:57:44Z</time>
      </trkpt>
      <trkpt lat="50.664892075583339" lon="13.312174659222364">
        <ele>479</ele>
        <time>2026-08-29T08:57:45Z</time>
      </trkpt>
      <trkpt lat="50.664898529648781" lon="13.312096707522869">
        <ele>478</ele>
        <time>2026-08-29T08:57:46Z</time>
      </trkpt>
      <trkpt lat="50.664900708943605" lon="13.312020683661103">
        <ele>479</ele>
        <time>2026-08-29T08:57:47Z</time>
      </trkpt>
      <trkpt lat="50.664902469143271" lon="13.311931248754263">
        <ele>479</ele>
        <time>2026-08-29T08:57:48Z</time>
      </trkpt>
      <trkpt lat="50.66490238532424" lon="13.311841310933232">
        <ele>479</ele>
        <time>2026-08-29T08:57:49Z</time>
      </trkpt>
      <trkpt lat="50.664911437779665" lon="13.311757072806358">
        <ele>479</ele>
        <time>2026-08-29T08:57:50Z</time>
      </trkpt>
      <trkpt lat="50.664921412244439" lon="13.311669984832406">
        <ele>480</ele>
        <time>2026-08-29T08:57:51Z</time>
      </trkpt>
      <trkpt lat="50.664933398365974" lon="13.311579376459122">
        <ele>479</ele>
        <time>2026-08-29T08:57:52Z</time>
      </trkpt>
      <trkpt lat="50.664942618459463" lon="13.311492707580328">
        <ele>479</ele>
        <time>2026-08-29T08:57:53Z</time>
      </trkpt>
      <trkpt lat="50.664949240162969" lon="13.311402266845107">
        <ele>480</ele>
        <time>2026-08-29T08:57:54Z</time>
      </trkpt>
      <trkpt lat="50.664958460256457" lon="13.311302186921239">
        <ele>480</ele>
        <time>2026-08-29T08:57:55Z</time>
      </trkpt>
      <trkpt lat="50.664966758340597" lon="13.311202609911561">
        <ele>480</ele>
        <time>2026-08-29T08:57:56Z</time>
      </trkpt>
      <trkpt lat="50.664975978434086" lon="13.311117785051465">
        <ele>480</ele>
        <time>2026-08-29T08:57:57Z</time>
      </trkpt>
      <trkpt lat="50.664981259033084" lon="13.311021728441119">
        <ele>480</ele>
        <time>2026-08-29T08:57:58Z</time>
      </trkpt>
      <trkpt lat="50.664990479126573" lon="13.310920810326934">
        <ele>480</ele>
        <time>2026-08-29T08:57:59Z</time>
      </trkpt>
      <trkpt lat="50.664995172992349" lon="13.310826513916254">
        <ele>480</ele>
        <time>2026-08-29T08:58:00Z</time>
      </trkpt>
      <trkpt lat="50.665009757503867" lon="13.310720315203071">
        <ele>480</ele>
        <time>2026-08-29T08:58:01Z</time>
      </trkpt>
      <trkpt lat="50.665017468854785" lon="13.310624929144979">
        <ele>480</ele>
        <time>2026-08-29T08:58:02Z</time>
      </trkpt>
      <trkpt lat="50.665024258196354" lon="13.310527196153998">
        <ele>479</ele>
        <time>2026-08-29T08:58:03Z</time>
      </trkpt>
      <trkpt lat="50.665034148842096" lon="13.310431810095906">
        <ele>479</ele>
        <time>2026-08-29T08:58:04Z</time>
      </trkpt>
      <trkpt lat="50.66504118964076" lon="13.310333322733641">
        <ele>479</ele>
        <time>2026-08-29T08:58:05Z</time>
      </trkpt>
      <trkpt lat="50.665049990639091" lon="13.310237433761358">
        <ele>479</ele>
        <time>2026-08-29T08:58:06Z</time>
      </trkpt>
      <trkpt lat="50.665060132741928" lon="13.310139868408442">
        <ele>479</ele>
        <time>2026-08-29T08:58:07Z</time>
      </trkpt>
      <trkpt lat="50.665074549615383" lon="13.310053534805775">
        <ele>478</ele>
        <time>2026-08-29T08:58:08Z</time>
      </trkpt>
      <trkpt lat="50.665076812729239" lon="13.309963932260871">
        <ele>478</ele>
        <time>2026-08-29T08:58:09Z</time>
      </trkpt>
      <trkpt lat="50.665077148005366" lon="13.309873742982745">
        <ele>478</ele>
        <time>2026-08-29T08:58:10Z</time>
      </trkpt>
      <trkpt lat="50.66508024930954" lon="13.309778943657875">
        <ele>478</ele>
        <time>2026-08-29T08:58:11Z</time>
      </trkpt>
      <trkpt lat="50.665089888498187" lon="13.309693783521652">
        <ele>478</ele>
        <time>2026-08-29T08:58:12Z</time>
      </trkpt>
      <trkpt lat="50.66510371863842" lon="13.309598146006465">
        <ele>478</ele>
        <time>2026-08-29T08:58:13Z</time>
      </trkpt>
      <trkpt lat="50.665121572092175" lon="13.309513488784432">
        <ele>479</ele>
        <time>2026-08-29T08:58:14Z</time>
      </trkpt>
      <trkpt lat="50.665139090269804" lon="13.309439225122333">
        <ele>479</ele>
        <time>2026-08-29T08:58:15Z</time>
      </trkpt>
      <trkpt lat="50.665151998400688" lon="13.30936387181282">
        <ele>479</ele>
        <time>2026-08-29T08:58:16Z</time>
      </trkpt>
      <trkpt lat="50.665167504921556" lon="13.309289943426847">
        <ele>478</ele>
        <time>2026-08-29T08:58:17Z</time>
      </trkpt>
      <trkpt lat="50.665185526013374" lon="13.30921676941216">
        <ele>478</ele>
        <time>2026-08-29T08:58:18Z</time>
      </trkpt>
      <trkpt lat="50.665209330618382" lon="13.309148289263248">
        <ele>478</ele>
        <time>2026-08-29T08:58:19Z</time>
      </trkpt>
      <trkpt lat="50.665227938443422" lon="13.309078216552734">
        <ele>478</ele>
        <time>2026-08-29T08:58:20Z</time>
      </trkpt>
      <trkpt lat="50.665237326174974" lon="13.309005796909332">
        <ele>478</ele>
        <time>2026-08-29T08:58:21Z</time>
      </trkpt>
      <trkpt lat="50.665256101638079" lon="13.308932622894645">
        <ele>478</ele>
        <time>2026-08-29T08:58:22Z</time>
      </trkpt>
      <trkpt lat="50.665274374186993" lon="13.308859951794147">
        <ele>478</ele>
        <time>2026-08-29T08:58:23Z</time>
      </trkpt>
      <trkpt lat="50.665297340601683" lon="13.308800272643566">
        <ele>477</ele>
        <time>2026-08-29T08:58:24Z</time>
      </trkpt>
      <trkpt lat="50.665314020588994" lon="13.308731876313686">
        <ele>477</ele>
        <time>2026-08-29T08:58:25Z</time>
      </trkpt>
      <trkpt lat="50.665323911234736" lon="13.308655517175794">
        <ele>477</ele>
        <time>2026-08-29T08:58:26Z</time>
      </trkpt>
      <trkpt lat="50.66533287987113" lon="13.30858594737947">
        <ele>477</ele>
        <time>2026-08-29T08:58:27Z</time>
      </trkpt>
      <trkpt lat="50.665348805487156" lon="13.308514868840575">
        <ele>477</ele>
        <time>2026-08-29T08:58:28Z</time>
      </trkpt>
      <trkpt lat="50.665365653112531" lon="13.308439096435905">
        <ele>477</ele>
        <time>2026-08-29T08:58:29Z</time>
      </trkpt>
      <trkpt lat="50.665384931489825" lon="13.308368353173137">
        <ele>477</ele>
        <time>2026-08-29T08:58:30Z</time>
      </trkpt>
      <trkpt lat="50.665403120219707" lon="13.308298783376813">
        <ele>477</ele>
        <time>2026-08-29T08:58:31Z</time>
      </trkpt>
      <trkpt lat="50.665414938703179" lon="13.308233823627234">
        <ele>478</ele>
        <time>2026-08-29T08:58:32Z</time>
      </trkpt>
      <trkpt lat="50.665426338091493" lon="13.308169702067971">
        <ele>477</ele>
        <time>2026-08-29T08:58:33Z</time>
      </trkpt>
      <trkpt lat="50.665433378890157" lon="13.308109352365136">
        <ele>477</ele>
        <time>2026-08-29T08:58:34Z</time>
      </trkpt>
      <trkpt lat="50.665444023907185" lon="13.308043470606208">
        <ele>477</ele>
        <time>2026-08-29T08:58:35Z</time>
      </trkpt>
      <trkpt lat="50.665458608418703" lon="13.307977002114058">
        <ele>477</ele>
        <time>2026-08-29T08:58:36Z</time>
      </trkpt>
      <trkpt lat="50.665469756349921" lon="13.30791162326932">
        <ele>477</ele>
        <time>2026-08-29T08:58:37Z</time>
      </trkpt>
      <trkpt lat="50.665483167394996" lon="13.307853117585182">
        <ele>477</ele>
        <time>2026-08-29T08:58:38Z</time>
      </trkpt>
      <trkpt lat="50.665500350296497" lon="13.307799473404884">
        <ele>477</ele>
        <time>2026-08-29T08:58:39Z</time>
      </trkpt>
      <trkpt lat="50.665520299226046" lon="13.307750606909394">
        <ele>477</ele>
        <time>2026-08-29T08:58:40Z</time>
      </trkpt>
      <trkpt lat="50.665541002526879" lon="13.30771179869771">
        <ele>478</ele>
        <time>2026-08-29T08:58:41Z</time>
      </trkpt>
      <trkpt lat="50.665560029447079" lon="13.307677851989865">
        <ele>477</ele>
        <time>2026-08-29T08:58:42Z</time>
      </trkpt>
      <trkpt lat="50.665582660585642" lon="13.30764046870172">
        <ele>478</ele>
        <time>2026-08-29T08:58:43Z</time>
      </trkpt>
      <trkpt lat="50.665601519867778" lon="13.307597050443292">
        <ele>478</ele>
        <time>2026-08-29T08:58:44Z</time>
      </trkpt>
      <trkpt lat="50.665630688890815" lon="13.307546088472009">
        <ele>478</ele>
        <time>2026-08-29T08:58:45Z</time>
      </trkpt>
      <trkpt lat="50.665660109370947" lon="13.307489762082696">
        <ele>479</ele>
        <time>2026-08-29T08:58:46Z</time>
      </trkpt>
      <trkpt lat="50.665693636983633" lon="13.307428574189544">
        <ele>479</ele>
        <time>2026-08-29T08:58:47Z</time>
      </trkpt>
      <trkpt lat="50.665728840976954" lon="13.307373840361834">
        <ele>479</ele>
        <time>2026-08-29T08:58:48Z</time>
      </trkpt>
      <trkpt lat="50.665759518742561" lon="13.307313155382872">
        <ele>479</ele>
        <time>2026-08-29T08:58:49Z</time>
      </trkpt>
      <trkpt lat="50.665792878717184" lon="13.307251548394561">
        <ele>479</ele>
        <time>2026-08-29T08:58:50Z</time>
      </trkpt>
      <trkpt lat="50.665828669443727" lon="13.307176614180207">
        <ele>478</ele>
        <time>2026-08-29T08:58:51Z</time>
      </trkpt>
      <trkpt lat="50.665865717455745" lon="13.307108134031296">
        <ele>478</ele>
        <time>2026-08-29T08:58:52Z</time>
      </trkpt>
      <trkpt lat="50.665898909792304" lon="13.30703848041594">
        <ele>477</ele>
        <time>2026-08-29T08:58:53Z</time>
      </trkpt>
      <trkpt lat="50.665933778509498" lon="13.306963294744492">
        <ele>477</ele>
        <time>2026-08-29T08:58:54Z</time>
      </trkpt>
      <trkpt lat="50.665969988331199" lon="13.306884337216616">
        <ele>476</ele>
        <time>2026-08-29T08:58:55Z</time>
      </trkpt>
      <trkpt lat="50.66600083373487" lon="13.306812336668372">
        <ele>476</ele>
        <time>2026-08-29T08:58:56Z</time>
      </trkpt>
      <trkpt lat="50.666037127375603" lon="13.306742766872048">
        <ele>476</ele>
        <time>2026-08-29T08:58:57Z</time>
      </trkpt>
      <trkpt lat="50.666065877303481" lon="13.306663809344172">
        <ele>476</ele>
        <time>2026-08-29T08:58:58Z</time>
      </trkpt>
      <trkpt lat="50.66609320230782" lon="13.306581079959869">
        <ele>475</ele>
        <time>2026-08-29T08:58:59Z</time>
      </trkpt>
      <trkpt lat="50.66611616872251" lon="13.306489549577236">
        <ele>475</ele>
        <time>2026-08-29T08:59:00Z</time>
      </trkpt>
      <trkpt lat="50.666134860366583" lon="13.306398605927825">
        <ele>475</ele>
        <time>2026-08-29T08:59:01Z</time>
      </trkpt>
      <trkpt lat="50.666156820952892" lon="13.306297855451703">
        <ele>475</ele>
        <time>2026-08-29T08:59:02Z</time>
      </trkpt>
      <trkpt lat="50.666168471798301" lon="13.306208252906799">
        <ele>475</ele>
        <time>2026-08-29T08:59:03Z</time>
      </trkpt>
      <trkpt lat="50.666174842044711" lon="13.306113118305802">
        <ele>475</ele>
        <time>2026-08-29T08:59:04Z</time>
      </trkpt>
      <trkpt lat="50.666173920035362" lon="13.306005327031016">
        <ele>475</ele>
        <time>2026-08-29T08:59:05Z</time>
      </trkpt>
      <trkpt lat="50.666158329695463" lon="13.305900972336531">
        <ele>474</ele>
        <time>2026-08-29T08:59:06Z</time>
      </trkpt>
      <trkpt lat="50.666143577545881" lon="13.305796114727855">
        <ele>474</ele>
        <time>2026-08-29T08:59:07Z</time>
      </trkpt>
      <trkpt lat="50.666135530918837" lon="13.305705171078444">
        <ele>473</ele>
        <time>2026-08-29T08:59:08Z</time>
      </trkpt>
      <trkpt lat="50.666132345795631" lon="13.305602995678782">
        <ele>473</ele>
        <time>2026-08-29T08:59:09Z</time>
      </trkpt>
      <trkpt lat="50.666124634444714" lon="13.305504340678453">
        <ele>473</ele>
        <time>2026-08-29T08:59:10Z</time>
      </trkpt>
      <trkpt lat="50.666117928922176" lon="13.305407613515854">
        <ele>474</ele>
        <time>2026-08-29T08:59:11Z</time>
      </trkpt>
      <trkpt lat="50.666118431836367" lon="13.305311724543571">
        <ele>475</ele>
        <time>2026-08-29T08:59:12Z</time>
      </trkpt>
      <trkpt lat="50.666124802082777" lon="13.305211393162608">
        <ele>475</ele>
        <time>2026-08-29T08:59:13Z</time>
      </trkpt>
      <trkpt lat="50.666125640273094" lon="13.305113073438406">
        <ele>475</ele>
        <time>2026-08-29T08:59:14Z</time>
      </trkpt>
      <trkpt lat="50.666131759062409" lon="13.305016765370965">
        <ele>475</ele>
        <time>2026-08-29T08:59:15Z</time>
      </trkpt>
      <trkpt lat="50.66614206880331" lon="13.304910315200686">
        <ele>474</ele>
        <time>2026-08-29T08:59:16Z</time>
      </trkpt>
      <trkpt lat="50.666153049096465" lon="13.304805792868137">
        <ele>474</ele>
        <time>2026-08-29T08:59:17Z</time>
      </trkpt>
      <trkpt lat="50.666160257533193" lon="13.304699929431081">
        <ele>474</ele>
        <time>2026-08-29T08:59:18Z</time>
      </trkpt>
      <trkpt lat="50.666171908378601" lon="13.304594988003373">
        <ele>474</ele>
        <time>2026-08-29T08:59:19Z</time>
      </trkpt>
      <trkpt lat="50.666194707155228" lon="13.3044985961169">
        <ele>474</ele>
        <time>2026-08-29T08:59:20Z</time>
      </trkpt>
      <trkpt lat="50.66621633246541" lon="13.304402539506555">
        <ele>474</ele>
        <time>2026-08-29T08:59:21Z</time>
      </trkpt>
      <trkpt lat="50.666234856471419" lon="13.304301872849464">
        <ele>475</ele>
        <time>2026-08-29T08:59:22Z</time>
      </trkpt>
      <trkpt lat="50.66625933162868" lon="13.304213443771005">
        <ele>475</ele>
        <time>2026-08-29T08:59:23Z</time>
      </trkpt>
      <trkpt lat="50.66628129221499" lon="13.304116129875183">
        <ele>475</ele>
        <time>2026-08-29T08:59:24Z</time>
      </trkpt>
      <trkpt lat="50.666305683553219" lon="13.304014960303903">
        <ele>474</ele>
        <time>2026-08-29T08:59:25Z</time>
      </trkpt>
      <trkpt lat="50.666331751272082" lon="13.303918987512589">
        <ele>475</ele>
        <time>2026-08-29T08:59:26Z</time>
      </trkpt>
      <trkpt lat="50.666363351047039" lon="13.303808933123946">
        <ele>474</ele>
        <time>2026-08-29T08:59:27Z</time>
      </trkpt>
      <trkpt lat="50.666404757648706" lon="13.303718576207757">
        <ele>474</ele>
        <time>2026-08-29T08:59:28Z</time>
      </trkpt>
      <trkpt lat="50.666449349373579" lon="13.303637523204088">
        <ele>474</ele>
        <time>2026-08-29T08:59:29Z</time>
      </trkpt>
      <trkpt lat="50.666499556973577" lon="13.303562672808766">
        <ele>474</ele>
        <time>2026-08-29T08:59:30Z</time>
      </trkpt>
      <trkpt lat="50.666550602763891" lon="13.303476506844163">
        <ele>475</ele>
        <time>2026-08-29T08:59:31Z</time>
      </trkpt>
      <trkpt lat="50.666602486744523" lon="13.30339327454567">
        <ele>475</ele>
        <time>2026-08-29T08:59:32Z</time>
      </trkpt>
      <trkpt lat="50.666646491736174" lon="13.303315071389079">
        <ele>475</ele>
        <time>2026-08-29T08:59:33Z</time>
      </trkpt>
      <trkpt lat="50.666699381545186" lon="13.303232509642839">
        <ele>475</ele>
        <time>2026-08-29T08:59:34Z</time>
      </trkpt>
      <trkpt lat="50.666748331859708" lon="13.303158329799771">
        <ele>475</ele>
        <time>2026-08-29T08:59:35Z</time>
      </trkpt>
      <trkpt lat="50.666797617450356" lon="13.303084233775735">
        <ele>476</ele>
        <time>2026-08-29T08:59:36Z</time>
      </trkpt>
      <trkpt lat="50.666854614391923" lon="13.303006030619144">
        <ele>475</ele>
        <time>2026-08-29T08:59:37Z</time>
      </trkpt>
      <trkpt lat="50.666909348219633" lon="13.302932186052203">
        <ele>475</ele>
        <time>2026-08-29T08:59:38Z</time>
      </trkpt>
      <trkpt lat="50.66695561632514" lon="13.302853731438518">
        <ele>475</ele>
        <time>2026-08-29T08:59:39Z</time>
      </trkpt>
      <trkpt lat="50.667004147544503" lon="13.302775612100959">
        <ele>476</ele>
        <time>2026-08-29T08:59:40Z</time>
      </trkpt>
      <trkpt lat="50.667050583288074" lon="13.302702689543366">
        <ele>476</ele>
        <time>2026-08-29T08:59:41Z</time>
      </trkpt>
      <trkpt lat="50.667103640735149" lon="13.302627420052886">
        <ele>477</ele>
        <time>2026-08-29T08:59:42Z</time>
      </trkpt>
      <trkpt lat="50.667150998488069" lon="13.302551312372088">
        <ele>477</ele>
        <time>2026-08-29T08:59:43Z</time>
      </trkpt>
      <trkpt lat="50.667201960459352" lon="13.302479144185781">
        <ele>477</ele>
        <time>2026-08-29T08:59:44Z</time>
      </trkpt>
      <trkpt lat="50.66726197488606" lon="13.302417872473598">
        <ele>477</ele>
        <time>2026-08-29T08:59:45Z</time>
      </trkpt>
      <trkpt lat="50.667336322367191" lon="13.302406305447221">
        <ele>477</ele>
        <time>2026-08-29T08:59:46Z</time>
      </trkpt>
      <trkpt lat="50.667402371764183" lon="13.302405718713999">
        <ele>477</ele>
        <time>2026-08-29T08:59:47Z</time>
      </trkpt>
      <trkpt lat="50.667464230209589" lon="13.302415357902646">
        <ele>477</ele>
        <time>2026-08-29T08:59:48Z</time>
      </trkpt>
      <trkpt lat="50.667531620711088" lon="13.302423907443881">
        <ele>476</ele>
        <time>2026-08-29T08:59:49Z</time>
      </trkpt>
      <trkpt lat="50.667589791119099" lon="13.30241410061717">
        <ele>476</ele>
        <time>2026-08-29T08:59:50Z</time>
      </trkpt>
      <trkpt lat="50.667646788060665" lon="13.302378142252564">
        <ele>476</ele>
        <time>2026-08-29T08:59:51Z</time>
      </trkpt>
      <trkpt lat="50.667699929326773" lon="13.302301447838545">
        <ele>476</ele>
        <time>2026-08-29T08:59:52Z</time>
      </trkpt>
      <trkpt lat="50.667733540758491" lon="13.302226848900318">
        <ele>476</ele>
        <time>2026-08-29T08:59:53Z</time>
      </trkpt>
      <trkpt lat="50.667766397818923" lon="13.302148226648569">
        <ele>476</ele>
        <time>2026-08-29T08:59:54Z</time>
      </trkpt>
      <trkpt lat="50.667805792763829" lon="13.302084440365434">
        <ele>476</ele>
        <time>2026-08-29T08:59:55Z</time>
      </trkpt>
      <trkpt lat="50.667850552126765" lon="13.302028113976121">
        <ele>477</ele>
        <time>2026-08-29T08:59:56Z</time>
      </trkpt>
      <trkpt lat="50.667896820232272" lon="13.30198897048831">
        <ele>477</ele>
        <time>2026-08-29T08:59:57Z</time>
      </trkpt>
      <trkpt lat="50.667940489947796" lon="13.301940523087978">
        <ele>477</ele>
        <time>2026-08-29T08:59:58Z</time>
      </trkpt>
      <trkpt lat="50.667975191026926" lon="13.301904061809182">
        <ele>477</ele>
        <time>2026-08-29T08:59:59Z</time>
      </trkpt>
      <trkpt lat="50.668009808287024" lon="13.30184530466795">
        <ele>477</ele>
        <time>2026-08-29T09:00:00Z</time>
      </trkpt>
      <trkpt lat="50.668045682832599" lon="13.301789900287986">
        <ele>477</ele>
        <time>2026-08-29T09:00:01Z</time>
      </trkpt>
      <trkpt lat="50.668080132454634" lon="13.301735166460276">
        <ele>476</ele>
        <time>2026-08-29T09:00:02Z</time>
      </trkpt>
      <trkpt lat="50.668110977858305" lon="13.301677582785487">
        <ele>477</ele>
        <time>2026-08-29T09:00:03Z</time>
      </trkpt>
      <trkpt lat="50.668140398338437" lon="13.301619412377477">
        <ele>476</ele>
        <time>2026-08-29T09:00:04Z</time>
      </trkpt>
      <trkpt lat="50.668167471885681" lon="13.301553027704358">
        <ele>475</ele>
        <time>2026-08-29T09:00:05Z</time>
      </trkpt>
      <trkpt lat="50.668195048347116" lon="13.30149251036346">
        <ele>475</ele>
        <time>2026-08-29T09:00:06Z</time>
      </trkpt>
      <trkpt lat="50.66823142580688" lon="13.301433082669973">
        <ele>475</ele>
        <time>2026-08-29T09:00:07Z</time>
      </trkpt>
      <trkpt lat="50.668267300352454" lon="13.301373403519392">
        <ele>475</ele>
        <time>2026-08-29T09:00:08Z</time>
      </trkpt>
      <trkpt lat="50.668299738317728" lon="13.301330488175154">
        <ele>476</ele>
        <time>2026-08-29T09:00:09Z</time>
      </trkpt>
      <trkpt lat="50.668335109949112" lon="13.301283968612552">
        <ele>477</ele>
        <time>2026-08-29T09:00:10Z</time>
      </trkpt>
      <trkpt lat="50.668370565399528" lon="13.301229570060968">
        <ele>476</ele>
        <time>2026-08-29T09:00:11Z</time>
      </trkpt>
      <trkpt lat="50.668394789099693" lon="13.301173327490687">
        <ele>477</ele>
        <time>2026-08-29T09:00:12Z</time>
      </trkpt>
      <trkpt lat="50.668413229286671" lon="13.301119767129421">
        <ele>477</ele>
        <time>2026-08-29T09:00:13Z</time>
      </trkpt>
      <trkpt lat="50.668424209579825" lon="13.301073331385851">
        <ele>477</ele>
        <time>2026-08-29T09:00:14Z</time>
      </trkpt>
      <trkpt lat="50.668430663645267" lon="13.301036367192864">
        <ele>477</ele>
        <time>2026-08-29T09:00:15Z</time>
      </trkpt>
      <trkpt lat="50.668431082740426" lon="13.300997139886022">
        <ele>477</ele>
        <time>2026-08-29T09:00:16Z</time>
      </trkpt>
      <trkpt lat="50.668424209579825" lon="13.300965121015906">
        <ele>476</ele>
        <time>2026-08-29T09:00:17Z</time>
      </trkpt>
      <trkpt lat="50.668424041941762" lon="13.300918098539114">
        <ele>476</ele>
        <time>2026-08-29T09:00:18Z</time>
      </trkpt>
      <trkpt lat="50.668430915102363" lon="13.300862861797214">
        <ele>476</ele>
        <time>2026-08-29T09:00:19Z</time>
      </trkpt>
      <trkpt lat="50.668444158509374" lon="13.300808882340789">
        <ele>476</ele>
        <time>2026-08-29T09:00:20Z</time>
      </trkpt>
      <trkpt lat="50.668470142409205" lon="13.300756411626935">
        <ele>476</ele>
        <time>2026-08-29T09:00:21Z</time>
      </trkpt>
      <trkpt lat="50.668509369716048" lon="13.300707042217255">
        <ele>475</ele>
        <time>2026-08-29T09:00:22Z</time>
      </trkpt>
      <trkpt lat="50.668547004461288" lon="13.300677537918091">
        <ele>476</ele>
        <time>2026-08-29T09:00:23Z</time>
      </trkpt>
      <trkpt lat="50.668590841814876" lon="13.300635879859328">
        <ele>476</ele>
        <time>2026-08-29T09:00:24Z</time>
      </trkpt>
      <trkpt lat="50.668627638369799" lon="13.300588438287377">
        <ele>476</ele>
        <time>2026-08-29T09:00:25Z</time>
      </trkpt>
      <trkpt lat="50.668679270893335" lon="13.300538649782538">
        <ele>476</ele>
        <time>2026-08-29T09:00:26Z</time>
      </trkpt>
      <trkpt lat="50.668721850961447" lon="13.300489280372858">
        <ele>476</ele>
        <time>2026-08-29T09:00:27Z</time>
      </trkpt>
      <trkpt lat="50.668771304190159" lon="13.30044150352478">
        <ele>477</ele>
        <time>2026-08-29T09:00:28Z</time>
      </trkpt>
      <trkpt lat="50.668821511790156" lon="13.300384841859341">
        <ele>477</ele>
        <time>2026-08-29T09:00:29Z</time>
      </trkpt>
      <trkpt lat="50.668869959190488" lon="13.300342932343483">
        <ele>477</ele>
        <time>2026-08-29T09:00:30Z</time>
      </trkpt>
      <trkpt lat="50.668928381055593" lon="13.300299514085054">
        <ele>477</ele>
        <time>2026-08-29T09:00:31Z</time>
      </trkpt>
      <trkpt lat="50.668982611969113" lon="13.300263052806258">
        <ele>476</ele>
        <time>2026-08-29T09:00:32Z</time>
      </trkpt>
      <trkpt lat="50.669031394645572" lon="13.300218293443322">
        <ele>476</ele>
        <time>2026-08-29T09:00:33Z</time>
      </trkpt>
      <trkpt lat="50.669079758226871" lon="13.300167331472039">
        <ele>476</ele>
        <time>2026-08-29T09:00:34Z</time>
      </trkpt>
      <trkpt lat="50.669116051867604" lon="13.30010337755084">
        <ele>476</ele>
        <time>2026-08-29T09:00:35Z</time>
      </trkpt>
      <trkpt lat="50.669162152335048" lon="13.300032047554851">
        <ele>476</ele>
        <time>2026-08-29T09:00:36Z</time>
      </trkpt>
      <trkpt lat="50.669204480946064" lon="13.299954598769546">
        <ele>476</ele>
        <time>2026-08-29T09:00:37Z</time>
      </trkpt>
      <trkpt lat="50.669247144833207" lon="13.29988687299192">
        <ele>476</ele>
        <time>2026-08-29T09:00:38Z</time>
      </trkpt>
      <trkpt lat="50.669292658567429" lon="13.299822583794594">
        <ele>476</ele>
        <time>2026-08-29T09:00:39Z</time>
      </trkpt>
      <trkpt lat="50.66933523863554" lon="13.299756953492761">
        <ele>476</ele>
        <time>2026-08-29T09:00:40Z</time>
      </trkpt>
      <trkpt lat="50.669378908351064" lon="13.29969928599894">
        <ele>476</ele>
        <time>2026-08-29T09:00:41Z</time>
      </trkpt>
      <trkpt lat="50.669422410428524" lon="13.299630302935839">
        <ele>476</ele>
        <time>2026-08-29T09:00:42Z</time>
      </trkpt>
      <trkpt lat="50.669460212811828" lon="13.299558889120817">
        <ele>476</ele>
        <time>2026-08-29T09:00:43Z</time>
      </trkpt>
      <trkpt lat="50.669493991881609" lon="13.299492420628667">
        <ele>476</ele>
        <time>2026-08-29T09:00:44Z</time>
      </trkpt>
      <trkpt lat="50.669531626626849" lon="13.299437602981925">
        <ele>475</ele>
        <time>2026-08-29T09:00:45Z</time>
      </trkpt>
      <trkpt lat="50.669571524485946" lon="13.299380941316485">
        <ele>476</ele>
        <time>2026-08-29T09:00:46Z</time>
      </trkpt>
      <trkpt lat="50.669606560841203" lon="13.299323441460729">
        <ele>475</ele>
        <time>2026-08-29T09:00:47Z</time>
      </trkpt>
      <trkpt lat="50.669640088453889" lon="13.299266612157226">
        <ele>475</ele>
        <time>2026-08-29T09:00:48Z</time>
      </trkpt>
      <trkpt lat="50.669675711542368" lon="13.299213303253055">
        <ele>476</ele>
        <time>2026-08-29T09:00:49Z</time>
      </trkpt>
      <trkpt lat="50.669716112315655" lon="13.299156809225678">
        <ele>476</ele>
        <time>2026-08-29T09:00:50Z</time>
      </trkpt>
      <trkpt lat="50.669750729575753" lon="13.299098135903478">
        <ele>476</ele>
        <time>2026-08-29T09:00:51Z</time>
      </trkpt>
      <trkpt lat="50.669787861406803" lon="13.299049101769924">
        <ele>476</ele>
        <time>2026-08-29T09:00:52Z</time>
      </trkpt>
      <trkpt lat="50.66981895826757" lon="13.299002666026354">
        <ele>476</ele>
        <time>2026-08-29T09:00:53Z</time>
      </trkpt>
      <trkpt lat="50.669850641861558" lon="13.298953883349895">
        <ele>476</ele>
        <time>2026-08-29T09:00:54Z</time>
      </trkpt>
      <trkpt lat="50.66988592967391" lon="13.298908872529864">
        <ele>476</ele>
        <time>2026-08-29T09:00:55Z</time>
      </trkpt>
      <trkpt lat="50.669916439801455" lon="13.298872243613005">
        <ele>476</ele>
        <time>2026-08-29T09:00:56Z</time>
      </trkpt>
      <trkpt lat="50.669949129223824" lon="13.298834273591638">
        <ele>476</ele>
        <time>2026-08-29T09:00:57Z</time>
      </trkpt>
      <trkpt lat="50.669979639351368" lon="13.298795549198985">
        <ele>476</ele>
        <time>2026-08-29T09:00:58Z</time>
      </trkpt>
      <trkpt lat="50.670011825859547" lon="13.298759255558252">
        <ele>476</ele>
        <time>2026-08-29T09:00:59Z</time>
      </trkpt>
      <trkpt lat="50.670040408149362" lon="13.298728577792645">
        <ele>476</ele>
        <time>2026-08-29T09:01:00Z</time>
      </trkpt>
      <trkpt lat="50.67006865516305" lon="13.298698989674449">
        <ele>476</ele>
        <time>2026-08-29T09:01:01Z</time>
      </trkpt>
      <trkpt lat="50.670095812529325" lon="13.298660349100828">
        <ele>476</ele>
        <time>2026-08-29T09:01:02Z</time>
      </trkpt>
      <trkpt lat="50.670119533315301" lon="13.298623468726873">
        <ele>476</ele>
        <time>2026-08-29T09:01:03Z</time>
      </trkpt>
      <trkpt lat="50.670143170282245" lon="13.298586755990982">
        <ele>476</ele>
        <time>2026-08-29T09:01:04Z</time>
      </trkpt>
      <trkpt lat="50.67016638815403" lon="13.298555742949247">
        <ele>476</ele>
        <time>2026-08-29T09:01:05Z</time>
      </trkpt>
      <trkpt lat="50.670186001807451" lon="13.298523556441069">
        <ele>476</ele>
        <time>2026-08-29T09:01:06Z</time>
      </trkpt>
      <trkpt lat="50.670201424509287" lon="13.298498494550586">
        <ele>476</ele>
        <time>2026-08-29T09:01:07Z</time>
      </trkpt>
      <trkpt lat="50.670221289619803" lon="13.29848256893456">
        <ele>477</ele>
        <time>2026-08-29T09:01:08Z</time>
      </trkpt>
      <trkpt lat="50.67023771815002" lon="13.298471923917532">
        <ele>477</ele>
        <time>2026-08-29T09:01:09Z</time>
      </trkpt>
      <trkpt lat="50.670253140851855" lon="13.298463206738234">
        <ele>477</ele>
        <time>2026-08-29T09:01:10Z</time>
      </trkpt>
      <trkpt lat="50.670260097831488" lon="13.298462452366948">
        <ele>477</ele>
        <time>2026-08-29T09:01:11Z</time>
      </trkpt>
      <trkpt lat="50.670265965163708" lon="13.298456585034728">
        <ele>477</ele>
        <time>2026-08-29T09:01:12Z</time>
      </trkpt>
      <trkpt lat="50.670263702049851" lon="13.298463458195329">
        <ele>477</ele>
        <time>2026-08-29T09:01:13Z</time>
      </trkpt>
      <trkpt lat="50.670264037325978" lon="13.298463374376297">
        <ele>477</ele>
        <time>2026-08-29T09:01:14Z</time>
      </trkpt>
      <trkpt lat="50.67026655189693" lon="13.298469493165612">
        <ele>477</ele>
        <time>2026-08-29T09:01:15Z</time>
      </trkpt>
      <trkpt lat="50.670266719534993" lon="13.298469157889485">
        <ele>477</ele>
        <time>2026-08-29T09:01:16Z</time>
      </trkpt>
      <trkpt lat="50.670267138630152" lon="13.298469074070454">
        <ele>477</ele>
        <time>2026-08-29T09:01:17Z</time>
      </trkpt>
      <trkpt lat="50.670267138630152" lon="13.298469074070454">
        <ele>477</ele>
        <time>2026-08-29T09:01:18Z</time>
      </trkpt>
      <trkpt lat="50.670267138630152" lon="13.298469074070454">
        <ele>477</ele>
        <time>2026-08-29T09:01:19Z</time>
      </trkpt>
      <trkpt lat="50.670267138630152" lon="13.298469074070454">
        <ele>477</ele>
        <time>2026-08-29T09:01:20Z</time>
      </trkpt>
      <trkpt lat="50.670267138630152" lon="13.298469074070454">
        <ele>477</ele>
        <time>2026-08-29T09:01:21Z</time>
      </trkpt>
      <trkpt lat="50.670267138630152" lon="13.298469074070454">
        <ele>477</ele>
        <time>2026-08-29T09:01:22Z</time>
      </trkpt>
      <trkpt lat="50.670267138630152" lon="13.298469074070454">
        <ele>477</ele>
        <time>2026-08-29T09:01:23Z</time>
      </trkpt>
      <trkpt lat="50.670267138630152" lon="13.298469074070454">
        <ele>477</ele>
        <time>2026-08-29T09:01:24Z</time>
      </trkpt>
      <trkpt lat="50.670267138630152" lon="13.298469074070454">
        <ele>477</ele>
        <time>2026-08-29T09:01:25Z</time>
      </trkpt>
      <trkpt lat="50.670268312096596" lon="13.298469493165612">
        <ele>477</ele>
        <time>2026-08-29T09:01:26Z</time>
      </trkpt>
      <trkpt lat="50.670269401744008" lon="13.298470415174961">
        <ele>477</ele>
        <time>2026-08-29T09:01:27Z</time>
      </trkpt>
      <trkpt lat="50.67027049139142" lon="13.298471253365278">
        <ele>477</ele>
        <time>2026-08-29T09:01:28Z</time>
      </trkpt>
      <trkpt lat="50.670271832495928" lon="13.298470498993993">
        <ele>477</ele>
        <time>2026-08-29T09:01:29Z</time>
      </trkpt>
      <trkpt lat="50.670271748676896" lon="13.298470498993993">
        <ele>477</ele>
        <time>2026-08-29T09:01:30Z</time>
      </trkpt>
      <trkpt lat="50.670271581038833" lon="13.298470498993993">
        <ele>477</ele>
        <time>2026-08-29T09:01:31Z</time>
      </trkpt>
      <trkpt lat="50.670271581038833" lon="13.298470498993993">
        <ele>477</ele>
        <time>2026-08-29T09:01:32Z</time>
      </trkpt>
      <trkpt lat="50.670271581038833" lon="13.298470498993993">
        <ele>477</ele>
        <time>2026-08-29T09:01:33Z</time>
      </trkpt>
      <trkpt lat="50.670271581038833" lon="13.29847083427012">
        <ele>477</ele>
        <time>2026-08-29T09:01:34Z</time>
      </trkpt>
      <trkpt lat="50.670272503048182" lon="13.298472594469786">
        <ele>477</ele>
        <time>2026-08-29T09:01:35Z</time>
      </trkpt>
      <trkpt lat="50.670274179428816" lon="13.298472175374627">
        <ele>477</ele>
        <time>2026-08-29T09:01:36Z</time>
      </trkpt>
      <trkpt lat="50.670276107266545" lon="13.298472007736564">
        <ele>477</ele>
        <time>2026-08-29T09:01:37Z</time>
      </trkpt>
      <trkpt lat="50.670276861637831" lon="13.298472007736564">
        <ele>477</ele>
        <time>2026-08-29T09:01:38Z</time>
      </trkpt>
      <trkpt lat="50.670276693999767" lon="13.298472091555595">
        <ele>477</ele>
        <time>2026-08-29T09:01:39Z</time>
      </trkpt>
      <trkpt lat="50.670276442542672" lon="13.298472175374627">
        <ele>477</ele>
        <time>2026-08-29T09:01:40Z</time>
      </trkpt>
      <trkpt lat="50.67027635872364" lon="13.298472175374627">
        <ele>477</ele>
        <time>2026-08-29T09:01:41Z</time>
      </trkpt>
      <trkpt lat="50.67027635872364" lon="13.298472007736564">
        <ele>477</ele>
        <time>2026-08-29T09:01:42Z</time>
      </trkpt>
      <trkpt lat="50.67027635872364" lon="13.298472007736564">
        <ele>477</ele>
        <time>2026-08-29T09:01:43Z</time>
      </trkpt>
      <trkpt lat="50.67027635872364" lon="13.298472007736564">
        <ele>477</ele>
        <time>2026-08-29T09:01:44Z</time>
      </trkpt>
      <trkpt lat="50.67027635872364" lon="13.2984718400985">
        <ele>477</ele>
        <time>2026-08-29T09:01:45Z</time>
      </trkpt>
      <trkpt lat="50.67027484998107" lon="13.298470247536898">
        <ele>477</ele>
        <time>2026-08-29T09:01:46Z</time>
      </trkpt>
      <trkpt lat="50.67027484998107" lon="13.298470247536898">
        <ele>477</ele>
        <time>2026-08-29T09:01:47Z</time>
      </trkpt>
      <trkpt lat="50.670274766162038" lon="13.298470247536898">
        <ele>477</ele>
        <time>2026-08-29T09:01:48Z</time>
      </trkpt>
      <trkpt lat="50.670274682343006" lon="13.298470247536898">
        <ele>477</ele>
        <time>2026-08-29T09:01:49Z</time>
      </trkpt>
      <trkpt lat="50.670274682343006" lon="13.298470247536898">
        <ele>477</ele>
        <time>2026-08-29T09:01:50Z</time>
      </trkpt>
      <trkpt lat="50.670274682343006" lon="13.298470247536898">
        <ele>477</ele>
        <time>2026-08-29T09:01:51Z</time>
      </trkpt>
      <trkpt lat="50.670275101438165" lon="13.298470163717866">
        <ele>477</ele>
        <time>2026-08-29T09:01:52Z</time>
      </trkpt>
      <trkpt lat="50.670276107266545" lon="13.298468487337232">
        <ele>477</ele>
        <time>2026-08-29T09:01:53Z</time>
      </trkpt>
      <trkpt lat="50.670278454199433" lon="13.298466224223375">
        <ele>477</ele>
        <time>2026-08-29T09:01:54Z</time>
      </trkpt>
      <trkpt lat="50.670280130580068" lon="13.2984649669379">
        <ele>477</ele>
        <time>2026-08-29T09:01:55Z</time>
      </trkpt>
      <trkpt lat="50.670280884951353" lon="13.298462200909853">
        <ele>477</ele>
        <time>2026-08-29T09:01:56Z</time>
      </trkpt>
      <trkpt lat="50.670282812789083" lon="13.298461781814694">
        <ele>476</ele>
        <time>2026-08-29T09:01:57Z</time>
      </trkpt>
      <trkpt lat="50.670284740626812" lon="13.298461278900504">
        <ele>476</ele>
        <time>2026-08-29T09:01:58Z</time>
      </trkpt>
      <trkpt lat="50.67028415389359" lon="13.298458261415362">
        <ele>476</ele>
        <time>2026-08-29T09:01:59Z</time>
      </trkpt>
      <trkpt lat="50.670284572988749" lon="13.29845960251987">
        <ele>477</ele>
        <time>2026-08-29T09:02:00Z</time>
      </trkpt>
      <trkpt lat="50.670285662636161" lon="13.298457423225045">
        <ele>476</ele>
        <time>2026-08-29T09:02:01Z</time>
      </trkpt>
      <trkpt lat="50.670286668464541" lon="13.298446862027049">
        <ele>476</ele>
        <time>2026-08-29T09:02:02Z</time>
      </trkpt>
      <trkpt lat="50.670286500826478" lon="13.298446610569954">
        <ele>476</ele>
        <time>2026-08-29T09:02:03Z</time>
      </trkpt>
      <trkpt lat="50.670286668464541" lon="13.29844644293189">
        <ele>476</ele>
        <time>2026-08-29T09:02:04Z</time>
      </trkpt>
      <trkpt lat="50.670286668464541" lon="13.298446862027049">
        <ele>476</ele>
        <time>2026-08-29T09:02:05Z</time>
      </trkpt>
      <trkpt lat="50.670286668464541" lon="13.298446526750922">
        <ele>476</ele>
        <time>2026-08-29T09:02:06Z</time>
      </trkpt>
      <trkpt lat="50.670286668464541" lon="13.29844644293189">
        <ele>476</ele>
        <time>2026-08-29T09:02:07Z</time>
      </trkpt>
      <trkpt lat="50.670286668464541" lon="13.29844644293189">
        <ele>476</ele>
        <time>2026-08-29T09:02:08Z</time>
      </trkpt>
      <trkpt lat="50.670286668464541" lon="13.29844644293189">
        <ele>476</ele>
        <time>2026-08-29T09:02:09Z</time>
      </trkpt>
      <trkpt lat="50.670286668464541" lon="13.29844644293189">
        <ele>476</ele>
        <time>2026-08-29T09:02:10Z</time>
      </trkpt>
      <trkpt lat="50.670286668464541" lon="13.29844644293189">
        <ele>476</ele>
        <time>2026-08-29T09:02:11Z</time>
      </trkpt>
      <trkpt lat="50.670286668464541" lon="13.29844644293189">
        <ele>476</ele>
        <time>2026-08-29T09:02:12Z</time>
      </trkpt>
      <trkpt lat="50.670286668464541" lon="13.29844644293189">
        <ele>476</ele>
        <time>2026-08-29T09:02:13Z</time>
      </trkpt>
      <trkpt lat="50.670286668464541" lon="13.29844644293189">
        <ele>476</ele>
        <time>2026-08-29T09:02:14Z</time>
      </trkpt>
      <trkpt lat="50.670286668464541" lon="13.29844644293189">
        <ele>476</ele>
        <time>2026-08-29T09:02:15Z</time>
      </trkpt>
      <trkpt lat="50.670286668464541" lon="13.29844644293189">
        <ele>476</ele>
        <time>2026-08-29T09:02:16Z</time>
      </trkpt>
      <trkpt lat="50.670286668464541" lon="13.29844644293189">
        <ele>476</ele>
        <time>2026-08-29T09:02:17Z</time>
      </trkpt>
      <trkpt lat="50.670286668464541" lon="13.29844644293189">
        <ele>476</ele>
        <time>2026-08-29T09:02:18Z</time>
      </trkpt>
      <trkpt lat="50.670286668464541" lon="13.29844644293189">
        <ele>476</ele>
        <time>2026-08-29T09:02:19Z</time>
      </trkpt>
      <trkpt lat="50.670286668464541" lon="13.29844644293189">
        <ele>476</ele>
        <time>2026-08-29T09:02:20Z</time>
      </trkpt>
      <trkpt lat="50.670286668464541" lon="13.29844644293189">
        <ele>476</ele>
        <time>2026-08-29T09:02:21Z</time>
      </trkpt>
      <trkpt lat="50.670286668464541" lon="13.29844644293189">
        <ele>476</ele>
        <time>2026-08-29T09:02:22Z</time>
      </trkpt>
      <trkpt lat="50.670286668464541" lon="13.29844644293189">
        <ele>476</ele>
        <time>2026-08-29T09:02:23Z</time>
      </trkpt>
      <trkpt lat="50.670286668464541" lon="13.29844644293189">
        <ele>476</ele>
        <time>2026-08-29T09:02:24Z</time>
      </trkpt>
      <trkpt lat="50.670286668464541" lon="13.29844644293189">
        <ele>476</ele>
        <time>2026-08-29T09:02:25Z</time>
      </trkpt>
      <trkpt lat="50.670286668464541" lon="13.29844644293189">
        <ele>476</ele>
        <time>2026-08-29T09:02:26Z</time>
      </trkpt>
      <trkpt lat="50.670286668464541" lon="13.29844644293189">
        <ele>476</ele>
        <time>2026-08-29T09:02:27Z</time>
      </trkpt>
      <trkpt lat="50.670286668464541" lon="13.29844644293189">
        <ele>476</ele>
        <time>2026-08-29T09:02:28Z</time>
      </trkpt>
      <trkpt lat="50.670286668464541" lon="13.29844644293189">
        <ele>476</ele>
        <time>2026-08-29T09:02:29Z</time>
      </trkpt>
      <trkpt lat="50.670286668464541" lon="13.29844644293189">
        <ele>476</ele>
        <time>2026-08-29T09:02:30Z</time>
      </trkpt>
      <trkpt lat="50.670286668464541" lon="13.29844644293189">
        <ele>476</ele>
        <time>2026-08-29T09:02:31Z</time>
      </trkpt>
      <trkpt lat="50.670286668464541" lon="13.29844644293189">
        <ele>476</ele>
        <time>2026-08-29T09:02:32Z</time>
      </trkpt>
      <trkpt lat="50.670286668464541" lon="13.29844644293189">
        <ele>476</ele>
        <time>2026-08-29T09:02:33Z</time>
      </trkpt>
      <trkpt lat="50.670286668464541" lon="13.29844644293189">
        <ele>476</ele>
        <time>2026-08-29T09:02:34Z</time>
      </trkpt>
      <trkpt lat="50.670286668464541" lon="13.29844644293189">
        <ele>476</ele>
        <time>2026-08-29T09:02:35Z</time>
      </trkpt>
      <trkpt lat="50.670286668464541" lon="13.29844644293189">
        <ele>476</ele>
        <time>2026-08-29T09:02:36Z</time>
      </trkpt>
      <trkpt lat="50.670286668464541" lon="13.29844644293189">
        <ele>476</ele>
        <time>2026-08-29T09:02:37Z</time>
      </trkpt>
      <trkpt lat="50.670286249369383" lon="13.298445772379637">
        <ele>476</ele>
        <time>2026-08-29T09:02:38Z</time>
      </trkpt>
      <trkpt lat="50.670286081731319" lon="13.2984459400177">
        <ele>476</ele>
        <time>2026-08-29T09:02:39Z</time>
      </trkpt>
      <trkpt lat="50.670286249369383" lon="13.298446694388986">
        <ele>476</ele>
        <time>2026-08-29T09:02:40Z</time>
      </trkpt>
      <trkpt lat="50.67028951831162" lon="13.298443676903844">
        <ele>476</ele>
        <time>2026-08-29T09:02:41Z</time>
      </trkpt>
      <trkpt lat="50.670294798910618" lon="13.298433367162943">
        <ele>476</ele>
        <time>2026-08-29T09:02:42Z</time>
      </trkpt>
      <trkpt lat="50.670300498604774" lon="13.298422051593661">
        <ele>477</ele>
        <time>2026-08-29T09:02:43Z</time>
      </trkpt>
      <trkpt lat="50.670306030660868" lon="13.298404114320874">
        <ele>477</ele>
        <time>2026-08-29T09:02:44Z</time>
      </trkpt>
      <trkpt lat="50.670312317088246" lon="13.29838047735393">
        <ele>477</ele>
        <time>2026-08-29T09:02:45Z</time>
      </trkpt>
      <trkpt lat="50.670314496383071" lon="13.298343932256103">
        <ele>476</ele>
        <time>2026-08-29T09:02:46Z</time>
      </trkpt>
      <trkpt lat="50.67031935788691" lon="13.298306129872799">
        <ele>476</ele>
        <time>2026-08-29T09:02:47Z</time>
      </trkpt>
      <trkpt lat="50.670330924913287" lon="13.298268914222717">
        <ele>476</ele>
        <time>2026-08-29T09:02:48Z</time>
      </trkpt>
      <trkpt lat="50.670340899378061" lon="13.298239996656775">
        <ele>476</ele>
        <time>2026-08-29T09:02:49Z</time>
      </trkpt>
      <trkpt lat="50.670349448919296" lon="13.298210157081485">
        <ele>476</ele>
        <time>2026-08-29T09:02:50Z</time>
      </trkpt>
      <trkpt lat="50.670357579365373" lon="13.298178892582655">
        <ele>476</ele>
        <time>2026-08-29T09:02:51Z</time>
      </trkpt>
      <trkpt lat="50.67036772146821" lon="13.298145616427064">
        <ele>476</ele>
        <time>2026-08-29T09:02:52Z</time>
      </trkpt>
      <trkpt lat="50.670379288494587" lon="13.298107478767633">
        <ele>476</ele>
        <time>2026-08-29T09:02:53Z</time>
      </trkpt>
      <trkpt lat="50.670390520244837" lon="13.298071771860123">
        <ele>476</ele>
        <time>2026-08-29T09:02:54Z</time>
      </trkpt>
      <trkpt lat="50.670405691489577" lon="13.298029527068138">
        <ele>476</ele>
        <time>2026-08-29T09:02:55Z</time>
      </trkpt>
      <trkpt lat="50.670420611277223" lon="13.297989964485168">
        <ele>476</ele>
        <time>2026-08-29T09:02:56Z</time>
      </trkpt>
      <trkpt lat="50.670437542721629" lon="13.297941600903869">
        <ele>476</ele>
        <time>2026-08-29T09:02:57Z</time>
      </trkpt>
      <trkpt lat="50.670453468337655" lon="13.297902541235089">
        <ele>476</ele>
        <time>2026-08-29T09:02:58Z</time>
      </trkpt>
      <trkpt lat="50.670470148324966" lon="13.29786934889853">
        <ele>477</ele>
        <time>2026-08-29T09:02:59Z</time>
      </trkpt>
      <trkpt lat="50.670482888817787" lon="13.297825511544943">
        <ele>476</ele>
        <time>2026-08-29T09:03:00Z</time>
      </trkpt>
      <trkpt lat="50.67049864679575" lon="13.297785278409719">
        <ele>476</ele>
        <time>2026-08-29T09:03:01Z</time>
      </trkpt>
      <trkpt lat="50.670508537441492" lon="13.297752002254128">
        <ele>476</ele>
        <time>2026-08-29T09:03:02Z</time>
      </trkpt>
      <trkpt lat="50.670521864667535" lon="13.297714032232761">
        <ele>476</ele>
        <time>2026-08-29T09:03:03Z</time>
      </trkpt>
      <trkpt lat="50.670535359531641" lon="13.297675391659141">
        <ele>476</ele>
        <time>2026-08-29T09:03:04Z</time>
      </trkpt>
      <trkpt lat="50.670547680929303" lon="13.297630380839109">
        <ele>476</ele>
        <time>2026-08-29T09:03:05Z</time>
      </trkpt>
      <trkpt lat="50.670562600716949" lon="13.297588722780347">
        <ele>476</ele>
        <time>2026-08-29T09:03:06Z</time>
      </trkpt>
      <trkpt lat="50.670580789446831" lon="13.297547902911901">
        <ele>476</ele>
        <time>2026-08-29T09:03:07Z</time>
      </trkpt>
      <trkpt lat="50.670600570738316" lon="13.297504233196378">
        <ele>475</ele>
        <time>2026-08-29T09:03:08Z</time>
      </trkpt>
      <trkpt lat="50.670615071430802" lon="13.297460898756981">
        <ele>475</ele>
        <time>2026-08-29T09:03:09Z</time>
      </trkpt>
      <trkpt lat="50.670629488304257" lon="13.29741295427084">
        <ele>475</ele>
        <time>2026-08-29T09:03:10Z</time>
      </trkpt>
      <trkpt lat="50.670642228797078" lon="13.297366267070174">
        <ele>475</ele>
        <time>2026-08-29T09:03:11Z</time>
      </trkpt>
      <trkpt lat="50.670654801651835" lon="13.29731865786016">
        <ele>475</ele>
        <time>2026-08-29T09:03:12Z</time>
      </trkpt>
      <trkpt lat="50.670668799430132" lon="13.29727272503078">
        <ele>475</ele>
        <time>2026-08-29T09:03:13Z</time>
      </trkpt>
      <trkpt lat="50.670678438618779" lon="13.297224612906575">
        <ele>475</ele>
        <time>2026-08-29T09:03:14Z</time>
      </trkpt>
      <trkpt lat="50.670691849663854" lon="13.297171806916595">
        <ele>474</ele>
        <time>2026-08-29T09:03:15Z</time>
      </trkpt>
      <trkpt lat="50.670704087242484" lon="13.297120593488216">
        <ele>474</ele>
        <time>2026-08-29T09:03:16Z</time>
      </trkpt>
      <trkpt lat="50.670715989544988" lon="13.297070804983377">
        <ele>474</ele>
        <time>2026-08-29T09:03:17Z</time>
      </trkpt>
      <trkpt lat="50.670723952353001" lon="13.297016825526953">
        <ele>474</ele>
        <time>2026-08-29T09:03:18Z</time>
      </trkpt>
      <trkpt lat="50.670733340084553" lon="13.29696100205183">
        <ele>474</ele>
        <time>2026-08-29T09:03:19Z</time>
      </trkpt>
      <trkpt lat="50.670743566006422" lon="13.296912219375372">
        <ele>474</ele>
        <time>2026-08-29T09:03:20Z</time>
      </trkpt>
      <trkpt lat="50.670752534642816" lon="13.296856982633471">
        <ele>474</ele>
        <time>2026-08-29T09:03:21Z</time>
      </trkpt>
      <trkpt lat="50.67075764760375" lon="13.296804009005427">
        <ele>475</ele>
        <time>2026-08-29T09:03:22Z</time>
      </trkpt>
      <trkpt lat="50.670768208801746" lon="13.296754974871874">
        <ele>475</ele>
        <time>2026-08-29T09:03:23Z</time>
      </trkpt>
      <trkpt lat="50.670775668695569" lon="13.296699402853847">
        <ele>475</ele>
        <time>2026-08-29T09:03:24Z</time>
      </trkpt>
      <trkpt lat="50.670787570998073" lon="13.296641232445836">
        <ele>474</ele>
        <time>2026-08-29T09:03:25Z</time>
      </trkpt>
      <trkpt lat="50.670799221843481" lon="13.29658716917038">
        <ele>474</ele>
        <time>2026-08-29T09:03:26Z</time>
      </trkpt>
      <trkpt lat="50.670808609575033" lon="13.296525478363037">
        <ele>474</ele>
        <time>2026-08-29T09:03:27Z</time>
      </trkpt>
      <trkpt lat="50.670817829668522" lon="13.296466553583741">
        <ele>474</ele>
        <time>2026-08-29T09:03:28Z</time>
      </trkpt>
      <trkpt lat="50.670833168551326" lon="13.29640788026154">
        <ele>473</ele>
        <time>2026-08-29T09:03:29Z</time>
      </trkpt>
      <trkpt lat="50.670848591253161" lon="13.296352894976735">
        <ele>473</ele>
        <time>2026-08-29T09:03:30Z</time>
      </trkpt>
      <trkpt lat="50.670859236270189" lon="13.29629891552031">
        <ele>474</ele>
        <time>2026-08-29T09:03:31Z</time>
      </trkpt>
      <trkpt lat="50.670871138572693" lon="13.296245187520981">
        <ele>474</ele>
        <time>2026-08-29T09:03:32Z</time>
      </trkpt>
      <trkpt lat="50.670883879065514" lon="13.296190453693271">
        <ele>474</ele>
        <time>2026-08-29T09:03:33Z</time>
      </trkpt>
      <trkpt lat="50.670896200463176" lon="13.296137312427163">
        <ele>474</ele>
        <time>2026-08-29T09:03:34Z</time>
      </trkpt>
      <trkpt lat="50.670909024775028" lon="13.296088948845863">
        <ele>473</ele>
        <time>2026-08-29T09:03:35Z</time>
      </trkpt>
      <trkpt lat="50.670918663963675" lon="13.296033628284931">
        <ele>473</ele>
        <time>2026-08-29T09:03:36Z</time>
      </trkpt>
      <trkpt lat="50.67093207500875" lon="13.295977218076587">
        <ele>473</ele>
        <time>2026-08-29T09:03:37Z</time>
      </trkpt>
      <trkpt lat="50.67094380967319" lon="13.295927597209811">
        <ele>473</ele>
        <time>2026-08-29T09:03:38Z</time>
      </trkpt>
      <trkpt lat="50.67095504142344" lon="13.295869342982769">
        <ele>473</ele>
        <time>2026-08-29T09:03:39Z</time>
      </trkpt>
      <trkpt lat="50.670964177697897" lon="13.295814022421837">
        <ele>473</ele>
        <time>2026-08-29T09:03:40Z</time>
      </trkpt>
      <trkpt lat="50.670976499095559" lon="13.295754259452224">
        <ele>472</ele>
        <time>2026-08-29T09:03:41Z</time>
      </trkpt>
      <trkpt lat="50.670985467731953" lon="13.295694496482611">
        <ele>473</ele>
        <time>2026-08-29T09:03:42Z</time>
      </trkpt>
      <trkpt lat="50.670992508530617" lon="13.295638421550393">
        <ele>473</ele>
        <time>2026-08-29T09:03:43Z</time>
      </trkpt>
      <trkpt lat="50.671004159376025" lon="13.295582765713334">
        <ele>473</ele>
        <time>2026-08-29T09:03:44Z</time>
      </trkpt>
      <trkpt lat="50.671012541279197" lon="13.295532055199146">
        <ele>473</ele>
        <time>2026-08-29T09:03:45Z</time>
      </trkpt>
      <trkpt lat="50.671019330620766" lon="13.29548385925591">
        <ele>473</ele>
        <time>2026-08-29T09:03:46Z</time>
      </trkpt>
      <trkpt lat="50.671023689210415" lon="13.295438848435879">
        <ele>473</ele>
        <time>2026-08-29T09:03:47Z</time>
      </trkpt>
      <trkpt lat="50.67103031091392" lon="13.295394759625196">
        <ele>473</ele>
        <time>2026-08-29T09:03:48Z</time>
      </trkpt>
      <trkpt lat="50.671035340055823" lon="13.295346228405833">
        <ele>473</ele>
        <time>2026-08-29T09:03:49Z</time>
      </trkpt>
      <trkpt lat="50.67104103974998" lon="13.295295517891645">
        <ele>473</ele>
        <time>2026-08-29T09:03:50Z</time>
      </trkpt>
      <trkpt lat="50.671047326177359" lon="13.29524396918714">
        <ele>473</ele>
        <time>2026-08-29T09:03:51Z</time>
      </trkpt>
      <trkpt lat="50.671053361147642" lon="13.295189486816525">
        <ele>472</ele>
        <time>2026-08-29T09:03:52Z</time>
      </trkpt>
      <trkpt lat="50.671066688373685" lon="13.295133830979466">
        <ele>473</ele>
        <time>2026-08-29T09:03:53Z</time>
      </trkpt>
      <trkpt lat="50.671080434694886" lon="13.295078426599503">
        <ele>473</ele>
        <time>2026-08-29T09:03:54Z</time>
      </trkpt>
      <trkpt lat="50.671093091368675" lon="13.295036600902677">
        <ele>473</ele>
        <time>2026-08-29T09:03:55Z</time>
      </trkpt>
      <trkpt lat="50.671105831861496" lon="13.294989494606853">
        <ele>473</ele>
        <time>2026-08-29T09:03:56Z</time>
      </trkpt>
      <trkpt lat="50.671120416373014" lon="13.29494783654809">
        <ele>473</ele>
        <time>2026-08-29T09:03:57Z</time>
      </trkpt>
      <trkpt lat="50.671133743599057" lon="13.294912213459611">
        <ele>472</ele>
        <time>2026-08-29T09:03:58Z</time>
      </trkpt>
      <trkpt lat="50.671147322282195" lon="13.294876422733068">
        <ele>473</ele>
        <time>2026-08-29T09:03:59Z</time>
      </trkpt>
      <trkpt lat="50.671159811317921" lon="13.294844655320048">
        <ele>473</ele>
        <time>2026-08-29T09:04:00Z</time>
      </trkpt>
      <trkpt lat="50.671171378344297" lon="13.294811546802521">
        <ele>472</ele>
        <time>2026-08-29T09:04:01Z</time>
      </trkpt>
      <trkpt lat="50.671184537932277" lon="13.294780030846596">
        <ele>472</ele>
        <time>2026-08-29T09:04:02Z</time>
      </trkpt>
      <trkpt lat="50.671197865158319" lon="13.294748850166798">
        <ele>473</ele>
        <time>2026-08-29T09:04:03Z</time>
      </trkpt>
      <trkpt lat="50.671211862936616" lon="13.29472160898149">
        <ele>473</ele>
        <time>2026-08-29T09:04:04Z</time>
      </trkpt>
      <trkpt lat="50.671228291466832" lon="13.294701157137752">
        <ele>473</ele>
        <time>2026-08-29T09:04:05Z</time>
      </trkpt>
      <trkpt lat="50.671245809644461" lon="13.294669557362795">
        <ele>472</ele>
        <time>2026-08-29T09:04:06Z</time>
      </trkpt>
      <trkpt lat="50.671260310336947" lon="13.294640555977821">
        <ele>472</ele>
        <time>2026-08-29T09:04:07Z</time>
      </trkpt>
      <trkpt lat="50.671274391934276" lon="13.294606190174818">
        <ele>472</ele>
        <time>2026-08-29T09:04:08Z</time>
      </trkpt>
      <trkpt lat="50.671288138255477" lon="13.294564364477992">
        <ele>473</ele>
        <time>2026-08-29T09:04:09Z</time>
      </trkpt>
      <trkpt lat="50.671303980052471" lon="13.294523963704705">
        <ele>473</ele>
        <time>2026-08-29T09:04:10Z</time>
      </trkpt>
      <trkpt lat="50.671324348077178" lon="13.294485826045275">
        <ele>472</ele>
        <time>2026-08-29T09:04:11Z</time>
      </trkpt>
      <trkpt lat="50.671344716101885" lon="13.294442910701036">
        <ele>472</ele>
        <time>2026-08-29T09:04:12Z</time>
      </trkpt>
      <trkpt lat="50.671364245936275" lon="13.294401671737432">
        <ele>472</ele>
        <time>2026-08-29T09:04:13Z</time>
      </trkpt>
      <trkpt lat="50.671385619789362" lon="13.294358840212226">
        <ele>472</ele>
        <time>2026-08-29T09:04:14Z</time>
      </trkpt>
      <trkpt lat="50.671404646709561" lon="13.294308967888355">
        <ele>472</ele>
        <time>2026-08-29T09:04:15Z</time>
      </trkpt>
      <trkpt lat="50.6714250985533" lon="13.294261861592531">
        <ele>472</ele>
        <time>2026-08-29T09:04:16Z</time>
      </trkpt>
      <trkpt lat="50.671442281454802" lon="13.294222801923752">
        <ele>473</ele>
        <time>2026-08-29T09:04:17Z</time>
      </trkpt>
      <trkpt lat="50.671463822945952" lon="13.294180724769831">
        <ele>473</ele>
        <time>2026-08-29T09:04:18Z</time>
      </trkpt>
      <trkpt lat="50.671484358608723" lon="13.294140910729766">
        <ele>474</ele>
        <time>2026-08-29T09:04:19Z</time>
      </trkpt>
      <trkpt lat="50.671502966433764" lon="13.294099001213908">
        <ele>473</ele>
        <time>2026-08-29T09:04:20Z</time>
      </trkpt>
      <trkpt lat="50.671520736068487" lon="13.294054744765162">
        <ele>474</ele>
        <time>2026-08-29T09:04:21Z</time>
      </trkpt>
      <trkpt lat="50.671540098264813" lon="13.294008811935782">
        <ele>474</ele>
        <time>2026-08-29T09:04:22Z</time>
      </trkpt>
      <trkpt lat="50.671560969203711" lon="13.293964555487037">
        <ele>474</ele>
        <time>2026-08-29T09:04:23Z</time>
      </trkpt>
      <trkpt lat="50.671578906476498" lon="13.293918203562498">
        <ele>473</ele>
        <time>2026-08-29T09:04:24Z</time>
      </trkpt>
      <trkpt lat="50.671595670282841" lon="13.29388115555048">
        <ele>473</ele>
        <time>2026-08-29T09:04:25Z</time>
      </trkpt>
      <trkpt lat="50.671612685546279" lon="13.293838743120432">
        <ele>473</ele>
        <time>2026-08-29T09:04:26Z</time>
      </trkpt>
      <trkpt lat="50.671628611162305" lon="13.293795492500067">
        <ele>473</ele>
        <time>2026-08-29T09:04:27Z</time>
      </trkpt>
      <trkpt lat="50.671641351655126" lon="13.293755510821939">
        <ele>473</ele>
        <time>2026-08-29T09:04:28Z</time>
      </trkpt>
      <trkpt lat="50.671655768528581" lon="13.293713517487049">
        <ele>472</ele>
        <time>2026-08-29T09:04:29Z</time>
      </trkpt>
      <trkpt lat="50.671667419373989" lon="13.293669763952494">
        <ele>472</ele>
        <time>2026-08-29T09:04:30Z</time>
      </trkpt>
      <trkpt lat="50.671680578961968" lon="13.293624753132463">
        <ele>472</ele>
        <time>2026-08-29T09:04:31Z</time>
      </trkpt>
      <trkpt lat="50.671690721064806" lon="13.293573874980211">
        <ele>472</ele>
        <time>2026-08-29T09:04:32Z</time>
      </trkpt>
      <trkpt lat="50.671698683872819" lon="13.293528696522117">
        <ele>471</ele>
        <time>2026-08-29T09:04:33Z</time>
      </trkpt>
      <trkpt lat="50.671708071604371" lon="13.293480416759849">
        <ele>471</ele>
        <time>2026-08-29T09:04:34Z</time>
      </trkpt>
      <trkpt lat="50.671716537326574" lon="13.293436830863357">
        <ele>471</ele>
        <time>2026-08-29T09:04:35Z</time>
      </trkpt>
      <trkpt lat="50.67172315903008" lon="13.293390898033977">
        <ele>472</ele>
        <time>2026-08-29T09:04:36Z</time>
      </trkpt>
      <trkpt lat="50.671729110181332" lon="13.293346390128136">
        <ele>472</ele>
        <time>2026-08-29T09:04:37Z</time>
      </trkpt>
      <trkpt lat="50.671734055504203" lon="13.293305486440659">
        <ele>471</ele>
        <time>2026-08-29T09:04:38Z</time>
      </trkpt>
      <trkpt lat="50.671741431578994" lon="13.293260391801596">
        <ele>471</ele>
        <time>2026-08-29T09:04:39Z</time>
      </trkpt>
      <trkpt lat="50.671748975291848" lon="13.293213285505772">
        <ele>471</ele>
        <time>2026-08-29T09:04:40Z</time>
      </trkpt>
      <trkpt lat="50.671756099909544" lon="13.293166514486074">
        <ele>471</ele>
        <time>2026-08-29T09:04:41Z</time>
      </trkpt>
      <trkpt lat="50.671764984726906" lon="13.293117312714458">
        <ele>471</ele>
        <time>2026-08-29T09:04:42Z</time>
      </trkpt>
      <trkpt lat="50.671774121001363" lon="13.293074648827314">
        <ele>471</ele>
        <time>2026-08-29T09:04:43Z</time>
      </trkpt>
      <trkpt lat="50.671782251447439" lon="13.293030643835664">
        <ele>471</ele>
        <time>2026-08-29T09:04:44Z</time>
      </trkpt>
      <trkpt lat="50.671786610037088" lon="13.292990159243345">
        <ele>471</ele>
        <time>2026-08-29T09:04:45Z</time>
      </trkpt>
      <trkpt lat="50.671796500682831" lon="13.292955039069057">
        <ele>471</ele>
        <time>2026-08-29T09:04:46Z</time>
      </trkpt>
      <trkpt lat="50.671805050224066" lon="13.292918242514133">
        <ele>471</ele>
        <time>2026-08-29T09:04:47Z</time>
      </trkpt>
      <trkpt lat="50.671813767403364" lon="13.292881613597274">
        <ele>471</ele>
        <time>2026-08-29T09:04:48Z</time>
      </trkpt>
      <trkpt lat="50.671822316944599" lon="13.292849510908127">
        <ele>471</ele>
        <time>2026-08-29T09:04:49Z</time>
      </trkpt>
      <trkpt lat="50.671831704676151" lon="13.292819168418646">
        <ele>471</ele>
        <time>2026-08-29T09:04:50Z</time>
      </trkpt>
      <trkpt lat="50.671843606978655" lon="13.292788155376911">
        <ele>471</ele>
        <time>2026-08-29T09:04:51Z</time>
      </trkpt>
      <trkpt lat="50.671855844557285" lon="13.292755885049701">
        <ele>471</ele>
        <time>2026-08-29T09:04:52Z</time>
      </trkpt>
      <trkpt lat="50.671867830678821" lon="13.292730320245028">
        <ele>472</ele>
        <time>2026-08-29T09:04:53Z</time>
      </trkpt>
      <trkpt lat="50.671880654990673" lon="13.292715987190604">
        <ele>472</ele>
        <time>2026-08-29T09:04:54Z</time>
      </trkpt>
      <trkpt lat="50.671891467645764" lon="13.292693020775914">
        <ele>472</ele>
        <time>2026-08-29T09:04:55Z</time>
      </trkpt>
      <trkpt lat="50.671903621405363" lon="13.292660498991609">
        <ele>472</ele>
        <time>2026-08-29T09:04:56Z</time>
      </trkpt>
      <trkpt lat="50.671916948631406" lon="13.29262831248343">
        <ele>472</ele>
        <time>2026-08-29T09:04:57Z</time>
      </trkpt>
      <trkpt lat="50.671931952238083" lon="13.292601490393281">
        <ele>472</ele>
        <time>2026-08-29T09:04:58Z</time>
      </trkpt>
      <trkpt lat="50.671946872025728" lon="13.292577099055052">
        <ele>472</ele>
        <time>2026-08-29T09:04:59Z</time>
      </trkpt>
      <trkpt lat="50.671963300555944" lon="13.292544158175588">
        <ele>471</ele>
        <time>2026-08-29T09:05:00Z</time>
      </trkpt>
      <trkpt lat="50.671985428780317" lon="13.292519683018327">
        <ele>472</ele>
        <time>2026-08-29T09:05:01Z</time>
      </trkpt>
      <trkpt lat="50.67200219258666" lon="13.292493196204305">
        <ele>472</ele>
        <time>2026-08-29T09:05:02Z</time>
      </trkpt>
      <trkpt lat="50.672016190364957" lon="13.292462099343538">
        <ele>472</ele>
        <time>2026-08-29T09:05:03Z</time>
      </trkpt>
      <trkpt lat="50.672031529247761" lon="13.292429074645042">
        <ele>472</ele>
        <time>2026-08-29T09:05:04Z</time>
      </trkpt>
      <trkpt lat="50.67204955033958" lon="13.292406192049384">
        <ele>473</ele>
        <time>2026-08-29T09:05:05Z</time>
      </trkpt>
      <trkpt lat="50.67207058891654" lon="13.292381213977933">
        <ele>473</ele>
        <time>2026-08-29T09:05:06Z</time>
      </trkpt>
      <trkpt lat="50.672089951112866" lon="13.292367719113827">
        <ele>473</ele>
        <time>2026-08-29T09:05:07Z</time>
      </trkpt>
      <trkpt lat="50.67210235632956" lon="13.292341232299805">
        <ele>473</ele>
        <time>2026-08-29T09:05:08Z</time>
      </trkpt>
      <trkpt lat="50.672116186469793" lon="13.292314326390624">
        <ele>473</ele>
        <time>2026-08-29T09:05:09Z</time>
      </trkpt>
      <trkpt lat="50.672133872285485" lon="13.292281804606318">
        <ele>473</ele>
        <time>2026-08-29T09:05:10Z</time>
      </trkpt>
      <trkpt lat="50.672153066843748" lon="13.292246768251061">
        <ele>474</ele>
        <time>2026-08-29T09:05:11Z</time>
      </trkpt>
      <trkpt lat="50.672174273058772" lon="13.292209468781948">
        <ele>474</ele>
        <time>2026-08-29T09:05:12Z</time>
      </trkpt>
      <trkpt lat="50.67219371907413" lon="13.292177617549896">
        <ele>475</ele>
        <time>2026-08-29T09:05:13Z</time>
      </trkpt>
      <trkpt lat="50.672216098755598" lon="13.292144257575274">
        <ele>475</ele>
        <time>2026-08-29T09:05:14Z</time>
      </trkpt>
      <trkpt lat="50.672234203666449" lon="13.292120704427361">
        <ele>475</ele>
        <time>2026-08-29T09:05:15Z</time>
      </trkpt>
      <trkpt lat="50.672255242243409" lon="13.292090697214007">
        <ele>476</ele>
        <time>2026-08-29T09:05:16Z</time>
      </trkpt>
      <trkpt lat="50.672273514792323" lon="13.292056750506163">
        <ele>476</ele>
        <time>2026-08-29T09:05:17Z</time>
      </trkpt>
      <trkpt lat="50.672296229749918" lon="13.29202925786376">
        <ele>476</ele>
        <time>2026-08-29T09:05:18Z</time>
      </trkpt>
      <trkpt lat="50.672318860888481" lon="13.292001346126199">
        <ele>476</ele>
        <time>2026-08-29T09:05:19Z</time>
      </trkpt>
      <trkpt lat="50.672340737655759" lon="13.291968489065766">
        <ele>476</ele>
        <time>2026-08-29T09:05:20Z</time>
      </trkpt>
      <trkpt lat="50.672362195327878" lon="13.291942672803998">
        <ele>476</ele>
        <time>2026-08-29T09:05:21Z</time>
      </trkpt>
      <trkpt lat="50.672384658828378" lon="13.291908390820026">
        <ele>476</ele>
        <time>2026-08-29T09:05:22Z</time>
      </trkpt>
      <trkpt lat="50.672405026853085" lon="13.291878886520863">
        <ele>476</ele>
        <time>2026-08-29T09:05:23Z</time>
      </trkpt>
      <trkpt lat="50.672425227239728" lon="13.291852818801999">
        <ele>476</ele>
        <time>2026-08-29T09:05:24Z</time>
      </trkpt>
      <trkpt lat="50.672446852549911" lon="13.291831109672785">
        <ele>475</ele>
        <time>2026-08-29T09:05:25Z</time>
      </trkpt>
      <trkpt lat="50.672463532537222" lon="13.291808059439063">
        <ele>475</ele>
        <time>2026-08-29T09:05:26Z</time>
      </trkpt>
      <trkpt lat="50.672484403476119" lon="13.291790625080466">
        <ele>476</ele>
        <time>2026-08-29T09:05:27Z</time>
      </trkpt>
      <trkpt lat="50.672504352405667" lon="13.291780985891819">
        <ele>476</ele>
        <time>2026-08-29T09:05:28Z</time>
      </trkpt>
      <trkpt lat="50.672524217516184" lon="13.291762210428715">
        <ele>476</ele>
        <time>2026-08-29T09:05:29Z</time>
      </trkpt>
      <trkpt lat="50.672537796199322" lon="13.2917405012995">
        <ele>476</ele>
        <time>2026-08-29T09:05:30Z</time>
      </trkpt>
      <trkpt lat="50.672555901110172" lon="13.291732035577297">
        <ele>476</ele>
        <time>2026-08-29T09:05:31Z</time>
      </trkpt>
      <trkpt lat="50.672566881403327" lon="13.291726671159267">
        <ele>476</ele>
        <time>2026-08-29T09:05:32Z</time>
      </trkpt>
      <trkpt lat="50.672580040991306" lon="13.291726671159267">
        <ele>477</ele>
        <time>2026-08-29T09:05:33Z</time>
      </trkpt>
      <trkpt lat="50.672583812847733" lon="13.291729185730219">
        <ele>476</ele>
        <time>2026-08-29T09:05:34Z</time>
      </trkpt>
      <trkpt lat="50.6725890096277" lon="13.2917336281389">
        <ele>476</ele>
        <time>2026-08-29T09:05:35Z</time>
      </trkpt>
      <trkpt lat="50.672589261084795" lon="13.2917336281389">
        <ele>476</ele>
        <time>2026-08-29T09:05:36Z</time>
      </trkpt>
      <trkpt lat="50.672589177265763" lon="13.2917336281389">
        <ele>476</ele>
        <time>2026-08-29T09:05:37Z</time>
      </trkpt>
      <trkpt lat="50.672589177265763" lon="13.291733544319868">
        <ele>476</ele>
        <time>2026-08-29T09:05:38Z</time>
      </trkpt>
      <trkpt lat="50.672589261084795" lon="13.291733544319868">
        <ele>476</ele>
        <time>2026-08-29T09:05:39Z</time>
      </trkpt>
      <trkpt lat="50.672589261084795" lon="13.291733544319868">
        <ele>476</ele>
        <time>2026-08-29T09:05:40Z</time>
      </trkpt>
      <trkpt lat="50.672589261084795" lon="13.291733544319868">
        <ele>476</ele>
        <time>2026-08-29T09:05:41Z</time>
      </trkpt>
      <trkpt lat="50.672589344903827" lon="13.291733460500836">
        <ele>476</ele>
        <time>2026-08-29T09:05:42Z</time>
      </trkpt>
      <trkpt lat="50.672589261084795" lon="13.291733376681805">
        <ele>476</ele>
        <time>2026-08-29T09:05:43Z</time>
      </trkpt>
      <trkpt lat="50.672589261084795" lon="13.291733376681805">
        <ele>476</ele>
        <time>2026-08-29T09:05:44Z</time>
      </trkpt>
      <trkpt lat="50.672589261084795" lon="13.291733292862773">
        <ele>476</ele>
        <time>2026-08-29T09:05:45Z</time>
      </trkpt>
      <trkpt lat="50.672590266913176" lon="13.291735472157598">
        <ele>476</ele>
        <time>2026-08-29T09:05:46Z</time>
      </trkpt>
      <trkpt lat="50.672594038769603" lon="13.291737148538232">
        <ele>475</ele>
        <time>2026-08-29T09:05:47Z</time>
      </trkpt>
      <trkpt lat="50.672596218064427" lon="13.29173999838531">
        <ele>475</ele>
        <time>2026-08-29T09:05:48Z</time>
      </trkpt>
      <trkpt lat="50.672605270519853" lon="13.291741088032722">
        <ele>475</ele>
        <time>2026-08-29T09:05:49Z</time>
      </trkpt>
      <trkpt lat="50.672614658251405" lon="13.291749637573957">
        <ele>475</ele>
        <time>2026-08-29T09:05:50Z</time>
      </trkpt>
      <trkpt lat="50.672620022669435" lon="13.291760114952922">
        <ele>475</ele>
        <time>2026-08-29T09:05:51Z</time>
      </trkpt>
      <trkpt lat="50.67262320779264" lon="13.291772101074457">
        <ele>475</ele>
        <time>2026-08-29T09:05:52Z</time>
      </trkpt>
      <trkpt lat="50.672627566382289" lon="13.29179716296494">
        <ele>475</ele>
        <time>2026-08-29T09:05:53Z</time>
      </trkpt>
      <trkpt lat="50.672631254419684" lon="13.291824907064438">
        <ele>475</ele>
        <time>2026-08-29T09:05:54Z</time>
      </trkpt>
      <trkpt lat="50.672635110095143" lon="13.291854579001665">
        <ele>474</ele>
        <time>2026-08-29T09:05:55Z</time>
      </trkpt>
      <trkpt lat="50.672644665464759" lon="13.291890621185303">
        <ele>474</ele>
        <time>2026-08-29T09:05:56Z</time>
      </trkpt>
      <trkpt lat="50.67266033962369" lon="13.291922640055418">
        <ele>474</ele>
        <time>2026-08-29T09:05:57Z</time>
      </trkpt>
      <trkpt lat="50.672680120915174" lon="13.29195843078196">
        <ele>474</ele>
        <time>2026-08-29T09:05:58Z</time>
      </trkpt>
      <trkpt lat="50.67270333878696" lon="13.292000843212008">
        <ele>474</ele>
        <time>2026-08-29T09:05:59Z</time>
      </trkpt>
      <trkpt lat="50.672728484496474" lon="13.292031520977616">
        <ele>474</ele>
        <time>2026-08-29T09:06:00Z</time>
      </trkpt>
      <trkpt lat="50.672758491709828" lon="13.29205708578229">
        <ele>474</ele>
        <time>2026-08-29T09:06:01Z</time>
      </trkpt>
      <trkpt lat="50.672789001837373" lon="13.292076364159584">
        <ele>474</ele>
        <time>2026-08-29T09:06:02Z</time>
      </trkpt>
      <trkpt lat="50.672821439802647" lon="13.292094133794308">
        <ele>474</ele>
        <time>2026-08-29T09:06:03Z</time>
      </trkpt>
      <trkpt lat="50.672854464501143" lon="13.292106036096811">
        <ele>473</ele>
        <time>2026-08-29T09:06:04Z</time>
      </trkpt>
      <trkpt lat="50.672890255227685" lon="13.292120452970266">
        <ele>473</ele>
        <time>2026-08-29T09:06:05Z</time>
      </trkpt>
      <trkpt lat="50.672922777011991" lon="13.29213235527277">
        <ele>473</ele>
        <time>2026-08-29T09:06:06Z</time>
      </trkpt>
      <trkpt lat="50.672956136986613" lon="13.292155070230365">
        <ele>473</ele>
        <time>2026-08-29T09:06:07Z</time>
      </trkpt>
      <trkpt lat="50.672985222190619" lon="13.292180383577943">
        <ele>474</ele>
        <time>2026-08-29T09:06:08Z</time>
      </trkpt>
      <trkpt lat="50.673015229403973" lon="13.292192704975605">
        <ele>474</ele>
        <time>2026-08-29T09:06:09Z</time>
      </trkpt>
      <trkpt lat="50.673046745359898" lon="13.292211061343551">
        <ele>474</ele>
        <time>2026-08-29T09:06:10Z</time>
      </trkpt>
      <trkpt lat="50.673077758401632" lon="13.292225981131196">
        <ele>474</ele>
        <time>2026-08-29T09:06:11Z</time>
      </trkpt>
      <trkpt lat="50.673109190538526" lon="13.292250372469425">
        <ele>475</ele>
        <time>2026-08-29T09:06:12Z</time>
      </trkpt>
      <trkpt lat="50.673143640160561" lon="13.292273003607988">
        <ele>475</ele>
        <time>2026-08-29T09:06:13Z</time>
      </trkpt>
      <trkpt lat="50.673180017620325" lon="13.292288007214665">
        <ele>474</ele>
        <time>2026-08-29T09:06:14Z</time>
      </trkpt>
      <trkpt lat="50.673220250755548" lon="13.29229848459363">
        <ele>474</ele>
        <time>2026-08-29T09:06:15Z</time>
      </trkpt>
      <trkpt lat="50.673261489719152" lon="13.292303429916501">
        <ele>475</ele>
        <time>2026-08-29T09:06:16Z</time>
      </trkpt>
      <trkpt lat="50.673298873007298" lon="13.292290018871427">
        <ele>475</ele>
        <time>2026-08-29T09:06:17Z</time>
      </trkpt>
      <trkpt lat="50.673337178304791" lon="13.292284486815333">
        <ele>475</ele>
        <time>2026-08-29T09:06:18Z</time>
      </trkpt>
      <trkpt lat="50.673369783908129" lon="13.292278284206986">
        <ele>474</ele>
        <time>2026-08-29T09:06:19Z</time>
      </trkpt>
      <trkpt lat="50.673401048406959" lon="13.292269315570593">
        <ele>475</ele>
        <time>2026-08-29T09:06:20Z</time>
      </trkpt>
      <trkpt lat="50.673437593504786" lon="13.29226185567677">
        <ele>475</ele>
        <time>2026-08-29T09:06:21Z</time>
      </trkpt>
      <trkpt lat="50.673468774184585" lon="13.292248193174601">
        <ele>475</ele>
        <time>2026-08-29T09:06:22Z</time>
      </trkpt>
      <trkpt lat="50.6735007930547" lon="13.292234363034368">
        <ele>475</ele>
        <time>2026-08-29T09:06:23Z</time>
      </trkpt>
      <trkpt lat="50.673532644286752" lon="13.292221873998642">
        <ele>475</ele>
        <time>2026-08-29T09:06:24Z</time>
      </trkpt>
      <trkpt lat="50.67356483079493" lon="13.292205696925521">
        <ele>475</ele>
        <time>2026-08-29T09:06:25Z</time>
      </trkpt>
      <trkpt lat="50.673600370064378" lon="13.292190441861749">
        <ele>475</ele>
        <time>2026-08-29T09:06:26Z</time>
      </trkpt>
      <trkpt lat="50.673646302893758" lon="13.292168145999312">
        <ele>475</ele>
        <time>2026-08-29T09:06:27Z</time>
      </trkpt>
      <trkpt lat="50.67368159070611" lon="13.292150292545557">
        <ele>475</ele>
        <time>2026-08-29T09:06:28Z</time>
      </trkpt>
      <trkpt lat="50.67371528595686" lon="13.292110562324524">
        <ele>474</ele>
        <time>2026-08-29T09:06:29Z</time>
      </trkpt>
      <trkpt lat="50.673750741407275" lon="13.29207762144506">
        <ele>475</ele>
        <time>2026-08-29T09:06:30Z</time>
      </trkpt>
      <trkpt lat="50.673781502991915" lon="13.292038897052407">
        <ele>474</ele>
        <time>2026-08-29T09:06:31Z</time>
      </trkpt>
      <trkpt lat="50.673808157444" lon="13.291998161002994">
        <ele>474</ele>
        <time>2026-08-29T09:06:32Z</time>
      </trkpt>
      <trkpt lat="50.673845037817955" lon="13.29195499420166">
        <ele>475</ele>
        <time>2026-08-29T09:06:33Z</time>
      </trkpt>
      <trkpt lat="50.673878481611609" lon="13.291912749409676">
        <ele>475</ele>
        <time>2026-08-29T09:06:34Z</time>
      </trkpt>
      <trkpt lat="50.673907650634646" lon="13.291870336979628">
        <ele>475</ele>
        <time>2026-08-29T09:06:35Z</time>
      </trkpt>
      <trkpt lat="50.673936903476715" lon="13.291820883750916">
        <ele>475</ele>
        <time>2026-08-29T09:06:36Z</time>
      </trkpt>
      <trkpt lat="50.673965821042657" lon="13.291772687807679">
        <ele>475</ele>
        <time>2026-08-29T09:06:37Z</time>
      </trkpt>
      <trkpt lat="50.673997336998582" lon="13.291723234578967">
        <ele>475</ele>
        <time>2026-08-29T09:06:38Z</time>
      </trkpt>
      <trkpt lat="50.674024829640985" lon="13.291677720844746">
        <ele>475</ele>
        <time>2026-08-29T09:06:39Z</time>
      </trkpt>
      <trkpt lat="50.674050562083721" lon="13.291632710024714">
        <ele>475</ele>
        <time>2026-08-29T09:06:40Z</time>
      </trkpt>
      <trkpt lat="50.674079731106758" lon="13.291589878499508">
        <ele>475</ele>
        <time>2026-08-29T09:06:41Z</time>
      </trkpt>
      <trkpt lat="50.674104122444987" lon="13.291547382250428">
        <ele>474</ele>
        <time>2026-08-29T09:06:42Z</time>
      </trkpt>
      <trkpt lat="50.674129519611597" lon="13.29152449965477">
        <ele>474</ele>
        <time>2026-08-29T09:06:43Z</time>
      </trkpt>
      <trkpt lat="50.674158269539475" lon="13.291495414450765">
        <ele>474</ele>
        <time>2026-08-29T09:06:44Z</time>
      </trkpt>
      <trkpt lat="50.674184588715434" lon="13.291463144123554">
        <ele>474</ele>
        <time>2026-08-29T09:06:45Z</time>
      </trkpt>
      <trkpt lat="50.674207722768188" lon="13.291432717815042">
        <ele>474</ele>
        <time>2026-08-29T09:06:46Z</time>
      </trkpt>
      <trkpt lat="50.674231108278036" lon="13.291408494114876">
        <ele>474</ele>
        <time>2026-08-29T09:06:47Z</time>
      </trkpt>
      <trkpt lat="50.674248291179538" lon="13.291380666196346">
        <ele>474</ele>
        <time>2026-08-29T09:06:48Z</time>
      </trkpt>
      <trkpt lat="50.674262791872025" lon="13.291346551850438">
        <ele>474</ele>
        <time>2026-08-29T09:06:49Z</time>
      </trkpt>
      <trkpt lat="50.674275364726782" lon="13.29131294041872">
        <ele>474</ele>
        <time>2026-08-29T09:06:50Z</time>
      </trkpt>
      <trkpt lat="50.674285423010588" lon="13.291272120550275">
        <ele>474</ele>
        <time>2026-08-29T09:06:51Z</time>
      </trkpt>
      <trkpt lat="50.674296822398901" lon="13.291234066709876">
        <ele>474</ele>
        <time>2026-08-29T09:06:52Z</time>
      </trkpt>
      <trkpt lat="50.674314927309752" lon="13.291191486641765">
        <ele>474</ele>
        <time>2026-08-29T09:06:53Z</time>
      </trkpt>
      <trkpt lat="50.674334038048983" lon="13.291152510792017">
        <ele>474</ele>
        <time>2026-08-29T09:06:54Z</time>
      </trkpt>
      <trkpt lat="50.674349209293723" lon="13.291116384789348">
        <ele>474</ele>
        <time>2026-08-29T09:06:55Z</time>
      </trkpt>
      <trkpt lat="50.674362955614924" lon="13.29107154160738">
        <ele>474</ele>
        <time>2026-08-29T09:06:56Z</time>
      </trkpt>
      <trkpt lat="50.674376450479031" lon="13.291025273501873">
        <ele>474</ele>
        <time>2026-08-29T09:06:57Z</time>
      </trkpt>
      <trkpt lat="50.674388268962502" lon="13.290987303480506">
        <ele>474</ele>
        <time>2026-08-29T09:06:58Z</time>
      </trkpt>
      <trkpt lat="50.674401931464672" lon="13.290951177477837">
        <ele>474</ele>
        <time>2026-08-29T09:06:59Z</time>
      </trkpt>
      <trkpt lat="50.674412408843637" lon="13.290919996798038">
        <ele>474</ele>
        <time>2026-08-29T09:07:00Z</time>
      </trkpt>
      <trkpt lat="50.67442431114614" lon="13.290885463356972">
        <ele>474</ele>
        <time>2026-08-29T09:07:01Z</time>
      </trkpt>
      <trkpt lat="50.674430932849646" lon="13.290854031220078">
        <ele>474</ele>
        <time>2026-08-29T09:07:02Z</time>
      </trkpt>
      <trkpt lat="50.674442080780864" lon="13.290835004299879">
        <ele>474</ele>
        <time>2026-08-29T09:07:03Z</time>
      </trkpt>
      <trkpt lat="50.674445601180196" lon="13.29080818220973">
        <ele>474</ele>
        <time>2026-08-29T09:07:04Z</time>
      </trkpt>
      <trkpt lat="50.674453731626272" lon="13.290783455595374">
        <ele>474</ele>
        <time>2026-08-29T09:07:05Z</time>
      </trkpt>
      <trkpt lat="50.674466220661998" lon="13.290756717324257">
        <ele>474</ele>
        <time>2026-08-29T09:07:06Z</time>
      </trkpt>
      <trkpt lat="50.674474770203233" lon="13.290730062872171">
        <ele>474</ele>
        <time>2026-08-29T09:07:07Z</time>
      </trkpt>
      <trkpt lat="50.674481559544802" lon="13.290703073143959">
        <ele>474</ele>
        <time>2026-08-29T09:07:08Z</time>
      </trkpt>
      <trkpt lat="50.674487678334117" lon="13.29067968763411">
        <ele>474</ele>
        <time>2026-08-29T09:07:09Z</time>
      </trkpt>
      <trkpt lat="50.674493378028274" lon="13.290660828351974">
        <ele>473</ele>
        <time>2026-08-29T09:07:10Z</time>
      </trkpt>
      <trkpt lat="50.674502346664667" lon="13.290644735097885">
        <ele>473</ele>
        <time>2026-08-29T09:07:11Z</time>
      </trkpt>
      <trkpt lat="50.674504609778523" lon="13.290642136707902">
        <ele>473</ele>
        <time>2026-08-29T09:07:12Z</time>
      </trkpt>
      <trkpt lat="50.674503101035953" lon="13.290647333487868">
        <ele>473</ele>
        <time>2026-08-29T09:07:13Z</time>
      </trkpt>
      <trkpt lat="50.674503268674016" lon="13.290648674592376">
        <ele>473</ele>
        <time>2026-08-29T09:07:14Z</time>
      </trkpt>
      <trkpt lat="50.67451081238687" lon="13.290656134486198">
        <ele>474</ele>
        <time>2026-08-29T09:07:15Z</time>
      </trkpt>
      <trkpt lat="50.674510644748807" lon="13.290656134486198">
        <ele>474</ele>
        <time>2026-08-29T09:07:16Z</time>
      </trkpt>
      <trkpt lat="50.67451081238687" lon="13.290655883029103">
        <ele>474</ele>
        <time>2026-08-29T09:07:17Z</time>
      </trkpt>
      <trkpt lat="50.674510980024934" lon="13.290655631572008">
        <ele>474</ele>
        <time>2026-08-29T09:07:18Z</time>
      </trkpt>
      <trkpt lat="50.674511231482029" lon="13.290655380114913">
        <ele>474</ele>
        <time>2026-08-29T09:07:19Z</time>
      </trkpt>
      <trkpt lat="50.674511399120092" lon="13.290655128657818">
        <ele>474</ele>
        <time>2026-08-29T09:07:20Z</time>
      </trkpt>
      <trkpt lat="50.674511482939124" lon="13.290655128657818">
        <ele>474</ele>
        <time>2026-08-29T09:07:21Z</time>
      </trkpt>
      <trkpt lat="50.674511482939124" lon="13.290655044838786">
        <ele>474</ele>
        <time>2026-08-29T09:07:22Z</time>
      </trkpt>
      <trkpt lat="50.674511566758156" lon="13.290655044838786">
        <ele>474</ele>
        <time>2026-08-29T09:07:23Z</time>
      </trkpt>
      <trkpt lat="50.674511650577188" lon="13.290655044838786">
        <ele>474</ele>
        <time>2026-08-29T09:07:24Z</time>
      </trkpt>
      <trkpt lat="50.674511650577188" lon="13.290655044838786">
        <ele>474</ele>
        <time>2026-08-29T09:07:25Z</time>
      </trkpt>
      <trkpt lat="50.674511650577188" lon="13.290654709562659">
        <ele>474</ele>
        <time>2026-08-29T09:07:26Z</time>
      </trkpt>
      <trkpt lat="50.674511482939124" lon="13.290654541924596">
        <ele>474</ele>
        <time>2026-08-29T09:07:27Z</time>
      </trkpt>
      <trkpt lat="50.674511482939124" lon="13.290654541924596">
        <ele>474</ele>
        <time>2026-08-29T09:07:28Z</time>
      </trkpt>
      <trkpt lat="50.674511482939124" lon="13.290654458105564">
        <ele>474</ele>
        <time>2026-08-29T09:07:29Z</time>
      </trkpt>
      <trkpt lat="50.674511566758156" lon="13.290654458105564">
        <ele>474</ele>
        <time>2026-08-29T09:07:30Z</time>
      </trkpt>
      <trkpt lat="50.674511399120092" lon="13.290654374286532">
        <ele>474</ele>
        <time>2026-08-29T09:07:31Z</time>
      </trkpt>
      <trkpt lat="50.674511399120092" lon="13.290654374286532">
        <ele>474</ele>
        <time>2026-08-29T09:07:32Z</time>
      </trkpt>
      <trkpt lat="50.674511399120092" lon="13.290654122829437">
        <ele>474</ele>
        <time>2026-08-29T09:07:33Z</time>
      </trkpt>
      <trkpt lat="50.674511399120092" lon="13.290654122829437">
        <ele>474</ele>
        <time>2026-08-29T09:07:34Z</time>
      </trkpt>
      <trkpt lat="50.674511399120092" lon="13.290654039010406">
        <ele>474</ele>
        <time>2026-08-29T09:07:35Z</time>
      </trkpt>
      <trkpt lat="50.674511231482029" lon="13.290654122829437">
        <ele>474</ele>
        <time>2026-08-29T09:07:36Z</time>
      </trkpt>
      <trkpt lat="50.674511063843966" lon="13.290654039010406">
        <ele>474</ele>
        <time>2026-08-29T09:07:37Z</time>
      </trkpt>
      <trkpt lat="50.674510980024934" lon="13.29065378755331">
        <ele>474</ele>
        <time>2026-08-29T09:07:38Z</time>
      </trkpt>
      <trkpt lat="50.67451081238687" lon="13.290653703734279">
        <ele>474</ele>
        <time>2026-08-29T09:07:39Z</time>
      </trkpt>
      <trkpt lat="50.67451081238687" lon="13.290654039010406">
        <ele>474</ele>
        <time>2026-08-29T09:07:40Z</time>
      </trkpt>
      <trkpt lat="50.674510560929775" lon="13.290654039010406">
        <ele>474</ele>
        <time>2026-08-29T09:07:41Z</time>
      </trkpt>
      <trkpt lat="50.67451030947268" lon="13.290653871372342">
        <ele>474</ele>
        <time>2026-08-29T09:07:42Z</time>
      </trkpt>
      <trkpt lat="50.674510141834617" lon="13.290653536096215">
        <ele>474</ele>
        <time>2026-08-29T09:07:43Z</time>
      </trkpt>
      <trkpt lat="50.674510141834617" lon="13.290653536096215">
        <ele>474</ele>
        <time>2026-08-29T09:07:44Z</time>
      </trkpt>
      <trkpt lat="50.674510141834617" lon="13.290653368458152">
        <ele>474</ele>
        <time>2026-08-29T09:07:45Z</time>
      </trkpt>
      <trkpt lat="50.674510058015585" lon="13.29065328463912">
        <ele>474</ele>
        <time>2026-08-29T09:07:46Z</time>
      </trkpt>
      <trkpt lat="50.674510393291712" lon="13.290653033182025">
        <ele>474</ele>
        <time>2026-08-29T09:07:47Z</time>
      </trkpt>
      <trkpt lat="50.674508968368173" lon="13.290647836402059">
        <ele>474</ele>
        <time>2026-08-29T09:07:48Z</time>
      </trkpt>
      <trkpt lat="50.674510980024934" lon="13.290637526661158">
        <ele>474</ele>
        <time>2026-08-29T09:07:49Z</time>
      </trkpt>
      <trkpt lat="50.674509890377522" lon="13.290627803653479">
        <ele>474</ele>
        <time>2026-08-29T09:07:50Z</time>
      </trkpt>
      <trkpt lat="50.674509890377522" lon="13.290626043453813">
        <ele>474</ele>
        <time>2026-08-29T09:07:51Z</time>
      </trkpt>
      <trkpt lat="50.674506286159158" lon="13.290627552196383">
        <ele>474</ele>
        <time>2026-08-29T09:07:52Z</time>
      </trkpt>
      <trkpt lat="50.674503268674016" lon="13.290629228577018">
        <ele>474</ele>
        <time>2026-08-29T09:07:53Z</time>
      </trkpt>
      <trkpt lat="50.674503268674016" lon="13.290629144757986">
        <ele>474</ele>
        <time>2026-08-29T09:07:54Z</time>
      </trkpt>
      <trkpt lat="50.674503184854984" lon="13.290629563853145">
        <ele>474</ele>
        <time>2026-08-29T09:07:55Z</time>
      </trkpt>
      <trkpt lat="50.674503101035953" lon="13.290629563853145">
        <ele>474</ele>
        <time>2026-08-29T09:07:56Z</time>
      </trkpt>
      <trkpt lat="50.674503268674016" lon="13.290629647672176">
        <ele>474</ele>
        <time>2026-08-29T09:07:57Z</time>
      </trkpt>
      <trkpt lat="50.674503268674016" lon="13.29062981531024">
        <ele>474</ele>
        <time>2026-08-29T09:07:58Z</time>
      </trkpt>
      <trkpt lat="50.674503184854984" lon="13.29062981531024">
        <ele>474</ele>
        <time>2026-08-29T09:07:59Z</time>
      </trkpt>
      <trkpt lat="50.674503268674016" lon="13.290630150586367">
        <ele>474</ele>
        <time>2026-08-29T09:08:00Z</time>
      </trkpt>
      <trkpt lat="50.674503603950143" lon="13.29063082113862">
        <ele>474</ele>
        <time>2026-08-29T09:08:01Z</time>
      </trkpt>
      <trkpt lat="50.674503603950143" lon="13.290631072595716">
        <ele>474</ele>
        <time>2026-08-29T09:08:02Z</time>
      </trkpt>
      <trkpt lat="50.674503687769175" lon="13.290631240233779">
        <ele>474</ele>
        <time>2026-08-29T09:08:03Z</time>
      </trkpt>
      <trkpt lat="50.674503520131111" lon="13.290631324052811">
        <ele>474</ele>
        <time>2026-08-29T09:08:04Z</time>
      </trkpt>
      <trkpt lat="50.674503520131111" lon="13.290631407871842">
        <ele>474</ele>
        <time>2026-08-29T09:08:05Z</time>
      </trkpt>
      <trkpt lat="50.674503687769175" lon="13.290631575509906">
        <ele>474</ele>
        <time>2026-08-29T09:08:06Z</time>
      </trkpt>
      <trkpt lat="50.674503687769175" lon="13.290631910786033">
        <ele>474</ele>
        <time>2026-08-29T09:08:07Z</time>
      </trkpt>
      <trkpt lat="50.674503603950143" lon="13.290632078424096">
        <ele>474</ele>
        <time>2026-08-29T09:08:08Z</time>
      </trkpt>
      <trkpt lat="50.674503520131111" lon="13.290632078424096">
        <ele>474</ele>
        <time>2026-08-29T09:08:09Z</time>
      </trkpt>
      <trkpt lat="50.674503520131111" lon="13.290632078424096">
        <ele>474</ele>
        <time>2026-08-29T09:08:10Z</time>
      </trkpt>
      <trkpt lat="50.674503436312079" lon="13.290632078424096">
        <ele>474</ele>
        <time>2026-08-29T09:08:11Z</time>
      </trkpt>
      <trkpt lat="50.674503436312079" lon="13.290632078424096">
        <ele>474</ele>
        <time>2026-08-29T09:08:12Z</time>
      </trkpt>
      <trkpt lat="50.674503520131111" lon="13.290631994605064">
        <ele>474</ele>
        <time>2026-08-29T09:08:13Z</time>
      </trkpt>
      <trkpt lat="50.674503520131111" lon="13.290631910786033">
        <ele>474</ele>
        <time>2026-08-29T09:08:14Z</time>
      </trkpt>
      <trkpt lat="50.674503603950143" lon="13.290631994605064">
        <ele>474</ele>
        <time>2026-08-29T09:08:15Z</time>
      </trkpt>
      <trkpt lat="50.674503771588206" lon="13.290631743147969">
        <ele>474</ele>
        <time>2026-08-29T09:08:16Z</time>
      </trkpt>
      <trkpt lat="50.674503855407238" lon="13.290631994605064">
        <ele>474</ele>
        <time>2026-08-29T09:08:17Z</time>
      </trkpt>
      <trkpt lat="50.67450393922627" lon="13.290632162243128">
        <ele>474</ele>
        <time>2026-08-29T09:08:18Z</time>
      </trkpt>
      <trkpt lat="50.67450393922627" lon="13.290632497519255">
        <ele>474</ele>
        <time>2026-08-29T09:08:19Z</time>
      </trkpt>
      <trkpt lat="50.674504106864333" lon="13.290632665157318">
        <ele>474</ele>
        <time>2026-08-29T09:08:20Z</time>
      </trkpt>
      <trkpt lat="50.674504106864333" lon="13.290632916614413">
        <ele>474</ele>
        <time>2026-08-29T09:08:21Z</time>
      </trkpt>
      <trkpt lat="50.674504106864333" lon="13.290632832795382">
        <ele>474</ele>
        <time>2026-08-29T09:08:22Z</time>
      </trkpt>
      <trkpt lat="50.674504023045301" lon="13.290632665157318">
        <ele>474</ele>
        <time>2026-08-29T09:08:23Z</time>
      </trkpt>
      <trkpt lat="50.67450393922627" lon="13.290632665157318">
        <ele>474</ele>
        <time>2026-08-29T09:08:24Z</time>
      </trkpt>
      <trkpt lat="50.674504023045301" lon="13.290632413700223">
        <ele>474</ele>
        <time>2026-08-29T09:08:25Z</time>
      </trkpt>
      <trkpt lat="50.674504358321428" lon="13.290632162243128">
        <ele>474</ele>
        <time>2026-08-29T09:08:26Z</time>
      </trkpt>
      <trkpt lat="50.674504609778523" lon="13.290631743147969">
        <ele>474</ele>
        <time>2026-08-29T09:08:27Z</time>
      </trkpt>
      <trkpt lat="50.674504861235619" lon="13.290631994605064">
        <ele>474</ele>
        <time>2026-08-29T09:08:28Z</time>
      </trkpt>
      <trkpt lat="50.674505280330777" lon="13.290631575509906">
        <ele>474</ele>
        <time>2026-08-29T09:08:29Z</time>
      </trkpt>
      <trkpt lat="50.674505447968841" lon="13.290631324052811">
        <ele>474</ele>
        <time>2026-08-29T09:08:30Z</time>
      </trkpt>
      <trkpt lat="50.674505699425936" lon="13.290630988776684">
        <ele>474</ele>
        <time>2026-08-29T09:08:31Z</time>
      </trkpt>
      <trkpt lat="50.674505867063999" lon="13.29063082113862">
        <ele>474</ele>
        <time>2026-08-29T09:08:32Z</time>
      </trkpt>
      <trkpt lat="50.674506118521094" lon="13.290630485862494">
        <ele>474</ele>
        <time>2026-08-29T09:08:33Z</time>
      </trkpt>
      <trkpt lat="50.674506286159158" lon="13.290630234405398">
        <ele>474</ele>
        <time>2026-08-29T09:08:34Z</time>
      </trkpt>
      <trkpt lat="50.674506453797221" lon="13.290629982948303">
        <ele>474</ele>
        <time>2026-08-29T09:08:35Z</time>
      </trkpt>
      <trkpt lat="50.674506286159158" lon="13.290630234405398">
        <ele>474</ele>
        <time>2026-08-29T09:08:36Z</time>
      </trkpt>
      <trkpt lat="50.674506369978189" lon="13.290630234405398">
        <ele>474</ele>
        <time>2026-08-29T09:08:37Z</time>
      </trkpt>
      <trkpt lat="50.674503268674016" lon="13.29063325189054">
        <ele>474</ele>
        <time>2026-08-29T09:08:38Z</time>
      </trkpt>
      <trkpt lat="50.674504358321428" lon="13.290635598823428">
        <ele>474</ele>
        <time>2026-08-29T09:08:39Z</time>
      </trkpt>
      <trkpt lat="50.674506118521094" lon="13.290635598823428">
        <ele>474</ele>
        <time>2026-08-29T09:08:40Z</time>
      </trkpt>
      <trkpt lat="50.674507040530443" lon="13.290625624358654">
        <ele>475</ele>
        <time>2026-08-29T09:08:41Z</time>
      </trkpt>
      <trkpt lat="50.674506621435285" lon="13.290614979341626">
        <ele>474</ele>
        <time>2026-08-29T09:08:42Z</time>
      </trkpt>
      <trkpt lat="50.674505028873682" lon="13.290609531104565">
        <ele>474</ele>
        <time>2026-08-29T09:08:43Z</time>
      </trkpt>
      <trkpt lat="50.674505531787872" lon="13.290606010705233">
        <ele>474</ele>
        <time>2026-08-29T09:08:44Z</time>
      </trkpt>
      <trkpt lat="50.674505615606904" lon="13.290605843067169">
        <ele>474</ele>
        <time>2026-08-29T09:08:45Z</time>
      </trkpt>
      <trkpt lat="50.674505615606904" lon="13.290605591610074">
        <ele>474</ele>
        <time>2026-08-29T09:08:46Z</time>
      </trkpt>
      <trkpt lat="50.674505615606904" lon="13.290605172514915">
        <ele>474</ele>
        <time>2026-08-29T09:08:47Z</time>
      </trkpt>
      <trkpt lat="50.674505531787872" lon="13.290605340152979">
        <ele>474</ele>
        <time>2026-08-29T09:08:48Z</time>
      </trkpt>
      <trkpt lat="50.674505531787872" lon="13.290605340152979">
        <ele>474</ele>
        <time>2026-08-29T09:08:49Z</time>
      </trkpt>
      <trkpt lat="50.674505531787872" lon="13.290605423972011">
        <ele>474</ele>
        <time>2026-08-29T09:08:50Z</time>
      </trkpt>
      <trkpt lat="50.674505531787872" lon="13.290605591610074">
        <ele>474</ele>
        <time>2026-08-29T09:08:51Z</time>
      </trkpt>
      <trkpt lat="50.674505615606904" lon="13.290605507791042">
        <ele>474</ele>
        <time>2026-08-29T09:08:52Z</time>
      </trkpt>
      <trkpt lat="50.674505699425936" lon="13.290605759248137">
        <ele>474</ele>
        <time>2026-08-29T09:08:53Z</time>
      </trkpt>
      <trkpt lat="50.674505867063999" lon="13.290606513619423">
        <ele>474</ele>
        <time>2026-08-29T09:08:54Z</time>
      </trkpt>
      <trkpt lat="50.674505867063999" lon="13.290606681257486">
        <ele>474</ele>
        <time>2026-08-29T09:08:55Z</time>
      </trkpt>
      <trkpt lat="50.674505950883031" lon="13.290606597438455">
        <ele>474</ele>
        <time>2026-08-29T09:08:56Z</time>
      </trkpt>
      <trkpt lat="50.674505950883031" lon="13.290606178343296">
        <ele>474</ele>
        <time>2026-08-29T09:08:57Z</time>
      </trkpt>
      <trkpt lat="50.674505699425936" lon="13.290605675429106">
        <ele>474</ele>
        <time>2026-08-29T09:08:58Z</time>
      </trkpt>
      <trkpt lat="50.674505867063999" lon="13.290605340152979">
        <ele>474</ele>
        <time>2026-08-29T09:08:59Z</time>
      </trkpt>
      <trkpt lat="50.674505783244967" lon="13.29060492105782">
        <ele>474</ele>
        <time>2026-08-29T09:09:00Z</time>
      </trkpt>
      <trkpt lat="50.674505699425936" lon="13.290604501962662">
        <ele>474</ele>
        <time>2026-08-29T09:09:01Z</time>
      </trkpt>
      <trkpt lat="50.674505699425936" lon="13.290604334324598">
        <ele>474</ele>
        <time>2026-08-29T09:09:02Z</time>
      </trkpt>
      <trkpt lat="50.674505699425936" lon="13.290604250505567">
        <ele>474</ele>
        <time>2026-08-29T09:09:03Z</time>
      </trkpt>
      <trkpt lat="50.674505531787872" lon="13.290604082867503">
        <ele>474</ele>
        <time>2026-08-29T09:09:04Z</time>
      </trkpt>
      <trkpt lat="50.674505531787872" lon="13.29060391522944">
        <ele>474</ele>
        <time>2026-08-29T09:09:05Z</time>
      </trkpt>
      <trkpt lat="50.674505531787872" lon="13.290603663772345">
        <ele>474</ele>
        <time>2026-08-29T09:09:06Z</time>
      </trkpt>
      <trkpt lat="50.674505615606904" lon="13.290603412315249">
        <ele>474</ele>
        <time>2026-08-29T09:09:07Z</time>
      </trkpt>
      <trkpt lat="50.674505615606904" lon="13.290603244677186">
        <ele>474</ele>
        <time>2026-08-29T09:09:08Z</time>
      </trkpt>
      <trkpt lat="50.674505867063999" lon="13.290602741762996">
        <ele>474</ele>
        <time>2026-08-29T09:09:09Z</time>
      </trkpt>
      <trkpt lat="50.674505867063999" lon="13.290602741762996">
        <ele>474</ele>
        <time>2026-08-29T09:09:10Z</time>
      </trkpt>
      <trkpt lat="50.674506118521094" lon="13.290602322667837">
        <ele>474</ele>
        <time>2026-08-29T09:09:11Z</time>
      </trkpt>
      <trkpt lat="50.674506034702063" lon="13.290602238848805">
        <ele>474</ele>
        <time>2026-08-29T09:09:12Z</time>
      </trkpt>
      <trkpt lat="50.674505950883031" lon="13.290602155029774">
        <ele>474</ele>
        <time>2026-08-29T09:09:13Z</time>
      </trkpt>
      <trkpt lat="50.674505950883031" lon="13.290602238848805">
        <ele>474</ele>
        <time>2026-08-29T09:09:14Z</time>
      </trkpt>
      <trkpt lat="50.674506034702063" lon="13.290602238848805">
        <ele>474</ele>
        <time>2026-08-29T09:09:15Z</time>
      </trkpt>
      <trkpt lat="50.674506118521094" lon="13.290602238848805">
        <ele>474</ele>
        <time>2026-08-29T09:09:16Z</time>
      </trkpt>
      <trkpt lat="50.674506369978189" lon="13.290602741762996">
        <ele>474</ele>
        <time>2026-08-29T09:09:17Z</time>
      </trkpt>
      <trkpt lat="50.674506453797221" lon="13.290602741762996">
        <ele>474</ele>
        <time>2026-08-29T09:09:18Z</time>
      </trkpt>
      <trkpt lat="50.674506621435285" lon="13.290602993220091">
        <ele>474</ele>
        <time>2026-08-29T09:09:19Z</time>
      </trkpt>
      <trkpt lat="50.674506537616253" lon="13.290603328496218">
        <ele>474</ele>
        <time>2026-08-29T09:09:20Z</time>
      </trkpt>
      <trkpt lat="50.674505950883031" lon="13.29060785472393">
        <ele>474</ele>
        <time>2026-08-29T09:09:21Z</time>
      </trkpt>
      <trkpt lat="50.674505950883031" lon="13.290607938542962">
        <ele>474</ele>
        <time>2026-08-29T09:09:22Z</time>
      </trkpt>
      <trkpt lat="50.674501173198223" lon="13.290604501962662">
        <ele>474</ele>
        <time>2026-08-29T09:09:23Z</time>
      </trkpt>
      <trkpt lat="50.674497401341796" lon="13.290599975734949">
        <ele>474</ele>
        <time>2026-08-29T09:09:24Z</time>
      </trkpt>
      <trkpt lat="50.674492623656988" lon="13.290595281869173">
        <ele>475</ele>
        <time>2026-08-29T09:09:25Z</time>
      </trkpt>
      <trkpt lat="50.674493880942464" lon="13.290582792833447">
        <ele>475</ele>
        <time>2026-08-29T09:09:26Z</time>
      </trkpt>
      <trkpt lat="50.674493797123432" lon="13.290582876652479">
        <ele>475</ele>
        <time>2026-08-29T09:09:27Z</time>
      </trkpt>
      <trkpt lat="50.674497401341796" lon="13.290578601881862">
        <ele>475</ele>
        <time>2026-08-29T09:09:28Z</time>
      </trkpt>
      <trkpt lat="50.67449564114213" lon="13.290576757863164">
        <ele>475</ele>
        <time>2026-08-29T09:09:29Z</time>
      </trkpt>
      <trkpt lat="50.674496060237288" lon="13.290580697357655">
        <ele>475</ele>
        <time>2026-08-29T09:09:30Z</time>
      </trkpt>
      <trkpt lat="50.674497988075018" lon="13.290580194443464">
        <ele>475</ele>
        <time>2026-08-29T09:09:31Z</time>
      </trkpt>
      <trkpt lat="50.674497568979859" lon="13.290578182786703">
        <ele>475</ele>
        <time>2026-08-29T09:09:32Z</time>
      </trkpt>
      <trkpt lat="50.674499580636621" lon="13.290578098967671">
        <ele>475</ele>
        <time>2026-08-29T09:09:33Z</time>
      </trkpt>
      <trkpt lat="50.674499580636621" lon="13.290578098967671">
        <ele>475</ele>
        <time>2026-08-29T09:09:34Z</time>
      </trkpt>
      <trkpt lat="50.674503352493048" lon="13.290574997663498">
        <ele>475</ele>
        <time>2026-08-29T09:09:35Z</time>
      </trkpt>
      <trkpt lat="50.674507711082697" lon="13.290573405101895">
        <ele>474</ele>
        <time>2026-08-29T09:09:36Z</time>
      </trkpt>
      <trkpt lat="50.67450787872076" lon="13.290573237463832">
        <ele>474</ele>
        <time>2026-08-29T09:09:37Z</time>
      </trkpt>
      <trkpt lat="50.674509471282363" lon="13.290571728721261">
        <ele>474</ele>
        <time>2026-08-29T09:09:38Z</time>
      </trkpt>
      <trkpt lat="50.674511147662997" lon="13.290572315454483">
        <ele>474</ele>
        <time>2026-08-29T09:09:39Z</time>
      </trkpt>
      <trkpt lat="50.674510980024934" lon="13.290565442293882">
        <ele>474</ele>
        <time>2026-08-29T09:09:40Z</time>
      </trkpt>
      <trkpt lat="50.674512991681695" lon="13.290560999885201">
        <ele>473</ele>
        <time>2026-08-29T09:09:41Z</time>
      </trkpt>
      <trkpt lat="50.674517434090376" lon="13.290548427030444">
        <ele>473</ele>
        <time>2026-08-29T09:09:42Z</time>
      </trkpt>
      <trkpt lat="50.674519278109074" lon="13.290535183623433">
        <ele>473</ele>
        <time>2026-08-29T09:09:43Z</time>
      </trkpt>
      <trkpt lat="50.674518942832947" lon="13.290518335998058">
        <ele>473</ele>
        <time>2026-08-29T09:09:44Z</time>
      </trkpt>
      <trkpt lat="50.674520367756486" lon="13.290502158924937">
        <ele>473</ele>
        <time>2026-08-29T09:09:45Z</time>
      </trkpt>
      <trkpt lat="50.674522630870342" lon="13.290475504472852">
        <ele>473</ele>
        <time>2026-08-29T09:09:46Z</time>
      </trkpt>
      <trkpt lat="50.674524391070008" lon="13.290447425097227">
        <ele>472</ele>
        <time>2026-08-29T09:09:47Z</time>
      </trkpt>
      <trkpt lat="50.674524558708072" lon="13.290410209447145">
        <ele>472</ele>
        <time>2026-08-29T09:09:48Z</time>
      </trkpt>
      <trkpt lat="50.67452690564096" lon="13.290372909978032">
        <ele>472</ele>
        <time>2026-08-29T09:09:49Z</time>
      </trkpt>
      <trkpt lat="50.674519781023264" lon="13.290338292717934">
        <ele>472</ele>
        <time>2026-08-29T09:09:50Z</time>
      </trkpt>
      <trkpt lat="50.674516092985868" lon="13.290297640487552">
        <ele>473</ele>
        <time>2026-08-29T09:09:51Z</time>
      </trkpt>
      <trkpt lat="50.674518020823598" lon="13.290251204743981">
        <ele>472</ele>
        <time>2026-08-29T09:09:52Z</time>
      </trkpt>
      <trkpt lat="50.674524307250977" lon="13.290200494229794">
        <ele>472</ele>
        <time>2026-08-29T09:09:53Z</time>
      </trkpt>
      <trkpt lat="50.674534365534782" lon="13.290151124820113">
        <ele>472</ele>
        <time>2026-08-29T09:09:54Z</time>
      </trkpt>
      <trkpt lat="50.674542663618922" lon="13.290099995210767">
        <ele>472</ele>
        <time>2026-08-29T09:09:55Z</time>
      </trkpt>
      <trkpt lat="50.674554817378521" lon="13.290051212534308">
        <ele>472</ele>
        <time>2026-08-29T09:09:56Z</time>
      </trkpt>
      <trkpt lat="50.67456697113812" lon="13.28999899327755">
        <ele>472</ele>
        <time>2026-08-29T09:09:57Z</time>
      </trkpt>
      <trkpt lat="50.674580717459321" lon="13.289951635524631">
        <ele>472</ele>
        <time>2026-08-29T09:09:58Z</time>
      </trkpt>
      <trkpt lat="50.674596391618252" lon="13.289891621097922">
        <ele>472</ele>
        <time>2026-08-29T09:09:59Z</time>
      </trkpt>
      <trkpt lat="50.674616005271673" lon="13.289830852299929">
        <ele>472</ele>
        <time>2026-08-29T09:10:00Z</time>
      </trkpt>
      <trkpt lat="50.674641150981188" lon="13.289778046309948">
        <ele>471</ele>
        <time>2026-08-29T09:10:01Z</time>
      </trkpt>
      <trkpt lat="50.674665542319417" lon="13.289730856195092">
        <ele>471</ele>
        <time>2026-08-29T09:10:02Z</time>
      </trkpt>
      <trkpt lat="50.674694459885359" lon="13.289683246985078">
        <ele>471</ele>
        <time>2026-08-29T09:10:03Z</time>
      </trkpt>
      <trkpt lat="50.674719102680683" lon="13.289636727422476">
        <ele>470</ele>
        <time>2026-08-29T09:10:04Z</time>
      </trkpt>
      <trkpt lat="50.674745673313737" lon="13.289588112384081">
        <ele>471</ele>
        <time>2026-08-29T09:10:05Z</time>
      </trkpt>
      <trkpt lat="50.674770567566156" lon="13.289536815136671">
        <ele>471</ele>
        <time>2026-08-29T09:10:06Z</time>
      </trkpt>
      <trkpt lat="50.674793450161815" lon="13.289482919499278">
        <ele>471</ele>
        <time>2026-08-29T09:10:07Z</time>
      </trkpt>
      <trkpt lat="50.674824798479676" lon="13.289423491805792">
        <ele>471</ele>
        <time>2026-08-29T09:10:08Z</time>
      </trkpt>
      <trkpt lat="50.674856901168823" lon="13.289376301690936">
        <ele>470</ele>
        <time>2026-08-29T09:10:09Z</time>
      </trkpt>
      <trkpt lat="50.674882885068655" lon="13.289338415488601">
        <ele>471</ele>
        <time>2026-08-29T09:10:10Z</time>
      </trkpt>
      <trkpt lat="50.674909288063645" lon="13.289303379133344">
        <ele>471</ele>
        <time>2026-08-29T09:10:11Z</time>
      </trkpt>
      <trkpt lat="50.674932673573494" lon="13.289265325292945">
        <ele>471</ele>
        <time>2026-08-29T09:10:12Z</time>
      </trkpt>
      <trkpt lat="50.674960501492023" lon="13.289225175976753">
        <ele>471</ele>
        <time>2026-08-29T09:10:13Z</time>
      </trkpt>
      <trkpt lat="50.674989502876997" lon="13.289183098822832">
        <ele>471</ele>
        <time>2026-08-29T09:10:14Z</time>
      </trkpt>
      <trkpt lat="50.675021689385176" lon="13.289144122973084">
        <ele>471</ele>
        <time>2026-08-29T09:10:15Z</time>
      </trkpt>
      <trkpt lat="50.675056222826242" lon="13.289103386923671">
        <ele>471</ele>
        <time>2026-08-29T09:10:16Z</time>
      </trkpt>
      <trkpt lat="50.675088157877326" lon="13.289056783542037">
        <ele>471</ele>
        <time>2026-08-29T09:10:17Z</time>
      </trkpt>
      <trkpt lat="50.675115985795856" lon="13.289012694731355">
        <ele>471</ele>
        <time>2026-08-29T09:10:18Z</time>
      </trkpt>
      <trkpt lat="50.675147501751781" lon="13.288975143805146">
        <ele>471</ele>
        <time>2026-08-29T09:10:19Z</time>
      </trkpt>
      <trkpt lat="50.675179269164801" lon="13.28894111327827">
        <ele>471</ele>
        <time>2026-08-29T09:10:20Z</time>
      </trkpt>
      <trkpt lat="50.675211288034916" lon="13.288902221247554">
        <ele>472</ele>
        <time>2026-08-29T09:10:21Z</time>
      </trkpt>
      <trkpt lat="50.675237020477653" lon="13.288860311731696">
        <ele>472</ele>
        <time>2026-08-29T09:10:22Z</time>
      </trkpt>
      <trkpt lat="50.675259651616216" lon="13.288816809654236">
        <ele>472</ele>
        <time>2026-08-29T09:10:23Z</time>
      </trkpt>
      <trkpt lat="50.675286138430238" lon="13.288776660338044">
        <ele>473</ele>
        <time>2026-08-29T09:10:24Z</time>
      </trkpt>
      <trkpt lat="50.675314050167799" lon="13.288738690316677">
        <ele>473</ele>
        <time>2026-08-29T09:10:25Z</time>
      </trkpt>
      <trkpt lat="50.675339447334409" lon="13.288703737780452">
        <ele>472</ele>
        <time>2026-08-29T09:10:26Z</time>
      </trkpt>
      <trkpt lat="50.675361240282655" lon="13.288667779415846">
        <ele>473</ele>
        <time>2026-08-29T09:10:27Z</time>
      </trkpt>
      <trkpt lat="50.675384541973472" lon="13.288636850193143">
        <ele>473</ele>
        <time>2026-08-29T09:10:28Z</time>
      </trkpt>
      <trkpt lat="50.675411699339747" lon="13.288607681170106">
        <ele>473</ele>
        <time>2026-08-29T09:10:29Z</time>
      </trkpt>
      <trkpt lat="50.675440868362784" lon="13.288573483005166">
        <ele>472</ele>
        <time>2026-08-29T09:10:30Z</time>
      </trkpt>
      <trkpt lat="50.675466600805521" lon="13.288534339517355">
        <ele>472</ele>
        <time>2026-08-29T09:10:31Z</time>
      </trkpt>
      <trkpt lat="50.675492500886321" lon="13.288496620953083">
        <ele>472</ele>
        <time>2026-08-29T09:10:32Z</time>
      </trkpt>
      <trkpt lat="50.675521921366453" lon="13.288455633446574">
        <ele>472</ele>
        <time>2026-08-29T09:10:33Z</time>
      </trkpt>
      <trkpt lat="50.675550000742078" lon="13.288422608748078">
        <ele>472</ele>
        <time>2026-08-29T09:10:34Z</time>
      </trkpt>
      <trkpt lat="50.675584031268954" lon="13.288390757516026">
        <ele>472</ele>
        <time>2026-08-29T09:10:35Z</time>
      </trkpt>
      <trkpt lat="50.675616636872292" lon="13.288352787494659">
        <ele>472</ele>
        <time>2026-08-29T09:10:36Z</time>
      </trkpt>
      <trkpt lat="50.675651170313358" lon="13.288313979282975">
        <ele>473</ele>
        <time>2026-08-29T09:10:37Z</time>
      </trkpt>
      <trkpt lat="50.675681596621871" lon="13.288279697299004">
        <ele>472</ele>
        <time>2026-08-29T09:10:38Z</time>
      </trkpt>
      <trkpt lat="50.675712861120701" lon="13.288248181343079">
        <ele>473</ele>
        <time>2026-08-29T09:10:39Z</time>
      </trkpt>
      <trkpt lat="50.675741443410516" lon="13.2882125582546">
        <ele>472</ele>
        <time>2026-08-29T09:10:40Z</time>
      </trkpt>
      <trkpt lat="50.67576952278614" lon="13.288176096975803">
        <ele>472</ele>
        <time>2026-08-29T09:10:41Z</time>
      </trkpt>
      <trkpt lat="50.675799110904336" lon="13.288137204945087">
        <ele>472</ele>
        <time>2026-08-29T09:10:42Z</time>
      </trkpt>
      <trkpt lat="50.675824675709009" lon="13.288100324571133">
        <ele>473</ele>
        <time>2026-08-29T09:10:43Z</time>
      </trkpt>
      <trkpt lat="50.675850743427873" lon="13.288070484995842">
        <ele>473</ele>
        <time>2026-08-29T09:10:44Z</time>
      </trkpt>
      <trkpt lat="50.6758804153651" lon="13.288042489439249">
        <ele>473</ele>
        <time>2026-08-29T09:10:45Z</time>
      </trkpt>
      <trkpt lat="50.675906231626868" lon="13.288020361214876">
        <ele>473</ele>
        <time>2026-08-29T09:10:46Z</time>
      </trkpt>
      <trkpt lat="50.675927186384797" lon="13.287991778925061">
        <ele>472</ele>
        <time>2026-08-29T09:10:47Z</time>
      </trkpt>
      <trkpt lat="50.675950990989804" lon="13.287962358444929">
        <ele>472</ele>
        <time>2026-08-29T09:10:48Z</time>
      </trkpt>
      <trkpt lat="50.675975047051907" lon="13.287937045097351">
        <ele>472</ele>
        <time>2026-08-29T09:10:49Z</time>
      </trkpt>
      <trkpt lat="50.676002288237214" lon="13.287915168330073">
        <ele>472</ele>
        <time>2026-08-29T09:10:50Z</time>
      </trkpt>
      <trkpt lat="50.676031960174441" lon="13.28789446502924">
        <ele>472</ele>
        <time>2026-08-29T09:10:51Z</time>
      </trkpt>
      <trkpt lat="50.676060458645225" lon="13.287871582433581">
        <ele>472</ele>
        <time>2026-08-29T09:10:52Z</time>
      </trkpt>
      <trkpt lat="50.676088118925691" lon="13.28784023411572">
        <ele>472</ele>
        <time>2026-08-29T09:10:53Z</time>
      </trkpt>
      <trkpt lat="50.676117707043886" lon="13.287809723988175">
        <ele>472</ele>
        <time>2026-08-29T09:10:54Z</time>
      </trkpt>
      <trkpt lat="50.676144026219845" lon="13.287775609642267">
        <ele>472</ele>
        <time>2026-08-29T09:10:55Z</time>
      </trkpt>
      <trkpt lat="50.676172189414501" lon="13.287747446447611">
        <ele>472</ele>
        <time>2026-08-29T09:10:56Z</time>
      </trkpt>
      <trkpt lat="50.676202531903982" lon="13.287712158635259">
        <ele>472</ele>
        <time>2026-08-29T09:10:57Z</time>
      </trkpt>
      <trkpt lat="50.676231198012829" lon="13.287682570517063">
        <ele>472</ele>
        <time>2026-08-29T09:10:58Z</time>
      </trkpt>
      <trkpt lat="50.676257098093629" lon="13.287645522505045">
        <ele>472</ele>
        <time>2026-08-29T09:10:59Z</time>
      </trkpt>
      <trkpt lat="50.676283081993461" lon="13.287607720121741">
        <ele>472</ele>
        <time>2026-08-29T09:11:00Z</time>
      </trkpt>
      <trkpt lat="50.676315939053893" lon="13.287572851404548">
        <ele>471</ele>
        <time>2026-08-29T09:11:01Z</time>
      </trkpt>
      <trkpt lat="50.676341587677598" lon="13.287532534450293">
        <ele>471</ele>
        <time>2026-08-29T09:11:02Z</time>
      </trkpt>
      <trkpt lat="50.67637050524354" lon="13.287499928846955">
        <ele>471</ele>
        <time>2026-08-29T09:11:03Z</time>
      </trkpt>
      <trkpt lat="50.676401099190116" lon="13.287462964653969">
        <ele>472</ele>
        <time>2026-08-29T09:11:04Z</time>
      </trkpt>
      <trkpt lat="50.676427837461233" lon="13.287430945783854">
        <ele>472</ele>
        <time>2026-08-29T09:11:05Z</time>
      </trkpt>
      <trkpt lat="50.676450887694955" lon="13.287393897771835">
        <ele>472</ele>
        <time>2026-08-29T09:11:06Z</time>
      </trkpt>
      <trkpt lat="50.676475111395121" lon="13.287360453978181">
        <ele>472</ele>
        <time>2026-08-29T09:11:07Z</time>
      </trkpt>
      <trkpt lat="50.676497239619493" lon="13.28731938265264">
        <ele>472</ele>
        <time>2026-08-29T09:11:08Z</time>
      </trkpt>
      <trkpt lat="50.676515679806471" lon="13.287276718765497">
        <ele>472</ele>
        <time>2026-08-29T09:11:09Z</time>
      </trkpt>
      <trkpt lat="50.676532695069909" lon="13.28722751699388">
        <ele>472</ele>
        <time>2026-08-29T09:11:10Z</time>
      </trkpt>
      <trkpt lat="50.676552057266235" lon="13.2871781475842">
        <ele>472</ele>
        <time>2026-08-29T09:11:11Z</time>
      </trkpt>
      <trkpt lat="50.676570581272244" lon="13.287127856165171">
        <ele>472</ele>
        <time>2026-08-29T09:11:12Z</time>
      </trkpt>
      <trkpt lat="50.676583992317319" lon="13.287083012983203">
        <ele>472</ele>
        <time>2026-08-29T09:11:13Z</time>
      </trkpt>
      <trkpt lat="50.676594721153378" lon="13.287016712129116">
        <ele>472</ele>
        <time>2026-08-29T09:11:14Z</time>
      </trkpt>
      <trkpt lat="50.676609389483929" lon="13.286954434588552">
        <ele>472</ele>
        <time>2026-08-29T09:11:15Z</time>
      </trkpt>
      <trkpt lat="50.676621040329337" lon="13.286905735731125">
        <ele>472</ele>
        <time>2026-08-29T09:11:16Z</time>
      </trkpt>
      <trkpt lat="50.676633361726999" lon="13.286849409341812">
        <ele>472</ele>
        <time>2026-08-29T09:11:17Z</time>
      </trkpt>
      <trkpt lat="50.676643839105964" lon="13.286791071295738">
        <ele>472</ele>
        <time>2026-08-29T09:11:18Z</time>
      </trkpt>
      <trkpt lat="50.676654232665896" lon="13.286734744906425">
        <ele>471</ele>
        <time>2026-08-29T09:11:19Z</time>
      </trkpt>
      <trkpt lat="50.676664039492607" lon="13.286680513992906">
        <ele>471</ele>
        <time>2026-08-29T09:11:20Z</time>
      </trkpt>
      <trkpt lat="50.676664710044861" lon="13.286627875640988">
        <ele>471</ele>
        <time>2026-08-29T09:11:21Z</time>
      </trkpt>
      <trkpt lat="50.676671415567398" lon="13.286568783223629">
        <ele>471</ele>
        <time>2026-08-29T09:11:22Z</time>
      </trkpt>
      <trkpt lat="50.676678959280252" lon="13.286505499854684">
        <ele>472</ele>
        <time>2026-08-29T09:11:23Z</time>
      </trkpt>
      <trkpt lat="50.676690023392439" lon="13.28644665889442">
        <ele>471</ele>
        <time>2026-08-29T09:11:24Z</time>
      </trkpt>
      <trkpt lat="50.676702512428164" lon="13.286381447687745">
        <ele>472</ele>
        <time>2026-08-29T09:11:25Z</time>
      </trkpt>
      <trkpt lat="50.676714330911636" lon="13.286323947831988">
        <ele>471</ele>
        <time>2026-08-29T09:11:26Z</time>
      </trkpt>
      <trkpt lat="50.67672573029995" lon="13.286255048587918">
        <ele>471</ele>
        <time>2026-08-29T09:11:27Z</time>
      </trkpt>
      <trkpt lat="50.676734028384089" lon="13.28619159758091">
        <ele>470</ele>
        <time>2026-08-29T09:11:28Z</time>
      </trkpt>
      <trkpt lat="50.676742745563388" lon="13.286130242049694">
        <ele>470</ele>
        <time>2026-08-29T09:11:29Z</time>
      </trkpt>
      <trkpt lat="50.676748612895608" lon="13.286071233451366">
        <ele>470</ele>
        <time>2026-08-29T09:11:30Z</time>
      </trkpt>
      <trkpt lat="50.676753390580416" lon="13.286004262045026">
        <ele>471</ele>
        <time>2026-08-29T09:11:31Z</time>
      </trkpt>
      <trkpt lat="50.67675800062716" lon="13.285943577066064">
        <ele>471</ele>
        <time>2026-08-29T09:11:32Z</time>
      </trkpt>
      <trkpt lat="50.676760347560048" lon="13.285880209878087">
        <ele>471</ele>
        <time>2026-08-29T09:11:33Z</time>
      </trkpt>
      <trkpt lat="50.676757330074906" lon="13.285810891538858">
        <ele>471</ele>
        <time>2026-08-29T09:11:34Z</time>
      </trkpt>
      <trkpt lat="50.676752217113972" lon="13.285751799121499">
        <ele>470</ele>
        <time>2026-08-29T09:11:35Z</time>
      </trkpt>
      <trkpt lat="50.676751881837845" lon="13.285695221275091">
        <ele>470</ele>
        <time>2026-08-29T09:11:36Z</time>
      </trkpt>
      <trkpt lat="50.676753390580416" lon="13.285634368658066">
        <ele>470</ele>
        <time>2026-08-29T09:11:37Z</time>
      </trkpt>
      <trkpt lat="50.676750289276242" lon="13.285575360059738">
        <ele>470</ele>
        <time>2026-08-29T09:11:38Z</time>
      </trkpt>
      <trkpt lat="50.676746601238847" lon="13.285507466644049">
        <ele>470</ele>
        <time>2026-08-29T09:11:39Z</time>
      </trkpt>
      <trkpt lat="50.676740482449532" lon="13.285444602370262">
        <ele>470</ele>
        <time>2026-08-29T09:11:40Z</time>
      </trkpt>
      <trkpt lat="50.676733860746026" lon="13.285382408648729">
        <ele>470</ele>
        <time>2026-08-29T09:11:41Z</time>
      </trkpt>
      <trkpt lat="50.676723970100284" lon="13.285318119451404">
        <ele>470</ele>
        <time>2026-08-29T09:11:42Z</time>
      </trkpt>
      <trkpt lat="50.676712738350034" lon="13.285250645130873">
        <ele>471</ele>
        <time>2026-08-29T09:11:43Z</time>
      </trkpt>
      <trkpt lat="50.676704356446862" lon="13.285189038142562">
        <ele>471</ele>
        <time>2026-08-29T09:11:44Z</time>
      </trkpt>
      <trkpt lat="50.676696728914976" lon="13.285132963210344">
        <ele>470</ele>
        <time>2026-08-29T09:11:45Z</time>
      </trkpt>
      <trkpt lat="50.676686754450202" lon="13.285073284059763">
        <ele>470</ele>
        <time>2026-08-29T09:11:46Z</time>
      </trkpt>
      <trkpt lat="50.676684491336346" lon="13.285015784204006">
        <ele>470</ele>
        <time>2026-08-29T09:11:47Z</time>
      </trkpt>
      <trkpt lat="50.676682898774743" lon="13.28494219109416">
        <ele>470</ele>
        <time>2026-08-29T09:11:48Z</time>
      </trkpt>
      <trkpt lat="50.676680048927665" lon="13.284877734258771">
        <ele>470</ele>
        <time>2026-08-29T09:11:49Z</time>
      </trkpt>
      <trkpt lat="50.676674181595445" lon="13.284822916612029">
        <ele>470</ele>
        <time>2026-08-29T09:11:50Z</time>
      </trkpt>
      <trkpt lat="50.676670577377081" lon="13.284768015146255">
        <ele>470</ele>
        <time>2026-08-29T09:11:51Z</time>
      </trkpt>
      <trkpt lat="50.676668817177415" lon="13.284714706242085">
        <ele>470</ele>
        <time>2026-08-29T09:11:52Z</time>
      </trkpt>
      <trkpt lat="50.676665045320988" lon="13.284669108688831">
        <ele>470</ele>
        <time>2026-08-29T09:11:53Z</time>
      </trkpt>
      <trkpt lat="50.676669152453542" lon="13.284628707915545">
        <ele>470</ele>
        <time>2026-08-29T09:11:54Z</time>
      </trkpt>
      <trkpt lat="50.676675019785762" lon="13.284588726237416">
        <ele>470</ele>
        <time>2026-08-29T09:11:55Z</time>
      </trkpt>
      <trkpt lat="50.676680048927665" lon="13.284552935510874">
        <ele>470</ele>
        <time>2026-08-29T09:11:56Z</time>
      </trkpt>
      <trkpt lat="50.676687089726329" lon="13.284517982974648">
        <ele>470</ele>
        <time>2026-08-29T09:11:57Z</time>
      </trkpt>
      <trkpt lat="50.676687760278583" lon="13.284487221390009">
        <ele>470</ele>
        <time>2026-08-29T09:11:58Z</time>
      </trkpt>
      <trkpt lat="50.67668667063117" lon="13.284450843930244">
        <ele>470</ele>
        <time>2026-08-29T09:11:59Z</time>
      </trkpt>
      <trkpt lat="50.676685161888599" lon="13.284418657422066">
        <ele>471</ele>
        <time>2026-08-29T09:12:00Z</time>
      </trkpt>
      <trkpt lat="50.676684910431504" lon="13.284393763169646">
        <ele>471</ele>
        <time>2026-08-29T09:12:01Z</time>
      </trkpt>
      <trkpt lat="50.676690861582756" lon="13.284374233335257">
        <ele>471</ele>
        <time>2026-08-29T09:12:02Z</time>
      </trkpt>
      <trkpt lat="50.676694130524993" lon="13.284352608025074">
        <ele>471</ele>
        <time>2026-08-29T09:12:03Z</time>
      </trkpt>
      <trkpt lat="50.676697315648198" lon="13.284332826733589">
        <ele>471</ele>
        <time>2026-08-29T09:12:04Z</time>
      </trkpt>
      <trkpt lat="50.676707960665226" lon="13.28431430272758">
        <ele>471</ele>
        <time>2026-08-29T09:12:05Z</time>
      </trkpt>
      <trkpt lat="50.676714750006795" lon="13.284298041835427">
        <ele>471</ele>
        <time>2026-08-29T09:12:06Z</time>
      </trkpt>
      <trkpt lat="50.67671692930162" lon="13.284282702952623">
        <ele>472</ele>
        <time>2026-08-29T09:12:07Z</time>
      </trkpt>
      <trkpt lat="50.676719360053539" lon="13.284264849498868">
        <ele>472</ele>
        <time>2026-08-29T09:12:08Z</time>
      </trkpt>
      <trkpt lat="50.676724221557379" lon="13.284250097349286">
        <ele>472</ele>
        <time>2026-08-29T09:12:09Z</time>
      </trkpt>
      <trkpt lat="50.676729083061218" lon="13.284223694354296">
        <ele>472</ele>
        <time>2026-08-29T09:12:10Z</time>
      </trkpt>
      <trkpt lat="50.676736040040851" lon="13.284198129549623">
        <ele>472</ele>
        <time>2026-08-29T09:12:11Z</time>
      </trkpt>
      <trkpt lat="50.676741823554039" lon="13.284173486754298">
        <ele>472</ele>
        <time>2026-08-29T09:12:12Z</time>
      </trkpt>
      <trkpt lat="50.676749451085925" lon="13.284148760139942">
        <ele>472</ele>
        <time>2026-08-29T09:12:13Z</time>
      </trkpt>
      <trkpt lat="50.676757749170065" lon="13.284122021868825">
        <ele>473</ele>
        <time>2026-08-29T09:12:14Z</time>
      </trkpt>
      <trkpt lat="50.676763029769063" lon="13.284097798168659">
        <ele>473</ele>
        <time>2026-08-29T09:12:15Z</time>
      </trkpt>
      <trkpt lat="50.676768310368061" lon="13.284075334668159">
        <ele>473</ele>
        <time>2026-08-29T09:12:16Z</time>
      </trkpt>
      <trkpt lat="50.676771579310298" lon="13.284055218100548">
        <ele>473</ele>
        <time>2026-08-29T09:12:17Z</time>
      </trkpt>
      <trkpt lat="50.676778201013803" lon="13.284025378525257">
        <ele>473</ele>
        <time>2026-08-29T09:12:18Z</time>
      </trkpt>
      <trkpt lat="50.676784068346024" lon="13.284003501757979">
        <ele>474</ele>
        <time>2026-08-29T09:12:19Z</time>
      </trkpt>
      <trkpt lat="50.676788929849863" lon="13.283980032429099">
        <ele>474</ele>
        <time>2026-08-29T09:12:20Z</time>
      </trkpt>
      <trkpt lat="50.676795551553369" lon="13.283956982195377">
        <ele>474</ele>
        <time>2026-08-29T09:12:21Z</time>
      </trkpt>
      <trkpt lat="50.676803514361382" lon="13.283938206732273">
        <ele>474</ele>
        <time>2026-08-29T09:12:22Z</time>
      </trkpt>
      <trkpt lat="50.676804352551699" lon="13.283917168155313">
        <ele>474</ele>
        <time>2026-08-29T09:12:23Z</time>
      </trkpt>
      <trkpt lat="50.676809130236506" lon="13.283895710483193">
        <ele>475</ele>
        <time>2026-08-29T09:12:24Z</time>
      </trkpt>
      <trkpt lat="50.676816757768393" lon="13.28387894667685">
        <ele>475</ele>
        <time>2026-08-29T09:12:25Z</time>
      </trkpt>
      <trkpt lat="50.676817428320646" lon="13.283864613622427">
        <ele>475</ele>
        <time>2026-08-29T09:12:26Z</time>
      </trkpt>
      <trkpt lat="50.676817428320646" lon="13.283845670521259">
        <ele>475</ele>
        <time>2026-08-29T09:12:27Z</time>
      </trkpt>
      <trkpt lat="50.676817009225488" lon="13.283821949735284">
        <ele>475</ele>
        <time>2026-08-29T09:12:28Z</time>
      </trkpt>
      <trkpt lat="50.676821116358042" lon="13.283797893673182">
        <ele>475</ele>
        <time>2026-08-29T09:12:29Z</time>
      </trkpt>
      <trkpt lat="50.676822206005454" lon="13.283771406859159">
        <ele>475</ele>
        <time>2026-08-29T09:12:30Z</time>
      </trkpt>
      <trkpt lat="50.676826145499945" lon="13.283747266978025">
        <ele>476</ele>
        <time>2026-08-29T09:12:31Z</time>
      </trkpt>
      <trkpt lat="50.676829749718308" lon="13.28370988368988">
        <ele>476</ele>
        <time>2026-08-29T09:12:32Z</time>
      </trkpt>
      <trkpt lat="50.676834108307958" lon="13.283667555078864">
        <ele>476</ele>
        <time>2026-08-29T09:12:33Z</time>
      </trkpt>
      <trkpt lat="50.676850704476237" lon="13.283629082143307">
        <ele>476</ele>
        <time>2026-08-29T09:12:34Z</time>
      </trkpt>
      <trkpt lat="50.676866881549358" lon="13.283602511510253">
        <ele>476</ele>
        <time>2026-08-29T09:12:35Z</time>
      </trkpt>
      <trkpt lat="50.676882890984416" lon="13.283571917563677">
        <ele>476</ele>
        <time>2026-08-29T09:12:36Z</time>
      </trkpt>
      <trkpt lat="50.676901331171393" lon="13.283537300303578">
        <ele>476</ele>
        <time>2026-08-29T09:12:37Z</time>
      </trkpt>
      <trkpt lat="50.676912060007453" lon="13.283504275605083">
        <ele>476</ele>
        <time>2026-08-29T09:12:38Z</time>
      </trkpt>
      <trkpt lat="50.676924297586083" lon="13.283470831811428">
        <ele>475</ele>
        <time>2026-08-29T09:12:39Z</time>
      </trkpt>
      <trkpt lat="50.676940558478236" lon="13.283443674445152">
        <ele>475</ele>
        <time>2026-08-29T09:12:40Z</time>
      </trkpt>
      <trkpt lat="50.676956148818135" lon="13.283411739394069">
        <ele>476</ele>
        <time>2026-08-29T09:12:41Z</time>
      </trkpt>
      <trkpt lat="50.676972325891256" lon="13.283379217609763">
        <ele>476</ele>
        <time>2026-08-29T09:12:42Z</time>
      </trkpt>
      <trkpt lat="50.676989341154695" lon="13.283345103263855">
        <ele>476</ele>
        <time>2026-08-29T09:12:43Z</time>
      </trkpt>
      <trkpt lat="50.677004680037498" lon="13.28331015072763">
        <ele>476</ele>
        <time>2026-08-29T09:12:44Z</time>
      </trkpt>
      <trkpt lat="50.677016414701939" lon="13.283270420506597">
        <ele>476</ele>
        <time>2026-08-29T09:12:45Z</time>
      </trkpt>
      <trkpt lat="50.677027981728315" lon="13.283230690285563">
        <ele>476</ele>
        <time>2026-08-29T09:12:46Z</time>
      </trkpt>
      <trkpt lat="50.677034938707948" lon="13.283185344189405">
        <ele>476</ele>
        <time>2026-08-29T09:12:47Z</time>
      </trkpt>
      <trkpt lat="50.677038542926311" lon="13.283130275085568">
        <ele>476</ele>
        <time>2026-08-29T09:12:48Z</time>
      </trkpt>
      <trkpt lat="50.677025970071554" lon="13.283075792714953">
        <ele>476</ele>
        <time>2026-08-29T09:12:49Z</time>
      </trkpt>
      <trkpt lat="50.677002584561706" lon="13.28303799033165">
        <ele>476</ele>
        <time>2026-08-29T09:12:50Z</time>
      </trkpt>
      <trkpt lat="50.676977187395096" lon="13.282999182119966">
        <ele>476</ele>
        <time>2026-08-29T09:12:51Z</time>
      </trkpt>
      <trkpt lat="50.676942570134997" lon="13.282967330887914">
        <ele>475</ele>
        <time>2026-08-29T09:12:52Z</time>
      </trkpt>
      <trkpt lat="50.676923040300608" lon="13.282908573746681">
        <ele>475</ele>
        <time>2026-08-29T09:12:53Z</time>
      </trkpt>
      <trkpt lat="50.676925219595432" lon="13.282856773585081">
        <ele>477</ele>
        <time>2026-08-29T09:12:54Z</time>
      </trkpt>
      <trkpt lat="50.676944246515632" lon="13.28281469643116">
        <ele>477</ele>
        <time>2026-08-29T09:12:55Z</time>
      </trkpt>
      <trkpt lat="50.676961680874228" lon="13.282784270122647">
        <ele>477</ele>
        <time>2026-08-29T09:12:56Z</time>
      </trkpt>
      <trkpt lat="50.676976600661874" lon="13.282747976481915">
        <ele>477</ele>
        <time>2026-08-29T09:12:57Z</time>
      </trkpt>
      <trkpt lat="50.676983390003443" lon="13.282718975096941">
        <ele>477</ele>
        <time>2026-08-29T09:12:58Z</time>
      </trkpt>
      <trkpt lat="50.676992610096931" lon="13.282688045874238">
        <ele>477</ele>
        <time>2026-08-29T09:12:59Z</time>
      </trkpt>
      <trkpt lat="50.677007948979735" lon="13.282661223784089">
        <ele>478</ele>
        <time>2026-08-29T09:13:00Z</time>
      </trkpt>
      <trkpt lat="50.677016330882907" lon="13.282620990648866">
        <ele>479</ele>
        <time>2026-08-29T09:13:01Z</time>
      </trkpt>
      <trkpt lat="50.677023958414793" lon="13.282584361732006">
        <ele>479</ele>
        <time>2026-08-29T09:13:02Z</time>
      </trkpt>
      <trkpt lat="50.67703016102314" lon="13.28256013803184">
        <ele>480</ele>
        <time>2026-08-29T09:13:03Z</time>
      </trkpt>
      <trkpt lat="50.677039967849851" lon="13.282541949301958">
        <ele>480</ele>
        <time>2026-08-29T09:13:04Z</time>
      </trkpt>
      <trkpt lat="50.677053797990084" lon="13.282521581277251">
        <ele>480</ele>
        <time>2026-08-29T09:13:05Z</time>
      </trkpt>
      <trkpt lat="50.677064107730985" lon="13.282495513558388">
        <ele>480</ele>
        <time>2026-08-29T09:13:06Z</time>
      </trkpt>
      <trkpt lat="50.677072741091251" lon="13.282475564628839">
        <ele>480</ele>
        <time>2026-08-29T09:13:07Z</time>
      </trkpt>
      <trkpt lat="50.677077015861869" lon="13.282452682033181">
        <ele>480</ele>
        <time>2026-08-29T09:13:08Z</time>
      </trkpt>
      <trkpt lat="50.677082547917962" lon="13.28243306837976">
        <ele>480</ele>
        <time>2026-08-29T09:13:09Z</time>
      </trkpt>
      <trkpt lat="50.677084559574723" lon="13.282407335937023">
        <ele>480</ele>
        <time>2026-08-29T09:13:10Z</time>
      </trkpt>
      <trkpt lat="50.677084811031818" lon="13.282375233247876">
        <ele>480</ele>
        <time>2026-08-29T09:13:11Z</time>
      </trkpt>
      <trkpt lat="50.677085649222136" lon="13.282349081709981">
        <ele>480</ele>
        <time>2026-08-29T09:13:12Z</time>
      </trkpt>
      <trkpt lat="50.677093947306275" lon="13.282326282933354">
        <ele>480</ele>
        <time>2026-08-29T09:13:13Z</time>
      </trkpt>
      <trkpt lat="50.677097635343671" lon="13.28230801038444">
        <ele>480</ele>
        <time>2026-08-29T09:13:14Z</time>
      </trkpt>
      <trkpt lat="50.677097719162703" lon="13.282283870503306">
        <ele>481</ele>
        <time>2026-08-29T09:13:15Z</time>
      </trkpt>
      <trkpt lat="50.677085984498262" lon="13.282273896038532">
        <ele>481</ele>
        <time>2026-08-29T09:13:16Z</time>
      </trkpt>
      <trkpt lat="50.677083050832152" lon="13.282255036756396">
        <ele>481</ele>
        <time>2026-08-29T09:13:17Z</time>
      </trkpt>
      <trkpt lat="50.677084559574723" lon="13.282234920188785">
        <ele>480</ele>
        <time>2026-08-29T09:13:18Z</time>
      </trkpt>
      <trkpt lat="50.677089588716626" lon="13.282228130847216">
        <ele>480</ele>
        <time>2026-08-29T09:13:19Z</time>
      </trkpt>
      <trkpt lat="50.677089421078563" lon="13.282218743115664">
        <ele>481</ele>
        <time>2026-08-29T09:13:20Z</time>
      </trkpt>
      <trkpt lat="50.677089421078563" lon="13.282204493880272">
        <ele>481</ele>
        <time>2026-08-29T09:13:21Z</time>
      </trkpt>
      <trkpt lat="50.677088079974055" lon="13.282184544950724">
        <ele>481</ele>
        <time>2026-08-29T09:13:22Z</time>
      </trkpt>
      <trkpt lat="50.677089588716626" lon="13.282170379534364">
        <ele>481</ele>
        <time>2026-08-29T09:13:23Z</time>
      </trkpt>
      <trkpt lat="50.677094198763371" lon="13.282153783366084">
        <ele>481</ele>
        <time>2026-08-29T09:13:24Z</time>
      </trkpt>
      <trkpt lat="50.677088582888246" lon="13.282140791416168">
        <ele>481</ele>
        <time>2026-08-29T09:13:25Z</time>
      </trkpt>
      <trkpt lat="50.677081290632486" lon="13.28214330598712">
        <ele>481</ele>
        <time>2026-08-29T09:13:26Z</time>
      </trkpt>
      <trkpt lat="50.677070980891585" lon="13.28213450498879">
        <ele>481</ele>
        <time>2026-08-29T09:13:27Z</time>
      </trkpt>
      <trkpt lat="50.67706092260778" lon="13.282129559665918">
        <ele>481</ele>
        <time>2026-08-29T09:13:28Z</time>
      </trkpt>
      <trkpt lat="50.677055977284908" lon="13.282121848315001">
        <ele>482</ele>
        <time>2026-08-29T09:13:29Z</time>
      </trkpt>
      <trkpt lat="50.677054887637496" lon="13.282106090337038">
        <ele>482</ele>
        <time>2026-08-29T09:13:30Z</time>
      </trkpt>
      <trkpt lat="50.677054300904274" lon="13.282090248540044">
        <ele>482</ele>
        <time>2026-08-29T09:13:31Z</time>
      </trkpt>
      <trkpt lat="50.677054971456528" lon="13.28207784332335">
        <ele>482</ele>
        <time>2026-08-29T09:13:32Z</time>
      </trkpt>
      <trkpt lat="50.677058910951018" lon="13.282064599916339">
        <ele>482</ele>
        <time>2026-08-29T09:13:33Z</time>
      </trkpt>
      <trkpt lat="50.677062598988414" lon="13.282042974606156">
        <ele>482</ele>
        <time>2026-08-29T09:13:34Z</time>
      </trkpt>
      <trkpt lat="50.677063940092921" lon="13.28202554024756">
        <ele>483</ele>
        <time>2026-08-29T09:13:35Z</time>
      </trkpt>
      <trkpt lat="50.677066035568714" lon="13.282005758956075">
        <ele>483</ele>
        <time>2026-08-29T09:13:36Z</time>
      </trkpt>
      <trkpt lat="50.677064107730985" lon="13.281983714550734">
        <ele>483</ele>
        <time>2026-08-29T09:13:37Z</time>
      </trkpt>
      <trkpt lat="50.677062012255192" lon="13.281965777277946">
        <ele>484</ele>
        <time>2026-08-29T09:13:38Z</time>
      </trkpt>
      <trkpt lat="50.677064778283238" lon="13.281953791156411">
        <ele>484</ele>
        <time>2026-08-29T09:13:39Z</time>
      </trkpt>
      <trkpt lat="50.677066370844841" lon="13.281936859712005">
        <ele>485</ele>
        <time>2026-08-29T09:13:40Z</time>
      </trkpt>
      <trkpt lat="50.677067041397095" lon="13.281914396211505">
        <ele>485</ele>
        <time>2026-08-29T09:13:41Z</time>
      </trkpt>
      <trkpt lat="50.677052959799767" lon="13.281895285472274">
        <ele>484</ele>
        <time>2026-08-29T09:13:42Z</time>
      </trkpt>
      <trkpt lat="50.67704139277339" lon="13.281881622970104">
        <ele>485</ele>
        <time>2026-08-29T09:13:43Z</time>
      </trkpt>
      <trkpt lat="50.677033010870218" lon="13.281860668212175">
        <ele>485</ele>
        <time>2026-08-29T09:13:44Z</time>
      </trkpt>
      <trkpt lat="50.677037620916963" lon="13.281838037073612">
        <ele>485</ele>
        <time>2026-08-29T09:13:45Z</time>
      </trkpt>
      <trkpt lat="50.677039213478565" lon="13.281821440905333">
        <ele>484</ele>
        <time>2026-08-29T09:13:46Z</time>
      </trkpt>
      <trkpt lat="50.677038878202438" lon="13.2818076107651">
        <ele>485</ele>
        <time>2026-08-29T09:13:47Z</time>
      </trkpt>
      <trkpt lat="50.677041560411453" lon="13.281789673492312">
        <ele>484</ele>
        <time>2026-08-29T09:13:48Z</time>
      </trkpt>
      <trkpt lat="50.677042901515961" lon="13.281784895807505">
        <ele>484</ele>
        <time>2026-08-29T09:13:49Z</time>
      </trkpt>
      <trkpt lat="50.677047092467546" lon="13.281764863058925">
        <ele>483</ele>
        <time>2026-08-29T09:13:50Z</time>
      </trkpt>
      <trkpt lat="50.677055977284908" lon="13.281750781461596">
        <ele>483</ele>
        <time>2026-08-29T09:13:51Z</time>
      </trkpt>
      <trkpt lat="50.677058408036828" lon="13.281732341274619">
        <ele>483</ele>
        <time>2026-08-29T09:13:52Z</time>
      </trkpt>
      <trkpt lat="50.677063437178731" lon="13.281715493649244">
        <ele>483</ele>
        <time>2026-08-29T09:13:53Z</time>
      </trkpt>
      <trkpt lat="50.677059162408113" lon="13.28169671818614">
        <ele>483</ele>
        <time>2026-08-29T09:13:54Z</time>
      </trkpt>
      <trkpt lat="50.677056647837162" lon="13.28167861327529">
        <ele>483</ele>
        <time>2026-08-29T09:13:55Z</time>
      </trkpt>
      <trkpt lat="50.677051618695259" lon="13.281655060127378">
        <ele>483</ele>
        <time>2026-08-29T09:13:56Z</time>
      </trkpt>
      <trkpt lat="50.6770477630198" lon="13.281637374311686">
        <ele>483</ele>
        <time>2026-08-29T09:13:57Z</time>
      </trkpt>
      <trkpt lat="50.677040722221136" lon="13.281621616333723">
        <ele>483</ele>
        <time>2026-08-29T09:13:58Z</time>
      </trkpt>
      <trkpt lat="50.677037369459867" lon="13.281602002680302">
        <ele>483</ele>
        <time>2026-08-29T09:13:59Z</time>
      </trkpt>
      <trkpt lat="50.677028149366379" lon="13.28158238902688">
        <ele>483</ele>
        <time>2026-08-29T09:14:00Z</time>
      </trkpt>
      <trkpt lat="50.677025718614459" lon="13.281559841707349">
        <ele>483</ele>
        <time>2026-08-29T09:14:01Z</time>
      </trkpt>
      <trkpt lat="50.677028736099601" lon="13.281532097607851">
        <ele>483</ele>
        <time>2026-08-29T09:14:02Z</time>
      </trkpt>
      <trkpt lat="50.67702965810895" lon="13.281509466469288">
        <ele>483</ele>
        <time>2026-08-29T09:14:03Z</time>
      </trkpt>
      <trkpt lat="50.677032675594091" lon="13.281482728198171">
        <ele>484</ele>
        <time>2026-08-29T09:14:04Z</time>
      </trkpt>
      <trkpt lat="50.677029490470886" lon="13.281460599973798">
        <ele>484</ele>
        <time>2026-08-29T09:14:05Z</time>
      </trkpt>
      <trkpt lat="50.677032424136996" lon="13.281437801197171">
        <ele>484</ele>
        <time>2026-08-29T09:14:06Z</time>
      </trkpt>
      <trkpt lat="50.677033513784409" lon="13.28141282312572">
        <ele>484</ele>
        <time>2026-08-29T09:14:07Z</time>
      </trkpt>
      <trkpt lat="50.677036698907614" lon="13.281391197815537">
        <ele>484</ele>
        <time>2026-08-29T09:14:08Z</time>
      </trkpt>
      <trkpt lat="50.677039800211787" lon="13.281369656324387">
        <ele>484</ele>
        <time>2026-08-29T09:14:09Z</time>
      </trkpt>
      <trkpt lat="50.677042314782739" lon="13.281346019357443">
        <ele>485</ele>
        <time>2026-08-29T09:14:10Z</time>
      </trkpt>
      <trkpt lat="50.677042063325644" lon="13.281326657161117">
        <ele>485</ele>
        <time>2026-08-29T09:14:11Z</time>
      </trkpt>
      <trkpt lat="50.677040722221136" lon="13.281307546421885">
        <ele>485</ele>
        <time>2026-08-29T09:14:12Z</time>
      </trkpt>
      <trkpt lat="50.677043236792088" lon="13.281278377398849">
        <ele>485</ele>
        <time>2026-08-29T09:14:13Z</time>
      </trkpt>
      <trkpt lat="50.67704239860177" lon="13.281260272487998">
        <ele>485</ele>
        <time>2026-08-29T09:14:14Z</time>
      </trkpt>
      <trkpt lat="50.677048349753022" lon="13.281238144263625">
        <ele>485</ele>
        <time>2026-08-29T09:14:15Z</time>
      </trkpt>
      <trkpt lat="50.677049439400434" lon="13.281226409599185">
        <ele>486</ele>
        <time>2026-08-29T09:14:16Z</time>
      </trkpt>
      <trkpt lat="50.677052540704608" lon="13.28121492639184">
        <ele>486</ele>
        <time>2026-08-29T09:14:17Z</time>
      </trkpt>
      <trkpt lat="50.677053881809115" lon="13.281203527003527">
        <ele>487</ele>
        <time>2026-08-29T09:14:18Z</time>
      </trkpt>
      <trkpt lat="50.677054217085242" lon="13.281192043796182">
        <ele>487</ele>
        <time>2026-08-29T09:14:19Z</time>
      </trkpt>
      <trkpt lat="50.677055306732655" lon="13.281182236969471">
        <ele>487</ele>
        <time>2026-08-29T09:14:20Z</time>
      </trkpt>
      <trkpt lat="50.677050529047847" lon="13.281167987734079">
        <ele>487</ele>
        <time>2026-08-29T09:14:21Z</time>
      </trkpt>
      <trkpt lat="50.6770443264395" lon="13.281156755983829">
        <ele>488</ele>
        <time>2026-08-29T09:14:22Z</time>
      </trkpt>
      <trkpt lat="50.677039632573724" lon="13.281153487041593">
        <ele>488</ele>
        <time>2026-08-29T09:14:23Z</time>
      </trkpt>
      <trkpt lat="50.677032088860869" lon="13.281159605830908">
        <ele>488</ele>
        <time>2026-08-29T09:14:24Z</time>
      </trkpt>
      <trkpt lat="50.67702722735703" lon="13.28118022531271">
        <ele>488</ele>
        <time>2026-08-29T09:14:25Z</time>
      </trkpt>
      <trkpt lat="50.677030831575394" lon="13.281216602772474">
        <ele>487</ele>
        <time>2026-08-29T09:14:26Z</time>
      </trkpt>
      <trkpt lat="50.677037369459867" lon="13.281253902241588">
        <ele>488</ele>
        <time>2026-08-29T09:14:27Z</time>
      </trkpt>
      <trkpt lat="50.677039548754692" lon="13.281293381005526">
        <ele>488</ele>
        <time>2026-08-29T09:14:28Z</time>
      </trkpt>
      <trkpt lat="50.677043069154024" lon="13.281341912224889">
        <ele>488</ele>
        <time>2026-08-29T09:14:29Z</time>
      </trkpt>
      <trkpt lat="50.677045751363039" lon="13.281390024349093">
        <ele>488</ele>
        <time>2026-08-29T09:14:30Z</time>
      </trkpt>
      <trkpt lat="50.677052959799767" lon="13.28143528662622">
        <ele>489</ele>
        <time>2026-08-29T09:14:31Z</time>
      </trkpt>
      <trkpt lat="50.677056312561035" lon="13.281471077352762">
        <ele>488</ele>
        <time>2026-08-29T09:14:32Z</time>
      </trkpt>
      <trkpt lat="50.677061844617128" lon="13.28150175511837">
        <ele>488</ele>
        <time>2026-08-29T09:14:33Z</time>
      </trkpt>
      <trkpt lat="50.677065700292587" lon="13.281535282731056">
        <ele>488</ele>
        <time>2026-08-29T09:14:34Z</time>
      </trkpt>
      <trkpt lat="50.677071567624807" lon="13.281561685726047">
        <ele>488</ele>
        <time>2026-08-29T09:14:35Z</time>
      </trkpt>
      <trkpt lat="50.677078021690249" lon="13.281579287722707">
        <ele>489</ele>
        <time>2026-08-29T09:14:36Z</time>
      </trkpt>
      <trkpt lat="50.677082547917962" lon="13.281598314642906">
        <ele>489</ele>
        <time>2026-08-29T09:14:37Z</time>
      </trkpt>
      <trkpt lat="50.677085649222136" lon="13.281611055135727">
        <ele>489</ele>
        <time>2026-08-29T09:14:38Z</time>
      </trkpt>
      <trkpt lat="50.677087409421802" lon="13.281618934124708">
        <ele>489</ele>
        <time>2026-08-29T09:14:39Z</time>
      </trkpt>
      <trkpt lat="50.677089337259531" lon="13.281630082055926">
        <ele>489</ele>
        <time>2026-08-29T09:14:40Z</time>
      </trkpt>
      <trkpt lat="50.677091181278229" lon="13.281646007671952">
        <ele>489</ele>
        <time>2026-08-29T09:14:41Z</time>
      </trkpt>
      <trkpt lat="50.677097551524639" lon="13.281658412888646">
        <ele>489</ele>
        <time>2026-08-29T09:14:42Z</time>
      </trkpt>
      <trkpt lat="50.677106771618128" lon="13.281660424545407">
        <ele>490</ele>
        <time>2026-08-29T09:14:43Z</time>
      </trkpt>
      <trkpt lat="50.677114399150014" lon="13.281661178916693">
        <ele>489</ele>
        <time>2026-08-29T09:14:44Z</time>
      </trkpt>
      <trkpt lat="50.677113477140665" lon="13.28165715560317">
        <ele>489</ele>
        <time>2026-08-29T09:14:45Z</time>
      </trkpt>
      <trkpt lat="50.677111214026809" lon="13.281658329069614">
        <ele>489</ele>
        <time>2026-08-29T09:14:46Z</time>
      </trkpt>
      <trkpt lat="50.677111800760031" lon="13.281655143946409">
        <ele>489</ele>
        <time>2026-08-29T09:14:47Z</time>
      </trkpt>
      <trkpt lat="50.677109956741333" lon="13.281648689880967">
        <ele>489</ele>
        <time>2026-08-29T09:14:48Z</time>
      </trkpt>
      <trkpt lat="50.677110459655523" lon="13.281648689880967">
        <ele>489</ele>
        <time>2026-08-29T09:14:49Z</time>
      </trkpt>
      <trkpt lat="50.67711029201746" lon="13.281650450080633">
        <ele>489</ele>
        <time>2026-08-29T09:14:50Z</time>
      </trkpt>
      <trkpt lat="50.677110459655523" lon="13.281649276614189">
        <ele>489</ele>
        <time>2026-08-29T09:14:51Z</time>
      </trkpt>
      <trkpt lat="50.677112890407443" lon="13.281648186966777">
        <ele>488</ele>
        <time>2026-08-29T09:14:52Z</time>
      </trkpt>
      <trkpt lat="50.677112890407443" lon="13.281648270785809">
        <ele>488</ele>
        <time>2026-08-29T09:14:53Z</time>
      </trkpt>
      <trkpt lat="50.677112890407443" lon="13.281648270785809">
        <ele>488</ele>
        <time>2026-08-29T09:14:54Z</time>
      </trkpt>
      <trkpt lat="50.67711129784584" lon="13.281641146168113">
        <ele>488</ele>
        <time>2026-08-29T09:14:55Z</time>
      </trkpt>
      <trkpt lat="50.677111800760031" lon="13.28163905069232">
        <ele>488</ele>
        <time>2026-08-29T09:14:56Z</time>
      </trkpt>
      <trkpt lat="50.677118757739663" lon="13.281635446473956">
        <ele>487</ele>
        <time>2026-08-29T09:14:57Z</time>
      </trkpt>
      <trkpt lat="50.677138119935989" lon="13.281623795628548">
        <ele>487</ele>
        <time>2026-08-29T09:14:58Z</time>
      </trkpt>
      <trkpt lat="50.677160331979394" lon="13.2816107198596">
        <ele>486</ele>
        <time>2026-08-29T09:14:59Z</time>
      </trkpt>
      <trkpt lat="50.677187656983733" lon="13.281583897769451">
        <ele>487</ele>
        <time>2026-08-29T09:15:00Z</time>
      </trkpt>
      <trkpt lat="50.677212551236153" lon="13.281549112871289">
        <ele>487</ele>
        <time>2026-08-29T09:15:01Z</time>
      </trkpt>
      <trkpt lat="50.677238199859858" lon="13.281514411792159">
        <ele>487</ele>
        <time>2026-08-29T09:15:02Z</time>
      </trkpt>
      <trkpt lat="50.677265776321292" lon="13.281475603580475">
        <ele>488</ele>
        <time>2026-08-29T09:15:03Z</time>
      </trkpt>
      <trkpt lat="50.677300058305264" lon="13.281430257484317">
        <ele>487</ele>
        <time>2026-08-29T09:15:04Z</time>
      </trkpt>
      <trkpt lat="50.677338447421789" lon="13.281383905559778">
        <ele>487</ele>
        <time>2026-08-29T09:15:05Z</time>
      </trkpt>
      <trkpt lat="50.67737708799541" lon="13.281334787607193">
        <ele>487</ele>
        <time>2026-08-29T09:15:06Z</time>
      </trkpt>
      <trkpt lat="50.677411872893572" lon="13.281286088749766">
        <ele>486</ele>
        <time>2026-08-29T09:15:07Z</time>
      </trkpt>
      <trkpt lat="50.677450010553002" lon="13.281238060444593">
        <ele>486</ele>
        <time>2026-08-29T09:15:08Z</time>
      </trkpt>
      <trkpt lat="50.67747825756669" lon="13.281185086816549">
        <ele>486</ele>
        <time>2026-08-29T09:15:09Z</time>
      </trkpt>
      <trkpt lat="50.677505331113935" lon="13.281129011884332">
        <ele>485</ele>
        <time>2026-08-29T09:15:10Z</time>
      </trkpt>
      <trkpt lat="50.677528968080878" lon="13.281075283885002">
        <ele>486</ele>
        <time>2026-08-29T09:15:11Z</time>
      </trkpt>
      <trkpt lat="50.677553191781044" lon="13.281017700210214">
        <ele>486</ele>
        <time>2026-08-29T09:15:12Z</time>
      </trkpt>
      <trkpt lat="50.677576912567019" lon="13.280965564772487">
        <ele>486</ele>
        <time>2026-08-29T09:15:13Z</time>
      </trkpt>
      <trkpt lat="50.677595101296902" lon="13.28091686591506">
        <ele>486</ele>
        <time>2026-08-29T09:15:14Z</time>
      </trkpt>
      <trkpt lat="50.677610440179706" lon="13.280871268361807">
        <ele>486</ele>
        <time>2026-08-29T09:15:15Z</time>
      </trkpt>
      <trkpt lat="50.677618989720941" lon="13.280826006084681">
        <ele>485</ele>
        <time>2026-08-29T09:15:16Z</time>
      </trkpt>
      <trkpt lat="50.677627790719271" lon="13.280788706615567">
        <ele>485</ele>
        <time>2026-08-29T09:15:17Z</time>
      </trkpt>
      <trkpt lat="50.677641620859504" lon="13.280748724937439">
        <ele>485</ele>
        <time>2026-08-29T09:15:18Z</time>
      </trkpt>
      <trkpt lat="50.677654277533293" lon="13.280704049393535">
        <ele>485</ele>
        <time>2026-08-29T09:15:19Z</time>
      </trkpt>
      <trkpt lat="50.677672550082207" lon="13.280651662498713">
        <ele>485</ele>
        <time>2026-08-29T09:15:20Z</time>
      </trkpt>
      <trkpt lat="50.677692499011755" lon="13.280604388564825">
        <ele>485</ele>
        <time>2026-08-29T09:15:21Z</time>
      </trkpt>
      <trkpt lat="50.677704652771354" lon="13.280555605888367">
        <ele>485</ele>
        <time>2026-08-29T09:15:22Z</time>
      </trkpt>
      <trkpt lat="50.677721248939633" lon="13.280513444915414">
        <ele>485</ele>
        <time>2026-08-29T09:15:23Z</time>
      </trkpt>
      <trkpt lat="50.677733067423105" lon="13.280470529571176">
        <ele>485</ele>
        <time>2026-08-29T09:15:24Z</time>
      </trkpt>
      <trkpt lat="50.677751507610083" lon="13.280422585085034">
        <ele>485</ele>
        <time>2026-08-29T09:15:25Z</time>
      </trkpt>
      <trkpt lat="50.677772294729948" lon="13.280368018895388">
        <ele>485</ele>
        <time>2026-08-29T09:15:26Z</time>
      </trkpt>
      <trkpt lat="50.677793500944972" lon="13.280320074409246">
        <ele>485</ele>
        <time>2026-08-29T09:15:27Z</time>
      </trkpt>
      <trkpt lat="50.677813952788711" lon="13.280273051932454">
        <ele>485</ele>
        <time>2026-08-29T09:15:28Z</time>
      </trkpt>
      <trkpt lat="50.677833147346973" lon="13.280225107446313">
        <ele>485</ele>
        <time>2026-08-29T09:15:29Z</time>
      </trkpt>
      <trkpt lat="50.677851252257824" lon="13.280171798542142">
        <ele>485</ele>
        <time>2026-08-29T09:15:30Z</time>
      </trkpt>
      <trkpt lat="50.677872709929943" lon="13.280114717781544">
        <ele>486</ele>
        <time>2026-08-29T09:15:31Z</time>
      </trkpt>
      <trkpt lat="50.677890982478857" lon="13.280065013095737">
        <ele>486</ele>
        <time>2026-08-29T09:15:32Z</time>
      </trkpt>
      <trkpt lat="50.677909841760993" lon="13.280013464391232">
        <ele>487</ele>
        <time>2026-08-29T09:15:33Z</time>
      </trkpt>
      <trkpt lat="50.67792484536767" lon="13.279963675886393">
        <ele>486</ele>
        <time>2026-08-29T09:15:34Z</time>
      </trkpt>
      <trkpt lat="50.677939681336284" lon="13.279920257627964">
        <ele>486</ele>
        <time>2026-08-29T09:15:35Z</time>
      </trkpt>
      <trkpt lat="50.677954098209739" lon="13.279876504093409">
        <ele>486</ele>
        <time>2026-08-29T09:15:36Z</time>
      </trkpt>
      <trkpt lat="50.677968598902225" lon="13.279839036986232">
        <ele>486</ele>
        <time>2026-08-29T09:15:37Z</time>
      </trkpt>
      <trkpt lat="50.677985530346632" lon="13.279797295108438">
        <ele>487</ele>
        <time>2026-08-29T09:15:38Z</time>
      </trkpt>
      <trkpt lat="50.678000617772341" lon="13.279754547402263">
        <ele>487</ele>
        <time>2026-08-29T09:15:39Z</time>
      </trkpt>
      <trkpt lat="50.678013861179352" lon="13.279705010354519">
        <ele>486</ele>
        <time>2026-08-29T09:15:40Z</time>
      </trkpt>
      <trkpt lat="50.67802743986249" lon="13.279663268476725">
        <ele>486</ele>
        <time>2026-08-29T09:15:41Z</time>
      </trkpt>
      <trkpt lat="50.678042443469167" lon="13.27962881885469">
        <ele>486</ele>
        <time>2026-08-29T09:15:42Z</time>
      </trkpt>
      <trkpt lat="50.67805870436132" lon="13.279594117775559">
        <ele>486</ele>
        <time>2026-08-29T09:15:43Z</time>
      </trkpt>
      <trkpt lat="50.678077647462487" lon="13.279554219916463">
        <ele>487</ele>
        <time>2026-08-29T09:15:44Z</time>
      </trkpt>
      <trkpt lat="50.678093321621418" lon="13.279512897133827">
        <ele>487</ele>
        <time>2026-08-29T09:15:45Z</time>
      </trkpt>
      <trkpt lat="50.678106732666492" lon="13.279476100578904">
        <ele>487</ele>
        <time>2026-08-29T09:15:46Z</time>
      </trkpt>
      <trkpt lat="50.678121233358979" lon="13.2794348616153">
        <ele>487</ele>
        <time>2026-08-29T09:15:47Z</time>
      </trkpt>
      <trkpt lat="50.678134309127927" lon="13.27939379028976">
        <ele>487</ele>
        <time>2026-08-29T09:15:48Z</time>
      </trkpt>
      <trkpt lat="50.678149312734604" lon="13.279352970421314">
        <ele>487</ele>
        <time>2026-08-29T09:15:49Z</time>
      </trkpt>
      <trkpt lat="50.678161717951298" lon="13.279315251857042">
        <ele>487</ele>
        <time>2026-08-29T09:15:50Z</time>
      </trkpt>
      <trkpt lat="50.678172279149294" lon="13.279277700930834">
        <ele>487</ele>
        <time>2026-08-29T09:15:51Z</time>
      </trkpt>
      <trkpt lat="50.678184600546956" lon="13.279245682060719">
        <ele>487</ele>
        <time>2026-08-29T09:15:52Z</time>
      </trkpt>
      <trkpt lat="50.678195832297206" lon="13.279214417561889">
        <ele>487</ele>
        <time>2026-08-29T09:15:53Z</time>
      </trkpt>
      <trkpt lat="50.678210500627756" lon="13.279185080900788">
        <ele>487</ele>
        <time>2026-08-29T09:15:54Z</time>
      </trkpt>
      <trkpt lat="50.67822583951056" lon="13.279152559116483">
        <ele>487</ele>
        <time>2026-08-29T09:15:55Z</time>
      </trkpt>
      <trkpt lat="50.678234389051795" lon="13.279119282960892">
        <ele>487</ele>
        <time>2026-08-29T09:15:56Z</time>
      </trkpt>
      <trkpt lat="50.67824587225914" lon="13.279085755348206">
        <ele>488</ele>
        <time>2026-08-29T09:15:57Z</time>
      </trkpt>
      <trkpt lat="50.678253918886185" lon="13.279052060097456">
        <ele>488</ele>
        <time>2026-08-29T09:15:58Z</time>
      </trkpt>
      <trkpt lat="50.678260959684849" lon="13.279025070369244">
        <ele>488</ele>
        <time>2026-08-29T09:15:59Z</time>
      </trkpt>
      <trkpt lat="50.678263306617737" lon="13.279004534706473">
        <ele>488</ele>
        <time>2026-08-29T09:16:00Z</time>
      </trkpt>
      <trkpt lat="50.678266827017069" lon="13.278990872204304">
        <ele>488</ele>
        <time>2026-08-29T09:16:01Z</time>
      </trkpt>
      <trkpt lat="50.678275460377336" lon="13.27898190356791">
        <ele>488</ele>
        <time>2026-08-29T09:16:02Z</time>
      </trkpt>
      <trkpt lat="50.678283758461475" lon="13.278972767293453">
        <ele>488</ele>
        <time>2026-08-29T09:16:03Z</time>
      </trkpt>
      <trkpt lat="50.678289709612727" lon="13.278956422582269">
        <ele>488</ele>
        <time>2026-08-29T09:16:04Z</time>
      </trkpt>
      <trkpt lat="50.678300438448787" lon="13.278941083699465">
        <ele>488</ele>
        <time>2026-08-29T09:16:05Z</time>
      </trkpt>
      <trkpt lat="50.678308820351958" lon="13.27892130240798">
        <ele>488</ele>
        <time>2026-08-29T09:16:06Z</time>
      </trkpt>
      <trkpt lat="50.678324913606048" lon="13.278890373185277">
        <ele>488</ele>
        <time>2026-08-29T09:16:07Z</time>
      </trkpt>
      <trkpt lat="50.678333714604378" lon="13.278852151706815">
        <ele>489</ele>
        <time>2026-08-29T09:16:08Z</time>
      </trkpt>
      <trkpt lat="50.678350981324911" lon="13.278809236362576">
        <ele>489</ele>
        <time>2026-08-29T09:16:09Z</time>
      </trkpt>
      <trkpt lat="50.678364057093859" lon="13.278767410665751">
        <ele>489</ele>
        <time>2026-08-29T09:16:10Z</time>
      </trkpt>
      <trkpt lat="50.678374953567982" lon="13.278739079833031">
        <ele>489</ele>
        <time>2026-08-29T09:16:11Z</time>
      </trkpt>
      <trkpt lat="50.678381826728582" lon="13.278705552220345">
        <ele>488</ele>
        <time>2026-08-29T09:16:12Z</time>
      </trkpt>
      <trkpt lat="50.678395908325911" lon="13.278678897768259">
        <ele>488</ele>
        <time>2026-08-29T09:16:13Z</time>
      </trkpt>
      <trkpt lat="50.678407391533256" lon="13.27864964492619">
        <ele>489</ele>
        <time>2026-08-29T09:16:14Z</time>
      </trkpt>
      <trkpt lat="50.678418707102537" lon="13.278612932190299">
        <ele>489</ele>
        <time>2026-08-29T09:16:15Z</time>
      </trkpt>
      <trkpt lat="50.678423652425408" lon="13.278581416234374">
        <ele>489</ele>
        <time>2026-08-29T09:16:16Z</time>
      </trkpt>
      <trkpt lat="50.678423568606377" lon="13.278555767610669">
        <ele>489</ele>
        <time>2026-08-29T09:16:17Z</time>
      </trkpt>
      <trkpt lat="50.678428430110216" lon="13.27855434268713">
        <ele>489</ele>
        <time>2026-08-29T09:16:18Z</time>
      </trkpt>
      <trkpt lat="50.678427759557962" lon="13.27856951393187">
        <ele>488</ele>
        <time>2026-08-29T09:16:19Z</time>
      </trkpt>
      <trkpt lat="50.678427508100867" lon="13.278569597750902">
        <ele>488</ele>
        <time>2026-08-29T09:16:20Z</time>
      </trkpt>
      <trkpt lat="50.678427340462804" lon="13.278570352122188">
        <ele>488</ele>
        <time>2026-08-29T09:16:21Z</time>
      </trkpt>
      <trkpt lat="50.678426837548614" lon="13.278570268303156">
        <ele>488</ele>
        <time>2026-08-29T09:16:22Z</time>
      </trkpt>
      <trkpt lat="50.678426586091518" lon="13.278570687398314">
        <ele>488</ele>
        <time>2026-08-29T09:16:23Z</time>
      </trkpt>
      <trkpt lat="50.67842666991055" lon="13.278570855036378">
        <ele>488</ele>
        <time>2026-08-29T09:16:24Z</time>
      </trkpt>
      <trkpt lat="50.67842666991055" lon="13.278570855036378">
        <ele>488</ele>
        <time>2026-08-29T09:16:25Z</time>
      </trkpt>
      <trkpt lat="50.678423568606377" lon="13.27857387252152">
        <ele>487</ele>
        <time>2026-08-29T09:16:26Z</time>
      </trkpt>
      <trkpt lat="50.678418958559632" lon="13.278579069301486">
        <ele>486</ele>
        <time>2026-08-29T09:16:27Z</time>
      </trkpt>
      <trkpt lat="50.678419042378664" lon="13.278578650206327">
        <ele>486</ele>
        <time>2026-08-29T09:16:28Z</time>
      </trkpt>
      <trkpt lat="50.678419042378664" lon="13.278578985482454">
        <ele>486</ele>
        <time>2026-08-29T09:16:29Z</time>
      </trkpt>
      <trkpt lat="50.678419126197696" lon="13.278579069301486">
        <ele>486</ele>
        <time>2026-08-29T09:16:30Z</time>
      </trkpt>
      <trkpt lat="50.678419461473823" lon="13.278578817844391">
        <ele>486</ele>
        <time>2026-08-29T09:16:31Z</time>
      </trkpt>
      <trkpt lat="50.678419461473823" lon="13.278578734025359">
        <ele>486</ele>
        <time>2026-08-29T09:16:32Z</time>
      </trkpt>
      <trkpt lat="50.678419712930918" lon="13.278578398749232">
        <ele>486</ele>
        <time>2026-08-29T09:16:33Z</time>
      </trkpt>
      <trkpt lat="50.678419880568981" lon="13.278578398749232">
        <ele>486</ele>
        <time>2026-08-29T09:16:34Z</time>
      </trkpt>
      <trkpt lat="50.678419964388013" lon="13.278578398749232">
        <ele>486</ele>
        <time>2026-08-29T09:16:35Z</time>
      </trkpt>
      <trkpt lat="50.678420048207045" lon="13.278578231111169">
        <ele>486</ele>
        <time>2026-08-29T09:16:36Z</time>
      </trkpt>
      <trkpt lat="50.678420132026076" lon="13.278578147292137">
        <ele>486</ele>
        <time>2026-08-29T09:16:37Z</time>
      </trkpt>
      <trkpt lat="50.678420215845108" lon="13.278578231111169">
        <ele>486</ele>
        <time>2026-08-29T09:16:38Z</time>
      </trkpt>
      <trkpt lat="50.678420215845108" lon="13.278578314930201">
        <ele>486</ele>
        <time>2026-08-29T09:16:39Z</time>
      </trkpt>
      <trkpt lat="50.678420215845108" lon="13.278578314930201">
        <ele>486</ele>
        <time>2026-08-29T09:16:40Z</time>
      </trkpt>
      <trkpt lat="50.678420215845108" lon="13.278578231111169">
        <ele>486</ele>
        <time>2026-08-29T09:16:41Z</time>
      </trkpt>
      <trkpt lat="50.678420215845108" lon="13.278578314930201">
        <ele>486</ele>
        <time>2026-08-29T09:16:42Z</time>
      </trkpt>
      <trkpt lat="50.678420048207045" lon="13.278578231111169">
        <ele>486</ele>
        <time>2026-08-29T09:16:43Z</time>
      </trkpt>
      <trkpt lat="50.67842029966414" lon="13.278578482568264">
        <ele>486</ele>
        <time>2026-08-29T09:16:44Z</time>
      </trkpt>
      <trkpt lat="50.67842029966414" lon="13.278578734025359">
        <ele>486</ele>
        <time>2026-08-29T09:16:45Z</time>
      </trkpt>
      <trkpt lat="50.67842029966414" lon="13.278578901663423">
        <ele>486</ele>
        <time>2026-08-29T09:16:46Z</time>
      </trkpt>
      <trkpt lat="50.678420215845108" lon="13.278578734025359">
        <ele>486</ele>
        <time>2026-08-29T09:16:47Z</time>
      </trkpt>
      <trkpt lat="50.67842029966414" lon="13.278578650206327">
        <ele>486</ele>
        <time>2026-08-29T09:16:48Z</time>
      </trkpt>
      <trkpt lat="50.67842029966414" lon="13.278578734025359">
        <ele>486</ele>
        <time>2026-08-29T09:16:49Z</time>
      </trkpt>
      <trkpt lat="50.678420383483171" lon="13.278578817844391">
        <ele>486</ele>
        <time>2026-08-29T09:16:50Z</time>
      </trkpt>
      <trkpt lat="50.678420132026076" lon="13.278578734025359">
        <ele>486</ele>
        <time>2026-08-29T09:16:51Z</time>
      </trkpt>
      <trkpt lat="50.678420048207045" lon="13.278578650206327">
        <ele>486</ele>
        <time>2026-08-29T09:16:52Z</time>
      </trkpt>
      <trkpt lat="50.678420048207045" lon="13.278578482568264">
        <ele>486</ele>
        <time>2026-08-29T09:16:53Z</time>
      </trkpt>
      <trkpt lat="50.678419880568981" lon="13.278578482568264">
        <ele>486</ele>
        <time>2026-08-29T09:16:54Z</time>
      </trkpt>
      <trkpt lat="50.678420048207045" lon="13.278578566387296">
        <ele>486</ele>
        <time>2026-08-29T09:16:55Z</time>
      </trkpt>
      <trkpt lat="50.678419880568981" lon="13.278578314930201">
        <ele>486</ele>
        <time>2026-08-29T09:16:56Z</time>
      </trkpt>
      <trkpt lat="50.678419712930918" lon="13.278578147292137">
        <ele>486</ele>
        <time>2026-08-29T09:16:57Z</time>
      </trkpt>
      <trkpt lat="50.678419629111886" lon="13.27857781201601">
        <ele>486</ele>
        <time>2026-08-29T09:16:58Z</time>
      </trkpt>
      <trkpt lat="50.678419461473823" lon="13.278577560558915">
        <ele>486</ele>
        <time>2026-08-29T09:16:59Z</time>
      </trkpt>
      <trkpt lat="50.678419629111886" lon="13.278577560558915">
        <ele>486</ele>
        <time>2026-08-29T09:17:00Z</time>
      </trkpt>
      <trkpt lat="50.678419629111886" lon="13.278577560558915">
        <ele>486</ele>
        <time>2026-08-29T09:17:01Z</time>
      </trkpt>
      <trkpt lat="50.678419461473823" lon="13.27857730910182">
        <ele>486</ele>
        <time>2026-08-29T09:17:02Z</time>
      </trkpt>
      <trkpt lat="50.678419377654791" lon="13.278577141463757">
        <ele>486</ele>
        <time>2026-08-29T09:17:03Z</time>
      </trkpt>
      <trkpt lat="50.678419461473823" lon="13.278577141463757">
        <ele>486</ele>
        <time>2026-08-29T09:17:04Z</time>
      </trkpt>
      <trkpt lat="50.678417952731252" lon="13.278577979654074">
        <ele>486</ele>
        <time>2026-08-29T09:17:05Z</time>
      </trkpt>
      <trkpt lat="50.678420551121235" lon="13.278584601357579">
        <ele>486</ele>
        <time>2026-08-29T09:17:06Z</time>
      </trkpt>
      <trkpt lat="50.678419461473823" lon="13.278587618842721">
        <ele>485</ele>
        <time>2026-08-29T09:17:07Z</time>
      </trkpt>
      <trkpt lat="50.678418539464474" lon="13.278587870299816">
        <ele>486</ele>
        <time>2026-08-29T09:17:08Z</time>
      </trkpt>
      <trkpt lat="50.678422311320901" lon="13.278587032109499">
        <ele>486</ele>
        <time>2026-08-29T09:17:09Z</time>
      </trkpt>
      <trkpt lat="50.678428178653121" lon="13.278588624671102">
        <ele>486</ele>
        <time>2026-08-29T09:17:10Z</time>
      </trkpt>
      <trkpt lat="50.678442930802703" lon="13.278572112321854">
        <ele>486</ele>
        <time>2026-08-29T09:17:11Z</time>
      </trkpt>
      <trkpt lat="50.678458940237761" lon="13.27854604460299">
        <ele>486</ele>
        <time>2026-08-29T09:17:12Z</time>
      </trkpt>
      <trkpt lat="50.678473524749279" lon="13.27851084060967">
        <ele>486</ele>
        <time>2026-08-29T09:17:13Z</time>
      </trkpt>
      <trkpt lat="50.678494982421398" lon="13.278471194207668">
        <ele>485</ele>
        <time>2026-08-29T09:17:14Z</time>
      </trkpt>
      <trkpt lat="50.678536305204034" lon="13.278410425409675">
        <ele>485</ele>
        <time>2026-08-29T09:17:15Z</time>
      </trkpt>
      <trkpt lat="50.67858207039535" lon="13.278344040736556">
        <ele>485</ele>
        <time>2026-08-29T09:17:16Z</time>
      </trkpt>
      <trkpt lat="50.678626578301191" lon="13.278277069330215">
        <ele>485</ele>
        <time>2026-08-29T09:17:17Z</time>
      </trkpt>
      <trkpt lat="50.678676869720221" lon="13.278197441250086">
        <ele>485</ele>
        <time>2026-08-29T09:17:18Z</time>
      </trkpt>
      <trkpt lat="50.678727077320218" lon="13.278126865625381">
        <ele>485</ele>
        <time>2026-08-29T09:17:19Z</time>
      </trkpt>
      <trkpt lat="50.678775440901518" lon="13.278055619448423">
        <ele>485</ele>
        <time>2026-08-29T09:17:20Z</time>
      </trkpt>
      <trkpt lat="50.678820786997676" lon="13.277990072965622">
        <ele>485</ele>
        <time>2026-08-29T09:17:21Z</time>
      </trkpt>
      <trkpt lat="50.678862277418375" lon="13.277915809303522">
        <ele>485</ele>
        <time>2026-08-29T09:17:22Z</time>
      </trkpt>
      <trkpt lat="50.678913071751595" lon="13.277847580611706">
        <ele>484</ele>
        <time>2026-08-29T09:17:23Z</time>
      </trkpt>
      <trkpt lat="50.67896218970418" lon="13.277782117947936">
        <ele>484</ele>
        <time>2026-08-29T09:17:24Z</time>
      </trkpt>
      <trkpt lat="50.67901742644608" lon="13.277725372463465">
        <ele>485</ele>
        <time>2026-08-29T09:17:25Z</time>
      </trkpt>
      <trkpt lat="50.679063191637397" lon="13.277663262560964">
        <ele>485</ele>
        <time>2026-08-29T09:17:26Z</time>
      </trkpt>
      <trkpt lat="50.67910292185843" lon="13.277597380802035">
        <ele>485</ele>
        <time>2026-08-29T09:17:27Z</time>
      </trkpt>
      <trkpt lat="50.679152710363269" lon="13.277527056634426">
        <ele>485</ele>
        <time>2026-08-29T09:17:28Z</time>
      </trkpt>
      <trkpt lat="50.679198056459427" lon="13.277446674183011">
        <ele>485</ele>
        <time>2026-08-29T09:17:29Z</time>
      </trkpt>
      <trkpt lat="50.679241977632046" lon="13.277380457147956">
        <ele>484</ele>
        <time>2026-08-29T09:17:30Z</time>
      </trkpt>
      <trkpt lat="50.679289670661092" lon="13.277310216799378">
        <ele>485</ele>
        <time>2026-08-29T09:17:31Z</time>
      </trkpt>
      <trkpt lat="50.679335268214345" lon="13.277239222079515">
        <ele>484</ele>
        <time>2026-08-29T09:17:32Z</time>
      </trkpt>
      <trkpt lat="50.679387738928199" lon="13.277161689475179">
        <ele>484</ele>
        <time>2026-08-29T09:17:33Z</time>
      </trkpt>
      <trkpt lat="50.679424032568932" lon="13.277094634249806">
        <ele>484</ele>
        <time>2026-08-29T09:17:34Z</time>
      </trkpt>
      <trkpt lat="50.679459571838379" lon="13.277024980634451">
        <ele>484</ele>
        <time>2026-08-29T09:17:35Z</time>
      </trkpt>
      <trkpt lat="50.679492261260748" lon="13.276950297877192">
        <ele>484</ele>
        <time>2026-08-29T09:17:36Z</time>
      </trkpt>
      <trkpt lat="50.679523861035705" lon="13.276875615119934">
        <ele>484</ele>
        <time>2026-08-29T09:17:37Z</time>
      </trkpt>
      <trkpt lat="50.679560070857406" lon="13.27679481357336">
        <ele>483</ele>
        <time>2026-08-29T09:17:38Z</time>
      </trkpt>
      <trkpt lat="50.679597957059741" lon="13.276721304282546">
        <ele>483</ele>
        <time>2026-08-29T09:17:39Z</time>
      </trkpt>
      <trkpt lat="50.679644644260406" lon="13.2766477111727">
        <ele>483</ele>
        <time>2026-08-29T09:17:40Z</time>
      </trkpt>
      <trkpt lat="50.679681273177266" lon="13.276568334549665">
        <ele>483</ele>
        <time>2026-08-29T09:17:41Z</time>
      </trkpt>
      <trkpt lat="50.679720416665077" lon="13.27648501843214">
        <ele>483</ele>
        <time>2026-08-29T09:17:42Z</time>
      </trkpt>
      <trkpt lat="50.679749082773924" lon="13.276419136673212">
        <ele>482</ele>
        <time>2026-08-29T09:17:43Z</time>
      </trkpt>
      <trkpt lat="50.679766684770584" lon="13.276339760050178">
        <ele>481</ele>
        <time>2026-08-29T09:17:44Z</time>
      </trkpt>
      <trkpt lat="50.679795769974589" lon="13.27627488411963">
        <ele>481</ele>
        <time>2026-08-29T09:17:45Z</time>
      </trkpt>
      <trkpt lat="50.67983927205205" lon="13.27619818970561">
        <ele>481</ele>
        <time>2026-08-29T09:17:46Z</time>
      </trkpt>
      <trkpt lat="50.679865004494786" lon="13.276128536090255">
        <ele>481</ele>
        <time>2026-08-29T09:17:47Z</time>
      </trkpt>
      <trkpt lat="50.679885540157557" lon="13.276077574118972">
        <ele>480</ele>
        <time>2026-08-29T09:17:48Z</time>
      </trkpt>
      <trkpt lat="50.67991454154253" lon="13.276033401489258">
        <ele>480</ele>
        <time>2026-08-29T09:17:49Z</time>
      </trkpt>
      <trkpt lat="50.679939687252045" lon="13.275983110070229">
        <ele>480</ele>
        <time>2026-08-29T09:17:50Z</time>
      </trkpt>
      <trkpt lat="50.679957959800959" lon="13.275924269109964">
        <ele>479</ele>
        <time>2026-08-29T09:17:51Z</time>
      </trkpt>
      <trkpt lat="50.6799834407866" lon="13.275851849466562">
        <ele>479</ele>
        <time>2026-08-29T09:17:52Z</time>
      </trkpt>
      <trkpt lat="50.680012945085764" lon="13.27579895965755">
        <ele>479</ele>
        <time>2026-08-29T09:17:53Z</time>
      </trkpt>
      <trkpt lat="50.680041862651706" lon="13.27575352974236">
        <ele>479</ele>
        <time>2026-08-29T09:17:54Z</time>
      </trkpt>
      <trkpt lat="50.680063990876079" lon="13.275705920532346">
        <ele>478</ele>
        <time>2026-08-29T09:17:55Z</time>
      </trkpt>
      <trkpt lat="50.680083520710468" lon="13.275660909712315">
        <ele>478</ele>
        <time>2026-08-29T09:17:56Z</time>
      </trkpt>
      <trkpt lat="50.68011143244803" lon="13.275593351572752">
        <ele>478</ele>
        <time>2026-08-29T09:17:57Z</time>
      </trkpt>
      <trkpt lat="50.680138422176242" lon="13.275535264983773">
        <ele>478</ele>
        <time>2026-08-29T09:17:58Z</time>
      </trkpt>
      <trkpt lat="50.680166920647025" lon="13.275483464822173">
        <ele>478</ele>
        <time>2026-08-29T09:17:59Z</time>
      </trkpt>
      <trkpt lat="50.680197179317474" lon="13.275432335212827">
        <ele>479</ele>
        <time>2026-08-29T09:18:00Z</time>
      </trkpt>
      <trkpt lat="50.680228108540177" lon="13.275380115956068">
        <ele>479</ele>
        <time>2026-08-29T09:18:01Z</time>
      </trkpt>
      <trkpt lat="50.680257445201278" lon="13.275330746546388">
        <ele>479</ele>
        <time>2026-08-29T09:18:02Z</time>
      </trkpt>
      <trkpt lat="50.680284099653363" lon="13.275255644693971">
        <ele>479</ele>
        <time>2026-08-29T09:18:03Z</time>
      </trkpt>
      <trkpt lat="50.680324081331491" lon="13.275209963321686">
        <ele>479</ele>
        <time>2026-08-29T09:18:04Z</time>
      </trkpt>
      <trkpt lat="50.680368421599269" lon="13.275176519528031">
        <ele>479</ele>
        <time>2026-08-29T09:18:05Z</time>
      </trkpt>
      <trkpt lat="50.680401530116796" lon="13.275127401575446">
        <ele>479</ele>
        <time>2026-08-29T09:18:06Z</time>
      </trkpt>
      <trkpt lat="50.680442517623305" lon="13.275055820122361">
        <ele>480</ele>
        <time>2026-08-29T09:18:07Z</time>
      </trkpt>
      <trkpt lat="50.680480487644672" lon="13.274991614744067">
        <ele>480</ele>
        <time>2026-08-29T09:18:08Z</time>
      </trkpt>
      <trkpt lat="50.680515188723803" lon="13.274938724935055">
        <ele>479</ele>
        <time>2026-08-29T09:18:09Z</time>
      </trkpt>
      <trkpt lat="50.680548548698425" lon="13.27489304356277">
        <ele>480</ele>
        <time>2026-08-29T09:18:10Z</time>
      </trkpt>
      <trkpt lat="50.680579477921128" lon="13.274872340261936">
        <ele>480</ele>
        <time>2026-08-29T09:18:11Z</time>
      </trkpt>
      <trkpt lat="50.680632451549172" lon="13.274847865104675">
        <ele>480</ele>
        <time>2026-08-29T09:18:12Z</time>
      </trkpt>
      <trkpt lat="50.68067193031311" lon="13.274835124611855">
        <ele>480</ele>
        <time>2026-08-29T09:18:13Z</time>
      </trkpt>
      <trkpt lat="50.680710319429636" lon="13.274798495694995">
        <ele>480</ele>
        <time>2026-08-29T09:18:14Z</time>
      </trkpt>
      <trkpt lat="50.680735632777214" lon="13.274771003052592">
        <ele>480</ele>
        <time>2026-08-29T09:18:15Z</time>
      </trkpt>
      <trkpt lat="50.680770417675376" lon="13.274738397449255">
        <ele>480</ele>
        <time>2026-08-29T09:18:16Z</time>
      </trkpt>
      <trkpt lat="50.680798580870032" lon="13.274698080495">
        <ele>480</ele>
        <time>2026-08-29T09:18:17Z</time>
      </trkpt>
      <trkpt lat="50.68083462305367" lon="13.274665642529726">
        <ele>480</ele>
        <time>2026-08-29T09:18:18Z</time>
      </trkpt>
      <trkpt lat="50.680859517306089" lon="13.27463798224926">
        <ele>480</ele>
        <time>2026-08-29T09:18:19Z</time>
      </trkpt>
      <trkpt lat="50.680880891159177" lon="13.274609064683318">
        <ele>481</ele>
        <time>2026-08-29T09:18:20Z</time>
      </trkpt>
      <trkpt lat="50.680912071838975" lon="13.274584170430899">
        <ele>481</ele>
        <time>2026-08-29T09:18:21Z</time>
      </trkpt>
      <trkpt lat="50.680936630815268" lon="13.274570005014539">
        <ele>481</ele>
        <time>2026-08-29T09:18:22Z</time>
      </trkpt>
      <trkpt lat="50.680954400449991" lon="13.274561874568462">
        <ele>481</ele>
        <time>2026-08-29T09:18:23Z</time>
      </trkpt>
      <trkpt lat="50.680969152599573" lon="13.274553576484323">
        <ele>481</ele>
        <time>2026-08-29T09:18:24Z</time>
      </trkpt>
      <trkpt lat="50.680979294702411" lon="13.274537986144423">
        <ele>480</ele>
        <time>2026-08-29T09:18:25Z</time>
      </trkpt>
      <trkpt lat="50.680982898920774" lon="13.274530190974474">
        <ele>480</ele>
        <time>2026-08-29T09:18:26Z</time>
      </trkpt>
      <trkpt lat="50.68100469186902" lon="13.274510996416211">
        <ele>480</ele>
        <time>2026-08-29T09:18:27Z</time>
      </trkpt>
      <trkpt lat="50.68103251978755" lon="13.274486772716045">
        <ele>480</ele>
        <time>2026-08-29T09:18:28Z</time>
      </trkpt>
      <trkpt lat="50.681057162582874" lon="13.274459363892674">
        <ele>480</ele>
        <time>2026-08-29T09:18:29Z</time>
      </trkpt>
      <trkpt lat="50.681076189503074" lon="13.274430530145764">
        <ele>480</ele>
        <time>2026-08-29T09:18:30Z</time>
      </trkpt>
      <trkpt lat="50.681091109290719" lon="13.274412760511041">
        <ele>480</ele>
        <time>2026-08-29T09:18:31Z</time>
      </trkpt>
      <trkpt lat="50.68109504878521" lon="13.274380657821894">
        <ele>480</ele>
        <time>2026-08-29T09:18:32Z</time>
      </trkpt>
      <trkpt lat="50.681106699630618" lon="13.274351572617888">
        <ele>480</ele>
        <time>2026-08-29T09:18:33Z</time>
      </trkpt>
      <trkpt lat="50.681121032685041" lon="13.27434042468667">
        <ele>480</ele>
        <time>2026-08-29T09:18:34Z</time>
      </trkpt>
      <trkpt lat="50.68112782202661" lon="13.274321481585503">
        <ele>480</ele>
        <time>2026-08-29T09:18:35Z</time>
      </trkpt>
      <trkpt lat="50.681130671873689" lon="13.274298850446939">
        <ele>480</ele>
        <time>2026-08-29T09:18:36Z</time>
      </trkpt>
      <trkpt lat="50.681138131767511" lon="13.274282086640596">
        <ele>480</ele>
        <time>2026-08-29T09:18:37Z</time>
      </trkpt>
      <trkpt lat="50.681150117889047" lon="13.274269178509712">
        <ele>479</ele>
        <time>2026-08-29T09:18:38Z</time>
      </trkpt>
      <trkpt lat="50.681161433458328" lon="13.27426171861589">
        <ele>479</ele>
        <time>2026-08-29T09:18:39Z</time>
      </trkpt>
      <trkpt lat="50.681172581389546" lon="13.274251995608211">
        <ele>479</ele>
        <time>2026-08-29T09:18:40Z</time>
      </trkpt>
      <trkpt lat="50.681187249720097" lon="13.274233723059297">
        <ele>479</ele>
        <time>2026-08-29T09:18:41Z</time>
      </trkpt>
      <trkpt lat="50.681192530319095" lon="13.274230705574155">
        <ele>479</ele>
        <time>2026-08-29T09:18:42Z</time>
      </trkpt>
      <trkpt lat="50.681198397651315" lon="13.274236992001534">
        <ele>479</ele>
        <time>2026-08-29T09:18:43Z</time>
      </trkpt>
      <trkpt lat="50.681201918050647" lon="13.274228610098362">
        <ele>479</ele>
        <time>2026-08-29T09:18:44Z</time>
      </trkpt>
      <trkpt lat="50.681201247498393" lon="13.274217797443271">
        <ele>479</ele>
        <time>2026-08-29T09:18:45Z</time>
      </trkpt>
      <trkpt lat="50.681207282468677" lon="13.274195333942771">
        <ele>479</ele>
        <time>2026-08-29T09:18:46Z</time>
      </trkpt>
      <trkpt lat="50.681217592209578" lon="13.274181755259633">
        <ele>480</ele>
        <time>2026-08-29T09:18:47Z</time>
      </trkpt>
      <trkpt lat="50.681229243054986" lon="13.274173876270652">
        <ele>480</ele>
        <time>2026-08-29T09:18:48Z</time>
      </trkpt>
      <trkpt lat="50.681246342137456" lon="13.27416155487299">
        <ele>479</ele>
        <time>2026-08-29T09:18:49Z</time>
      </trkpt>
      <trkpt lat="50.681264530867338" lon="13.27415669336915">
        <ele>480</ele>
        <time>2026-08-29T09:18:50Z</time>
      </trkpt>
      <trkpt lat="50.681275427341461" lon="13.274138001725078">
        <ele>480</ele>
        <time>2026-08-29T09:18:51Z</time>
      </trkpt>
      <trkpt lat="50.681285737082362" lon="13.27413079328835">
        <ele>480</ele>
        <time>2026-08-29T09:18:52Z</time>
      </trkpt>
      <trkpt lat="50.681295460090041" lon="13.274119980633259">
        <ele>480</ele>
        <time>2026-08-29T09:18:53Z</time>
      </trkpt>
      <trkpt lat="50.681298477575183" lon="13.274106904864311">
        <ele>480</ele>
        <time>2026-08-29T09:18:54Z</time>
      </trkpt>
      <trkpt lat="50.68131297826767" lon="13.27410145662725">
        <ele>480</ele>
        <time>2026-08-29T09:18:55Z</time>
      </trkpt>
      <trkpt lat="50.681323874741793" lon="13.274093829095364">
        <ele>479</ele>
        <time>2026-08-29T09:18:56Z</time>
      </trkpt>
      <trkpt lat="50.681329406797886" lon="13.274092907086015">
        <ele>479</ele>
        <time>2026-08-29T09:18:57Z</time>
      </trkpt>
      <trkpt lat="50.681337453424931" lon="13.274098439142108">
        <ele>478</ele>
        <time>2026-08-29T09:18:58Z</time>
      </trkpt>
      <trkpt lat="50.681336699053645" lon="13.274093326181173">
        <ele>477</ele>
        <time>2026-08-29T09:18:59Z</time>
      </trkpt>
      <trkpt lat="50.681335609406233" lon="13.274094248190522">
        <ele>477</ele>
        <time>2026-08-29T09:19:00Z</time>
      </trkpt>
      <trkpt lat="50.681338207796216" lon="13.274096008390188">
        <ele>476</ele>
        <time>2026-08-29T09:19:01Z</time>
      </trkpt>
      <trkpt lat="50.681335860863328" lon="13.274102965369821">
        <ele>476</ele>
        <time>2026-08-29T09:19:02Z</time>
      </trkpt>
      <trkpt lat="50.681334603577852" lon="13.274097852408886">
        <ele>476</ele>
        <time>2026-08-29T09:19:03Z</time>
      </trkpt>
      <trkpt lat="50.681328987702727" lon="13.274098774418235">
        <ele>476</ele>
        <time>2026-08-29T09:19:04Z</time>
      </trkpt>
      <trkpt lat="50.681336531415582" lon="13.274087123572826">
        <ele>476</ele>
        <time>2026-08-29T09:19:05Z</time>
      </trkpt>
      <trkpt lat="50.681347930803895" lon="13.274081088602543">
        <ele>476</ele>
        <time>2026-08-29T09:19:06Z</time>
      </trkpt>
      <trkpt lat="50.681361760944128" lon="13.274058038368821">
        <ele>476</ele>
        <time>2026-08-29T09:19:07Z</time>
      </trkpt>
      <trkpt lat="50.681375171989202" lon="13.27403012663126">
        <ele>476</ele>
        <time>2026-08-29T09:19:08Z</time>
      </trkpt>
      <trkpt lat="50.68138238042593" lon="13.27400078997016">
        <ele>475</ele>
        <time>2026-08-29T09:19:09Z</time>
      </trkpt>
      <trkpt lat="50.681395288556814" lon="13.273983187973499">
        <ele>475</ele>
        <time>2026-08-29T09:19:10Z</time>
      </trkpt>
      <trkpt lat="50.681406101211905" lon="13.273967178538442">
        <ele>475</ele>
        <time>2026-08-29T09:19:11Z</time>
      </trkpt>
      <trkpt lat="50.68141071125865" lon="13.273953683674335">
        <ele>476</ele>
        <time>2026-08-29T09:19:12Z</time>
      </trkpt>
      <trkpt lat="50.681417752057314" lon="13.273939518257976">
        <ele>476</ele>
        <time>2026-08-29T09:19:13Z</time>
      </trkpt>
      <trkpt lat="50.68142781034112" lon="13.273920491337776">
        <ele>475</ele>
        <time>2026-08-29T09:19:14Z</time>
      </trkpt>
      <trkpt lat="50.681433761492372" lon="13.273899871855974">
        <ele>475</ele>
        <time>2026-08-29T09:19:15Z</time>
      </trkpt>
      <trkpt lat="50.681449519470334" lon="13.273890232667327">
        <ele>475</ele>
        <time>2026-08-29T09:19:16Z</time>
      </trkpt>
      <trkpt lat="50.681469552218914" lon="13.273880090564489">
        <ele>475</ele>
        <time>2026-08-29T09:19:17Z</time>
      </trkpt>
      <trkpt lat="50.681487321853638" lon="13.273862991482019">
        <ele>476</ele>
        <time>2026-08-29T09:19:18Z</time>
      </trkpt>
      <trkpt lat="50.681509701535106" lon="13.273838432505727">
        <ele>476</ele>
        <time>2026-08-29T09:19:19Z</time>
      </trkpt>
      <trkpt lat="50.681529399007559" lon="13.273822003975511">
        <ele>476</ele>
        <time>2026-08-29T09:19:20Z</time>
      </trkpt>
      <trkpt lat="50.681547839194536" lon="13.273810604587197">
        <ele>476</ele>
        <time>2026-08-29T09:19:21Z</time>
      </trkpt>
      <trkpt lat="50.681565022096038" lon="13.273796355351806">
        <ele>476</ele>
        <time>2026-08-29T09:19:22Z</time>
      </trkpt>
      <trkpt lat="50.681584719568491" lon="13.273773975670338">
        <ele>476</ele>
        <time>2026-08-29T09:19:23Z</time>
      </trkpt>
      <trkpt lat="50.681613469496369" lon="13.273745812475681">
        <ele>476</ele>
        <time>2026-08-29T09:19:24Z</time>
      </trkpt>
      <trkpt lat="50.681638028472662" lon="13.273717481642962">
        <ele>476</ele>
        <time>2026-08-29T09:19:25Z</time>
      </trkpt>
      <trkpt lat="50.681659569963813" lon="13.273693090304732">
        <ele>476</ele>
        <time>2026-08-29T09:19:26Z</time>
      </trkpt>
      <trkpt lat="50.681682787835598" lon="13.27366853132844">
        <ele>476</ele>
        <time>2026-08-29T09:19:27Z</time>
      </trkpt>
      <trkpt lat="50.681708520278335" lon="13.273657467216253">
        <ele>476</ele>
        <time>2026-08-29T09:19:28Z</time>
      </trkpt>
      <trkpt lat="50.681730564683676" lon="13.27362896874547">
        <ele>475</ele>
        <time>2026-08-29T09:19:29Z</time>
      </trkpt>
      <trkpt lat="50.681753447279334" lon="13.273591753095388">
        <ele>476</ele>
        <time>2026-08-29T09:19:30Z</time>
      </trkpt>
      <trkpt lat="50.681774066761136" lon="13.273555207997561">
        <ele>476</ele>
        <time>2026-08-29T09:19:31Z</time>
      </trkpt>
      <trkpt lat="50.681801810860634" lon="13.273530146107078">
        <ele>476</ele>
        <time>2026-08-29T09:19:32Z</time>
      </trkpt>
      <trkpt lat="50.681817317381501" lon="13.273515896871686">
        <ele>476</ele>
        <time>2026-08-29T09:19:33Z</time>
      </trkpt>
      <trkpt lat="50.68184019997716" lon="13.273498378694057">
        <ele>476</ele>
        <time>2026-08-29T09:19:34Z</time>
      </trkpt>
      <trkpt lat="50.681863501667976" lon="13.273481279611588">
        <ele>476</ele>
        <time>2026-08-29T09:19:35Z</time>
      </trkpt>
      <trkpt lat="50.681885881349444" lon="13.273450182750821">
        <ele>477</ele>
        <time>2026-08-29T09:19:36Z</time>
      </trkpt>
      <trkpt lat="50.681912284344435" lon="13.273415481671691">
        <ele>477</ele>
        <time>2026-08-29T09:19:37Z</time>
      </trkpt>
      <trkpt lat="50.681939274072647" lon="13.273376422002912">
        <ele>477</ele>
        <time>2026-08-29T09:19:38Z</time>
      </trkpt>
      <trkpt lat="50.681960983201861" lon="13.273335266858339">
        <ele>477</ele>
        <time>2026-08-29T09:19:39Z</time>
      </trkpt>
      <trkpt lat="50.681983781978488" lon="13.273307187482715">
        <ele>477</ele>
        <time>2026-08-29T09:19:40Z</time>
      </trkpt>
      <trkpt lat="50.681995432823896" lon="13.273288495838642">
        <ele>477</ele>
        <time>2026-08-29T09:19:41Z</time>
      </trkpt>
      <trkpt lat="50.682011358439922" lon="13.273274498060346">
        <ele>478</ele>
        <time>2026-08-29T09:19:42Z</time>
      </trkpt>
      <trkpt lat="50.682022590190172" lon="13.273267289623618">
        <ele>477</ele>
        <time>2026-08-29T09:19:43Z</time>
      </trkpt>
      <trkpt lat="50.682033151388168" lon="13.273266283795238">
        <ele>476</ele>
        <time>2026-08-29T09:19:44Z</time>
      </trkpt>
      <trkpt lat="50.682045891880989" lon="13.273251028731465">
        <ele>477</ele>
        <time>2026-08-29T09:19:45Z</time>
      </trkpt>
      <trkpt lat="50.682059889659286" lon="13.273244490846992">
        <ele>476</ele>
        <time>2026-08-29T09:19:46Z</time>
      </trkpt>
      <trkpt lat="50.682077743113041" lon="13.273241892457008">
        <ele>475</ele>
        <time>2026-08-29T09:19:47Z</time>
      </trkpt>
      <trkpt lat="50.682093584910035" lon="13.273243736475706">
        <ele>475</ele>
        <time>2026-08-29T09:19:48Z</time>
      </trkpt>
      <trkpt lat="50.68211629986763" lon="13.273239126428962">
        <ele>475</ele>
        <time>2026-08-29T09:19:49Z</time>
      </trkpt>
      <trkpt lat="50.682142451405525" lon="13.273220686241984">
        <ele>474</ele>
        <time>2026-08-29T09:19:50Z</time>
      </trkpt>
      <trkpt lat="50.682166172191501" lon="13.273197133094072">
        <ele>474</ele>
        <time>2026-08-29T09:19:51Z</time>
      </trkpt>
      <trkpt lat="50.682196514680982" lon="13.273171819746494">
        <ele>474</ele>
        <time>2026-08-29T09:19:52Z</time>
      </trkpt>
      <trkpt lat="50.682235322892666" lon="13.273146171122789">
        <ele>474</ele>
        <time>2026-08-29T09:19:53Z</time>
      </trkpt>
      <trkpt lat="50.682274717837572" lon="13.273126808926463">
        <ele>474</ele>
        <time>2026-08-29T09:19:54Z</time>
      </trkpt>
      <trkpt lat="50.682310173287988" lon="13.273107362911105">
        <ele>473</ele>
        <time>2026-08-29T09:19:55Z</time>
      </trkpt>
      <trkpt lat="50.682347221300006" lon="13.273104764521122">
        <ele>473</ele>
        <time>2026-08-29T09:19:56Z</time>
      </trkpt>
      <trkpt lat="50.682385358959436" lon="13.273086994886398">
        <ele>473</ele>
        <time>2026-08-29T09:19:57Z</time>
      </trkpt>
      <trkpt lat="50.682420898228884" lon="13.273066291585565">
        <ele>473</ele>
        <time>2026-08-29T09:19:58Z</time>
      </trkpt>
      <trkpt lat="50.682460712268949" lon="13.273037122562528">
        <ele>472</ele>
        <time>2026-08-29T09:19:59Z</time>
      </trkpt>
      <trkpt lat="50.682490970939398" lon="13.273023711517453">
        <ele>472</ele>
        <time>2026-08-29T09:20:00Z</time>
      </trkpt>
      <trkpt lat="50.682529108598828" lon="13.273001750931144">
        <ele>472</ele>
        <time>2026-08-29T09:20:01Z</time>
      </trkpt>
      <trkpt lat="50.682562720030546" lon="13.272990016266704">
        <ele>472</ele>
        <time>2026-08-29T09:20:02Z</time>
      </trkpt>
      <trkpt lat="50.682588368654251" lon="13.272986495867372">
        <ele>472</ele>
        <time>2026-08-29T09:20:03Z</time>
      </trkpt>
      <trkpt lat="50.682611921802163" lon="13.272976269945502">
        <ele>471</ele>
        <time>2026-08-29T09:20:04Z</time>
      </trkpt>
      <trkpt lat="50.682635139673948" lon="13.272969229146838">
        <ele>472</ele>
        <time>2026-08-29T09:20:05Z</time>
      </trkpt>
      <trkpt lat="50.682652238756418" lon="13.272969396784902">
        <ele>471</ele>
        <time>2026-08-29T09:20:06Z</time>
      </trkpt>
      <trkpt lat="50.682683670893312" lon="13.272968055680394">
        <ele>471</ele>
        <time>2026-08-29T09:20:07Z</time>
      </trkpt>
      <trkpt lat="50.682710660621524" lon="13.272975515574217">
        <ele>471</ele>
        <time>2026-08-29T09:20:08Z</time>
      </trkpt>
      <trkpt lat="50.682736728340387" lon="13.272976186126471">
        <ele>471</ele>
        <time>2026-08-29T09:20:09Z</time>
      </trkpt>
      <trkpt lat="50.682755252346396" lon="13.272960679605603">
        <ele>472</ele>
        <time>2026-08-29T09:20:10Z</time>
      </trkpt>
      <trkpt lat="50.682765478268266" lon="13.272947520017624">
        <ele>472</ele>
        <time>2026-08-29T09:20:11Z</time>
      </trkpt>
      <trkpt lat="50.682776374742389" lon="13.272954728454351">
        <ele>471</ele>
        <time>2026-08-29T09:20:12Z</time>
      </trkpt>
      <trkpt lat="50.682783666998148" lon="13.272962104529142">
        <ele>471</ele>
        <time>2026-08-29T09:20:13Z</time>
      </trkpt>
      <trkpt lat="50.68278769031167" lon="13.272967133671045">
        <ele>470</ele>
        <time>2026-08-29T09:20:14Z</time>
      </trkpt>
      <trkpt lat="50.682787103578448" lon="13.272961266338825">
        <ele>470</ele>
        <time>2026-08-29T09:20:15Z</time>
      </trkpt>
      <trkpt lat="50.682794395834208" lon="13.272959589958191">
        <ele>470</ele>
        <time>2026-08-29T09:20:16Z</time>
      </trkpt>
      <trkpt lat="50.68278718739748" lon="13.272978365421295">
        <ele>470</ele>
        <time>2026-08-29T09:20:17Z</time>
      </trkpt>
      <trkpt lat="50.682792887091637" lon="13.27297861687839">
        <ele>470</ele>
        <time>2026-08-29T09:20:18Z</time>
      </trkpt>
      <trkpt lat="50.682796910405159" lon="13.272968223318458">
        <ele>470</ele>
        <time>2026-08-29T09:20:19Z</time>
      </trkpt>
      <trkpt lat="50.682798502966762" lon="13.272972581908107">
        <ele>470</ele>
        <time>2026-08-29T09:20:20Z</time>
      </trkpt>
      <trkpt lat="50.682791881263256" lon="13.272974845021963">
        <ele>469</ele>
        <time>2026-08-29T09:20:21Z</time>
      </trkpt>
      <trkpt lat="50.68279548548162" lon="13.272974593564868">
        <ele>468</ele>
        <time>2026-08-29T09:20:22Z</time>
      </trkpt>
      <trkpt lat="50.682801771908998" lon="13.272970821708441">
        <ele>468</ele>
        <time>2026-08-29T09:20:23Z</time>
      </trkpt>
      <trkpt lat="50.682797078043222" lon="13.272980209439993">
        <ele>468</ele>
        <time>2026-08-29T09:20:24Z</time>
      </trkpt>
      <trkpt lat="50.682793809100986" lon="13.272990519180894">
        <ele>468</ele>
        <time>2026-08-29T09:20:25Z</time>
      </trkpt>
      <trkpt lat="50.682795820757747" lon="13.272993536666036">
        <ele>467</ele>
        <time>2026-08-29T09:20:26Z</time>
      </trkpt>
      <trkpt lat="50.68279841914773" lon="13.273001499474049">
        <ele>466</ele>
        <time>2026-08-29T09:20:27Z</time>
      </trkpt>
      <trkpt lat="50.68280478939414" lon="13.273003762587905">
        <ele>465</ele>
        <time>2026-08-29T09:20:28Z</time>
      </trkpt>
      <trkpt lat="50.682804621756077" lon="13.273004600778222">
        <ele>465</ele>
        <time>2026-08-29T09:20:29Z</time>
      </trkpt>
      <trkpt lat="50.682809231802821" lon="13.273004852235317">
        <ele>465</ele>
        <time>2026-08-29T09:20:30Z</time>
      </trkpt>
      <trkpt lat="50.682806130498648" lon="13.273008121177554">
        <ele>464</ele>
        <time>2026-08-29T09:20:31Z</time>
      </trkpt>
      <trkpt lat="50.682800598442554" lon="13.272997811436653">
        <ele>464</ele>
        <time>2026-08-29T09:20:32Z</time>
      </trkpt>
      <trkpt lat="50.682801017537713" lon="13.27299764379859">
        <ele>464</ele>
        <time>2026-08-29T09:20:33Z</time>
      </trkpt>
      <trkpt lat="50.682797245681286" lon="13.273003259673715">
        <ele>464</ele>
        <time>2026-08-29T09:20:34Z</time>
      </trkpt>
      <trkpt lat="50.682788612321019" lon="13.273000828921795">
        <ele>464</ele>
        <time>2026-08-29T09:20:35Z</time>
      </trkpt>
      <trkpt lat="50.682775285094976" lon="13.273001415655017">
        <ele>464</ele>
        <time>2026-08-29T09:20:36Z</time>
      </trkpt>
      <trkpt lat="50.682763047516346" lon="13.273008624091744">
        <ele>464</ele>
        <time>2026-08-29T09:20:37Z</time>
      </trkpt>
      <trkpt lat="50.68275055848062" lon="13.273021196946502">
        <ele>464</ele>
        <time>2026-08-29T09:20:38Z</time>
      </trkpt>
      <trkpt lat="50.682737398892641" lon="13.273031171411276">
        <ele>464</ele>
        <time>2026-08-29T09:20:39Z</time>
      </trkpt>
      <trkpt lat="50.682721557095647" lon="13.273047683760524">
        <ele>464</ele>
        <time>2026-08-29T09:20:40Z</time>
      </trkpt>
      <trkpt lat="50.682703536003828" lon="13.273053634911776">
        <ele>463</ele>
        <time>2026-08-29T09:20:41Z</time>
      </trkpt>
      <trkpt lat="50.682684928178787" lon="13.273059334605932">
        <ele>463</ele>
        <time>2026-08-29T09:20:42Z</time>
      </trkpt>
      <trkpt lat="50.682661961764097" lon="13.273060088977218">
        <ele>463</ele>
        <time>2026-08-29T09:20:43Z</time>
      </trkpt>
      <trkpt lat="50.682639582082629" lon="13.27306997962296">
        <ele>464</ele>
        <time>2026-08-29T09:20:44Z</time>
      </trkpt>
      <trkpt lat="50.682614268735051" lon="13.273085234686732">
        <ele>464</ele>
        <time>2026-08-29T09:20:45Z</time>
      </trkpt>
      <trkpt lat="50.682586021721363" lon="13.273085318505764">
        <ele>465</ele>
        <time>2026-08-29T09:20:46Z</time>
      </trkpt>
      <trkpt lat="50.682557187974453" lon="13.273083977401257">
        <ele>464</ele>
        <time>2026-08-29T09:20:47Z</time>
      </trkpt>
      <trkpt lat="50.682532377541065" lon="13.273078696802258">
        <ele>465</ele>
        <time>2026-08-29T09:20:48Z</time>
      </trkpt>
      <trkpt lat="50.682506980374455" lon="13.273089425638318">
        <ele>465</ele>
        <time>2026-08-29T09:20:49Z</time>
      </trkpt>
      <trkpt lat="50.682482002303004" lon="13.273089593276381">
        <ele>465</ele>
        <time>2026-08-29T09:20:50Z</time>
      </trkpt>
      <trkpt lat="50.682447552680969" lon="13.273110296577215">
        <ele>465</ele>
        <time>2026-08-29T09:20:51Z</time>
      </trkpt>
      <trkpt lat="50.682405643165112" lon="13.273123791441321">
        <ele>466</ele>
        <time>2026-08-29T09:20:52Z</time>
      </trkpt>
      <trkpt lat="50.682368678972125" lon="13.273128150030971">
        <ele>466</ele>
        <time>2026-08-29T09:20:53Z</time>
      </trkpt>
      <trkpt lat="50.682338671758771" lon="13.273128233850002">
        <ele>466</ele>
        <time>2026-08-29T09:20:54Z</time>
      </trkpt>
      <trkpt lat="50.682308580726385" lon="13.273152289912105">
        <ele>466</ele>
        <time>2026-08-29T09:20:55Z</time>
      </trkpt>
      <trkpt lat="50.682270443066955" lon="13.273163186386228">
        <ele>466</ele>
        <time>2026-08-29T09:20:56Z</time>
      </trkpt>
      <trkpt lat="50.682239262387156" lon="13.27317844145">
        <ele>466</ele>
        <time>2026-08-29T09:20:57Z</time>
      </trkpt>
      <trkpt lat="50.682216379791498" lon="13.273196127265692">
        <ele>466</ele>
        <time>2026-08-29T09:20:58Z</time>
      </trkpt>
      <trkpt lat="50.682180840522051" lon="13.273217417299747">
        <ele>466</ele>
        <time>2026-08-29T09:20:59Z</time>
      </trkpt>
      <trkpt lat="50.682155610993505" lon="13.273237869143486">
        <ele>466</ele>
        <time>2026-08-29T09:21:00Z</time>
      </trkpt>
      <trkpt lat="50.682138008996844" lon="13.273263350129128">
        <ele>466</ele>
        <time>2026-08-29T09:21:01Z</time>
      </trkpt>
      <trkpt lat="50.682112444192171" lon="13.273278940469027">
        <ele>466</ele>
        <time>2026-08-29T09:21:02Z</time>
      </trkpt>
      <trkpt lat="50.682087298482656" lon="13.27329914085567">
        <ele>466</ele>
        <time>2026-08-29T09:21:03Z</time>
      </trkpt>
      <trkpt lat="50.682058380916715" lon="13.273335937410593">
        <ele>466</ele>
        <time>2026-08-29T09:21:04Z</time>
      </trkpt>
      <trkpt lat="50.682023847475648" lon="13.273375667631626">
        <ele>466</ele>
        <time>2026-08-29T09:21:05Z</time>
      </trkpt>
      <trkpt lat="50.681998785585165" lon="13.27340760268271">
        <ele>466</ele>
        <time>2026-08-29T09:21:06Z</time>
      </trkpt>
      <trkpt lat="50.681968107819557" lon="13.273437106981874">
        <ele>466</ele>
        <time>2026-08-29T09:21:07Z</time>
      </trkpt>
      <trkpt lat="50.681939944624901" lon="13.273472310975194">
        <ele>466</ele>
        <time>2026-08-29T09:21:08Z</time>
      </trkpt>
      <trkpt lat="50.68192720413208" lon="13.273496618494391">
        <ele>466</ele>
        <time>2026-08-29T09:21:09Z</time>
      </trkpt>
      <trkpt lat="50.6819071713835" lon="13.273521596565843">
        <ele>466</ele>
        <time>2026-08-29T09:21:10Z</time>
      </trkpt>
      <trkpt lat="50.681894263252616" lon="13.273535091429949">
        <ele>467</ele>
        <time>2026-08-29T09:21:11Z</time>
      </trkpt>
      <trkpt lat="50.681875068694353" lon="13.273566272109747">
        <ele>467</ele>
        <time>2026-08-29T09:21:12Z</time>
      </trkpt>
      <trkpt lat="50.681867357343435" lon="13.273577252402902">
        <ele>467</ele>
        <time>2026-08-29T09:21:13Z</time>
      </trkpt>
      <trkpt lat="50.681850258260965" lon="13.273599799722433">
        <ele>467</ele>
        <time>2026-08-29T09:21:14Z</time>
      </trkpt>
      <trkpt lat="50.681837098672986" lon="13.273622179403901">
        <ele>467</ele>
        <time>2026-08-29T09:21:15Z</time>
      </trkpt>
      <trkpt lat="50.681813461706042" lon="13.273648833855987">
        <ele>467</ele>
        <time>2026-08-29T09:21:16Z</time>
      </trkpt>
      <trkpt lat="50.681791752576828" lon="13.273678421974182">
        <ele>467</ele>
        <time>2026-08-29T09:21:17Z</time>
      </trkpt>
      <trkpt lat="50.681766523048282" lon="13.273689821362495">
        <ele>467</ele>
        <time>2026-08-29T09:21:18Z</time>
      </trkpt>
      <trkpt lat="50.681748921051621" lon="13.273712703958154">
        <ele>467</ele>
        <time>2026-08-29T09:21:19Z</time>
      </trkpt>
      <trkpt lat="50.681730732321739" lon="13.273734664544463">
        <ele>467</ele>
        <time>2026-08-29T09:21:20Z</time>
      </trkpt>
      <trkpt lat="50.681719752028584" lon="13.273746902123094">
        <ele>467</ele>
        <time>2026-08-29T09:21:21Z</time>
      </trkpt>
      <trkpt lat="50.681697456166148" lon="13.273769617080688">
        <ele>467</ele>
        <time>2026-08-29T09:21:22Z</time>
      </trkpt>
      <trkpt lat="50.681676669046283" lon="13.27379509806633">
        <ele>467</ele>
        <time>2026-08-29T09:21:23Z</time>
      </trkpt>
      <trkpt lat="50.681658228859305" lon="13.273820579051971">
        <ele>467</ele>
        <time>2026-08-29T09:21:24Z</time>
      </trkpt>
      <trkpt lat="50.681635849177837" lon="13.273847652599216">
        <ele>468</ele>
        <time>2026-08-29T09:21:25Z</time>
      </trkpt>
      <trkpt lat="50.681605841964483" lon="13.27386885881424">
        <ele>468</ele>
        <time>2026-08-29T09:21:26Z</time>
      </trkpt>
      <trkpt lat="50.681588407605886" lon="13.273888975381851">
        <ele>468</ele>
        <time>2026-08-29T09:21:27Z</time>
      </trkpt>
      <trkpt lat="50.681561669334769" lon="13.273916803300381">
        <ele>468</ele>
        <time>2026-08-29T09:21:28Z</time>
      </trkpt>
      <trkpt lat="50.681534931063652" lon="13.273931639268994">
        <ele>468</ele>
        <time>2026-08-29T09:21:29Z</time>
      </trkpt>
      <trkpt lat="50.6815221067518" lon="13.273951504379511">
        <ele>468</ele>
        <time>2026-08-29T09:21:30Z</time>
      </trkpt>
      <trkpt lat="50.681498469784856" lon="13.273969441652298">
        <ele>468</ele>
        <time>2026-08-29T09:21:31Z</time>
      </trkpt>
      <trkpt lat="50.681479945778847" lon="13.273983523249626">
        <ele>467</ele>
        <time>2026-08-29T09:21:32Z</time>
      </trkpt>
      <trkpt lat="50.681465361267328" lon="13.273990983143449">
        <ele>468</ele>
        <time>2026-08-29T09:21:33Z</time>
      </trkpt>
      <trkpt lat="50.681454464793205" lon="13.274006322026253">
        <ele>468</ele>
        <time>2026-08-29T09:21:34Z</time>
      </trkpt>
      <trkpt lat="50.681439628824592" lon="13.274016631767154">
        <ele>468</ele>
        <time>2026-08-29T09:21:35Z</time>
      </trkpt>
      <trkpt lat="50.68142781034112" lon="13.274037167429924">
        <ele>469</ele>
        <time>2026-08-29T09:21:36Z</time>
      </trkpt>
      <trkpt lat="50.681407274678349" lon="13.274076394736767">
        <ele>469</ele>
        <time>2026-08-29T09:21:37Z</time>
      </trkpt>
      <trkpt lat="50.681380620226264" lon="13.274107575416565">
        <ele>469</ele>
        <time>2026-08-29T09:21:38Z</time>
      </trkpt>
      <trkpt lat="50.681352792307734" lon="13.274138756096363">
        <ele>469</ele>
        <time>2026-08-29T09:21:39Z</time>
      </trkpt>
      <trkpt lat="50.681327814236283" lon="13.274171110242605">
        <ele>469</ele>
        <time>2026-08-29T09:21:40Z</time>
      </trkpt>
      <trkpt lat="50.681320941075683" lon="13.274183850735426">
        <ele>469</ele>
        <time>2026-08-29T09:21:41Z</time>
      </trkpt>
      <trkpt lat="50.681323371827602" lon="13.274181419983506">
        <ele>470</ele>
        <time>2026-08-29T09:21:42Z</time>
      </trkpt>
      <trkpt lat="50.681321527808905" lon="13.274183934554458">
        <ele>469</ele>
        <time>2026-08-29T09:21:43Z</time>
      </trkpt>
      <trkpt lat="50.681315157562494" lon="13.27419139444828">
        <ele>469</ele>
        <time>2026-08-29T09:21:44Z</time>
      </trkpt>
      <trkpt lat="50.681314403191209" lon="13.274193070828915">
        <ele>469</ele>
        <time>2026-08-29T09:21:45Z</time>
      </trkpt>
      <trkpt lat="50.681315241381526" lon="13.274187371134758">
        <ele>469</ele>
        <time>2026-08-29T09:21:46Z</time>
      </trkpt>
      <trkpt lat="50.681317085400224" lon="13.274174127727747">
        <ele>469</ele>
        <time>2026-08-29T09:21:47Z</time>
      </trkpt>
      <trkpt lat="50.681322449818254" lon="13.274157615378499">
        <ele>469</ele>
        <time>2026-08-29T09:21:48Z</time>
      </trkpt>
      <trkpt lat="50.681320857256651" lon="13.274147305637598">
        <ele>469</ele>
        <time>2026-08-29T09:21:49Z</time>
      </trkpt>
      <trkpt lat="50.68132471293211" lon="13.274140181019902">
        <ele>469</ele>
        <time>2026-08-29T09:21:50Z</time>
      </trkpt>
      <trkpt lat="50.681322198361158" lon="13.274148562923074">
        <ele>469</ele>
        <time>2026-08-29T09:21:51Z</time>
      </trkpt>
      <trkpt lat="50.681323623284698" lon="13.274135570973158">
        <ele>469</ele>
        <time>2026-08-29T09:21:52Z</time>
      </trkpt>
      <trkpt lat="50.681323371827602" lon="13.274135570973158">
        <ele>469</ele>
        <time>2026-08-29T09:21:53Z</time>
      </trkpt>
      <trkpt lat="50.68132571876049" lon="13.274129033088684">
        <ele>469</ele>
        <time>2026-08-29T09:21:54Z</time>
      </trkpt>
      <trkpt lat="50.68133108317852" lon="13.274122579023242">
        <ele>470</ele>
        <time>2026-08-29T09:21:55Z</time>
      </trkpt>
      <trkpt lat="50.681331418454647" lon="13.274106988683343">
        <ele>470</ele>
        <time>2026-08-29T09:21:56Z</time>
      </trkpt>
      <trkpt lat="50.681336699053645" lon="13.274089554324746">
        <ele>470</ele>
        <time>2026-08-29T09:21:57Z</time>
      </trkpt>
      <trkpt lat="50.681343739852309" lon="13.274076730012894">
        <ele>471</ele>
        <time>2026-08-29T09:21:58Z</time>
      </trkpt>
      <trkpt lat="50.681347260251641" lon="13.274058541283011">
        <ele>471</ele>
        <time>2026-08-29T09:21:59Z</time>
      </trkpt>
      <trkpt lat="50.681357821449637" lon="13.274042028933764">
        <ele>471</ele>
        <time>2026-08-29T09:22:00Z</time>
      </trkpt>
      <trkpt lat="50.681373747065663" lon="13.274009758606553">
        <ele>471</ele>
        <time>2026-08-29T09:22:01Z</time>
      </trkpt>
      <trkpt lat="50.681383470073342" lon="13.273994587361813">
        <ele>472</ele>
        <time>2026-08-29T09:22:02Z</time>
      </trkpt>
      <trkpt lat="50.681388499215245" lon="13.273982014507055">
        <ele>471</ele>
        <time>2026-08-29T09:22:03Z</time>
      </trkpt>
      <trkpt lat="50.681404341012239" lon="13.273965250700712">
        <ele>472</ele>
        <time>2026-08-29T09:22:04Z</time>
      </trkpt>
      <trkpt lat="50.68141657859087" lon="13.273943038657308">
        <ele>471</ele>
        <time>2026-08-29T09:22:05Z</time>
      </trkpt>
      <trkpt lat="50.681427894160151" lon="13.273927364498377">
        <ele>471</ele>
        <time>2026-08-29T09:22:06Z</time>
      </trkpt>
      <trkpt lat="50.681441724300385" lon="13.273909594863653">
        <ele>471</ele>
        <time>2026-08-29T09:22:07Z</time>
      </trkpt>
      <trkpt lat="50.681454297155142" lon="13.273896351456642">
        <ele>471</ele>
        <time>2026-08-29T09:22:08Z</time>
      </trkpt>
      <trkpt lat="50.681462427601218" lon="13.273878414183855">
        <ele>471</ele>
        <time>2026-08-29T09:22:09Z</time>
      </trkpt>
      <trkpt lat="50.681471982970834" lon="13.273866260424256">
        <ele>472</ele>
        <time>2026-08-29T09:22:10Z</time>
      </trkpt>
      <trkpt lat="50.681486567482352" lon="13.273854022845626">
        <ele>472</ele>
        <time>2026-08-29T09:22:11Z</time>
      </trkpt>
      <trkpt lat="50.681492518633604" lon="13.273834828287363">
        <ele>472</ele>
        <time>2026-08-29T09:22:12Z</time>
      </trkpt>
      <trkpt lat="50.681507438421249" lon="13.273822925984859">
        <ele>473</ele>
        <time>2026-08-29T09:22:13Z</time>
      </trkpt>
      <trkpt lat="50.681526968255639" lon="13.273816471919417">
        <ele>473</ele>
        <time>2026-08-29T09:22:14Z</time>
      </trkpt>
      <trkpt lat="50.681538870558143" lon="13.27380632981658">
        <ele>474</ele>
        <time>2026-08-29T09:22:15Z</time>
      </trkpt>
      <trkpt lat="50.681555969640613" lon="13.273796187713742">
        <ele>473</ele>
        <time>2026-08-29T09:22:16Z</time>
      </trkpt>
      <trkpt lat="50.681574828922749" lon="13.273787135258317">
        <ele>474</ele>
        <time>2026-08-29T09:22:17Z</time>
      </trkpt>
      <trkpt lat="50.681594023481011" lon="13.273774730041623">
        <ele>474</ele>
        <time>2026-08-29T09:22:18Z</time>
      </trkpt>
      <trkpt lat="50.681606428697705" lon="13.273761905729771">
        <ele>474</ele>
        <time>2026-08-29T09:22:19Z</time>
      </trkpt>
      <trkpt lat="50.681618331000209" lon="13.273750925436616">
        <ele>475</ele>
        <time>2026-08-29T09:22:20Z</time>
      </trkpt>
      <trkpt lat="50.681627718731761" lon="13.273737682029605">
        <ele>475</ele>
        <time>2026-08-29T09:22:21Z</time>
      </trkpt>
      <trkpt lat="50.681644147261977" lon="13.273729048669338">
        <ele>475</ele>
        <time>2026-08-29T09:22:22Z</time>
      </trkpt>
      <trkpt lat="50.681662168353796" lon="13.273706585168839">
        <ele>476</ele>
        <time>2026-08-29T09:22:23Z</time>
      </trkpt>
      <trkpt lat="50.681682955473661" lon="13.273684037849307">
        <ele>475</ele>
        <time>2026-08-29T09:22:24Z</time>
      </trkpt>
      <trkpt lat="50.681701144203544" lon="13.273666854947805">
        <ele>476</ele>
        <time>2026-08-29T09:22:25Z</time>
      </trkpt>
      <trkpt lat="50.681715225800872" lon="13.273649923503399">
        <ele>475</ele>
        <time>2026-08-29T09:22:26Z</time>
      </trkpt>
      <trkpt lat="50.681731151416898" lon="13.273652605712414">
        <ele>476</ele>
        <time>2026-08-29T09:22:27Z</time>
      </trkpt>
      <trkpt lat="50.681739030405879" lon="13.273646235466003">
        <ele>476</ele>
        <time>2026-08-29T09:22:28Z</time>
      </trkpt>
      <trkpt lat="50.681756800040603" lon="13.273622011765838">
        <ele>476</ele>
        <time>2026-08-29T09:22:29Z</time>
      </trkpt>
      <trkpt lat="50.681782197207212" lon="13.273595860227942">
        <ele>477</ele>
        <time>2026-08-29T09:22:30Z</time>
      </trkpt>
      <trkpt lat="50.68180994130671" lon="13.273574067279696">
        <ele>477</ele>
        <time>2026-08-29T09:22:31Z</time>
      </trkpt>
      <trkpt lat="50.681836847215891" lon="13.273551603779197">
        <ele>477</ele>
        <time>2026-08-29T09:22:32Z</time>
      </trkpt>
      <trkpt lat="50.68185486830771" lon="13.273538276553154">
        <ele>477</ele>
        <time>2026-08-29T09:22:33Z</time>
      </trkpt>
      <trkpt lat="50.681874733418226" lon="13.273527882993221">
        <ele>478</ele>
        <time>2026-08-29T09:22:34Z</time>
      </trkpt>
      <trkpt lat="50.681901136413217" lon="13.273517824709415">
        <ele>478</ele>
        <time>2026-08-29T09:22:35Z</time>
      </trkpt>
      <trkpt lat="50.681922426447272" lon="13.273498546332121">
        <ele>478</ele>
        <time>2026-08-29T09:22:36Z</time>
      </trkpt>
      <trkpt lat="50.681936927139759" lon="13.273475579917431">
        <ele>478</ele>
        <time>2026-08-29T09:22:37Z</time>
      </trkpt>
      <trkpt lat="50.681957211345434" lon="13.273451440036297">
        <ele>479</ele>
        <time>2026-08-29T09:22:38Z</time>
      </trkpt>
      <trkpt lat="50.681971460580826" lon="13.273436101153493">
        <ele>479</ele>
        <time>2026-08-29T09:22:39Z</time>
      </trkpt>
      <trkpt lat="50.681989649310708" lon="13.273410871624947">
        <ele>479</ele>
        <time>2026-08-29T09:22:40Z</time>
      </trkpt>
      <trkpt lat="50.682014124467969" lon="13.273384384810925">
        <ele>479</ele>
        <time>2026-08-29T09:22:41Z</time>
      </trkpt>
      <trkpt lat="50.682040611281991" lon="13.273356053978205">
        <ele>480</ele>
        <time>2026-08-29T09:22:42Z</time>
      </trkpt>
      <trkpt lat="50.682053351774812" lon="13.273328226059675">
        <ele>480</ele>
        <time>2026-08-29T09:22:43Z</time>
      </trkpt>
      <trkpt lat="50.682071708142757" lon="13.273303415626287">
        <ele>479</ele>
        <time>2026-08-29T09:22:44Z</time>
      </trkpt>
      <trkpt lat="50.682093501091003" lon="13.273281035944819">
        <ele>479</ele>
        <time>2026-08-29T09:22:45Z</time>
      </trkpt>
      <trkpt lat="50.68210992962122" lon="13.273272402584553">
        <ele>480</ele>
        <time>2026-08-29T09:22:46Z</time>
      </trkpt>
      <trkpt lat="50.682117221876979" lon="13.273265277966857">
        <ele>480</ele>
        <time>2026-08-29T09:22:47Z</time>
      </trkpt>
      <trkpt lat="50.682141780853271" lon="13.273247759789228">
        <ele>479</ele>
        <time>2026-08-29T09:22:48Z</time>
      </trkpt>
      <trkpt lat="50.682164831086993" lon="13.273231750354171">
        <ele>478</ele>
        <time>2026-08-29T09:22:49Z</time>
      </trkpt>
      <trkpt lat="50.68217983469367" lon="13.27321314252913">
        <ele>477</ele>
        <time>2026-08-29T09:22:50Z</time>
      </trkpt>
      <trkpt lat="50.682195760309696" lon="13.273220770061016">
        <ele>476</ele>
        <time>2026-08-29T09:22:51Z</time>
      </trkpt>
      <trkpt lat="50.682200621813536" lon="13.273210627958179">
        <ele>475</ele>
        <time>2026-08-29T09:22:52Z</time>
      </trkpt>
      <trkpt lat="50.682204980403185" lon="13.273195205256343">
        <ele>475</ele>
        <time>2026-08-29T09:22:53Z</time>
      </trkpt>
      <trkpt lat="50.682209171354771" lon="13.273186320438981">
        <ele>476</ele>
        <time>2026-08-29T09:22:54Z</time>
      </trkpt>
      <trkpt lat="50.682217385619879" lon="13.273174837231636">
        <ele>475</ele>
        <time>2026-08-29T09:22:55Z</time>
      </trkpt>
      <trkpt lat="50.682213110849261" lon="13.273170981556177">
        <ele>474</ele>
        <time>2026-08-29T09:22:56Z</time>
      </trkpt>
      <trkpt lat="50.682218559086323" lon="13.273164192214608">
        <ele>474</ele>
        <time>2026-08-29T09:22:57Z</time>
      </trkpt>
      <trkpt lat="50.682228449732065" lon="13.273153128102422">
        <ele>474</ele>
        <time>2026-08-29T09:22:58Z</time>
      </trkpt>
      <trkpt lat="50.682231467217207" lon="13.273147009313107">
        <ele>474</ele>
        <time>2026-08-29T09:22:59Z</time>
      </trkpt>
      <trkpt lat="50.682230209931731" lon="13.27312764711678">
        <ele>474</ele>
        <time>2026-08-29T09:23:00Z</time>
      </trkpt>
      <trkpt lat="50.682238424196839" lon="13.273127898573875">
        <ele>473</ele>
        <time>2026-08-29T09:23:01Z</time>
      </trkpt>
      <trkpt lat="50.682260049507022" lon="13.273110464215279">
        <ele>474</ele>
        <time>2026-08-29T09:23:02Z</time>
      </trkpt>
      <trkpt lat="50.682284189388156" lon="13.273095963522792">
        <ele>474</ele>
        <time>2026-08-29T09:23:03Z</time>
      </trkpt>
      <trkpt lat="50.682312268763781" lon="13.273088838905096">
        <ele>474</ele>
        <time>2026-08-29T09:23:04Z</time>
      </trkpt>
      <trkpt lat="50.682335821911693" lon="13.273073080927134">
        <ele>474</ele>
        <time>2026-08-29T09:23:05Z</time>
      </trkpt>
      <trkpt lat="50.682366918772459" lon="13.273066962137818">
        <ele>474</ele>
        <time>2026-08-29T09:23:06Z</time>
      </trkpt>
      <trkpt lat="50.68240363150835" lon="13.273054724559188">
        <ele>474</ele>
        <time>2026-08-29T09:23:07Z</time>
      </trkpt>
      <trkpt lat="50.682438500225544" lon="13.273034188896418">
        <ele>474</ele>
        <time>2026-08-29T09:23:08Z</time>
      </trkpt>
      <trkpt lat="50.682474039494991" lon="13.273030081763864">
        <ele>473</ele>
        <time>2026-08-29T09:23:09Z</time>
      </trkpt>
      <trkpt lat="50.682505806908011" lon="13.273027986288071">
        <ele>473</ele>
        <time>2026-08-29T09:23:10Z</time>
      </trkpt>
      <trkpt lat="50.682536400854588" lon="13.273018514737487">
        <ele>473</ele>
        <time>2026-08-29T09:23:11Z</time>
      </trkpt>
      <trkpt lat="50.682567749172449" lon="13.27299278229475">
        <ele>473</ele>
        <time>2026-08-29T09:23:12Z</time>
      </trkpt>
      <trkpt lat="50.682595996186137" lon="13.272979706525803">
        <ele>474</ele>
        <time>2026-08-29T09:23:13Z</time>
      </trkpt>
      <trkpt lat="50.682627260684967" lon="13.27294584363699">
        <ele>474</ele>
        <time>2026-08-29T09:23:14Z</time>
      </trkpt>
      <trkpt lat="50.682650813832879" lon="13.272934863343835">
        <ele>474</ele>
        <time>2026-08-29T09:23:15Z</time>
      </trkpt>
      <trkpt lat="50.682681743055582" lon="13.272932600229979">
        <ele>474</ele>
        <time>2026-08-29T09:23:16Z</time>
      </trkpt>
      <trkpt lat="50.68271242082119" lon="13.272930923849344">
        <ele>474</ele>
        <time>2026-08-29T09:23:17Z</time>
      </trkpt>
      <trkpt lat="50.682737398892641" lon="13.272928828373551">
        <ele>474</ele>
        <time>2026-08-29T09:23:18Z</time>
      </trkpt>
      <trkpt lat="50.682762796059251" lon="13.272931342944503">
        <ele>474</ele>
        <time>2026-08-29T09:23:19Z</time>
      </trkpt>
      <trkpt lat="50.682776207104325" lon="13.272934025153518">
        <ele>474</ele>
        <time>2026-08-29T09:23:20Z</time>
      </trkpt>
      <trkpt lat="50.682795569300652" lon="13.272925475612283">
        <ele>474</ele>
        <time>2026-08-29T09:23:21Z</time>
      </trkpt>
      <trkpt lat="50.682805627584457" lon="13.272922541946173">
        <ele>474</ele>
        <time>2026-08-29T09:23:22Z</time>
      </trkpt>
      <trkpt lat="50.682811830192804" lon="13.272924050688744">
        <ele>474</ele>
        <time>2026-08-29T09:23:23Z</time>
      </trkpt>
      <trkpt lat="50.682813255116343" lon="13.272938886657357">
        <ele>473</ele>
        <time>2026-08-29T09:23:24Z</time>
      </trkpt>
      <trkpt lat="50.682818619534373" lon="13.272938216105103">
        <ele>473</ele>
        <time>2026-08-29T09:23:25Z</time>
      </trkpt>
      <trkpt lat="50.682824989780784" lon="13.27296294271946">
        <ele>472</ele>
        <time>2026-08-29T09:23:26Z</time>
      </trkpt>
      <trkpt lat="50.682825995609164" lon="13.272981802001595">
        <ele>472</ele>
        <time>2026-08-29T09:23:27Z</time>
      </trkpt>
      <trkpt lat="50.68282088264823" lon="13.272983646020293">
        <ele>471</ele>
        <time>2026-08-29T09:23:28Z</time>
      </trkpt>
      <trkpt lat="50.682825157418847" lon="13.272990267723799">
        <ele>471</ele>
        <time>2026-08-29T09:23:29Z</time>
      </trkpt>
      <trkpt lat="50.68282968364656" lon="13.273004852235317">
        <ele>471</ele>
        <time>2026-08-29T09:23:30Z</time>
      </trkpt>
      <trkpt lat="50.682829599827528" lon="13.273004852235317">
        <ele>471</ele>
        <time>2026-08-29T09:23:31Z</time>
      </trkpt>
      <trkpt lat="50.682829348370433" lon="13.273014491423965">
        <ele>471</ele>
        <time>2026-08-29T09:23:32Z</time>
      </trkpt>
      <trkpt lat="50.682821720838547" lon="13.273025387898088">
        <ele>471</ele>
        <time>2026-08-29T09:23:33Z</time>
      </trkpt>
      <trkpt lat="50.682819709181786" lon="13.273018933832645">
        <ele>471</ele>
        <time>2026-08-29T09:23:34Z</time>
      </trkpt>
      <trkpt lat="50.682819625362754" lon="13.27301868237555">
        <ele>471</ele>
        <time>2026-08-29T09:23:35Z</time>
      </trkpt>
      <trkpt lat="50.6828223913908" lon="13.273021196946502">
        <ele>471</ele>
        <time>2026-08-29T09:23:36Z</time>
      </trkpt>
      <trkpt lat="50.682826917618513" lon="13.27301180921495">
        <ele>471</ele>
        <time>2026-08-29T09:23:37Z</time>
      </trkpt>
      <trkpt lat="50.682832114398479" lon="13.273000745102763">
        <ele>471</ele>
        <time>2026-08-29T09:23:38Z</time>
      </trkpt>
      <trkpt lat="50.682837478816509" lon="13.27299814671278">
        <ele>471</ele>
        <time>2026-08-29T09:23:39Z</time>
      </trkpt>
      <trkpt lat="50.68284971639514" lon="13.273000745102763">
        <ele>471</ele>
        <time>2026-08-29T09:23:40Z</time>
      </trkpt>
      <trkpt lat="50.68285365588963" lon="13.273003762587905">
        <ele>471</ele>
        <time>2026-08-29T09:23:41Z</time>
      </trkpt>
      <trkpt lat="50.682860529050231" lon="13.272999906912446">
        <ele>471</ele>
        <time>2026-08-29T09:23:42Z</time>
      </trkpt>
      <trkpt lat="50.682861618697643" lon="13.273010468110442">
        <ele>471</ele>
        <time>2026-08-29T09:23:43Z</time>
      </trkpt>
      <trkpt lat="50.682868072763085" lon="13.273004768416286">
        <ele>471</ele>
        <time>2026-08-29T09:23:44Z</time>
      </trkpt>
      <trkpt lat="50.682869078591466" lon="13.273004684597254">
        <ele>471</ele>
        <time>2026-08-29T09:23:45Z</time>
      </trkpt>
      <trkpt lat="50.682875448837876" lon="13.273002840578556">
        <ele>471</ele>
        <time>2026-08-29T09:23:46Z</time>
      </trkpt>
      <trkpt lat="50.682883327826858" lon="13.273001164197922">
        <ele>471</ele>
        <time>2026-08-29T09:23:47Z</time>
      </trkpt>
      <trkpt lat="50.682891458272934" lon="13.272995799779892">
        <ele>471</ele>
        <time>2026-08-29T09:23:48Z</time>
      </trkpt>
      <trkpt lat="50.682902438566089" lon="13.272998733446002">
        <ele>471</ele>
        <time>2026-08-29T09:23:49Z</time>
      </trkpt>
      <trkpt lat="50.682915179058909" lon="13.272998062893748">
        <ele>471</ele>
        <time>2026-08-29T09:23:50Z</time>
      </trkpt>
      <trkpt lat="50.682926829904318" lon="13.273002421483397">
        <ele>470</ele>
        <time>2026-08-29T09:23:51Z</time>
      </trkpt>
      <trkpt lat="50.682934541255236" lon="13.273002505302429">
        <ele>470</ele>
        <time>2026-08-29T09:23:52Z</time>
      </trkpt>
      <trkpt lat="50.682942001149058" lon="13.273001164197922">
        <ele>470</ele>
        <time>2026-08-29T09:23:53Z</time>
      </trkpt>
      <trkpt lat="50.682947700843215" lon="13.272997057065368">
        <ele>470</ele>
        <time>2026-08-29T09:23:54Z</time>
      </trkpt>
      <trkpt lat="50.682955579832196" lon="13.272991273552179">
        <ele>471</ele>
        <time>2026-08-29T09:23:55Z</time>
      </trkpt>
      <trkpt lat="50.682963710278273" lon="13.272987585514784">
        <ele>471</ele>
        <time>2026-08-29T09:23:56Z</time>
      </trkpt>
      <trkpt lat="50.682973014190793" lon="13.27297861687839">
        <ele>472</ele>
        <time>2026-08-29T09:23:57Z</time>
      </trkpt>
      <trkpt lat="50.682969158515334" lon="13.272963697090745">
        <ele>471</ele>
        <time>2026-08-29T09:23:58Z</time>
      </trkpt>
      <trkpt lat="50.682969242334366" lon="13.27296344563365">
        <ele>471</ele>
        <time>2026-08-29T09:23:59Z</time>
      </trkpt>
      <trkpt lat="50.682960441336036" lon="13.272965624928474">
        <ele>470</ele>
        <time>2026-08-29T09:24:00Z</time>
      </trkpt>
      <trkpt lat="50.682960357517004" lon="13.272969648241997">
        <ele>470</ele>
        <time>2026-08-29T09:24:01Z</time>
      </trkpt>
      <trkpt lat="50.682957842946053" lon="13.272971659898758">
        <ele>471</ele>
        <time>2026-08-29T09:24:02Z</time>
      </trkpt>
      <trkpt lat="50.682959351688623" lon="13.272970989346504">
        <ele>471</ele>
        <time>2026-08-29T09:24:03Z</time>
      </trkpt>
      <trkpt lat="50.682958764955401" lon="13.272963697090745">
        <ele>470</ele>
        <time>2026-08-29T09:24:04Z</time>
      </trkpt>
      <trkpt lat="50.682960022240877" lon="13.272953974083066">
        <ele>469</ele>
        <time>2026-08-29T09:24:05Z</time>
      </trkpt>
      <trkpt lat="50.682960022240877" lon="13.272954225540161">
        <ele>469</ele>
        <time>2026-08-29T09:24:06Z</time>
      </trkpt>
      <trkpt lat="50.682960022240877" lon="13.27295757830143">
        <ele>470</ele>
        <time>2026-08-29T09:24:07Z</time>
      </trkpt>
      <trkpt lat="50.68296697922051" lon="13.272959254682064">
        <ele>470</ele>
        <time>2026-08-29T09:24:08Z</time>
      </trkpt>
      <trkpt lat="50.682970918715" lon="13.272955818101764">
        <ele>470</ele>
        <time>2026-08-29T09:24:09Z</time>
      </trkpt>
      <trkpt lat="50.682969242334366" lon="13.272943664342165">
        <ele>470</ele>
        <time>2026-08-29T09:24:10Z</time>
      </trkpt>
      <trkpt lat="50.682969074696302" lon="13.27294341288507">
        <ele>470</ele>
        <time>2026-08-29T09:24:11Z</time>
      </trkpt>
      <trkpt lat="50.682969074696302" lon="13.272943329066038">
        <ele>470</ele>
        <time>2026-08-29T09:24:12Z</time>
      </trkpt>
      <trkpt lat="50.682968907058239" lon="13.27294391579926">
        <ele>470</ele>
        <time>2026-08-29T09:24:13Z</time>
      </trkpt>
      <trkpt lat="50.682968320325017" lon="13.27294341288507">
        <ele>470</ele>
        <time>2026-08-29T09:24:14Z</time>
      </trkpt>
      <trkpt lat="50.68296505138278" lon="13.272946430370212">
        <ele>470</ele>
        <time>2026-08-29T09:24:15Z</time>
      </trkpt>
      <trkpt lat="50.682963291183114" lon="13.272936120629311">
        <ele>470</ele>
        <time>2026-08-29T09:24:16Z</time>
      </trkpt>
      <trkpt lat="50.682966643944383" lon="13.272921536117792">
        <ele>470</ele>
        <time>2026-08-29T09:24:17Z</time>
      </trkpt>
      <trkpt lat="50.682963961735368" lon="13.272903766483068">
        <ele>470</ele>
        <time>2026-08-29T09:24:18Z</time>
      </trkpt>
      <trkpt lat="50.682959938421845" lon="13.272882727906108">
        <ele>469</ele>
        <time>2026-08-29T09:24:19Z</time>
      </trkpt>
      <trkpt lat="50.682959603145719" lon="13.272882895544171">
        <ele>469</ele>
        <time>2026-08-29T09:24:20Z</time>
      </trkpt>
      <trkpt lat="50.682959603145719" lon="13.272882560268044">
        <ele>469</ele>
        <time>2026-08-29T09:24:21Z</time>
      </trkpt>
      <trkpt lat="50.682960860431194" lon="13.272864706814289">
        <ele>468</ele>
        <time>2026-08-29T09:24:22Z</time>
      </trkpt>
      <trkpt lat="50.682963710278273" lon="13.27286328189075">
        <ele>469</ele>
        <time>2026-08-29T09:24:23Z</time>
      </trkpt>
      <trkpt lat="50.682972259819508" lon="13.272870657965541">
        <ele>468</ele>
        <time>2026-08-29T09:24:24Z</time>
      </trkpt>
      <trkpt lat="50.682973181828856" lon="13.272864958271384">
        <ele>467</ele>
        <time>2026-08-29T09:24:25Z</time>
      </trkpt>
      <trkpt lat="50.682973768562078" lon="13.272864790633321">
        <ele>467</ele>
        <time>2026-08-29T09:24:26Z</time>
      </trkpt>
      <trkpt lat="50.682976199313998" lon="13.272864706814289">
        <ele>467</ele>
        <time>2026-08-29T09:24:27Z</time>
      </trkpt>
      <trkpt lat="50.682978965342045" lon="13.27286085113883">
        <ele>467</ele>
        <time>2026-08-29T09:24:28Z</time>
      </trkpt>
      <trkpt lat="50.682982737198472" lon="13.272850960493088">
        <ele>467</ele>
        <time>2026-08-29T09:24:29Z</time>
      </trkpt>
      <trkpt lat="50.682982737198472" lon="13.272850876674056">
        <ele>467</ele>
        <time>2026-08-29T09:24:30Z</time>
      </trkpt>
      <trkpt lat="50.682983826845884" lon="13.27285154722631">
        <ele>467</ele>
        <time>2026-08-29T09:24:31Z</time>
      </trkpt>
      <trkpt lat="50.682984329760075" lon="13.272853810340166">
        <ele>467</ele>
        <time>2026-08-29T09:24:32Z</time>
      </trkpt>
      <trkpt lat="50.682989358901978" lon="13.272861689329147">
        <ele>467</ele>
        <time>2026-08-29T09:24:33Z</time>
      </trkpt>
      <trkpt lat="50.682992292568088" lon="13.272858755663037">
        <ele>467</ele>
        <time>2026-08-29T09:24:34Z</time>
      </trkpt>
      <trkpt lat="50.682990867644548" lon="13.272851379588246">
        <ele>466</ele>
        <time>2026-08-29T09:24:35Z</time>
      </trkpt>
      <trkpt lat="50.682990532368422" lon="13.272851044312119">
        <ele>466</ele>
        <time>2026-08-29T09:24:36Z</time>
      </trkpt>
      <trkpt lat="50.68299044854939" lon="13.272850625216961">
        <ele>466</ele>
        <time>2026-08-29T09:24:37Z</time>
      </trkpt>
      <trkpt lat="50.682989861816168" lon="13.272845009341836">
        <ele>466</ele>
        <time>2026-08-29T09:24:38Z</time>
      </trkpt>
      <trkpt lat="50.682989358901978" lon="13.272853558883071">
        <ele>466</ele>
        <time>2026-08-29T09:24:39Z</time>
      </trkpt>
      <trkpt lat="50.682988353073597" lon="13.272848362103105">
        <ele>466</ele>
        <time>2026-08-29T09:24:40Z</time>
      </trkpt>
      <trkpt lat="50.682991370558739" lon="13.272842997685075">
        <ele>466</ele>
        <time>2026-08-29T09:24:41Z</time>
      </trkpt>
      <trkpt lat="50.682990783825517" lon="13.272841908037663">
        <ele>465</ele>
        <time>2026-08-29T09:24:42Z</time>
      </trkpt>
      <trkpt lat="50.682989442721009" lon="13.272836292162538">
        <ele>465</ele>
        <time>2026-08-29T09:24:43Z</time>
      </trkpt>
      <trkpt lat="50.682989442721009" lon="13.272836543619633">
        <ele>465</ele>
        <time>2026-08-29T09:24:44Z</time>
      </trkpt>
      <trkpt lat="50.682991035282612" lon="13.272832185029984">
        <ele>465</ele>
        <time>2026-08-29T09:24:45Z</time>
      </trkpt>
      <trkpt lat="50.682992041110992" lon="13.272840650752187">
        <ele>465</ele>
        <time>2026-08-29T09:24:46Z</time>
      </trkpt>
      <trkpt lat="50.682991622015834" lon="13.272839058190584">
        <ele>465</ele>
        <time>2026-08-29T09:24:47Z</time>
      </trkpt>
      <trkpt lat="50.682991873472929" lon="13.272844338789582">
        <ele>466</ele>
        <time>2026-08-29T09:24:48Z</time>
      </trkpt>
      <trkpt lat="50.682994639500976" lon="13.272840650752187">
        <ele>466</ele>
        <time>2026-08-29T09:24:49Z</time>
      </trkpt>
      <trkpt lat="50.682996399700642" lon="13.272833190858364">
        <ele>466</ele>
        <time>2026-08-29T09:24:50Z</time>
      </trkpt>
      <trkpt lat="50.683003189042211" lon="13.272828999906778">
        <ele>465</ele>
        <time>2026-08-29T09:24:51Z</time>
      </trkpt>
      <trkpt lat="50.683002099394798" lon="13.272828161716461">
        <ele>465</ele>
        <time>2026-08-29T09:24:52Z</time>
      </trkpt>
      <trkpt lat="50.68300168029964" lon="13.272828245535493">
        <ele>465</ele>
        <time>2026-08-29T09:24:53Z</time>
      </trkpt>
      <trkpt lat="50.68300168029964" lon="13.272828077897429">
        <ele>465</ele>
        <time>2026-08-29T09:24:54Z</time>
      </trkpt>
      <trkpt lat="50.683001847937703" lon="13.272827994078398">
        <ele>465</ele>
        <time>2026-08-29T09:24:55Z</time>
      </trkpt>
      <trkpt lat="50.68300168029964" lon="13.272827826440334">
        <ele>465</ele>
        <time>2026-08-29T09:24:56Z</time>
      </trkpt>
      <trkpt lat="50.683001428842545" lon="13.272827994078398">
        <ele>465</ele>
        <time>2026-08-29T09:24:57Z</time>
      </trkpt>
      <trkpt lat="50.683001009747386" lon="13.272828161716461">
        <ele>465</ele>
        <time>2026-08-29T09:24:58Z</time>
      </trkpt>
      <trkpt lat="50.683000674471259" lon="13.272828496992588">
        <ele>465</ele>
        <time>2026-08-29T09:24:59Z</time>
      </trkpt>
      <trkpt lat="50.683000506833196" lon="13.272831179201603">
        <ele>466</ele>
        <time>2026-08-29T09:25:00Z</time>
      </trkpt>
      <trkpt lat="50.683000003919005" lon="13.272831346839666">
        <ele>465</ele>
        <time>2026-08-29T09:25:01Z</time>
      </trkpt>
      <trkpt lat="50.682999501004815" lon="13.272831765934825">
        <ele>465</ele>
        <time>2026-08-29T09:25:02Z</time>
      </trkpt>
      <trkpt lat="50.682999081909657" lon="13.272832352668047">
        <ele>465</ele>
        <time>2026-08-29T09:25:03Z</time>
      </trkpt>
      <trkpt lat="50.682998830452561" lon="13.272832604125142">
        <ele>465</ele>
        <time>2026-08-29T09:25:04Z</time>
      </trkpt>
      <trkpt lat="50.682998662814498" lon="13.272833023220301">
        <ele>466</ele>
        <time>2026-08-29T09:25:05Z</time>
      </trkpt>
      <trkpt lat="50.682998578995466" lon="13.272833693772554">
        <ele>466</ele>
        <time>2026-08-29T09:25:06Z</time>
      </trkpt>
      <trkpt lat="50.682998495176435" lon="13.27283394522965">
        <ele>466</ele>
        <time>2026-08-29T09:25:07Z</time>
      </trkpt>
      <trkpt lat="50.682998495176435" lon="13.27283394522965">
        <ele>466</ele>
        <time>2026-08-29T09:25:08Z</time>
      </trkpt>
      <trkpt lat="50.682998578995466" lon="13.272833693772554">
        <ele>466</ele>
        <time>2026-08-29T09:25:09Z</time>
      </trkpt>
      <trkpt lat="50.682999333366752" lon="13.272826736792922">
        <ele>466</ele>
        <time>2026-08-29T09:25:10Z</time>
      </trkpt>
      <trkpt lat="50.683000339195132" lon="13.272827239707112">
        <ele>466</ele>
        <time>2026-08-29T09:25:11Z</time>
      </trkpt>
      <trkpt lat="50.683005871251225" lon="13.272825898602605">
        <ele>466</ele>
        <time>2026-08-29T09:25:12Z</time>
      </trkpt>
      <trkpt lat="50.683012744411826" lon="13.272827491164207">
        <ele>466</ele>
        <time>2026-08-29T09:25:13Z</time>
      </trkpt>
      <trkpt lat="50.683014839887619" lon="13.272826233878732">
        <ele>465</ele>
        <time>2026-08-29T09:25:14Z</time>
      </trkpt>
      <trkpt lat="50.683020288124681" lon="13.272824054583907">
        <ele>465</ele>
        <time>2026-08-29T09:25:15Z</time>
      </trkpt>
      <trkpt lat="50.683029005303979" lon="13.272835873067379">
        <ele>465</ele>
        <time>2026-08-29T09:25:16Z</time>
      </trkpt>
      <trkpt lat="50.683041410520673" lon="13.272847104817629">
        <ele>465</ele>
        <time>2026-08-29T09:25:17Z</time>
      </trkpt>
      <trkpt lat="50.683055575937033" lon="13.27283981256187">
        <ele>465</ele>
        <time>2026-08-29T09:25:18Z</time>
      </trkpt>
      <trkpt lat="50.683070914819837" lon="13.272837297990918">
        <ele>464</ele>
        <time>2026-08-29T09:25:19Z</time>
      </trkpt>
      <trkpt lat="50.683093629777431" lon="13.272830508649349">
        <ele>464</ele>
        <time>2026-08-29T09:25:20Z</time>
      </trkpt>
      <trkpt lat="50.683121373876929" lon="13.272826988250017">
        <ele>464</ele>
        <time>2026-08-29T09:25:21Z</time>
      </trkpt>
      <trkpt lat="50.683147273957729" lon="13.272827994078398">
        <ele>464</ele>
        <time>2026-08-29T09:25:22Z</time>
      </trkpt>
      <trkpt lat="50.683170072734356" lon="13.272835537791252">
        <ele>463</ele>
        <time>2026-08-29T09:25:23Z</time>
      </trkpt>
      <trkpt lat="50.6832005828619" lon="13.272836962714791">
        <ele>463</ele>
        <time>2026-08-29T09:25:24Z</time>
      </trkpt>
      <trkpt lat="50.683230338618159" lon="13.272838974371552">
        <ele>463</ele>
        <time>2026-08-29T09:25:25Z</time>
      </trkpt>
      <trkpt lat="50.683257328346372" lon="13.272836711257696">
        <ele>464</ele>
        <time>2026-08-29T09:25:26Z</time>
      </trkpt>
      <trkpt lat="50.68328264169395" lon="13.272827910259366">
        <ele>464</ele>
        <time>2026-08-29T09:25:27Z</time>
      </trkpt>
      <trkpt lat="50.683310218155384" lon="13.272823300212622">
        <ele>464</ele>
        <time>2026-08-29T09:25:28Z</time>
      </trkpt>
      <trkpt lat="50.683336202055216" lon="13.272826233878732">
        <ele>464</ele>
        <time>2026-08-29T09:25:29Z</time>
      </trkpt>
      <trkpt lat="50.683355228975415" lon="13.272835370153189">
        <ele>464</ele>
        <time>2026-08-29T09:25:30Z</time>
      </trkpt>
      <trkpt lat="50.68337257951498" lon="13.272833442315459">
        <ele>464</ele>
        <time>2026-08-29T09:25:31Z</time>
      </trkpt>
      <trkpt lat="50.683393115177751" lon="13.272830089554191">
        <ele>464</ele>
        <time>2026-08-29T09:25:32Z</time>
      </trkpt>
      <trkpt lat="50.683416249230504" lon="13.272834280505776">
        <ele>463</ele>
        <time>2026-08-29T09:25:33Z</time>
      </trkpt>
      <trkpt lat="50.683434270322323" lon="13.272820534184575">
        <ele>463</ele>
        <time>2026-08-29T09:25:34Z</time>
      </trkpt>
      <trkpt lat="50.683443658053875" lon="13.272830173373222">
        <ele>463</ele>
        <time>2026-08-29T09:25:35Z</time>
      </trkpt>
      <trkpt lat="50.683439970016479" lon="13.27282958664">
        <ele>463</ele>
        <time>2026-08-29T09:25:36Z</time>
      </trkpt>
      <trkpt lat="50.683444999158382" lon="13.272829921916127">
        <ele>462</ele>
        <time>2026-08-29T09:25:37Z</time>
      </trkpt>
      <trkpt lat="50.683444580063224" lon="13.272824138402939">
        <ele>462</ele>
        <time>2026-08-29T09:25:38Z</time>
      </trkpt>
      <trkpt lat="50.683451788499951" lon="13.272824389860034">
        <ele>461</ele>
        <time>2026-08-29T09:25:39Z</time>
      </trkpt>
      <trkpt lat="50.683450782671571" lon="13.272821959108114">
        <ele>461</ele>
        <time>2026-08-29T09:25:40Z</time>
      </trkpt>
      <trkpt lat="50.683447178453207" lon="13.272816762328148">
        <ele>461</ele>
        <time>2026-08-29T09:25:41Z</time>
      </trkpt>
      <trkpt lat="50.68344390951097" lon="13.272820450365543">
        <ele>461</ele>
        <time>2026-08-29T09:25:42Z</time>
      </trkpt>
      <trkpt lat="50.683443741872907" lon="13.272820701822639">
        <ele>461</ele>
        <time>2026-08-29T09:25:43Z</time>
      </trkpt>
      <trkpt lat="50.68344390951097" lon="13.272820450365543">
        <ele>461</ele>
        <time>2026-08-29T09:25:44Z</time>
      </trkpt>
      <trkpt lat="50.683447010815144" lon="13.272817432880402">
        <ele>461</ele>
        <time>2026-08-29T09:25:45Z</time>
      </trkpt>
      <trkpt lat="50.683448687195778" lon="13.272818019613624">
        <ele>461</ele>
        <time>2026-08-29T09:25:46Z</time>
      </trkpt>
      <trkpt lat="50.683447765186429" lon="13.272815337404609">
        <ele>462</ele>
        <time>2026-08-29T09:25:47Z</time>
      </trkpt>
      <trkpt lat="50.6834458373487" lon="13.272817432880402">
        <ele>462</ele>
        <time>2026-08-29T09:25:48Z</time>
      </trkpt>
      <trkpt lat="50.683444999158382" lon="13.272812990471721">
        <ele>461</ele>
        <time>2026-08-29T09:25:49Z</time>
      </trkpt>
      <trkpt lat="50.683438628911972" lon="13.272799327969551">
        <ele>461</ele>
        <time>2026-08-29T09:25:50Z</time>
      </trkpt>
      <trkpt lat="50.683437623083591" lon="13.272792538627982">
        <ele>460</ele>
        <time>2026-08-29T09:25:51Z</time>
      </trkpt>
      <trkpt lat="50.683438461273909" lon="13.272785749286413">
        <ele>460</ele>
        <time>2026-08-29T09:25:52Z</time>
      </trkpt>
      <trkpt lat="50.683441059663892" lon="13.272777032107115">
        <ele>460</ele>
        <time>2026-08-29T09:25:53Z</time>
      </trkpt>
      <trkpt lat="50.68343804217875" lon="13.272766973823309">
        <ele>460</ele>
        <time>2026-08-29T09:25:54Z</time>
      </trkpt>
      <trkpt lat="50.683436030521989" lon="13.272756915539503">
        <ele>460</ele>
        <time>2026-08-29T09:25:55Z</time>
      </trkpt>
      <trkpt lat="50.683433851227164" lon="13.272742498666048">
        <ele>460</ele>
        <time>2026-08-29T09:25:56Z</time>
      </trkpt>
      <trkpt lat="50.683439718559384" lon="13.272735960781574">
        <ele>460</ele>
        <time>2026-08-29T09:25:57Z</time>
      </trkpt>
      <trkpt lat="50.683440389111638" lon="13.272737385705113">
        <ele>460</ele>
        <time>2026-08-29T09:25:58Z</time>
      </trkpt>
      <trkpt lat="50.683445669710636" lon="13.272736128419638">
        <ele>460</ele>
        <time>2026-08-29T09:25:59Z</time>
      </trkpt>
      <trkpt lat="50.683451369404793" lon="13.272740319371223">
        <ele>459</ele>
        <time>2026-08-29T09:26:00Z</time>
      </trkpt>
      <trkpt lat="50.683456985279918" lon="13.272742163389921">
        <ele>459</ele>
        <time>2026-08-29T09:26:01Z</time>
      </trkpt>
      <trkpt lat="50.68345757201314" lon="13.272748030722141">
        <ele>459</ele>
        <time>2026-08-29T09:26:02Z</time>
      </trkpt>
      <trkpt lat="50.683457655832171" lon="13.272744761779904">
        <ele>459</ele>
        <time>2026-08-29T09:26:03Z</time>
      </trkpt>
      <trkpt lat="50.683461930602789" lon="13.272747360169888">
        <ele>459</ele>
        <time>2026-08-29T09:26:04Z</time>
      </trkpt>
      <trkpt lat="50.68346587009728" lon="13.272744510322809">
        <ele>458</ele>
        <time>2026-08-29T09:26:05Z</time>
      </trkpt>
      <trkpt lat="50.683468049392104" lon="13.272738978266716">
        <ele>458</ele>
        <time>2026-08-29T09:26:06Z</time>
      </trkpt>
      <trkpt lat="50.683474000543356" lon="13.272736379876733">
        <ele>458</ele>
        <time>2026-08-29T09:26:07Z</time>
      </trkpt>
      <trkpt lat="50.683474000543356" lon="13.272736631333828">
        <ele>458</ele>
        <time>2026-08-29T09:26:08Z</time>
      </trkpt>
      <trkpt lat="50.683474000543356" lon="13.272736882790923">
        <ele>458</ele>
        <time>2026-08-29T09:26:09Z</time>
      </trkpt>
      <trkpt lat="50.683475090190768" lon="13.272737301886082">
        <ele>458</ele>
        <time>2026-08-29T09:26:10Z</time>
      </trkpt>
      <trkpt lat="50.683476012200117" lon="13.272739481180906">
        <ele>458</ele>
        <time>2026-08-29T09:26:11Z</time>
      </trkpt>
      <trkpt lat="50.683479616418481" lon="13.27274358831346">
        <ele>458</ele>
        <time>2026-08-29T09:26:12Z</time>
      </trkpt>
      <trkpt lat="50.683484729379416" lon="13.272770158946514">
        <ele>458</ele>
        <time>2026-08-29T09:26:13Z</time>
      </trkpt>
      <trkpt lat="50.683500487357378" lon="13.272764626890421">
        <ele>458</ele>
        <time>2026-08-29T09:26:14Z</time>
      </trkpt>
      <trkpt lat="50.683509539812803" lon="13.272785833105445">
        <ele>458</ele>
        <time>2026-08-29T09:26:15Z</time>
      </trkpt>
      <trkpt lat="50.683527560904622" lon="13.2727968133986">
        <ele>458</ele>
        <time>2026-08-29T09:26:16Z</time>
      </trkpt>
      <trkpt lat="50.683549270033836" lon="13.272803602740169">
        <ele>458</ele>
        <time>2026-08-29T09:26:17Z</time>
      </trkpt>
      <trkpt lat="50.683568296954036" lon="13.272801255807281">
        <ele>459</ele>
        <time>2026-08-29T09:26:18Z</time>
      </trkpt>
      <trkpt lat="50.683588748797774" lon="13.272804860025644">
        <ele>459</ele>
        <time>2026-08-29T09:26:19Z</time>
      </trkpt>
      <trkpt lat="50.683608530089259" lon="13.272799411788583">
        <ele>459</ele>
        <time>2026-08-29T09:26:20Z</time>
      </trkpt>
      <trkpt lat="50.683631747961044" lon="13.272782899439335">
        <ele>460</ele>
        <time>2026-08-29T09:26:21Z</time>
      </trkpt>
      <trkpt lat="50.683656223118305" lon="13.272773344069719">
        <ele>460</ele>
        <time>2026-08-29T09:26:22Z</time>
      </trkpt>
      <trkpt lat="50.683677764609456" lon="13.272764040157199">
        <ele>460</ele>
        <time>2026-08-29T09:26:23Z</time>
      </trkpt>
      <trkpt lat="50.683693187311292" lon="13.272760855033994">
        <ele>460</ele>
        <time>2026-08-29T09:26:24Z</time>
      </trkpt>
      <trkpt lat="50.683717997744679" lon="13.272765465080738">
        <ele>460</ele>
        <time>2026-08-29T09:26:25Z</time>
      </trkpt>
      <trkpt lat="50.683747753500938" lon="13.272764710709453">
        <ele>461</ele>
        <time>2026-08-29T09:26:26Z</time>
      </trkpt>
      <trkpt lat="50.683779017999768" lon="13.272755742073059">
        <ele>461</ele>
        <time>2026-08-29T09:26:27Z</time>
      </trkpt>
      <trkpt lat="50.6838084384799" lon="13.272748785093427">
        <ele>461</ele>
        <time>2026-08-29T09:26:28Z</time>
      </trkpt>
      <trkpt lat="50.683838864788413" lon="13.272741157561541">
        <ele>461</ele>
        <time>2026-08-29T09:26:29Z</time>
      </trkpt>
      <trkpt lat="50.683867279440165" lon="13.272742331027985">
        <ele>461</ele>
        <time>2026-08-29T09:26:30Z</time>
      </trkpt>
      <trkpt lat="50.683896699920297" lon="13.272733530029655">
        <ele>461</ele>
        <time>2026-08-29T09:26:31Z</time>
      </trkpt>
      <trkpt lat="50.683920588344336" lon="13.272720202803612">
        <ele>460</ele>
        <time>2026-08-29T09:26:32Z</time>
      </trkpt>
      <trkpt lat="50.683950847014785" lon="13.272712994366884">
        <ele>460</ele>
        <time>2026-08-29T09:26:33Z</time>
      </trkpt>
      <trkpt lat="50.683976914733648" lon="13.272715508937836">
        <ele>459</ele>
        <time>2026-08-29T09:26:34Z</time>
      </trkpt>
      <trkpt lat="50.683995941653848" lon="13.272710647433996">
        <ele>460</ele>
        <time>2026-08-29T09:26:35Z</time>
      </trkpt>
      <trkpt lat="50.684018824249506" lon="13.27269371598959">
        <ele>460</ele>
        <time>2026-08-29T09:26:36Z</time>
      </trkpt>
      <trkpt lat="50.684041455388069" lon="13.272678460925817">
        <ele>460</ele>
        <time>2026-08-29T09:26:37Z</time>
      </trkpt>
      <trkpt lat="50.684065679088235" lon="13.272669408470392">
        <ele>460</ele>
        <time>2026-08-29T09:26:38Z</time>
      </trkpt>
      <trkpt lat="50.684090321883559" lon="13.272661613300443">
        <ele>460</ele>
        <time>2026-08-29T09:26:39Z</time>
      </trkpt>
      <trkpt lat="50.684120832011104" lon="13.2726482860744">
        <ele>460</ele>
        <time>2026-08-29T09:26:40Z</time>
      </trkpt>
      <trkpt lat="50.68415243178606" lon="13.272632863372564">
        <ele>461</ele>
        <time>2026-08-29T09:26:41Z</time>
      </trkpt>
      <trkpt lat="50.684185540303588" lon="13.272628001868725">
        <ele>461</ele>
        <time>2026-08-29T09:26:42Z</time>
      </trkpt>
      <trkpt lat="50.684214541688561" lon="13.272615512832999">
        <ele>461</ele>
        <time>2026-08-29T09:26:43Z</time>
      </trkpt>
      <trkpt lat="50.684242369607091" lon="13.272603861987591">
        <ele>461</ele>
        <time>2026-08-29T09:26:44Z</time>
      </trkpt>
      <trkpt lat="50.684268102049828" lon="13.272594390437007">
        <ele>462</ele>
        <time>2026-08-29T09:26:45Z</time>
      </trkpt>
      <trkpt lat="50.684285368770361" lon="13.272588271647692">
        <ele>462</ele>
        <time>2026-08-29T09:26:46Z</time>
      </trkpt>
      <trkpt lat="50.684304730966687" lon="13.272573854774237">
        <ele>463</ele>
        <time>2026-08-29T09:26:47Z</time>
      </trkpt>
      <trkpt lat="50.68432685919106" lon="13.272578716278076">
        <ele>463</ele>
        <time>2026-08-29T09:26:48Z</time>
      </trkpt>
      <trkpt lat="50.684350160881877" lon="13.272566394880414">
        <ele>462</ele>
        <time>2026-08-29T09:26:49Z</time>
      </trkpt>
      <trkpt lat="50.68436935544014" lon="13.272560862824321">
        <ele>463</ele>
        <time>2026-08-29T09:26:50Z</time>
      </trkpt>
      <trkpt lat="50.684386538341641" lon="13.272548038512468">
        <ele>463</ele>
        <time>2026-08-29T09:26:51Z</time>
      </trkpt>
      <trkpt lat="50.684401206672192" lon="13.272537225857377">
        <ele>463</ele>
        <time>2026-08-29T09:26:52Z</time>
      </trkpt>
      <trkpt lat="50.684422580525279" lon="13.27252515591681">
        <ele>463</ele>
        <time>2026-08-29T09:26:53Z</time>
      </trkpt>
      <trkpt lat="50.684446217492223" lon="13.272519456222653">
        <ele>463</ele>
        <time>2026-08-29T09:26:54Z</time>
      </trkpt>
      <trkpt lat="50.68447588942945" lon="13.272515935823321">
        <ele>463</ele>
        <time>2026-08-29T09:26:55Z</time>
      </trkpt>
      <trkpt lat="50.684493910521269" lon="13.272507721558213">
        <ele>463</ele>
        <time>2026-08-29T09:26:56Z</time>
      </trkpt>
      <trkpt lat="50.684512769803405" lon="13.272503865882754">
        <ele>463</ele>
        <time>2026-08-29T09:26:57Z</time>
      </trkpt>
      <trkpt lat="50.684531880542636" lon="13.272502021864057">
        <ele>463</ele>
        <time>2026-08-29T09:26:58Z</time>
      </trkpt>
      <trkpt lat="50.684557361528277" lon="13.27250705100596">
        <ele>463</ele>
        <time>2026-08-29T09:26:59Z</time>
      </trkpt>
      <trkpt lat="50.684578651562333" lon="13.272495400160551">
        <ele>464</ele>
        <time>2026-08-29T09:27:00Z</time>
      </trkpt>
      <trkpt lat="50.684603042900562" lon="13.272480731830001">
        <ele>464</ele>
        <time>2026-08-29T09:27:01Z</time>
      </trkpt>
      <trkpt lat="50.684620644897223" lon="13.272476624697447">
        <ele>464</ele>
        <time>2026-08-29T09:27:02Z</time>
      </trkpt>
      <trkpt lat="50.684635732322931" lon="13.272473607212305">
        <ele>463</ele>
        <time>2026-08-29T09:27:03Z</time>
      </trkpt>
      <trkpt lat="50.684650065377355" lon="13.272458855062723">
        <ele>463</ele>
        <time>2026-08-29T09:27:04Z</time>
      </trkpt>
      <trkpt lat="50.684669259935617" lon="13.272450640797615">
        <ele>464</ele>
        <time>2026-08-29T09:27:05Z</time>
      </trkpt>
      <trkpt lat="50.6846874486655" lon="13.272443851456046">
        <ele>463</ele>
        <time>2026-08-29T09:27:06Z</time>
      </trkpt>
      <trkpt lat="50.684709828346968" lon="13.272429350763559">
        <ele>463</ele>
        <time>2026-08-29T09:27:07Z</time>
      </trkpt>
      <trkpt lat="50.684732794761658" lon="13.272419292479753">
        <ele>463</ele>
        <time>2026-08-29T09:27:08Z</time>
      </trkpt>
      <trkpt lat="50.684747882187366" lon="13.27240739017725">
        <ele>463</ele>
        <time>2026-08-29T09:27:09Z</time>
      </trkpt>
      <trkpt lat="50.684767328202724" lon="13.272399762645364">
        <ele>464</ele>
        <time>2026-08-29T09:27:10Z</time>
      </trkpt>
      <trkpt lat="50.684787360951304" lon="13.272389955818653">
        <ele>464</ele>
        <time>2026-08-29T09:27:11Z</time>
      </trkpt>
      <trkpt lat="50.684813763946295" lon="13.272358858957887">
        <ele>464</ele>
        <time>2026-08-29T09:27:12Z</time>
      </trkpt>
      <trkpt lat="50.684835640713573" lon="13.272332372143865">
        <ele>464</ele>
        <time>2026-08-29T09:27:13Z</time>
      </trkpt>
      <trkpt lat="50.68486045114696" lon="13.272317619994283">
        <ele>463</ele>
        <time>2026-08-29T09:27:14Z</time>
      </trkpt>
      <trkpt lat="50.684880651533604" lon="13.272302951663733">
        <ele>463</ele>
        <time>2026-08-29T09:27:15Z</time>
      </trkpt>
      <trkpt lat="50.684900851920247" lon="13.272288953885436">
        <ele>463</ele>
        <time>2026-08-29T09:27:16Z</time>
      </trkpt>
      <trkpt lat="50.684931529685855" lon="13.272260455414653">
        <ele>463</ele>
        <time>2026-08-29T09:27:17Z</time>
      </trkpt>
      <trkpt lat="50.684962039813399" lon="13.272238159552217">
        <ele>463</ele>
        <time>2026-08-29T09:27:18Z</time>
      </trkpt>
      <trkpt lat="50.684987939894199" lon="13.272216785699129">
        <ele>463</ele>
        <time>2026-08-29T09:27:19Z</time>
      </trkpt>
      <trkpt lat="50.685004619881511" lon="13.272202536463737">
        <ele>462</ele>
        <time>2026-08-29T09:27:20Z</time>
      </trkpt>
      <trkpt lat="50.685030268505216" lon="13.272186778485775">
        <ele>463</ele>
        <time>2026-08-29T09:27:21Z</time>
      </trkpt>
      <trkpt lat="50.685053067281842" lon="13.272172026336193">
        <ele>463</ele>
        <time>2026-08-29T09:27:22Z</time>
      </trkpt>
      <trkpt lat="50.685071004554629" lon="13.272160040214658">
        <ele>462</ele>
        <time>2026-08-29T09:27:23Z</time>
      </trkpt>
      <trkpt lat="50.685095060616732" lon="13.272144198417664">
        <ele>462</ele>
        <time>2026-08-29T09:27:24Z</time>
      </trkpt>
      <trkpt lat="50.685117105022073" lon="13.272115616127849">
        <ele>462</ele>
        <time>2026-08-29T09:27:25Z</time>
      </trkpt>
      <trkpt lat="50.685130935162306" lon="13.272094493731856">
        <ele>462</ele>
        <time>2026-08-29T09:27:26Z</time>
      </trkpt>
      <trkpt lat="50.685145519673824" lon="13.272066414356232">
        <ele>461</ele>
        <time>2026-08-29T09:27:27Z</time>
      </trkpt>
      <trkpt lat="50.685161110013723" lon="13.272051578387618">
        <ele>461</ele>
        <time>2026-08-29T09:27:28Z</time>
      </trkpt>
      <trkpt lat="50.685172593221068" lon="13.272019978612661">
        <ele>461</ele>
        <time>2026-08-29T09:27:29Z</time>
      </trkpt>
      <trkpt lat="50.685183154419065" lon="13.272005477920175">
        <ele>461</ele>
        <time>2026-08-29T09:27:30Z</time>
      </trkpt>
      <trkpt lat="50.685188686475158" lon="13.271993240341544">
        <ele>460</ele>
        <time>2026-08-29T09:27:31Z</time>
      </trkpt>
      <trkpt lat="50.685190614312887" lon="13.271985193714499">
        <ele>460</ele>
        <time>2026-08-29T09:27:32Z</time>
      </trkpt>
      <trkpt lat="50.685196900740266" lon="13.271972620859742">
        <ele>460</ele>
        <time>2026-08-29T09:27:33Z</time>
      </trkpt>
      <trkpt lat="50.685205198824406" lon="13.271953761577606">
        <ele>460</ele>
        <time>2026-08-29T09:27:34Z</time>
      </trkpt>
      <trkpt lat="50.685202600434422" lon="13.271935069933534">
        <ele>460</ele>
        <time>2026-08-29T09:27:35Z</time>
      </trkpt>
      <trkpt lat="50.685199331492186" lon="13.271908918395638">
        <ele>459</ele>
        <time>2026-08-29T09:27:36Z</time>
      </trkpt>
      <trkpt lat="50.685207545757294" lon="13.27188796363771">
        <ele>459</ele>
        <time>2026-08-29T09:27:37Z</time>
      </trkpt>
      <trkpt lat="50.685213999822736" lon="13.271865583956242">
        <ele>459</ele>
        <time>2026-08-29T09:27:38Z</time>
      </trkpt>
      <trkpt lat="50.685219280421734" lon="13.271841360256076">
        <ele>459</ele>
        <time>2026-08-29T09:27:39Z</time>
      </trkpt>
      <trkpt lat="50.685222549363971" lon="13.271807497367263">
        <ele>459</ele>
        <time>2026-08-29T09:27:40Z</time>
      </trkpt>
      <trkpt lat="50.685227829962969" lon="13.271774388849735">
        <ele>458</ele>
        <time>2026-08-29T09:27:41Z</time>
      </trkpt>
      <trkpt lat="50.685231937095523" lon="13.271746393293142">
        <ele>457</ele>
        <time>2026-08-29T09:27:42Z</time>
      </trkpt>
      <trkpt lat="50.685243085026741" lon="13.271717894822359">
        <ele>457</ele>
        <time>2026-08-29T09:27:43Z</time>
      </trkpt>
      <trkpt lat="50.685244929045439" lon="13.271682523190975">
        <ele>457</ele>
        <time>2026-08-29T09:27:44Z</time>
      </trkpt>
      <trkpt lat="50.685251634567976" lon="13.27165293507278">
        <ele>457</ele>
        <time>2026-08-29T09:27:45Z</time>
      </trkpt>
      <trkpt lat="50.685260519385338" lon="13.271621419116855">
        <ele>458</ele>
        <time>2026-08-29T09:27:46Z</time>
      </trkpt>
      <trkpt lat="50.685266135260463" lon="13.271591579541564">
        <ele>458</ele>
        <time>2026-08-29T09:27:47Z</time>
      </trkpt>
      <trkpt lat="50.685270829126239" lon="13.271555872634053">
        <ele>458</ele>
        <time>2026-08-29T09:27:48Z</time>
      </trkpt>
      <trkpt lat="50.685279127210379" lon="13.271526116877794">
        <ele>458</ele>
        <time>2026-08-29T09:27:49Z</time>
      </trkpt>
      <trkpt lat="50.685281809419394" lon="13.271491834893823">
        <ele>458</ele>
        <time>2026-08-29T09:27:50Z</time>
      </trkpt>
      <trkpt lat="50.685278959572315" lon="13.271464426070452">
        <ele>457</ele>
        <time>2026-08-29T09:27:51Z</time>
      </trkpt>
      <trkpt lat="50.685277450829744" lon="13.27143307775259">
        <ele>457</ele>
        <time>2026-08-29T09:27:52Z</time>
      </trkpt>
      <trkpt lat="50.685277786105871" lon="13.271401477977633">
        <ele>457</ele>
        <time>2026-08-29T09:27:53Z</time>
      </trkpt>
      <trkpt lat="50.685280719771981" lon="13.271359065547585">
        <ele>458</ele>
        <time>2026-08-29T09:27:54Z</time>
      </trkpt>
      <trkpt lat="50.685278791934252" lon="13.271313970908523">
        <ele>458</ele>
        <time>2026-08-29T09:27:55Z</time>
      </trkpt>
      <trkpt lat="50.685280384495854" lon="13.271262506023049">
        <ele>458</ele>
        <time>2026-08-29T09:27:56Z</time>
      </trkpt>
      <trkpt lat="50.685282563790679" lon="13.271215232089162">
        <ele>458</ele>
        <time>2026-08-29T09:27:57Z</time>
      </trkpt>
      <trkpt lat="50.685280049219728" lon="13.271172735840082">
        <ele>457</ele>
        <time>2026-08-29T09:27:58Z</time>
      </trkpt>
      <trkpt lat="50.685284240171313" lon="13.271145578473806">
        <ele>458</ele>
        <time>2026-08-29T09:27:59Z</time>
      </trkpt>
      <trkpt lat="50.685285748913884" lon="13.271137699484825">
        <ele>458</ele>
        <time>2026-08-29T09:28:00Z</time>
      </trkpt>
      <trkpt lat="50.685292119160295" lon="13.271148428320885">
        <ele>458</ele>
        <time>2026-08-29T09:28:01Z</time>
      </trkpt>
      <trkpt lat="50.685292454436421" lon="13.271148344501853">
        <ele>458</ele>
        <time>2026-08-29T09:28:02Z</time>
      </trkpt>
      <trkpt lat="50.685292622074485" lon="13.271148763597012">
        <ele>458</ele>
        <time>2026-08-29T09:28:03Z</time>
      </trkpt>
      <trkpt lat="50.685297651216388" lon="13.271157899871469">
        <ele>458</ele>
        <time>2026-08-29T09:28:04Z</time>
      </trkpt>
      <trkpt lat="50.685299159958959" lon="13.271164856851101">
        <ele>458</ele>
        <time>2026-08-29T09:28:05Z</time>
      </trkpt>
      <trkpt lat="50.685307458043098" lon="13.271161587908864">
        <ele>459</ele>
        <time>2026-08-29T09:28:06Z</time>
      </trkpt>
      <trkpt lat="50.685307458043098" lon="13.271161839365959">
        <ele>459</ele>
        <time>2026-08-29T09:28:07Z</time>
      </trkpt>
      <trkpt lat="50.685307877138257" lon="13.271161923184991">
        <ele>459</ele>
        <time>2026-08-29T09:28:08Z</time>
      </trkpt>
      <trkpt lat="50.685307877138257" lon="13.271161755546927">
        <ele>459</ele>
        <time>2026-08-29T09:28:09Z</time>
      </trkpt>
      <trkpt lat="50.685306452214718" lon="13.271155720576644">
        <ele>459</ele>
        <time>2026-08-29T09:28:10Z</time>
      </trkpt>
      <trkpt lat="50.685306452214718" lon="13.271155720576644">
        <ele>459</ele>
        <time>2026-08-29T09:28:11Z</time>
      </trkpt>
      <trkpt lat="50.685304524376988" lon="13.271152283996344">
        <ele>461</ele>
        <time>2026-08-29T09:28:12Z</time>
      </trkpt>
      <trkpt lat="50.685304524376988" lon="13.271151781082153">
        <ele>461</ele>
        <time>2026-08-29T09:28:13Z</time>
      </trkpt>
      <trkpt lat="50.68530066870153" lon="13.27114574611187">
        <ele>461</ele>
        <time>2026-08-29T09:28:14Z</time>
      </trkpt>
      <trkpt lat="50.685300501063466" lon="13.271145578473806">
        <ele>461</ele>
        <time>2026-08-29T09:28:15Z</time>
      </trkpt>
      <trkpt lat="50.685300501063466" lon="13.27114574611187">
        <ele>461</ele>
        <time>2026-08-29T09:28:16Z</time>
      </trkpt>
      <trkpt lat="50.685300333425403" lon="13.271145494654775">
        <ele>461</ele>
        <time>2026-08-29T09:28:17Z</time>
      </trkpt>
      <trkpt lat="50.685300249606371" lon="13.271145327016711">
        <ele>461</ele>
        <time>2026-08-29T09:28:18Z</time>
      </trkpt>
      <trkpt lat="50.685298489406705" lon="13.271152786910534">
        <ele>461</ele>
        <time>2026-08-29T09:28:19Z</time>
      </trkpt>
      <trkpt lat="50.685297399759293" lon="13.27115261927247">
        <ele>460</ele>
        <time>2026-08-29T09:28:20Z</time>
      </trkpt>
      <trkpt lat="50.685299159958959" lon="13.271142560988665">
        <ele>461</ele>
        <time>2026-08-29T09:28:21Z</time>
      </trkpt>
      <trkpt lat="50.685295471921563" lon="13.271149350330234">
        <ele>460</ele>
        <time>2026-08-29T09:28:22Z</time>
      </trkpt>
      <trkpt lat="50.68529044277966" lon="13.271159324795008">
        <ele>460</ele>
        <time>2026-08-29T09:28:23Z</time>
      </trkpt>
      <trkpt lat="50.685290861874819" lon="13.271167790517211">
        <ele>459</ele>
        <time>2026-08-29T09:28:24Z</time>
      </trkpt>
      <trkpt lat="50.685290610417724" lon="13.271168963983655">
        <ele>459</ele>
        <time>2026-08-29T09:28:25Z</time>
      </trkpt>
      <trkpt lat="50.685290526598692" lon="13.271168963983655">
        <ele>460</ele>
        <time>2026-08-29T09:28:26Z</time>
      </trkpt>
      <trkpt lat="50.685290610417724" lon="13.271168963983655">
        <ele>460</ele>
        <time>2026-08-29T09:28:27Z</time>
      </trkpt>
      <trkpt lat="50.685281977057457" lon="13.271181955933571">
        <ele>461</ele>
        <time>2026-08-29T09:28:28Z</time>
      </trkpt>
      <trkpt lat="50.685281977057457" lon="13.271174412220716">
        <ele>461</ele>
        <time>2026-08-29T09:28:29Z</time>
      </trkpt>
      <trkpt lat="50.685288179665804" lon="13.271166868507862">
        <ele>461</ele>
        <time>2026-08-29T09:28:30Z</time>
      </trkpt>
      <trkpt lat="50.685292538255453" lon="13.271156391128898">
        <ele>462</ele>
        <time>2026-08-29T09:28:31Z</time>
      </trkpt>
      <trkpt lat="50.685294801369309" lon="13.271149098873138">
        <ele>462</ele>
        <time>2026-08-29T09:28:32Z</time>
      </trkpt>
      <trkpt lat="50.685301842167974" lon="13.271150020882487">
        <ele>462</ele>
        <time>2026-08-29T09:28:33Z</time>
      </trkpt>
      <trkpt lat="50.685305781662464" lon="13.271156391128898">
        <ele>462</ele>
        <time>2026-08-29T09:28:34Z</time>
      </trkpt>
      <trkpt lat="50.68531097844243" lon="13.271143985912204">
        <ele>462</ele>
        <time>2026-08-29T09:28:35Z</time>
      </trkpt>
      <trkpt lat="50.68530703894794" lon="13.271155217662454">
        <ele>461</ele>
        <time>2026-08-29T09:28:36Z</time>
      </trkpt>
      <trkpt lat="50.685307709500194" lon="13.271160833537579">
        <ele>460</ele>
        <time>2026-08-29T09:28:37Z</time>
      </trkpt>
      <trkpt lat="50.685306452214718" lon="13.2711545471102">
        <ele>460</ele>
        <time>2026-08-29T09:28:38Z</time>
      </trkpt>
      <trkpt lat="50.685308128595352" lon="13.271160665899515">
        <ele>460</ele>
        <time>2026-08-29T09:28:39Z</time>
      </trkpt>
      <trkpt lat="50.685318438336253" lon="13.27116091735661">
        <ele>460</ele>
        <time>2026-08-29T09:28:40Z</time>
      </trkpt>
      <trkpt lat="50.68531827069819" lon="13.271155720576644">
        <ele>459</ele>
        <time>2026-08-29T09:28:41Z</time>
      </trkpt>
      <trkpt lat="50.685319360345602" lon="13.271139962598681">
        <ele>459</ele>
        <time>2026-08-29T09:28:42Z</time>
      </trkpt>
      <trkpt lat="50.685317432507873" lon="13.271119175478816">
        <ele>458</ele>
        <time>2026-08-29T09:28:43Z</time>
      </trkpt>
      <trkpt lat="50.68531583994627" lon="13.271100986748934">
        <ele>459</ele>
        <time>2026-08-29T09:28:44Z</time>
      </trkpt>
      <trkpt lat="50.685312990099192" lon="13.271078774705529">
        <ele>459</ele>
        <time>2026-08-29T09:28:45Z</time>
      </trkpt>
      <trkpt lat="50.685313157737255" lon="13.27106025069952">
        <ele>459</ele>
        <time>2026-08-29T09:28:46Z</time>
      </trkpt>
      <trkpt lat="50.685301758348942" lon="13.271029153838754">
        <ele>459</ele>
        <time>2026-08-29T09:28:47Z</time>
      </trkpt>
      <trkpt lat="50.685298405587673" lon="13.271004343405366">
        <ele>459</ele>
        <time>2026-08-29T09:28:48Z</time>
      </trkpt>
      <trkpt lat="50.685298070311546" lon="13.270982801914215">
        <ele>459</ele>
        <time>2026-08-29T09:28:49Z</time>
      </trkpt>
      <trkpt lat="50.6852987408638" lon="13.270955393090844">
        <ele>459</ele>
        <time>2026-08-29T09:28:50Z</time>
      </trkpt>
      <trkpt lat="50.685294717550278" lon="13.270934438332915">
        <ele>458</ele>
        <time>2026-08-29T09:28:51Z</time>
      </trkpt>
      <trkpt lat="50.685293879359961" lon="13.270910130813718">
        <ele>458</ele>
        <time>2026-08-29T09:28:52Z</time>
      </trkpt>
      <trkpt lat="50.685287341475487" lon="13.270866628736258">
        <ele>458</ele>
        <time>2026-08-29T09:28:53Z</time>
      </trkpt>
      <trkpt lat="50.685282647609711" lon="13.270825054496527">
        <ele>458</ele>
        <time>2026-08-29T09:28:54Z</time>
      </trkpt>
      <trkpt lat="50.685272421687841" lon="13.270794125273824">
        <ele>459</ele>
        <time>2026-08-29T09:28:55Z</time>
      </trkpt>
      <trkpt lat="50.685267057269812" lon="13.270757999271154">
        <ele>459</ele>
        <time>2026-08-29T09:28:56Z</time>
      </trkpt>
      <trkpt lat="50.685263369232416" lon="13.27072212472558">
        <ele>459</ele>
        <time>2026-08-29T09:28:57Z</time>
      </trkpt>
      <trkpt lat="50.685257501900196" lon="13.270684322342277">
        <ele>459</ele>
        <time>2026-08-29T09:28:58Z</time>
      </trkpt>
      <trkpt lat="50.685249287635088" lon="13.27065515331924">
        <ele>459</ele>
        <time>2026-08-29T09:28:59Z</time>
      </trkpt>
      <trkpt lat="50.685239480808377" lon="13.270610561594367">
        <ele>459</ele>
        <time>2026-08-29T09:29:00Z</time>
      </trkpt>
      <trkpt lat="50.685219028964639" lon="13.270582901313901">
        <ele>459</ele>
        <time>2026-08-29T09:29:01Z</time>
      </trkpt>
      <trkpt lat="50.685198493301868" lon="13.270548703148961">
        <ele>458</ele>
        <time>2026-08-29T09:29:02Z</time>
      </trkpt>
      <trkpt lat="50.6851726770401" lon="13.270508470013738">
        <ele>458</ele>
        <time>2026-08-29T09:29:03Z</time>
      </trkpt>
      <trkpt lat="50.685142166912556" lon="13.270466392859817">
        <ele>458</ele>
        <time>2026-08-29T09:29:04Z</time>
      </trkpt>
      <trkpt lat="50.685123139992356" lon="13.27042699791491">
        <ele>458</ele>
        <time>2026-08-29T09:29:05Z</time>
      </trkpt>
      <trkpt lat="50.685108136385679" lon="13.270391458645463">
        <ele>459</ele>
        <time>2026-08-29T09:29:06Z</time>
      </trkpt>
      <trkpt lat="50.685088019818068" lon="13.27034686692059">
        <ele>458</ele>
        <time>2026-08-29T09:29:07Z</time>
      </trkpt>
      <trkpt lat="50.685067567974329" lon="13.27030923217535">
        <ele>458</ele>
        <time>2026-08-29T09:29:08Z</time>
      </trkpt>
      <trkpt lat="50.685057509690523" lon="13.270272351801395">
        <ele>459</ele>
        <time>2026-08-29T09:29:09Z</time>
      </trkpt>
      <trkpt lat="50.685043260455132" lon="13.270236728712916">
        <ele>459</ele>
        <time>2026-08-29T09:29:10Z</time>
      </trkpt>
      <trkpt lat="50.685025239363313" lon="13.270210325717926">
        <ele>459</ele>
        <time>2026-08-29T09:29:11Z</time>
      </trkpt>
      <trkpt lat="50.68500260822475" lon="13.270192639902234">
        <ele>459</ele>
        <time>2026-08-29T09:29:12Z</time>
      </trkpt>
      <trkpt lat="50.684977378696203" lon="13.270175037905574">
        <ele>460</ele>
        <time>2026-08-29T09:29:13Z</time>
      </trkpt>
      <trkpt lat="50.684946700930595" lon="13.270157519727945">
        <ele>459</ele>
        <time>2026-08-29T09:29:14Z</time>
      </trkpt>
      <trkpt lat="50.684924321249127" lon="13.270138744264841">
        <ele>459</ele>
        <time>2026-08-29T09:29:15Z</time>
      </trkpt>
      <trkpt lat="50.684902193024755" lon="13.270125417038798">
        <ele>459</ele>
        <time>2026-08-29T09:29:16Z</time>
      </trkpt>
      <trkpt lat="50.68487704731524" lon="13.270118040964007">
        <ele>459</ele>
        <time>2026-08-29T09:29:17Z</time>
      </trkpt>
      <trkpt lat="50.684855338186026" lon="13.270106725394726">
        <ele>459</ele>
        <time>2026-08-29T09:29:18Z</time>
      </trkpt>
      <trkpt lat="50.68483455106616" lon="13.270087027922273">
        <ele>459</ele>
        <time>2026-08-29T09:29:19Z</time>
      </trkpt>
      <trkpt lat="50.684809992089868" lon="13.270068168640137">
        <ele>459</ele>
        <time>2026-08-29T09:29:20Z</time>
      </trkpt>
      <trkpt lat="50.684787193313241" lon="13.270062217488885">
        <ele>459</ele>
        <time>2026-08-29T09:29:21Z</time>
      </trkpt>
      <trkpt lat="50.6847651489079" lon="13.270052745938301">
        <ele>460</ele>
        <time>2026-08-29T09:29:22Z</time>
      </trkpt>
      <trkpt lat="50.684745032340288" lon="13.270044531673193">
        <ele>460</ele>
        <time>2026-08-29T09:29:23Z</time>
      </trkpt>
      <trkpt lat="50.68471728824079" lon="13.27002584002912">
        <ele>460</ele>
        <time>2026-08-29T09:29:24Z</time>
      </trkpt>
      <trkpt lat="50.684700608253479" lon="13.270013853907585">
        <ele>460</ele>
        <time>2026-08-29T09:29:25Z</time>
      </trkpt>
      <trkpt lat="50.684673869982362" lon="13.270009076222777">
        <ele>461</ele>
        <time>2026-08-29T09:29:26Z</time>
      </trkpt>
      <trkpt lat="50.684639671817422" lon="13.270001113414764">
        <ele>461</ele>
        <time>2026-08-29T09:29:27Z</time>
      </trkpt>
      <trkpt lat="50.684612011536956" lon="13.269997509196401">
        <ele>461</ele>
        <time>2026-08-29T09:29:28Z</time>
      </trkpt>
      <trkpt lat="50.684581501409411" lon="13.269998766481876">
        <ele>461</ele>
        <time>2026-08-29T09:29:29Z</time>
      </trkpt>
      <trkpt lat="50.684560714289546" lon="13.270001532509923">
        <ele>461</ele>
        <time>2026-08-29T09:29:30Z</time>
      </trkpt>
      <trkpt lat="50.684544118121266" lon="13.269986864179373">
        <ele>461</ele>
        <time>2026-08-29T09:29:31Z</time>
      </trkpt>
      <trkpt lat="50.684516960754991" lon="13.269989127293229">
        <ele>461</ele>
        <time>2026-08-29T09:29:32Z</time>
      </trkpt>
      <trkpt lat="50.684494748711586" lon="13.269984014332294">
        <ele>461</ele>
        <time>2026-08-29T09:29:33Z</time>
      </trkpt>
      <trkpt lat="50.68446365185082" lon="13.269979069009423">
        <ele>461</ele>
        <time>2026-08-29T09:29:34Z</time>
      </trkpt>
      <trkpt lat="50.684439595788717" lon="13.269981918856502">
        <ele>461</ele>
        <time>2026-08-29T09:29:35Z</time>
      </trkpt>
      <trkpt lat="50.684411684051156" lon="13.269975716248155">
        <ele>460</ele>
        <time>2026-08-29T09:29:36Z</time>
      </trkpt>
      <trkpt lat="50.684394501149654" lon="13.269972698763013">
        <ele>461</ele>
        <time>2026-08-29T09:29:37Z</time>
      </trkpt>
      <trkpt lat="50.684372708201408" lon="13.269957778975368">
        <ele>461</ele>
        <time>2026-08-29T09:29:38Z</time>
      </trkpt>
      <trkpt lat="50.68434446118772" lon="13.269936572760344">
        <ele>461</ele>
        <time>2026-08-29T09:29:39Z</time>
      </trkpt>
      <trkpt lat="50.684327110648155" lon="13.269924586638808">
        <ele>461</ele>
        <time>2026-08-29T09:29:40Z</time>
      </trkpt>
      <trkpt lat="50.684308838099241" lon="13.269912013784051">
        <ele>462</ele>
        <time>2026-08-29T09:29:41Z</time>
      </trkpt>
      <trkpt lat="50.684288050979376" lon="13.269899524748325">
        <ele>462</ele>
        <time>2026-08-29T09:29:42Z</time>
      </trkpt>
      <trkpt lat="50.684268437325954" lon="13.269885694608092">
        <ele>462</ele>
        <time>2026-08-29T09:29:43Z</time>
      </trkpt>
      <trkpt lat="50.684244381263852" lon="13.269874881953001">
        <ele>461</ele>
        <time>2026-08-29T09:29:44Z</time>
      </trkpt>
      <trkpt lat="50.684221498668194" lon="13.26985577121377">
        <ele>461</ele>
        <time>2026-08-29T09:29:45Z</time>
      </trkpt>
      <trkpt lat="50.684195598587394" lon="13.269832972437143">
        <ele>462</ele>
        <time>2026-08-29T09:29:46Z</time>
      </trkpt>
      <trkpt lat="50.684172380715609" lon="13.269823417067528">
        <ele>462</ele>
        <time>2026-08-29T09:29:47Z</time>
      </trkpt>
      <trkpt lat="50.684155868366361" lon="13.26983381062746">
        <ele>462</ele>
        <time>2026-08-29T09:29:48Z</time>
      </trkpt>
      <trkpt lat="50.684150671586394" lon="13.269840599969029">
        <ele>462</ele>
        <time>2026-08-29T09:29:49Z</time>
      </trkpt>
      <trkpt lat="50.684143379330635" lon="13.269843030720949">
        <ele>462</ele>
        <time>2026-08-29T09:29:50Z</time>
      </trkpt>
      <trkpt lat="50.684139942750335" lon="13.26985283754766">
        <ele>462</ele>
        <time>2026-08-29T09:29:51Z</time>
      </trkpt>
      <trkpt lat="50.684142960235476" lon="13.269845545291901">
        <ele>462</ele>
        <time>2026-08-29T09:29:52Z</time>
      </trkpt>
      <trkpt lat="50.684145977720618" lon="13.269841689616442">
        <ele>462</ele>
        <time>2026-08-29T09:29:53Z</time>
      </trkpt>
      <trkpt lat="50.68414606153965" lon="13.269841186702251">
        <ele>462</ele>
        <time>2026-08-29T09:29:54Z</time>
      </trkpt>
      <trkpt lat="50.684145726263523" lon="13.269840516149998">
        <ele>462</ele>
        <time>2026-08-29T09:29:55Z</time>
      </trkpt>
      <trkpt lat="50.684151677414775" lon="13.269835654646158">
        <ele>462</ele>
        <time>2026-08-29T09:29:56Z</time>
      </trkpt>
      <trkpt lat="50.68414949811995" lon="13.269841438159347">
        <ele>462</ele>
        <time>2026-08-29T09:29:57Z</time>
      </trkpt>
      <trkpt lat="50.68415192887187" lon="13.269836660474539">
        <ele>462</ele>
        <time>2026-08-29T09:29:58Z</time>
      </trkpt>
      <trkpt lat="50.68415435962379" lon="13.269831882789731">
        <ele>463</ele>
        <time>2026-08-29T09:29:59Z</time>
      </trkpt>
      <trkpt lat="50.684156287461519" lon="13.269829535856843">
        <ele>463</ele>
        <time>2026-08-29T09:30:00Z</time>
      </trkpt>
      <trkpt lat="50.684157712385058" lon="13.269817214459181">
        <ele>464</ele>
        <time>2026-08-29T09:30:01Z</time>
      </trkpt>
      <trkpt lat="50.684159472584724" lon="13.269819561392069">
        <ele>464</ele>
        <time>2026-08-29T09:30:02Z</time>
      </trkpt>
      <trkpt lat="50.684156119823456" lon="13.269816460087895">
        <ele>465</ele>
        <time>2026-08-29T09:30:03Z</time>
      </trkpt>
      <trkpt lat="50.684156706556678" lon="13.269822327420115">
        <ele>465</ele>
        <time>2026-08-29T09:30:04Z</time>
      </trkpt>
      <trkpt lat="50.68414949811995" lon="13.269829284399748">
        <ele>465</ele>
        <time>2026-08-29T09:30:05Z</time>
      </trkpt>
      <trkpt lat="50.68414949811995" lon="13.269828530028462">
        <ele>466</ele>
        <time>2026-08-29T09:30:06Z</time>
      </trkpt>
      <trkpt lat="50.684149581938982" lon="13.26982794329524">
        <ele>466</ele>
        <time>2026-08-29T09:30:07Z</time>
      </trkpt>
      <trkpt lat="50.684149330481887" lon="13.26982794329524">
        <ele>466</ele>
        <time>2026-08-29T09:30:08Z</time>
      </trkpt>
      <trkpt lat="50.68414949811995" lon="13.269828530028462">
        <ele>466</ele>
        <time>2026-08-29T09:30:09Z</time>
      </trkpt>
      <trkpt lat="50.68414949811995" lon="13.269828697666526">
        <ele>465</ele>
        <time>2026-08-29T09:30:10Z</time>
      </trkpt>
      <trkpt lat="50.684149917215109" lon="13.269829284399748">
        <ele>465</ele>
        <time>2026-08-29T09:30:11Z</time>
      </trkpt>
      <trkpt lat="50.684149749577045" lon="13.269829619675875">
        <ele>465</ele>
        <time>2026-08-29T09:30:12Z</time>
      </trkpt>
      <trkpt lat="50.684146899729967" lon="13.269839845597744">
        <ele>466</ele>
        <time>2026-08-29T09:30:13Z</time>
      </trkpt>
      <trkpt lat="50.684138601645827" lon="13.269846551120281">
        <ele>467</ele>
        <time>2026-08-29T09:30:14Z</time>
      </trkpt>
      <trkpt lat="50.6841313932091" lon="13.269847137853503">
        <ele>467</ele>
        <time>2026-08-29T09:30:15Z</time>
      </trkpt>
      <trkpt lat="50.684134662151337" lon="13.269841521978378">
        <ele>468</ele>
        <time>2026-08-29T09:30:16Z</time>
      </trkpt>
      <trkpt lat="50.684135248884559" lon="13.269834229722619">
        <ele>468</ele>
        <time>2026-08-29T09:30:17Z</time>
      </trkpt>
      <trkpt lat="50.684132063761353" lon="13.269837666302919">
        <ele>468</ele>
        <time>2026-08-29T09:30:18Z</time>
      </trkpt>
      <trkpt lat="50.684132147580385" lon="13.269837917760015">
        <ele>468</ele>
        <time>2026-08-29T09:30:19Z</time>
      </trkpt>
      <trkpt lat="50.68413239903748" lon="13.269837247207761">
        <ele>468</ele>
        <time>2026-08-29T09:30:20Z</time>
      </trkpt>
      <trkpt lat="50.684132650494576" lon="13.269836828112602">
        <ele>468</ele>
        <time>2026-08-29T09:30:21Z</time>
      </trkpt>
      <trkpt lat="50.684131309390068" lon="13.269836073741317">
        <ele>467</ele>
        <time>2026-08-29T09:30:22Z</time>
      </trkpt>
      <trkpt lat="50.684132818132639" lon="13.269848562777042">
        <ele>467</ele>
        <time>2026-08-29T09:30:23Z</time>
      </trkpt>
      <trkpt lat="50.684130219742656" lon="13.269850239157677">
        <ele>467</ele>
        <time>2026-08-29T09:30:24Z</time>
      </trkpt>
      <trkpt lat="50.684130303561687" lon="13.269850155338645">
        <ele>467</ele>
        <time>2026-08-29T09:30:25Z</time>
      </trkpt>
      <trkpt lat="50.684130387380719" lon="13.269850322976708">
        <ele>467</ele>
        <time>2026-08-29T09:30:26Z</time>
      </trkpt>
      <trkpt lat="50.684130471199751" lon="13.269859710708261">
        <ele>467</ele>
        <time>2026-08-29T09:30:27Z</time>
      </trkpt>
      <trkpt lat="50.684130722656846" lon="13.269859543070197">
        <ele>467</ele>
        <time>2026-08-29T09:30:28Z</time>
      </trkpt>
      <trkpt lat="50.684130638837814" lon="13.269859543070197">
        <ele>467</ele>
        <time>2026-08-29T09:30:29Z</time>
      </trkpt>
      <trkpt lat="50.684130471199751" lon="13.269859626889229">
        <ele>467</ele>
        <time>2026-08-29T09:30:30Z</time>
      </trkpt>
      <trkpt lat="50.684130219742656" lon="13.269859543070197">
        <ele>467</ele>
        <time>2026-08-29T09:30:31Z</time>
      </trkpt>
      <trkpt lat="50.684130052104592" lon="13.269859710708261">
        <ele>467</ele>
        <time>2026-08-29T09:30:32Z</time>
      </trkpt>
      <trkpt lat="50.684129800647497" lon="13.269859375432134">
        <ele>466</ele>
        <time>2026-08-29T09:30:33Z</time>
      </trkpt>
      <trkpt lat="50.684129800647497" lon="13.269859543070197">
        <ele>466</ele>
        <time>2026-08-29T09:30:34Z</time>
      </trkpt>
      <trkpt lat="50.684129633009434" lon="13.269859291613102">
        <ele>466</ele>
        <time>2026-08-29T09:30:35Z</time>
      </trkpt>
      <trkpt lat="50.684129716828465" lon="13.269853508099914">
        <ele>466</ele>
        <time>2026-08-29T09:30:36Z</time>
      </trkpt>
      <trkpt lat="50.684135751798749" lon="13.269856525585055">
        <ele>466</ele>
        <time>2026-08-29T09:30:37Z</time>
      </trkpt>
      <trkpt lat="50.684133321046829" lon="13.269854849204421">
        <ele>466</ele>
        <time>2026-08-29T09:30:38Z</time>
      </trkpt>
      <trkpt lat="50.684133907780051" lon="13.269848478958011">
        <ele>465</ele>
        <time>2026-08-29T09:30:39Z</time>
      </trkpt>
      <trkpt lat="50.684133404865861" lon="13.269841438159347">
        <ele>465</ele>
        <time>2026-08-29T09:30:40Z</time>
      </trkpt>
      <trkpt lat="50.68413239903748" lon="13.269837079569697">
        <ele>465</ele>
        <time>2026-08-29T09:30:41Z</time>
      </trkpt>
      <trkpt lat="50.684119574725628" lon="13.26984160579741">
        <ele>465</ele>
        <time>2026-08-29T09:30:42Z</time>
      </trkpt>
      <trkpt lat="50.684110773727298" lon="13.269839594140649">
        <ele>463</ele>
        <time>2026-08-29T09:30:43Z</time>
      </trkpt>
      <trkpt lat="50.684104906395078" lon="13.269839677959681">
        <ele>463</ele>
        <time>2026-08-29T09:30:44Z</time>
      </trkpt>
      <trkpt lat="50.68410012871027" lon="13.269850742071867">
        <ele>464</ele>
        <time>2026-08-29T09:30:45Z</time>
      </trkpt>
      <trkpt lat="50.684097027406096" lon="13.26985920779407">
        <ele>464</ele>
        <time>2026-08-29T09:30:46Z</time>
      </trkpt>
      <trkpt lat="50.684093171730638" lon="13.269871277734637">
        <ele>464</ele>
        <time>2026-08-29T09:30:47Z</time>
      </trkpt>
      <trkpt lat="50.684093004092574" lon="13.269893489778042">
        <ele>464</ele>
        <time>2026-08-29T09:30:48Z</time>
      </trkpt>
      <trkpt lat="50.684089567512274" lon="13.26991930603981">
        <ele>464</ele>
        <time>2026-08-29T09:30:49Z</time>
      </trkpt>
      <trkpt lat="50.684090321883559" lon="13.26994713395834">
        <ele>464</ele>
        <time>2026-08-29T09:30:50Z</time>
      </trkpt>
      <trkpt lat="50.684088980779052" lon="13.269972447305918">
        <ele>464</ele>
        <time>2026-08-29T09:30:51Z</time>
      </trkpt>
      <trkpt lat="50.684097446501255" lon="13.269991893321276">
        <ele>464</ele>
        <time>2026-08-29T09:30:52Z</time>
      </trkpt>
      <trkpt lat="50.684089232236147" lon="13.269997090101242">
        <ele>463</ele>
        <time>2026-08-29T09:30:53Z</time>
      </trkpt>
      <trkpt lat="50.684087388217449" lon="13.270013434812427">
        <ele>463</ele>
        <time>2026-08-29T09:30:54Z</time>
      </trkpt>
      <trkpt lat="50.684080682694912" lon="13.2700199726969">
        <ele>463</ele>
        <time>2026-08-29T09:30:55Z</time>
      </trkpt>
      <trkpt lat="50.684076994657516" lon="13.270029611885548">
        <ele>463</ele>
        <time>2026-08-29T09:30:56Z</time>
      </trkpt>
      <trkpt lat="50.684069870039821" lon="13.270049476996064">
        <ele>463</ele>
        <time>2026-08-29T09:30:57Z</time>
      </trkpt>
      <trkpt lat="50.684060398489237" lon="13.270059367641807">
        <ele>464</ele>
        <time>2026-08-29T09:30:58Z</time>
      </trkpt>
      <trkpt lat="50.68404246121645" lon="13.270069425925612">
        <ele>464</ele>
        <time>2026-08-29T09:30:59Z</time>
      </trkpt>
      <trkpt lat="50.684017483144999" lon="13.270066743716598">
        <ele>464</ele>
        <time>2026-08-29T09:31:00Z</time>
      </trkpt>
      <trkpt lat="50.683992337435484" lon="13.270062133669853">
        <ele>464</ele>
        <time>2026-08-29T09:31:01Z</time>
      </trkpt>
      <trkpt lat="50.683968868106604" lon="13.270055847242475">
        <ele>464</ele>
        <time>2026-08-29T09:31:02Z</time>
      </trkpt>
      <trkpt lat="50.683946488425136" lon="13.2700458727777">
        <ele>464</ele>
        <time>2026-08-29T09:31:03Z</time>
      </trkpt>
      <trkpt lat="50.683930059894919" lon="13.270047632977366">
        <ele>464</ele>
        <time>2026-08-29T09:31:04Z</time>
      </trkpt>
      <trkpt lat="50.683909188956022" lon="13.270046040415764">
        <ele>465</ele>
        <time>2026-08-29T09:31:05Z</time>
      </trkpt>
      <trkpt lat="50.683892089873552" lon="13.270043442025781">
        <ele>465</ele>
        <time>2026-08-29T09:31:06Z</time>
      </trkpt>
      <trkpt lat="50.68387147039175" lon="13.270041095092893">
        <ele>464</ele>
        <time>2026-08-29T09:31:07Z</time>
      </trkpt>
      <trkpt lat="50.68385043181479" lon="13.270041765645146">
        <ele>464</ele>
        <time>2026-08-29T09:31:08Z</time>
      </trkpt>
      <trkpt lat="50.683831153437495" lon="13.270039251074195">
        <ele>464</ele>
        <time>2026-08-29T09:31:09Z</time>
      </trkpt>
      <trkpt lat="50.683809947222471" lon="13.270036987960339">
        <ele>464</ele>
        <time>2026-08-29T09:31:10Z</time>
      </trkpt>
      <trkpt lat="50.683789998292923" lon="13.270040508359671">
        <ele>464</ele>
        <time>2026-08-29T09:31:11Z</time>
      </trkpt>
      <trkpt lat="50.683775413781404" lon="13.270040173083544">
        <ele>464</ele>
        <time>2026-08-29T09:31:12Z</time>
      </trkpt>
      <trkpt lat="50.683758063241839" lon="13.270034641027451">
        <ele>464</ele>
        <time>2026-08-29T09:31:13Z</time>
      </trkpt>
      <trkpt lat="50.683747502043843" lon="13.270037658512592">
        <ele>464</ele>
        <time>2026-08-29T09:31:14Z</time>
      </trkpt>
      <trkpt lat="50.683734090998769" lon="13.2700424361974">
        <ele>464</ele>
        <time>2026-08-29T09:31:15Z</time>
      </trkpt>
      <trkpt lat="50.683724535629153" lon="13.270046794787049">
        <ele>464</ele>
        <time>2026-08-29T09:31:16Z</time>
      </trkpt>
      <trkpt lat="50.683719925582409" lon="13.270046040415764">
        <ele>464</ele>
        <time>2026-08-29T09:31:17Z</time>
      </trkpt>
      <trkpt lat="50.683714644983411" lon="13.270040173083544">
        <ele>463</ele>
        <time>2026-08-29T09:31:18Z</time>
      </trkpt>
      <trkpt lat="50.683712381869555" lon="13.27003313228488">
        <ele>463</ele>
        <time>2026-08-29T09:31:19Z</time>
      </trkpt>
      <trkpt lat="50.683711208403111" lon="13.270019302144647">
        <ele>463</ele>
        <time>2026-08-29T09:31:20Z</time>
      </trkpt>
      <trkpt lat="50.683711208403111" lon="13.270019385963678">
        <ele>463</ele>
        <time>2026-08-29T09:31:21Z</time>
      </trkpt>
      <trkpt lat="50.683712800964713" lon="13.270018380135298">
        <ele>463</ele>
        <time>2026-08-29T09:31:22Z</time>
      </trkpt>
      <trkpt lat="50.683712968602777" lon="13.270018463954329">
        <ele>463</ele>
        <time>2026-08-29T09:31:23Z</time>
      </trkpt>
      <trkpt lat="50.68371020257473" lon="13.270019888877869">
        <ele>463</ele>
        <time>2026-08-29T09:31:24Z</time>
      </trkpt>
      <trkpt lat="50.683712549507618" lon="13.270017541944981">
        <ele>463</ele>
        <time>2026-08-29T09:31:25Z</time>
      </trkpt>
      <trkpt lat="50.683707520365715" lon="13.270008657127619">
        <ele>463</ele>
        <time>2026-08-29T09:31:26Z</time>
      </trkpt>
      <trkpt lat="50.683703413233161" lon="13.269998347386718">
        <ele>464</ele>
        <time>2026-08-29T09:31:27Z</time>
      </trkpt>
      <trkpt lat="50.683702155947685" lon="13.269992312416434">
        <ele>464</ele>
        <time>2026-08-29T09:31:28Z</time>
      </trkpt>
      <trkpt lat="50.683697629719973" lon="13.269985523074865">
        <ele>464</ele>
        <time>2026-08-29T09:31:29Z</time>
      </trkpt>
      <trkpt lat="50.68369553424418" lon="13.269991977140307">
        <ele>464</ele>
        <time>2026-08-29T09:31:30Z</time>
      </trkpt>
      <trkpt lat="50.683695450425148" lon="13.269992647692561">
        <ele>464</ele>
        <time>2026-08-29T09:31:31Z</time>
      </trkpt>
      <trkpt lat="50.683695282787085" lon="13.269992731511593">
        <ele>464</ele>
        <time>2026-08-29T09:31:32Z</time>
      </trkpt>
      <trkpt lat="50.683704251423478" lon="13.269999772310257">
        <ele>462</ele>
        <time>2026-08-29T09:31:33Z</time>
      </trkpt>
      <trkpt lat="50.683704670518637" lon="13.269995246082544">
        <ele>462</ele>
        <time>2026-08-29T09:31:34Z</time>
      </trkpt>
      <trkpt lat="50.683702910318971" lon="13.26999843120575">
        <ele>462</ele>
        <time>2026-08-29T09:31:35Z</time>
      </trkpt>
      <trkpt lat="50.683699976652861" lon="13.269994407892227">
        <ele>462</ele>
        <time>2026-08-29T09:31:36Z</time>
      </trkpt>
      <trkpt lat="50.683697462081909" lon="13.26999893411994">
        <ele>462</ele>
        <time>2026-08-29T09:31:37Z</time>
      </trkpt>
      <trkpt lat="50.683693690225482" lon="13.270003041252494">
        <ele>462</ele>
        <time>2026-08-29T09:31:38Z</time>
      </trkpt>
      <trkpt lat="50.683694779872894" lon="13.269991055130959">
        <ele>462</ele>
        <time>2026-08-29T09:31:39Z</time>
      </trkpt>
      <trkpt lat="50.683693690225482" lon="13.269982757046819">
        <ele>462</ele>
        <time>2026-08-29T09:31:40Z</time>
      </trkpt>
      <trkpt lat="50.683694276958704" lon="13.269976219162345">
        <ele>463</ele>
        <time>2026-08-29T09:31:41Z</time>
      </trkpt>
      <trkpt lat="50.683695953339338" lon="13.269979320466518">
        <ele>463</ele>
        <time>2026-08-29T09:31:42Z</time>
      </trkpt>
      <trkpt lat="50.683699557557702" lon="13.269977224990726">
        <ele>463</ele>
        <time>2026-08-29T09:31:43Z</time>
      </trkpt>
      <trkpt lat="50.683701150119305" lon="13.269961383193731">
        <ele>463</ele>
        <time>2026-08-29T09:31:44Z</time>
      </trkpt>
      <trkpt lat="50.683704502880573" lon="13.269923413172364">
        <ele>463</ele>
        <time>2026-08-29T09:31:45Z</time>
      </trkpt>
      <trkpt lat="50.683707939460874" lon="13.269871613010764">
        <ele>463</ele>
        <time>2026-08-29T09:31:46Z</time>
      </trkpt>
      <trkpt lat="50.683708023279905" lon="13.269827775657177">
        <ele>462</ele>
        <time>2026-08-29T09:31:47Z</time>
      </trkpt>
      <trkpt lat="50.683710034936666" lon="13.269792906939983">
        <ele>462</ele>
        <time>2026-08-29T09:31:48Z</time>
      </trkpt>
      <trkpt lat="50.68371070548892" lon="13.269748901948333">
        <ele>462</ele>
        <time>2026-08-29T09:31:49Z</time>
      </trkpt>
      <trkpt lat="50.683711040765047" lon="13.269714368507266">
        <ele>462</ele>
        <time>2026-08-29T09:31:50Z</time>
      </trkpt>
      <trkpt lat="50.683708861470222" lon="13.26969894580543">
        <ele>462</ele>
        <time>2026-08-29T09:31:51Z</time>
      </trkpt>
      <trkpt lat="50.683712465688586" lon="13.269690899178386">
        <ele>462</ele>
        <time>2026-08-29T09:31:52Z</time>
      </trkpt>
      <trkpt lat="50.683716656640172" lon="13.269693665206432">
        <ele>462</ele>
        <time>2026-08-29T09:31:53Z</time>
      </trkpt>
      <trkpt lat="50.683716908097267" lon="13.269687127321959">
        <ele>462</ele>
        <time>2026-08-29T09:31:54Z</time>
      </trkpt>
      <trkpt lat="50.683717494830489" lon="13.269683020189404">
        <ele>461</ele>
        <time>2026-08-29T09:31:55Z</time>
      </trkpt>
      <trkpt lat="50.683720260858536" lon="13.26967790722847">
        <ele>461</ele>
        <time>2026-08-29T09:31:56Z</time>
      </trkpt>
      <trkpt lat="50.683721182867885" lon="13.26967011205852">
        <ele>461</ele>
        <time>2026-08-29T09:31:57Z</time>
      </trkpt>
      <trkpt lat="50.683721769601107" lon="13.26965544372797">
        <ele>462</ele>
        <time>2026-08-29T09:31:58Z</time>
      </trkpt>
      <trkpt lat="50.683718752115965" lon="13.269640523940325">
        <ele>462</ele>
        <time>2026-08-29T09:31:59Z</time>
      </trkpt>
      <trkpt lat="50.683715818449855" lon="13.269623927772045">
        <ele>462</ele>
        <time>2026-08-29T09:32:00Z</time>
      </trkpt>
      <trkpt lat="50.683716991916299" lon="13.269602553918958">
        <ele>461</ele>
        <time>2026-08-29T09:32:01Z</time>
      </trkpt>
      <trkpt lat="50.683718333020806" lon="13.269591070711613">
        <ele>460</ele>
        <time>2026-08-29T09:32:02Z</time>
      </trkpt>
      <trkpt lat="50.683718333020806" lon="13.269576821476221">
        <ele>460</ele>
        <time>2026-08-29T09:32:03Z</time>
      </trkpt>
      <trkpt lat="50.683715147897601" lon="13.269562404602766">
        <ele>460</ele>
        <time>2026-08-29T09:32:04Z</time>
      </trkpt>
      <trkpt lat="50.683711040765047" lon="13.269555447623134">
        <ele>460</ele>
        <time>2026-08-29T09:32:05Z</time>
      </trkpt>
      <trkpt lat="50.683708358556032" lon="13.269548490643501">
        <ele>460</ele>
        <time>2026-08-29T09:32:06Z</time>
      </trkpt>
      <trkpt lat="50.683708442375064" lon="13.26952837407589">
        <ele>460</ele>
        <time>2026-08-29T09:32:07Z</time>
      </trkpt>
      <trkpt lat="50.683706849813461" lon="13.269515046849847">
        <ele>461</ele>
        <time>2026-08-29T09:32:08Z</time>
      </trkpt>
      <trkpt lat="50.68370534107089" lon="13.269507335498929">
        <ele>461</ele>
        <time>2026-08-29T09:32:09Z</time>
      </trkpt>
      <trkpt lat="50.683703077957034" lon="13.269489062950015">
        <ele>461</ele>
        <time>2026-08-29T09:32:10Z</time>
      </trkpt>
      <trkpt lat="50.683699222281575" lon="13.269474478438497">
        <ele>461</ele>
        <time>2026-08-29T09:32:11Z</time>
      </trkpt>
      <trkpt lat="50.683703497052193" lon="13.269466767087579">
        <ele>461</ele>
        <time>2026-08-29T09:32:12Z</time>
      </trkpt>
      <trkpt lat="50.683698384091258" lon="13.269458301365376">
        <ele>461</ele>
        <time>2026-08-29T09:32:13Z</time>
      </trkpt>
      <trkpt lat="50.68369553424418" lon="13.269439358264208">
        <ele>461</ele>
        <time>2026-08-29T09:32:14Z</time>
      </trkpt>
      <trkpt lat="50.68370089866221" lon="13.269426031038165">
        <ele>461</ele>
        <time>2026-08-29T09:32:15Z</time>
      </trkpt>
      <trkpt lat="50.683708442375064" lon="13.269412787631154">
        <ele>461</ele>
        <time>2026-08-29T09:32:16Z</time>
      </trkpt>
      <trkpt lat="50.68370969966054" lon="13.269397364929318">
        <ele>460</ele>
        <time>2026-08-29T09:32:17Z</time>
      </trkpt>
      <trkpt lat="50.683702491223812" lon="13.269404741004109">
        <ele>460</ele>
        <time>2026-08-29T09:32:18Z</time>
      </trkpt>
      <trkpt lat="50.68369846791029" lon="13.269391916692257">
        <ele>460</ele>
        <time>2026-08-29T09:32:19Z</time>
      </trkpt>
      <trkpt lat="50.683699389919639" lon="13.269387977197766">
        <ele>460</ele>
        <time>2026-08-29T09:32:20Z</time>
      </trkpt>
      <trkpt lat="50.683699809014797" lon="13.269378421828151">
        <ele>460</ele>
        <time>2026-08-29T09:32:21Z</time>
      </trkpt>
      <trkpt lat="50.683700982481241" lon="13.269376242533326">
        <ele>460</ele>
        <time>2026-08-29T09:32:22Z</time>
      </trkpt>
      <trkpt lat="50.683699138462543" lon="13.26937641017139">
        <ele>461</ele>
        <time>2026-08-29T09:32:23Z</time>
      </trkpt>
      <trkpt lat="50.683699641376734" lon="13.269387977197766">
        <ele>460</ele>
        <time>2026-08-29T09:32:24Z</time>
      </trkpt>
      <trkpt lat="50.683696288615465" lon="13.269398454576731">
        <ele>459</ele>
        <time>2026-08-29T09:32:25Z</time>
      </trkpt>
      <trkpt lat="50.683692768216133" lon="13.26940281316638">
        <ele>459</ele>
        <time>2026-08-29T09:32:26Z</time>
      </trkpt>
      <trkpt lat="50.683685559779406" lon="13.269397867843509">
        <ele>459</ele>
        <time>2026-08-29T09:32:27Z</time>
      </trkpt>
      <trkpt lat="50.683683045208454" lon="13.269389737397432">
        <ele>459</ele>
        <time>2026-08-29T09:32:28Z</time>
      </trkpt>
      <trkpt lat="50.683682961389422" lon="13.269384708255529">
        <ele>460</ele>
        <time>2026-08-29T09:32:29Z</time>
      </trkpt>
      <trkpt lat="50.68367944099009" lon="13.269384456798434">
        <ele>460</ele>
        <time>2026-08-29T09:32:30Z</time>
      </trkpt>
      <trkpt lat="50.683679860085249" lon="13.269384121522307">
        <ele>460</ele>
        <time>2026-08-29T09:32:31Z</time>
      </trkpt>
      <trkpt lat="50.683685643598437" lon="13.269374147057533">
        <ele>460</ele>
        <time>2026-08-29T09:32:32Z</time>
      </trkpt>
      <trkpt lat="50.683682039380074" lon="13.269363837316632">
        <ele>461</ele>
        <time>2026-08-29T09:32:33Z</time>
      </trkpt>
      <trkpt lat="50.683685811236501" lon="13.269367106258869">
        <ele>460</ele>
        <time>2026-08-29T09:32:34Z</time>
      </trkpt>
      <trkpt lat="50.683686062693596" lon="13.269366938620806">
        <ele>460</ele>
        <time>2026-08-29T09:32:35Z</time>
      </trkpt>
      <trkpt lat="50.683684470131993" lon="13.269371464848518">
        <ele>460</ele>
        <time>2026-08-29T09:32:36Z</time>
      </trkpt>
      <trkpt lat="50.683680949732661" lon="13.269374314695597">
        <ele>460</ele>
        <time>2026-08-29T09:32:37Z</time>
      </trkpt>
      <trkpt lat="50.683684637770057" lon="13.269372470676899">
        <ele>459</ele>
        <time>2026-08-29T09:32:38Z</time>
      </trkpt>
      <trkpt lat="50.683682961389422" lon="13.269364675506949">
        <ele>459</ele>
        <time>2026-08-29T09:32:39Z</time>
      </trkpt>
      <trkpt lat="50.683671897277236" lon="13.269364507868886">
        <ele>459</ele>
        <time>2026-08-29T09:32:40Z</time>
      </trkpt>
      <trkpt lat="50.683664521202445" lon="13.269364004954696">
        <ele>459</ele>
        <time>2026-08-29T09:32:41Z</time>
      </trkpt>
      <trkpt lat="50.683666029945016" lon="13.269371129572392">
        <ele>459</ele>
        <time>2026-08-29T09:32:42Z</time>
      </trkpt>
      <trkpt lat="50.683668209239841" lon="13.269358640536666">
        <ele>459</ele>
        <time>2026-08-29T09:32:43Z</time>
      </trkpt>
      <trkpt lat="50.68366376683116" lon="13.269349839538336">
        <ele>459</ele>
        <time>2026-08-29T09:32:44Z</time>
      </trkpt>
      <trkpt lat="50.6836564745754" lon="13.269344894215465">
        <ele>459</ele>
        <time>2026-08-29T09:32:45Z</time>
      </trkpt>
      <trkpt lat="50.683648930862546" lon="13.269337685778737">
        <ele>459</ele>
        <time>2026-08-29T09:32:46Z</time>
      </trkpt>
      <trkpt lat="50.683642560616136" lon="13.269324358552694">
        <ele>458</ele>
        <time>2026-08-29T09:32:47Z</time>
      </trkpt>
      <trkpt lat="50.683631831780076" lon="13.269306002184749">
        <ele>458</ele>
        <time>2026-08-29T09:32:48Z</time>
      </trkpt>
      <trkpt lat="50.683621605858207" lon="13.269307678565383">
        <ele>457</ele>
        <time>2026-08-29T09:32:49Z</time>
      </trkpt>
      <trkpt lat="50.683615989983082" lon="13.269303906708956">
        <ele>457</ele>
        <time>2026-08-29T09:32:50Z</time>
      </trkpt>
      <trkpt lat="50.683615067973733" lon="13.269307846203446">
        <ele>456</ele>
        <time>2026-08-29T09:32:51Z</time>
      </trkpt>
      <trkpt lat="50.683612721040845" lon="13.269305163994431">
        <ele>456</ele>
        <time>2026-08-29T09:32:52Z</time>
      </trkpt>
      <trkpt lat="50.683612050488591" lon="13.269301895052195">
        <ele>457</ele>
        <time>2026-08-29T09:32:53Z</time>
      </trkpt>
      <trkpt lat="50.683608781546354" lon="13.269301308318973">
        <ele>456</ele>
        <time>2026-08-29T09:32:54Z</time>
      </trkpt>
      <trkpt lat="50.683609200641513" lon="13.269294016063213">
        <ele>456</ele>
        <time>2026-08-29T09:32:55Z</time>
      </trkpt>
      <trkpt lat="50.683613223955035" lon="13.269292172044516">
        <ele>456</ele>
        <time>2026-08-29T09:32:56Z</time>
      </trkpt>
      <trkpt lat="50.683629903942347" lon="13.269274067133665">
        <ele>456</ele>
        <time>2026-08-29T09:32:57Z</time>
      </trkpt>
      <trkpt lat="50.683634430170059" lon="13.269266691058874">
        <ele>457</ele>
        <time>2026-08-29T09:32:58Z</time>
      </trkpt>
      <trkpt lat="50.683632418513298" lon="13.269267529249191">
        <ele>456</ele>
        <time>2026-08-29T09:32:59Z</time>
      </trkpt>
      <trkpt lat="50.68363250233233" lon="13.269267026335001">
        <ele>457</ele>
        <time>2026-08-29T09:33:00Z</time>
      </trkpt>
      <trkpt lat="50.68363250233233" lon="13.269266439601779">
        <ele>457</ele>
        <time>2026-08-29T09:33:01Z</time>
      </trkpt>
      <trkpt lat="50.68363250233233" lon="13.269266188144684">
        <ele>457</ele>
        <time>2026-08-29T09:33:02Z</time>
      </trkpt>
      <trkpt lat="50.683619510382414" lon="13.269259566441178">
        <ele>458</ele>
        <time>2026-08-29T09:33:03Z</time>
      </trkpt>
      <trkpt lat="50.683619258925319" lon="13.269259063526988">
        <ele>457</ele>
        <time>2026-08-29T09:33:04Z</time>
      </trkpt>
      <trkpt lat="50.683612218126655" lon="13.269255543127656">
        <ele>457</ele>
        <time>2026-08-29T09:33:05Z</time>
      </trkpt>
      <trkpt lat="50.683620851486921" lon="13.269245568662882">
        <ele>458</ele>
        <time>2026-08-29T09:33:06Z</time>
      </trkpt>
      <trkpt lat="50.683631831780076" lon="13.26924791559577">
        <ele>457</ele>
        <time>2026-08-29T09:33:07Z</time>
      </trkpt>
      <trkpt lat="50.683635519817472" lon="13.269251855090261">
        <ele>458</ele>
        <time>2026-08-29T09:33:08Z</time>
      </trkpt>
      <trkpt lat="50.683635771274567" lon="13.269251771271229">
        <ele>458</ele>
        <time>2026-08-29T09:33:09Z</time>
      </trkpt>
      <trkpt lat="50.683635855093598" lon="13.269251771271229">
        <ele>458</ele>
        <time>2026-08-29T09:33:10Z</time>
      </trkpt>
      <trkpt lat="50.683635687455535" lon="13.269252525642514">
        <ele>458</ele>
        <time>2026-08-29T09:33:11Z</time>
      </trkpt>
      <trkpt lat="50.683641219511628" lon="13.269257554784417">
        <ele>458</ele>
        <time>2026-08-29T09:33:12Z</time>
      </trkpt>
      <trkpt lat="50.683647505939007" lon="13.269261661916971">
        <ele>458</ele>
        <time>2026-08-29T09:33:13Z</time>
      </trkpt>
      <trkpt lat="50.683644488453865" lon="13.269263254478574">
        <ele>458</ele>
        <time>2026-08-29T09:33:14Z</time>
      </trkpt>
      <trkpt lat="50.683651780709624" lon="13.2692532800138">
        <ele>458</ele>
        <time>2026-08-29T09:33:15Z</time>
      </trkpt>
      <trkpt lat="50.68365789949894" lon="13.269259398803115">
        <ele>458</ele>
        <time>2026-08-29T09:33:16Z</time>
      </trkpt>
      <trkpt lat="50.683662677183747" lon="13.269263254478574">
        <ele>458</ele>
        <time>2026-08-29T09:33:17Z</time>
      </trkpt>
      <trkpt lat="50.683662090450525" lon="13.269268535077572">
        <ele>458</ele>
        <time>2026-08-29T09:33:18Z</time>
      </trkpt>
      <trkpt lat="50.683661000803113" lon="13.269272306933999">
        <ele>458</ele>
        <time>2026-08-29T09:33:19Z</time>
      </trkpt>
      <trkpt lat="50.683664102107286" lon="13.269260069355369">
        <ele>459</ele>
        <time>2026-08-29T09:33:20Z</time>
      </trkpt>
      <trkpt lat="50.683663850650191" lon="13.269259985536337">
        <ele>459</ele>
        <time>2026-08-29T09:33:21Z</time>
      </trkpt>
      <trkpt lat="50.683667119592428" lon="13.269251184538007">
        <ele>459</ele>
        <time>2026-08-29T09:33:22Z</time>
      </trkpt>
      <trkpt lat="50.683662258088589" lon="13.269254369661212">
        <ele>459</ele>
        <time>2026-08-29T09:33:23Z</time>
      </trkpt>
      <trkpt lat="50.683647841215134" lon="13.269258644431829">
        <ele>458</ele>
        <time>2026-08-29T09:33:24Z</time>
      </trkpt>
      <trkpt lat="50.683651193976402" lon="13.269259482622147">
        <ele>458</ele>
        <time>2026-08-29T09:33:25Z</time>
      </trkpt>
      <trkpt lat="50.683649098500609" lon="13.269258895888925">
        <ele>457</ele>
        <time>2026-08-29T09:33:26Z</time>
      </trkpt>
      <trkpt lat="50.683641890063882" lon="13.269264427945018">
        <ele>457</ele>
        <time>2026-08-29T09:33:27Z</time>
      </trkpt>
      <trkpt lat="50.683641135692596" lon="13.269257973879576">
        <ele>457</ele>
        <time>2026-08-29T09:33:28Z</time>
      </trkpt>
      <trkpt lat="50.683635603636503" lon="13.269251100718975">
        <ele>457</ele>
        <time>2026-08-29T09:33:29Z</time>
      </trkpt>
      <trkpt lat="50.683621605858207" lon="13.269252106547356">
        <ele>456</ele>
        <time>2026-08-29T09:33:30Z</time>
      </trkpt>
      <trkpt lat="50.683600651100278" lon="13.269245401024818">
        <ele>456</ele>
        <time>2026-08-29T09:33:31Z</time>
      </trkpt>
      <trkpt lat="50.683580199256539" lon="13.269234336912632">
        <ele>456</ele>
        <time>2026-08-29T09:33:32Z</time>
      </trkpt>
      <trkpt lat="50.68355924449861" lon="13.269217237830162">
        <ele>456</ele>
        <time>2026-08-29T09:33:33Z</time>
      </trkpt>
      <trkpt lat="50.683538625016809" lon="13.269206844270229">
        <ele>456</ele>
        <time>2026-08-29T09:33:34Z</time>
      </trkpt>
      <trkpt lat="50.683515574783087" lon="13.269199132919312">
        <ele>456</ele>
        <time>2026-08-29T09:33:35Z</time>
      </trkpt>
      <trkpt lat="50.683494620025158" lon="13.269186560064554">
        <ele>456</ele>
        <time>2026-08-29T09:33:36Z</time>
      </trkpt>
      <trkpt lat="50.683470480144024" lon="13.269173484295607">
        <ele>455</ele>
        <time>2026-08-29T09:33:37Z</time>
      </trkpt>
      <trkpt lat="50.68345564417541" lon="13.269147500395775">
        <ele>455</ele>
        <time>2026-08-29T09:33:38Z</time>
      </trkpt>
      <trkpt lat="50.683431839570403" lon="13.269126210361719">
        <ele>454</ele>
        <time>2026-08-29T09:33:39Z</time>
      </trkpt>
      <trkpt lat="50.683404430747032" lon="13.269118499010801">
        <ele>454</ele>
        <time>2026-08-29T09:33:40Z</time>
      </trkpt>
      <trkpt lat="50.683374088257551" lon="13.269113972783089">
        <ele>454</ele>
        <time>2026-08-29T09:33:41Z</time>
      </trkpt>
      <trkpt lat="50.683353049680591" lon="13.269108608365059">
        <ele>454</ele>
        <time>2026-08-29T09:33:42Z</time>
      </trkpt>
      <trkpt lat="50.683331340551376" lon="13.26911992393434">
        <ele>454</ele>
        <time>2026-08-29T09:33:43Z</time>
      </trkpt>
      <trkpt lat="50.683313990011811" lon="13.269130485132337">
        <ele>454</ele>
        <time>2026-08-29T09:33:44Z</time>
      </trkpt>
      <trkpt lat="50.683287587016821" lon="13.269137106835842">
        <ele>454</ele>
        <time>2026-08-29T09:33:45Z</time>
      </trkpt>
      <trkpt lat="50.683262860402465" lon="13.269149763509631">
        <ele>454</ele>
        <time>2026-08-29T09:33:46Z</time>
      </trkpt>
      <trkpt lat="50.683231428265572" lon="13.269167365506291">
        <ele>454</ele>
        <time>2026-08-29T09:33:47Z</time>
      </trkpt>
      <trkpt lat="50.683201588690281" lon="13.269187649711967">
        <ele>454</ele>
        <time>2026-08-29T09:33:48Z</time>
      </trkpt>
      <trkpt lat="50.683176862075925" lon="13.269205251708627">
        <ele>454</ele>
        <time>2026-08-29T09:33:49Z</time>
      </trkpt>
      <trkpt lat="50.68315657787025" lon="13.269207179546356">
        <ele>454</ele>
        <time>2026-08-29T09:33:50Z</time>
      </trkpt>
      <trkpt lat="50.683139227330685" lon="13.269216064363718">
        <ele>453</ele>
        <time>2026-08-29T09:33:51Z</time>
      </trkpt>
      <trkpt lat="50.683113411068916" lon="13.269223608076572">
        <ele>453</ele>
        <time>2026-08-29T09:33:52Z</time>
      </trkpt>
      <trkpt lat="50.683099497109652" lon="13.269224697723985">
        <ele>453</ele>
        <time>2026-08-29T09:33:53Z</time>
      </trkpt>
      <trkpt lat="50.683092540130019" lon="13.269230565056205">
        <ele>453</ele>
        <time>2026-08-29T09:33:54Z</time>
      </trkpt>
      <trkpt lat="50.683075860142708" lon="13.269215896725655">
        <ele>453</ele>
        <time>2026-08-29T09:33:55Z</time>
      </trkpt>
      <trkpt lat="50.683058090507984" lon="13.269205335527658">
        <ele>454</ele>
        <time>2026-08-29T09:33:56Z</time>
      </trkpt>
      <trkpt lat="50.683044595643878" lon="13.269189409911633">
        <ele>454</ele>
        <time>2026-08-29T09:33:57Z</time>
      </trkpt>
      <trkpt lat="50.683025987818837" lon="13.269179854542017">
        <ele>454</ele>
        <time>2026-08-29T09:33:58Z</time>
      </trkpt>
      <trkpt lat="50.683005368337035" lon="13.269171556457877">
        <ele>454</ele>
        <time>2026-08-29T09:33:59Z</time>
      </trkpt>
      <trkpt lat="50.682988772168756" lon="13.269158229231834">
        <ele>454</ele>
        <time>2026-08-29T09:34:00Z</time>
      </trkpt>
      <trkpt lat="50.68297578021884" lon="13.269159318879247">
        <ele>454</ele>
        <time>2026-08-29T09:34:01Z</time>
      </trkpt>
      <trkpt lat="50.682964799925685" lon="13.269154541194439">
        <ele>454</ele>
        <time>2026-08-29T09:34:02Z</time>
      </trkpt>
      <trkpt lat="50.682954657822847" lon="13.269152529537678">
        <ele>453</ele>
        <time>2026-08-29T09:34:03Z</time>
      </trkpt>
      <trkpt lat="50.682953149080276" lon="13.269152948632836">
        <ele>454</ele>
        <time>2026-08-29T09:34:04Z</time>
      </trkpt>
      <trkpt lat="50.68295281380415" lon="13.269153283908963">
        <ele>454</ele>
        <time>2026-08-29T09:34:05Z</time>
      </trkpt>
      <trkpt lat="50.682946611195803" lon="13.269154876470566">
        <ele>454</ele>
        <time>2026-08-29T09:34:06Z</time>
      </trkpt>
      <trkpt lat="50.6829450186342" lon="13.269159067422152">
        <ele>454</ele>
        <time>2026-08-29T09:34:07Z</time>
      </trkpt>
      <trkpt lat="50.682938899844885" lon="13.269161581993103">
        <ele>454</ele>
        <time>2026-08-29T09:34:08Z</time>
      </trkpt>
      <trkpt lat="50.682929428294301" lon="13.269161749631166">
        <ele>453</ele>
        <time>2026-08-29T09:34:09Z</time>
      </trkpt>
      <trkpt lat="50.682923477143049" lon="13.269161246716976">
        <ele>453</ele>
        <time>2026-08-29T09:34:10Z</time>
      </trkpt>
      <trkpt lat="50.68291668780148" lon="13.269165856763721">
        <ele>453</ele>
        <time>2026-08-29T09:34:11Z</time>
      </trkpt>
      <trkpt lat="50.682916101068258" lon="13.269166611135006">
        <ele>453</ele>
        <time>2026-08-29T09:34:12Z</time>
      </trkpt>
      <trkpt lat="50.682917777448893" lon="13.269168203696609">
        <ele>452</ele>
        <time>2026-08-29T09:34:13Z</time>
      </trkpt>
      <trkpt lat="50.682920040562749" lon="13.269166108220816">
        <ele>452</ele>
        <time>2026-08-29T09:34:14Z</time>
      </trkpt>
      <trkpt lat="50.682923560962081" lon="13.269175831228495">
        <ele>452</ele>
        <time>2026-08-29T09:34:15Z</time>
      </trkpt>
      <trkpt lat="50.682923560962081" lon="13.269177423790097">
        <ele>452</ele>
        <time>2026-08-29T09:34:16Z</time>
      </trkpt>
      <trkpt lat="50.682925321161747" lon="13.269190667197108">
        <ele>452</ele>
        <time>2026-08-29T09:34:17Z</time>
      </trkpt>
      <trkpt lat="50.682928087189794" lon="13.269196366891265">
        <ele>450</ele>
        <time>2026-08-29T09:34:18Z</time>
      </trkpt>
      <trkpt lat="50.682932361960411" lon="13.269202904775739">
        <ele>449</ele>
        <time>2026-08-29T09:34:19Z</time>
      </trkpt>
      <trkpt lat="50.682939570397139" lon="13.269202653318644">
        <ele>449</ele>
        <time>2026-08-29T09:34:20Z</time>
      </trkpt>
      <trkpt lat="50.682938899844885" lon="13.269189158454537">
        <ele>449</ele>
        <time>2026-08-29T09:34:21Z</time>
      </trkpt>
      <trkpt lat="50.682933870702982" lon="13.269160827621818">
        <ele>447</ele>
        <time>2026-08-29T09:34:22Z</time>
      </trkpt>
      <trkpt lat="50.682927332818508" lon="13.269151523709297">
        <ele>447</ele>
        <time>2026-08-29T09:34:23Z</time>
      </trkpt>
      <trkpt lat="50.682931859046221" lon="13.269139872863889">
        <ele>447</ele>
        <time>2026-08-29T09:34:24Z</time>
      </trkpt>
      <trkpt lat="50.682937977835536" lon="13.26912235468626">
        <ele>447</ele>
        <time>2026-08-29T09:34:25Z</time>
      </trkpt>
      <trkpt lat="50.682941665872931" lon="13.269119504839182">
        <ele>448</ele>
        <time>2026-08-29T09:34:26Z</time>
      </trkpt>
      <trkpt lat="50.682938145473599" lon="13.269110955297947">
        <ele>448</ele>
        <time>2026-08-29T09:34:27Z</time>
      </trkpt>
      <trkpt lat="50.682938396930695" lon="13.269097963348031">
        <ele>448</ele>
        <time>2026-08-29T09:34:28Z</time>
      </trkpt>
      <trkpt lat="50.682936888188124" lon="13.269089749082923">
        <ele>448</ele>
        <time>2026-08-29T09:34:29Z</time>
      </trkpt>
      <trkpt lat="50.682934708893299" lon="13.269081870093942">
        <ele>448</ele>
        <time>2026-08-29T09:34:30Z</time>
      </trkpt>
      <trkpt lat="50.682933870702982" lon="13.269073320552707">
        <ele>448</ele>
        <time>2026-08-29T09:34:31Z</time>
      </trkpt>
      <trkpt lat="50.682943761348724" lon="13.269068542867899">
        <ele>448</ele>
        <time>2026-08-29T09:34:32Z</time>
      </trkpt>
      <trkpt lat="50.682949461042881" lon="13.269048845395446">
        <ele>448</ele>
        <time>2026-08-29T09:34:33Z</time>
      </trkpt>
      <trkpt lat="50.682958848774433" lon="13.269041050225496">
        <ele>449</ele>
        <time>2026-08-29T09:34:34Z</time>
      </trkpt>
      <trkpt lat="50.682962704449892" lon="13.269037948921323">
        <ele>449</ele>
        <time>2026-08-29T09:34:35Z</time>
      </trkpt>
      <trkpt lat="50.682967901229858" lon="13.269022274762392">
        <ele>449</ele>
        <time>2026-08-29T09:34:36Z</time>
      </trkpt>
      <trkpt lat="50.682972092181444" lon="13.269014647230506">
        <ele>449</ele>
        <time>2026-08-29T09:34:37Z</time>
      </trkpt>
      <trkpt lat="50.682967398315668" lon="13.269014731049538">
        <ele>449</ele>
        <time>2026-08-29T09:34:38Z</time>
      </trkpt>
      <trkpt lat="50.682964129373431" lon="13.269024454057217">
        <ele>449</ele>
        <time>2026-08-29T09:34:39Z</time>
      </trkpt>
      <trkpt lat="50.682963961735368" lon="13.269015653058887">
        <ele>449</ele>
        <time>2026-08-29T09:34:40Z</time>
      </trkpt>
      <trkpt lat="50.682957088574767" lon="13.269003164023161">
        <ele>449</ele>
        <time>2026-08-29T09:34:41Z</time>
      </trkpt>
      <trkpt lat="50.682957842946053" lon="13.269002074375749">
        <ele>449</ele>
        <time>2026-08-29T09:34:42Z</time>
      </trkpt>
      <trkpt lat="50.682955998927355" lon="13.268992267549038">
        <ele>449</ele>
        <time>2026-08-29T09:34:43Z</time>
      </trkpt>
      <trkpt lat="50.682953400537372" lon="13.268987238407135">
        <ele>450</ele>
        <time>2026-08-29T09:34:44Z</time>
      </trkpt>
      <trkpt lat="50.682952227070928" lon="13.269005846232176">
        <ele>450</ele>
        <time>2026-08-29T09:34:45Z</time>
      </trkpt>
      <trkpt lat="50.682950550690293" lon="13.26900509186089">
        <ele>450</ele>
        <time>2026-08-29T09:34:46Z</time>
      </trkpt>
      <trkpt lat="50.682953568175435" lon="13.268995117396116">
        <ele>451</ele>
        <time>2026-08-29T09:34:47Z</time>
      </trkpt>
      <trkpt lat="50.68295381963253" lon="13.268994027748704">
        <ele>451</ele>
        <time>2026-08-29T09:34:48Z</time>
      </trkpt>
      <trkpt lat="50.68295574747026" lon="13.269013976678252">
        <ele>451</ele>
        <time>2026-08-29T09:34:49Z</time>
      </trkpt>
      <trkpt lat="50.682966560125351" lon="13.26900752261281">
        <ele>451</ele>
        <time>2026-08-29T09:34:50Z</time>
      </trkpt>
      <trkpt lat="50.682972427457571" lon="13.268995536491275">
        <ele>452</ele>
        <time>2026-08-29T09:34:51Z</time>
      </trkpt>
      <trkpt lat="50.682976618409157" lon="13.269000900909305">
        <ele>452</ele>
        <time>2026-08-29T09:34:52Z</time>
      </trkpt>
      <trkpt lat="50.682976031675935" lon="13.26900165528059">
        <ele>452</ele>
        <time>2026-08-29T09:34:53Z</time>
      </trkpt>
      <trkpt lat="50.682978210970759" lon="13.269004253670573">
        <ele>452</ele>
        <time>2026-08-29T09:34:54Z</time>
      </trkpt>
      <trkpt lat="50.68297142162919" lon="13.269005259498954">
        <ele>452</ele>
        <time>2026-08-29T09:34:55Z</time>
      </trkpt>
      <trkpt lat="50.682972511276603" lon="13.269005510956049">
        <ele>452</ele>
        <time>2026-08-29T09:34:56Z</time>
      </trkpt>
      <trkpt lat="50.682976618409157" lon="13.269003080204129">
        <ele>452</ele>
        <time>2026-08-29T09:34:57Z</time>
      </trkpt>
      <trkpt lat="50.682981060817838" lon="13.268998302519321">
        <ele>452</ele>
        <time>2026-08-29T09:34:58Z</time>
      </trkpt>
      <trkpt lat="50.682981060817838" lon="13.268999056890607">
        <ele>452</ele>
        <time>2026-08-29T09:34:59Z</time>
      </trkpt>
      <trkpt lat="50.682980641722679" lon="13.268999308347702">
        <ele>452</ele>
        <time>2026-08-29T09:35:00Z</time>
      </trkpt>
      <trkpt lat="50.682980725541711" lon="13.268998302519321">
        <ele>452</ele>
        <time>2026-08-29T09:35:01Z</time>
      </trkpt>
      <trkpt lat="50.682979049161077" lon="13.269004337489605">
        <ele>452</ele>
        <time>2026-08-29T09:35:02Z</time>
      </trkpt>
      <trkpt lat="50.68297921679914" lon="13.2690045889467">
        <ele>452</ele>
        <time>2026-08-29T09:35:03Z</time>
      </trkpt>
      <trkpt lat="50.682979300618172" lon="13.2690045889467">
        <ele>452</ele>
        <time>2026-08-29T09:35:04Z</time>
      </trkpt>
      <trkpt lat="50.682979300618172" lon="13.2690045889467">
        <ele>452</ele>
        <time>2026-08-29T09:35:05Z</time>
      </trkpt>
      <trkpt lat="50.682979300618172" lon="13.269004505127668">
        <ele>452</ele>
        <time>2026-08-29T09:35:06Z</time>
      </trkpt>
      <trkpt lat="50.682982737198472" lon="13.26900215819478">
        <ele>452</ele>
        <time>2026-08-29T09:35:07Z</time>
      </trkpt>
      <trkpt lat="50.682987598702312" lon="13.269000649452209">
        <ele>452</ele>
        <time>2026-08-29T09:35:08Z</time>
      </trkpt>
      <trkpt lat="50.682987850159407" lon="13.269000230357051">
        <ele>452</ele>
        <time>2026-08-29T09:35:09Z</time>
      </trkpt>
      <trkpt lat="50.682988101616502" lon="13.269000397995114">
        <ele>452</ele>
        <time>2026-08-29T09:35:10Z</time>
      </trkpt>
      <trkpt lat="50.682988101616502" lon="13.269000230357051">
        <ele>452</ele>
        <time>2026-08-29T09:35:11Z</time>
      </trkpt>
      <trkpt lat="50.682987598702312" lon="13.269003750756383">
        <ele>453</ele>
        <time>2026-08-29T09:35:12Z</time>
      </trkpt>
      <trkpt lat="50.68298751488328" lon="13.269003666937351">
        <ele>453</ele>
        <time>2026-08-29T09:35:13Z</time>
      </trkpt>
      <trkpt lat="50.682987682521343" lon="13.269003415480256">
        <ele>453</ele>
        <time>2026-08-29T09:35:14Z</time>
      </trkpt>
      <trkpt lat="50.68298801779747" lon="13.269003164023161">
        <ele>453</ele>
        <time>2026-08-29T09:35:15Z</time>
      </trkpt>
      <trkpt lat="50.682990700006485" lon="13.269004505127668">
        <ele>453</ele>
        <time>2026-08-29T09:35:16Z</time>
      </trkpt>
      <trkpt lat="50.682984497398138" lon="13.268998805433512">
        <ele>453</ele>
        <time>2026-08-29T09:35:17Z</time>
      </trkpt>
      <trkpt lat="50.682972259819508" lon="13.268988747149706">
        <ele>453</ele>
        <time>2026-08-29T09:35:18Z</time>
      </trkpt>
      <trkpt lat="50.682965638116002" lon="13.268983801826835">
        <ele>454</ele>
        <time>2026-08-29T09:35:19Z</time>
      </trkpt>
      <trkpt lat="50.68296262063086" lon="13.2689821254462">
        <ele>454</ele>
        <time>2026-08-29T09:35:20Z</time>
      </trkpt>
      <trkpt lat="50.682957926765084" lon="13.268984891474247">
        <ele>454</ele>
        <time>2026-08-29T09:35:21Z</time>
      </trkpt>
      <trkpt lat="50.682953987270594" lon="13.26899092644453">
        <ele>454</ele>
        <time>2026-08-29T09:35:22Z</time>
      </trkpt>
      <trkpt lat="50.682944431900978" lon="13.268994614481926">
        <ele>454</ele>
        <time>2026-08-29T09:35:23Z</time>
      </trkpt>
      <trkpt lat="50.682943928986788" lon="13.268996961414814">
        <ele>454</ele>
        <time>2026-08-29T09:35:24Z</time>
      </trkpt>
      <trkpt lat="50.682940827682614" lon="13.269006684422493">
        <ele>454</ele>
        <time>2026-08-29T09:35:25Z</time>
      </trkpt>
      <trkpt lat="50.682939989492297" lon="13.269025376066566">
        <ele>454</ele>
        <time>2026-08-29T09:35:26Z</time>
      </trkpt>
      <trkpt lat="50.682932194322348" lon="13.269030824303627">
        <ele>454</ele>
        <time>2026-08-29T09:35:27Z</time>
      </trkpt>
      <trkpt lat="50.682927332818508" lon="13.269036691635847">
        <ele>454</ele>
        <time>2026-08-29T09:35:28Z</time>
      </trkpt>
      <trkpt lat="50.68292791955173" lon="13.269033674150705">
        <ele>454</ele>
        <time>2026-08-29T09:35:29Z</time>
      </trkpt>
      <trkpt lat="50.682928590103984" lon="13.269045660272241">
        <ele>454</ele>
        <time>2026-08-29T09:35:30Z</time>
      </trkpt>
      <trkpt lat="50.682933200150728" lon="13.269054796546698">
        <ele>454</ele>
        <time>2026-08-29T09:35:31Z</time>
      </trkpt>
      <trkpt lat="50.682935966178775" lon="13.269056640565395">
        <ele>454</ele>
        <time>2026-08-29T09:35:32Z</time>
      </trkpt>
      <trkpt lat="50.682935463264585" lon="13.269057562574744">
        <ele>454</ele>
        <time>2026-08-29T09:35:33Z</time>
      </trkpt>
      <trkpt lat="50.682934541255236" lon="13.269061837345362">
        <ele>454</ele>
        <time>2026-08-29T09:35:34Z</time>
      </trkpt>
      <trkpt lat="50.682936385273933" lon="13.269064351916313">
        <ele>454</ele>
        <time>2026-08-29T09:35:35Z</time>
      </trkpt>
      <trkpt lat="50.682935547083616" lon="13.269074745476246">
        <ele>454</ele>
        <time>2026-08-29T09:35:36Z</time>
      </trkpt>
      <trkpt lat="50.682931272312999" lon="13.269089246168733">
        <ele>454</ele>
        <time>2026-08-29T09:35:37Z</time>
      </trkpt>
      <trkpt lat="50.682932361960411" lon="13.269100645557046">
        <ele>454</ele>
        <time>2026-08-29T09:35:38Z</time>
      </trkpt>
      <trkpt lat="50.682929009199142" lon="13.26911355368793">
        <ele>454</ele>
        <time>2026-08-29T09:35:39Z</time>
      </trkpt>
      <trkpt lat="50.682909730821848" lon="13.269141968339682">
        <ele>455</ele>
        <time>2026-08-29T09:35:40Z</time>
      </trkpt>
      <trkpt lat="50.682903528213501" lon="13.269170382991433">
        <ele>455</ele>
        <time>2026-08-29T09:35:41Z</time>
      </trkpt>
      <trkpt lat="50.68290788680315" lon="13.269177507609129">
        <ele>455</ele>
        <time>2026-08-29T09:35:42Z</time>
      </trkpt>
      <trkpt lat="50.682911658659577" lon="13.269186057150364">
        <ele>455</ele>
        <time>2026-08-29T09:35:43Z</time>
      </trkpt>
      <trkpt lat="50.68290838971734" lon="13.269191505387425">
        <ele>455</ele>
        <time>2026-08-29T09:35:44Z</time>
      </trkpt>
      <trkpt lat="50.68290838971734" lon="13.269201563671231">
        <ele>455</ele>
        <time>2026-08-29T09:35:45Z</time>
      </trkpt>
      <trkpt lat="50.682909982278943" lon="13.269198965281248">
        <ele>454</ele>
        <time>2026-08-29T09:35:46Z</time>
      </trkpt>
      <trkpt lat="50.682917777448893" lon="13.269195780158043">
        <ele>454</ele>
        <time>2026-08-29T09:35:47Z</time>
      </trkpt>
      <trkpt lat="50.682912077754736" lon="13.269202234223485">
        <ele>454</ele>
        <time>2026-08-29T09:35:48Z</time>
      </trkpt>
      <trkpt lat="50.68291274830699" lon="13.269200893118978">
        <ele>454</ele>
        <time>2026-08-29T09:35:49Z</time>
      </trkpt>
      <trkpt lat="50.682912832126021" lon="13.269200222566724">
        <ele>454</ele>
        <time>2026-08-29T09:35:50Z</time>
      </trkpt>
      <trkpt lat="50.682917190715671" lon="13.269198378548026">
        <ele>454</ele>
        <time>2026-08-29T09:35:51Z</time>
      </trkpt>
      <trkpt lat="50.682918699458241" lon="13.269196366891265">
        <ele>454</ele>
        <time>2026-08-29T09:35:52Z</time>
      </trkpt>
      <trkpt lat="50.682922471314669" lon="13.269219668582082">
        <ele>455</ele>
        <time>2026-08-29T09:35:53Z</time>
      </trkpt>
      <trkpt lat="50.682923141866922" lon="13.269214723259211">
        <ele>455</ele>
        <time>2026-08-29T09:35:54Z</time>
      </trkpt>
      <trkpt lat="50.6829191185534" lon="13.269208772107959">
        <ele>455</ele>
        <time>2026-08-29T09:35:55Z</time>
      </trkpt>
      <trkpt lat="50.6829191185534" lon="13.269208772107959">
        <ele>455</ele>
        <time>2026-08-29T09:35:56Z</time>
      </trkpt>
      <trkpt lat="50.68290981464088" lon="13.269205251708627">
        <ele>454</ele>
        <time>2026-08-29T09:35:57Z</time>
      </trkpt>
      <trkpt lat="50.682917190715671" lon="13.26919955201447">
        <ele>454</ele>
        <time>2026-08-29T09:35:58Z</time>
      </trkpt>
      <trkpt lat="50.682920711115003" lon="13.269206257537007">
        <ele>455</ele>
        <time>2026-08-29T09:35:59Z</time>
      </trkpt>
      <trkpt lat="50.682925069704652" lon="13.269209694117308">
        <ele>455</ele>
        <time>2026-08-29T09:36:00Z</time>
      </trkpt>
      <trkpt lat="50.682927081361413" lon="13.269230648875237">
        <ele>454</ele>
        <time>2026-08-29T09:36:01Z</time>
      </trkpt>
      <trkpt lat="50.682911910116673" lon="13.269235510379076">
        <ele>454</ele>
        <time>2026-08-29T09:36:02Z</time>
      </trkpt>
      <trkpt lat="50.682899421080947" lon="13.269243640825152">
        <ele>454</ele>
        <time>2026-08-29T09:36:03Z</time>
      </trkpt>
      <trkpt lat="50.682898079976439" lon="13.269236013293266">
        <ele>453</ele>
        <time>2026-08-29T09:36:04Z</time>
      </trkpt>
      <trkpt lat="50.68291082046926" lon="13.269228721037507">
        <ele>453</ele>
        <time>2026-08-29T09:36:05Z</time>
      </trkpt>
      <trkpt lat="50.682908808812499" lon="13.269237438216805">
        <ele>452</ele>
        <time>2026-08-29T09:36:06Z</time>
      </trkpt>
      <trkpt lat="50.682909898459911" lon="13.269244730472565">
        <ele>451</ele>
        <time>2026-08-29T09:36:07Z</time>
      </trkpt>
      <trkpt lat="50.682913083583117" lon="13.269251687452197">
        <ele>452</ele>
        <time>2026-08-29T09:36:08Z</time>
      </trkpt>
      <trkpt lat="50.682913167402148" lon="13.269251938909292">
        <ele>452</ele>
        <time>2026-08-29T09:36:09Z</time>
      </trkpt>
      <trkpt lat="50.682913167402148" lon="13.26925135217607">
        <ele>452</ele>
        <time>2026-08-29T09:36:10Z</time>
      </trkpt>
      <trkpt lat="50.682916352525353" lon="13.269244143739343">
        <ele>452</ele>
        <time>2026-08-29T09:36:11Z</time>
      </trkpt>
      <trkpt lat="50.682916520163417" lon="13.269243892282248">
        <ele>452</ele>
        <time>2026-08-29T09:36:12Z</time>
      </trkpt>
      <trkpt lat="50.682916520163417" lon="13.269244059920311">
        <ele>452</ele>
        <time>2026-08-29T09:36:13Z</time>
      </trkpt>
      <trkpt lat="50.682917190715671" lon="13.26923961751163">
        <ele>451</ele>
        <time>2026-08-29T09:36:14Z</time>
      </trkpt>
      <trkpt lat="50.682914927601814" lon="13.269241880625486">
        <ele>451</ele>
        <time>2026-08-29T09:36:15Z</time>
      </trkpt>
      <trkpt lat="50.68291668780148" lon="13.269260572269559">
        <ele>451</ele>
        <time>2026-08-29T09:36:16Z</time>
      </trkpt>
      <trkpt lat="50.682920962572098" lon="13.269255962222815">
        <ele>450</ele>
        <time>2026-08-29T09:36:17Z</time>
      </trkpt>
      <trkpt lat="50.682920711115003" lon="13.269256800413132">
        <ele>451</ele>
        <time>2026-08-29T09:36:18Z</time>
      </trkpt>
      <trkpt lat="50.682916268706322" lon="13.269259985536337">
        <ele>451</ele>
        <time>2026-08-29T09:36:19Z</time>
      </trkpt>
      <trkpt lat="50.682908557355404" lon="13.269257554784417">
        <ele>451</ele>
        <time>2026-08-29T09:36:20Z</time>
      </trkpt>
      <trkpt lat="50.682898247614503" lon="13.269258560612798">
        <ele>451</ele>
        <time>2026-08-29T09:36:21Z</time>
      </trkpt>
      <trkpt lat="50.682894308120012" lon="13.269260069355369">
        <ele>451</ele>
        <time>2026-08-29T09:36:22Z</time>
      </trkpt>
      <trkpt lat="50.682875281199813" lon="13.269260320812464">
        <ele>450</ele>
        <time>2026-08-29T09:36:23Z</time>
      </trkpt>
      <trkpt lat="50.682864803820848" lon="13.269258225336671">
        <ele>450</ele>
        <time>2026-08-29T09:36:24Z</time>
      </trkpt>
      <trkpt lat="50.682849381119013" lon="13.269247831776738">
        <ele>450</ele>
        <time>2026-08-29T09:36:25Z</time>
      </trkpt>
      <trkpt lat="50.682827336713672" lon="13.269235426560044">
        <ele>450</ele>
        <time>2026-08-29T09:36:26Z</time>
      </trkpt>
      <trkpt lat="50.682808812707663" lon="13.269219165667892">
        <ele>450</ele>
        <time>2026-08-29T09:36:27Z</time>
      </trkpt>
      <trkpt lat="50.682791881263256" lon="13.269196534529328">
        <ele>450</ele>
        <time>2026-08-29T09:36:28Z</time>
      </trkpt>
      <trkpt lat="50.682771177962422" lon="13.269186811521649">
        <ele>450</ele>
        <time>2026-08-29T09:36:29Z</time>
      </trkpt>
      <trkpt lat="50.682744607329369" lon="13.269189493730664">
        <ele>450</ele>
        <time>2026-08-29T09:36:30Z</time>
      </trkpt>
      <trkpt lat="50.682726250961423" lon="13.269208436831832">
        <ele>450</ele>
        <time>2026-08-29T09:36:31Z</time>
      </trkpt>
      <trkpt lat="50.682717030867934" lon="13.269202653318644">
        <ele>450</ele>
        <time>2026-08-29T09:36:32Z</time>
      </trkpt>
      <trkpt lat="50.682709068059921" lon="13.269186224788427">
        <ele>450</ele>
        <time>2026-08-29T09:36:33Z</time>
      </trkpt>
      <trkpt lat="50.682691298425198" lon="13.269181028008461">
        <ele>450</ele>
        <time>2026-08-29T09:36:34Z</time>
      </trkpt>
      <trkpt lat="50.682666571810842" lon="13.26916828751564">
        <ele>450</ele>
        <time>2026-08-29T09:36:35Z</time>
      </trkpt>
      <trkpt lat="50.682634888216853" lon="13.269160073250532">
        <ele>450</ele>
        <time>2026-08-29T09:36:36Z</time>
      </trkpt>
      <trkpt lat="50.682607479393482" lon="13.269146410748363">
        <ele>450</ele>
        <time>2026-08-29T09:36:37Z</time>
      </trkpt>
      <trkpt lat="50.682585099712014" lon="13.26912528835237">
        <ele>450</ele>
        <time>2026-08-29T09:36:38Z</time>
      </trkpt>
      <trkpt lat="50.682556768879294" lon="13.26911062002182">
        <ele>449</ele>
        <time>2026-08-29T09:36:39Z</time>
      </trkpt>
      <trkpt lat="50.682529360055923" lon="13.269100729376078">
        <ele>449</ele>
        <time>2026-08-29T09:36:40Z</time>
      </trkpt>
      <trkpt lat="50.682503459975123" lon="13.269091676920652">
        <ele>449</ele>
        <time>2026-08-29T09:36:41Z</time>
      </trkpt>
      <trkpt lat="50.68248619325459" lon="13.269072650000453">
        <ele>450</ele>
        <time>2026-08-29T09:36:42Z</time>
      </trkpt>
      <trkpt lat="50.682467920705676" lon="13.269060412421823">
        <ele>450</ele>
        <time>2026-08-29T09:36:43Z</time>
      </trkpt>
      <trkpt lat="50.682441350072622" lon="13.269054461270571">
        <ele>450</ele>
        <time>2026-08-29T09:36:44Z</time>
      </trkpt>
      <trkpt lat="50.682415869086981" lon="13.269043564796448">
        <ele>450</ele>
        <time>2026-08-29T09:36:45Z</time>
      </trkpt>
      <trkpt lat="50.682398350909352" lon="13.269029818475246">
        <ele>450</ele>
        <time>2026-08-29T09:36:46Z</time>
      </trkpt>
      <trkpt lat="50.682387286797166" lon="13.269018167629838">
        <ele>450</ele>
        <time>2026-08-29T09:36:47Z</time>
      </trkpt>
      <trkpt lat="50.682380078360438" lon="13.269013557583094">
        <ele>450</ele>
        <time>2026-08-29T09:36:48Z</time>
      </trkpt>
      <trkpt lat="50.682370690628886" lon="13.269019005820155">
        <ele>451</ele>
        <time>2026-08-29T09:36:49Z</time>
      </trkpt>
      <trkpt lat="50.682372702285647" lon="13.269017077982426">
        <ele>450</ele>
        <time>2026-08-29T09:36:50Z</time>
      </trkpt>
      <trkpt lat="50.682371947914362" lon="13.269016742706299">
        <ele>450</ele>
        <time>2026-08-29T09:36:51Z</time>
      </trkpt>
      <trkpt lat="50.682371109724045" lon="13.269016072154045">
        <ele>451</ele>
        <time>2026-08-29T09:36:52Z</time>
      </trkpt>
      <trkpt lat="50.682362811639905" lon="13.269014060497284">
        <ele>451</ele>
        <time>2026-08-29T09:36:53Z</time>
      </trkpt>
      <trkpt lat="50.682361973449588" lon="13.269014479592443">
        <ele>451</ele>
        <time>2026-08-29T09:36:54Z</time>
      </trkpt>
      <trkpt lat="50.682361386716366" lon="13.269014228135347">
        <ele>451</ele>
        <time>2026-08-29T09:36:55Z</time>
      </trkpt>
      <trkpt lat="50.682354178279638" lon="13.268999643623829">
        <ele>451</ele>
        <time>2026-08-29T09:36:56Z</time>
      </trkpt>
      <trkpt lat="50.682353423908353" lon="13.268999811261892">
        <ele>451</ele>
        <time>2026-08-29T09:36:57Z</time>
      </trkpt>
      <trkpt lat="50.682348143309355" lon="13.268997464329004">
        <ele>451</ele>
        <time>2026-08-29T09:36:58Z</time>
      </trkpt>
      <trkpt lat="50.682352250441909" lon="13.26899335719645">
        <ele>450</ele>
        <time>2026-08-29T09:36:59Z</time>
      </trkpt>
      <trkpt lat="50.682351663708687" lon="13.268991680815816">
        <ele>451</ele>
        <time>2026-08-29T09:37:00Z</time>
      </trkpt>
      <trkpt lat="50.682351998984814" lon="13.268991764634848">
        <ele>451</ele>
        <time>2026-08-29T09:37:01Z</time>
      </trkpt>
      <trkpt lat="50.682351579889655" lon="13.268991513177752">
        <ele>451</ele>
        <time>2026-08-29T09:37:02Z</time>
      </trkpt>
      <trkpt lat="50.682351244613528" lon="13.268991932272911">
        <ele>451</ele>
        <time>2026-08-29T09:37:03Z</time>
      </trkpt>
      <trkpt lat="50.682350490242243" lon="13.268992183730006">
        <ele>451</ele>
        <time>2026-08-29T09:37:04Z</time>
      </trkpt>
      <trkpt lat="50.682350238785148" lon="13.268992016091943">
        <ele>451</ele>
        <time>2026-08-29T09:37:05Z</time>
      </trkpt>
      <trkpt lat="50.682348310947418" lon="13.268987406045198">
        <ele>451</ele>
        <time>2026-08-29T09:37:06Z</time>
      </trkpt>
      <trkpt lat="50.682343952357769" lon="13.268983634188771">
        <ele>450</ele>
        <time>2026-08-29T09:37:07Z</time>
      </trkpt>
      <trkpt lat="50.682337833568454" lon="13.268981873989105">
        <ele>450</ele>
        <time>2026-08-29T09:37:08Z</time>
      </trkpt>
      <trkpt lat="50.68233666010201" lon="13.26897625811398">
        <ele>450</ele>
        <time>2026-08-29T09:37:09Z</time>
      </trkpt>
      <trkpt lat="50.682333307340741" lon="13.268961422145367">
        <ele>450</ele>
        <time>2026-08-29T09:37:10Z</time>
      </trkpt>
      <trkpt lat="50.682333474978805" lon="13.268957482650876">
        <ele>450</ele>
        <time>2026-08-29T09:37:11Z</time>
      </trkpt>
      <trkpt lat="50.682336241006851" lon="13.268954548984766">
        <ele>451</ele>
        <time>2026-08-29T09:37:12Z</time>
      </trkpt>
      <trkpt lat="50.682328110560775" lon="13.268960248678923">
        <ele>451</ele>
        <time>2026-08-29T09:37:13Z</time>
      </trkpt>
      <trkpt lat="50.682323165237904" lon="13.268961170688272">
        <ele>450</ele>
        <time>2026-08-29T09:37:14Z</time>
      </trkpt>
      <trkpt lat="50.682324673980474" lon="13.268962260335684">
        <ele>451</ele>
        <time>2026-08-29T09:37:15Z</time>
      </trkpt>
      <trkpt lat="50.682322159409523" lon="13.268957147374749">
        <ele>450</ele>
        <time>2026-08-29T09:37:16Z</time>
      </trkpt>
      <trkpt lat="50.682311933487654" lon="13.268939713016152">
        <ele>450</ele>
        <time>2026-08-29T09:37:17Z</time>
      </trkpt>
      <trkpt lat="50.682297851890326" lon="13.268910963088274">
        <ele>451</ele>
        <time>2026-08-29T09:37:18Z</time>
      </trkpt>
      <trkpt lat="50.682288380339742" lon="13.268882548436522">
        <ele>451</ele>
        <time>2026-08-29T09:37:19Z</time>
      </trkpt>
      <trkpt lat="50.682276478037238" lon="13.268848266452551">
        <ele>451</ele>
        <time>2026-08-29T09:37:20Z</time>
      </trkpt>
      <trkpt lat="50.682268682867289" lon="13.268804010003805">
        <ele>451</ele>
        <time>2026-08-29T09:37:21Z</time>
      </trkpt>
      <trkpt lat="50.682248901575804" lon="13.268754305317998">
        <ele>451</ele>
        <time>2026-08-29T09:37:22Z</time>
      </trkpt>
      <trkpt lat="50.682232137769461" lon="13.26870602555573">
        <ele>451</ele>
        <time>2026-08-29T09:37:23Z</time>
      </trkpt>
      <trkpt lat="50.682218223810196" lon="13.268667971715331">
        <ele>451</ele>
        <time>2026-08-29T09:37:24Z</time>
      </trkpt>
      <trkpt lat="50.682209422811866" lon="13.268637293949723">
        <ele>451</ele>
        <time>2026-08-29T09:37:25Z</time>
      </trkpt>
      <trkpt lat="50.682193161919713" lon="13.268615668639541">
        <ele>451</ele>
        <time>2026-08-29T09:37:26Z</time>
      </trkpt>
      <trkpt lat="50.682176817208529" lon="13.268582141026855">
        <ele>451</ele>
        <time>2026-08-29T09:37:27Z</time>
      </trkpt>
      <trkpt lat="50.682161059230566" lon="13.268547942861915">
        <ele>452</ele>
        <time>2026-08-29T09:37:28Z</time>
      </trkpt>
      <trkpt lat="50.68214463070035" lon="13.268523048609495">
        <ele>451</ele>
        <time>2026-08-29T09:37:29Z</time>
      </trkpt>
      <trkpt lat="50.682134488597512" lon="13.268508380278945">
        <ele>452</ele>
        <time>2026-08-29T09:37:30Z</time>
      </trkpt>
      <trkpt lat="50.682113030925393" lon="13.268492789939046">
        <ele>452</ele>
        <time>2026-08-29T09:37:31Z</time>
      </trkpt>
      <trkpt lat="50.68209920078516" lon="13.268463537096977">
        <ele>451</ele>
        <time>2026-08-29T09:37:32Z</time>
      </trkpt>
      <trkpt lat="50.682081347331405" lon="13.268435625359416">
        <ele>451</ele>
        <time>2026-08-29T09:37:33Z</time>
      </trkpt>
      <trkpt lat="50.682053938508034" lon="13.268408970907331">
        <ele>451</ele>
        <time>2026-08-29T09:37:34Z</time>
      </trkpt>
      <trkpt lat="50.682009514421225" lon="13.268386591225863">
        <ele>451</ele>
        <time>2026-08-29T09:37:35Z</time>
      </trkpt>
      <trkpt lat="50.681971292942762" lon="13.268365301191807">
        <ele>452</ele>
        <time>2026-08-29T09:37:36Z</time>
      </trkpt>
      <trkpt lat="50.681952768936753" lon="13.268331186845899">
        <ele>452</ele>
        <time>2026-08-29T09:37:37Z</time>
      </trkpt>
      <trkpt lat="50.681936927139759" lon="13.268306963145733">
        <ele>452</ele>
        <time>2026-08-29T09:37:38Z</time>
      </trkpt>
      <trkpt lat="50.681924941018224" lon="13.268290115520358">
        <ele>452</ele>
        <time>2026-08-29T09:37:39Z</time>
      </trkpt>
      <trkpt lat="50.681912619620562" lon="13.268263963982463">
        <ele>452</ele>
        <time>2026-08-29T09:37:40Z</time>
      </trkpt>
      <trkpt lat="50.681899292394519" lon="13.268237560987473">
        <ele>453</ele>
        <time>2026-08-29T09:37:41Z</time>
      </trkpt>
      <trkpt lat="50.681880936026573" lon="13.268211828544736">
        <ele>452</ele>
        <time>2026-08-29T09:37:42Z</time>
      </trkpt>
      <trkpt lat="50.681864591315389" lon="13.268190622329712">
        <ele>452</ele>
        <time>2026-08-29T09:37:43Z</time>
      </trkpt>
      <trkpt lat="50.681838439777493" lon="13.26816170476377">
        <ele>453</ele>
        <time>2026-08-29T09:37:44Z</time>
      </trkpt>
      <trkpt lat="50.681817568838596" lon="13.268133960664272">
        <ele>453</ele>
        <time>2026-08-29T09:37:45Z</time>
      </trkpt>
      <trkpt lat="50.681782867759466" lon="13.268107138574123">
        <ele>453</ele>
        <time>2026-08-29T09:37:46Z</time>
      </trkpt>
      <trkpt lat="50.681759146973491" lon="13.268072521314025">
        <ele>453</ele>
        <time>2026-08-29T09:37:47Z</time>
      </trkpt>
      <trkpt lat="50.681740874424577" lon="13.268035389482975">
        <ele>454</ele>
        <time>2026-08-29T09:37:48Z</time>
      </trkpt>
      <trkpt lat="50.681713381782174" lon="13.26800043694675">
        <ele>454</ele>
        <time>2026-08-29T09:37:49Z</time>
      </trkpt>
      <trkpt lat="50.681696785613894" lon="13.267962299287319">
        <ele>455</ele>
        <time>2026-08-29T09:37:50Z</time>
      </trkpt>
      <trkpt lat="50.681677088141441" lon="13.26792323961854">
        <ele>455</ele>
        <time>2026-08-29T09:37:51Z</time>
      </trkpt>
      <trkpt lat="50.681666862219572" lon="13.267884934321046">
        <ele>455</ele>
        <time>2026-08-29T09:37:52Z</time>
      </trkpt>
      <trkpt lat="50.681656720116735" lon="13.267848389223218">
        <ele>455</ele>
        <time>2026-08-29T09:37:53Z</time>
      </trkpt>
      <trkpt lat="50.681645572185516" lon="13.267805222421885">
        <ele>455</ele>
        <time>2026-08-29T09:37:54Z</time>
      </trkpt>
      <trkpt lat="50.681635849177837" lon="13.26776884496212">
        <ele>455</ele>
        <time>2026-08-29T09:37:55Z</time>
      </trkpt>
      <trkpt lat="50.681628221645951" lon="13.267736239358783">
        <ele>456</ele>
        <time>2026-08-29T09:37:56Z</time>
      </trkpt>
      <trkpt lat="50.681623192504048" lon="13.267681589350104">
        <ele>456</ele>
        <time>2026-08-29T09:37:57Z</time>
      </trkpt>
      <trkpt lat="50.68161690607667" lon="13.267639596015215">
        <ele>456</ele>
        <time>2026-08-29T09:37:58Z</time>
      </trkpt>
      <trkpt lat="50.681612296029925" lon="13.267590897157788">
        <ele>457</ele>
        <time>2026-08-29T09:37:59Z</time>
      </trkpt>
      <trkpt lat="50.681602489203215" lon="13.267547311261296">
        <ele>457</ele>
        <time>2026-08-29T09:38:00Z</time>
      </trkpt>
      <trkpt lat="50.68158958107233" lon="13.267517890781164">
        <ele>457</ele>
        <time>2026-08-29T09:38:01Z</time>
      </trkpt>
      <trkpt lat="50.681586312130094" lon="13.267494169995189">
        <ele>457</ele>
        <time>2026-08-29T09:38:02Z</time>
      </trkpt>
      <trkpt lat="50.68158564157784" lon="13.267478831112385">
        <ele>457</ele>
        <time>2026-08-29T09:38:03Z</time>
      </trkpt>
      <trkpt lat="50.681584971025586" lon="13.267452931031585">
        <ele>457</ele>
        <time>2026-08-29T09:38:04Z</time>
      </trkpt>
      <trkpt lat="50.681583462283015" lon="13.267435077577829">
        <ele>457</ele>
        <time>2026-08-29T09:38:05Z</time>
      </trkpt>
      <trkpt lat="50.681578516960144" lon="13.267402639612556">
        <ele>457</ele>
        <time>2026-08-29T09:38:06Z</time>
      </trkpt>
      <trkpt lat="50.681571643799543" lon="13.267367016524076">
        <ele>458</ele>
        <time>2026-08-29T09:38:07Z</time>
      </trkpt>
      <trkpt lat="50.681571057066321" lon="13.267349498346448">
        <ele>458</ele>
        <time>2026-08-29T09:38:08Z</time>
      </trkpt>
      <trkpt lat="50.681564016267657" lon="13.267330890521407">
        <ele>458</ele>
        <time>2026-08-29T09:38:09Z</time>
      </trkpt>
      <trkpt lat="50.681558232754469" lon="13.267313204705715">
        <ele>458</ele>
        <time>2026-08-29T09:38:10Z</time>
      </trkpt>
      <trkpt lat="50.681555634364486" lon="13.267286885529757">
        <ele>459</ele>
        <time>2026-08-29T09:38:11Z</time>
      </trkpt>
      <trkpt lat="50.681558232754469" lon="13.267252016812563">
        <ele>458</ele>
        <time>2026-08-29T09:38:12Z</time>
      </trkpt>
      <trkpt lat="50.681561585515738" lon="13.267217315733433">
        <ele>459</ele>
        <time>2026-08-29T09:38:13Z</time>
      </trkpt>
      <trkpt lat="50.681568877771497" lon="13.26718982309103">
        <ele>459</ele>
        <time>2026-08-29T09:38:14Z</time>
      </trkpt>
      <trkpt lat="50.681578768417239" lon="13.267165347933769">
        <ele>460</ele>
        <time>2026-08-29T09:38:15Z</time>
      </trkpt>
      <trkpt lat="50.681592095643282" lon="13.267135173082352">
        <ele>460</ele>
        <time>2026-08-29T09:38:16Z</time>
      </trkpt>
      <trkpt lat="50.681585054844618" lon="13.267109356820583">
        <ele>460</ele>
        <time>2026-08-29T09:38:17Z</time>
      </trkpt>
      <trkpt lat="50.681579690426588" lon="13.267078092321754">
        <ele>460</ele>
        <time>2026-08-29T09:38:18Z</time>
      </trkpt>
      <trkpt lat="50.681578600779176" lon="13.267050012946129">
        <ele>460</ele>
        <time>2026-08-29T09:38:19Z</time>
      </trkpt>
      <trkpt lat="50.681568793952465" lon="13.267024112865329">
        <ele>460</ele>
        <time>2026-08-29T09:38:20Z</time>
      </trkpt>
      <trkpt lat="50.681561417877674" lon="13.266991507261992">
        <ele>461</ele>
        <time>2026-08-29T09:38:21Z</time>
      </trkpt>
      <trkpt lat="50.681558232754469" lon="13.266964266076684">
        <ele>460</ele>
        <time>2026-08-29T09:38:22Z</time>
      </trkpt>
      <trkpt lat="50.681552365422249" lon="13.266936521977186">
        <ele>461</ele>
        <time>2026-08-29T09:38:23Z</time>
      </trkpt>
      <trkpt lat="50.681547587737441" lon="13.266911376267672">
        <ele>461</ele>
        <time>2026-08-29T09:38:24Z</time>
      </trkpt>
      <trkpt lat="50.681544151157141" lon="13.266887236386538">
        <ele>461</ele>
        <time>2026-08-29T09:38:25Z</time>
      </trkpt>
      <trkpt lat="50.681542810052633" lon="13.266869802027941">
        <ele>461</ele>
        <time>2026-08-29T09:38:26Z</time>
      </trkpt>
      <trkpt lat="50.681534428149462" lon="13.266844321042299">
        <ele>461</ele>
        <time>2026-08-29T09:38:27Z</time>
      </trkpt>
      <trkpt lat="50.681529399007559" lon="13.266821103170514">
        <ele>461</ele>
        <time>2026-08-29T09:38:28Z</time>
      </trkpt>
      <trkpt lat="50.68152847699821" lon="13.266797717660666">
        <ele>461</ele>
        <time>2026-08-29T09:38:29Z</time>
      </trkpt>
      <trkpt lat="50.681529901921749" lon="13.266775757074356">
        <ele>461</ele>
        <time>2026-08-29T09:38:30Z</time>
      </trkpt>
      <trkpt lat="50.681524872779846" lon="13.266756646335125">
        <ele>461</ele>
        <time>2026-08-29T09:38:31Z</time>
      </trkpt>
      <trkpt lat="50.681521603837609" lon="13.266742061823606">
        <ele>460</ele>
        <time>2026-08-29T09:38:32Z</time>
      </trkpt>
      <trkpt lat="50.681517999619246" lon="13.266729488968849">
        <ele>461</ele>
        <time>2026-08-29T09:38:33Z</time>
      </trkpt>
      <trkpt lat="50.681520514190197" lon="13.266705852001905">
        <ele>461</ele>
        <time>2026-08-29T09:38:34Z</time>
      </trkpt>
      <trkpt lat="50.681521771475673" lon="13.266682047396898">
        <ele>461</ele>
        <time>2026-08-29T09:38:35Z</time>
      </trkpt>
      <trkpt lat="50.681522442027926" lon="13.266657739877701">
        <ele>461</ele>
        <time>2026-08-29T09:38:36Z</time>
      </trkpt>
      <trkpt lat="50.681525375694036" lon="13.266637958586216">
        <ele>461</ele>
        <time>2026-08-29T09:38:37Z</time>
      </trkpt>
      <trkpt lat="50.681528560817242" lon="13.266614740714431">
        <ele>462</ele>
        <time>2026-08-29T09:38:38Z</time>
      </trkpt>
      <trkpt lat="50.68152504041791" lon="13.266603844240308">
        <ele>462</ele>
        <time>2026-08-29T09:38:39Z</time>
      </trkpt>
      <trkpt lat="50.681530069559813" lon="13.266585571691394">
        <ele>462</ele>
        <time>2026-08-29T09:38:40Z</time>
      </trkpt>
      <trkpt lat="50.681530488654971" lon="13.266562940552831">
        <ele>463</ele>
        <time>2026-08-29T09:38:41Z</time>
      </trkpt>
      <trkpt lat="50.681532081216574" lon="13.266538800671697">
        <ele>463</ele>
        <time>2026-08-29T09:38:42Z</time>
      </trkpt>
      <trkpt lat="50.681527303531766" lon="13.266509380191565">
        <ele>463</ele>
        <time>2026-08-29T09:38:43Z</time>
      </trkpt>
      <trkpt lat="50.681533170863986" lon="13.266487251967192">
        <ele>464</ele>
        <time>2026-08-29T09:38:44Z</time>
      </trkpt>
      <trkpt lat="50.681533170863986" lon="13.266465542837977">
        <ele>464</ele>
        <time>2026-08-29T09:38:45Z</time>
      </trkpt>
      <trkpt lat="50.68153384141624" lon="13.266448862850666">
        <ele>465</ele>
        <time>2026-08-29T09:38:46Z</time>
      </trkpt>
      <trkpt lat="50.681534679606557" lon="13.266424806788564">
        <ele>465</ele>
        <time>2026-08-29T09:38:47Z</time>
      </trkpt>
      <trkpt lat="50.681534679606557" lon="13.266400834545493">
        <ele>465</ele>
        <time>2026-08-29T09:38:48Z</time>
      </trkpt>
      <trkpt lat="50.681532919406891" lon="13.266381891444325">
        <ele>465</ele>
        <time>2026-08-29T09:38:49Z</time>
      </trkpt>
      <trkpt lat="50.681534092873335" lon="13.266366049647331">
        <ele>465</ele>
        <time>2026-08-29T09:38:50Z</time>
      </trkpt>
      <trkpt lat="50.681534009054303" lon="13.26635817065835">
        <ele>464</ele>
        <time>2026-08-29T09:38:51Z</time>
      </trkpt>
      <trkpt lat="50.681531997397542" lon="13.26635330915451">
        <ele>464</ele>
        <time>2026-08-29T09:38:52Z</time>
      </trkpt>
      <trkpt lat="50.681533673778176" lon="13.266339311376214">
        <ele>465</ele>
        <time>2026-08-29T09:38:53Z</time>
      </trkpt>
      <trkpt lat="50.681536020711064" lon="13.266309220343828">
        <ele>465</ele>
        <time>2026-08-29T09:38:54Z</time>
      </trkpt>
      <trkpt lat="50.681547923013568" lon="13.266272842884064">
        <ele>465</ele>
        <time>2026-08-29T09:38:55Z</time>
      </trkpt>
      <trkpt lat="50.681551108136773" lon="13.266230765730143">
        <ele>465</ele>
        <time>2026-08-29T09:38:56Z</time>
      </trkpt>
      <trkpt lat="50.681553538888693" lon="13.266199501231313">
        <ele>466</ele>
        <time>2026-08-29T09:38:57Z</time>
      </trkpt>
      <trkpt lat="50.681557478383183" lon="13.266167733818293">
        <ele>466</ele>
        <time>2026-08-29T09:38:58Z</time>
      </trkpt>
      <trkpt lat="50.681555718183517" lon="13.266146359965205">
        <ele>466</ele>
        <time>2026-08-29T09:38:59Z</time>
      </trkpt>
      <trkpt lat="50.6815548799932" lon="13.266119873151183">
        <ele>466</ele>
        <time>2026-08-29T09:39:00Z</time>
      </trkpt>
      <trkpt lat="50.681552365422249" lon="13.266098583117127">
        <ele>466</ele>
        <time>2026-08-29T09:39:01Z</time>
      </trkpt>
      <trkpt lat="50.681546498090029" lon="13.266079053282738">
        <ele>466</ele>
        <time>2026-08-29T09:39:02Z</time>
      </trkpt>
      <trkpt lat="50.681547671556473" lon="13.266059188172221">
        <ele>467</ele>
        <time>2026-08-29T09:39:03Z</time>
      </trkpt>
      <trkpt lat="50.681542390957475" lon="13.26603421010077">
        <ele>467</ele>
        <time>2026-08-29T09:39:04Z</time>
      </trkpt>
      <trkpt lat="50.681533422321081" lon="13.266005460172892">
        <ele>467</ele>
        <time>2026-08-29T09:39:05Z</time>
      </trkpt>
      <trkpt lat="50.681535350158811" lon="13.265969417989254">
        <ele>467</ele>
        <time>2026-08-29T09:39:06Z</time>
      </trkpt>
      <trkpt lat="50.681539960205555" lon="13.265941590070724">
        <ele>467</ele>
        <time>2026-08-29T09:39:07Z</time>
      </trkpt>
      <trkpt lat="50.681538200005889" lon="13.265921892598271">
        <ele>467</ele>
        <time>2026-08-29T09:39:08Z</time>
      </trkpt>
      <trkpt lat="50.681539122015238" lon="13.265894064679742">
        <ele>467</ele>
        <time>2026-08-29T09:39:09Z</time>
      </trkpt>
      <trkpt lat="50.681539541110396" lon="13.265866404399276">
        <ele>468</ele>
        <time>2026-08-29T09:39:10Z</time>
      </trkpt>
      <trkpt lat="50.681537948548794" lon="13.265837486833334">
        <ele>468</ele>
        <time>2026-08-29T09:39:11Z</time>
      </trkpt>
      <trkpt lat="50.681541552767158" lon="13.265801360830665">
        <ele>468</ele>
        <time>2026-08-29T09:39:12Z</time>
      </trkpt>
      <trkpt lat="50.681544570252299" lon="13.265774957835674">
        <ele>468</ele>
        <time>2026-08-29T09:39:13Z</time>
      </trkpt>
      <trkpt lat="50.681548761203885" lon="13.265747297555208">
        <ele>469</ele>
        <time>2026-08-29T09:39:14Z</time>
      </trkpt>
      <trkpt lat="50.681554209440947" lon="13.265717877075076">
        <ele>469</ele>
        <time>2026-08-29T09:39:15Z</time>
      </trkpt>
      <trkpt lat="50.681563848629594" lon="13.265686361119151">
        <ele>469</ele>
        <time>2026-08-29T09:39:16Z</time>
      </trkpt>
      <trkpt lat="50.68157684057951" lon="13.265652833506465">
        <ele>470</ele>
        <time>2026-08-29T09:39:17Z</time>
      </trkpt>
      <trkpt lat="50.681578516960144" lon="13.265629280358553">
        <ele>471</ele>
        <time>2026-08-29T09:39:18Z</time>
      </trkpt>
      <trkpt lat="50.681583629921079" lon="13.265603128820658">
        <ele>471</ele>
        <time>2026-08-29T09:39:19Z</time>
      </trkpt>
      <trkpt lat="50.681584468111396" lon="13.265577312558889">
        <ele>471</ele>
        <time>2026-08-29T09:39:20Z</time>
      </trkpt>
      <trkpt lat="50.68159444257617" lon="13.265547472983599">
        <ele>471</ele>
        <time>2026-08-29T09:39:21Z</time>
      </trkpt>
      <trkpt lat="50.681601231917739" lon="13.26551771722734">
        <ele>471</ele>
        <time>2026-08-29T09:39:22Z</time>
      </trkpt>
      <trkpt lat="50.681607266888022" lon="13.265487374737859">
        <ele>471</ele>
        <time>2026-08-29T09:39:23Z</time>
      </trkpt>
      <trkpt lat="50.681619001552463" lon="13.265465414151549">
        <ele>471</ele>
        <time>2026-08-29T09:39:24Z</time>
      </trkpt>
      <trkpt lat="50.681625874713063" lon="13.26544881798327">
        <ele>471</ele>
        <time>2026-08-29T09:39:25Z</time>
      </trkpt>
      <trkpt lat="50.681638950482011" lon="13.265428198501468">
        <ele>471</ele>
        <time>2026-08-29T09:39:26Z</time>
      </trkpt>
      <trkpt lat="50.681650601327419" lon="13.265400370582938">
        <ele>470</ele>
        <time>2026-08-29T09:39:27Z</time>
      </trkpt>
      <trkpt lat="50.681652361527085" lon="13.265375476330519">
        <ele>470</ele>
        <time>2026-08-29T09:39:28Z</time>
      </trkpt>
      <trkpt lat="50.681652026250958" lon="13.265346642583609">
        <ele>470</ele>
        <time>2026-08-29T09:39:29Z</time>
      </trkpt>
      <trkpt lat="50.68165990523994" lon="13.265319569036365">
        <ele>469</ele>
        <time>2026-08-29T09:39:30Z</time>
      </trkpt>
      <trkpt lat="50.68166971206665" lon="13.265313617885113">
        <ele>470</ele>
        <time>2026-08-29T09:39:31Z</time>
      </trkpt>
      <trkpt lat="50.681677171960473" lon="13.26529978774488">
        <ele>470</ele>
        <time>2026-08-29T09:39:32Z</time>
      </trkpt>
      <trkpt lat="50.68169116973877" lon="13.265279838815331">
        <ele>470</ele>
        <time>2026-08-29T09:39:33Z</time>
      </trkpt>
      <trkpt lat="50.681705586612225" lon="13.265265421941876">
        <ele>470</ele>
        <time>2026-08-29T09:39:34Z</time>
      </trkpt>
      <trkpt lat="50.681715896353126" lon="13.265254106372595">
        <ele>471</ele>
        <time>2026-08-29T09:39:35Z</time>
      </trkpt>
      <trkpt lat="50.681722769513726" lon="13.265232983976603">
        <ele>471</ele>
        <time>2026-08-29T09:39:36Z</time>
      </trkpt>
      <trkpt lat="50.681732408702374" lon="13.265206664800644">
        <ele>470</ele>
        <time>2026-08-29T09:39:37Z</time>
      </trkpt>
      <trkpt lat="50.681745652109385" lon="13.265181602910161">
        <ele>471</ele>
        <time>2026-08-29T09:39:38Z</time>
      </trkpt>
      <trkpt lat="50.681757470592856" lon="13.265152936801314">
        <ele>470</ele>
        <time>2026-08-29T09:39:39Z</time>
      </trkpt>
      <trkpt lat="50.681762667372823" lon="13.2651277910918">
        <ele>470</ele>
        <time>2026-08-29T09:39:40Z</time>
      </trkpt>
      <trkpt lat="50.681774485856295" lon="13.265095604583621">
        <ele>470</ele>
        <time>2026-08-29T09:39:41Z</time>
      </trkpt>
      <trkpt lat="50.681793261319399" lon="13.265060484409332">
        <ele>470</ele>
        <time>2026-08-29T09:39:42Z</time>
      </trkpt>
      <trkpt lat="50.68180943839252" lon="13.265028046444058">
        <ele>471</ele>
        <time>2026-08-29T09:39:43Z</time>
      </trkpt>
      <trkpt lat="50.681816898286343" lon="13.265002649277449">
        <ele>471</ele>
        <time>2026-08-29T09:39:44Z</time>
      </trkpt>
      <trkpt lat="50.681825280189514" lon="13.264987310394645">
        <ele>471</ele>
        <time>2026-08-29T09:39:45Z</time>
      </trkpt>
      <trkpt lat="50.681832320988178" lon="13.264971636235714">
        <ele>471</ele>
        <time>2026-08-29T09:39:46Z</time>
      </trkpt>
      <trkpt lat="50.681838439777493" lon="13.264950849115849">
        <ele>471</ele>
        <time>2026-08-29T09:39:47Z</time>
      </trkpt>
      <trkpt lat="50.68184950388968" lon="13.264932241290808">
        <ele>471</ele>
        <time>2026-08-29T09:39:48Z</time>
      </trkpt>
      <trkpt lat="50.681857299059629" lon="13.264915309846401">
        <ele>470</ele>
        <time>2026-08-29T09:39:49Z</time>
      </trkpt>
      <trkpt lat="50.681865932419896" lon="13.264888655394316">
        <ele>470</ele>
        <time>2026-08-29T09:39:50Z</time>
      </trkpt>
      <trkpt lat="50.681868111714721" lon="13.264870634302497">
        <ele>470</ele>
        <time>2026-08-29T09:39:51Z</time>
      </trkpt>
      <trkpt lat="50.68188076838851" lon="13.264855965971947">
        <ele>470</ele>
        <time>2026-08-29T09:39:52Z</time>
      </trkpt>
      <trkpt lat="50.681895101442933" lon="13.264835849404335">
        <ele>469</ele>
        <time>2026-08-29T09:39:53Z</time>
      </trkpt>
      <trkpt lat="50.681899376213551" lon="13.264817325398326">
        <ele>469</ele>
        <time>2026-08-29T09:39:54Z</time>
      </trkpt>
      <trkpt lat="50.681910691782832" lon="13.264803662896156">
        <ele>469</ele>
        <time>2026-08-29T09:39:55Z</time>
      </trkpt>
      <trkpt lat="50.681925611570477" lon="13.264781031757593">
        <ele>468</ele>
        <time>2026-08-29T09:39:56Z</time>
      </trkpt>
      <trkpt lat="50.681935669854283" lon="13.264756305143237">
        <ele>468</ele>
        <time>2026-08-29T09:39:57Z</time>
      </trkpt>
      <trkpt lat="50.681946817785501" lon="13.26473593711853">
        <ele>468</ele>
        <time>2026-08-29T09:39:58Z</time>
      </trkpt>
      <trkpt lat="50.681959977373481" lon="13.264713557437062">
        <ele>468</ele>
        <time>2026-08-29T09:39:59Z</time>
      </trkpt>
      <trkpt lat="50.681968107819557" lon="13.264688579365611">
        <ele>468</ele>
        <time>2026-08-29T09:40:00Z</time>
      </trkpt>
      <trkpt lat="50.681971879675984" lon="13.264674497768283">
        <ele>469</ele>
        <time>2026-08-29T09:40:01Z</time>
      </trkpt>
      <trkpt lat="50.681983949616551" lon="13.264657650142908">
        <ele>469</ele>
        <time>2026-08-29T09:40:02Z</time>
      </trkpt>
      <trkpt lat="50.68199803121388" lon="13.264639964327216">
        <ele>469</ele>
        <time>2026-08-29T09:40:03Z</time>
      </trkpt>
      <trkpt lat="50.682004485279322" lon="13.264625547453761">
        <ele>468</ele>
        <time>2026-08-29T09:40:04Z</time>
      </trkpt>
      <trkpt lat="50.682013956829906" lon="13.264607777819037">
        <ele>468</ele>
        <time>2026-08-29T09:40:05Z</time>
      </trkpt>
      <trkpt lat="50.682030050083995" lon="13.264597384259105">
        <ele>468</ele>
        <time>2026-08-29T09:40:06Z</time>
      </trkpt>
      <trkpt lat="50.682045305147767" lon="13.264587409794331">
        <ele>468</ele>
        <time>2026-08-29T09:40:07Z</time>
      </trkpt>
      <trkpt lat="50.682057375088334" lon="13.264565281569958">
        <ele>468</ele>
        <time>2026-08-29T09:40:08Z</time>
      </trkpt>
      <trkpt lat="50.682069109752774" lon="13.264547847211361">
        <ele>468</ele>
        <time>2026-08-29T09:40:09Z</time>
      </trkpt>
      <trkpt lat="50.682085622102022" lon="13.264519600197673">
        <ele>467</ele>
        <time>2026-08-29T09:40:10Z</time>
      </trkpt>
      <trkpt lat="50.682104900479317" lon="13.264493113383651">
        <ele>467</ele>
        <time>2026-08-29T09:40:11Z</time>
      </trkpt>
      <trkpt lat="50.682114707306027" lon="13.264468973502517">
        <ele>467</ele>
        <time>2026-08-29T09:40:12Z</time>
      </trkpt>
      <trkpt lat="50.682122921571136" lon="13.264452461153269">
        <ele>466</ele>
        <time>2026-08-29T09:40:13Z</time>
      </trkpt>
      <trkpt lat="50.682138008996844" lon="13.264432931318879">
        <ele>466</ele>
        <time>2026-08-29T09:40:14Z</time>
      </trkpt>
      <trkpt lat="50.682153180241585" lon="13.264407115057111">
        <ele>466</ele>
        <time>2026-08-29T09:40:15Z</time>
      </trkpt>
      <trkpt lat="50.682161226868629" lon="13.264386160299182">
        <ele>466</ele>
        <time>2026-08-29T09:40:16Z</time>
      </trkpt>
      <trkpt lat="50.682170782238245" lon="13.264361517503858">
        <ele>466</ele>
        <time>2026-08-29T09:40:17Z</time>
      </trkpt>
      <trkpt lat="50.682181343436241" lon="13.2643455080688">
        <ele>466</ele>
        <time>2026-08-29T09:40:18Z</time>
      </trkpt>
      <trkpt lat="50.682194838300347" lon="13.264321871101856">
        <ele>466</ele>
        <time>2026-08-29T09:40:19Z</time>
      </trkpt>
      <trkpt lat="50.682200118899345" lon="13.264300581067801">
        <ele>466</ele>
        <time>2026-08-29T09:40:20Z</time>
      </trkpt>
      <trkpt lat="50.682216044515371" lon="13.264277866110206">
        <ele>466</ele>
        <time>2026-08-29T09:40:21Z</time>
      </trkpt>
      <trkpt lat="50.682221576571465" lon="13.264262527227402">
        <ele>466</ele>
        <time>2026-08-29T09:40:22Z</time>
      </trkpt>
      <trkpt lat="50.682229287922382" lon="13.264243751764297">
        <ele>465</ele>
        <time>2026-08-29T09:40:23Z</time>
      </trkpt>
      <trkpt lat="50.682240687310696" lon="13.264212822541595">
        <ele>466</ele>
        <time>2026-08-29T09:40:24Z</time>
      </trkpt>
      <trkpt lat="50.682255858555436" lon="13.264186754822731">
        <ele>466</ele>
        <time>2026-08-29T09:40:25Z</time>
      </trkpt>
      <trkpt lat="50.682271867990494" lon="13.264172254130244">
        <ele>466</ele>
        <time>2026-08-29T09:40:26Z</time>
      </trkpt>
      <trkpt lat="50.682279914617538" lon="13.264156999066472">
        <ele>466</ele>
        <time>2026-08-29T09:40:27Z</time>
      </trkpt>
      <trkpt lat="50.682290643453598" lon="13.264136044308543">
        <ele>466</ele>
        <time>2026-08-29T09:40:28Z</time>
      </trkpt>
      <trkpt lat="50.682304641231894" lon="13.264123806729913">
        <ele>466</ele>
        <time>2026-08-29T09:40:29Z</time>
      </trkpt>
      <trkpt lat="50.682321069762111" lon="13.264097236096859">
        <ele>466</ele>
        <time>2026-08-29T09:40:30Z</time>
      </trkpt>
      <trkpt lat="50.682337498292327" lon="13.264070246368647">
        <ele>466</ele>
        <time>2026-08-29T09:40:31Z</time>
      </trkpt>
      <trkpt lat="50.682350238785148" lon="13.264035629108548">
        <ele>466</ele>
        <time>2026-08-29T09:40:32Z</time>
      </trkpt>
      <trkpt lat="50.682362811639905" lon="13.264005538076162">
        <ele>466</ele>
        <time>2026-08-29T09:40:33Z</time>
      </trkpt>
      <trkpt lat="50.682381503283978" lon="13.263980727642775">
        <ele>466</ele>
        <time>2026-08-29T09:40:34Z</time>
      </trkpt>
      <trkpt lat="50.682395836338401" lon="13.263962455093861">
        <ele>466</ele>
        <time>2026-08-29T09:40:35Z</time>
      </trkpt>
      <trkpt lat="50.682408409193158" lon="13.263943931087852">
        <ele>466</ele>
        <time>2026-08-29T09:40:36Z</time>
      </trkpt>
      <trkpt lat="50.68242902867496" lon="13.263921970501542">
        <ele>466</ele>
        <time>2026-08-29T09:40:37Z</time>
      </trkpt>
      <trkpt lat="50.682445289567113" lon="13.263909397646785">
        <ele>466</ele>
        <time>2026-08-29T09:40:38Z</time>
      </trkpt>
      <trkpt lat="50.682462388649583" lon="13.263885341584682">
        <ele>466</ele>
        <time>2026-08-29T09:40:39Z</time>
      </trkpt>
      <trkpt lat="50.68247445859015" lon="13.263874109834433">
        <ele>466</ele>
        <time>2026-08-29T09:40:40Z</time>
      </trkpt>
      <trkpt lat="50.682481499388814" lon="13.2638637162745">
        <ele>466</ele>
        <time>2026-08-29T09:40:41Z</time>
      </trkpt>
      <trkpt lat="50.682485522702336" lon="13.263856507837772">
        <ele>466</ele>
        <time>2026-08-29T09:40:42Z</time>
      </trkpt>
      <trkpt lat="50.682495329529047" lon="13.263838402926922">
        <ele>466</ele>
        <time>2026-08-29T09:40:43Z</time>
      </trkpt>
      <trkpt lat="50.682510249316692" lon="13.263813843950629">
        <ele>465</ele>
        <time>2026-08-29T09:40:44Z</time>
      </trkpt>
      <trkpt lat="50.682524079456925" lon="13.263790123164654">
        <ele>466</ele>
        <time>2026-08-29T09:40:45Z</time>
      </trkpt>
      <trkpt lat="50.682538831606507" lon="13.263777550309896">
        <ele>466</ele>
        <time>2026-08-29T09:40:46Z</time>
      </trkpt>
      <trkpt lat="50.682554170489311" lon="13.263755086809397">
        <ele>465</ele>
        <time>2026-08-29T09:40:47Z</time>
      </trkpt>
      <trkpt lat="50.68257219158113" lon="13.26372834853828">
        <ele>465</ele>
        <time>2026-08-29T09:40:48Z</time>
      </trkpt>
      <trkpt lat="50.682591302320361" lon="13.26370638795197">
        <ele>465</ele>
        <time>2026-08-29T09:40:49Z</time>
      </trkpt>
      <trkpt lat="50.682618040591478" lon="13.263677386566997">
        <ele>464</ele>
        <time>2026-08-29T09:40:50Z</time>
      </trkpt>
      <trkpt lat="50.682636648416519" lon="13.26364872045815">
        <ele>464</ele>
        <time>2026-08-29T09:40:51Z</time>
      </trkpt>
      <trkpt lat="50.682652909308672" lon="13.263611420989037">
        <ele>464</ele>
        <time>2026-08-29T09:40:52Z</time>
      </trkpt>
      <trkpt lat="50.682669170200825" lon="13.263570768758655">
        <ele>464</ele>
        <time>2026-08-29T09:40:53Z</time>
      </trkpt>
      <trkpt lat="50.682701775804162" lon="13.263520896434784">
        <ele>464</ele>
        <time>2026-08-29T09:40:54Z</time>
      </trkpt>
      <trkpt lat="50.682729352265596" lon="13.263492817059159">
        <ele>463</ele>
        <time>2026-08-29T09:40:55Z</time>
      </trkpt>
      <trkpt lat="50.682752570137382" lon="13.263468174263835">
        <ele>463</ele>
        <time>2026-08-29T09:40:56Z</time>
      </trkpt>
      <trkpt lat="50.682773860171437" lon="13.263444788753986">
        <ele>464</ele>
        <time>2026-08-29T09:40:57Z</time>
      </trkpt>
      <trkpt lat="50.682785008102655" lon="13.263415955007076">
        <ele>463</ele>
        <time>2026-08-29T09:40:58Z</time>
      </trkpt>
      <trkpt lat="50.682798335328698" lon="13.263391144573689">
        <ele>463</ele>
        <time>2026-08-29T09:40:59Z</time>
      </trkpt>
      <trkpt lat="50.682814680039883" lon="13.263378236442804">
        <ele>462</ele>
        <time>2026-08-29T09:41:00Z</time>
      </trkpt>
      <trkpt lat="50.682835970073938" lon="13.263348396867514">
        <ele>462</ele>
        <time>2026-08-29T09:41:01Z</time>
      </trkpt>
      <trkpt lat="50.682849548757076" lon="13.263326101005077">
        <ele>463</ele>
        <time>2026-08-29T09:41:02Z</time>
      </trkpt>
      <trkpt lat="50.682858685031533" lon="13.263307744637132">
        <ele>463</ele>
        <time>2026-08-29T09:41:03Z</time>
      </trkpt>
      <trkpt lat="50.682873940095305" lon="13.263288466259837">
        <ele>463</ele>
        <time>2026-08-29T09:41:04Z</time>
      </trkpt>
      <trkpt lat="50.682887518778443" lon="13.263269355520606">
        <ele>463</ele>
        <time>2026-08-29T09:41:05Z</time>
      </trkpt>
      <trkpt lat="50.682907216250896" lon="13.263247981667519">
        <ele>463</ele>
        <time>2026-08-29T09:41:06Z</time>
      </trkpt>
      <trkpt lat="50.682918028905988" lon="13.263239348307252">
        <ele>462</ele>
        <time>2026-08-29T09:41:07Z</time>
      </trkpt>
      <trkpt lat="50.682929344475269" lon="13.263224847614765">
        <ele>463</ele>
        <time>2026-08-29T09:41:08Z</time>
      </trkpt>
      <trkpt lat="50.682940157130361" lon="13.263199953362346">
        <ele>463</ele>
        <time>2026-08-29T09:41:09Z</time>
      </trkpt>
      <trkpt lat="50.682953149080276" lon="13.263182351365685">
        <ele>462</ele>
        <time>2026-08-29T09:41:10Z</time>
      </trkpt>
      <trkpt lat="50.682973181828856" lon="13.263168856501579">
        <ele>462</ele>
        <time>2026-08-29T09:41:11Z</time>
      </trkpt>
      <trkpt lat="50.682995477691293" lon="13.263149410486221">
        <ele>462</ele>
        <time>2026-08-29T09:41:12Z</time>
      </trkpt>
      <trkpt lat="50.683015258982778" lon="13.263127282261848">
        <ele>461</ele>
        <time>2026-08-29T09:41:13Z</time>
      </trkpt>
      <trkpt lat="50.683034118264914" lon="13.263111691921949">
        <ele>461</ele>
        <time>2026-08-29T09:41:14Z</time>
      </trkpt>
      <trkpt lat="50.683048451319337" lon="13.263085037469864">
        <ele>461</ele>
        <time>2026-08-29T09:41:15Z</time>
      </trkpt>
      <trkpt lat="50.683067897334695" lon="13.263068776577711">
        <ele>461</ele>
        <time>2026-08-29T09:41:16Z</time>
      </trkpt>
      <trkpt lat="50.683081727474928" lon="13.263051174581051">
        <ele>461</ele>
        <time>2026-08-29T09:41:17Z</time>
      </trkpt>
      <trkpt lat="50.683097569271922" lon="13.263041451573372">
        <ele>461</ele>
        <time>2026-08-29T09:41:18Z</time>
      </trkpt>
      <trkpt lat="50.683113159611821" lon="13.263027872890234">
        <ele>461</ele>
        <time>2026-08-29T09:41:19Z</time>
      </trkpt>
      <trkpt lat="50.68312874995172" lon="13.263019407168031">
        <ele>461</ele>
        <time>2026-08-29T09:41:20Z</time>
      </trkpt>
      <trkpt lat="50.683142663910985" lon="13.263003649190068">
        <ele>461</ele>
        <time>2026-08-29T09:41:21Z</time>
      </trkpt>
      <trkpt lat="50.683157751336694" lon="13.262988226488233">
        <ele>461</ele>
        <time>2026-08-29T09:41:22Z</time>
      </trkpt>
      <trkpt lat="50.683173928409815" lon="13.262974144890904">
        <ele>461</ele>
        <time>2026-08-29T09:41:23Z</time>
      </trkpt>
      <trkpt lat="50.683184573426843" lon="13.262966265901923">
        <ele>461</ele>
        <time>2026-08-29T09:41:24Z</time>
      </trkpt>
      <trkpt lat="50.683194547891617" lon="13.262953525409102">
        <ele>461</ele>
        <time>2026-08-29T09:41:25Z</time>
      </trkpt>
      <trkpt lat="50.68320645019412" lon="13.262940952554345">
        <ele>461</ele>
        <time>2026-08-29T09:41:26Z</time>
      </trkpt>
      <trkpt lat="50.683222711086273" lon="13.26292653568089">
        <ele>461</ele>
        <time>2026-08-29T09:41:27Z</time>
      </trkpt>
      <trkpt lat="50.683231595903635" lon="13.262909017503262">
        <ele>461</ele>
        <time>2026-08-29T09:41:28Z</time>
      </trkpt>
      <trkpt lat="50.683245761319995" lon="13.262884123250842">
        <ele>460</ele>
        <time>2026-08-29T09:41:29Z</time>
      </trkpt>
      <trkpt lat="50.683259340003133" lon="13.26286249794066">
        <ele>460</ele>
        <time>2026-08-29T09:41:30Z</time>
      </trkpt>
      <trkpt lat="50.68327970802784" lon="13.262852020561695">
        <ele>460</ele>
        <time>2026-08-29T09:41:31Z</time>
      </trkpt>
      <trkpt lat="50.683298148214817" lon="13.262832406908274">
        <ele>460</ele>
        <time>2026-08-29T09:41:32Z</time>
      </trkpt>
      <trkpt lat="50.68331834860146" lon="13.262817151844501">
        <ele>460</ele>
        <time>2026-08-29T09:41:33Z</time>
      </trkpt>
      <trkpt lat="50.68333393894136" lon="13.26280239969492">
        <ele>460</ele>
        <time>2026-08-29T09:41:34Z</time>
      </trkpt>
      <trkpt lat="50.6833491101861" lon="13.262788066640496">
        <ele>460</ele>
        <time>2026-08-29T09:41:35Z</time>
      </trkpt>
      <trkpt lat="50.683362102136016" lon="13.26277649961412">
        <ele>460</ele>
        <time>2026-08-29T09:41:36Z</time>
      </trkpt>
      <trkpt lat="50.683376267552376" lon="13.262764848768711">
        <ele>460</ele>
        <time>2026-08-29T09:41:37Z</time>
      </trkpt>
      <trkpt lat="50.683384984731674" lon="13.262747582048178">
        <ele>460</ele>
        <time>2026-08-29T09:41:38Z</time>
      </trkpt>
      <trkpt lat="50.683395462110639" lon="13.262725118547678">
        <ele>460</ele>
        <time>2026-08-29T09:41:39Z</time>
      </trkpt>
      <trkpt lat="50.683403173461556" lon="13.262708354741335">
        <ele>460</ele>
        <time>2026-08-29T09:41:40Z</time>
      </trkpt>
      <trkpt lat="50.683415997773409" lon="13.26269201003015">
        <ele>460</ele>
        <time>2026-08-29T09:41:41Z</time>
      </trkpt>
      <trkpt lat="50.683424044400454" lon="13.262678850442171">
        <ele>460</ele>
        <time>2026-08-29T09:41:42Z</time>
      </trkpt>
      <trkpt lat="50.683441311120987" lon="13.262656219303608">
        <ele>460</ele>
        <time>2026-08-29T09:41:43Z</time>
      </trkpt>
      <trkpt lat="50.683460170403123" lon="13.262635683640838">
        <ele>460</ele>
        <time>2026-08-29T09:41:44Z</time>
      </trkpt>
      <trkpt lat="50.683477772399783" lon="13.26262017711997">
        <ele>461</ele>
        <time>2026-08-29T09:41:45Z</time>
      </trkpt>
      <trkpt lat="50.68349327892065" lon="13.262599306181073">
        <ele>460</ele>
        <time>2026-08-29T09:41:46Z</time>
      </trkpt>
      <trkpt lat="50.683511970564723" lon="13.262580782175064">
        <ele>461</ele>
        <time>2026-08-29T09:41:47Z</time>
      </trkpt>
      <trkpt lat="50.683527141809464" lon="13.262568041682243">
        <ele>461</ele>
        <time>2026-08-29T09:41:48Z</time>
      </trkpt>
      <trkpt lat="50.683543989434838" lon="13.262557815760374">
        <ele>461</ele>
        <time>2026-08-29T09:41:49Z</time>
      </trkpt>
      <trkpt lat="50.683560501784086" lon="13.262540549039841">
        <ele>461</ele>
        <time>2026-08-29T09:41:50Z</time>
      </trkpt>
      <trkpt lat="50.683575589209795" lon="13.26251900754869">
        <ele>461</ele>
        <time>2026-08-29T09:41:51Z</time>
      </trkpt>
      <trkpt lat="50.683594280853868" lon="13.262500986456871">
        <ele>461</ele>
        <time>2026-08-29T09:41:52Z</time>
      </trkpt>
      <trkpt lat="50.683607356622815" lon="13.262483049184084">
        <ele>461</ele>
        <time>2026-08-29T09:41:53Z</time>
      </trkpt>
      <trkpt lat="50.683618169277906" lon="13.262465111911297">
        <ele>461</ele>
        <time>2026-08-29T09:41:54Z</time>
      </trkpt>
      <trkpt lat="50.683636525645852" lon="13.262449689209461">
        <ele>462</ele>
        <time>2026-08-29T09:41:55Z</time>
      </trkpt>
      <trkpt lat="50.683648092672229" lon="13.262432171031833">
        <ele>461</ele>
        <time>2026-08-29T09:41:56Z</time>
      </trkpt>
      <trkpt lat="50.683664688840508" lon="13.262416161596775">
        <ele>461</ele>
        <time>2026-08-29T09:41:57Z</time>
      </trkpt>
      <trkpt lat="50.683685727417469" lon="13.262394117191434">
        <ele>462</ele>
        <time>2026-08-29T09:41:58Z</time>
      </trkpt>
      <trkpt lat="50.683701317757368" lon="13.262388333678246">
        <ele>462</ele>
        <time>2026-08-29T09:41:59Z</time>
      </trkpt>
      <trkpt lat="50.683715231716633" lon="13.262376850470901">
        <ele>462</ele>
        <time>2026-08-29T09:42:00Z</time>
      </trkpt>
      <trkpt lat="50.683726882562041" lon="13.262365534901619">
        <ele>462</ele>
        <time>2026-08-29T09:42:01Z</time>
      </trkpt>
      <trkpt lat="50.683737276121974" lon="13.262343658134341">
        <ele>462</ele>
        <time>2026-08-29T09:42:02Z</time>
      </trkpt>
      <trkpt lat="50.683746580034494" lon="13.262339131906629">
        <ele>462</ele>
        <time>2026-08-29T09:42:03Z</time>
      </trkpt>
      <trkpt lat="50.683754459023476" lon="13.262324295938015">
        <ele>461</ele>
        <time>2026-08-29T09:42:04Z</time>
      </trkpt>
      <trkpt lat="50.683765020221472" lon="13.262306274846196">
        <ele>461</ele>
        <time>2026-08-29T09:42:05Z</time>
      </trkpt>
      <trkpt lat="50.68377616815269" lon="13.262289091944695">
        <ele>462</ele>
        <time>2026-08-29T09:42:06Z</time>
      </trkpt>
      <trkpt lat="50.683783795684576" lon="13.262276938185096">
        <ele>462</ele>
        <time>2026-08-29T09:42:07Z</time>
      </trkpt>
      <trkpt lat="50.683793351054192" lon="13.262274926528335">
        <ele>462</ele>
        <time>2026-08-29T09:42:08Z</time>
      </trkpt>
      <trkpt lat="50.683810701593757" lon="13.262265790253878">
        <ele>462</ele>
        <time>2026-08-29T09:42:09Z</time>
      </trkpt>
      <trkpt lat="50.683814389631152" lon="13.26225807890296">
        <ele>462</ele>
        <time>2026-08-29T09:42:10Z</time>
      </trkpt>
      <trkpt lat="50.683824867010117" lon="13.262249194085598">
        <ele>462</ele>
        <time>2026-08-29T09:42:11Z</time>
      </trkpt>
      <trkpt lat="50.683837523683906" lon="13.262236872687936">
        <ele>463</ele>
        <time>2026-08-29T09:42:12Z</time>
      </trkpt>
      <trkpt lat="50.683848587796092" lon="13.26222924515605">
        <ele>463</ele>
        <time>2026-08-29T09:42:13Z</time>
      </trkpt>
      <trkpt lat="50.683857891708612" lon="13.26221264898777">
        <ele>462</ele>
        <time>2026-08-29T09:42:14Z</time>
      </trkpt>
      <trkpt lat="50.68386753089726" lon="13.262198064476252">
        <ele>462</ele>
        <time>2026-08-29T09:42:15Z</time>
      </trkpt>
      <trkpt lat="50.683872308582067" lon="13.262185240164399">
        <ele>462</ele>
        <time>2026-08-29T09:42:16Z</time>
      </trkpt>
      <trkpt lat="50.683882618322968" lon="13.262168392539024">
        <ele>461</ele>
        <time>2026-08-29T09:42:17Z</time>
      </trkpt>
      <trkpt lat="50.683890832588077" lon="13.262156825512648">
        <ele>462</ele>
        <time>2026-08-29T09:42:18Z</time>
      </trkpt>
      <trkpt lat="50.683905417099595" lon="13.262151377275586">
        <ele>462</ele>
        <time>2026-08-29T09:42:19Z</time>
      </trkpt>
      <trkpt lat="50.683919079601765" lon="13.262139642611146">
        <ele>461</ele>
        <time>2026-08-29T09:42:20Z</time>
      </trkpt>
      <trkpt lat="50.683935508131981" lon="13.262129835784435">
        <ele>460</ele>
        <time>2026-08-29T09:42:21Z</time>
      </trkpt>
      <trkpt lat="50.68394766189158" lon="13.262117011472583">
        <ele>461</ele>
        <time>2026-08-29T09:42:22Z</time>
      </trkpt>
      <trkpt lat="50.683965682983398" lon="13.262107707560062">
        <ele>460</ele>
        <time>2026-08-29T09:42:23Z</time>
      </trkpt>
      <trkpt lat="50.683974316343665" lon="13.262092620134354">
        <ele>460</ele>
        <time>2026-08-29T09:42:24Z</time>
      </trkpt>
      <trkpt lat="50.683989487588406" lon="13.262080550193787">
        <ele>460</ele>
        <time>2026-08-29T09:42:25Z</time>
      </trkpt>
      <trkpt lat="50.684000551700592" lon="13.262071749195457">
        <ele>460</ele>
        <time>2026-08-29T09:42:26Z</time>
      </trkpt>
      <trkpt lat="50.684011531993747" lon="13.262056745588779">
        <ele>460</ele>
        <time>2026-08-29T09:42:27Z</time>
      </trkpt>
      <trkpt lat="50.68401656113565" lon="13.262047860771418">
        <ele>460</ele>
        <time>2026-08-29T09:42:28Z</time>
      </trkpt>
      <trkpt lat="50.684022344648838" lon="13.262045010924339">
        <ele>460</ele>
        <time>2026-08-29T09:42:29Z</time>
      </trkpt>
      <trkpt lat="50.684033073484898" lon="13.262037886306643">
        <ele>460</ele>
        <time>2026-08-29T09:42:30Z</time>
      </trkpt>
      <trkpt lat="50.684044389054179" lon="13.262028582394123">
        <ele>460</ele>
        <time>2026-08-29T09:42:31Z</time>
      </trkpt>
      <trkpt lat="50.684060398489237" lon="13.262016428634524">
        <ele>460</ele>
        <time>2026-08-29T09:42:32Z</time>
      </trkpt>
      <trkpt lat="50.684075821191072" lon="13.262004610151052">
        <ele>461</ele>
        <time>2026-08-29T09:42:33Z</time>
      </trkpt>
      <trkpt lat="50.684087891131639" lon="13.261996144428849">
        <ele>461</ele>
        <time>2026-08-29T09:42:34Z</time>
      </trkpt>
      <trkpt lat="50.684104487299919" lon="13.261987343430519">
        <ele>461</ele>
        <time>2026-08-29T09:42:35Z</time>
      </trkpt>
      <trkpt lat="50.684119071811438" lon="13.261973848566413">
        <ele>462</ele>
        <time>2026-08-29T09:42:36Z</time>
      </trkpt>
      <trkpt lat="50.684133488684893" lon="13.261956665664911">
        <ele>462</ele>
        <time>2026-08-29T09:42:37Z</time>
      </trkpt>
      <trkpt lat="50.684144971892238" lon="13.261947361752391">
        <ele>462</ele>
        <time>2026-08-29T09:42:38Z</time>
      </trkpt>
      <trkpt lat="50.684158550575376" lon="13.261933866888285">
        <ele>462</ele>
        <time>2026-08-29T09:42:39Z</time>
      </trkpt>
      <trkpt lat="50.684164837002754" lon="13.261925401166081">
        <ele>462</ele>
        <time>2026-08-29T09:42:40Z</time>
      </trkpt>
      <trkpt lat="50.684178415685892" lon="13.261923138052225">
        <ele>463</ele>
        <time>2026-08-29T09:42:41Z</time>
      </trkpt>
      <trkpt lat="50.684183444827795" lon="13.261916181072593">
        <ele>463</ele>
        <time>2026-08-29T09:42:42Z</time>
      </trkpt>
      <trkpt lat="50.684191156178713" lon="13.261901428923011">
        <ele>463</ele>
        <time>2026-08-29T09:42:43Z</time>
      </trkpt>
      <trkpt lat="50.684199370443821" lon="13.261892208829522">
        <ele>463</ele>
        <time>2026-08-29T09:42:44Z</time>
      </trkpt>
      <trkpt lat="50.684206997975707" lon="13.261882988736033">
        <ele>463</ele>
        <time>2026-08-29T09:42:45Z</time>
      </trkpt>
      <trkpt lat="50.684218816459179" lon="13.261880306527019">
        <ele>463</ele>
        <time>2026-08-29T09:42:46Z</time>
      </trkpt>
      <trkpt lat="50.684229461476207" lon="13.261869829148054">
        <ele>463</ele>
        <time>2026-08-29T09:42:47Z</time>
      </trkpt>
      <trkpt lat="50.684239184483886" lon="13.261855328455567">
        <ele>463</ele>
        <time>2026-08-29T09:42:48Z</time>
      </trkpt>
      <trkpt lat="50.68424572236836" lon="13.261838564649224">
        <ele>463</ele>
        <time>2026-08-29T09:42:49Z</time>
      </trkpt>
      <trkpt lat="50.684250500053167" lon="13.26183345168829">
        <ele>464</ele>
        <time>2026-08-29T09:42:50Z</time>
      </trkpt>
      <trkpt lat="50.684263659641147" lon="13.261832445859909">
        <ele>464</ele>
        <time>2026-08-29T09:42:51Z</time>
      </trkpt>
      <trkpt lat="50.68426868878305" lon="13.261830601841211">
        <ele>464</ele>
        <time>2026-08-29T09:42:52Z</time>
      </trkpt>
      <trkpt lat="50.684274388477206" lon="13.261822471395135">
        <ele>464</ele>
        <time>2026-08-29T09:42:53Z</time>
      </trkpt>
      <trkpt lat="50.684282518923283" lon="13.261812916025519">
        <ele>464</ele>
        <time>2026-08-29T09:42:54Z</time>
      </trkpt>
      <trkpt lat="50.684303222224116" lon="13.261799504980445">
        <ele>464</ele>
        <time>2026-08-29T09:42:55Z</time>
      </trkpt>
      <trkpt lat="50.684326272457838" lon="13.261795062571764">
        <ele>464</ele>
        <time>2026-08-29T09:42:56Z</time>
      </trkpt>
      <trkpt lat="50.684343287721276" lon="13.261789195239544">
        <ele>464</ele>
        <time>2026-08-29T09:42:57Z</time>
      </trkpt>
      <trkpt lat="50.684357285499573" lon="13.26176849193871">
        <ele>464</ele>
        <time>2026-08-29T09:42:58Z</time>
      </trkpt>
      <trkpt lat="50.684368768706918" lon="13.261757344007492">
        <ele>465</ele>
        <time>2026-08-29T09:42:59Z</time>
      </trkpt>
      <trkpt lat="50.68437865935266" lon="13.26176606118679">
        <ele>465</ele>
        <time>2026-08-29T09:43:00Z</time>
      </trkpt>
      <trkpt lat="50.684390058740973" lon="13.261765725910664">
        <ele>465</ele>
        <time>2026-08-29T09:43:01Z</time>
      </trkpt>
      <trkpt lat="50.684396009892225" lon="13.261769581586123">
        <ele>465</ele>
        <time>2026-08-29T09:43:02Z</time>
      </trkpt>
      <trkpt lat="50.684405565261841" lon="13.26176505535841">
        <ele>465</ele>
        <time>2026-08-29T09:43:03Z</time>
      </trkpt>
      <trkpt lat="50.684413528069854" lon="13.261762205511332">
        <ele>466</ele>
        <time>2026-08-29T09:43:04Z</time>
      </trkpt>
      <trkpt lat="50.684424340724945" lon="13.261750051751733">
        <ele>466</ele>
        <time>2026-08-29T09:43:05Z</time>
      </trkpt>
      <trkpt lat="50.684436159208417" lon="13.261739322915673">
        <ele>466</ele>
        <time>2026-08-29T09:43:06Z</time>
      </trkpt>
      <trkpt lat="50.684449402615428" lon="13.261727839708328">
        <ele>466</ele>
        <time>2026-08-29T09:43:07Z</time>
      </trkpt>
      <trkpt lat="50.684462059289217" lon="13.261716440320015">
        <ele>466</ele>
        <time>2026-08-29T09:43:08Z</time>
      </trkpt>
      <trkpt lat="50.684473793953657" lon="13.261707555502653">
        <ele>466</ele>
        <time>2026-08-29T09:43:09Z</time>
      </trkpt>
      <trkpt lat="50.684485780075192" lon="13.261708812788129">
        <ele>467</ele>
        <time>2026-08-29T09:43:10Z</time>
      </trkpt>
      <trkpt lat="50.684495838358998" lon="13.261711243540049">
        <ele>466</ele>
        <time>2026-08-29T09:43:11Z</time>
      </trkpt>
      <trkpt lat="50.684509919956326" lon="13.261706717312336">
        <ele>466</ele>
        <time>2026-08-29T09:43:12Z</time>
      </trkpt>
      <trkpt lat="50.684524588286877" lon="13.261705879122019">
        <ele>465</ele>
        <time>2026-08-29T09:43:13Z</time>
      </trkpt>
      <trkpt lat="50.684534478932619" lon="13.261706298217177">
        <ele>465</ele>
        <time>2026-08-29T09:43:14Z</time>
      </trkpt>
      <trkpt lat="50.6845423579216" lon="13.261704202741385">
        <ele>465</ele>
        <time>2026-08-29T09:43:15Z</time>
      </trkpt>
      <trkpt lat="50.684557445347309" lon="13.26169716194272">
        <ele>466</ele>
        <time>2026-08-29T09:43:16Z</time>
      </trkpt>
      <trkpt lat="50.684569599106908" lon="13.261685930192471">
        <ele>466</ele>
        <time>2026-08-29T09:43:17Z</time>
      </trkpt>
      <trkpt lat="50.684587117284536" lon="13.261675452813506">
        <ele>465</ele>
        <time>2026-08-29T09:43:18Z</time>
      </trkpt>
      <trkpt lat="50.684604970738292" lon="13.261672016233206">
        <ele>465</ele>
        <time>2026-08-29T09:43:19Z</time>
      </trkpt>
      <trkpt lat="50.684620058164001" lon="13.261657766997814">
        <ele>465</ele>
        <time>2026-08-29T09:43:20Z</time>
      </trkpt>
      <trkpt lat="50.684633553028107" lon="13.261647876352072">
        <ele>465</ele>
        <time>2026-08-29T09:43:21Z</time>
      </trkpt>
      <trkpt lat="50.684646880254149" lon="13.261641087010503">
        <ele>464</ele>
        <time>2026-08-29T09:43:22Z</time>
      </trkpt>
      <trkpt lat="50.684665068984032" lon="13.261639829725027">
        <ele>464</ele>
        <time>2026-08-29T09:43:23Z</time>
      </trkpt>
      <trkpt lat="50.684683928266168" lon="13.261638572439551">
        <ele>465</ele>
        <time>2026-08-29T09:43:24Z</time>
      </trkpt>
      <trkpt lat="50.68470312282443" lon="13.261632453650236">
        <ele>465</ele>
        <time>2026-08-29T09:43:25Z</time>
      </trkpt>
      <trkpt lat="50.6847202219069" lon="13.261624993756413">
        <ele>466</ele>
        <time>2026-08-29T09:43:26Z</time>
      </trkpt>
      <trkpt lat="50.684738829731941" lon="13.261628011241555">
        <ele>466</ele>
        <time>2026-08-29T09:43:27Z</time>
      </trkpt>
      <trkpt lat="50.684756012633443" lon="13.261615186929703">
        <ele>466</ele>
        <time>2026-08-29T09:43:28Z</time>
      </trkpt>
      <trkpt lat="50.684773782268167" lon="13.261598506942391">
        <ele>466</ele>
        <time>2026-08-29T09:43:29Z</time>
      </trkpt>
      <trkpt lat="50.684789037331939" lon="13.261591969057918">
        <ele>466</ele>
        <time>2026-08-29T09:43:30Z</time>
      </trkpt>
      <trkpt lat="50.684805382043123" lon="13.26157939620316">
        <ele>466</ele>
        <time>2026-08-29T09:43:31Z</time>
      </trkpt>
      <trkpt lat="50.684816529974341" lon="13.261579480022192">
        <ele>466</ele>
        <time>2026-08-29T09:43:32Z</time>
      </trkpt>
      <trkpt lat="50.684829773381352" lon="13.26158476062119">
        <ele>466</ele>
        <time>2026-08-29T09:43:33Z</time>
      </trkpt>
      <trkpt lat="50.684840921312571" lon="13.261587526649237">
        <ele>467</ele>
        <time>2026-08-29T09:43:34Z</time>
      </trkpt>
      <trkpt lat="50.68485165014863" lon="13.261591801419854">
        <ele>467</ele>
        <time>2026-08-29T09:43:35Z</time>
      </trkpt>
      <trkpt lat="50.68486581556499" lon="13.261594818904996">
        <ele>467</ele>
        <time>2026-08-29T09:43:36Z</time>
      </trkpt>
      <trkpt lat="50.684878388419747" lon="13.26159305870533">
        <ele>467</ele>
        <time>2026-08-29T09:43:37Z</time>
      </trkpt>
      <trkpt lat="50.684892889112234" lon="13.261590795591474">
        <ele>468</ele>
        <time>2026-08-29T09:43:38Z</time>
      </trkpt>
      <trkpt lat="50.684909569099545" lon="13.261591969057918">
        <ele>467</ele>
        <time>2026-08-29T09:43:39Z</time>
      </trkpt>
      <trkpt lat="50.684932619333267" lon="13.26158232986927">
        <ele>468</ele>
        <time>2026-08-29T09:43:40Z</time>
      </trkpt>
      <trkpt lat="50.684948461130261" lon="13.261583168059587">
        <ele>468</ele>
        <time>2026-08-29T09:43:41Z</time>
      </trkpt>
      <trkpt lat="50.684965811669827" lon="13.261577384546399">
        <ele>468</ele>
        <time>2026-08-29T09:43:42Z</time>
      </trkpt>
      <trkpt lat="50.684985760599375" lon="13.261576881632209">
        <ele>469</ele>
        <time>2026-08-29T09:43:43Z</time>
      </trkpt>
      <trkpt lat="50.685007469728589" lon="13.261568583548069">
        <ele>469</ele>
        <time>2026-08-29T09:43:44Z</time>
      </trkpt>
      <trkpt lat="50.68502607755363" lon="13.261567493900657">
        <ele>468</ele>
        <time>2026-08-29T09:43:45Z</time>
      </trkpt>
      <trkpt lat="50.685043763369322" lon="13.261564811691642">
        <ele>469</ele>
        <time>2026-08-29T09:43:46Z</time>
      </trkpt>
      <trkpt lat="50.685051809996367" lon="13.261556262150407">
        <ele>469</ele>
        <time>2026-08-29T09:43:47Z</time>
      </trkpt>
      <trkpt lat="50.685066310688853" lon="13.261545281857252">
        <ele>469</ele>
        <time>2026-08-29T09:43:48Z</time>
      </trkpt>
      <trkpt lat="50.685087349265814" lon="13.261532792821527">
        <ele>468</ele>
        <time>2026-08-29T09:43:49Z</time>
      </trkpt>
      <trkpt lat="50.685108220204711" lon="13.261519046500325">
        <ele>468</ele>
        <time>2026-08-29T09:43:50Z</time>
      </trkpt>
      <trkpt lat="50.685121882706881" lon="13.261516112834215">
        <ele>468</ele>
        <time>2026-08-29T09:43:51Z</time>
      </trkpt>
      <trkpt lat="50.685134958475828" lon="13.261505467817187">
        <ele>467</ele>
        <time>2026-08-29T09:43:52Z</time>
      </trkpt>
      <trkpt lat="50.685153650119901" lon="13.261508401483297">
        <ele>467</ele>
        <time>2026-08-29T09:43:53Z</time>
      </trkpt>
      <trkpt lat="50.68517510779202" lon="13.261512508615851">
        <ele>467</ele>
        <time>2026-08-29T09:43:54Z</time>
      </trkpt>
      <trkpt lat="50.685196481645107" lon="13.261508904397488">
        <ele>467</ele>
        <time>2026-08-29T09:43:55Z</time>
      </trkpt>
      <trkpt lat="50.685211485251784" lon="13.261509826406837">
        <ele>467</ele>
        <time>2026-08-29T09:43:56Z</time>
      </trkpt>
      <trkpt lat="50.685226991772652" lon="13.261509574949741">
        <ele>468</ele>
        <time>2026-08-29T09:43:57Z</time>
      </trkpt>
      <trkpt lat="50.685241911560297" lon="13.26150362379849">
        <ele>467</ele>
        <time>2026-08-29T09:43:58Z</time>
      </trkpt>
      <trkpt lat="50.68524643778801" lon="13.261501779779792">
        <ele>468</ele>
        <time>2026-08-29T09:43:59Z</time>
      </trkpt>
      <trkpt lat="50.685249958187342" lon="13.261479316279292">
        <ele>467</ele>
        <time>2026-08-29T09:44:00Z</time>
      </trkpt>
      <trkpt lat="50.685261357575655" lon="13.261471940204501">
        <ele>467</ele>
        <time>2026-08-29T09:44:01Z</time>
      </trkpt>
      <trkpt lat="50.685264458879828" lon="13.261462636291981">
        <ele>467</ele>
        <time>2026-08-29T09:44:02Z</time>
      </trkpt>
      <trkpt lat="50.685277534648776" lon="13.261451153084636">
        <ele>467</ele>
        <time>2026-08-29T09:44:03Z</time>
      </trkpt>
      <trkpt lat="50.685294298455119" lon="13.261427180841565">
        <ele>467</ele>
        <time>2026-08-29T09:44:04Z</time>
      </trkpt>
      <trkpt lat="50.685310810804367" lon="13.261417876929045">
        <ele>467</ele>
        <time>2026-08-29T09:44:05Z</time>
      </trkpt>
      <trkpt lat="50.685319527983665" lon="13.261401448398829">
        <ele>468</ele>
        <time>2026-08-29T09:44:06Z</time>
      </trkpt>
      <trkpt lat="50.685333609580994" lon="13.261390384286642">
        <ele>468</ele>
        <time>2026-08-29T09:44:07Z</time>
      </trkpt>
      <trkpt lat="50.685355151072145" lon="13.261373704299331">
        <ele>468</ele>
        <time>2026-08-29T09:44:08Z</time>
      </trkpt>
      <trkpt lat="50.685380799695849" lon="13.261368926614523">
        <ele>469</ele>
        <time>2026-08-29T09:44:09Z</time>
      </trkpt>
      <trkpt lat="50.685406867414713" lon="13.261358784511685">
        <ele>469</ele>
        <time>2026-08-29T09:44:10Z</time>
      </trkpt>
      <trkpt lat="50.685434276238084" lon="13.261356772854924">
        <ele>470</ele>
        <time>2026-08-29T09:44:11Z</time>
      </trkpt>
      <trkpt lat="50.685454560443759" lon="13.261356521397829">
        <ele>470</ele>
        <time>2026-08-29T09:44:12Z</time>
      </trkpt>
      <trkpt lat="50.685478867962956" lon="13.261350402608514">
        <ele>470</ele>
        <time>2026-08-29T09:44:13Z</time>
      </trkpt>
      <trkpt lat="50.685504181310534" lon="13.261344283819199">
        <ele>470</ele>
        <time>2026-08-29T09:44:14Z</time>
      </trkpt>
      <trkpt lat="50.685519520193338" lon="13.261336237192154">
        <ele>470</ele>
        <time>2026-08-29T09:44:15Z</time>
      </trkpt>
      <trkpt lat="50.685531841591001" lon="13.261345122009516">
        <ele>471</ele>
        <time>2026-08-29T09:44:16Z</time>
      </trkpt>
      <trkpt lat="50.685549359768629" lon="13.261353336274624">
        <ele>471</ele>
        <time>2026-08-29T09:44:17Z</time>
      </trkpt>
      <trkpt lat="50.685569224879146" lon="13.261356186121702">
        <ele>472</ele>
        <time>2026-08-29T09:44:18Z</time>
      </trkpt>
      <trkpt lat="50.685582887381315" lon="13.261356940492988">
        <ele>472</ele>
        <time>2026-08-29T09:44:19Z</time>
      </trkpt>
      <trkpt lat="50.685596549883485" lon="13.261365322396159">
        <ele>472</ele>
        <time>2026-08-29T09:44:20Z</time>
      </trkpt>
      <trkpt lat="50.685607949271798" lon="13.261364232748747">
        <ele>472</ele>
        <time>2026-08-29T09:44:21Z</time>
      </trkpt>
      <trkpt lat="50.685617169365287" lon="13.26136440038681">
        <ele>472</ele>
        <time>2026-08-29T09:44:22Z</time>
      </trkpt>
      <trkpt lat="50.685626054182649" lon="13.26136632822454">
        <ele>472</ele>
        <time>2026-08-29T09:44:23Z</time>
      </trkpt>
      <trkpt lat="50.685638291761279" lon="13.261366160586476">
        <ele>472</ele>
        <time>2026-08-29T09:44:24Z</time>
      </trkpt>
      <trkpt lat="50.685648936778307" lon="13.261366160586476">
        <ele>472</ele>
        <time>2026-08-29T09:44:25Z</time>
      </trkpt>
      <trkpt lat="50.685666790232062" lon="13.261372949928045">
        <ele>472</ele>
        <time>2026-08-29T09:44:26Z</time>
      </trkpt>
      <trkpt lat="50.685677351430058" lon="13.261375967413187">
        <ele>472</ele>
        <time>2026-08-29T09:44:27Z</time>
      </trkpt>
      <trkpt lat="50.685688247904181" lon="13.26138149946928">
        <ele>472</ele>
        <time>2026-08-29T09:44:28Z</time>
      </trkpt>
      <trkpt lat="50.685704089701176" lon="13.261385355144739">
        <ele>472</ele>
        <time>2026-08-29T09:44:29Z</time>
      </trkpt>
      <trkpt lat="50.685716830193996" lon="13.261385187506676">
        <ele>472</ele>
        <time>2026-08-29T09:44:30Z</time>
      </trkpt>
      <trkpt lat="50.685735438019037" lon="13.261383175849915">
        <ele>472</ele>
        <time>2026-08-29T09:44:31Z</time>
      </trkpt>
      <trkpt lat="50.685750106349587" lon="13.261381415650249">
        <ele>472</ele>
        <time>2026-08-29T09:44:32Z</time>
      </trkpt>
      <trkpt lat="50.68576636724174" lon="13.261390216648579">
        <ele>472</ele>
        <time>2026-08-29T09:44:33Z</time>
      </trkpt>
      <trkpt lat="50.685779359191656" lon="13.261399939656258">
        <ele>471</ele>
        <time>2026-08-29T09:44:34Z</time>
      </trkpt>
      <trkpt lat="50.685799811035395" lon="13.261404214426875">
        <ele>471</ele>
        <time>2026-08-29T09:44:35Z</time>
      </trkpt>
      <trkpt lat="50.685822609812021" lon="13.261409243568778">
        <ele>471</ele>
        <time>2026-08-29T09:44:36Z</time>
      </trkpt>
      <trkpt lat="50.685834931209683" lon="13.261416116729379">
        <ele>470</ele>
        <time>2026-08-29T09:44:37Z</time>
      </trkpt>
      <trkpt lat="50.685847755521536" lon="13.261425923556089">
        <ele>471</ele>
        <time>2026-08-29T09:44:38Z</time>
      </trkpt>
      <trkpt lat="50.685861501842737" lon="13.261425839737058">
        <ele>471</ele>
        <time>2026-08-29T09:44:39Z</time>
      </trkpt>
      <trkpt lat="50.685876421630383" lon="13.261423911899328">
        <ele>471</ele>
        <time>2026-08-29T09:44:40Z</time>
      </trkpt>
      <trkpt lat="50.685893269255757" lon="13.261424917727709">
        <ele>471</ele>
        <time>2026-08-29T09:44:41Z</time>
      </trkpt>
      <trkpt lat="50.685915062204003" lon="13.261416619643569">
        <ele>471</ele>
        <time>2026-08-29T09:44:42Z</time>
      </trkpt>
      <trkpt lat="50.685935681685805" lon="13.261417793110013">
        <ele>471</ele>
        <time>2026-08-29T09:44:43Z</time>
      </trkpt>
      <trkpt lat="50.685959067195654" lon="13.261418798938394">
        <ele>472</ele>
        <time>2026-08-29T09:44:44Z</time>
      </trkpt>
      <trkpt lat="50.685983458533883" lon="13.261408656835556">
        <ele>473</ele>
        <time>2026-08-29T09:44:45Z</time>
      </trkpt>
      <trkpt lat="50.686008352786303" lon="13.261403376236558">
        <ele>472</ele>
        <time>2026-08-29T09:44:46Z</time>
      </trkpt>
      <trkpt lat="50.686028050258756" lon="13.261409914121032">
        <ele>472</ele>
        <time>2026-08-29T09:44:47Z</time>
      </trkpt>
      <trkpt lat="50.686045819893479" lon="13.261412931606174">
        <ele>473</ele>
        <time>2026-08-29T09:44:48Z</time>
      </trkpt>
      <trkpt lat="50.686069540679455" lon="13.26141276396811">
        <ele>473</ele>
        <time>2026-08-29T09:44:49Z</time>
      </trkpt>
      <trkpt lat="50.686096111312509" lon="13.261412931606174">
        <ele>473</ele>
        <time>2026-08-29T09:44:50Z</time>
      </trkpt>
      <trkpt lat="50.686123268678784" lon="13.261421313509345">
        <ele>473</ele>
        <time>2026-08-29T09:44:51Z</time>
      </trkpt>
      <trkpt lat="50.686154533177614" lon="13.261423157528043">
        <ele>473</ele>
        <time>2026-08-29T09:44:52Z</time>
      </trkpt>
      <trkpt lat="50.686184288933873" lon="13.261426007375121">
        <ele>473</ele>
        <time>2026-08-29T09:44:53Z</time>
      </trkpt>
      <trkpt lat="50.686215553432703" lon="13.261420978233218">
        <ele>474</ele>
        <time>2026-08-29T09:44:54Z</time>
      </trkpt>
      <trkpt lat="50.686247237026691" lon="13.261425001546741">
        <ele>473</ele>
        <time>2026-08-29T09:44:55Z</time>
      </trkpt>
      <trkpt lat="50.686278501525521" lon="13.261426342651248">
        <ele>473</ele>
        <time>2026-08-29T09:44:56Z</time>
      </trkpt>
      <trkpt lat="50.686310017481446" lon="13.261424330994487">
        <ele>474</ele>
        <time>2026-08-29T09:44:57Z</time>
      </trkpt>
      <trkpt lat="50.686342539265752" lon="13.261419804766774">
        <ele>474</ele>
        <time>2026-08-29T09:44:58Z</time>
      </trkpt>
      <trkpt lat="50.686375731602311" lon="13.261423828080297">
        <ele>473</ele>
        <time>2026-08-29T09:44:59Z</time>
      </trkpt>
      <trkpt lat="50.686410684138536" lon="13.261415110900998">
        <ele>474</ele>
        <time>2026-08-29T09:45:00Z</time>
      </trkpt>
      <trkpt lat="50.686440439894795" lon="13.261410584673285">
        <ele>473</ele>
        <time>2026-08-29T09:45:01Z</time>
      </trkpt>
      <trkpt lat="50.686468770727515" lon="13.261400777846575">
        <ele>473</ele>
        <time>2026-08-29T09:45:02Z</time>
      </trkpt>
      <trkpt lat="50.686501627787948" lon="13.261407818645239">
        <ele>473</ele>
        <time>2026-08-29T09:45:03Z</time>
      </trkpt>
      <trkpt lat="50.686541441828012" lon="13.261410584673285">
        <ele>473</ele>
        <time>2026-08-29T09:45:04Z</time>
      </trkpt>
      <trkpt lat="50.686571700498462" lon="13.26141812838614">
        <ele>473</ele>
        <time>2026-08-29T09:45:05Z</time>
      </trkpt>
      <trkpt lat="50.686599360778928" lon="13.261419553309679">
        <ele>473</ele>
        <time>2026-08-29T09:45:06Z</time>
      </trkpt>
      <trkpt lat="50.686620902270079" lon="13.261408824473619">
        <ele>473</ele>
        <time>2026-08-29T09:45:07Z</time>
      </trkpt>
      <trkpt lat="50.686629451811314" lon="13.261402202770114">
        <ele>473</ele>
        <time>2026-08-29T09:45:08Z</time>
      </trkpt>
      <trkpt lat="50.686633307486773" lon="13.261396419256926">
        <ele>473</ele>
        <time>2026-08-29T09:45:09Z</time>
      </trkpt>
      <trkpt lat="50.686618052423" lon="13.261382589116693">
        <ele>472</ele>
        <time>2026-08-29T09:45:10Z</time>
      </trkpt>
      <trkpt lat="50.686617717146873" lon="13.26138099655509">
        <ele>473</ele>
        <time>2026-08-29T09:45:11Z</time>
      </trkpt>
      <trkpt lat="50.686617381870747" lon="13.261394072324038">
        <ele>474</ele>
        <time>2026-08-29T09:45:12Z</time>
      </trkpt>
      <trkpt lat="50.68661168217659" lon="13.261407986283302">
        <ele>475</ele>
        <time>2026-08-29T09:45:13Z</time>
      </trkpt>
      <trkpt lat="50.686610843986273" lon="13.261412009596825">
        <ele>475</ele>
        <time>2026-08-29T09:45:14Z</time>
      </trkpt>
      <trkpt lat="50.686612520366907" lon="13.261414105072618">
        <ele>475</ele>
        <time>2026-08-29T09:45:15Z</time>
      </trkpt>
      <trkpt lat="50.686616543680429" lon="13.261417709290981">
        <ele>476</ele>
        <time>2026-08-29T09:45:16Z</time>
      </trkpt>
      <trkpt lat="50.686624338850379" lon="13.261423157528043">
        <ele>476</ele>
        <time>2026-08-29T09:45:17Z</time>
      </trkpt>
      <trkpt lat="50.686624171212316" lon="13.261423157528043">
        <ele>476</ele>
        <time>2026-08-29T09:45:18Z</time>
      </trkpt>
      <trkpt lat="50.686617381870747" lon="13.261425001546741">
        <ele>476</ele>
        <time>2026-08-29T09:45:19Z</time>
      </trkpt>
      <trkpt lat="50.686612017452717" lon="13.261428941041231">
        <ele>475</ele>
        <time>2026-08-29T09:45:20Z</time>
      </trkpt>
      <trkpt lat="50.686611849814653" lon="13.261430198326707">
        <ele>475</ele>
        <time>2026-08-29T09:45:21Z</time>
      </trkpt>
      <trkpt lat="50.686612520366907" lon="13.261429024860263">
        <ele>475</ele>
        <time>2026-08-29T09:45:22Z</time>
      </trkpt>
      <trkpt lat="50.686618806794286" lon="13.261418212205172">
        <ele>475</ele>
        <time>2026-08-29T09:45:23Z</time>
      </trkpt>
      <trkpt lat="50.686625679954886" lon="13.261411506682634">
        <ele>475</ele>
        <time>2026-08-29T09:45:24Z</time>
      </trkpt>
      <trkpt lat="50.68662584759295" lon="13.261411674320698">
        <ele>475</ele>
        <time>2026-08-29T09:45:25Z</time>
      </trkpt>
      <trkpt lat="50.686625596135855" lon="13.261411590501666">
        <ele>475</ele>
        <time>2026-08-29T09:45:26Z</time>
      </trkpt>
      <trkpt lat="50.68662534467876" lon="13.261411674320698">
        <ele>475</ele>
        <time>2026-08-29T09:45:27Z</time>
      </trkpt>
      <trkpt lat="50.686625177040696" lon="13.261411674320698">
        <ele>475</ele>
        <time>2026-08-29T09:45:28Z</time>
      </trkpt>
      <trkpt lat="50.686625428497791" lon="13.261411758139729">
        <ele>475</ele>
        <time>2026-08-29T09:45:29Z</time>
      </trkpt>
      <trkpt lat="50.686625428497791" lon="13.261411841958761">
        <ele>475</ele>
        <time>2026-08-29T09:45:30Z</time>
      </trkpt>
      <trkpt lat="50.686625260859728" lon="13.261412177234888">
        <ele>475</ele>
        <time>2026-08-29T09:45:31Z</time>
      </trkpt>
      <trkpt lat="50.686625177040696" lon="13.26141226105392">
        <ele>475</ele>
        <time>2026-08-29T09:45:32Z</time>
      </trkpt>
      <trkpt lat="50.686625093221664" lon="13.261412428691983">
        <ele>475</ele>
        <time>2026-08-29T09:45:33Z</time>
      </trkpt>
      <trkpt lat="50.686625009402633" lon="13.261412596330047">
        <ele>475</ele>
        <time>2026-08-29T09:45:34Z</time>
      </trkpt>
      <trkpt lat="50.686625093221664" lon="13.26141276396811">
        <ele>475</ele>
        <time>2026-08-29T09:45:35Z</time>
      </trkpt>
      <trkpt lat="50.686625260859728" lon="13.261413015425205">
        <ele>475</ele>
        <time>2026-08-29T09:45:36Z</time>
      </trkpt>
      <trkpt lat="50.68662534467876" lon="13.261413350701332">
        <ele>475</ele>
        <time>2026-08-29T09:45:37Z</time>
      </trkpt>
      <trkpt lat="50.68662878125906" lon="13.261414607986808">
        <ele>475</ele>
        <time>2026-08-29T09:45:38Z</time>
      </trkpt>
      <trkpt lat="50.68663171492517" lon="13.261405387893319">
        <ele>475</ele>
        <time>2026-08-29T09:45:39Z</time>
      </trkpt>
      <trkpt lat="50.686641270294785" lon="13.261390216648579">
        <ele>475</ele>
        <time>2026-08-29T09:45:40Z</time>
      </trkpt>
      <trkpt lat="50.686647221446037" lon="13.261383259668946">
        <ele>475</ele>
        <time>2026-08-29T09:45:41Z</time>
      </trkpt>
      <trkpt lat="50.686652418226004" lon="13.261376637965441">
        <ele>476</ele>
        <time>2026-08-29T09:45:42Z</time>
      </trkpt>
      <trkpt lat="50.686652585864067" lon="13.261376386508346">
        <ele>476</ele>
        <time>2026-08-29T09:45:43Z</time>
      </trkpt>
      <trkpt lat="50.686652921140194" lon="13.261376218870282">
        <ele>476</ele>
        <time>2026-08-29T09:45:44Z</time>
      </trkpt>
      <trkpt lat="50.686655268073082" lon="13.261367669329047">
        <ele>476</ele>
        <time>2026-08-29T09:45:45Z</time>
      </trkpt>
      <trkpt lat="50.686655770987272" lon="13.26136733405292">
        <ele>476</ele>
        <time>2026-08-29T09:45:46Z</time>
      </trkpt>
      <trkpt lat="50.686655854806304" lon="13.261367082595825">
        <ele>476</ele>
        <time>2026-08-29T09:45:47Z</time>
      </trkpt>
      <trkpt lat="50.686656190082431" lon="13.261366998776793">
        <ele>476</ele>
        <time>2026-08-29T09:45:48Z</time>
      </trkpt>
      <trkpt lat="50.686656357720494" lon="13.261367166414857">
        <ele>476</ele>
        <time>2026-08-29T09:45:49Z</time>
      </trkpt>
      <trkpt lat="50.686656441539526" lon="13.261367417871952">
        <ele>476</ele>
        <time>2026-08-29T09:45:50Z</time>
      </trkpt>
      <trkpt lat="50.686656525358558" lon="13.261367753148079">
        <ele>476</ele>
        <time>2026-08-29T09:45:51Z</time>
      </trkpt>
      <trkpt lat="50.686656860634685" lon="13.261368004605174">
        <ele>476</ele>
        <time>2026-08-29T09:45:52Z</time>
      </trkpt>
      <trkpt lat="50.68665711209178" lon="13.261368088424206">
        <ele>476</ele>
        <time>2026-08-29T09:45:53Z</time>
      </trkpt>
      <trkpt lat="50.686657195910811" lon="13.261368339881301">
        <ele>476</ele>
        <time>2026-08-29T09:45:54Z</time>
      </trkpt>
      <trkpt lat="50.686657279729843" lon="13.261368423700333">
        <ele>476</ele>
        <time>2026-08-29T09:45:55Z</time>
      </trkpt>
      <trkpt lat="50.686657531186938" lon="13.261368339881301">
        <ele>476</ele>
        <time>2026-08-29T09:45:56Z</time>
      </trkpt>
      <trkpt lat="50.686657698825002" lon="13.261368088424206">
        <ele>476</ele>
        <time>2026-08-29T09:45:57Z</time>
      </trkpt>
      <trkpt lat="50.686657782644033" lon="13.261368004605174">
        <ele>476</ele>
        <time>2026-08-29T09:45:58Z</time>
      </trkpt>
      <trkpt lat="50.686657950282097" lon="13.261368256062269">
        <ele>476</ele>
        <time>2026-08-29T09:45:59Z</time>
      </trkpt>
      <trkpt lat="50.68665811792016" lon="13.261368339881301">
        <ele>476</ele>
        <time>2026-08-29T09:46:00Z</time>
      </trkpt>
      <trkpt lat="50.686658872291446" lon="13.261369345709682">
        <ele>476</ele>
        <time>2026-08-29T09:46:01Z</time>
      </trkpt>
      <trkpt lat="50.686659207567573" lon="13.261369680985808">
        <ele>476</ele>
        <time>2026-08-29T09:46:02Z</time>
      </trkpt>
      <trkpt lat="50.686659542843699" lon="13.261370183899999">
        <ele>476</ele>
        <time>2026-08-29T09:46:03Z</time>
      </trkpt>
      <trkpt lat="50.686659878119826" lon="13.261370602995157">
        <ele>476</ele>
        <time>2026-08-29T09:46:04Z</time>
      </trkpt>
      <trkpt lat="50.686660129576921" lon="13.261370770633221">
        <ele>476</ele>
        <time>2026-08-29T09:46:05Z</time>
      </trkpt>
      <trkpt lat="50.68666054867208" lon="13.261370938271284">
        <ele>476</ele>
        <time>2026-08-29T09:46:06Z</time>
      </trkpt>
      <trkpt lat="50.686660800129175" lon="13.261371022090316">
        <ele>476</ele>
        <time>2026-08-29T09:46:07Z</time>
      </trkpt>
      <trkpt lat="50.686660716310143" lon="13.261370519176126">
        <ele>476</ele>
        <time>2026-08-29T09:46:08Z</time>
      </trkpt>
      <trkpt lat="50.68666934967041" lon="13.261368172243237">
        <ele>477</ele>
        <time>2026-08-29T09:46:09Z</time>
      </trkpt>
      <trkpt lat="50.686676390469074" lon="13.261369513347745">
        <ele>477</ele>
        <time>2026-08-29T09:46:10Z</time>
      </trkpt>
      <trkpt lat="50.686676558107138" lon="13.26136926189065">
        <ele>477</ele>
        <time>2026-08-29T09:46:11Z</time>
      </trkpt>
      <trkpt lat="50.686676558107138" lon="13.261369178071618">
        <ele>477</ele>
        <time>2026-08-29T09:46:12Z</time>
      </trkpt>
      <trkpt lat="50.686676558107138" lon="13.26136926189065">
        <ele>477</ele>
        <time>2026-08-29T09:46:13Z</time>
      </trkpt>
      <trkpt lat="50.686676390469074" lon="13.261369680985808">
        <ele>477</ele>
        <time>2026-08-29T09:46:14Z</time>
      </trkpt>
      <trkpt lat="50.686675803735852" lon="13.26137856580317">
        <ele>477</ele>
        <time>2026-08-29T09:46:15Z</time>
      </trkpt>
      <trkpt lat="50.686675887554884" lon="13.261378817260265">
        <ele>477</ele>
        <time>2026-08-29T09:46:16Z</time>
      </trkpt>
      <trkpt lat="50.686675971373916" lon="13.261378230527043">
        <ele>477</ele>
        <time>2026-08-29T09:46:17Z</time>
      </trkpt>
      <trkpt lat="50.686676139011979" lon="13.261377476155758">
        <ele>477</ele>
        <time>2026-08-29T09:46:18Z</time>
      </trkpt>
      <trkpt lat="50.686676390469074" lon="13.261377224698663">
        <ele>477</ele>
        <time>2026-08-29T09:46:19Z</time>
      </trkpt>
      <trkpt lat="50.686676809564233" lon="13.261376554146409">
        <ele>477</ele>
        <time>2026-08-29T09:46:20Z</time>
      </trkpt>
      <trkpt lat="50.686677061021328" lon="13.26137613505125">
        <ele>477</ele>
        <time>2026-08-29T09:46:21Z</time>
      </trkpt>
      <trkpt lat="50.686677228659391" lon="13.26137613505125">
        <ele>477</ele>
        <time>2026-08-29T09:46:22Z</time>
      </trkpt>
      <trkpt lat="50.686677396297455" lon="13.26137613505125">
        <ele>477</ele>
        <time>2026-08-29T09:46:23Z</time>
      </trkpt>
      <trkpt lat="50.686677480116487" lon="13.261376302689314">
        <ele>477</ele>
        <time>2026-08-29T09:46:24Z</time>
      </trkpt>
      <trkpt lat="50.686677563935518" lon="13.261376386508346">
        <ele>477</ele>
        <time>2026-08-29T09:46:25Z</time>
      </trkpt>
      <trkpt lat="50.686680413782597" lon="13.2613839302212">
        <ele>477</ele>
        <time>2026-08-29T09:46:26Z</time>
      </trkpt>
      <trkpt lat="50.686677815392613" lon="13.261386193335056">
        <ele>476</ele>
        <time>2026-08-29T09:46:27Z</time>
      </trkpt>
      <trkpt lat="50.686672870069742" lon="13.261392479762435">
        <ele>476</ele>
        <time>2026-08-29T09:46:28Z</time>
      </trkpt>
      <trkpt lat="50.686667170375586" lon="13.26139809563756">
        <ele>475</ele>
        <time>2026-08-29T09:46:29Z</time>
      </trkpt>
      <trkpt lat="50.686667254194617" lon="13.261398179456592">
        <ele>475</ele>
        <time>2026-08-29T09:46:30Z</time>
      </trkpt>
      <trkpt lat="50.686667170375586" lon="13.261398263275623">
        <ele>475</ele>
        <time>2026-08-29T09:46:31Z</time>
      </trkpt>
      <trkpt lat="50.686668176203966" lon="13.261404884979129">
        <ele>475</ele>
        <time>2026-08-29T09:46:32Z</time>
      </trkpt>
      <trkpt lat="50.68666834384203" lon="13.261404801160097">
        <ele>475</ele>
        <time>2026-08-29T09:46:33Z</time>
      </trkpt>
      <trkpt lat="50.686668427661061" lon="13.261404884979129">
        <ele>475</ele>
        <time>2026-08-29T09:46:34Z</time>
      </trkpt>
      <trkpt lat="50.686668260022998" lon="13.261404801160097">
        <ele>475</ele>
        <time>2026-08-29T09:46:35Z</time>
      </trkpt>
      <trkpt lat="50.686668260022998" lon="13.261404884979129">
        <ele>475</ele>
        <time>2026-08-29T09:46:36Z</time>
      </trkpt>
      <trkpt lat="50.686668260022998" lon="13.261404717341065">
        <ele>475</ele>
        <time>2026-08-29T09:46:37Z</time>
      </trkpt>
      <trkpt lat="50.686668260022998" lon="13.261404801160097">
        <ele>475</ele>
        <time>2026-08-29T09:46:38Z</time>
      </trkpt>
      <trkpt lat="50.686668260022998" lon="13.261405136436224">
        <ele>475</ele>
        <time>2026-08-29T09:46:39Z</time>
      </trkpt>
      <trkpt lat="50.686668260022998" lon="13.261405304074287">
        <ele>475</ele>
        <time>2026-08-29T09:46:40Z</time>
      </trkpt>
      <trkpt lat="50.686668427661061" lon="13.261404549703002">
        <ele>475</ele>
        <time>2026-08-29T09:46:41Z</time>
      </trkpt>
      <trkpt lat="50.686668679118156" lon="13.261404884979129">
        <ele>475</ele>
        <time>2026-08-29T09:46:42Z</time>
      </trkpt>
      <trkpt lat="50.686668762937188" lon="13.261405220255256">
        <ele>475</ele>
        <time>2026-08-29T09:46:43Z</time>
      </trkpt>
      <trkpt lat="50.68666884675622" lon="13.261405471712351">
        <ele>475</ele>
        <time>2026-08-29T09:46:44Z</time>
      </trkpt>
      <trkpt lat="50.686668930575252" lon="13.261405723169446">
        <ele>475</ele>
        <time>2026-08-29T09:46:45Z</time>
      </trkpt>
      <trkpt lat="50.686668930575252" lon="13.261405890807509">
        <ele>475</ele>
        <time>2026-08-29T09:46:46Z</time>
      </trkpt>
      <trkpt lat="50.686668930575252" lon="13.261406142264605">
        <ele>475</ele>
        <time>2026-08-29T09:46:47Z</time>
      </trkpt>
      <trkpt lat="50.686668930575252" lon="13.261406226083636">
        <ele>475</ele>
        <time>2026-08-29T09:46:48Z</time>
      </trkpt>
      <trkpt lat="50.686668930575252" lon="13.261406728997827">
        <ele>475</ele>
        <time>2026-08-29T09:46:49Z</time>
      </trkpt>
      <trkpt lat="50.686665577813983" lon="13.261408489197493">
        <ele>474</ele>
        <time>2026-08-29T09:46:50Z</time>
      </trkpt>
      <trkpt lat="50.686665242537856" lon="13.261408573016524">
        <ele>474</ele>
        <time>2026-08-29T09:46:51Z</time>
      </trkpt>
      <trkpt lat="50.686660632491112" lon="13.261418379843235">
        <ele>474</ele>
        <time>2026-08-29T09:46:52Z</time>
      </trkpt>
      <trkpt lat="50.686659961938858" lon="13.261418966576457">
        <ele>474</ele>
        <time>2026-08-29T09:46:53Z</time>
      </trkpt>
      <trkpt lat="50.686654848977923" lon="13.261427180841565">
        <ele>473</ele>
        <time>2026-08-29T09:46:54Z</time>
      </trkpt>
      <trkpt lat="50.686648562550545" lon="13.261438831686974">
        <ele>473</ele>
        <time>2026-08-29T09:46:55Z</time>
      </trkpt>
      <trkpt lat="50.686644120141864" lon="13.261439418420196">
        <ele>473</ele>
        <time>2026-08-29T09:46:56Z</time>
      </trkpt>
      <trkpt lat="50.686644623056054" lon="13.261441262438893">
        <ele>473</ele>
        <time>2026-08-29T09:46:57Z</time>
      </trkpt>
      <trkpt lat="50.686641270294785" lon="13.261447213590145">
        <ele>474</ele>
        <time>2026-08-29T09:46:58Z</time>
      </trkpt>
      <trkpt lat="50.686638755723834" lon="13.261443441733718">
        <ele>474</ele>
        <time>2026-08-29T09:46:59Z</time>
      </trkpt>
      <trkpt lat="50.686638252809644" lon="13.26144352555275">
        <ele>474</ele>
        <time>2026-08-29T09:47:00Z</time>
      </trkpt>
      <trkpt lat="50.686638168990612" lon="13.261446626856923">
        <ele>474</ele>
        <time>2026-08-29T09:47:01Z</time>
      </trkpt>
      <trkpt lat="50.686638168990612" lon="13.261446710675955">
        <ele>474</ele>
        <time>2026-08-29T09:47:02Z</time>
      </trkpt>
      <trkpt lat="50.686638168990612" lon="13.261446878314018">
        <ele>474</ele>
        <time>2026-08-29T09:47:03Z</time>
      </trkpt>
      <trkpt lat="50.686638168990612" lon="13.261447297409177">
        <ele>474</ele>
        <time>2026-08-29T09:47:04Z</time>
      </trkpt>
      <trkpt lat="50.686637749895453" lon="13.261447632685304">
        <ele>474</ele>
        <time>2026-08-29T09:47:05Z</time>
      </trkpt>
      <trkpt lat="50.686628697440028" lon="13.261461043730378">
        <ele>475</ele>
        <time>2026-08-29T09:47:06Z</time>
      </trkpt>
      <trkpt lat="50.686628948897123" lon="13.26145919971168">
        <ele>475</ele>
        <time>2026-08-29T09:47:07Z</time>
      </trkpt>
      <trkpt lat="50.686628948897123" lon="13.261459451168776">
        <ele>475</ele>
        <time>2026-08-29T09:47:08Z</time>
      </trkpt>
      <trkpt lat="50.686632636934519" lon="13.261464312672615">
        <ele>475</ele>
        <time>2026-08-29T09:47:09Z</time>
      </trkpt>
      <trkpt lat="50.686635822057724" lon="13.261460876092315">
        <ele>476</ele>
        <time>2026-08-29T09:47:10Z</time>
      </trkpt>
      <trkpt lat="50.686644203960896" lon="13.261456601321697">
        <ele>475</ele>
        <time>2026-08-29T09:47:11Z</time>
      </trkpt>
      <trkpt lat="50.68664294667542" lon="13.261452158913016">
        <ele>476</ele>
        <time>2026-08-29T09:47:12Z</time>
      </trkpt>
      <trkpt lat="50.686643868684769" lon="13.26145333237946">
        <ele>476</ele>
        <time>2026-08-29T09:47:13Z</time>
      </trkpt>
      <trkpt lat="50.686645042151213" lon="13.261460037901998">
        <ele>476</ele>
        <time>2026-08-29T09:47:14Z</time>
      </trkpt>
      <trkpt lat="50.686643114313483" lon="13.261453835293651">
        <ele>475</ele>
        <time>2026-08-29T09:47:15Z</time>
      </trkpt>
      <trkpt lat="50.686642192304134" lon="13.261459786444902">
        <ele>475</ele>
        <time>2026-08-29T09:47:16Z</time>
      </trkpt>
      <trkpt lat="50.68664537742734" lon="13.261465737596154">
        <ele>475</ele>
        <time>2026-08-29T09:47:17Z</time>
      </trkpt>
      <trkpt lat="50.686645209789276" lon="13.261466072872281">
        <ele>475</ele>
        <time>2026-08-29T09:47:18Z</time>
      </trkpt>
      <trkpt lat="50.686645125970244" lon="13.26146649196744">
        <ele>475</ele>
        <time>2026-08-29T09:47:19Z</time>
      </trkpt>
      <trkpt lat="50.686645042151213" lon="13.261466408148408">
        <ele>475</ele>
        <time>2026-08-29T09:47:20Z</time>
      </trkpt>
      <trkpt lat="50.686645209789276" lon="13.261466575786471">
        <ele>475</ele>
        <time>2026-08-29T09:47:21Z</time>
      </trkpt>
      <trkpt lat="50.68664537742734" lon="13.261466575786471">
        <ele>475</ele>
        <time>2026-08-29T09:47:22Z</time>
      </trkpt>
      <trkpt lat="50.686645461246371" lon="13.261466575786471">
        <ele>475</ele>
        <time>2026-08-29T09:47:23Z</time>
      </trkpt>
      <trkpt lat="50.68664537742734" lon="13.261466072872281">
        <ele>475</ele>
        <time>2026-08-29T09:47:24Z</time>
      </trkpt>
      <trkpt lat="50.68664537742734" lon="13.261466072872281">
        <ele>475</ele>
        <time>2026-08-29T09:47:25Z</time>
      </trkpt>
      <trkpt lat="50.686645461246371" lon="13.261465989053249">
        <ele>475</ele>
        <time>2026-08-29T09:47:26Z</time>
      </trkpt>
      <trkpt lat="50.686645545065403" lon="13.261465989053249">
        <ele>475</ele>
        <time>2026-08-29T09:47:27Z</time>
      </trkpt>
      <trkpt lat="50.686641857028008" lon="13.261468838900328">
        <ele>475</ele>
        <time>2026-08-29T09:47:28Z</time>
      </trkpt>
      <trkpt lat="50.686635570600629" lon="13.261468755081296">
        <ele>475</ele>
        <time>2026-08-29T09:47:29Z</time>
      </trkpt>
      <trkpt lat="50.686635989695787" lon="13.261469006538391">
        <ele>475</ele>
        <time>2026-08-29T09:47:30Z</time>
      </trkpt>
      <trkpt lat="50.686636324971914" lon="13.261466240510345">
        <ele>476</ele>
        <time>2026-08-29T09:47:31Z</time>
      </trkpt>
      <trkpt lat="50.686635989695787" lon="13.261465821415186">
        <ele>476</ele>
        <time>2026-08-29T09:47:32Z</time>
      </trkpt>
      <trkpt lat="50.686639258638024" lon="13.261452075093985">
        <ele>476</ele>
        <time>2026-08-29T09:47:33Z</time>
      </trkpt>
      <trkpt lat="50.686635570600629" lon="13.261445285752416">
        <ele>477</ele>
        <time>2026-08-29T09:47:34Z</time>
      </trkpt>
      <trkpt lat="50.686635402962565" lon="13.261445704847574">
        <ele>477</ele>
        <time>2026-08-29T09:47:35Z</time>
      </trkpt>
      <trkpt lat="50.686635319143534" lon="13.261445704847574">
        <ele>477</ele>
        <time>2026-08-29T09:47:36Z</time>
      </trkpt>
      <trkpt lat="50.686633726581931" lon="13.261443777009845">
        <ele>477</ele>
        <time>2026-08-29T09:47:37Z</time>
      </trkpt>
      <trkpt lat="50.686633558943868" lon="13.26144402846694">
        <ele>477</ele>
        <time>2026-08-29T09:47:38Z</time>
      </trkpt>
      <trkpt lat="50.686633558943868" lon="13.261444112285972">
        <ele>477</ele>
        <time>2026-08-29T09:47:39Z</time>
      </trkpt>
      <trkpt lat="50.686633558943868" lon="13.261444196105003">
        <ele>477</ele>
        <time>2026-08-29T09:47:40Z</time>
      </trkpt>
      <trkpt lat="50.686623835936189" lon="13.261449560523033">
        <ele>476</ele>
        <time>2026-08-29T09:47:41Z</time>
      </trkpt>
      <trkpt lat="50.686624171212316" lon="13.261449811980128">
        <ele>476</ele>
        <time>2026-08-29T09:47:42Z</time>
      </trkpt>
      <trkpt lat="50.686624171212316" lon="13.261450314894319">
        <ele>476</ele>
        <time>2026-08-29T09:47:43Z</time>
      </trkpt>
      <trkpt lat="50.686620566993952" lon="13.26145576313138">
        <ele>476</ele>
        <time>2026-08-29T09:47:44Z</time>
      </trkpt>
      <trkpt lat="50.686620566993952" lon="13.261455511674285">
        <ele>476</ele>
        <time>2026-08-29T09:47:45Z</time>
      </trkpt>
      <trkpt lat="50.68662048317492" lon="13.26145576313138">
        <ele>476</ele>
        <time>2026-08-29T09:47:46Z</time>
      </trkpt>
      <trkpt lat="50.686620399355888" lon="13.261455930769444">
        <ele>476</ele>
        <time>2026-08-29T09:47:47Z</time>
      </trkpt>
      <trkpt lat="50.686620902270079" lon="13.26145039871335">
        <ele>476</ele>
        <time>2026-08-29T09:47:48Z</time>
      </trkpt>
      <trkpt lat="50.686624841764569" lon="13.261454757302999">
        <ele>476</ele>
        <time>2026-08-29T09:47:49Z</time>
      </trkpt>
      <trkpt lat="50.68662584759295" lon="13.2614581938833">
        <ele>476</ele>
        <time>2026-08-29T09:47:50Z</time>
      </trkpt>
      <trkpt lat="50.68662241101265" lon="13.261451739817858">
        <ele>477</ele>
        <time>2026-08-29T09:47:51Z</time>
      </trkpt>
      <trkpt lat="50.686618052423" lon="13.261460373178124">
        <ele>476</ele>
        <time>2026-08-29T09:47:52Z</time>
      </trkpt>
      <trkpt lat="50.686612268909812" lon="13.261451991274953">
        <ele>477</ele>
        <time>2026-08-29T09:47:53Z</time>
      </trkpt>
      <trkpt lat="50.686601372435689" lon="13.261445872485638">
        <ele>476</ele>
        <time>2026-08-29T09:47:54Z</time>
      </trkpt>
      <trkpt lat="50.686593409627676" lon="13.261438915506005">
        <ele>476</ele>
        <time>2026-08-29T09:47:55Z</time>
      </trkpt>
      <trkpt lat="50.68659408017993" lon="13.261436736211181">
        <ele>477</ele>
        <time>2026-08-29T09:47:56Z</time>
      </trkpt>
      <trkpt lat="50.686593828722835" lon="13.261436736211181">
        <ele>477</ele>
        <time>2026-08-29T09:47:57Z</time>
      </trkpt>
      <trkpt lat="50.686593828722835" lon="13.261436568573117">
        <ele>477</ele>
        <time>2026-08-29T09:47:58Z</time>
      </trkpt>
      <trkpt lat="50.686593577265739" lon="13.261436652392149">
        <ele>477</ele>
        <time>2026-08-29T09:47:59Z</time>
      </trkpt>
      <trkpt lat="50.686593409627676" lon="13.261436903849244">
        <ele>477</ele>
        <time>2026-08-29T09:48:00Z</time>
      </trkpt>
      <trkpt lat="50.686593241989613" lon="13.261437155306339">
        <ele>477</ele>
        <time>2026-08-29T09:48:01Z</time>
      </trkpt>
      <trkpt lat="50.686593493446708" lon="13.261437322944403">
        <ele>477</ele>
        <time>2026-08-29T09:48:02Z</time>
      </trkpt>
      <trkpt lat="50.686593661084771" lon="13.261437322944403">
        <ele>477</ele>
        <time>2026-08-29T09:48:03Z</time>
      </trkpt>
      <trkpt lat="50.686593828722835" lon="13.261437071487308">
        <ele>477</ele>
        <time>2026-08-29T09:48:04Z</time>
      </trkpt>
      <trkpt lat="50.686593828722835" lon="13.261437322944403">
        <ele>477</ele>
        <time>2026-08-29T09:48:05Z</time>
      </trkpt>
      <trkpt lat="50.68659408017993" lon="13.261437490582466">
        <ele>477</ele>
        <time>2026-08-29T09:48:06Z</time>
      </trkpt>
      <trkpt lat="50.686594666913152" lon="13.261436987668276">
        <ele>477</ele>
        <time>2026-08-29T09:48:07Z</time>
      </trkpt>
      <trkpt lat="50.686594918370247" lon="13.261436987668276">
        <ele>477</ele>
        <time>2026-08-29T09:48:08Z</time>
      </trkpt>
      <trkpt lat="50.686595002189279" lon="13.261436652392149">
        <ele>477</ele>
        <time>2026-08-29T09:48:09Z</time>
      </trkpt>
      <trkpt lat="50.686595421284437" lon="13.261436317116022">
        <ele>477</ele>
        <time>2026-08-29T09:48:10Z</time>
      </trkpt>
      <trkpt lat="50.686595756560564" lon="13.2614357303828">
        <ele>477</ele>
        <time>2026-08-29T09:48:11Z</time>
      </trkpt>
      <trkpt lat="50.686595840379596" lon="13.261435395106673">
        <ele>477</ele>
        <time>2026-08-29T09:48:12Z</time>
      </trkpt>
      <trkpt lat="50.686596008017659" lon="13.261434808373451">
        <ele>477</ele>
        <time>2026-08-29T09:48:13Z</time>
      </trkpt>
      <trkpt lat="50.686596259474754" lon="13.261434054002166">
        <ele>477</ele>
        <time>2026-08-29T09:48:14Z</time>
      </trkpt>
      <trkpt lat="50.686596427112818" lon="13.261433634907007">
        <ele>477</ele>
        <time>2026-08-29T09:48:15Z</time>
      </trkpt>
      <trkpt lat="50.686596678569913" lon="13.261433131992817">
        <ele>477</ele>
        <time>2026-08-29T09:48:16Z</time>
      </trkpt>
      <trkpt lat="50.686596930027008" lon="13.261432629078627">
        <ele>477</ele>
        <time>2026-08-29T09:48:17Z</time>
      </trkpt>
      <trkpt lat="50.686596930027008" lon="13.261432629078627">
        <ele>477</ele>
        <time>2026-08-29T09:48:18Z</time>
      </trkpt>
      <trkpt lat="50.686597097665071" lon="13.2614322938025">
        <ele>477</ele>
        <time>2026-08-29T09:48:19Z</time>
      </trkpt>
      <trkpt lat="50.686597181484103" lon="13.261432209983468">
        <ele>477</ele>
        <time>2026-08-29T09:48:20Z</time>
      </trkpt>
      <trkpt lat="50.686597265303135" lon="13.261432461440563">
        <ele>477</ele>
        <time>2026-08-29T09:48:21Z</time>
      </trkpt>
      <trkpt lat="50.686597265303135" lon="13.261433048173785">
        <ele>477</ele>
        <time>2026-08-29T09:48:22Z</time>
      </trkpt>
      <trkpt lat="50.686597181484103" lon="13.261433383449912">
        <ele>477</ele>
        <time>2026-08-29T09:48:23Z</time>
      </trkpt>
      <trkpt lat="50.686597349122167" lon="13.261433383449912">
        <ele>477</ele>
        <time>2026-08-29T09:48:24Z</time>
      </trkpt>
      <trkpt lat="50.686597349122167" lon="13.261433467268944">
        <ele>477</ele>
        <time>2026-08-29T09:48:25Z</time>
      </trkpt>
      <trkpt lat="50.686597265303135" lon="13.261433634907007">
        <ele>477</ele>
        <time>2026-08-29T09:48:26Z</time>
      </trkpt>
      <trkpt lat="50.686597349122167" lon="13.261433970183134">
        <ele>477</ele>
        <time>2026-08-29T09:48:27Z</time>
      </trkpt>
      <trkpt lat="50.686597432941198" lon="13.261434305459261">
        <ele>477</ele>
        <time>2026-08-29T09:48:28Z</time>
      </trkpt>
      <trkpt lat="50.686597600579262" lon="13.261434556916356">
        <ele>477</ele>
        <time>2026-08-29T09:48:29Z</time>
      </trkpt>
      <trkpt lat="50.686597768217325" lon="13.261434640735388">
        <ele>477</ele>
        <time>2026-08-29T09:48:30Z</time>
      </trkpt>
      <trkpt lat="50.68659801967442" lon="13.261435059830546">
        <ele>477</ele>
        <time>2026-08-29T09:48:31Z</time>
      </trkpt>
      <trkpt lat="50.686598271131516" lon="13.26143522746861">
        <ele>477</ele>
        <time>2026-08-29T09:48:32Z</time>
      </trkpt>
      <trkpt lat="50.686598271131516" lon="13.261435478925705">
        <ele>477</ele>
        <time>2026-08-29T09:48:33Z</time>
      </trkpt>
      <trkpt lat="50.686598438769579" lon="13.261435646563768">
        <ele>477</ele>
        <time>2026-08-29T09:48:34Z</time>
      </trkpt>
      <trkpt lat="50.686598271131516" lon="13.26143623329699">
        <ele>477</ele>
        <time>2026-08-29T09:48:35Z</time>
      </trkpt>
      <trkpt lat="50.686598438769579" lon="13.261436400935054">
        <ele>477</ele>
        <time>2026-08-29T09:48:36Z</time>
      </trkpt>
      <trkpt lat="50.686598522588611" lon="13.261436568573117">
        <ele>477</ele>
        <time>2026-08-29T09:48:37Z</time>
      </trkpt>
      <trkpt lat="50.686598606407642" lon="13.261436820030212">
        <ele>477</ele>
        <time>2026-08-29T09:48:38Z</time>
      </trkpt>
      <trkpt lat="50.686598690226674" lon="13.261436820030212">
        <ele>477</ele>
        <time>2026-08-29T09:48:39Z</time>
      </trkpt>
      <trkpt lat="50.686598941683769" lon="13.261436903849244">
        <ele>477</ele>
        <time>2026-08-29T09:48:40Z</time>
      </trkpt>
      <trkpt lat="50.686599109321833" lon="13.261437071487308">
        <ele>477</ele>
        <time>2026-08-29T09:48:41Z</time>
      </trkpt>
      <trkpt lat="50.686599360778928" lon="13.261437406763434">
        <ele>477</ele>
        <time>2026-08-29T09:48:42Z</time>
      </trkpt>
      <trkpt lat="50.686599528416991" lon="13.26143765822053">
        <ele>477</ele>
        <time>2026-08-29T09:48:43Z</time>
      </trkpt>
      <trkpt lat="50.686599779874086" lon="13.261437993496656">
        <ele>477</ele>
        <time>2026-08-29T09:48:44Z</time>
      </trkpt>
      <trkpt lat="50.68659994751215" lon="13.261438328772783">
        <ele>477</ele>
        <time>2026-08-29T09:48:45Z</time>
      </trkpt>
      <trkpt lat="50.686600115150213" lon="13.261438580229878">
        <ele>477</ele>
        <time>2026-08-29T09:48:46Z</time>
      </trkpt>
      <trkpt lat="50.686600198969245" lon="13.261439083144069">
        <ele>477</ele>
        <time>2026-08-29T09:48:47Z</time>
      </trkpt>
      <trkpt lat="50.68660045042634" lon="13.261439502239227">
        <ele>478</ele>
        <time>2026-08-29T09:48:48Z</time>
      </trkpt>
      <trkpt lat="50.68660045042634" lon="13.261439669877291">
        <ele>478</ele>
        <time>2026-08-29T09:48:49Z</time>
      </trkpt>
      <trkpt lat="50.686600701883435" lon="13.261440005153418">
        <ele>478</ele>
        <time>2026-08-29T09:48:50Z</time>
      </trkpt>
      <trkpt lat="50.686600701883435" lon="13.26144059188664">
        <ele>478</ele>
        <time>2026-08-29T09:48:51Z</time>
      </trkpt>
      <trkpt lat="50.686600869521499" lon="13.26144109480083">
        <ele>478</ele>
        <time>2026-08-29T09:48:52Z</time>
      </trkpt>
      <trkpt lat="50.686601037159562" lon="13.26144159771502">
        <ele>478</ele>
        <time>2026-08-29T09:48:53Z</time>
      </trkpt>
      <trkpt lat="50.686601120978594" lon="13.261441849172115">
        <ele>478</ele>
        <time>2026-08-29T09:48:54Z</time>
      </trkpt>
      <trkpt lat="50.686601204797626" lon="13.261441932991147">
        <ele>478</ele>
        <time>2026-08-29T09:48:55Z</time>
      </trkpt>
      <trkpt lat="50.686601288616657" lon="13.261441932991147">
        <ele>478</ele>
        <time>2026-08-29T09:48:56Z</time>
      </trkpt>
      <trkpt lat="50.686601120978594" lon="13.261442016810179">
        <ele>478</ele>
        <time>2026-08-29T09:48:57Z</time>
      </trkpt>
      <trkpt lat="50.686600869521499" lon="13.261442184448242">
        <ele>478</ele>
        <time>2026-08-29T09:48:58Z</time>
      </trkpt>
      <trkpt lat="50.686600869521499" lon="13.26144210062921">
        <ele>478</ele>
        <time>2026-08-29T09:48:59Z</time>
      </trkpt>
      <trkpt lat="50.686601037159562" lon="13.261442016810179">
        <ele>478</ele>
        <time>2026-08-29T09:49:00Z</time>
      </trkpt>
      <trkpt lat="50.686601372435689" lon="13.261441849172115">
        <ele>478</ele>
        <time>2026-08-29T09:49:01Z</time>
      </trkpt>
      <trkpt lat="50.686601540073752" lon="13.26144159771502">
        <ele>478</ele>
        <time>2026-08-29T09:49:02Z</time>
      </trkpt>
      <trkpt lat="50.686601791530848" lon="13.261441681534052">
        <ele>478</ele>
        <time>2026-08-29T09:49:03Z</time>
      </trkpt>
      <trkpt lat="50.686601791530848" lon="13.261441513895988">
        <ele>478</ele>
        <time>2026-08-29T09:49:04Z</time>
      </trkpt>
      <trkpt lat="50.686601959168911" lon="13.261441346257925">
        <ele>478</ele>
        <time>2026-08-29T09:49:05Z</time>
      </trkpt>
      <trkpt lat="50.686602210626006" lon="13.261441178619862">
        <ele>478</ele>
        <time>2026-08-29T09:49:06Z</time>
      </trkpt>
      <trkpt lat="50.68660237826407" lon="13.261441178619862">
        <ele>478</ele>
        <time>2026-08-29T09:49:07Z</time>
      </trkpt>
      <trkpt lat="50.686602629721165" lon="13.261441178619862">
        <ele>478</ele>
        <time>2026-08-29T09:49:08Z</time>
      </trkpt>
      <trkpt lat="50.68660288117826" lon="13.261441513895988">
        <ele>478</ele>
        <time>2026-08-29T09:49:09Z</time>
      </trkpt>
      <trkpt lat="50.686603132635355" lon="13.26144159771502">
        <ele>478</ele>
        <time>2026-08-29T09:49:10Z</time>
      </trkpt>
      <trkpt lat="50.686603467911482" lon="13.261441849172115">
        <ele>478</ele>
        <time>2026-08-29T09:49:11Z</time>
      </trkpt>
      <trkpt lat="50.686603551730514" lon="13.261441932991147">
        <ele>478</ele>
        <time>2026-08-29T09:49:12Z</time>
      </trkpt>
      <trkpt lat="50.68660388700664" lon="13.261441681534052">
        <ele>478</ele>
        <time>2026-08-29T09:49:13Z</time>
      </trkpt>
      <trkpt lat="50.686604222282767" lon="13.261441932991147">
        <ele>478</ele>
        <time>2026-08-29T09:49:14Z</time>
      </trkpt>
      <trkpt lat="50.686604306101799" lon="13.261441849172115">
        <ele>478</ele>
        <time>2026-08-29T09:49:15Z</time>
      </trkpt>
      <trkpt lat="50.686604641377926" lon="13.261441932991147">
        <ele>478</ele>
        <time>2026-08-29T09:49:16Z</time>
      </trkpt>
      <trkpt lat="50.686604809015989" lon="13.261441681534052">
        <ele>478</ele>
        <time>2026-08-29T09:49:17Z</time>
      </trkpt>
      <trkpt lat="50.686604892835021" lon="13.261441681534052">
        <ele>478</ele>
        <time>2026-08-29T09:49:18Z</time>
      </trkpt>
      <trkpt lat="50.686605060473084" lon="13.261441430076957">
        <ele>478</ele>
        <time>2026-08-29T09:49:19Z</time>
      </trkpt>
      <trkpt lat="50.686604809015989" lon="13.261441430076957">
        <ele>478</ele>
        <time>2026-08-29T09:49:20Z</time>
      </trkpt>
      <trkpt lat="50.686604809015989" lon="13.261441681534052">
        <ele>478</ele>
        <time>2026-08-29T09:49:21Z</time>
      </trkpt>
      <trkpt lat="50.686604809015989" lon="13.261441681534052">
        <ele>478</ele>
        <time>2026-08-29T09:49:22Z</time>
      </trkpt>
      <trkpt lat="50.686604641377926" lon="13.26144210062921">
        <ele>478</ele>
        <time>2026-08-29T09:49:23Z</time>
      </trkpt>
      <trkpt lat="50.686604641377926" lon="13.261442268267274">
        <ele>478</ele>
        <time>2026-08-29T09:49:24Z</time>
      </trkpt>
      <trkpt lat="50.686604389920831" lon="13.261442519724369">
        <ele>478</ele>
        <time>2026-08-29T09:49:25Z</time>
      </trkpt>
      <trkpt lat="50.686604306101799" lon="13.261442855000496">
        <ele>478</ele>
        <time>2026-08-29T09:49:26Z</time>
      </trkpt>
      <trkpt lat="50.686604389920831" lon="13.261443357914686">
        <ele>478</ele>
        <time>2026-08-29T09:49:27Z</time>
      </trkpt>
      <trkpt lat="50.686604138463736" lon="13.261443693190813">
        <ele>478</ele>
        <time>2026-08-29T09:49:28Z</time>
      </trkpt>
      <trkpt lat="50.686604138463736" lon="13.261444112285972">
        <ele>478</ele>
        <time>2026-08-29T09:49:29Z</time>
      </trkpt>
      <trkpt lat="50.686604138463736" lon="13.261444363743067">
        <ele>478</ele>
        <time>2026-08-29T09:49:30Z</time>
      </trkpt>
      <trkpt lat="50.686604138463736" lon="13.261444699019194">
        <ele>478</ele>
        <time>2026-08-29T09:49:31Z</time>
      </trkpt>
      <trkpt lat="50.686604222282767" lon="13.261444866657257">
        <ele>478</ele>
        <time>2026-08-29T09:49:32Z</time>
      </trkpt>
      <trkpt lat="50.686604054644704" lon="13.261445285752416">
        <ele>478</ele>
        <time>2026-08-29T09:49:33Z</time>
      </trkpt>
      <trkpt lat="50.686603803187609" lon="13.261445621028543">
        <ele>478</ele>
        <time>2026-08-29T09:49:34Z</time>
      </trkpt>
      <trkpt lat="50.686603719368577" lon="13.261445788666606">
        <ele>478</ele>
        <time>2026-08-29T09:49:35Z</time>
      </trkpt>
      <trkpt lat="50.686603635549545" lon="13.261446040123701">
        <ele>478</ele>
        <time>2026-08-29T09:49:36Z</time>
      </trkpt>
      <trkpt lat="50.686603551730514" lon="13.261445788666606">
        <ele>478</ele>
        <time>2026-08-29T09:49:37Z</time>
      </trkpt>
      <trkpt lat="50.686603551730514" lon="13.261446123942733">
        <ele>478</ele>
        <time>2026-08-29T09:49:38Z</time>
      </trkpt>
      <trkpt lat="50.686603970825672" lon="13.261446291580796">
        <ele>478</ele>
        <time>2026-08-29T09:49:39Z</time>
      </trkpt>
      <trkpt lat="50.686604306101799" lon="13.261446375399828">
        <ele>478</ele>
        <time>2026-08-29T09:49:40Z</time>
      </trkpt>
      <trkpt lat="50.686604557558894" lon="13.26144645921886">
        <ele>478</ele>
        <time>2026-08-29T09:49:41Z</time>
      </trkpt>
      <trkpt lat="50.686604809015989" lon="13.261446375399828">
        <ele>478</ele>
        <time>2026-08-29T09:49:42Z</time>
      </trkpt>
      <trkpt lat="50.686604892835021" lon="13.261446291580796">
        <ele>478</ele>
        <time>2026-08-29T09:49:43Z</time>
      </trkpt>
      <trkpt lat="50.686605228111148" lon="13.261446207761765">
        <ele>478</ele>
        <time>2026-08-29T09:49:44Z</time>
      </trkpt>
      <trkpt lat="50.686605563387275" lon="13.261446040123701">
        <ele>478</ele>
        <time>2026-08-29T09:49:45Z</time>
      </trkpt>
      <trkpt lat="50.686605647206306" lon="13.261446040123701">
        <ele>478</ele>
        <time>2026-08-29T09:49:46Z</time>
      </trkpt>
      <trkpt lat="50.686605731025338" lon="13.261446123942733">
        <ele>478</ele>
        <time>2026-08-29T09:49:47Z</time>
      </trkpt>
      <trkpt lat="50.686605982482433" lon="13.261446207761765">
        <ele>478</ele>
        <time>2026-08-29T09:49:48Z</time>
      </trkpt>
      <trkpt lat="50.686605982482433" lon="13.26144645921886">
        <ele>478</ele>
        <time>2026-08-29T09:49:49Z</time>
      </trkpt>
      <trkpt lat="50.686605982482433" lon="13.261446543037891">
        <ele>478</ele>
        <time>2026-08-29T09:49:50Z</time>
      </trkpt>
      <trkpt lat="50.686605898663402" lon="13.261446626856923">
        <ele>478</ele>
        <time>2026-08-29T09:49:51Z</time>
      </trkpt>
      <trkpt lat="50.686606150120497" lon="13.261446543037891">
        <ele>478</ele>
        <time>2026-08-29T09:49:52Z</time>
      </trkpt>
      <trkpt lat="50.686606401577592" lon="13.261446794494987">
        <ele>478</ele>
        <time>2026-08-29T09:49:53Z</time>
      </trkpt>
      <trkpt lat="50.686606401577592" lon="13.261447045952082">
        <ele>478</ele>
        <time>2026-08-29T09:49:54Z</time>
      </trkpt>
      <trkpt lat="50.68660682067275" lon="13.261446626856923">
        <ele>478</ele>
        <time>2026-08-29T09:49:55Z</time>
      </trkpt>
      <trkpt lat="50.686606988310814" lon="13.26144645921886">
        <ele>478</ele>
        <time>2026-08-29T09:49:56Z</time>
      </trkpt>
      <trkpt lat="50.686607239767909" lon="13.261446794494987">
        <ele>478</ele>
        <time>2026-08-29T09:49:57Z</time>
      </trkpt>
      <trkpt lat="50.686606988310814" lon="13.26144696213305">
        <ele>478</ele>
        <time>2026-08-29T09:49:58Z</time>
      </trkpt>
      <trkpt lat="50.686607072129846" lon="13.261446794494987">
        <ele>478</ele>
        <time>2026-08-29T09:49:59Z</time>
      </trkpt>
      <trkpt lat="50.686606988310814" lon="13.261446794494987">
        <ele>478</ele>
        <time>2026-08-29T09:50:00Z</time>
      </trkpt>
      <trkpt lat="50.686606736853719" lon="13.26144696213305">
        <ele>478</ele>
        <time>2026-08-29T09:50:01Z</time>
      </trkpt>
      <trkpt lat="50.68660682067275" lon="13.261447213590145">
        <ele>478</ele>
        <time>2026-08-29T09:50:02Z</time>
      </trkpt>
      <trkpt lat="50.686606653034687" lon="13.26144746504724">
        <ele>478</ele>
        <time>2026-08-29T09:50:03Z</time>
      </trkpt>
      <trkpt lat="50.686606401577592" lon="13.261447716504335">
        <ele>478</ele>
        <time>2026-08-29T09:50:04Z</time>
      </trkpt>
      <trkpt lat="50.686606653034687" lon="13.261447632685304">
        <ele>478</ele>
        <time>2026-08-29T09:50:05Z</time>
      </trkpt>
      <trkpt lat="50.68660682067275" lon="13.261447800323367">
        <ele>478</ele>
        <time>2026-08-29T09:50:06Z</time>
      </trkpt>
      <trkpt lat="50.686606988310814" lon="13.261448135599494">
        <ele>478</ele>
        <time>2026-08-29T09:50:07Z</time>
      </trkpt>
      <trkpt lat="50.686607072129846" lon="13.261448470875621">
        <ele>478</ele>
        <time>2026-08-29T09:50:08Z</time>
      </trkpt>
      <trkpt lat="50.686607239767909" lon="13.261448638513684">
        <ele>478</ele>
        <time>2026-08-29T09:50:09Z</time>
      </trkpt>
      <trkpt lat="50.686607491225004" lon="13.261448470875621">
        <ele>478</ele>
        <time>2026-08-29T09:50:10Z</time>
      </trkpt>
      <trkpt lat="50.686607826501131" lon="13.261448303237557">
        <ele>478</ele>
        <time>2026-08-29T09:50:11Z</time>
      </trkpt>
      <trkpt lat="50.686608077958226" lon="13.261448135599494">
        <ele>478</ele>
        <time>2026-08-29T09:50:12Z</time>
      </trkpt>
      <trkpt lat="50.68660824559629" lon="13.261448135599494">
        <ele>478</ele>
        <time>2026-08-29T09:50:13Z</time>
      </trkpt>
      <trkpt lat="50.686608580872416" lon="13.261448051780462">
        <ele>478</ele>
        <time>2026-08-29T09:50:14Z</time>
      </trkpt>
      <trkpt lat="50.68660874851048" lon="13.261448219418526">
        <ele>478</ele>
        <time>2026-08-29T09:50:15Z</time>
      </trkpt>
      <trkpt lat="50.686608916148543" lon="13.261448051780462">
        <ele>478</ele>
        <time>2026-08-29T09:50:16Z</time>
      </trkpt>
      <trkpt lat="50.686609167605639" lon="13.261448219418526">
        <ele>478</ele>
        <time>2026-08-29T09:50:17Z</time>
      </trkpt>
      <trkpt lat="50.686609419062734" lon="13.261448387056589">
        <ele>478</ele>
        <time>2026-08-29T09:50:18Z</time>
      </trkpt>
      <trkpt lat="50.686609502881765" lon="13.261448219418526">
        <ele>478</ele>
        <time>2026-08-29T09:50:19Z</time>
      </trkpt>
      <trkpt lat="50.686609921976924" lon="13.261448051780462">
        <ele>478</ele>
        <time>2026-08-29T09:50:20Z</time>
      </trkpt>
      <trkpt lat="50.686610089614987" lon="13.261447548866272">
        <ele>478</ele>
        <time>2026-08-29T09:50:21Z</time>
      </trkpt>
      <trkpt lat="50.686610089614987" lon="13.261447381228209">
        <ele>478</ele>
        <time>2026-08-29T09:50:22Z</time>
      </trkpt>
      <trkpt lat="50.686610341072083" lon="13.261447129771113">
        <ele>478</ele>
        <time>2026-08-29T09:50:23Z</time>
      </trkpt>
      <trkpt lat="50.686610341072083" lon="13.26144696213305">
        <ele>478</ele>
        <time>2026-08-29T09:50:24Z</time>
      </trkpt>
      <trkpt lat="50.686610508710146" lon="13.26144696213305">
        <ele>478</ele>
        <time>2026-08-29T09:50:25Z</time>
      </trkpt>
      <trkpt lat="50.686610592529178" lon="13.261447045952082">
        <ele>478</ele>
        <time>2026-08-29T09:50:26Z</time>
      </trkpt>
      <trkpt lat="50.686610592529178" lon="13.261446878314018">
        <ele>478</ele>
        <time>2026-08-29T09:50:27Z</time>
      </trkpt>
      <trkpt lat="50.686610760167241" lon="13.261446794494987">
        <ele>478</ele>
        <time>2026-08-29T09:50:28Z</time>
      </trkpt>
      <trkpt lat="50.686610760167241" lon="13.261446710675955">
        <ele>478</ele>
        <time>2026-08-29T09:50:29Z</time>
      </trkpt>
      <trkpt lat="50.686610760167241" lon="13.26144645921886">
        <ele>478</ele>
        <time>2026-08-29T09:50:30Z</time>
      </trkpt>
      <trkpt lat="50.686610927805305" lon="13.261445788666606">
        <ele>478</ele>
        <time>2026-08-29T09:50:31Z</time>
      </trkpt>
      <trkpt lat="50.686611011624336" lon="13.261445788666606">
        <ele>478</ele>
        <time>2026-08-29T09:50:32Z</time>
      </trkpt>
      <trkpt lat="50.686611011624336" lon="13.261445621028543">
        <ele>478</ele>
        <time>2026-08-29T09:50:33Z</time>
      </trkpt>
      <trkpt lat="50.686611095443368" lon="13.261445453390479">
        <ele>478</ele>
        <time>2026-08-29T09:50:34Z</time>
      </trkpt>
      <trkpt lat="50.686611263081431" lon="13.261445201933384">
        <ele>478</ele>
        <time>2026-08-29T09:50:35Z</time>
      </trkpt>
      <trkpt lat="50.686611598357558" lon="13.261444866657257">
        <ele>478</ele>
        <time>2026-08-29T09:50:36Z</time>
      </trkpt>
      <trkpt lat="50.686611765995622" lon="13.261444447562099">
        <ele>478</ele>
        <time>2026-08-29T09:50:37Z</time>
      </trkpt>
      <trkpt lat="50.686611849814653" lon="13.26144402846694">
        <ele>478</ele>
        <time>2026-08-29T09:50:38Z</time>
      </trkpt>
      <trkpt lat="50.686612017452717" lon="13.26144402846694">
        <ele>478</ele>
        <time>2026-08-29T09:50:39Z</time>
      </trkpt>
      <trkpt lat="50.68661218509078" lon="13.26144352555275">
        <ele>478</ele>
        <time>2026-08-29T09:50:40Z</time>
      </trkpt>
      <trkpt lat="50.686612352728844" lon="13.261442938819528">
        <ele>478</ele>
        <time>2026-08-29T09:50:41Z</time>
      </trkpt>
      <trkpt lat="50.686612520366907" lon="13.261442519724369">
        <ele>478</ele>
        <time>2026-08-29T09:50:42Z</time>
      </trkpt>
      <trkpt lat="50.686612771824002" lon="13.26144210062921">
        <ele>478</ele>
        <time>2026-08-29T09:50:43Z</time>
      </trkpt>
      <trkpt lat="50.686613023281097" lon="13.26144159771502">
        <ele>478</ele>
        <time>2026-08-29T09:50:44Z</time>
      </trkpt>
      <trkpt lat="50.686613358557224" lon="13.26144109480083">
        <ele>478</ele>
        <time>2026-08-29T09:50:45Z</time>
      </trkpt>
      <trkpt lat="50.686613610014319" lon="13.261440508067608">
        <ele>478</ele>
        <time>2026-08-29T09:50:46Z</time>
      </trkpt>
      <trkpt lat="50.686614029109478" lon="13.261439921334386">
        <ele>478</ele>
        <time>2026-08-29T09:50:47Z</time>
      </trkpt>
      <trkpt lat="50.68661411292851" lon="13.261439418420196">
        <ele>478</ele>
        <time>2026-08-29T09:50:48Z</time>
      </trkpt>
      <trkpt lat="50.686614532023668" lon="13.261438999325037">
        <ele>478</ele>
        <time>2026-08-29T09:50:49Z</time>
      </trkpt>
      <trkpt lat="50.686614951118827" lon="13.261438747867942">
        <ele>478</ele>
        <time>2026-08-29T09:50:50Z</time>
      </trkpt>
      <trkpt lat="50.686615202575922" lon="13.261438496410847">
        <ele>478</ele>
        <time>2026-08-29T09:50:51Z</time>
      </trkpt>
      <trkpt lat="50.686615621671081" lon="13.26143816113472">
        <ele>478</ele>
        <time>2026-08-29T09:50:52Z</time>
      </trkpt>
      <trkpt lat="50.686615956947207" lon="13.261437825858593">
        <ele>478</ele>
        <time>2026-08-29T09:50:53Z</time>
      </trkpt>
      <trkpt lat="50.686616292223334" lon="13.261437574401498">
        <ele>478</ele>
        <time>2026-08-29T09:50:54Z</time>
      </trkpt>
      <trkpt lat="50.686616543680429" lon="13.261437155306339">
        <ele>478</ele>
        <time>2026-08-29T09:50:55Z</time>
      </trkpt>
      <trkpt lat="50.686616878956556" lon="13.261436987668276">
        <ele>478</ele>
        <time>2026-08-29T09:50:56Z</time>
      </trkpt>
      <trkpt lat="50.68661704659462" lon="13.261436903849244">
        <ele>478</ele>
        <time>2026-08-29T09:50:57Z</time>
      </trkpt>
      <trkpt lat="50.686617381870747" lon="13.261436652392149">
        <ele>478</ele>
        <time>2026-08-29T09:50:58Z</time>
      </trkpt>
      <trkpt lat="50.68661754950881" lon="13.261436484754086">
        <ele>478</ele>
        <time>2026-08-29T09:50:59Z</time>
      </trkpt>
      <trkpt lat="50.686617717146873" lon="13.261436317116022">
        <ele>478</ele>
        <time>2026-08-29T09:51:00Z</time>
      </trkpt>
      <trkpt lat="50.686617800965905" lon="13.261436317116022">
        <ele>478</ele>
        <time>2026-08-29T09:51:01Z</time>
      </trkpt>
      <trkpt lat="50.686617884784937" lon="13.261436484754086">
        <ele>478</ele>
        <time>2026-08-29T09:51:02Z</time>
      </trkpt>
      <trkpt lat="50.686618052423" lon="13.261436484754086">
        <ele>478</ele>
        <time>2026-08-29T09:51:03Z</time>
      </trkpt>
      <trkpt lat="50.686618220061064" lon="13.261436400935054">
        <ele>478</ele>
        <time>2026-08-29T09:51:04Z</time>
      </trkpt>
      <trkpt lat="50.686618387699127" lon="13.261436400935054">
        <ele>478</ele>
        <time>2026-08-29T09:51:05Z</time>
      </trkpt>
      <trkpt lat="50.686618639156222" lon="13.26143623329699">
        <ele>478</ele>
        <time>2026-08-29T09:51:06Z</time>
      </trkpt>
      <trkpt lat="50.686619058251381" lon="13.261435814201832">
        <ele>478</ele>
        <time>2026-08-29T09:51:07Z</time>
      </trkpt>
      <trkpt lat="50.686619309708476" lon="13.261435311287642">
        <ele>478</ele>
        <time>2026-08-29T09:51:08Z</time>
      </trkpt>
      <trkpt lat="50.686619561165571" lon="13.261435143649578">
        <ele>478</ele>
        <time>2026-08-29T09:51:09Z</time>
      </trkpt>
      <trkpt lat="50.686619728803635" lon="13.261434808373451">
        <ele>478</ele>
        <time>2026-08-29T09:51:10Z</time>
      </trkpt>
      <trkpt lat="50.686619728803635" lon="13.261434473097324">
        <ele>478</ele>
        <time>2026-08-29T09:51:11Z</time>
      </trkpt>
      <trkpt lat="50.68661998026073" lon="13.261433970183134">
        <ele>478</ele>
        <time>2026-08-29T09:51:12Z</time>
      </trkpt>
      <trkpt lat="50.68661998026073" lon="13.261433634907007">
        <ele>478</ele>
        <time>2026-08-29T09:51:13Z</time>
      </trkpt>
      <trkpt lat="50.686620147898793" lon="13.261433634907007">
        <ele>478</ele>
        <time>2026-08-29T09:51:14Z</time>
      </trkpt>
      <trkpt lat="50.686620231717825" lon="13.261433718726039">
        <ele>478</ele>
        <time>2026-08-29T09:51:15Z</time>
      </trkpt>
      <trkpt lat="50.686620399355888" lon="13.261433970183134">
        <ele>478</ele>
        <time>2026-08-29T09:51:16Z</time>
      </trkpt>
      <trkpt lat="50.686620315536857" lon="13.261433970183134">
        <ele>478</ele>
        <time>2026-08-29T09:51:17Z</time>
      </trkpt>
      <trkpt lat="50.686620399355888" lon="13.261433970183134">
        <ele>478</ele>
        <time>2026-08-29T09:51:18Z</time>
      </trkpt>
      <trkpt lat="50.686620315536857" lon="13.261433970183134">
        <ele>478</ele>
        <time>2026-08-29T09:51:19Z</time>
      </trkpt>
      <trkpt lat="50.686620399355888" lon="13.261434137821198">
        <ele>477</ele>
        <time>2026-08-29T09:51:20Z</time>
      </trkpt>
      <trkpt lat="50.686620399355888" lon="13.261434054002166">
        <ele>477</ele>
        <time>2026-08-29T09:51:21Z</time>
      </trkpt>
      <trkpt lat="50.686620566993952" lon="13.261434054002166">
        <ele>477</ele>
        <time>2026-08-29T09:51:22Z</time>
      </trkpt>
      <trkpt lat="50.686620734632015" lon="13.261433886364102">
        <ele>477</ele>
        <time>2026-08-29T09:51:23Z</time>
      </trkpt>
      <trkpt lat="50.686620818451047" lon="13.261433718726039">
        <ele>477</ele>
        <time>2026-08-29T09:51:24Z</time>
      </trkpt>
      <trkpt lat="50.686620902270079" lon="13.261433467268944">
        <ele>478</ele>
        <time>2026-08-29T09:51:25Z</time>
      </trkpt>
      <trkpt lat="50.686621069908142" lon="13.261433383449912">
        <ele>478</ele>
        <time>2026-08-29T09:51:26Z</time>
      </trkpt>
      <trkpt lat="50.686621069908142" lon="13.261433383449912">
        <ele>478</ele>
        <time>2026-08-29T09:51:27Z</time>
      </trkpt>
      <trkpt lat="50.686621237546206" lon="13.261433131992817">
        <ele>478</ele>
        <time>2026-08-29T09:51:28Z</time>
      </trkpt>
      <trkpt lat="50.686621321365237" lon="13.261432964354753">
        <ele>478</ele>
        <time>2026-08-29T09:51:29Z</time>
      </trkpt>
      <trkpt lat="50.686621321365237" lon="13.26143279671669">
        <ele>478</ele>
        <time>2026-08-29T09:51:30Z</time>
      </trkpt>
      <trkpt lat="50.686621489003301" lon="13.261432545259595">
        <ele>478</ele>
        <time>2026-08-29T09:51:31Z</time>
      </trkpt>
      <trkpt lat="50.686621572822332" lon="13.261432042345405">
        <ele>478</ele>
        <time>2026-08-29T09:51:32Z</time>
      </trkpt>
      <trkpt lat="50.686621740460396" lon="13.261431455612183">
        <ele>478</ele>
        <time>2026-08-29T09:51:33Z</time>
      </trkpt>
      <trkpt lat="50.686621908098459" lon="13.261431120336056">
        <ele>478</ele>
        <time>2026-08-29T09:51:34Z</time>
      </trkpt>
      <trkpt lat="50.686621824279428" lon="13.261431120336056">
        <ele>478</ele>
        <time>2026-08-29T09:51:35Z</time>
      </trkpt>
      <trkpt lat="50.686621908098459" lon="13.261430952697992">
        <ele>478</ele>
        <time>2026-08-29T09:51:36Z</time>
      </trkpt>
      <trkpt lat="50.686621824279428" lon="13.261430868878961">
        <ele>478</ele>
        <time>2026-08-29T09:51:37Z</time>
      </trkpt>
      <trkpt lat="50.686621824279428" lon="13.261430868878961">
        <ele>478</ele>
        <time>2026-08-29T09:51:38Z</time>
      </trkpt>
      <trkpt lat="50.686621908098459" lon="13.261430785059929">
        <ele>478</ele>
        <time>2026-08-29T09:51:39Z</time>
      </trkpt>
      <trkpt lat="50.686621908098459" lon="13.261430785059929">
        <ele>478</ele>
        <time>2026-08-29T09:51:40Z</time>
      </trkpt>
      <trkpt lat="50.686621991917491" lon="13.261430785059929">
        <ele>478</ele>
        <time>2026-08-29T09:51:41Z</time>
      </trkpt>
      <trkpt lat="50.686621991917491" lon="13.261430785059929">
        <ele>478</ele>
        <time>2026-08-29T09:51:42Z</time>
      </trkpt>
      <trkpt lat="50.686621908098459" lon="13.261430785059929">
        <ele>478</ele>
        <time>2026-08-29T09:51:43Z</time>
      </trkpt>
      <trkpt lat="50.686621908098459" lon="13.261430701240897">
        <ele>478</ele>
        <time>2026-08-29T09:51:44Z</time>
      </trkpt>
      <trkpt lat="50.686621908098459" lon="13.261430868878961">
        <ele>478</ele>
        <time>2026-08-29T09:51:45Z</time>
      </trkpt>
      <trkpt lat="50.686621908098459" lon="13.261430868878961">
        <ele>478</ele>
        <time>2026-08-29T09:51:46Z</time>
      </trkpt>
      <trkpt lat="50.686621908098459" lon="13.261430868878961">
        <ele>478</ele>
        <time>2026-08-29T09:51:47Z</time>
      </trkpt>
      <trkpt lat="50.686621908098459" lon="13.261430701240897">
        <ele>478</ele>
        <time>2026-08-29T09:51:48Z</time>
      </trkpt>
      <trkpt lat="50.686621824279428" lon="13.261430701240897">
        <ele>478</ele>
        <time>2026-08-29T09:51:49Z</time>
      </trkpt>
      <trkpt lat="50.686621824279428" lon="13.261430868878961">
        <ele>478</ele>
        <time>2026-08-29T09:51:50Z</time>
      </trkpt>
      <trkpt lat="50.686621908098459" lon="13.261430785059929">
        <ele>478</ele>
        <time>2026-08-29T09:51:51Z</time>
      </trkpt>
      <trkpt lat="50.686621991917491" lon="13.261430617421865">
        <ele>478</ele>
        <time>2026-08-29T09:51:52Z</time>
      </trkpt>
      <trkpt lat="50.686621991917491" lon="13.261430701240897">
        <ele>478</ele>
        <time>2026-08-29T09:51:53Z</time>
      </trkpt>
      <trkpt lat="50.686622159555554" lon="13.261430701240897">
        <ele>478</ele>
        <time>2026-08-29T09:51:54Z</time>
      </trkpt>
      <trkpt lat="50.686622159555554" lon="13.261430701240897">
        <ele>478</ele>
        <time>2026-08-29T09:51:55Z</time>
      </trkpt>
      <trkpt lat="50.686622327193618" lon="13.261430785059929">
        <ele>478</ele>
        <time>2026-08-29T09:51:56Z</time>
      </trkpt>
      <trkpt lat="50.68662241101265" lon="13.261430701240897">
        <ele>478</ele>
        <time>2026-08-29T09:51:57Z</time>
      </trkpt>
      <trkpt lat="50.68662241101265" lon="13.261430785059929">
        <ele>478</ele>
        <time>2026-08-29T09:51:58Z</time>
      </trkpt>
      <trkpt lat="50.686622578650713" lon="13.261430952697992">
        <ele>478</ele>
        <time>2026-08-29T09:51:59Z</time>
      </trkpt>
      <trkpt lat="50.686622578650713" lon="13.261431036517024">
        <ele>478</ele>
        <time>2026-08-29T09:52:00Z</time>
      </trkpt>
      <trkpt lat="50.686622662469745" lon="13.261431036517024">
        <ele>478</ele>
        <time>2026-08-29T09:52:01Z</time>
      </trkpt>
      <trkpt lat="50.686622662469745" lon="13.261430952697992">
        <ele>478</ele>
        <time>2026-08-29T09:52:02Z</time>
      </trkpt>
      <trkpt lat="50.686622578650713" lon="13.261430701240897">
        <ele>478</ele>
        <time>2026-08-29T09:52:03Z</time>
      </trkpt>
      <trkpt lat="50.686622662469745" lon="13.261430868878961">
        <ele>478</ele>
        <time>2026-08-29T09:52:04Z</time>
      </trkpt>
      <trkpt lat="50.686622746288776" lon="13.261430952697992">
        <ele>478</ele>
        <time>2026-08-29T09:52:05Z</time>
      </trkpt>
      <trkpt lat="50.686622662469745" lon="13.261431036517024">
        <ele>478</ele>
        <time>2026-08-29T09:52:06Z</time>
      </trkpt>
      <trkpt lat="50.686622746288776" lon="13.261431120336056">
        <ele>478</ele>
        <time>2026-08-29T09:52:07Z</time>
      </trkpt>
      <trkpt lat="50.686622746288776" lon="13.261431204155087">
        <ele>478</ele>
        <time>2026-08-29T09:52:08Z</time>
      </trkpt>
      <trkpt lat="50.686622578650713" lon="13.261431287974119">
        <ele>478</ele>
        <time>2026-08-29T09:52:09Z</time>
      </trkpt>
      <trkpt lat="50.686622578650713" lon="13.261431204155087">
        <ele>478</ele>
        <time>2026-08-29T09:52:10Z</time>
      </trkpt>
      <trkpt lat="50.686622494831681" lon="13.261431371793151">
        <ele>478</ele>
        <time>2026-08-29T09:52:11Z</time>
      </trkpt>
      <trkpt lat="50.68662241101265" lon="13.261431120336056">
        <ele>478</ele>
        <time>2026-08-29T09:52:12Z</time>
      </trkpt>
      <trkpt lat="50.686622243374586" lon="13.261430785059929">
        <ele>478</ele>
        <time>2026-08-29T09:52:13Z</time>
      </trkpt>
      <trkpt lat="50.686622075736523" lon="13.261430449783802">
        <ele>478</ele>
        <time>2026-08-29T09:52:14Z</time>
      </trkpt>
      <trkpt lat="50.686621824279428" lon="13.261430114507675">
        <ele>478</ele>
        <time>2026-08-29T09:52:15Z</time>
      </trkpt>
      <trkpt lat="50.686621572822332" lon="13.261429779231548">
        <ele>478</ele>
        <time>2026-08-29T09:52:16Z</time>
      </trkpt>
      <trkpt lat="50.686621572822332" lon="13.261429108679295">
        <ele>478</ele>
        <time>2026-08-29T09:52:17Z</time>
      </trkpt>
      <trkpt lat="50.686621489003301" lon="13.261428270488977">
        <ele>478</ele>
        <time>2026-08-29T09:52:18Z</time>
      </trkpt>
      <trkpt lat="50.686621489003301" lon="13.261427348479629">
        <ele>478</ele>
        <time>2026-08-29T09:52:19Z</time>
      </trkpt>
      <trkpt lat="50.686621321365237" lon="13.261426845565438">
        <ele>478</ele>
        <time>2026-08-29T09:52:20Z</time>
      </trkpt>
      <trkpt lat="50.686621405184269" lon="13.261426342651248">
        <ele>478</ele>
        <time>2026-08-29T09:52:21Z</time>
      </trkpt>
      <trkpt lat="50.686621321365237" lon="13.261426175013185">
        <ele>478</ele>
        <time>2026-08-29T09:52:22Z</time>
      </trkpt>
      <trkpt lat="50.686621237546206" lon="13.261425923556089">
        <ele>478</ele>
        <time>2026-08-29T09:52:23Z</time>
      </trkpt>
      <trkpt lat="50.686621069908142" lon="13.261425755918026">
        <ele>478</ele>
        <time>2026-08-29T09:52:24Z</time>
      </trkpt>
      <trkpt lat="50.686620902270079" lon="13.261425672098994">
        <ele>478</ele>
        <time>2026-08-29T09:52:25Z</time>
      </trkpt>
      <trkpt lat="50.686620902270079" lon="13.261425588279963">
        <ele>478</ele>
        <time>2026-08-29T09:52:26Z</time>
      </trkpt>
      <trkpt lat="50.686620902270079" lon="13.261425504460931">
        <ele>478</ele>
        <time>2026-08-29T09:52:27Z</time>
      </trkpt>
      <trkpt lat="50.686620818451047" lon="13.261425420641899">
        <ele>478</ele>
        <time>2026-08-29T09:52:28Z</time>
      </trkpt>
      <trkpt lat="50.686620818451047" lon="13.261425169184804">
        <ele>478</ele>
        <time>2026-08-29T09:52:29Z</time>
      </trkpt>
      <trkpt lat="50.686620818451047" lon="13.261424917727709">
        <ele>478</ele>
        <time>2026-08-29T09:52:30Z</time>
      </trkpt>
      <trkpt lat="50.686620818451047" lon="13.261424833908677">
        <ele>478</ele>
        <time>2026-08-29T09:52:31Z</time>
      </trkpt>
      <trkpt lat="50.686620650812984" lon="13.261424833908677">
        <ele>478</ele>
        <time>2026-08-29T09:52:32Z</time>
      </trkpt>
      <trkpt lat="50.68662048317492" lon="13.261425085365772">
        <ele>478</ele>
        <time>2026-08-29T09:52:33Z</time>
      </trkpt>
      <trkpt lat="50.686620399355888" lon="13.261425001546741">
        <ele>478</ele>
        <time>2026-08-29T09:52:34Z</time>
      </trkpt>
      <trkpt lat="50.686620399355888" lon="13.261424582451582">
        <ele>478</ele>
        <time>2026-08-29T09:52:35Z</time>
      </trkpt>
      <trkpt lat="50.686620399355888" lon="13.261424163356423">
        <ele>478</ele>
        <time>2026-08-29T09:52:36Z</time>
      </trkpt>
      <trkpt lat="50.686620399355888" lon="13.261423911899328">
        <ele>478</ele>
        <time>2026-08-29T09:52:37Z</time>
      </trkpt>
      <trkpt lat="50.68662048317492" lon="13.261423744261265">
        <ele>478</ele>
        <time>2026-08-29T09:52:38Z</time>
      </trkpt>
      <trkpt lat="50.686620231717825" lon="13.261424079537392">
        <ele>478</ele>
        <time>2026-08-29T09:52:39Z</time>
      </trkpt>
      <trkpt lat="50.686620231717825" lon="13.261424163356423">
        <ele>478</ele>
        <time>2026-08-29T09:52:40Z</time>
      </trkpt>
      <trkpt lat="50.686620064079762" lon="13.261424414813519">
        <ele>478</ele>
        <time>2026-08-29T09:52:41Z</time>
      </trkpt>
      <trkpt lat="50.68661998026073" lon="13.261424666270614">
        <ele>478</ele>
        <time>2026-08-29T09:52:42Z</time>
      </trkpt>
      <trkpt lat="50.68661998026073" lon="13.261424833908677">
        <ele>478</ele>
        <time>2026-08-29T09:52:43Z</time>
      </trkpt>
      <trkpt lat="50.686619896441698" lon="13.261425085365772">
        <ele>478</ele>
        <time>2026-08-29T09:52:44Z</time>
      </trkpt>
      <trkpt lat="50.686619896441698" lon="13.261425085365772">
        <ele>478</ele>
        <time>2026-08-29T09:52:45Z</time>
      </trkpt>
      <trkpt lat="50.686619812622666" lon="13.261425253003836">
        <ele>478</ele>
        <time>2026-08-29T09:52:46Z</time>
      </trkpt>
      <trkpt lat="50.686619812622666" lon="13.261425253003836">
        <ele>478</ele>
        <time>2026-08-29T09:52:47Z</time>
      </trkpt>
      <trkpt lat="50.68661998026073" lon="13.261425253003836">
        <ele>478</ele>
        <time>2026-08-29T09:52:48Z</time>
      </trkpt>
      <trkpt lat="50.68661998026073" lon="13.261425001546741">
        <ele>478</ele>
        <time>2026-08-29T09:52:49Z</time>
      </trkpt>
      <trkpt lat="50.686619812622666" lon="13.261425169184804">
        <ele>478</ele>
        <time>2026-08-29T09:52:50Z</time>
      </trkpt>
      <trkpt lat="50.686619812622666" lon="13.261425085365772">
        <ele>478</ele>
        <time>2026-08-29T09:52:51Z</time>
      </trkpt>
      <trkpt lat="50.686619812622666" lon="13.261424917727709">
        <ele>478</ele>
        <time>2026-08-29T09:52:52Z</time>
      </trkpt>
      <trkpt lat="50.686619561165571" lon="13.261424833908677">
        <ele>478</ele>
        <time>2026-08-29T09:52:53Z</time>
      </trkpt>
      <trkpt lat="50.686619393527508" lon="13.261425001546741">
        <ele>478</ele>
        <time>2026-08-29T09:52:54Z</time>
      </trkpt>
      <trkpt lat="50.686619309708476" lon="13.261424833908677">
        <ele>478</ele>
        <time>2026-08-29T09:52:55Z</time>
      </trkpt>
      <trkpt lat="50.686619225889444" lon="13.261424750089645">
        <ele>478</ele>
        <time>2026-08-29T09:52:56Z</time>
      </trkpt>
      <trkpt lat="50.686619142070413" lon="13.261424330994487">
        <ele>478</ele>
        <time>2026-08-29T09:52:57Z</time>
      </trkpt>
      <trkpt lat="50.686619058251381" lon="13.26142399571836">
        <ele>478</ele>
        <time>2026-08-29T09:52:58Z</time>
      </trkpt>
      <trkpt lat="50.686619058251381" lon="13.261423911899328">
        <ele>478</ele>
        <time>2026-08-29T09:52:59Z</time>
      </trkpt>
      <trkpt lat="50.686618890613317" lon="13.26142399571836">
        <ele>478</ele>
        <time>2026-08-29T09:53:00Z</time>
      </trkpt>
      <trkpt lat="50.686618890613317" lon="13.261424079537392">
        <ele>478</ele>
        <time>2026-08-29T09:53:01Z</time>
      </trkpt>
      <trkpt lat="50.686618890613317" lon="13.261424247175455">
        <ele>478</ele>
        <time>2026-08-29T09:53:02Z</time>
      </trkpt>
      <trkpt lat="50.686618890613317" lon="13.261424330994487">
        <ele>478</ele>
        <time>2026-08-29T09:53:03Z</time>
      </trkpt>
      <trkpt lat="50.686618890613317" lon="13.26142449863255">
        <ele>478</ele>
        <time>2026-08-29T09:53:04Z</time>
      </trkpt>
      <trkpt lat="50.686618890613317" lon="13.261424582451582">
        <ele>478</ele>
        <time>2026-08-29T09:53:05Z</time>
      </trkpt>
      <trkpt lat="50.686618890613317" lon="13.26142449863255">
        <ele>478</ele>
        <time>2026-08-29T09:53:06Z</time>
      </trkpt>
      <trkpt lat="50.686618722975254" lon="13.26142449863255">
        <ele>478</ele>
        <time>2026-08-29T09:53:07Z</time>
      </trkpt>
      <trkpt lat="50.686618722975254" lon="13.261424582451582">
        <ele>478</ele>
        <time>2026-08-29T09:53:08Z</time>
      </trkpt>
      <trkpt lat="50.686618722975254" lon="13.261424666270614">
        <ele>478</ele>
        <time>2026-08-29T09:53:09Z</time>
      </trkpt>
      <trkpt lat="50.686618722975254" lon="13.261424750089645">
        <ele>478</ele>
        <time>2026-08-29T09:53:10Z</time>
      </trkpt>
      <trkpt lat="50.686618639156222" lon="13.261424833908677">
        <ele>478</ele>
        <time>2026-08-29T09:53:11Z</time>
      </trkpt>
      <trkpt lat="50.686618722975254" lon="13.261424666270614">
        <ele>478</ele>
        <time>2026-08-29T09:53:12Z</time>
      </trkpt>
      <trkpt lat="50.686618722975254" lon="13.261424833908677">
        <ele>478</ele>
        <time>2026-08-29T09:53:13Z</time>
      </trkpt>
      <trkpt lat="50.686618722975254" lon="13.261425085365772">
        <ele>478</ele>
        <time>2026-08-29T09:53:14Z</time>
      </trkpt>
      <trkpt lat="50.686618722975254" lon="13.261425169184804">
        <ele>478</ele>
        <time>2026-08-29T09:53:15Z</time>
      </trkpt>
      <trkpt lat="50.686618639156222" lon="13.261425169184804">
        <ele>478</ele>
        <time>2026-08-29T09:53:16Z</time>
      </trkpt>
      <trkpt lat="50.686618639156222" lon="13.261425253003836">
        <ele>478</ele>
        <time>2026-08-29T09:53:17Z</time>
      </trkpt>
      <trkpt lat="50.686618639156222" lon="13.261425336822867">
        <ele>478</ele>
        <time>2026-08-29T09:53:18Z</time>
      </trkpt>
      <trkpt lat="50.686618639156222" lon="13.261425336822867">
        <ele>478</ele>
        <time>2026-08-29T09:53:19Z</time>
      </trkpt>
      <trkpt lat="50.686618722975254" lon="13.261425253003836">
        <ele>478</ele>
        <time>2026-08-29T09:53:20Z</time>
      </trkpt>
      <trkpt lat="50.686618639156222" lon="13.261425253003836">
        <ele>478</ele>
        <time>2026-08-29T09:53:21Z</time>
      </trkpt>
      <trkpt lat="50.686618639156222" lon="13.261425420641899">
        <ele>478</ele>
        <time>2026-08-29T09:53:22Z</time>
      </trkpt>
      <trkpt lat="50.686618639156222" lon="13.261425588279963">
        <ele>478</ele>
        <time>2026-08-29T09:53:23Z</time>
      </trkpt>
      <trkpt lat="50.686618639156222" lon="13.261425839737058">
        <ele>478</ele>
        <time>2026-08-29T09:53:24Z</time>
      </trkpt>
      <trkpt lat="50.686618722975254" lon="13.261425923556089">
        <ele>478</ele>
        <time>2026-08-29T09:53:25Z</time>
      </trkpt>
      <trkpt lat="50.686618639156222" lon="13.261426091194153">
        <ele>478</ele>
        <time>2026-08-29T09:53:26Z</time>
      </trkpt>
      <trkpt lat="50.686618639156222" lon="13.261426175013185">
        <ele>478</ele>
        <time>2026-08-29T09:53:27Z</time>
      </trkpt>
      <trkpt lat="50.686618639156222" lon="13.261426007375121">
        <ele>478</ele>
        <time>2026-08-29T09:53:28Z</time>
      </trkpt>
      <trkpt lat="50.686618471518159" lon="13.261426091194153">
        <ele>478</ele>
        <time>2026-08-29T09:53:29Z</time>
      </trkpt>
      <trkpt lat="50.686618639156222" lon="13.261426258832216">
        <ele>478</ele>
        <time>2026-08-29T09:53:30Z</time>
      </trkpt>
      <trkpt lat="50.686618639156222" lon="13.261426175013185">
        <ele>478</ele>
        <time>2026-08-29T09:53:31Z</time>
      </trkpt>
      <trkpt lat="50.686618722975254" lon="13.261426510289311">
        <ele>478</ele>
        <time>2026-08-29T09:53:32Z</time>
      </trkpt>
      <trkpt lat="50.686618890613317" lon="13.261426594108343">
        <ele>478</ele>
        <time>2026-08-29T09:53:33Z</time>
      </trkpt>
      <trkpt lat="50.686619058251381" lon="13.261426761746407">
        <ele>478</ele>
        <time>2026-08-29T09:53:34Z</time>
      </trkpt>
      <trkpt lat="50.686619058251381" lon="13.261426845565438">
        <ele>478</ele>
        <time>2026-08-29T09:53:35Z</time>
      </trkpt>
      <trkpt lat="50.686619142070413" lon="13.26142692938447">
        <ele>478</ele>
        <time>2026-08-29T09:53:36Z</time>
      </trkpt>
      <trkpt lat="50.686619309708476" lon="13.261426845565438">
        <ele>478</ele>
        <time>2026-08-29T09:53:37Z</time>
      </trkpt>
      <trkpt lat="50.686619142070413" lon="13.26142692938447">
        <ele>478</ele>
        <time>2026-08-29T09:53:38Z</time>
      </trkpt>
      <trkpt lat="50.686619058251381" lon="13.261426845565438">
        <ele>478</ele>
        <time>2026-08-29T09:53:39Z</time>
      </trkpt>
      <trkpt lat="50.686619058251381" lon="13.261426677927375">
        <ele>478</ele>
        <time>2026-08-29T09:53:40Z</time>
      </trkpt>
      <trkpt lat="50.686618890613317" lon="13.261427097022533">
        <ele>478</ele>
        <time>2026-08-29T09:53:41Z</time>
      </trkpt>
      <trkpt lat="50.686618890613317" lon="13.261426845565438">
        <ele>478</ele>
        <time>2026-08-29T09:53:42Z</time>
      </trkpt>
      <trkpt lat="50.686618890613317" lon="13.261426761746407">
        <ele>478</ele>
        <time>2026-08-29T09:53:43Z</time>
      </trkpt>
      <trkpt lat="50.686618890613317" lon="13.261426510289311">
        <ele>478</ele>
        <time>2026-08-29T09:53:44Z</time>
      </trkpt>
      <trkpt lat="50.686619058251381" lon="13.261426091194153">
        <ele>478</ele>
        <time>2026-08-29T09:53:45Z</time>
      </trkpt>
      <trkpt lat="50.686619142070413" lon="13.261425839737058">
        <ele>478</ele>
        <time>2026-08-29T09:53:46Z</time>
      </trkpt>
      <trkpt lat="50.686619309708476" lon="13.261425588279963">
        <ele>478</ele>
        <time>2026-08-29T09:53:47Z</time>
      </trkpt>
      <trkpt lat="50.686619225889444" lon="13.261425672098994">
        <ele>478</ele>
        <time>2026-08-29T09:53:48Z</time>
      </trkpt>
      <trkpt lat="50.686619225889444" lon="13.261425839737058">
        <ele>478</ele>
        <time>2026-08-29T09:53:49Z</time>
      </trkpt>
      <trkpt lat="50.686619309708476" lon="13.261426258832216">
        <ele>478</ele>
        <time>2026-08-29T09:53:50Z</time>
      </trkpt>
      <trkpt lat="50.686619393527508" lon="13.261426091194153">
        <ele>478</ele>
        <time>2026-08-29T09:53:51Z</time>
      </trkpt>
      <trkpt lat="50.686619477346539" lon="13.261426342651248">
        <ele>478</ele>
        <time>2026-08-29T09:53:52Z</time>
      </trkpt>
      <trkpt lat="50.686619477346539" lon="13.261426510289311">
        <ele>478</ele>
        <time>2026-08-29T09:53:53Z</time>
      </trkpt>
      <trkpt lat="50.686619644984603" lon="13.261426342651248">
        <ele>478</ele>
        <time>2026-08-29T09:53:54Z</time>
      </trkpt>
      <trkpt lat="50.686619728803635" lon="13.261426091194153">
        <ele>478</ele>
        <time>2026-08-29T09:53:55Z</time>
      </trkpt>
      <trkpt lat="50.686619812622666" lon="13.261426007375121">
        <ele>478</ele>
        <time>2026-08-29T09:53:56Z</time>
      </trkpt>
      <trkpt lat="50.68661998026073" lon="13.261426091194153">
        <ele>478</ele>
        <time>2026-08-29T09:53:57Z</time>
      </trkpt>
      <trkpt lat="50.686620147898793" lon="13.261426091194153">
        <ele>478</ele>
        <time>2026-08-29T09:53:58Z</time>
      </trkpt>
      <trkpt lat="50.686620231717825" lon="13.261426258832216">
        <ele>478</ele>
        <time>2026-08-29T09:53:59Z</time>
      </trkpt>
      <trkpt lat="50.686620399355888" lon="13.261426258832216">
        <ele>478</ele>
        <time>2026-08-29T09:54:00Z</time>
      </trkpt>
      <trkpt lat="50.686620399355888" lon="13.261426342651248">
        <ele>478</ele>
        <time>2026-08-29T09:54:01Z</time>
      </trkpt>
      <trkpt lat="50.686620399355888" lon="13.261426342651248">
        <ele>478</ele>
        <time>2026-08-29T09:54:02Z</time>
      </trkpt>
      <trkpt lat="50.686620399355888" lon="13.26142642647028">
        <ele>478</ele>
        <time>2026-08-29T09:54:03Z</time>
      </trkpt>
      <trkpt lat="50.686620315536857" lon="13.261426342651248">
        <ele>478</ele>
        <time>2026-08-29T09:54:04Z</time>
      </trkpt>
      <trkpt lat="50.686620231717825" lon="13.261426175013185">
        <ele>478</ele>
        <time>2026-08-29T09:54:05Z</time>
      </trkpt>
      <trkpt lat="50.686620231717825" lon="13.261426091194153">
        <ele>478</ele>
        <time>2026-08-29T09:54:06Z</time>
      </trkpt>
      <trkpt lat="50.686620231717825" lon="13.261426091194153">
        <ele>478</ele>
        <time>2026-08-29T09:54:07Z</time>
      </trkpt>
      <trkpt lat="50.686620231717825" lon="13.261426091194153">
        <ele>478</ele>
        <time>2026-08-29T09:54:08Z</time>
      </trkpt>
      <trkpt lat="50.686620231717825" lon="13.261425839737058">
        <ele>478</ele>
        <time>2026-08-29T09:54:09Z</time>
      </trkpt>
      <trkpt lat="50.686620147898793" lon="13.261425420641899">
        <ele>478</ele>
        <time>2026-08-29T09:54:10Z</time>
      </trkpt>
      <trkpt lat="50.686620147898793" lon="13.261425253003836">
        <ele>478</ele>
        <time>2026-08-29T09:54:11Z</time>
      </trkpt>
      <trkpt lat="50.686620147898793" lon="13.261425085365772">
        <ele>478</ele>
        <time>2026-08-29T09:54:12Z</time>
      </trkpt>
      <trkpt lat="50.686620064079762" lon="13.261424750089645">
        <ele>478</ele>
        <time>2026-08-29T09:54:13Z</time>
      </trkpt>
      <trkpt lat="50.686620064079762" lon="13.261424330994487">
        <ele>478</ele>
        <time>2026-08-29T09:54:14Z</time>
      </trkpt>
      <trkpt lat="50.686620064079762" lon="13.26142399571836">
        <ele>478</ele>
        <time>2026-08-29T09:54:15Z</time>
      </trkpt>
      <trkpt lat="50.68661998026073" lon="13.261423828080297">
        <ele>478</ele>
        <time>2026-08-29T09:54:16Z</time>
      </trkpt>
      <trkpt lat="50.686620064079762" lon="13.261423744261265">
        <ele>478</ele>
        <time>2026-08-29T09:54:17Z</time>
      </trkpt>
      <trkpt lat="50.686620147898793" lon="13.261423744261265">
        <ele>478</ele>
        <time>2026-08-29T09:54:18Z</time>
      </trkpt>
      <trkpt lat="50.686620147898793" lon="13.261424079537392">
        <ele>478</ele>
        <time>2026-08-29T09:54:19Z</time>
      </trkpt>
      <trkpt lat="50.686620231717825" lon="13.261424247175455">
        <ele>478</ele>
        <time>2026-08-29T09:54:20Z</time>
      </trkpt>
      <trkpt lat="50.686620231717825" lon="13.26142449863255">
        <ele>478</ele>
        <time>2026-08-29T09:54:21Z</time>
      </trkpt>
      <trkpt lat="50.686620399355888" lon="13.261424833908677">
        <ele>478</ele>
        <time>2026-08-29T09:54:22Z</time>
      </trkpt>
      <trkpt lat="50.686620399355888" lon="13.261425085365772">
        <ele>478</ele>
        <time>2026-08-29T09:54:23Z</time>
      </trkpt>
      <trkpt lat="50.686620399355888" lon="13.261425169184804">
        <ele>478</ele>
        <time>2026-08-29T09:54:24Z</time>
      </trkpt>
      <trkpt lat="50.686620566993952" lon="13.261424750089645">
        <ele>478</ele>
        <time>2026-08-29T09:54:25Z</time>
      </trkpt>
      <trkpt lat="50.686620566993952" lon="13.26142449863255">
        <ele>478</ele>
        <time>2026-08-29T09:54:26Z</time>
      </trkpt>
      <trkpt lat="50.686620650812984" lon="13.261424247175455">
        <ele>478</ele>
        <time>2026-08-29T09:54:27Z</time>
      </trkpt>
      <trkpt lat="50.686620650812984" lon="13.261424079537392">
        <ele>478</ele>
        <time>2026-08-29T09:54:28Z</time>
      </trkpt>
      <trkpt lat="50.686620734632015" lon="13.261424414813519">
        <ele>478</ele>
        <time>2026-08-29T09:54:29Z</time>
      </trkpt>
      <trkpt lat="50.686620818451047" lon="13.261424247175455">
        <ele>478</ele>
        <time>2026-08-29T09:54:30Z</time>
      </trkpt>
      <trkpt lat="50.686621069908142" lon="13.26142399571836">
        <ele>478</ele>
        <time>2026-08-29T09:54:31Z</time>
      </trkpt>
      <trkpt lat="50.686621237546206" lon="13.261423828080297">
        <ele>478</ele>
        <time>2026-08-29T09:54:32Z</time>
      </trkpt>
      <trkpt lat="50.686621489003301" lon="13.261423576623201">
        <ele>478</ele>
        <time>2026-08-29T09:54:33Z</time>
      </trkpt>
      <trkpt lat="50.686621656641364" lon="13.261423073709011">
        <ele>478</ele>
        <time>2026-08-29T09:54:34Z</time>
      </trkpt>
      <trkpt lat="50.686621740460396" lon="13.261422906070948">
        <ele>478</ele>
        <time>2026-08-29T09:54:35Z</time>
      </trkpt>
      <trkpt lat="50.686621740460396" lon="13.261422822251916">
        <ele>478</ele>
        <time>2026-08-29T09:54:36Z</time>
      </trkpt>
      <trkpt lat="50.686621740460396" lon="13.261422906070948">
        <ele>478</ele>
        <time>2026-08-29T09:54:37Z</time>
      </trkpt>
      <trkpt lat="50.686621740460396" lon="13.261422989889979">
        <ele>478</ele>
        <time>2026-08-29T09:54:38Z</time>
      </trkpt>
      <trkpt lat="50.686621740460396" lon="13.261422989889979">
        <ele>478</ele>
        <time>2026-08-29T09:54:39Z</time>
      </trkpt>
      <trkpt lat="50.686621740460396" lon="13.261423073709011">
        <ele>478</ele>
        <time>2026-08-29T09:54:40Z</time>
      </trkpt>
      <trkpt lat="50.686621740460396" lon="13.261423073709011">
        <ele>478</ele>
        <time>2026-08-29T09:54:41Z</time>
      </trkpt>
      <trkpt lat="50.686621740460396" lon="13.261423073709011">
        <ele>478</ele>
        <time>2026-08-29T09:54:42Z</time>
      </trkpt>
      <trkpt lat="50.686621824279428" lon="13.261423073709011">
        <ele>478</ele>
        <time>2026-08-29T09:54:43Z</time>
      </trkpt>
      <trkpt lat="50.686621908098459" lon="13.261422989889979">
        <ele>478</ele>
        <time>2026-08-29T09:54:44Z</time>
      </trkpt>
      <trkpt lat="50.686621908098459" lon="13.261422989889979">
        <ele>478</ele>
        <time>2026-08-29T09:54:45Z</time>
      </trkpt>
      <trkpt lat="50.686621991917491" lon="13.261423073709011">
        <ele>478</ele>
        <time>2026-08-29T09:54:46Z</time>
      </trkpt>
      <trkpt lat="50.686622159555554" lon="13.261423073709011">
        <ele>478</ele>
        <time>2026-08-29T09:54:47Z</time>
      </trkpt>
      <trkpt lat="50.686622159555554" lon="13.261423157528043">
        <ele>478</ele>
        <time>2026-08-29T09:54:48Z</time>
      </trkpt>
      <trkpt lat="50.686622159555554" lon="13.261423325166106">
        <ele>478</ele>
        <time>2026-08-29T09:54:49Z</time>
      </trkpt>
      <trkpt lat="50.686622159555554" lon="13.261423408985138">
        <ele>478</ele>
        <time>2026-08-29T09:54:50Z</time>
      </trkpt>
      <trkpt lat="50.686622159555554" lon="13.26142349280417">
        <ele>478</ele>
        <time>2026-08-29T09:54:51Z</time>
      </trkpt>
      <trkpt lat="50.686621991917491" lon="13.261423576623201">
        <ele>478</ele>
        <time>2026-08-29T09:54:52Z</time>
      </trkpt>
      <trkpt lat="50.686621991917491" lon="13.261423576623201">
        <ele>478</ele>
        <time>2026-08-29T09:54:53Z</time>
      </trkpt>
      <trkpt lat="50.686621908098459" lon="13.261423660442233">
        <ele>478</ele>
        <time>2026-08-29T09:54:54Z</time>
      </trkpt>
      <trkpt lat="50.686621991917491" lon="13.261423744261265">
        <ele>478</ele>
        <time>2026-08-29T09:54:55Z</time>
      </trkpt>
      <trkpt lat="50.686621991917491" lon="13.261423744261265">
        <ele>478</ele>
        <time>2026-08-29T09:54:56Z</time>
      </trkpt>
      <trkpt lat="50.686621908098459" lon="13.261423828080297">
        <ele>478</ele>
        <time>2026-08-29T09:54:57Z</time>
      </trkpt>
      <trkpt lat="50.686621908098459" lon="13.261423911899328">
        <ele>478</ele>
        <time>2026-08-29T09:54:58Z</time>
      </trkpt>
      <trkpt lat="50.686621908098459" lon="13.26142399571836">
        <ele>478</ele>
        <time>2026-08-29T09:54:59Z</time>
      </trkpt>
      <trkpt lat="50.686621991917491" lon="13.26142399571836">
        <ele>478</ele>
        <time>2026-08-29T09:55:00Z</time>
      </trkpt>
      <trkpt lat="50.686621991917491" lon="13.26142399571836">
        <ele>478</ele>
        <time>2026-08-29T09:55:01Z</time>
      </trkpt>
      <trkpt lat="50.686621991917491" lon="13.261424163356423">
        <ele>478</ele>
        <time>2026-08-29T09:55:02Z</time>
      </trkpt>
      <trkpt lat="50.686621908098459" lon="13.261424414813519">
        <ele>478</ele>
        <time>2026-08-29T09:55:03Z</time>
      </trkpt>
      <trkpt lat="50.686622159555554" lon="13.261424666270614">
        <ele>478</ele>
        <time>2026-08-29T09:55:04Z</time>
      </trkpt>
      <trkpt lat="50.686622159555554" lon="13.261425085365772">
        <ele>478</ele>
        <time>2026-08-29T09:55:05Z</time>
      </trkpt>
      <trkpt lat="50.686622243374586" lon="13.261425169184804">
        <ele>478</ele>
        <time>2026-08-29T09:55:06Z</time>
      </trkpt>
      <trkpt lat="50.686622159555554" lon="13.261425253003836">
        <ele>478</ele>
        <time>2026-08-29T09:55:07Z</time>
      </trkpt>
      <trkpt lat="50.686622075736523" lon="13.261425504460931">
        <ele>478</ele>
        <time>2026-08-29T09:55:08Z</time>
      </trkpt>
      <trkpt lat="50.686621991917491" lon="13.261425588279963">
        <ele>478</ele>
        <time>2026-08-29T09:55:09Z</time>
      </trkpt>
      <trkpt lat="50.686621991917491" lon="13.261425672098994">
        <ele>478</ele>
        <time>2026-08-29T09:55:10Z</time>
      </trkpt>
      <trkpt lat="50.686622075736523" lon="13.261425755918026">
        <ele>478</ele>
        <time>2026-08-29T09:55:11Z</time>
      </trkpt>
      <trkpt lat="50.686622075736523" lon="13.261425923556089">
        <ele>478</ele>
        <time>2026-08-29T09:55:12Z</time>
      </trkpt>
      <trkpt lat="50.686622159555554" lon="13.261426007375121">
        <ele>478</ele>
        <time>2026-08-29T09:55:13Z</time>
      </trkpt>
      <trkpt lat="50.686622075736523" lon="13.261426258832216">
        <ele>478</ele>
        <time>2026-08-29T09:55:14Z</time>
      </trkpt>
      <trkpt lat="50.686622075736523" lon="13.261426258832216">
        <ele>478</ele>
        <time>2026-08-29T09:55:15Z</time>
      </trkpt>
      <trkpt lat="50.686622159555554" lon="13.261426510289311">
        <ele>478</ele>
        <time>2026-08-29T09:55:16Z</time>
      </trkpt>
      <trkpt lat="50.686621908098459" lon="13.261426677927375">
        <ele>478</ele>
        <time>2026-08-29T09:55:17Z</time>
      </trkpt>
      <trkpt lat="50.686621908098459" lon="13.261426845565438">
        <ele>478</ele>
        <time>2026-08-29T09:55:18Z</time>
      </trkpt>
      <trkpt lat="50.686621908098459" lon="13.261427180841565">
        <ele>478</ele>
        <time>2026-08-29T09:55:19Z</time>
      </trkpt>
      <trkpt lat="50.686621908098459" lon="13.26142743229866">
        <ele>478</ele>
        <time>2026-08-29T09:55:20Z</time>
      </trkpt>
      <trkpt lat="50.686621908098459" lon="13.261427599936724">
        <ele>478</ele>
        <time>2026-08-29T09:55:21Z</time>
      </trkpt>
      <trkpt lat="50.686621991917491" lon="13.261427851393819">
        <ele>478</ele>
        <time>2026-08-29T09:55:22Z</time>
      </trkpt>
      <trkpt lat="50.686622159555554" lon="13.261428186669946">
        <ele>478</ele>
        <time>2026-08-29T09:55:23Z</time>
      </trkpt>
      <trkpt lat="50.686622075736523" lon="13.261428521946073">
        <ele>478</ele>
        <time>2026-08-29T09:55:24Z</time>
      </trkpt>
      <trkpt lat="50.686621991917491" lon="13.261428689584136">
        <ele>478</ele>
        <time>2026-08-29T09:55:25Z</time>
      </trkpt>
      <trkpt lat="50.686622075736523" lon="13.261428773403168">
        <ele>478</ele>
        <time>2026-08-29T09:55:26Z</time>
      </trkpt>
      <trkpt lat="50.686622159555554" lon="13.261429192498326">
        <ele>479</ele>
        <time>2026-08-29T09:55:27Z</time>
      </trkpt>
      <trkpt lat="50.68662241101265" lon="13.261429443955421">
        <ele>479</ele>
        <time>2026-08-29T09:55:28Z</time>
      </trkpt>
      <trkpt lat="50.68662241101265" lon="13.261429779231548">
        <ele>479</ele>
        <time>2026-08-29T09:55:29Z</time>
      </trkpt>
      <trkpt lat="50.686622578650713" lon="13.261430198326707">
        <ele>479</ele>
        <time>2026-08-29T09:55:30Z</time>
      </trkpt>
      <trkpt lat="50.686622662469745" lon="13.261430617421865">
        <ele>479</ele>
        <time>2026-08-29T09:55:31Z</time>
      </trkpt>
      <trkpt lat="50.686622830107808" lon="13.261430785059929">
        <ele>479</ele>
        <time>2026-08-29T09:55:32Z</time>
      </trkpt>
      <trkpt lat="50.686622997745872" lon="13.261431204155087">
        <ele>479</ele>
        <time>2026-08-29T09:55:33Z</time>
      </trkpt>
      <trkpt lat="50.686623081564903" lon="13.261431455612183">
        <ele>479</ele>
        <time>2026-08-29T09:55:34Z</time>
      </trkpt>
      <trkpt lat="50.686623081564903" lon="13.261431623250246">
        <ele>479</ele>
        <time>2026-08-29T09:55:35Z</time>
      </trkpt>
      <trkpt lat="50.686623165383935" lon="13.261431707069278">
        <ele>479</ele>
        <time>2026-08-29T09:55:36Z</time>
      </trkpt>
      <trkpt lat="50.686623249202967" lon="13.261431874707341">
        <ele>479</ele>
        <time>2026-08-29T09:55:37Z</time>
      </trkpt>
      <trkpt lat="50.686623249202967" lon="13.261432042345405">
        <ele>479</ele>
        <time>2026-08-29T09:55:38Z</time>
      </trkpt>
      <trkpt lat="50.686623249202967" lon="13.261432209983468">
        <ele>479</ele>
        <time>2026-08-29T09:55:39Z</time>
      </trkpt>
      <trkpt lat="50.686623249202967" lon="13.2614322938025">
        <ele>479</ele>
        <time>2026-08-29T09:55:40Z</time>
      </trkpt>
      <trkpt lat="50.686623333021998" lon="13.261432545259595">
        <ele>479</ele>
        <time>2026-08-29T09:55:41Z</time>
      </trkpt>
      <trkpt lat="50.686623333021998" lon="13.26143279671669">
        <ele>479</ele>
        <time>2026-08-29T09:55:42Z</time>
      </trkpt>
      <trkpt lat="50.686623333021998" lon="13.26143279671669">
        <ele>479</ele>
        <time>2026-08-29T09:55:43Z</time>
      </trkpt>
      <trkpt lat="50.686623333021998" lon="13.261432712897658">
        <ele>479</ele>
        <time>2026-08-29T09:55:44Z</time>
      </trkpt>
      <trkpt lat="50.686623333021998" lon="13.261432629078627">
        <ele>479</ele>
        <time>2026-08-29T09:55:45Z</time>
      </trkpt>
      <trkpt lat="50.686623249202967" lon="13.261432545259595">
        <ele>479</ele>
        <time>2026-08-29T09:55:46Z</time>
      </trkpt>
      <trkpt lat="50.686623333021998" lon="13.2614322938025">
        <ele>479</ele>
        <time>2026-08-29T09:55:47Z</time>
      </trkpt>
      <trkpt lat="50.686623333021998" lon="13.261431790888309">
        <ele>479</ele>
        <time>2026-08-29T09:55:48Z</time>
      </trkpt>
      <trkpt lat="50.686623249202967" lon="13.261431539431214">
        <ele>479</ele>
        <time>2026-08-29T09:55:49Z</time>
      </trkpt>
      <trkpt lat="50.686623333021998" lon="13.261431455612183">
        <ele>479</ele>
        <time>2026-08-29T09:55:50Z</time>
      </trkpt>
      <trkpt lat="50.686623333021998" lon="13.261431371793151">
        <ele>479</ele>
        <time>2026-08-29T09:55:51Z</time>
      </trkpt>
      <trkpt lat="50.686623333021998" lon="13.261431455612183">
        <ele>479</ele>
        <time>2026-08-29T09:55:52Z</time>
      </trkpt>
      <trkpt lat="50.686623333021998" lon="13.261431539431214">
        <ele>479</ele>
        <time>2026-08-29T09:55:53Z</time>
      </trkpt>
      <trkpt lat="50.686623500660062" lon="13.261431455612183">
        <ele>479</ele>
        <time>2026-08-29T09:55:54Z</time>
      </trkpt>
      <trkpt lat="50.686623333021998" lon="13.261431539431214">
        <ele>479</ele>
        <time>2026-08-29T09:55:55Z</time>
      </trkpt>
      <trkpt lat="50.68662341684103" lon="13.261431623250246">
        <ele>479</ele>
        <time>2026-08-29T09:55:56Z</time>
      </trkpt>
      <trkpt lat="50.686623500660062" lon="13.261431623250246">
        <ele>479</ele>
        <time>2026-08-29T09:55:57Z</time>
      </trkpt>
      <trkpt lat="50.686623500660062" lon="13.261431707069278">
        <ele>479</ele>
        <time>2026-08-29T09:55:58Z</time>
      </trkpt>
      <trkpt lat="50.686623668298125" lon="13.261431539431214">
        <ele>479</ele>
        <time>2026-08-29T09:55:59Z</time>
      </trkpt>
      <trkpt lat="50.686623835936189" lon="13.261431455612183">
        <ele>479</ele>
        <time>2026-08-29T09:56:00Z</time>
      </trkpt>
      <trkpt lat="50.686624003574252" lon="13.261431371793151">
        <ele>479</ele>
        <time>2026-08-29T09:56:01Z</time>
      </trkpt>
      <trkpt lat="50.686624171212316" lon="13.261430952697992">
        <ele>479</ele>
        <time>2026-08-29T09:56:02Z</time>
      </trkpt>
      <trkpt lat="50.686624338850379" lon="13.261430868878961">
        <ele>479</ele>
        <time>2026-08-29T09:56:03Z</time>
      </trkpt>
      <trkpt lat="50.686624422669411" lon="13.261430785059929">
        <ele>479</ele>
        <time>2026-08-29T09:56:04Z</time>
      </trkpt>
      <trkpt lat="50.686624590307474" lon="13.261430868878961">
        <ele>479</ele>
        <time>2026-08-29T09:56:05Z</time>
      </trkpt>
      <trkpt lat="50.686624841764569" lon="13.261430785059929">
        <ele>479</ele>
        <time>2026-08-29T09:56:06Z</time>
      </trkpt>
      <trkpt lat="50.686624925583601" lon="13.261430701240897">
        <ele>479</ele>
        <time>2026-08-29T09:56:07Z</time>
      </trkpt>
      <trkpt lat="50.686625009402633" lon="13.261430617421865">
        <ele>479</ele>
        <time>2026-08-29T09:56:08Z</time>
      </trkpt>
      <trkpt lat="50.686625177040696" lon="13.261430449783802">
        <ele>479</ele>
        <time>2026-08-29T09:56:09Z</time>
      </trkpt>
      <trkpt lat="50.686625260859728" lon="13.261430282145739">
        <ele>479</ele>
        <time>2026-08-29T09:56:10Z</time>
      </trkpt>
      <trkpt lat="50.686625428497791" lon="13.261430198326707">
        <ele>479</ele>
        <time>2026-08-29T09:56:11Z</time>
      </trkpt>
      <trkpt lat="50.686625512316823" lon="13.261430198326707">
        <ele>479</ele>
        <time>2026-08-29T09:56:12Z</time>
      </trkpt>
      <trkpt lat="50.686625679954886" lon="13.261430114507675">
        <ele>479</ele>
        <time>2026-08-29T09:56:13Z</time>
      </trkpt>
      <trkpt lat="50.686625679954886" lon="13.261430198326707">
        <ele>479</ele>
        <time>2026-08-29T09:56:14Z</time>
      </trkpt>
      <trkpt lat="50.686625679954886" lon="13.261430114507675">
        <ele>479</ele>
        <time>2026-08-29T09:56:15Z</time>
      </trkpt>
      <trkpt lat="50.686625679954886" lon="13.261430114507675">
        <ele>479</ele>
        <time>2026-08-29T09:56:16Z</time>
      </trkpt>
      <trkpt lat="50.68662584759295" lon="13.261430114507675">
        <ele>479</ele>
        <time>2026-08-29T09:56:17Z</time>
      </trkpt>
      <trkpt lat="50.686625763773918" lon="13.261430114507675">
        <ele>479</ele>
        <time>2026-08-29T09:56:18Z</time>
      </trkpt>
      <trkpt lat="50.686625931411982" lon="13.261430198326707">
        <ele>479</ele>
        <time>2026-08-29T09:56:19Z</time>
      </trkpt>
      <trkpt lat="50.686626015231013" lon="13.261430282145739">
        <ele>479</ele>
        <time>2026-08-29T09:56:20Z</time>
      </trkpt>
      <trkpt lat="50.686625931411982" lon="13.26143036596477">
        <ele>479</ele>
        <time>2026-08-29T09:56:21Z</time>
      </trkpt>
      <trkpt lat="50.686625931411982" lon="13.261430449783802">
        <ele>479</ele>
        <time>2026-08-29T09:56:22Z</time>
      </trkpt>
      <trkpt lat="50.686625931411982" lon="13.261430617421865">
        <ele>479</ele>
        <time>2026-08-29T09:56:23Z</time>
      </trkpt>
      <trkpt lat="50.686625931411982" lon="13.261430701240897">
        <ele>479</ele>
        <time>2026-08-29T09:56:24Z</time>
      </trkpt>
      <trkpt lat="50.686625931411982" lon="13.261430868878961">
        <ele>479</ele>
        <time>2026-08-29T09:56:25Z</time>
      </trkpt>
      <trkpt lat="50.686625931411982" lon="13.261430952697992">
        <ele>479</ele>
        <time>2026-08-29T09:56:26Z</time>
      </trkpt>
      <trkpt lat="50.686625931411982" lon="13.261431036517024">
        <ele>479</ele>
        <time>2026-08-29T09:56:27Z</time>
      </trkpt>
      <trkpt lat="50.686626015231013" lon="13.261431287974119">
        <ele>479</ele>
        <time>2026-08-29T09:56:28Z</time>
      </trkpt>
      <trkpt lat="50.686626099050045" lon="13.261431371793151">
        <ele>479</ele>
        <time>2026-08-29T09:56:29Z</time>
      </trkpt>
      <trkpt lat="50.686626182869077" lon="13.261431539431214">
        <ele>479</ele>
        <time>2026-08-29T09:56:30Z</time>
      </trkpt>
      <trkpt lat="50.68662635050714" lon="13.261431707069278">
        <ele>479</ele>
        <time>2026-08-29T09:56:31Z</time>
      </trkpt>
      <trkpt lat="50.686626434326172" lon="13.261431874707341">
        <ele>479</ele>
        <time>2026-08-29T09:56:32Z</time>
      </trkpt>
      <trkpt lat="50.686626601964235" lon="13.261431958526373">
        <ele>479</ele>
        <time>2026-08-29T09:56:33Z</time>
      </trkpt>
      <trkpt lat="50.686626769602299" lon="13.261431958526373">
        <ele>479</ele>
        <time>2026-08-29T09:56:34Z</time>
      </trkpt>
      <trkpt lat="50.686626769602299" lon="13.261432126164436">
        <ele>479</ele>
        <time>2026-08-29T09:56:35Z</time>
      </trkpt>
      <trkpt lat="50.686626937240362" lon="13.261432042345405">
        <ele>479</ele>
        <time>2026-08-29T09:56:36Z</time>
      </trkpt>
      <trkpt lat="50.686626937240362" lon="13.261432209983468">
        <ele>479</ele>
        <time>2026-08-29T09:56:37Z</time>
      </trkpt>
      <trkpt lat="50.686627188697457" lon="13.261432042345405">
        <ele>480</ele>
        <time>2026-08-29T09:56:38Z</time>
      </trkpt>
      <trkpt lat="50.686627272516489" lon="13.261431874707341">
        <ele>479</ele>
        <time>2026-08-29T09:56:39Z</time>
      </trkpt>
      <trkpt lat="50.686627523973584" lon="13.261431623250246">
        <ele>479</ele>
        <time>2026-08-29T09:56:40Z</time>
      </trkpt>
      <trkpt lat="50.686627691611648" lon="13.261431371793151">
        <ele>480</ele>
        <time>2026-08-29T09:56:41Z</time>
      </trkpt>
      <trkpt lat="50.686627859249711" lon="13.261431287974119">
        <ele>480</ele>
        <time>2026-08-29T09:56:42Z</time>
      </trkpt>
      <trkpt lat="50.686627943068743" lon="13.261431539431214">
        <ele>480</ele>
        <time>2026-08-29T09:56:43Z</time>
      </trkpt>
      <trkpt lat="50.686628026887774" lon="13.261431623250246">
        <ele>480</ele>
        <time>2026-08-29T09:56:44Z</time>
      </trkpt>
      <trkpt lat="50.686628026887774" lon="13.261431707069278">
        <ele>480</ele>
        <time>2026-08-29T09:56:45Z</time>
      </trkpt>
      <trkpt lat="50.686628026887774" lon="13.261431707069278">
        <ele>480</ele>
        <time>2026-08-29T09:56:46Z</time>
      </trkpt>
      <trkpt lat="50.686628026887774" lon="13.261431790888309">
        <ele>480</ele>
        <time>2026-08-29T09:56:47Z</time>
      </trkpt>
      <trkpt lat="50.686628110706806" lon="13.261431707069278">
        <ele>480</ele>
        <time>2026-08-29T09:56:48Z</time>
      </trkpt>
      <trkpt lat="50.686628026887774" lon="13.261431707069278">
        <ele>480</ele>
        <time>2026-08-29T09:56:49Z</time>
      </trkpt>
      <trkpt lat="50.686628110706806" lon="13.261431539431214">
        <ele>480</ele>
        <time>2026-08-29T09:56:50Z</time>
      </trkpt>
      <trkpt lat="50.686628110706806" lon="13.261431371793151">
        <ele>480</ele>
        <time>2026-08-29T09:56:51Z</time>
      </trkpt>
      <trkpt lat="50.686627943068743" lon="13.261431455612183">
        <ele>480</ele>
        <time>2026-08-29T09:56:52Z</time>
      </trkpt>
      <trkpt lat="50.686627859249711" lon="13.261431455612183">
        <ele>480</ele>
        <time>2026-08-29T09:56:53Z</time>
      </trkpt>
      <trkpt lat="50.686627691611648" lon="13.261431371793151">
        <ele>480</ele>
        <time>2026-08-29T09:56:54Z</time>
      </trkpt>
      <trkpt lat="50.686627607792616" lon="13.261431287974119">
        <ele>480</ele>
        <time>2026-08-29T09:56:55Z</time>
      </trkpt>
      <trkpt lat="50.686627440154552" lon="13.261431120336056">
        <ele>480</ele>
        <time>2026-08-29T09:56:56Z</time>
      </trkpt>
      <trkpt lat="50.686627272516489" lon="13.261431036517024">
        <ele>480</ele>
        <time>2026-08-29T09:56:57Z</time>
      </trkpt>
      <trkpt lat="50.686627021059394" lon="13.261430952697992">
        <ele>480</ele>
        <time>2026-08-29T09:56:58Z</time>
      </trkpt>
      <trkpt lat="50.686626937240362" lon="13.261431036517024">
        <ele>480</ele>
        <time>2026-08-29T09:56:59Z</time>
      </trkpt>
      <trkpt lat="50.686626769602299" lon="13.261431036517024">
        <ele>480</ele>
        <time>2026-08-29T09:57:00Z</time>
      </trkpt>
      <trkpt lat="50.686626601964235" lon="13.261431287974119">
        <ele>480</ele>
        <time>2026-08-29T09:57:01Z</time>
      </trkpt>
      <trkpt lat="50.68662635050714" lon="13.261431539431214">
        <ele>480</ele>
        <time>2026-08-29T09:57:02Z</time>
      </trkpt>
      <trkpt lat="50.686626099050045" lon="13.261431790888309">
        <ele>480</ele>
        <time>2026-08-29T09:57:03Z</time>
      </trkpt>
      <trkpt lat="50.686625931411982" lon="13.261431874707341">
        <ele>480</ele>
        <time>2026-08-29T09:57:04Z</time>
      </trkpt>
      <trkpt lat="50.686625679954886" lon="13.261431958526373">
        <ele>480</ele>
        <time>2026-08-29T09:57:05Z</time>
      </trkpt>
      <trkpt lat="50.686625596135855" lon="13.261431958526373">
        <ele>480</ele>
        <time>2026-08-29T09:57:06Z</time>
      </trkpt>
      <trkpt lat="50.686625428497791" lon="13.261432126164436">
        <ele>480</ele>
        <time>2026-08-29T09:57:07Z</time>
      </trkpt>
      <trkpt lat="50.686625428497791" lon="13.261432126164436">
        <ele>480</ele>
        <time>2026-08-29T09:57:08Z</time>
      </trkpt>
      <trkpt lat="50.68662534467876" lon="13.261432209983468">
        <ele>480</ele>
        <time>2026-08-29T09:57:09Z</time>
      </trkpt>
      <trkpt lat="50.686625260859728" lon="13.261432042345405">
        <ele>480</ele>
        <time>2026-08-29T09:57:10Z</time>
      </trkpt>
      <trkpt lat="50.686625260859728" lon="13.261431958526373">
        <ele>480</ele>
        <time>2026-08-29T09:57:11Z</time>
      </trkpt>
      <trkpt lat="50.686625428497791" lon="13.261431455612183">
        <ele>480</ele>
        <time>2026-08-29T09:57:12Z</time>
      </trkpt>
      <trkpt lat="50.686625679954886" lon="13.261431036517024">
        <ele>480</ele>
        <time>2026-08-29T09:57:13Z</time>
      </trkpt>
      <trkpt lat="50.686625763773918" lon="13.261430617421865">
        <ele>480</ele>
        <time>2026-08-29T09:57:14Z</time>
      </trkpt>
      <trkpt lat="50.686625931411982" lon="13.261430282145739">
        <ele>479</ele>
        <time>2026-08-29T09:57:15Z</time>
      </trkpt>
      <trkpt lat="50.686626099050045" lon="13.261430282145739">
        <ele>479</ele>
        <time>2026-08-29T09:57:16Z</time>
      </trkpt>
      <trkpt lat="50.686626099050045" lon="13.261430533602834">
        <ele>479</ele>
        <time>2026-08-29T09:57:17Z</time>
      </trkpt>
      <trkpt lat="50.686626182869077" lon="13.261430785059929">
        <ele>479</ele>
        <time>2026-08-29T09:57:18Z</time>
      </trkpt>
      <trkpt lat="50.686626099050045" lon="13.261430868878961">
        <ele>479</ele>
        <time>2026-08-29T09:57:19Z</time>
      </trkpt>
      <trkpt lat="50.686626099050045" lon="13.261431120336056">
        <ele>479</ele>
        <time>2026-08-29T09:57:20Z</time>
      </trkpt>
      <trkpt lat="50.686626099050045" lon="13.261431120336056">
        <ele>479</ele>
        <time>2026-08-29T09:57:21Z</time>
      </trkpt>
      <trkpt lat="50.686626099050045" lon="13.261430952697992">
        <ele>479</ele>
        <time>2026-08-29T09:57:22Z</time>
      </trkpt>
      <trkpt lat="50.686626266688108" lon="13.261430617421865">
        <ele>479</ele>
        <time>2026-08-29T09:57:23Z</time>
      </trkpt>
      <trkpt lat="50.686626266688108" lon="13.261430449783802">
        <ele>479</ele>
        <time>2026-08-29T09:57:24Z</time>
      </trkpt>
      <trkpt lat="50.686626266688108" lon="13.26143036596477">
        <ele>479</ele>
        <time>2026-08-29T09:57:25Z</time>
      </trkpt>
      <trkpt lat="50.68662635050714" lon="13.261430198326707">
        <ele>479</ele>
        <time>2026-08-29T09:57:26Z</time>
      </trkpt>
      <trkpt lat="50.686626518145204" lon="13.26142986305058">
        <ele>479</ele>
        <time>2026-08-29T09:57:27Z</time>
      </trkpt>
      <trkpt lat="50.686626601964235" lon="13.261429443955421">
        <ele>479</ele>
        <time>2026-08-29T09:57:28Z</time>
      </trkpt>
      <trkpt lat="50.686626769602299" lon="13.261429108679295">
        <ele>479</ele>
        <time>2026-08-29T09:57:29Z</time>
      </trkpt>
      <trkpt lat="50.686626937240362" lon="13.261428857222199">
        <ele>479</ele>
        <time>2026-08-29T09:57:30Z</time>
      </trkpt>
      <trkpt lat="50.686627021059394" lon="13.261428605765104">
        <ele>479</ele>
        <time>2026-08-29T09:57:31Z</time>
      </trkpt>
      <trkpt lat="50.686627188697457" lon="13.261428605765104">
        <ele>479</ele>
        <time>2026-08-29T09:57:32Z</time>
      </trkpt>
      <trkpt lat="50.686627188697457" lon="13.261428605765104">
        <ele>479</ele>
        <time>2026-08-29T09:57:33Z</time>
      </trkpt>
      <trkpt lat="50.686627272516489" lon="13.261428605765104">
        <ele>479</ele>
        <time>2026-08-29T09:57:34Z</time>
      </trkpt>
      <trkpt lat="50.686627272516489" lon="13.261428605765104">
        <ele>479</ele>
        <time>2026-08-29T09:57:35Z</time>
      </trkpt>
      <trkpt lat="50.686627440154552" lon="13.261428521946073">
        <ele>479</ele>
        <time>2026-08-29T09:57:36Z</time>
      </trkpt>
      <trkpt lat="50.686627691611648" lon="13.261428270488977">
        <ele>479</ele>
        <time>2026-08-29T09:57:37Z</time>
      </trkpt>
      <trkpt lat="50.686627691611648" lon="13.261428438127041">
        <ele>479</ele>
        <time>2026-08-29T09:57:38Z</time>
      </trkpt>
      <trkpt lat="50.686627691611648" lon="13.261428521946073">
        <ele>479</ele>
        <time>2026-08-29T09:57:39Z</time>
      </trkpt>
      <trkpt lat="50.686627859249711" lon="13.261428521946073">
        <ele>479</ele>
        <time>2026-08-29T09:57:40Z</time>
      </trkpt>
      <trkpt lat="50.686627859249711" lon="13.261428438127041">
        <ele>479</ele>
        <time>2026-08-29T09:57:41Z</time>
      </trkpt>
      <trkpt lat="50.686627859249711" lon="13.261428354308009">
        <ele>479</ele>
        <time>2026-08-29T09:57:42Z</time>
      </trkpt>
      <trkpt lat="50.686628026887774" lon="13.261428186669946">
        <ele>479</ele>
        <time>2026-08-29T09:57:43Z</time>
      </trkpt>
      <trkpt lat="50.686628110706806" lon="13.261427935212851">
        <ele>479</ele>
        <time>2026-08-29T09:57:44Z</time>
      </trkpt>
      <trkpt lat="50.68662827834487" lon="13.261427851393819">
        <ele>479</ele>
        <time>2026-08-29T09:57:45Z</time>
      </trkpt>
      <trkpt lat="50.686628362163901" lon="13.261427683755755">
        <ele>479</ele>
        <time>2026-08-29T09:57:46Z</time>
      </trkpt>
      <trkpt lat="50.686628529801965" lon="13.261427599936724">
        <ele>479</ele>
        <time>2026-08-29T09:57:47Z</time>
      </trkpt>
      <trkpt lat="50.686628613620996" lon="13.26142743229866">
        <ele>479</ele>
        <time>2026-08-29T09:57:48Z</time>
      </trkpt>
      <trkpt lat="50.686628697440028" lon="13.261427599936724">
        <ele>479</ele>
        <time>2026-08-29T09:57:49Z</time>
      </trkpt>
      <trkpt lat="50.686628697440028" lon="13.261427851393819">
        <ele>479</ele>
        <time>2026-08-29T09:57:50Z</time>
      </trkpt>
      <trkpt lat="50.686628697440028" lon="13.261428019031882">
        <ele>479</ele>
        <time>2026-08-29T09:57:51Z</time>
      </trkpt>
      <trkpt lat="50.68662878125906" lon="13.261428270488977">
        <ele>479</ele>
        <time>2026-08-29T09:57:52Z</time>
      </trkpt>
      <trkpt lat="50.686628948897123" lon="13.261428605765104">
        <ele>479</ele>
        <time>2026-08-29T09:57:53Z</time>
      </trkpt>
      <trkpt lat="50.686628948897123" lon="13.261428773403168">
        <ele>479</ele>
        <time>2026-08-29T09:57:54Z</time>
      </trkpt>
      <trkpt lat="50.686628948897123" lon="13.261428941041231">
        <ele>479</ele>
        <time>2026-08-29T09:57:55Z</time>
      </trkpt>
      <trkpt lat="50.686628948897123" lon="13.26142936013639">
        <ele>479</ele>
        <time>2026-08-29T09:57:56Z</time>
      </trkpt>
      <trkpt lat="50.686628948897123" lon="13.261429527774453">
        <ele>479</ele>
        <time>2026-08-29T09:57:57Z</time>
      </trkpt>
      <trkpt lat="50.686628948897123" lon="13.261429695412517">
        <ele>479</ele>
        <time>2026-08-29T09:57:58Z</time>
      </trkpt>
      <trkpt lat="50.686629032716155" lon="13.261429946869612">
        <ele>479</ele>
        <time>2026-08-29T09:57:59Z</time>
      </trkpt>
      <trkpt lat="50.686629032716155" lon="13.261430198326707">
        <ele>479</ele>
        <time>2026-08-29T09:58:00Z</time>
      </trkpt>
      <trkpt lat="50.686628948897123" lon="13.261430282145739">
        <ele>479</ele>
        <time>2026-08-29T09:58:01Z</time>
      </trkpt>
      <trkpt lat="50.686629032716155" lon="13.26143036596477">
        <ele>479</ele>
        <time>2026-08-29T09:58:02Z</time>
      </trkpt>
      <trkpt lat="50.686629032716155" lon="13.261430617421865">
        <ele>479</ele>
        <time>2026-08-29T09:58:03Z</time>
      </trkpt>
      <trkpt lat="50.686629032716155" lon="13.261430952697992">
        <ele>479</ele>
        <time>2026-08-29T09:58:04Z</time>
      </trkpt>
      <trkpt lat="50.686628948897123" lon="13.261431120336056">
        <ele>479</ele>
        <time>2026-08-29T09:58:05Z</time>
      </trkpt>
      <trkpt lat="50.686628948897123" lon="13.261431287974119">
        <ele>479</ele>
        <time>2026-08-29T09:58:06Z</time>
      </trkpt>
      <trkpt lat="50.686629032716155" lon="13.261431455612183">
        <ele>479</ele>
        <time>2026-08-29T09:58:07Z</time>
      </trkpt>
      <trkpt lat="50.686628948897123" lon="13.261431707069278">
        <ele>479</ele>
        <time>2026-08-29T09:58:08Z</time>
      </trkpt>
      <trkpt lat="50.68662878125906" lon="13.261431958526373">
        <ele>479</ele>
        <time>2026-08-29T09:58:09Z</time>
      </trkpt>
      <trkpt lat="50.68662878125906" lon="13.261432042345405">
        <ele>479</ele>
        <time>2026-08-29T09:58:10Z</time>
      </trkpt>
      <trkpt lat="50.686628865078092" lon="13.261432042345405">
        <ele>479</ele>
        <time>2026-08-29T09:58:11Z</time>
      </trkpt>
      <trkpt lat="50.686628948897123" lon="13.261431874707341">
        <ele>479</ele>
        <time>2026-08-29T09:58:12Z</time>
      </trkpt>
      <trkpt lat="50.686629032716155" lon="13.261431790888309">
        <ele>479</ele>
        <time>2026-08-29T09:58:13Z</time>
      </trkpt>
      <trkpt lat="50.686629200354218" lon="13.261431539431214">
        <ele>479</ele>
        <time>2026-08-29T09:58:14Z</time>
      </trkpt>
      <trkpt lat="50.686629367992282" lon="13.261431371793151">
        <ele>479</ele>
        <time>2026-08-29T09:58:15Z</time>
      </trkpt>
      <trkpt lat="50.686629451811314" lon="13.261431287974119">
        <ele>479</ele>
        <time>2026-08-29T09:58:16Z</time>
      </trkpt>
      <trkpt lat="50.686629619449377" lon="13.261431371793151">
        <ele>479</ele>
        <time>2026-08-29T09:58:17Z</time>
      </trkpt>
      <trkpt lat="50.686629703268409" lon="13.261431287974119">
        <ele>479</ele>
        <time>2026-08-29T09:58:18Z</time>
      </trkpt>
      <trkpt lat="50.686629870906472" lon="13.261431371793151">
        <ele>479</ele>
        <time>2026-08-29T09:58:19Z</time>
      </trkpt>
      <trkpt lat="50.686630038544536" lon="13.261431455612183">
        <ele>479</ele>
        <time>2026-08-29T09:58:20Z</time>
      </trkpt>
      <trkpt lat="50.686630038544536" lon="13.261431623250246">
        <ele>479</ele>
        <time>2026-08-29T09:58:21Z</time>
      </trkpt>
      <trkpt lat="50.686630038544536" lon="13.261431790888309">
        <ele>479</ele>
        <time>2026-08-29T09:58:22Z</time>
      </trkpt>
      <trkpt lat="50.686630038544536" lon="13.261431790888309">
        <ele>479</ele>
        <time>2026-08-29T09:58:23Z</time>
      </trkpt>
      <trkpt lat="50.686630122363567" lon="13.261431874707341">
        <ele>479</ele>
        <time>2026-08-29T09:58:24Z</time>
      </trkpt>
      <trkpt lat="50.686630206182599" lon="13.261431958526373">
        <ele>479</ele>
        <time>2026-08-29T09:58:25Z</time>
      </trkpt>
      <trkpt lat="50.686630206182599" lon="13.261432042345405">
        <ele>479</ele>
        <time>2026-08-29T09:58:26Z</time>
      </trkpt>
      <trkpt lat="50.686630290001631" lon="13.261432209983468">
        <ele>479</ele>
        <time>2026-08-29T09:58:27Z</time>
      </trkpt>
      <trkpt lat="50.686630122363567" lon="13.2614322938025">
        <ele>479</ele>
        <time>2026-08-29T09:58:28Z</time>
      </trkpt>
      <trkpt lat="50.686630038544536" lon="13.2614322938025">
        <ele>479</ele>
        <time>2026-08-29T09:58:29Z</time>
      </trkpt>
      <trkpt lat="50.686630038544536" lon="13.261432209983468">
        <ele>479</ele>
        <time>2026-08-29T09:58:30Z</time>
      </trkpt>
      <trkpt lat="50.686630038544536" lon="13.2614322938025">
        <ele>479</ele>
        <time>2026-08-29T09:58:31Z</time>
      </trkpt>
      <trkpt lat="50.686629870906472" lon="13.2614322938025">
        <ele>479</ele>
        <time>2026-08-29T09:58:32Z</time>
      </trkpt>
      <trkpt lat="50.686629870906472" lon="13.261432209983468">
        <ele>479</ele>
        <time>2026-08-29T09:58:33Z</time>
      </trkpt>
      <trkpt lat="50.686629870906472" lon="13.261431958526373">
        <ele>479</ele>
        <time>2026-08-29T09:58:34Z</time>
      </trkpt>
      <trkpt lat="50.686629870906472" lon="13.261431790888309">
        <ele>479</ele>
        <time>2026-08-29T09:58:35Z</time>
      </trkpt>
      <trkpt lat="50.686630038544536" lon="13.261431707069278">
        <ele>479</ele>
        <time>2026-08-29T09:58:36Z</time>
      </trkpt>
      <trkpt lat="50.686629954725504" lon="13.261431707069278">
        <ele>479</ele>
        <time>2026-08-29T09:58:37Z</time>
      </trkpt>
      <trkpt lat="50.686629870906472" lon="13.261431539431214">
        <ele>479</ele>
        <time>2026-08-29T09:58:38Z</time>
      </trkpt>
      <trkpt lat="50.686629870906472" lon="13.261431455612183">
        <ele>479</ele>
        <time>2026-08-29T09:58:39Z</time>
      </trkpt>
      <trkpt lat="50.686629954725504" lon="13.261431623250246">
        <ele>479</ele>
        <time>2026-08-29T09:58:40Z</time>
      </trkpt>
      <trkpt lat="50.686630038544536" lon="13.261431707069278">
        <ele>479</ele>
        <time>2026-08-29T09:58:41Z</time>
      </trkpt>
      <trkpt lat="50.686630122363567" lon="13.261431707069278">
        <ele>479</ele>
        <time>2026-08-29T09:58:42Z</time>
      </trkpt>
      <trkpt lat="50.686630206182599" lon="13.261431790888309">
        <ele>479</ele>
        <time>2026-08-29T09:58:43Z</time>
      </trkpt>
      <trkpt lat="50.686630290001631" lon="13.261431958526373">
        <ele>479</ele>
        <time>2026-08-29T09:58:44Z</time>
      </trkpt>
      <trkpt lat="50.686630290001631" lon="13.261432042345405">
        <ele>479</ele>
        <time>2026-08-29T09:58:45Z</time>
      </trkpt>
      <trkpt lat="50.686630457639694" lon="13.261432042345405">
        <ele>479</ele>
        <time>2026-08-29T09:58:46Z</time>
      </trkpt>
      <trkpt lat="50.686630541458726" lon="13.261432126164436">
        <ele>479</ele>
        <time>2026-08-29T09:58:47Z</time>
      </trkpt>
      <trkpt lat="50.686630709096789" lon="13.261432209983468">
        <ele>479</ele>
        <time>2026-08-29T09:58:48Z</time>
      </trkpt>
      <trkpt lat="50.686630792915821" lon="13.261432209983468">
        <ele>479</ele>
        <time>2026-08-29T09:58:49Z</time>
      </trkpt>
      <trkpt lat="50.686630960553885" lon="13.261432126164436">
        <ele>479</ele>
        <time>2026-08-29T09:58:50Z</time>
      </trkpt>
      <trkpt lat="50.686631128191948" lon="13.261432126164436">
        <ele>479</ele>
        <time>2026-08-29T09:58:51Z</time>
      </trkpt>
      <trkpt lat="50.686631128191948" lon="13.261432209983468">
        <ele>479</ele>
        <time>2026-08-29T09:58:52Z</time>
      </trkpt>
      <trkpt lat="50.686631128191948" lon="13.261432209983468">
        <ele>479</ele>
        <time>2026-08-29T09:58:53Z</time>
      </trkpt>
      <trkpt lat="50.686631128191948" lon="13.2614322938025">
        <ele>479</ele>
        <time>2026-08-29T09:58:54Z</time>
      </trkpt>
      <trkpt lat="50.686631128191948" lon="13.261432377621531">
        <ele>479</ele>
        <time>2026-08-29T09:58:55Z</time>
      </trkpt>
      <trkpt lat="50.68663121201098" lon="13.261432126164436">
        <ele>479</ele>
        <time>2026-08-29T09:58:56Z</time>
      </trkpt>
      <trkpt lat="50.68663121201098" lon="13.261431707069278">
        <ele>479</ele>
        <time>2026-08-29T09:58:57Z</time>
      </trkpt>
      <trkpt lat="50.686631295830011" lon="13.261431371793151">
        <ele>479</ele>
        <time>2026-08-29T09:58:58Z</time>
      </trkpt>
      <trkpt lat="50.686631295830011" lon="13.261431371793151">
        <ele>479</ele>
        <time>2026-08-29T09:58:59Z</time>
      </trkpt>
      <trkpt lat="50.686631295830011" lon="13.261431371793151">
        <ele>479</ele>
        <time>2026-08-29T09:59:00Z</time>
      </trkpt>
      <trkpt lat="50.68663121201098" lon="13.261431455612183">
        <ele>479</ele>
        <time>2026-08-29T09:59:01Z</time>
      </trkpt>
      <trkpt lat="50.68663121201098" lon="13.261431539431214">
        <ele>479</ele>
        <time>2026-08-29T09:59:02Z</time>
      </trkpt>
      <trkpt lat="50.686631128191948" lon="13.261431623250246">
        <ele>479</ele>
        <time>2026-08-29T09:59:03Z</time>
      </trkpt>
      <trkpt lat="50.686631128191948" lon="13.261431707069278">
        <ele>479</ele>
        <time>2026-08-29T09:59:04Z</time>
      </trkpt>
      <trkpt lat="50.68663121201098" lon="13.261431790888309">
        <ele>479</ele>
        <time>2026-08-29T09:59:05Z</time>
      </trkpt>
      <trkpt lat="50.68663121201098" lon="13.261431874707341">
        <ele>479</ele>
        <time>2026-08-29T09:59:06Z</time>
      </trkpt>
      <trkpt lat="50.686631128191948" lon="13.261431874707341">
        <ele>479</ele>
        <time>2026-08-29T09:59:07Z</time>
      </trkpt>
      <trkpt lat="50.686631128191948" lon="13.261431958526373">
        <ele>479</ele>
        <time>2026-08-29T09:59:08Z</time>
      </trkpt>
      <trkpt lat="50.686631128191948" lon="13.261431874707341">
        <ele>479</ele>
        <time>2026-08-29T09:59:09Z</time>
      </trkpt>
      <trkpt lat="50.68663121201098" lon="13.261431790888309">
        <ele>479</ele>
        <time>2026-08-29T09:59:10Z</time>
      </trkpt>
      <trkpt lat="50.68663121201098" lon="13.261431539431214">
        <ele>479</ele>
        <time>2026-08-29T09:59:11Z</time>
      </trkpt>
      <trkpt lat="50.686631295830011" lon="13.261431287974119">
        <ele>479</ele>
        <time>2026-08-29T09:59:12Z</time>
      </trkpt>
      <trkpt lat="50.686631379649043" lon="13.261431036517024">
        <ele>479</ele>
        <time>2026-08-29T09:59:13Z</time>
      </trkpt>
      <trkpt lat="50.686631547287107" lon="13.261430701240897">
        <ele>479</ele>
        <time>2026-08-29T09:59:14Z</time>
      </trkpt>
      <trkpt lat="50.686631547287107" lon="13.261430449783802">
        <ele>479</ele>
        <time>2026-08-29T09:59:15Z</time>
      </trkpt>
      <trkpt lat="50.686631631106138" lon="13.261430282145739">
        <ele>479</ele>
        <time>2026-08-29T09:59:16Z</time>
      </trkpt>
      <trkpt lat="50.686631798744202" lon="13.261430030688643">
        <ele>479</ele>
        <time>2026-08-29T09:59:17Z</time>
      </trkpt>
      <trkpt lat="50.686631882563233" lon="13.261430114507675">
        <ele>479</ele>
        <time>2026-08-29T09:59:18Z</time>
      </trkpt>
      <trkpt lat="50.686632050201297" lon="13.261429946869612">
        <ele>479</ele>
        <time>2026-08-29T09:59:19Z</time>
      </trkpt>
      <trkpt lat="50.68663221783936" lon="13.261429779231548">
        <ele>479</ele>
        <time>2026-08-29T09:59:20Z</time>
      </trkpt>
      <trkpt lat="50.686632385477424" lon="13.261429527774453">
        <ele>479</ele>
        <time>2026-08-29T09:59:21Z</time>
      </trkpt>
      <trkpt lat="50.686632553115487" lon="13.261429108679295">
        <ele>479</ele>
        <time>2026-08-29T09:59:22Z</time>
      </trkpt>
      <trkpt lat="50.686632050201297" lon="13.261433467268944">
        <ele>479</ele>
        <time>2026-08-29T09:59:23Z</time>
      </trkpt>
      <trkpt lat="50.686632301658392" lon="13.261433634907007">
        <ele>479</ele>
        <time>2026-08-29T09:59:24Z</time>
      </trkpt>
      <trkpt lat="50.686632301658392" lon="13.26143329963088">
        <ele>479</ele>
        <time>2026-08-29T09:59:25Z</time>
      </trkpt>
      <trkpt lat="50.686632301658392" lon="13.26143329963088">
        <ele>479</ele>
        <time>2026-08-29T09:59:26Z</time>
      </trkpt>
      <trkpt lat="50.686632385477424" lon="13.261433383449912">
        <ele>479</ele>
        <time>2026-08-29T09:59:27Z</time>
      </trkpt>
      <trkpt lat="50.686632469296455" lon="13.261433718726039">
        <ele>479</ele>
        <time>2026-08-29T09:59:28Z</time>
      </trkpt>
      <trkpt lat="50.686632636934519" lon="13.261433886364102">
        <ele>479</ele>
        <time>2026-08-29T09:59:29Z</time>
      </trkpt>
      <trkpt lat="50.686632720753551" lon="13.261434054002166">
        <ele>479</ele>
        <time>2026-08-29T09:59:30Z</time>
      </trkpt>
      <trkpt lat="50.686632720753551" lon="13.261434221640229">
        <ele>479</ele>
        <time>2026-08-29T09:59:31Z</time>
      </trkpt>
      <trkpt lat="50.686632720753551" lon="13.261434305459261">
        <ele>479</ele>
        <time>2026-08-29T09:59:32Z</time>
      </trkpt>
      <trkpt lat="50.686632720753551" lon="13.261434389278293">
        <ele>479</ele>
        <time>2026-08-29T09:59:33Z</time>
      </trkpt>
      <trkpt lat="50.686632804572582" lon="13.261434389278293">
        <ele>479</ele>
        <time>2026-08-29T09:59:34Z</time>
      </trkpt>
      <trkpt lat="50.686632888391614" lon="13.261434389278293">
        <ele>479</ele>
        <time>2026-08-29T09:59:35Z</time>
      </trkpt>
      <trkpt lat="50.686632888391614" lon="13.261434473097324">
        <ele>479</ele>
        <time>2026-08-29T09:59:36Z</time>
      </trkpt>
      <trkpt lat="50.686632888391614" lon="13.261434473097324">
        <ele>479</ele>
        <time>2026-08-29T09:59:37Z</time>
      </trkpt>
      <trkpt lat="50.686630960553885" lon="13.261444447562099">
        <ele>479</ele>
        <time>2026-08-29T09:59:38Z</time>
      </trkpt>
      <trkpt lat="50.686632301658392" lon="13.261444112285972">
        <ele>479</ele>
        <time>2026-08-29T09:59:39Z</time>
      </trkpt>
      <trkpt lat="50.686630960553885" lon="13.261441513895988">
        <ele>479</ele>
        <time>2026-08-29T09:59:40Z</time>
      </trkpt>
      <trkpt lat="50.686630709096789" lon="13.261441262438893">
        <ele>479</ele>
        <time>2026-08-29T09:59:41Z</time>
      </trkpt>
      <trkpt lat="50.686630625277758" lon="13.261441262438893">
        <ele>479</ele>
        <time>2026-08-29T09:59:42Z</time>
      </trkpt>
      <trkpt lat="50.686630541458726" lon="13.261441262438893">
        <ele>479</ele>
        <time>2026-08-29T09:59:43Z</time>
      </trkpt>
      <trkpt lat="50.686630373820662" lon="13.261441178619862">
        <ele>479</ele>
        <time>2026-08-29T09:59:44Z</time>
      </trkpt>
      <trkpt lat="50.686630290001631" lon="13.261441010981798">
        <ele>479</ele>
        <time>2026-08-29T09:59:45Z</time>
      </trkpt>
      <trkpt lat="50.686630290001631" lon="13.26144059188664">
        <ele>479</ele>
        <time>2026-08-29T09:59:46Z</time>
      </trkpt>
      <trkpt lat="50.686630457639694" lon="13.261440256610513">
        <ele>479</ele>
        <time>2026-08-29T09:59:47Z</time>
      </trkpt>
      <trkpt lat="50.686630457639694" lon="13.261440005153418">
        <ele>479</ele>
        <time>2026-08-29T09:59:48Z</time>
      </trkpt>
      <trkpt lat="50.686630373820662" lon="13.261439334601164">
        <ele>479</ele>
        <time>2026-08-29T09:59:49Z</time>
      </trkpt>
      <trkpt lat="50.686630373820662" lon="13.261438831686974">
        <ele>479</ele>
        <time>2026-08-29T09:59:50Z</time>
      </trkpt>
      <trkpt lat="50.686630290001631" lon="13.261438244953752">
        <ele>479</ele>
        <time>2026-08-29T09:59:51Z</time>
      </trkpt>
      <trkpt lat="50.686630290001631" lon="13.261437490582466">
        <ele>479</ele>
        <time>2026-08-29T09:59:52Z</time>
      </trkpt>
      <trkpt lat="50.68662827834487" lon="13.26143866404891">
        <ele>479</ele>
        <time>2026-08-29T09:59:53Z</time>
      </trkpt>
      <trkpt lat="50.68662827834487" lon="13.261438412591815">
        <ele>479</ele>
        <time>2026-08-29T09:59:54Z</time>
      </trkpt>
      <trkpt lat="50.686628194525838" lon="13.261437993496656">
        <ele>479</ele>
        <time>2026-08-29T09:59:55Z</time>
      </trkpt>
      <trkpt lat="50.686628110706806" lon="13.261437490582466">
        <ele>479</ele>
        <time>2026-08-29T09:59:56Z</time>
      </trkpt>
      <trkpt lat="50.686627943068743" lon="13.261436903849244">
        <ele>479</ele>
        <time>2026-08-29T09:59:57Z</time>
      </trkpt>
      <trkpt lat="50.686627943068743" lon="13.26143623329699">
        <ele>479</ele>
        <time>2026-08-29T09:59:58Z</time>
      </trkpt>
      <trkpt lat="50.686627859249711" lon="13.2614357303828">
        <ele>479</ele>
        <time>2026-08-29T09:59:59Z</time>
      </trkpt>
      <trkpt lat="50.686625428497791" lon="13.2614322938025">
        <ele>479</ele>
        <time>2026-08-29T10:00:00Z</time>
      </trkpt>
      <trkpt lat="50.686621740460396" lon="13.261433131992817">
        <ele>479</ele>
        <time>2026-08-29T10:00:01Z</time>
      </trkpt>
      <trkpt lat="50.686621321365237" lon="13.261434640735388">
        <ele>479</ele>
        <time>2026-08-29T10:00:02Z</time>
      </trkpt>
      <trkpt lat="50.686621069908142" lon="13.261435059830546">
        <ele>479</ele>
        <time>2026-08-29T10:00:03Z</time>
      </trkpt>
      <trkpt lat="50.686621069908142" lon="13.26143522746861">
        <ele>479</ele>
        <time>2026-08-29T10:00:04Z</time>
      </trkpt>
      <trkpt lat="50.686621069908142" lon="13.261435562744737">
        <ele>479</ele>
        <time>2026-08-29T10:00:05Z</time>
      </trkpt>
      <trkpt lat="50.686621069908142" lon="13.261435898020864">
        <ele>479</ele>
        <time>2026-08-29T10:00:06Z</time>
      </trkpt>
      <trkpt lat="50.686621153727174" lon="13.26143623329699">
        <ele>479</ele>
        <time>2026-08-29T10:00:07Z</time>
      </trkpt>
      <trkpt lat="50.686621237546206" lon="13.261436484754086">
        <ele>479</ele>
        <time>2026-08-29T10:00:08Z</time>
      </trkpt>
      <trkpt lat="50.686621237546206" lon="13.261436652392149">
        <ele>479</ele>
        <time>2026-08-29T10:00:09Z</time>
      </trkpt>
      <trkpt lat="50.686621321365237" lon="13.261436317116022">
        <ele>479</ele>
        <time>2026-08-29T10:00:10Z</time>
      </trkpt>
      <trkpt lat="50.686621321365237" lon="13.261436149477959">
        <ele>479</ele>
        <time>2026-08-29T10:00:11Z</time>
      </trkpt>
      <trkpt lat="50.686621321365237" lon="13.261435898020864">
        <ele>479</ele>
        <time>2026-08-29T10:00:12Z</time>
      </trkpt>
      <trkpt lat="50.686621321365237" lon="13.261436149477959">
        <ele>479</ele>
        <time>2026-08-29T10:00:13Z</time>
      </trkpt>
      <trkpt lat="50.686621321365237" lon="13.261436065658927">
        <ele>479</ele>
        <time>2026-08-29T10:00:14Z</time>
      </trkpt>
      <trkpt lat="50.686621405184269" lon="13.26143623329699">
        <ele>479</ele>
        <time>2026-08-29T10:00:15Z</time>
      </trkpt>
      <trkpt lat="50.686621489003301" lon="13.261436484754086">
        <ele>479</ele>
        <time>2026-08-29T10:00:16Z</time>
      </trkpt>
      <trkpt lat="50.686621572822332" lon="13.26143623329699">
        <ele>479</ele>
        <time>2026-08-29T10:00:17Z</time>
      </trkpt>
      <trkpt lat="50.686621572822332" lon="13.261436149477959">
        <ele>479</ele>
        <time>2026-08-29T10:00:18Z</time>
      </trkpt>
      <trkpt lat="50.686621740460396" lon="13.261436317116022">
        <ele>479</ele>
        <time>2026-08-29T10:00:19Z</time>
      </trkpt>
      <trkpt lat="50.686621740460396" lon="13.261436149477959">
        <ele>479</ele>
        <time>2026-08-29T10:00:20Z</time>
      </trkpt>
      <trkpt lat="50.686621824279428" lon="13.261436065658927">
        <ele>479</ele>
        <time>2026-08-29T10:00:21Z</time>
      </trkpt>
      <trkpt lat="50.686617130413651" lon="13.261435143649578">
        <ele>479</ele>
        <time>2026-08-29T10:00:22Z</time>
      </trkpt>
      <trkpt lat="50.686611346900463" lon="13.261442855000496">
        <ele>479</ele>
        <time>2026-08-29T10:00:23Z</time>
      </trkpt>
      <trkpt lat="50.686619561165571" lon="13.261449309065938">
        <ele>479</ele>
        <time>2026-08-29T10:00:24Z</time>
      </trkpt>
      <trkpt lat="50.686625596135855" lon="13.261450817808509">
        <ele>479</ele>
        <time>2026-08-29T10:00:25Z</time>
      </trkpt>
      <trkpt lat="50.686630373820662" lon="13.261453919112682">
        <ele>479</ele>
        <time>2026-08-29T10:00:26Z</time>
      </trkpt>
      <trkpt lat="50.686633056029677" lon="13.26145333237946">
        <ele>479</ele>
        <time>2026-08-29T10:00:27Z</time>
      </trkpt>
      <trkpt lat="50.686636241152883" lon="13.261449811980128">
        <ele>479</ele>
        <time>2026-08-29T10:00:28Z</time>
      </trkpt>
      <trkpt lat="50.686636660248041" lon="13.261450733989477">
        <ele>479</ele>
        <time>2026-08-29T10:00:29Z</time>
      </trkpt>
      <trkpt lat="50.68663808517158" lon="13.261442016810179">
        <ele>480</ele>
        <time>2026-08-29T10:00:30Z</time>
      </trkpt>
      <trkpt lat="50.686638168990612" lon="13.261441932991147">
        <ele>480</ele>
        <time>2026-08-29T10:00:31Z</time>
      </trkpt>
      <trkpt lat="50.686638336628675" lon="13.26144210062921">
        <ele>480</ele>
        <time>2026-08-29T10:00:32Z</time>
      </trkpt>
      <trkpt lat="50.686643114313483" lon="13.26145526021719">
        <ele>479</ele>
        <time>2026-08-29T10:00:33Z</time>
      </trkpt>
      <trkpt lat="50.686649149283767" lon="13.261446543037891">
        <ele>479</ele>
        <time>2026-08-29T10:00:34Z</time>
      </trkpt>
      <trkpt lat="50.68664931692183" lon="13.261445956304669">
        <ele>479</ele>
        <time>2026-08-29T10:00:35Z</time>
      </trkpt>
      <trkpt lat="50.686652082949877" lon="13.261429611593485">
        <ele>479</ele>
        <time>2026-08-29T10:00:36Z</time>
      </trkpt>
      <trkpt lat="50.686655938625336" lon="13.261426342651248">
        <ele>478</ele>
        <time>2026-08-29T10:00:37Z</time>
      </trkpt>
      <trkpt lat="50.686655854806304" lon="13.261426091194153">
        <ele>478</ele>
        <time>2026-08-29T10:00:38Z</time>
      </trkpt>
      <trkpt lat="50.686653926968575" lon="13.261424330994487">
        <ele>478</ele>
        <time>2026-08-29T10:00:39Z</time>
      </trkpt>
      <trkpt lat="50.686656273901463" lon="13.2614132668823">
        <ele>478</ele>
        <time>2026-08-29T10:00:40Z</time>
      </trkpt>
      <trkpt lat="50.686654932796955" lon="13.261408237740397">
        <ele>478</ele>
        <time>2026-08-29T10:00:41Z</time>
      </trkpt>
      <trkpt lat="50.686653340235353" lon="13.261407231912017">
        <ele>477</ele>
        <time>2026-08-29T10:00:42Z</time>
      </trkpt>
      <trkpt lat="50.686653340235353" lon="13.261407315731049">
        <ele>477</ele>
        <time>2026-08-29T10:00:43Z</time>
      </trkpt>
      <trkpt lat="50.686649987474084" lon="13.261402454227209">
        <ele>477</ele>
        <time>2026-08-29T10:00:44Z</time>
      </trkpt>
      <trkpt lat="50.686652418226004" lon="13.261397844180465">
        <ele>477</ele>
        <time>2026-08-29T10:00:45Z</time>
      </trkpt>
      <trkpt lat="50.686651412397623" lon="13.261403292417526">
        <ele>477</ele>
        <time>2026-08-29T10:00:46Z</time>
      </trkpt>
      <trkpt lat="50.686652418226004" lon="13.261401951313019">
        <ele>476</ele>
        <time>2026-08-29T10:00:47Z</time>
      </trkpt>
      <trkpt lat="50.686652418226004" lon="13.261401951313019">
        <ele>476</ele>
        <time>2026-08-29T10:00:48Z</time>
      </trkpt>
      <trkpt lat="50.686652502045035" lon="13.261402035132051">
        <ele>476</ele>
        <time>2026-08-29T10:00:49Z</time>
      </trkpt>
      <trkpt lat="50.686652669683099" lon="13.261402118951082">
        <ele>476</ele>
        <time>2026-08-29T10:00:50Z</time>
      </trkpt>
      <trkpt lat="50.686652837321162" lon="13.261401867493987">
        <ele>476</ele>
        <time>2026-08-29T10:00:51Z</time>
      </trkpt>
      <trkpt lat="50.686652921140194" lon="13.261401951313019">
        <ele>476</ele>
        <time>2026-08-29T10:00:52Z</time>
      </trkpt>
      <trkpt lat="50.686652921140194" lon="13.261401951313019">
        <ele>476</ele>
        <time>2026-08-29T10:00:53Z</time>
      </trkpt>
      <trkpt lat="50.686653004959226" lon="13.261402202770114">
        <ele>476</ele>
        <time>2026-08-29T10:00:54Z</time>
      </trkpt>
      <trkpt lat="50.686653172597289" lon="13.261402454227209">
        <ele>476</ele>
        <time>2026-08-29T10:00:55Z</time>
      </trkpt>
      <trkpt lat="50.686662979424" lon="13.261407148092985">
        <ele>477</ele>
        <time>2026-08-29T10:00:56Z</time>
      </trkpt>
      <trkpt lat="50.686662560328841" lon="13.261416284367442">
        <ele>477</ele>
        <time>2026-08-29T10:00:57Z</time>
      </trkpt>
      <trkpt lat="50.686664320528507" lon="13.261420056223869">
        <ele>476</ele>
        <time>2026-08-29T10:00:58Z</time>
      </trkpt>
      <trkpt lat="50.686659542843699" lon="13.261427516117692">
        <ele>476</ele>
        <time>2026-08-29T10:00:59Z</time>
      </trkpt>
      <trkpt lat="50.686654094606638" lon="13.261435646563768">
        <ele>476</ele>
        <time>2026-08-29T10:01:00Z</time>
      </trkpt>
      <trkpt lat="50.686650071293116" lon="13.261448387056589">
        <ele>476</ele>
        <time>2026-08-29T10:01:01Z</time>
      </trkpt>
      <trkpt lat="50.686657950282097" lon="13.261451739817858">
        <ele>475</ele>
        <time>2026-08-29T10:01:02Z</time>
      </trkpt>
      <trkpt lat="50.686667170375586" lon="13.261454170569777">
        <ele>475</ele>
        <time>2026-08-29T10:01:03Z</time>
      </trkpt>
      <trkpt lat="50.686681168153882" lon="13.261451488360763">
        <ele>475</ele>
        <time>2026-08-29T10:01:04Z</time>
      </trkpt>
      <trkpt lat="50.686700362712145" lon="13.261440005153418">
        <ele>474</ele>
        <time>2026-08-29T10:01:05Z</time>
      </trkpt>
      <trkpt lat="50.686720898374915" lon="13.261428354308009">
        <ele>474</ele>
        <time>2026-08-29T10:01:06Z</time>
      </trkpt>
      <trkpt lat="50.686742188408971" lon="13.261419218033552">
        <ele>474</ele>
        <time>2026-08-29T10:01:07Z</time>
      </trkpt>
      <trkpt lat="50.686762472614646" lon="13.261417290195823">
        <ele>474</ele>
        <time>2026-08-29T10:01:08Z</time>
      </trkpt>
      <trkpt lat="50.686787618324161" lon="13.261416871100664">
        <ele>474</ele>
        <time>2026-08-29T10:01:09Z</time>
      </trkpt>
      <trkpt lat="50.686818128451705" lon="13.261421984061599">
        <ele>474</ele>
        <time>2026-08-29T10:01:10Z</time>
      </trkpt>
      <trkpt lat="50.686840759590268" lon="13.261413434520364">
        <ele>474</ele>
        <time>2026-08-29T10:01:11Z</time>
      </trkpt>
      <trkpt lat="50.686858529224992" lon="13.261404382064939">
        <ele>474</ele>
        <time>2026-08-29T10:01:12Z</time>
      </trkpt>
      <trkpt lat="50.686880489811301" lon="13.261406058445573">
        <ele>474</ele>
        <time>2026-08-29T10:01:13Z</time>
      </trkpt>
      <trkpt lat="50.686896918341517" lon="13.261398682370782">
        <ele>474</ele>
        <time>2026-08-29T10:01:14Z</time>
      </trkpt>
      <trkpt lat="50.68691804073751" lon="13.261396083980799">
        <ele>474</ele>
        <time>2026-08-29T10:01:15Z</time>
      </trkpt>
      <trkpt lat="50.686942096799612" lon="13.261391809210181">
        <ele>474</ele>
        <time>2026-08-29T10:01:16Z</time>
      </trkpt>
      <trkpt lat="50.686965649947524" lon="13.261379823088646">
        <ele>474</ele>
        <time>2026-08-29T10:01:17Z</time>
      </trkpt>
      <trkpt lat="50.686983000487089" lon="13.261371441185474">
        <ele>473</ele>
        <time>2026-08-29T10:01:18Z</time>
      </trkpt>
      <trkpt lat="50.68700697273016" lon="13.26136339455843">
        <ele>473</ele>
        <time>2026-08-29T10:01:19Z</time>
      </trkpt>
      <trkpt lat="50.687024910002947" lon="13.261357862502337">
        <ele>473</ele>
        <time>2026-08-29T10:01:20Z</time>
      </trkpt>
      <trkpt lat="50.687033711001277" lon="13.261355515569448">
        <ele>472</ele>
        <time>2026-08-29T10:01:21Z</time>
      </trkpt>
      <trkpt lat="50.687036560848355" lon="13.261360041797161">
        <ele>472</ele>
        <time>2026-08-29T10:01:22Z</time>
      </trkpt>
      <trkpt lat="50.687041757628322" lon="13.261359538882971">
        <ele>472</ele>
        <time>2026-08-29T10:01:23Z</time>
      </trkpt>
      <trkpt lat="50.687043936923146" lon="13.261362137272954">
        <ele>472</ele>
        <time>2026-08-29T10:01:24Z</time>
      </trkpt>
      <trkpt lat="50.68705047480762" lon="13.261360377073288">
        <ele>472</ele>
        <time>2026-08-29T10:01:25Z</time>
      </trkpt>
      <trkpt lat="50.6870670709759" lon="13.261362556368113">
        <ele>472</ele>
        <time>2026-08-29T10:01:26Z</time>
      </trkpt>
      <trkpt lat="50.687073189765215" lon="13.261365992948413">
        <ele>473</ele>
        <time>2026-08-29T10:01:27Z</time>
      </trkpt>
      <trkpt lat="50.687077967450023" lon="13.261364316567779">
        <ele>473</ele>
        <time>2026-08-29T10:01:28Z</time>
      </trkpt>
      <trkpt lat="50.687084337696433" lon="13.261368423700333">
        <ele>474</ele>
        <time>2026-08-29T10:01:29Z</time>
      </trkpt>
      <trkpt lat="50.687100430950522" lon="13.261379152536392">
        <ele>474</ele>
        <time>2026-08-29T10:01:30Z</time>
      </trkpt>
      <trkpt lat="50.687108729034662" lon="13.261376889422536">
        <ele>474</ele>
        <time>2026-08-29T10:01:31Z</time>
      </trkpt>
      <trkpt lat="50.687114512547851" lon="13.261371860280633">
        <ele>474</ele>
        <time>2026-08-29T10:01:32Z</time>
      </trkpt>
      <trkpt lat="50.687110740691423" lon="13.261365909129381">
        <ele>474</ele>
        <time>2026-08-29T10:01:33Z</time>
      </trkpt>
      <trkpt lat="50.687110656872392" lon="13.261361131444573">
        <ele>474</ele>
        <time>2026-08-29T10:01:34Z</time>
      </trkpt>
      <trkpt lat="50.687113171443343" lon="13.261356269940734">
        <ele>474</ele>
        <time>2026-08-29T10:01:35Z</time>
      </trkpt>
      <trkpt lat="50.687112919986248" lon="13.261353923007846">
        <ele>474</ele>
        <time>2026-08-29T10:01:36Z</time>
      </trkpt>
      <trkpt lat="50.687120882794261" lon="13.261354006826878">
        <ele>474</ele>
        <time>2026-08-29T10:01:37Z</time>
      </trkpt>
      <trkpt lat="50.687129264697433" lon="13.261350486427546">
        <ele>475</ele>
        <time>2026-08-29T10:01:38Z</time>
      </trkpt>
      <trkpt lat="50.687137981876731" lon="13.261349061504006">
        <ele>474</ele>
        <time>2026-08-29T10:01:39Z</time>
      </trkpt>
      <trkpt lat="50.687147369608283" lon="13.261340260505676">
        <ele>474</ele>
        <time>2026-08-29T10:01:40Z</time>
      </trkpt>
      <trkpt lat="50.687163630500436" lon="13.261327687650919">
        <ele>474</ele>
        <time>2026-08-29T10:01:41Z</time>
      </trkpt>
      <trkpt lat="50.687184585258365" lon="13.261320563033223">
        <ele>474</ele>
        <time>2026-08-29T10:01:42Z</time>
      </trkpt>
      <trkpt lat="50.68720486946404" lon="13.26130916364491">
        <ele>474</ele>
        <time>2026-08-29T10:01:43Z</time>
      </trkpt>
      <trkpt lat="50.68722884170711" lon="13.261296255514026">
        <ele>473</ele>
        <time>2026-08-29T10:01:44Z</time>
      </trkpt>
      <trkpt lat="50.687255999073386" lon="13.26127152889967">
        <ele>473</ele>
        <time>2026-08-29T10:01:45Z</time>
      </trkpt>
      <trkpt lat="50.687279300764203" lon="13.261244455352426">
        <ele>473</ele>
        <time>2026-08-29T10:01:46Z</time>
      </trkpt>
      <trkpt lat="50.687305871397257" lon="13.261219561100006">
        <ele>472</ele>
        <time>2026-08-29T10:01:47Z</time>
      </trkpt>
      <trkpt lat="50.687328251078725" lon="13.261196846142411">
        <ele>472</ele>
        <time>2026-08-29T10:01:48Z</time>
      </trkpt>
      <trkpt lat="50.687344428151846" lon="13.26116650365293">
        <ele>472</ele>
        <time>2026-08-29T10:01:49Z</time>
      </trkpt>
      <trkpt lat="50.687355492264032" lon="13.261127443984151">
        <ele>472</ele>
        <time>2026-08-29T10:01:50Z</time>
      </trkpt>
      <trkpt lat="50.687372339889407" lon="13.261086205020547">
        <ele>472</ele>
        <time>2026-08-29T10:01:51Z</time>
      </trkpt>
      <trkpt lat="50.687382565811276" lon="13.261051503941417">
        <ele>472</ele>
        <time>2026-08-29T10:01:52Z</time>
      </trkpt>
      <trkpt lat="50.687385331839323" lon="13.261006996035576">
        <ele>472</ele>
        <time>2026-08-29T10:01:53Z</time>
      </trkpt>
      <trkpt lat="50.687384661287069" lon="13.260965337976813">
        <ele>472</ele>
        <time>2026-08-29T10:01:54Z</time>
      </trkpt>
      <trkpt lat="50.687388936057687" lon="13.260923009365797">
        <ele>472</ele>
        <time>2026-08-29T10:01:55Z</time>
      </trkpt>
      <trkpt lat="50.687388852238655" lon="13.260878082364798">
        <ele>472</ele>
        <time>2026-08-29T10:01:56Z</time>
      </trkpt>
      <trkpt lat="50.687387930229306" lon="13.260840363800526">
        <ele>472</ele>
        <time>2026-08-29T10:01:57Z</time>
      </trkpt>
      <trkpt lat="50.687382984906435" lon="13.260801974684">
        <ele>472</ele>
        <time>2026-08-29T10:01:58Z</time>
      </trkpt>
      <trkpt lat="50.687384242191911" lon="13.260757802054286">
        <ele>471</ele>
        <time>2026-08-29T10:01:59Z</time>
      </trkpt>
      <trkpt lat="50.687384242191911" lon="13.260720251128078">
        <ele>471</ele>
        <time>2026-08-29T10:02:00Z</time>
      </trkpt>
      <trkpt lat="50.68737929686904" lon="13.260676078498363">
        <ele>471</ele>
        <time>2026-08-29T10:02:01Z</time>
      </trkpt>
      <trkpt lat="50.687375441193581" lon="13.260630648583174">
        <ele>471</ele>
        <time>2026-08-29T10:02:02Z</time>
      </trkpt>
      <trkpt lat="50.687374351546168" lon="13.260581446811557">
        <ele>471</ele>
        <time>2026-08-29T10:02:03Z</time>
      </trkpt>
      <trkpt lat="50.687371417880058" lon="13.260527634993196">
        <ele>471</ele>
        <time>2026-08-29T10:02:04Z</time>
      </trkpt>
      <trkpt lat="50.68736806511879" lon="13.260484468191862">
        <ele>471</ele>
        <time>2026-08-29T10:02:05Z</time>
      </trkpt>
      <trkpt lat="50.687360521405935" lon="13.260434092953801">
        <ele>471</ele>
        <time>2026-08-29T10:02:06Z</time>
      </trkpt>
      <trkpt lat="50.687349792569876" lon="13.260380616411567">
        <ele>471</ele>
        <time>2026-08-29T10:02:07Z</time>
      </trkpt>
      <trkpt lat="50.687342081218958" lon="13.260328648611903">
        <ele>471</ele>
        <time>2026-08-29T10:02:08Z</time>
      </trkpt>
      <trkpt lat="50.687337387353182" lon="13.260275339707732">
        <ele>472</ele>
        <time>2026-08-29T10:02:09Z</time>
      </trkpt>
      <trkpt lat="50.687327329069376" lon="13.260222785174847">
        <ele>472</ele>
        <time>2026-08-29T10:02:10Z</time>
      </trkpt>
      <trkpt lat="50.687321629375219" lon="13.260174756869674">
        <ele>472</ele>
        <time>2026-08-29T10:02:11Z</time>
      </trkpt>
      <trkpt lat="50.687318779528141" lon="13.260131673887372">
        <ele>472</ele>
        <time>2026-08-29T10:02:12Z</time>
      </trkpt>
      <trkpt lat="50.68731484003365" lon="13.26008859090507">
        <ele>471</ele>
        <time>2026-08-29T10:02:13Z</time>
      </trkpt>
      <trkpt lat="50.687315007671714" lon="13.260048441588879">
        <ele>471</ele>
        <time>2026-08-29T10:02:14Z</time>
      </trkpt>
      <trkpt lat="50.687314169481397" lon="13.26000988483429">
        <ele>472</ele>
        <time>2026-08-29T10:02:15Z</time>
      </trkpt>
      <trkpt lat="50.687310062348843" lon="13.259965628385544">
        <ele>472</ele>
        <time>2026-08-29T10:02:16Z</time>
      </trkpt>
      <trkpt lat="50.687309056520462" lon="13.25992246158421">
        <ele>472</ele>
        <time>2026-08-29T10:02:17Z</time>
      </trkpt>
      <trkpt lat="50.687314001843333" lon="13.259882815182209">
        <ele>472</ele>
        <time>2026-08-29T10:02:18Z</time>
      </trkpt>
      <trkpt lat="50.687310397624969" lon="13.259845515713096">
        <ele>472</ele>
        <time>2026-08-29T10:02:19Z</time>
      </trkpt>
      <trkpt lat="50.687300339341164" lon="13.259818274527788">
        <ele>472</ele>
        <time>2026-08-29T10:02:20Z</time>
      </trkpt>
      <trkpt lat="50.687298327684402" lon="13.259785920381546">
        <ele>472</ele>
        <time>2026-08-29T10:02:21Z</time>
      </trkpt>
      <trkpt lat="50.687294052913785" lon="13.259748620912433">
        <ele>472</ele>
        <time>2026-08-29T10:02:22Z</time>
      </trkpt>
      <trkpt lat="50.68729966878891" lon="13.259704196825624">
        <ele>473</ele>
        <time>2026-08-29T10:02:23Z</time>
      </trkpt>
      <trkpt lat="50.687305368483067" lon="13.259652396664023">
        <ele>473</ele>
        <time>2026-08-29T10:02:24Z</time>
      </trkpt>
      <trkpt lat="50.6873001717031" lon="13.259604033082724">
        <ele>473</ele>
        <time>2026-08-29T10:02:25Z</time>
      </trkpt>
      <trkpt lat="50.687304111197591" lon="13.259556088596582">
        <ele>473</ele>
        <time>2026-08-29T10:02:26Z</time>
      </trkpt>
      <trkpt lat="50.687299920246005" lon="13.25950906611979">
        <ele>473</ele>
        <time>2026-08-29T10:02:27Z</time>
      </trkpt>
      <trkpt lat="50.687303273007274" lon="13.259463552385569">
        <ele>474</ele>
        <time>2026-08-29T10:02:28Z</time>
      </trkpt>
      <trkpt lat="50.687297405675054" lon="13.259416781365871">
        <ele>474</ele>
        <time>2026-08-29T10:02:29Z</time>
      </trkpt>
      <trkpt lat="50.687294974923134" lon="13.259369423612952">
        <ele>474</ele>
        <time>2026-08-29T10:02:30Z</time>
      </trkpt>
      <trkpt lat="50.687292963266373" lon="13.259326759725809">
        <ele>474</ele>
        <time>2026-08-29T10:02:31Z</time>
      </trkpt>
      <trkpt lat="50.687290532514453" lon="13.259289376437664">
        <ele>474</ele>
        <time>2026-08-29T10:02:32Z</time>
      </trkpt>
      <trkpt lat="50.687287598848343" lon="13.259242102503777">
        <ele>474</ele>
        <time>2026-08-29T10:02:33Z</time>
      </trkpt>
      <trkpt lat="50.687283659353852" lon="13.259195499122143">
        <ele>474</ele>
        <time>2026-08-29T10:02:34Z</time>
      </trkpt>
      <trkpt lat="50.687276870012283" lon="13.259148728102446">
        <ele>474</ele>
        <time>2026-08-29T10:02:35Z</time>
      </trkpt>
      <trkpt lat="50.687269913032651" lon="13.259103884920478">
        <ele>474</ele>
        <time>2026-08-29T10:02:36Z</time>
      </trkpt>
      <trkpt lat="50.687258010730147" lon="13.25906096957624">
        <ele>473</ele>
        <time>2026-08-29T10:02:37Z</time>
      </trkpt>
      <trkpt lat="50.687247030436993" lon="13.259008582681417">
        <ele>473</ele>
        <time>2026-08-29T10:02:38Z</time>
      </trkpt>
      <trkpt lat="50.687245689332485" lon="13.258960889652371">
        <ele>474</ele>
        <time>2026-08-29T10:02:39Z</time>
      </trkpt>
      <trkpt lat="50.687241917476058" lon="13.258915543556213">
        <ele>474</ele>
        <time>2026-08-29T10:02:40Z</time>
      </trkpt>
      <trkpt lat="50.687232362106442" lon="13.258869191631675">
        <ele>474</ele>
        <time>2026-08-29T10:02:41Z</time>
      </trkpt>
      <trkpt lat="50.687223309651017" lon="13.258824599906802">
        <ele>474</ele>
        <time>2026-08-29T10:02:42Z</time>
      </trkpt>
      <trkpt lat="50.687218112871051" lon="13.258778918534517">
        <ele>474</ele>
        <time>2026-08-29T10:02:43Z</time>
      </trkpt>
      <trkpt lat="50.687217861413956" lon="13.258738685399294">
        <ele>474</ele>
        <time>2026-08-29T10:02:44Z</time>
      </trkpt>
      <trkpt lat="50.687205791473389" lon="13.258695099502802">
        <ele>474</ele>
        <time>2026-08-29T10:02:45Z</time>
      </trkpt>
      <trkpt lat="50.687197158113122" lon="13.258650507777929">
        <ele>475</ele>
        <time>2026-08-29T10:02:46Z</time>
      </trkpt>
      <trkpt lat="50.687191626057029" lon="13.258601892739534">
        <ele>475</ele>
        <time>2026-08-29T10:02:47Z</time>
      </trkpt>
      <trkpt lat="50.687188189476728" lon="13.258552439510822">
        <ele>475</ele>
        <time>2026-08-29T10:02:48Z</time>
      </trkpt>
      <trkpt lat="50.687182573601604" lon="13.258516900241375">
        <ele>474</ele>
        <time>2026-08-29T10:02:49Z</time>
      </trkpt>
      <trkpt lat="50.687178298830986" lon="13.258483959361911">
        <ele>474</ele>
        <time>2026-08-29T10:02:50Z</time>
      </trkpt>
      <trkpt lat="50.687172180041671" lon="13.258438194170594">
        <ele>474</ele>
        <time>2026-08-29T10:02:51Z</time>
      </trkpt>
      <trkpt lat="50.687171258032322" lon="13.258394272997975">
        <ele>474</ele>
        <time>2026-08-29T10:02:52Z</time>
      </trkpt>
      <trkpt lat="50.687166731804609" lon="13.258349345996976">
        <ele>474</ele>
        <time>2026-08-29T10:02:53Z</time>
      </trkpt>
      <trkpt lat="50.687162121757865" lon="13.258304502815008">
        <ele>474</ele>
        <time>2026-08-29T10:02:54Z</time>
      </trkpt>
      <trkpt lat="50.687157930806279" lon="13.258266365155578">
        <ele>474</ele>
        <time>2026-08-29T10:02:55Z</time>
      </trkpt>
      <trkpt lat="50.687153153121471" lon="13.258237531408668">
        <ele>474</ele>
        <time>2026-08-29T10:02:56Z</time>
      </trkpt>
      <trkpt lat="50.687147285789251" lon="13.258208949118853">
        <ele>474</ele>
        <time>2026-08-29T10:02:57Z</time>
      </trkpt>
      <trkpt lat="50.687135718762875" lon="13.258175002411008">
        <ele>474</ele>
        <time>2026-08-29T10:02:58Z</time>
      </trkpt>
      <trkpt lat="50.687129851430655" lon="13.258130745962262">
        <ele>474</ele>
        <time>2026-08-29T10:02:59Z</time>
      </trkpt>
      <trkpt lat="50.68712281063199" lon="13.258082969114184">
        <ele>474</ele>
        <time>2026-08-29T10:03:00Z</time>
      </trkpt>
      <trkpt lat="50.687123481184244" lon="13.258025804534554">
        <ele>474</ele>
        <time>2026-08-29T10:03:01Z</time>
      </trkpt>
      <trkpt lat="50.687118787318468" lon="13.257966795936227">
        <ele>475</ele>
        <time>2026-08-29T10:03:02Z</time>
      </trkpt>
      <trkpt lat="50.687119709327817" lon="13.257908876985312">
        <ele>475</ele>
        <time>2026-08-29T10:03:03Z</time>
      </trkpt>
      <trkpt lat="50.6871188711375" lon="13.257870823144913">
        <ele>475</ele>
        <time>2026-08-29T10:03:04Z</time>
      </trkpt>
      <trkpt lat="50.687118535861373" lon="13.257818520069122">
        <ele>475</ele>
        <time>2026-08-29T10:03:05Z</time>
      </trkpt>
      <trkpt lat="50.687121050432324" lon="13.257763786241412">
        <ele>475</ele>
        <time>2026-08-29T10:03:06Z</time>
      </trkpt>
      <trkpt lat="50.68711937405169" lon="13.257712405174971">
        <ele>475</ele>
        <time>2026-08-29T10:03:07Z</time>
      </trkpt>
      <trkpt lat="50.687118787318468" lon="13.257675943896174">
        <ele>474</ele>
        <time>2026-08-29T10:03:08Z</time>
      </trkpt>
      <trkpt lat="50.687124151736498" lon="13.257628669962287">
        <ele>475</ele>
        <time>2026-08-29T10:03:09Z</time>
      </trkpt>
      <trkpt lat="50.687126582488418" lon="13.257583240047097">
        <ele>475</ele>
        <time>2026-08-29T10:03:10Z</time>
      </trkpt>
      <trkpt lat="50.687126331031322" lon="13.257521130144596">
        <ele>475</ele>
        <time>2026-08-29T10:03:11Z</time>
      </trkpt>
      <trkpt lat="50.687128929421306" lon="13.257453823462129">
        <ele>474</ele>
        <time>2026-08-29T10:03:12Z</time>
      </trkpt>
      <trkpt lat="50.687133874744177" lon="13.257397664710879">
        <ele>475</ele>
        <time>2026-08-29T10:03:13Z</time>
      </trkpt>
      <trkpt lat="50.687146699056029" lon="13.257348043844104">
        <ele>475</ele>
        <time>2026-08-29T10:03:14Z</time>
      </trkpt>
      <trkpt lat="50.687162289395928" lon="13.257278725504875">
        <ele>474</ele>
        <time>2026-08-29T10:03:15Z</time>
      </trkpt>
      <trkpt lat="50.687169078737497" lon="13.257234301418066">
        <ele>474</ele>
        <time>2026-08-29T10:03:16Z</time>
      </trkpt>
      <trkpt lat="50.687179723754525" lon="13.257201192900538">
        <ele>474</ele>
        <time>2026-08-29T10:03:17Z</time>
      </trkpt>
      <trkpt lat="50.687189698219299" lon="13.257155762985349">
        <ele>474</ele>
        <time>2026-08-29T10:03:18Z</time>
      </trkpt>
      <trkpt lat="50.687204031273723" lon="13.257109494879842">
        <ele>474</ele>
        <time>2026-08-29T10:03:19Z</time>
      </trkpt>
      <trkpt lat="50.687215346843004" lon="13.257059538736939">
        <ele>474</ele>
        <time>2026-08-29T10:03:20Z</time>
      </trkpt>
      <trkpt lat="50.687222890555859" lon="13.257012683898211">
        <ele>474</ele>
        <time>2026-08-29T10:03:21Z</time>
      </trkpt>
      <trkpt lat="50.687230518087745" lon="13.256952920928597">
        <ele>474</ele>
        <time>2026-08-29T10:03:22Z</time>
      </trkpt>
      <trkpt lat="50.68723420612514" lon="13.256883602589369">
        <ele>474</ele>
        <time>2026-08-29T10:03:23Z</time>
      </trkpt>
      <trkpt lat="50.687240157276392" lon="13.256783522665501">
        <ele>474</ele>
        <time>2026-08-29T10:03:24Z</time>
      </trkpt>
      <trkpt lat="50.687258010730147" lon="13.256696769967675">
        <ele>474</ele>
        <time>2026-08-29T10:03:25Z</time>
      </trkpt>
      <trkpt lat="50.687266979366541" lon="13.256630217656493">
        <ele>473</ele>
        <time>2026-08-29T10:03:26Z</time>
      </trkpt>
      <trkpt lat="50.687278965488076" lon="13.256561988964677">
        <ele>473</ele>
        <time>2026-08-29T10:03:27Z</time>
      </trkpt>
      <trkpt lat="50.687293549999595" lon="13.256498202681541">
        <ele>473</ele>
        <time>2026-08-29T10:03:28Z</time>
      </trkpt>
      <trkpt lat="50.687299920246005" lon="13.256418406963348">
        <ele>473</ele>
        <time>2026-08-29T10:03:29Z</time>
      </trkpt>
      <trkpt lat="50.687321880832314" lon="13.256328385323286">
        <ele>474</ele>
        <time>2026-08-29T10:03:30Z</time>
      </trkpt>
      <trkpt lat="50.687334537506104" lon="13.256244733929634">
        <ele>473</ele>
        <time>2026-08-29T10:03:31Z</time>
      </trkpt>
      <trkpt lat="50.687346858903766" lon="13.256161501631141">
        <ele>473</ele>
        <time>2026-08-29T10:03:32Z</time>
      </trkpt>
      <trkpt lat="50.687357587739825" lon="13.256078604608774">
        <ele>473</ele>
        <time>2026-08-29T10:03:33Z</time>
      </trkpt>
      <trkpt lat="50.687373010441661" lon="13.255999563261867">
        <ele>473</ele>
        <time>2026-08-29T10:03:34Z</time>
      </trkpt>
      <trkpt lat="50.687389941886067" lon="13.255922282114625">
        <ele>473</ele>
        <time>2026-08-29T10:03:35Z</time>
      </trkpt>
      <trkpt lat="50.687410477548838" lon="13.255845420062542">
        <ele>473</ele>
        <time>2026-08-29T10:03:36Z</time>
      </trkpt>
      <trkpt lat="50.687429253011942" lon="13.255757745355368">
        <ele>472</ele>
        <time>2026-08-29T10:03:37Z</time>
      </trkpt>
      <trkpt lat="50.687450207769871" lon="13.255671076476574">
        <ele>471</ele>
        <time>2026-08-29T10:03:38Z</time>
      </trkpt>
      <trkpt lat="50.687475185841322" lon="13.255590191110969">
        <ele>470</ele>
        <time>2026-08-29T10:03:39Z</time>
      </trkpt>
      <trkpt lat="50.68748583085835" lon="13.255522549152374">
        <ele>470</ele>
        <time>2026-08-29T10:03:40Z</time>
      </trkpt>
      <trkpt lat="50.687502427026629" lon="13.255461025983095">
        <ele>470</ele>
        <time>2026-08-29T10:03:41Z</time>
      </trkpt>
      <trkpt lat="50.687518352642655" lon="13.255397072061896">
        <ele>470</ele>
        <time>2026-08-29T10:03:42Z</time>
      </trkpt>
      <trkpt lat="50.687538301572204" lon="13.255339991301298">
        <ele>470</ele>
        <time>2026-08-29T10:03:43Z</time>
      </trkpt>
      <trkpt lat="50.687547940760851" lon="13.255291040986776">
        <ele>469</ele>
        <time>2026-08-29T10:03:44Z</time>
      </trkpt>
      <trkpt lat="50.687563279643655" lon="13.255247622728348">
        <ele>468</ele>
        <time>2026-08-29T10:03:45Z</time>
      </trkpt>
      <trkpt lat="50.687582977116108" lon="13.255202863365412">
        <ele>468</ele>
        <time>2026-08-29T10:03:46Z</time>
      </trkpt>
      <trkpt lat="50.687604350969195" lon="13.255166737362742">
        <ele>468</ele>
        <time>2026-08-29T10:03:47Z</time>
      </trkpt>
      <trkpt lat="50.687622120603919" lon="13.255126923322678">
        <ele>468</ele>
        <time>2026-08-29T10:03:48Z</time>
      </trkpt>
      <trkpt lat="50.68763829767704" lon="13.255093479529023">
        <ele>467</ele>
        <time>2026-08-29T10:03:49Z</time>
      </trkpt>
      <trkpt lat="50.687653468921781" lon="13.255058275535703">
        <ele>467</ele>
        <time>2026-08-29T10:03:50Z</time>
      </trkpt>
      <trkpt lat="50.687673669308424" lon="13.255031956359744">
        <ele>467</ele>
        <time>2026-08-29T10:03:51Z</time>
      </trkpt>
      <trkpt lat="50.687695043161511" lon="13.254993399605155">
        <ele>467</ele>
        <time>2026-08-29T10:03:52Z</time>
      </trkpt>
      <trkpt lat="50.687716165557504" lon="13.254951657727361">
        <ele>466</ele>
        <time>2026-08-29T10:03:53Z</time>
      </trkpt>
      <trkpt lat="50.687735360115767" lon="13.254908742383122">
        <ele>466</ele>
        <time>2026-08-29T10:03:54Z</time>
      </trkpt>
      <trkpt lat="50.687752794474363" lon="13.254843363538384">
        <ele>466</ele>
        <time>2026-08-29T10:03:55Z</time>
      </trkpt>
      <trkpt lat="50.687778694555163" lon="13.254795083776116">
        <ele>466</ele>
        <time>2026-08-29T10:03:56Z</time>
      </trkpt>
      <trkpt lat="50.687805181369185" lon="13.254738422110677">
        <ele>465</ele>
        <time>2026-08-29T10:03:57Z</time>
      </trkpt>
      <trkpt lat="50.687817335128784" lon="13.254670025780797">
        <ele>464</ele>
        <time>2026-08-29T10:03:58Z</time>
      </trkpt>
      <trkpt lat="50.687815323472023" lon="13.254610262811184">
        <ele>463</ele>
        <time>2026-08-29T10:03:59Z</time>
      </trkpt>
      <trkpt lat="50.687817251309752" lon="13.254546225070953">
        <ele>462</ele>
        <time>2026-08-29T10:04:00Z</time>
      </trkpt>
      <trkpt lat="50.687810042873025" lon="13.254477242007852">
        <ele>462</ele>
        <time>2026-08-29T10:04:01Z</time>
      </trkpt>
      <trkpt lat="50.687805265188217" lon="13.254439439624548">
        <ele>461</ele>
        <time>2026-08-29T10:04:02Z</time>
      </trkpt>
      <trkpt lat="50.687808031216264" lon="13.254400966688991">
        <ele>461</ele>
        <time>2026-08-29T10:04:03Z</time>
      </trkpt>
      <trkpt lat="50.687803840264678" lon="13.254367941990495">
        <ele>460</ele>
        <time>2026-08-29T10:04:04Z</time>
      </trkpt>
      <trkpt lat="50.687802750617266" lon="13.254329888150096">
        <ele>459</ele>
        <time>2026-08-29T10:04:05Z</time>
      </trkpt>
      <trkpt lat="50.687802499160171" lon="13.254297198727727">
        <ele>459</ele>
        <time>2026-08-29T10:04:06Z</time>
      </trkpt>
      <trkpt lat="50.687795961275697" lon="13.254267862066627">
        <ele>459</ele>
        <time>2026-08-29T10:04:07Z</time>
      </trkpt>
      <trkpt lat="50.687791770324111" lon="13.254239363595843">
        <ele>459</ele>
        <time>2026-08-29T10:04:08Z</time>
      </trkpt>
      <trkpt lat="50.687796380370855" lon="13.254205249249935">
        <ele>459</ele>
        <time>2026-08-29T10:04:09Z</time>
      </trkpt>
      <trkpt lat="50.687798811122775" lon="13.254184797406197">
        <ele>459</ele>
        <time>2026-08-29T10:04:10Z</time>
      </trkpt>
      <trkpt lat="50.687799481675029" lon="13.25418152846396">
        <ele>458</ele>
        <time>2026-08-29T10:04:11Z</time>
      </trkpt>
      <trkpt lat="50.687800906598568" lon="13.25418739579618">
        <ele>458</ele>
        <time>2026-08-29T10:04:12Z</time>
      </trkpt>
      <trkpt lat="50.687795961275697" lon="13.254189742729068">
        <ele>457</ele>
        <time>2026-08-29T10:04:13Z</time>
      </trkpt>
      <trkpt lat="50.68779562599957" lon="13.254193011671305">
        <ele>457</ele>
        <time>2026-08-29T10:04:14Z</time>
      </trkpt>
      <trkpt lat="50.687794033437967" lon="13.254200890660286">
        <ele>457</ele>
        <time>2026-08-29T10:04:15Z</time>
      </trkpt>
      <trkpt lat="50.687790932133794" lon="13.254199214279652">
        <ele>456</ele>
        <time>2026-08-29T10:04:16Z</time>
      </trkpt>
      <trkpt lat="50.687791602686048" lon="13.254202315583825">
        <ele>456</ele>
        <time>2026-08-29T10:04:17Z</time>
      </trkpt>
      <trkpt lat="50.687792440876365" lon="13.254201309755445">
        <ele>456</ele>
        <time>2026-08-29T10:04:18Z</time>
      </trkpt>
      <trkpt lat="50.687793781980872" lon="13.254203908145428">
        <ele>456</ele>
        <time>2026-08-29T10:04:19Z</time>
      </trkpt>
      <trkpt lat="50.687800152227283" lon="13.254197118803859">
        <ele>456</ele>
        <time>2026-08-29T10:04:20Z</time>
      </trkpt>
      <trkpt lat="50.687811970710754" lon="13.254200303927064">
        <ele>456</ele>
        <time>2026-08-29T10:04:21Z</time>
      </trkpt>
      <trkpt lat="50.687819430604577" lon="13.254212625324726">
        <ele>456</ele>
        <time>2026-08-29T10:04:22Z</time>
      </trkpt>
      <trkpt lat="50.687825549393892" lon="13.254240369424224">
        <ele>455</ele>
        <time>2026-08-29T10:04:23Z</time>
      </trkpt>
      <trkpt lat="50.687826387584209" lon="13.254259563982487">
        <ele>455</ele>
        <time>2026-08-29T10:04:24Z</time>
      </trkpt>
      <trkpt lat="50.687833763659" lon="13.254282865673304">
        <ele>455</ele>
        <time>2026-08-29T10:04:25Z</time>
      </trkpt>
      <trkpt lat="50.687842397019267" lon="13.254314130172133">
        <ele>455</ele>
        <time>2026-08-29T10:04:26Z</time>
      </trkpt>
      <trkpt lat="50.687853628769517" lon="13.25435159727931">
        <ele>455</ele>
        <time>2026-08-29T10:04:27Z</time>
      </trkpt>
      <trkpt lat="50.687861340120435" lon="13.254390154033899">
        <ele>455</ele>
        <time>2026-08-29T10:04:28Z</time>
      </trkpt>
      <trkpt lat="50.68787332624197" lon="13.254428124055266">
        <ele>455</ele>
        <time>2026-08-29T10:04:29Z</time>
      </trkpt>
      <trkpt lat="50.687887826934457" lon="13.254473637789488">
        <ele>455</ele>
        <time>2026-08-29T10:04:30Z</time>
      </trkpt>
      <trkpt lat="50.687902411445975" lon="13.254526443779469">
        <ele>454</ele>
        <time>2026-08-29T10:04:31Z</time>
      </trkpt>
      <trkpt lat="50.687914062291384" lon="13.2545783277601">
        <ele>454</ele>
        <time>2026-08-29T10:04:32Z</time>
      </trkpt>
      <trkpt lat="50.687929149717093" lon="13.25462375767529">
        <ele>454</ele>
        <time>2026-08-29T10:04:33Z</time>
      </trkpt>
      <trkpt lat="50.687940130010247" lon="13.254676312208176">
        <ele>454</ele>
        <time>2026-08-29T10:04:34Z</time>
      </trkpt>
      <trkpt lat="50.687948931008577" lon="13.254726184532046">
        <ele>454</ele>
        <time>2026-08-29T10:04:35Z</time>
      </trkpt>
      <trkpt lat="50.6879598274827" lon="13.254781756550074">
        <ele>455</ele>
        <time>2026-08-29T10:04:36Z</time>
      </trkpt>
      <trkpt lat="50.687971478328109" lon="13.254843195900321">
        <ele>455</ele>
        <time>2026-08-29T10:04:37Z</time>
      </trkpt>
      <trkpt lat="50.687979189679027" lon="13.254893152043223">
        <ele>454</ele>
        <time>2026-08-29T10:04:38Z</time>
      </trkpt>
      <trkpt lat="50.687991511076689" lon="13.254938246682286">
        <ele>454</ele>
        <time>2026-08-29T10:04:39Z</time>
      </trkpt>
      <trkpt lat="50.688002407550812" lon="13.254975797608495">
        <ele>454</ele>
        <time>2026-08-29T10:04:40Z</time>
      </trkpt>
      <trkpt lat="50.688014309853315" lon="13.255021395161748">
        <ele>455</ele>
        <time>2026-08-29T10:04:41Z</time>
      </trkpt>
      <trkpt lat="50.688023781403899" lon="13.255061376839876">
        <ele>455</ele>
        <time>2026-08-29T10:04:42Z</time>
      </trkpt>
      <trkpt lat="50.688031325116754" lon="13.255099430680275">
        <ele>455</ele>
        <time>2026-08-29T10:04:43Z</time>
      </trkpt>
      <trkpt lat="50.688046244904399" lon="13.255138657987118">
        <ele>455</ele>
        <time>2026-08-29T10:04:44Z</time>
      </trkpt>
      <trkpt lat="50.688056135550141" lon="13.255178723484278">
        <ele>455</ele>
        <time>2026-08-29T10:04:45Z</time>
      </trkpt>
      <trkpt lat="50.688061667606235" lon="13.255214598029852">
        <ele>454</ele>
        <time>2026-08-29T10:04:46Z</time>
      </trkpt>
      <trkpt lat="50.688063092529774" lon="13.255253070965409">
        <ele>455</ele>
        <time>2026-08-29T10:04:47Z</time>
      </trkpt>
      <trkpt lat="50.688065271824598" lon="13.255283832550049">
        <ele>455</ele>
        <time>2026-08-29T10:04:48Z</time>
      </trkpt>
      <trkpt lat="50.688067702576518" lon="13.255313253030181">
        <ele>455</ele>
        <time>2026-08-29T10:04:49Z</time>
      </trkpt>
      <trkpt lat="50.688074408099055" lon="13.255333704873919">
        <ele>455</ele>
        <time>2026-08-29T10:04:50Z</time>
      </trkpt>
      <trkpt lat="50.688078012317419" lon="13.255351642146707">
        <ele>455</ele>
        <time>2026-08-29T10:04:51Z</time>
      </trkpt>
      <trkpt lat="50.688078179955482" lon="13.255361868068576">
        <ele>454</ele>
        <time>2026-08-29T10:04:52Z</time>
      </trkpt>
      <trkpt lat="50.688075330108404" lon="13.255360359326005">
        <ele>453</ele>
        <time>2026-08-29T10:04:53Z</time>
      </trkpt>
      <trkpt lat="50.688079772517085" lon="13.255356252193451">
        <ele>454</ele>
        <time>2026-08-29T10:04:54Z</time>
      </trkpt>
      <trkpt lat="50.68808002397418" lon="13.255356000736356">
        <ele>454</ele>
        <time>2026-08-29T10:04:55Z</time>
      </trkpt>
      <trkpt lat="50.68808002397418" lon="13.255356000736356">
        <ele>454</ele>
        <time>2026-08-29T10:04:56Z</time>
      </trkpt>
      <trkpt lat="50.688080191612244" lon="13.255355916917324">
        <ele>454</ele>
        <time>2026-08-29T10:04:57Z</time>
      </trkpt>
      <trkpt lat="50.688080610707402" lon="13.255361448973417">
        <ele>453</ele>
        <time>2026-08-29T10:04:58Z</time>
      </trkpt>
      <trkpt lat="50.688080526888371" lon="13.255361365154386">
        <ele>453</ele>
        <time>2026-08-29T10:04:59Z</time>
      </trkpt>
      <trkpt lat="50.688080359250307" lon="13.255361448973417">
        <ele>453</ele>
        <time>2026-08-29T10:05:00Z</time>
      </trkpt>
      <trkpt lat="50.688080359250307" lon="13.255361365154386">
        <ele>453</ele>
        <time>2026-08-29T10:05:01Z</time>
      </trkpt>
      <trkpt lat="50.688080610707402" lon="13.255360778421164">
        <ele>453</ele>
        <time>2026-08-29T10:05:02Z</time>
      </trkpt>
      <trkpt lat="50.688082119449973" lon="13.255359856411815">
        <ele>453</ele>
        <time>2026-08-29T10:05:03Z</time>
      </trkpt>
      <trkpt lat="50.688082035630941" lon="13.255360275506973">
        <ele>453</ele>
        <time>2026-08-29T10:05:04Z</time>
      </trkpt>
      <trkpt lat="50.688081867992878" lon="13.255360191687942">
        <ele>453</ele>
        <time>2026-08-29T10:05:05Z</time>
      </trkpt>
      <trkpt lat="50.68808195181191" lon="13.255359940230846">
        <ele>453</ele>
        <time>2026-08-29T10:05:06Z</time>
      </trkpt>
      <trkpt lat="50.68808195181191" lon="13.255359856411815">
        <ele>453</ele>
        <time>2026-08-29T10:05:07Z</time>
      </trkpt>
      <trkpt lat="50.688081700354815" lon="13.255362287163734">
        <ele>453</ele>
        <time>2026-08-29T10:05:08Z</time>
      </trkpt>
      <trkpt lat="50.688081113621593" lon="13.255362035706639">
        <ele>453</ele>
        <time>2026-08-29T10:05:09Z</time>
      </trkpt>
      <trkpt lat="50.688085220754147" lon="13.255362706258893">
        <ele>454</ele>
        <time>2026-08-29T10:05:10Z</time>
      </trkpt>
      <trkpt lat="50.688082119449973" lon="13.255363879725337">
        <ele>454</ele>
        <time>2026-08-29T10:05:11Z</time>
      </trkpt>
      <trkpt lat="50.688086561858654" lon="13.255364717915654">
        <ele>454</ele>
        <time>2026-08-29T10:05:12Z</time>
      </trkpt>
      <trkpt lat="50.688087400048971" lon="13.255370249971747">
        <ele>454</ele>
        <time>2026-08-29T10:05:13Z</time>
      </trkpt>
      <trkpt lat="50.688088489696383" lon="13.255370501428843">
        <ele>454</ele>
        <time>2026-08-29T10:05:14Z</time>
      </trkpt>
      <trkpt lat="50.688090501353145" lon="13.255365304648876">
        <ele>454</ele>
        <time>2026-08-29T10:05:15Z</time>
      </trkpt>
      <trkpt lat="50.688094357028604" lon="13.255367986857891">
        <ele>454</ele>
        <time>2026-08-29T10:05:16Z</time>
      </trkpt>
      <trkpt lat="50.688097961246967" lon="13.255371004343033">
        <ele>454</ele>
        <time>2026-08-29T10:05:17Z</time>
      </trkpt>
      <trkpt lat="50.688098212704062" lon="13.255370920524001">
        <ele>454</ele>
        <time>2026-08-29T10:05:18Z</time>
      </trkpt>
      <trkpt lat="50.688098380342126" lon="13.255370752885938">
        <ele>454</ele>
        <time>2026-08-29T10:05:19Z</time>
      </trkpt>
      <trkpt lat="50.688100224360824" lon="13.255370920524001">
        <ele>453</ele>
        <time>2026-08-29T10:05:20Z</time>
      </trkpt>
      <trkpt lat="50.688100140541792" lon="13.255371004343033">
        <ele>453</ele>
        <time>2026-08-29T10:05:21Z</time>
      </trkpt>
      <trkpt lat="50.688100140541792" lon="13.255373015999794">
        <ele>454</ele>
        <time>2026-08-29T10:05:22Z</time>
      </trkpt>
      <trkpt lat="50.688100643455982" lon="13.255374189466238">
        <ele>454</ele>
        <time>2026-08-29T10:05:23Z</time>
      </trkpt>
      <trkpt lat="50.688095279037952" lon="13.255366561934352">
        <ele>454</ele>
        <time>2026-08-29T10:05:24Z</time>
      </trkpt>
      <trkpt lat="50.688090668991208" lon="13.255365053191781">
        <ele>454</ele>
        <time>2026-08-29T10:05:25Z</time>
      </trkpt>
      <trkpt lat="50.68809469230473" lon="13.255359269678593">
        <ele>454</ele>
        <time>2026-08-29T10:05:26Z</time>
      </trkpt>
      <trkpt lat="50.68809175863862" lon="13.255360946059227">
        <ele>454</ele>
        <time>2026-08-29T10:05:27Z</time>
      </trkpt>
      <trkpt lat="50.688089579343796" lon="13.255348959937692">
        <ele>454</ele>
        <time>2026-08-29T10:05:28Z</time>
      </trkpt>
      <trkpt lat="50.688091842457652" lon="13.255345858633518">
        <ele>454</ele>
        <time>2026-08-29T10:05:29Z</time>
      </trkpt>
      <trkpt lat="50.688095279037952" lon="13.255342841148376">
        <ele>455</ele>
        <time>2026-08-29T10:05:30Z</time>
      </trkpt>
      <trkpt lat="50.688086980953813" lon="13.255343260243535">
        <ele>454</ele>
        <time>2026-08-29T10:05:31Z</time>
      </trkpt>
      <trkpt lat="50.688086980953813" lon="13.25534300878644">
        <ele>454</ele>
        <time>2026-08-29T10:05:32Z</time>
      </trkpt>
      <trkpt lat="50.688089998438954" lon="13.255346193909645">
        <ele>454</ele>
        <time>2026-08-29T10:05:33Z</time>
      </trkpt>
      <trkpt lat="50.688090585172176" lon="13.255347954109311">
        <ele>454</ele>
        <time>2026-08-29T10:05:34Z</time>
      </trkpt>
      <trkpt lat="50.688092680647969" lon="13.255354408174753">
        <ele>455</ele>
        <time>2026-08-29T10:05:35Z</time>
      </trkpt>
      <trkpt lat="50.688090501353145" lon="13.255361951887608">
        <ele>455</ele>
        <time>2026-08-29T10:05:36Z</time>
      </trkpt>
      <trkpt lat="50.688085472211242" lon="13.255371423438191">
        <ele>455</ele>
        <time>2026-08-29T10:05:37Z</time>
      </trkpt>
      <trkpt lat="50.688085807487369" lon="13.255382822826505">
        <ele>455</ele>
        <time>2026-08-29T10:05:38Z</time>
      </trkpt>
      <trkpt lat="50.688087148591876" lon="13.255389695987105">
        <ele>455</ele>
        <time>2026-08-29T10:05:39Z</time>
      </trkpt>
      <trkpt lat="50.688085556030273" lon="13.255395060405135">
        <ele>455</ele>
        <time>2026-08-29T10:05:40Z</time>
      </trkpt>
      <trkpt lat="50.688083041459322" lon="13.25540067628026">
        <ele>455</ele>
        <time>2026-08-29T10:05:41Z</time>
      </trkpt>
      <trkpt lat="50.688078850507736" lon="13.255408387631178">
        <ele>455</ele>
        <time>2026-08-29T10:05:42Z</time>
      </trkpt>
      <trkpt lat="50.688079185783863" lon="13.255414422601461">
        <ele>455</ele>
        <time>2026-08-29T10:05:43Z</time>
      </trkpt>
      <trkpt lat="50.688075581565499" lon="13.255410483106971">
        <ele>455</ele>
        <time>2026-08-29T10:05:44Z</time>
      </trkpt>
      <trkpt lat="50.688074408099055" lon="13.25540847145021">
        <ele>455</ele>
        <time>2026-08-29T10:05:45Z</time>
      </trkpt>
      <trkpt lat="50.68807315081358" lon="13.255408136174083">
        <ele>455</ele>
        <time>2026-08-29T10:05:46Z</time>
      </trkpt>
      <trkpt lat="50.688073989003897" lon="13.2554124109447">
        <ele>455</ele>
        <time>2026-08-29T10:05:47Z</time>
      </trkpt>
      <trkpt lat="50.688073905184865" lon="13.255412494763732">
        <ele>455</ele>
        <time>2026-08-29T10:05:48Z</time>
      </trkpt>
      <trkpt lat="50.688073989003897" lon="13.255412578582764">
        <ele>455</ele>
        <time>2026-08-29T10:05:49Z</time>
      </trkpt>
      <trkpt lat="50.688073989003897" lon="13.255412662401795">
        <ele>455</ele>
        <time>2026-08-29T10:05:50Z</time>
      </trkpt>
      <trkpt lat="50.68807315081358" lon="13.255419535562396">
        <ele>455</ele>
        <time>2026-08-29T10:05:51Z</time>
      </trkpt>
      <trkpt lat="50.688074491918087" lon="13.255421463400126">
        <ele>455</ele>
        <time>2026-08-29T10:05:52Z</time>
      </trkpt>
      <trkpt lat="50.688074491918087" lon="13.255421798676252">
        <ele>455</ele>
        <time>2026-08-29T10:05:53Z</time>
      </trkpt>
      <trkpt lat="50.688072480261326" lon="13.255423223599792">
        <ele>455</ele>
        <time>2026-08-29T10:05:54Z</time>
      </trkpt>
      <trkpt lat="50.688075833022594" lon="13.255419284105301">
        <ele>455</ele>
        <time>2026-08-29T10:05:55Z</time>
      </trkpt>
      <trkpt lat="50.688072647899389" lon="13.255421379581094">
        <ele>456</ele>
        <time>2026-08-29T10:05:56Z</time>
      </trkpt>
      <trkpt lat="50.688072564080358" lon="13.255421463400126">
        <ele>456</ele>
        <time>2026-08-29T10:05:57Z</time>
      </trkpt>
      <trkpt lat="50.688072647899389" lon="13.255421798676252">
        <ele>456</ele>
        <time>2026-08-29T10:05:58Z</time>
      </trkpt>
      <trkpt lat="50.688072647899389" lon="13.255421882495284">
        <ele>456</ele>
        <time>2026-08-29T10:05:59Z</time>
      </trkpt>
      <trkpt lat="50.68807658739388" lon="13.25542263686657">
        <ele>456</ele>
        <time>2026-08-29T10:06:00Z</time>
      </trkpt>
      <trkpt lat="50.688079269602895" lon="13.255424229428172">
        <ele>456</ele>
        <time>2026-08-29T10:06:01Z</time>
      </trkpt>
      <trkpt lat="50.688078012317419" lon="13.255422553047538">
        <ele>456</ele>
        <time>2026-08-29T10:06:02Z</time>
      </trkpt>
      <trkpt lat="50.68807952105999" lon="13.255409058183432">
        <ele>456</ele>
        <time>2026-08-29T10:06:03Z</time>
      </trkpt>
      <trkpt lat="50.688083209097385" lon="13.255406711250544">
        <ele>456</ele>
        <time>2026-08-29T10:06:04Z</time>
      </trkpt>
      <trkpt lat="50.688081532716751" lon="13.255401514470577">
        <ele>456</ele>
        <time>2026-08-29T10:06:05Z</time>
      </trkpt>
      <trkpt lat="50.688079353421926" lon="13.255395060405135">
        <ele>456</ele>
        <time>2026-08-29T10:06:06Z</time>
      </trkpt>
      <trkpt lat="50.68807072006166" lon="13.255386762320995">
        <ele>456</ele>
        <time>2026-08-29T10:06:07Z</time>
      </trkpt>
      <trkpt lat="50.688067870214581" lon="13.255378715693951">
        <ele>456</ele>
        <time>2026-08-29T10:06:08Z</time>
      </trkpt>
      <trkpt lat="50.68806535564363" lon="13.255357090383768">
        <ele>456</ele>
        <time>2026-08-29T10:06:09Z</time>
      </trkpt>
      <trkpt lat="50.688065271824598" lon="13.255361532792449">
        <ele>456</ele>
        <time>2026-08-29T10:06:10Z</time>
      </trkpt>
      <trkpt lat="50.688064517453313" lon="13.255360946059227">
        <ele>457</ele>
        <time>2026-08-29T10:06:11Z</time>
      </trkpt>
      <trkpt lat="50.688061164692044" lon="13.255361448973417">
        <ele>456</ele>
        <time>2026-08-29T10:06:12Z</time>
      </trkpt>
      <trkpt lat="50.688060326501727" lon="13.255371171981096">
        <ele>456</ele>
        <time>2026-08-29T10:06:13Z</time>
      </trkpt>
      <trkpt lat="50.688062505796552" lon="13.255364550277591">
        <ele>456</ele>
        <time>2026-08-29T10:06:14Z</time>
      </trkpt>
      <trkpt lat="50.688059320673347" lon="13.255366561934352">
        <ele>456</ele>
        <time>2026-08-29T10:06:15Z</time>
      </trkpt>
      <trkpt lat="50.688052950426936" lon="13.25536597520113">
        <ele>457</ele>
        <time>2026-08-29T10:06:16Z</time>
      </trkpt>
      <trkpt lat="50.688047921285033" lon="13.255369579419494">
        <ele>458</ele>
        <time>2026-08-29T10:06:17Z</time>
      </trkpt>
      <trkpt lat="50.688047418370843" lon="13.255370836704969">
        <ele>458</ele>
        <time>2026-08-29T10:06:18Z</time>
      </trkpt>
      <trkpt lat="50.688045490533113" lon="13.255373351275921">
        <ele>457</ele>
        <time>2026-08-29T10:06:19Z</time>
      </trkpt>
      <trkpt lat="50.688040964305401" lon="13.255378464236856">
        <ele>457</ele>
        <time>2026-08-29T10:06:20Z</time>
      </trkpt>
      <trkpt lat="50.68803652189672" lon="13.25538064353168">
        <ele>458</ele>
        <time>2026-08-29T10:06:21Z</time>
      </trkpt>
      <trkpt lat="50.688032498583198" lon="13.255389528349042">
        <ele>458</ele>
        <time>2026-08-29T10:06:22Z</time>
      </trkpt>
      <trkpt lat="50.688026798889041" lon="13.255392713472247">
        <ele>458</ele>
        <time>2026-08-29T10:06:23Z</time>
      </trkpt>
      <trkpt lat="50.688012382015586" lon="13.255399083718657">
        <ele>458</ele>
        <time>2026-08-29T10:06:24Z</time>
      </trkpt>
      <trkpt lat="50.688001736998558" lon="13.255409225821495">
        <ele>459</ele>
        <time>2026-08-29T10:06:25Z</time>
      </trkpt>
      <trkpt lat="50.687995702028275" lon="13.255411740392447">
        <ele>459</ele>
        <time>2026-08-29T10:06:26Z</time>
      </trkpt>
      <trkpt lat="50.687995618209243" lon="13.255411824211478">
        <ele>459</ele>
        <time>2026-08-29T10:06:27Z</time>
      </trkpt>
      <trkpt lat="50.687995450571179" lon="13.25541140511632">
        <ele>459</ele>
        <time>2026-08-29T10:06:28Z</time>
      </trkpt>
      <trkpt lat="50.687995199114084" lon="13.25541140511632">
        <ele>459</ele>
        <time>2026-08-29T10:06:29Z</time>
      </trkpt>
      <trkpt lat="50.687987823039293" lon="13.255418445914984">
        <ele>460</ele>
        <time>2026-08-29T10:06:30Z</time>
      </trkpt>
      <trkpt lat="50.687986062839627" lon="13.25541190803051">
        <ele>460</ele>
        <time>2026-08-29T10:06:31Z</time>
      </trkpt>
      <trkpt lat="50.687982374802232" lon="13.255413081496954">
        <ele>460</ele>
        <time>2026-08-29T10:06:32Z</time>
      </trkpt>
      <trkpt lat="50.68797935731709" lon="13.255411069840193">
        <ele>460</ele>
        <time>2026-08-29T10:06:33Z</time>
      </trkpt>
      <trkpt lat="50.687979189679027" lon="13.255410399287939">
        <ele>460</ele>
        <time>2026-08-29T10:06:34Z</time>
      </trkpt>
      <trkpt lat="50.687977680936456" lon="13.255416685715318">
        <ele>460</ele>
        <time>2026-08-29T10:06:35Z</time>
      </trkpt>
      <trkpt lat="50.687974663451314" lon="13.255428252741694">
        <ele>460</ele>
        <time>2026-08-29T10:06:36Z</time>
      </trkpt>
      <trkpt lat="50.687975836917758" lon="13.255442334339023">
        <ele>461</ele>
        <time>2026-08-29T10:06:37Z</time>
      </trkpt>
      <trkpt lat="50.687976842746139" lon="13.255441999062896">
        <ele>461</ele>
        <time>2026-08-29T10:06:38Z</time>
      </trkpt>
      <trkpt lat="50.687969215214252" lon="13.255444429814816">
        <ele>460</ele>
        <time>2026-08-29T10:06:39Z</time>
      </trkpt>
      <trkpt lat="50.687965024262667" lon="13.255448788404465">
        <ele>460</ele>
        <time>2026-08-29T10:06:40Z</time>
      </trkpt>
      <trkpt lat="50.687961922958493" lon="13.255458679050207">
        <ele>459</ele>
        <time>2026-08-29T10:06:41Z</time>
      </trkpt>
      <trkpt lat="50.687957312911749" lon="13.255474353209138">
        <ele>459</ele>
        <time>2026-08-29T10:06:42Z</time>
      </trkpt>
      <trkpt lat="50.687956809997559" lon="13.255473431199789">
        <ele>459</ele>
        <time>2026-08-29T10:06:43Z</time>
      </trkpt>
      <trkpt lat="50.68795345723629" lon="13.255455661565065">
        <ele>458</ele>
        <time>2026-08-29T10:06:44Z</time>
      </trkpt>
      <trkpt lat="50.687947170808911" lon="13.25544417835772">
        <ele>458</ele>
        <time>2026-08-29T10:06:45Z</time>
      </trkpt>
      <trkpt lat="50.68794172257185" lon="13.255438730120659">
        <ele>459</ele>
        <time>2026-08-29T10:06:46Z</time>
      </trkpt>
      <trkpt lat="50.687938453629613" lon="13.25542900711298">
        <ele>459</ele>
        <time>2026-08-29T10:06:47Z</time>
      </trkpt>
      <trkpt lat="50.687937280163169" lon="13.255435544997454">
        <ele>460</ele>
        <time>2026-08-29T10:06:48Z</time>
      </trkpt>
      <trkpt lat="50.687937950715423" lon="13.25544074177742">
        <ele>460</ele>
        <time>2026-08-29T10:06:49Z</time>
      </trkpt>
      <trkpt lat="50.687944572418928" lon="13.255449291318655">
        <ele>460</ele>
        <time>2026-08-29T10:06:50Z</time>
      </trkpt>
      <trkpt lat="50.687944069504738" lon="13.255449710413814">
        <ele>460</ele>
        <time>2026-08-29T10:06:51Z</time>
      </trkpt>
      <trkpt lat="50.687942812219262" lon="13.255449794232845">
        <ele>460</ele>
        <time>2026-08-29T10:06:52Z</time>
      </trkpt>
      <trkpt lat="50.687942979857326" lon="13.255449458956718">
        <ele>460</ele>
        <time>2026-08-29T10:06:53Z</time>
      </trkpt>
      <trkpt lat="50.687934430316091" lon="13.25544853694737">
        <ele>460</ele>
        <time>2026-08-29T10:06:54Z</time>
      </trkpt>
      <trkpt lat="50.687933089211583" lon="13.255452224984765">
        <ele>460</ele>
        <time>2026-08-29T10:06:55Z</time>
      </trkpt>
      <trkpt lat="50.687928562983871" lon="13.255455158650875">
        <ele>460</ele>
        <time>2026-08-29T10:06:56Z</time>
      </trkpt>
      <trkpt lat="50.687920432537794" lon="13.255442669615149">
        <ele>460</ele>
        <time>2026-08-29T10:06:57Z</time>
      </trkpt>
      <trkpt lat="50.687911631539464" lon="13.255442250519991">
        <ele>461</ele>
        <time>2026-08-29T10:06:58Z</time>
      </trkpt>
      <trkpt lat="50.687906350940466" lon="13.255444932729006">
        <ele>460</ele>
        <time>2026-08-29T10:06:59Z</time>
      </trkpt>
      <trkpt lat="50.687908781692386" lon="13.255461528897285">
        <ele>461</ele>
        <time>2026-08-29T10:07:00Z</time>
      </trkpt>
      <trkpt lat="50.687908949330449" lon="13.255469491705298">
        <ele>461</ele>
        <time>2026-08-29T10:07:01Z</time>
      </trkpt>
      <trkpt lat="50.687910709530115" lon="13.255476616322994">
        <ele>461</ele>
        <time>2026-08-29T10:07:02Z</time>
      </trkpt>
      <trkpt lat="50.687914900481701" lon="13.25548080727458">
        <ele>461</ele>
        <time>2026-08-29T10:07:03Z</time>
      </trkpt>
      <trkpt lat="50.687918839976192" lon="13.255478795617819">
        <ele>461</ele>
        <time>2026-08-29T10:07:04Z</time>
      </trkpt>
      <trkpt lat="50.687922947108746" lon="13.255487764254212">
        <ele>462</ele>
        <time>2026-08-29T10:07:05Z</time>
      </trkpt>
      <trkpt lat="50.687920600175858" lon="13.255491117015481">
        <ele>462</ele>
        <time>2026-08-29T10:07:06Z</time>
      </trkpt>
      <trkpt lat="50.687909619882703" lon="13.255482399836183">
        <ele>462</ele>
        <time>2026-08-29T10:07:07Z</time>
      </trkpt>
      <trkpt lat="50.687900483608246" lon="13.255475107580423">
        <ele>462</ele>
        <time>2026-08-29T10:07:08Z</time>
      </trkpt>
      <trkpt lat="50.687890341505408" lon="13.255467815324664">
        <ele>462</ele>
        <time>2026-08-29T10:07:09Z</time>
      </trkpt>
      <trkpt lat="50.687881791964173" lon="13.255468402057886">
        <ele>463</ele>
        <time>2026-08-29T10:07:10Z</time>
      </trkpt>
      <trkpt lat="50.687873158603907" lon="13.255470832809806">
        <ele>463</ele>
        <time>2026-08-29T10:07:11Z</time>
      </trkpt>
      <trkpt lat="50.687873410061002" lon="13.255474856123328">
        <ele>463</ele>
        <time>2026-08-29T10:07:12Z</time>
      </trkpt>
      <trkpt lat="50.687872571870685" lon="13.255473682656884">
        <ele>463</ele>
        <time>2026-08-29T10:07:13Z</time>
      </trkpt>
      <trkpt lat="50.687873661518097" lon="13.255482483655214">
        <ele>463</ele>
        <time>2026-08-29T10:07:14Z</time>
      </trkpt>
      <trkpt lat="50.687880199402571" lon="13.255491284653544">
        <ele>463</ele>
        <time>2026-08-29T10:07:15Z</time>
      </trkpt>
      <trkpt lat="50.687890257686377" lon="13.255495307967067">
        <ele>463</ele>
        <time>2026-08-29T10:07:16Z</time>
      </trkpt>
      <trkpt lat="50.687901489436626" lon="13.255505617707968">
        <ele>463</ele>
        <time>2026-08-29T10:07:17Z</time>
      </trkpt>
      <trkpt lat="50.687910709530115" lon="13.255518022924662">
        <ele>463</ele>
        <time>2026-08-29T10:07:18Z</time>
      </trkpt>
      <trkpt lat="50.687922108918428" lon="13.255519447848201">
        <ele>463</ele>
        <time>2026-08-29T10:07:19Z</time>
      </trkpt>
      <trkpt lat="50.687931496649981" lon="13.255520286038518">
        <ele>463</ele>
        <time>2026-08-29T10:07:20Z</time>
      </trkpt>
      <trkpt lat="50.687943650409579" lon="13.255524644628167">
        <ele>463</ele>
        <time>2026-08-29T10:07:21Z</time>
      </trkpt>
      <trkpt lat="50.687953541055322" lon="13.255524644628167">
        <ele>462</ele>
        <time>2026-08-29T10:07:22Z</time>
      </trkpt>
      <trkpt lat="50.687964437529445" lon="13.255524141713977">
        <ele>462</ele>
        <time>2026-08-29T10:07:23Z</time>
      </trkpt>
      <trkpt lat="50.687972567975521" lon="13.255529925227165">
        <ele>462</ele>
        <time>2026-08-29T10:07:24Z</time>
      </trkpt>
      <trkpt lat="50.687983380630612" lon="13.255539983510971">
        <ele>462</ele>
        <time>2026-08-29T10:07:25Z</time>
      </trkpt>
      <trkpt lat="50.687978519126773" lon="13.255541743710637">
        <ele>462</ele>
        <time>2026-08-29T10:07:26Z</time>
      </trkpt>
      <trkpt lat="50.687970640137792" lon="13.255526907742023">
        <ele>461</ele>
        <time>2026-08-29T10:07:27Z</time>
      </trkpt>
      <trkpt lat="50.687970221042633" lon="13.255527410656214">
        <ele>461</ele>
        <time>2026-08-29T10:07:28Z</time>
      </trkpt>
      <trkpt lat="50.687970304861665" lon="13.25552724301815">
        <ele>461</ele>
        <time>2026-08-29T10:07:29Z</time>
      </trkpt>
      <trkpt lat="50.687970221042633" lon="13.25552724301815">
        <ele>461</ele>
        <time>2026-08-29T10:07:30Z</time>
      </trkpt>
      <trkpt lat="50.687970640137792" lon="13.255531517788768">
        <ele>461</ele>
        <time>2026-08-29T10:07:31Z</time>
      </trkpt>
      <trkpt lat="50.687969299033284" lon="13.255540067330003">
        <ele>461</ele>
        <time>2026-08-29T10:07:32Z</time>
      </trkpt>
      <trkpt lat="50.687973070889711" lon="13.255551801994443">
        <ele>461</ele>
        <time>2026-08-29T10:07:33Z</time>
      </trkpt>
      <trkpt lat="50.687973154708743" lon="13.255551801994443">
        <ele>461</ele>
        <time>2026-08-29T10:07:34Z</time>
      </trkpt>
      <trkpt lat="50.687974244356155" lon="13.255555741488934">
        <ele>460</ele>
        <time>2026-08-29T10:07:35Z</time>
      </trkpt>
      <trkpt lat="50.687973741441965" lon="13.255555154755712">
        <ele>460</ele>
        <time>2026-08-29T10:07:36Z</time>
      </trkpt>
      <trkpt lat="50.687973741441965" lon="13.25555507093668">
        <ele>460</ele>
        <time>2026-08-29T10:07:37Z</time>
      </trkpt>
      <trkpt lat="50.68797642365098" lon="13.255556579679251">
        <ele>461</ele>
        <time>2026-08-29T10:07:38Z</time>
      </trkpt>
      <trkpt lat="50.687976088374853" lon="13.255556328222156">
        <ele>461</ele>
        <time>2026-08-29T10:07:39Z</time>
      </trkpt>
      <trkpt lat="50.687976088374853" lon="13.255555909126997">
        <ele>461</ele>
        <time>2026-08-29T10:07:40Z</time>
      </trkpt>
      <trkpt lat="50.687976088374853" lon="13.255555741488934">
        <ele>461</ele>
        <time>2026-08-29T10:07:41Z</time>
      </trkpt>
      <trkpt lat="50.687978770583868" lon="13.255548700690269">
        <ele>461</ele>
        <time>2026-08-29T10:07:42Z</time>
      </trkpt>
      <trkpt lat="50.687979692593217" lon="13.255536798387766">
        <ele>461</ele>
        <time>2026-08-29T10:07:43Z</time>
      </trkpt>
      <trkpt lat="50.687976339831948" lon="13.255518274381757">
        <ele>461</ele>
        <time>2026-08-29T10:07:44Z</time>
      </trkpt>
      <trkpt lat="50.687978351488709" lon="13.25550427660346">
        <ele>461</ele>
        <time>2026-08-29T10:07:45Z</time>
      </trkpt>
      <trkpt lat="50.687975753098726" lon="13.255487764254212">
        <ele>460</ele>
        <time>2026-08-29T10:07:46Z</time>
      </trkpt>
      <trkpt lat="50.687974914908409" lon="13.255472676828504">
        <ele>460</ele>
        <time>2026-08-29T10:07:47Z</time>
      </trkpt>
      <trkpt lat="50.687967287376523" lon="13.255463037639856">
        <ele>460</ele>
        <time>2026-08-29T10:07:48Z</time>
      </trkpt>
      <trkpt lat="50.687966281548142" lon="13.2554642111063">
        <ele>460</ele>
        <time>2026-08-29T10:07:49Z</time>
      </trkpt>
      <trkpt lat="50.68796519190073" lon="13.255455158650875">
        <ele>460</ele>
        <time>2026-08-29T10:07:50Z</time>
      </trkpt>
      <trkpt lat="50.687973741441965" lon="13.255449458956718">
        <ele>460</ele>
        <time>2026-08-29T10:07:51Z</time>
      </trkpt>
      <trkpt lat="50.687977764755487" lon="13.255438394844532">
        <ele>461</ele>
        <time>2026-08-29T10:07:52Z</time>
      </trkpt>
      <trkpt lat="50.687982207164168" lon="13.255421379581094">
        <ele>461</ele>
        <time>2026-08-29T10:07:53Z</time>
      </trkpt>
      <trkpt lat="50.687985811382532" lon="13.255420038476586">
        <ele>461</ele>
        <time>2026-08-29T10:07:54Z</time>
      </trkpt>
      <trkpt lat="50.687985811382532" lon="13.255420038476586">
        <ele>461</ele>
        <time>2026-08-29T10:07:55Z</time>
      </trkpt>
      <trkpt lat="50.687985895201564" lon="13.255419954657555">
        <ele>461</ele>
        <time>2026-08-29T10:07:56Z</time>
      </trkpt>
      <trkpt lat="50.687985811382532" lon="13.255420122295618">
        <ele>461</ele>
        <time>2026-08-29T10:07:57Z</time>
      </trkpt>
      <trkpt lat="50.687985979020596" lon="13.255420289933681">
        <ele>461</ele>
        <time>2026-08-29T10:07:58Z</time>
      </trkpt>
      <trkpt lat="50.68797935731709" lon="13.255413500592113">
        <ele>461</ele>
        <time>2026-08-29T10:07:59Z</time>
      </trkpt>
      <trkpt lat="50.687979441136122" lon="13.255413500592113">
        <ele>461</ele>
        <time>2026-08-29T10:08:00Z</time>
      </trkpt>
      <trkpt lat="50.687979608774185" lon="13.255413584411144">
        <ele>461</ele>
        <time>2026-08-29T10:08:01Z</time>
      </trkpt>
      <trkpt lat="50.687979524955153" lon="13.255413584411144">
        <ele>461</ele>
        <time>2026-08-29T10:08:02Z</time>
      </trkpt>
      <trkpt lat="50.687979441136122" lon="13.255413500592113">
        <ele>461</ele>
        <time>2026-08-29T10:08:03Z</time>
      </trkpt>
      <trkpt lat="50.687980782240629" lon="13.255413835868239">
        <ele>461</ele>
        <time>2026-08-29T10:08:04Z</time>
      </trkpt>
      <trkpt lat="50.687980614602566" lon="13.255414254963398">
        <ele>461</ele>
        <time>2026-08-29T10:08:05Z</time>
      </trkpt>
      <trkpt lat="50.687980614602566" lon="13.255414506420493">
        <ele>461</ele>
        <time>2026-08-29T10:08:06Z</time>
      </trkpt>
      <trkpt lat="50.687980530783534" lon="13.255414506420493">
        <ele>461</ele>
        <time>2026-08-29T10:08:07Z</time>
      </trkpt>
      <trkpt lat="50.687980363145471" lon="13.255414757877588">
        <ele>461</ele>
        <time>2026-08-29T10:08:08Z</time>
      </trkpt>
      <trkpt lat="50.687980530783534" lon="13.255414674058557">
        <ele>461</ele>
        <time>2026-08-29T10:08:09Z</time>
      </trkpt>
      <trkpt lat="50.687981536611915" lon="13.255409309640527">
        <ele>461</ele>
        <time>2026-08-29T10:08:10Z</time>
      </trkpt>
      <trkpt lat="50.687977932393551" lon="13.255412913858891">
        <ele>461</ele>
        <time>2026-08-29T10:08:11Z</time>
      </trkpt>
      <trkpt lat="50.687974579632282" lon="13.255419367924333">
        <ele>462</ele>
        <time>2026-08-29T10:08:12Z</time>
      </trkpt>
      <trkpt lat="50.687976842746139" lon="13.255432024598122">
        <ele>461</ele>
        <time>2026-08-29T10:08:13Z</time>
      </trkpt>
      <trkpt lat="50.687979022040963" lon="13.255453649908304">
        <ele>461</ele>
        <time>2026-08-29T10:08:14Z</time>
      </trkpt>
      <trkpt lat="50.687978519126773" lon="13.255477538332343">
        <ele>461</ele>
        <time>2026-08-29T10:08:15Z</time>
      </trkpt>
      <trkpt lat="50.687978770583868" lon="13.255489859730005">
        <ele>461</ele>
        <time>2026-08-29T10:08:16Z</time>
      </trkpt>
      <trkpt lat="50.687978602945805" lon="13.255501929670572">
        <ele>460</ele>
        <time>2026-08-29T10:08:17Z</time>
      </trkpt>
      <trkpt lat="50.6879788544029" lon="13.255513999611139">
        <ele>460</ele>
        <time>2026-08-29T10:08:18Z</time>
      </trkpt>
      <trkpt lat="50.687978435307741" lon="13.255519196391106">
        <ele>460</ele>
        <time>2026-08-29T10:08:19Z</time>
      </trkpt>
      <trkpt lat="50.687980446964502" lon="13.255534870550036">
        <ele>460</ele>
        <time>2026-08-29T10:08:20Z</time>
      </trkpt>
      <trkpt lat="50.687980698421597" lon="13.255538558587432">
        <ele>459</ele>
        <time>2026-08-29T10:08:21Z</time>
      </trkpt>
      <trkpt lat="50.68798472173512" lon="13.255544425919652">
        <ele>459</ele>
        <time>2026-08-29T10:08:22Z</time>
      </trkpt>
      <trkpt lat="50.687984470278025" lon="13.25554434210062">
        <ele>459</ele>
        <time>2026-08-29T10:08:23Z</time>
      </trkpt>
      <trkpt lat="50.68798421882093" lon="13.25554434210062">
        <ele>459</ele>
        <time>2026-08-29T10:08:24Z</time>
      </trkpt>
      <trkpt lat="50.687984051182866" lon="13.255544258281589">
        <ele>459</ele>
        <time>2026-08-29T10:08:25Z</time>
      </trkpt>
      <trkpt lat="50.687984051182866" lon="13.255544090643525">
        <ele>459</ele>
        <time>2026-08-29T10:08:26Z</time>
      </trkpt>
      <trkpt lat="50.687983799725771" lon="13.255543923005462">
        <ele>459</ele>
        <time>2026-08-29T10:08:27Z</time>
      </trkpt>
      <trkpt lat="50.687983883544803" lon="13.25554383918643">
        <ele>459</ele>
        <time>2026-08-29T10:08:28Z</time>
      </trkpt>
      <trkpt lat="50.687984051182866" lon="13.255544006824493">
        <ele>459</ele>
        <time>2026-08-29T10:08:29Z</time>
      </trkpt>
      <trkpt lat="50.687983967363834" lon="13.255544174462557">
        <ele>459</ele>
        <time>2026-08-29T10:08:30Z</time>
      </trkpt>
      <trkpt lat="50.687984051182866" lon="13.255544174462557">
        <ele>459</ele>
        <time>2026-08-29T10:08:31Z</time>
      </trkpt>
      <trkpt lat="50.68798421882093" lon="13.25554434210062">
        <ele>459</ele>
        <time>2026-08-29T10:08:32Z</time>
      </trkpt>
      <trkpt lat="50.687984386458993" lon="13.255544761195779">
        <ele>460</ele>
        <time>2026-08-29T10:08:33Z</time>
      </trkpt>
      <trkpt lat="50.687984470278025" lon="13.255544845014811">
        <ele>460</ele>
        <time>2026-08-29T10:08:34Z</time>
      </trkpt>
      <trkpt lat="50.687984470278025" lon="13.255544845014811">
        <ele>460</ele>
        <time>2026-08-29T10:08:35Z</time>
      </trkpt>
      <trkpt lat="50.687984470278025" lon="13.255545096471906">
        <ele>460</ele>
        <time>2026-08-29T10:08:36Z</time>
      </trkpt>
      <trkpt lat="50.687983212992549" lon="13.255547024309635">
        <ele>460</ele>
        <time>2026-08-29T10:08:37Z</time>
      </trkpt>
      <trkpt lat="50.687975166365504" lon="13.255537804216146">
        <ele>460</ele>
        <time>2026-08-29T10:08:38Z</time>
      </trkpt>
      <trkpt lat="50.687973909080029" lon="13.255526153370738">
        <ele>459</ele>
        <time>2026-08-29T10:08:39Z</time>
      </trkpt>
      <trkpt lat="50.687974831089377" lon="13.255511652678251">
        <ele>459</ele>
        <time>2026-08-29T10:08:40Z</time>
      </trkpt>
      <trkpt lat="50.687975585460663" lon="13.255502264946699">
        <ele>459</ele>
        <time>2026-08-29T10:08:41Z</time>
      </trkpt>
      <trkpt lat="50.687975417822599" lon="13.255489272996783">
        <ele>460</ele>
        <time>2026-08-29T10:08:42Z</time>
      </trkpt>
      <trkpt lat="50.687975669279695" lon="13.255471084266901">
        <ele>460</ele>
        <time>2026-08-29T10:08:43Z</time>
      </trkpt>
      <trkpt lat="50.687971310690045" lon="13.255452224984765">
        <ele>460</ele>
        <time>2026-08-29T10:08:44Z</time>
      </trkpt>
      <trkpt lat="50.687967538833618" lon="13.255436299368739">
        <ele>460</ele>
        <time>2026-08-29T10:08:45Z</time>
      </trkpt>
      <trkpt lat="50.68796519190073" lon="13.255421463400126">
        <ele>460</ele>
        <time>2026-08-29T10:08:46Z</time>
      </trkpt>
      <trkpt lat="50.687968796119094" lon="13.255405789241195">
        <ele>459</ele>
        <time>2026-08-29T10:08:47Z</time>
      </trkpt>
      <trkpt lat="50.68797592073679" lon="13.255404364317656">
        <ele>459</ele>
        <time>2026-08-29T10:08:48Z</time>
      </trkpt>
      <trkpt lat="50.687981117516756" lon="13.255402771756053">
        <ele>459</ele>
        <time>2026-08-29T10:08:49Z</time>
      </trkpt>
      <trkpt lat="50.687986398115754" lon="13.255403526127338">
        <ele>459</ele>
        <time>2026-08-29T10:08:50Z</time>
      </trkpt>
      <trkpt lat="50.68798866122961" lon="13.25540067628026">
        <ele>459</ele>
        <time>2026-08-29T10:08:51Z</time>
      </trkpt>
      <trkpt lat="50.687993690371513" lon="13.255394725129008">
        <ele>459</ele>
        <time>2026-08-29T10:08:52Z</time>
      </trkpt>
      <trkpt lat="50.687999138608575" lon="13.255392462015152">
        <ele>459</ele>
        <time>2026-08-29T10:08:53Z</time>
      </trkpt>
      <trkpt lat="50.68800525739789" lon="13.25539237819612">
        <ele>459</ele>
        <time>2026-08-29T10:08:54Z</time>
      </trkpt>
      <trkpt lat="50.6880116276443" lon="13.255393467843533">
        <ele>459</ele>
        <time>2026-08-29T10:08:55Z</time>
      </trkpt>
      <trkpt lat="50.688018752261996" lon="13.255382906645536">
        <ele>458</ele>
        <time>2026-08-29T10:08:56Z</time>
      </trkpt>
      <trkpt lat="50.688028307631612" lon="13.255377458408475">
        <ele>458</ele>
        <time>2026-08-29T10:08:57Z</time>
      </trkpt>
      <trkpt lat="50.688029062002897" lon="13.255380056798458">
        <ele>459</ele>
        <time>2026-08-29T10:08:58Z</time>
      </trkpt>
      <trkpt lat="50.688032750040293" lon="13.255381481721997">
        <ele>459</ele>
        <time>2026-08-29T10:08:59Z</time>
      </trkpt>
      <trkpt lat="50.68803895264864" lon="13.255376117303967">
        <ele>458</ele>
        <time>2026-08-29T10:09:00Z</time>
      </trkpt>
      <trkpt lat="50.688044065609574" lon="13.255378715693951">
        <ele>458</ele>
        <time>2026-08-29T10:09:01Z</time>
      </trkpt>
      <trkpt lat="50.688050268217921" lon="13.255383158102632">
        <ele>458</ele>
        <time>2026-08-29T10:09:02Z</time>
      </trkpt>
      <trkpt lat="50.688051357865334" lon="13.255382739007473">
        <ele>458</ele>
        <time>2026-08-29T10:09:03Z</time>
      </trkpt>
      <trkpt lat="50.688060577958822" lon="13.255383828654885">
        <ele>458</ele>
        <time>2026-08-29T10:09:04Z</time>
      </trkpt>
      <trkpt lat="50.688065523281693" lon="13.25538408011198">
        <ele>458</ele>
        <time>2026-08-29T10:09:05Z</time>
      </trkpt>
      <trkpt lat="50.688070552423596" lon="13.255385169759393">
        <ele>457</ele>
        <time>2026-08-29T10:09:06Z</time>
      </trkpt>
      <trkpt lat="50.688075330108404" lon="13.255391288548708">
        <ele>458</ele>
        <time>2026-08-29T10:09:07Z</time>
      </trkpt>
      <trkpt lat="50.688078431412578" lon="13.25539137236774">
        <ele>458</ele>
        <time>2026-08-29T10:09:08Z</time>
      </trkpt>
      <trkpt lat="50.688078179955482" lon="13.255391456186771">
        <ele>458</ele>
        <time>2026-08-29T10:09:09Z</time>
      </trkpt>
      <trkpt lat="50.688080610707402" lon="13.255398413166404">
        <ele>457</ele>
        <time>2026-08-29T10:09:10Z</time>
      </trkpt>
      <trkpt lat="50.688081029802561" lon="13.255402185022831">
        <ele>457</ele>
        <time>2026-08-29T10:09:11Z</time>
      </trkpt>
      <trkpt lat="50.688081281259656" lon="13.255401933565736">
        <ele>457</ele>
        <time>2026-08-29T10:09:12Z</time>
      </trkpt>
      <trkpt lat="50.688081365078688" lon="13.255402268841863">
        <ele>457</ele>
        <time>2026-08-29T10:09:13Z</time>
      </trkpt>
      <trkpt lat="50.688081029802561" lon="13.255405789241195">
        <ele>457</ele>
        <time>2026-08-29T10:09:14Z</time>
      </trkpt>
      <trkpt lat="50.688081365078688" lon="13.255405621603131">
        <ele>457</ele>
        <time>2026-08-29T10:09:15Z</time>
      </trkpt>
      <trkpt lat="50.688081448897719" lon="13.255405705422163">
        <ele>457</ele>
        <time>2026-08-29T10:09:16Z</time>
      </trkpt>
      <trkpt lat="50.688079940155149" lon="13.255401346832514">
        <ele>457</ele>
        <time>2026-08-29T10:09:17Z</time>
      </trkpt>
      <trkpt lat="50.688080862164497" lon="13.255402520298958">
        <ele>457</ele>
        <time>2026-08-29T10:09:18Z</time>
      </trkpt>
      <trkpt lat="50.688081029802561" lon="13.255406962707639">
        <ele>457</ele>
        <time>2026-08-29T10:09:19Z</time>
      </trkpt>
      <trkpt lat="50.688078515231609" lon="13.255409142002463">
        <ele>457</ele>
        <time>2026-08-29T10:09:20Z</time>
      </trkpt>
      <trkpt lat="50.688074491918087" lon="13.255415176972747">
        <ele>456</ele>
        <time>2026-08-29T10:09:21Z</time>
      </trkpt>
      <trkpt lat="50.688070552423596" lon="13.255411572754383">
        <ele>455</ele>
        <time>2026-08-29T10:09:22Z</time>
      </trkpt>
      <trkpt lat="50.688072899356484" lon="13.255416853353381">
        <ele>455</ele>
        <time>2026-08-29T10:09:23Z</time>
      </trkpt>
      <trkpt lat="50.688075497746468" lon="13.255417607724667">
        <ele>455</ele>
        <time>2026-08-29T10:09:24Z</time>
      </trkpt>
      <trkpt lat="50.688085136935115" lon="13.255410734564066">
        <ele>456</ele>
        <time>2026-08-29T10:09:25Z</time>
      </trkpt>
      <trkpt lat="50.688085639849305" lon="13.255411321297288">
        <ele>456</ele>
        <time>2026-08-29T10:09:26Z</time>
      </trkpt>
      <trkpt lat="50.688090417534113" lon="13.255416601896286">
        <ele>456</ele>
        <time>2026-08-29T10:09:27Z</time>
      </trkpt>
      <trkpt lat="50.688092848286033" lon="13.255422217771411">
        <ele>456</ele>
        <time>2026-08-29T10:09:28Z</time>
      </trkpt>
      <trkpt lat="50.68809125572443" lon="13.25542020611465">
        <ele>457</ele>
        <time>2026-08-29T10:09:29Z</time>
      </trkpt>
      <trkpt lat="50.68809125572443" lon="13.255419619381428">
        <ele>457</ele>
        <time>2026-08-29T10:09:30Z</time>
      </trkpt>
      <trkpt lat="50.68810248747468" lon="13.255405956879258">
        <ele>457</ele>
        <time>2026-08-29T10:09:31Z</time>
      </trkpt>
      <trkpt lat="50.688099302351475" lon="13.255408219993114">
        <ele>457</ele>
        <time>2026-08-29T10:09:32Z</time>
      </trkpt>
      <trkpt lat="50.68809955380857" lon="13.255408219993114">
        <ele>457</ele>
        <time>2026-08-29T10:09:33Z</time>
      </trkpt>
      <trkpt lat="50.688099637627602" lon="13.255408052355051">
        <ele>457</ele>
        <time>2026-08-29T10:09:34Z</time>
      </trkpt>
      <trkpt lat="50.688099469989538" lon="13.255407800897956">
        <ele>457</ele>
        <time>2026-08-29T10:09:35Z</time>
      </trkpt>
      <trkpt lat="50.688101900741458" lon="13.255402185022831">
        <ele>457</ele>
        <time>2026-08-29T10:09:36Z</time>
      </trkpt>
      <trkpt lat="50.688106259331107" lon="13.255407297983766">
        <ele>457</ele>
        <time>2026-08-29T10:09:37Z</time>
      </trkpt>
      <trkpt lat="50.688105672597885" lon="13.255407717078924">
        <ele>457</ele>
        <time>2026-08-29T10:09:38Z</time>
      </trkpt>
      <trkpt lat="50.688108019530773" lon="13.25540067628026">
        <ele>456</ele>
        <time>2026-08-29T10:09:39Z</time>
      </trkpt>
      <trkpt lat="50.688105169683695" lon="13.255403526127338">
        <ele>457</ele>
        <time>2026-08-29T10:09:40Z</time>
      </trkpt>
      <trkpt lat="50.688106175512075" lon="13.255399921908975">
        <ele>456</ele>
        <time>2026-08-29T10:09:41Z</time>
      </trkpt>
      <trkpt lat="50.688107432797551" lon="13.255396904423833">
        <ele>456</ele>
        <time>2026-08-29T10:09:42Z</time>
      </trkpt>
      <trkpt lat="50.688111623749137" lon="13.255395228043199">
        <ele>456</ele>
        <time>2026-08-29T10:09:43Z</time>
      </trkpt>
      <trkpt lat="50.688116401433945" lon="13.255395060405135">
        <ele>456</ele>
        <time>2026-08-29T10:09:44Z</time>
      </trkpt>
      <trkpt lat="50.688114641234279" lon="13.255394725129008">
        <ele>456</ele>
        <time>2026-08-29T10:09:45Z</time>
      </trkpt>
      <trkpt lat="50.688111037015915" lon="13.255386762320995">
        <ele>456</ele>
        <time>2026-08-29T10:09:46Z</time>
      </trkpt>
      <trkpt lat="50.688104750588536" lon="13.255383828654885">
        <ele>456</ele>
        <time>2026-08-29T10:09:47Z</time>
      </trkpt>
      <trkpt lat="50.688100391998887" lon="13.2553796377033">
        <ele>456</ele>
        <time>2026-08-29T10:09:48Z</time>
      </trkpt>
      <trkpt lat="50.688107348978519" lon="13.255374440923333">
        <ele>456</ele>
        <time>2026-08-29T10:09:49Z</time>
      </trkpt>
      <trkpt lat="50.688105840235949" lon="13.255379302427173">
        <ele>456</ele>
        <time>2026-08-29T10:09:50Z</time>
      </trkpt>
      <trkpt lat="50.688118748366833" lon="13.255381649360061">
        <ele>457</ele>
        <time>2026-08-29T10:09:51Z</time>
      </trkpt>
      <trkpt lat="50.688128639012575" lon="13.255398413166404">
        <ele>457</ele>
        <time>2026-08-29T10:09:52Z</time>
      </trkpt>
      <trkpt lat="50.688134925439954" lon="13.255415512248874">
        <ele>456</ele>
        <time>2026-08-29T10:09:53Z</time>
      </trkpt>
      <trkpt lat="50.688131069764495" lon="13.255418697372079">
        <ele>456</ele>
        <time>2026-08-29T10:09:54Z</time>
      </trkpt>
      <trkpt lat="50.688132829964161" lon="13.255422469228506">
        <ele>456</ele>
        <time>2026-08-29T10:09:55Z</time>
      </trkpt>
      <trkpt lat="50.688137859106064" lon="13.255436215549707">
        <ele>457</ele>
        <time>2026-08-29T10:09:56Z</time>
      </trkpt>
      <trkpt lat="50.68814355880022" lon="13.255449710413814">
        <ele>457</ele>
        <time>2026-08-29T10:09:57Z</time>
      </trkpt>
      <trkpt lat="50.688153365626931" lon="13.255456667393446">
        <ele>457</ele>
        <time>2026-08-29T10:09:58Z</time>
      </trkpt>
      <trkpt lat="50.688165267929435" lon="13.255473095923662">
        <ele>457</ele>
        <time>2026-08-29T10:09:59Z</time>
      </trkpt>
      <trkpt lat="50.688178427517414" lon="13.255491117015481">
        <ele>456</ele>
        <time>2026-08-29T10:10:00Z</time>
      </trkpt>
      <trkpt lat="50.688193431124091" lon="13.255518190562725">
        <ele>457</ele>
        <time>2026-08-29T10:10:01Z</time>
      </trkpt>
      <trkpt lat="50.688205249607563" lon="13.25555850751698">
        <ele>456</ele>
        <time>2026-08-29T10:10:02Z</time>
      </trkpt>
      <trkpt lat="50.688215307891369" lon="13.255602931603789">
        <ele>457</ele>
        <time>2026-08-29T10:10:03Z</time>
      </trkpt>
      <trkpt lat="50.688222097232938" lon="13.255645344033837">
        <ele>456</ele>
        <time>2026-08-29T10:10:04Z</time>
      </trkpt>
      <trkpt lat="50.688220588490367" lon="13.25567577034235">
        <ele>456</ele>
        <time>2026-08-29T10:10:05Z</time>
      </trkpt>
      <trkpt lat="50.688225701451302" lon="13.255717512220144">
        <ele>456</ele>
        <time>2026-08-29T10:10:06Z</time>
      </trkpt>
      <trkpt lat="50.688241627067327" lon="13.25575397349894">
        <ele>455</ele>
        <time>2026-08-29T10:10:07Z</time>
      </trkpt>
      <trkpt lat="50.688262330368161" lon="13.255785154178739">
        <ele>455</ele>
        <time>2026-08-29T10:10:08Z</time>
      </trkpt>
      <trkpt lat="50.688283871859312" lon="13.255820274353027">
        <ele>455</ele>
        <time>2026-08-29T10:10:09Z</time>
      </trkpt>
      <trkpt lat="50.68830817937851" lon="13.255853215232491">
        <ele>455</ele>
        <time>2026-08-29T10:10:10Z</time>
      </trkpt>
      <trkpt lat="50.688331229612231" lon="13.25588783249259">
        <ele>455</ele>
        <time>2026-08-29T10:10:11Z</time>
      </trkpt>
      <trkpt lat="50.688356710597873" lon="13.255927478894591">
        <ele>455</ele>
        <time>2026-08-29T10:10:12Z</time>
      </trkpt>
      <trkpt lat="50.688381437212229" lon="13.25596746057272">
        <ele>455</ele>
        <time>2026-08-29T10:10:13Z</time>
      </trkpt>
      <trkpt lat="50.688408259302378" lon="13.256001323461533">
        <ele>455</ele>
        <time>2026-08-29T10:10:14Z</time>
      </trkpt>
      <trkpt lat="50.688440697267652" lon="13.256037617102265">
        <ele>455</ele>
        <time>2026-08-29T10:10:15Z</time>
      </trkpt>
      <trkpt lat="50.6884831096977" lon="13.256070306524634">
        <ele>454</ele>
        <time>2026-08-29T10:10:16Z</time>
      </trkpt>
      <trkpt lat="50.688516218215227" lon="13.256098888814449">
        <ele>454</ele>
        <time>2026-08-29T10:10:17Z</time>
      </trkpt>
      <trkpt lat="50.688547063618898" lon="13.256133506074548">
        <ele>454</ele>
        <time>2026-08-29T10:10:18Z</time>
      </trkpt>
      <trkpt lat="50.688588973134756" lon="13.25615513138473">
        <ele>453</ele>
        <time>2026-08-29T10:10:19Z</time>
      </trkpt>
      <trkpt lat="50.688631050288677" lon="13.256185976788402">
        <ele>454</ele>
        <time>2026-08-29T10:10:20Z</time>
      </trkpt>
      <trkpt lat="50.688676396384835" lon="13.256206680089235">
        <ele>454</ele>
        <time>2026-08-29T10:10:21Z</time>
      </trkpt>
      <trkpt lat="50.688727358356118" lon="13.256215481087565">
        <ele>454</ele>
        <time>2026-08-29T10:10:22Z</time>
      </trkpt>
      <trkpt lat="50.688775889575481" lon="13.256220510229468">
        <ele>454</ele>
        <time>2026-08-29T10:10:23Z</time>
      </trkpt>
      <trkpt lat="50.688826851546764" lon="13.256207853555679">
        <ele>454</ele>
        <time>2026-08-29T10:10:24Z</time>
      </trkpt>
      <trkpt lat="50.688874879851937" lon="13.256186060607433">
        <ele>454</ele>
        <time>2026-08-29T10:10:25Z</time>
      </trkpt>
      <trkpt lat="50.688921650871634" lon="13.256147755309939">
        <ele>454</ele>
        <time>2026-08-29T10:10:26Z</time>
      </trkpt>
      <trkpt lat="50.688962135463953" lon="13.256113473325968">
        <ele>454</ele>
        <time>2026-08-29T10:10:27Z</time>
      </trkpt>
      <trkpt lat="50.689004212617874" lon="13.256071479991078">
        <ele>454</ele>
        <time>2026-08-29T10:10:28Z</time>
      </trkpt>
      <trkpt lat="50.689044697210193" lon="13.256026050075889">
        <ele>454</ele>
        <time>2026-08-29T10:10:29Z</time>
      </trkpt>
      <trkpt lat="50.689081158488989" lon="13.25598020106554">
        <ele>454</ele>
        <time>2026-08-29T10:10:30Z</time>
      </trkpt>
      <trkpt lat="50.689123570919037" lon="13.255935106426477">
        <ele>454</ele>
        <time>2026-08-29T10:10:31Z</time>
      </trkpt>
      <trkpt lat="50.68916330114007" lon="13.255880204960704">
        <ele>454</ele>
        <time>2026-08-29T10:10:32Z</time>
      </trkpt>
      <trkpt lat="50.689200768247247" lon="13.255818262696266">
        <ele>454</ele>
        <time>2026-08-29T10:10:33Z</time>
      </trkpt>
      <trkpt lat="50.68923169746995" lon="13.255767552182078">
        <ele>454</ele>
        <time>2026-08-29T10:10:34Z</time>
      </trkpt>
      <trkpt lat="50.689267823472619" lon="13.255716087296605">
        <ele>455</ele>
        <time>2026-08-29T10:10:35Z</time>
      </trkpt>
      <trkpt lat="50.68930403329432" lon="13.255666885524988">
        <ele>454</ele>
        <time>2026-08-29T10:10:36Z</time>
      </trkpt>
      <trkpt lat="50.689340578392148" lon="13.255624892190099">
        <ele>454</ele>
        <time>2026-08-29T10:10:37Z</time>
      </trkpt>
      <trkpt lat="50.689369579777122" lon="13.255587844178081">
        <ele>454</ele>
        <time>2026-08-29T10:10:38Z</time>
      </trkpt>
      <trkpt lat="50.689391288906336" lon="13.25555163435638">
        <ele>455</ele>
        <time>2026-08-29T10:10:39Z</time>
      </trkpt>
      <trkpt lat="50.689398748800159" lon="13.255543168634176">
        <ele>454</ele>
        <time>2026-08-29T10:10:40Z</time>
      </trkpt>
      <trkpt lat="50.689400592818856" lon="13.255553394556046">
        <ele>453</ele>
        <time>2026-08-29T10:10:41Z</time>
      </trkpt>
      <trkpt lat="50.689400928094983" lon="13.255555490031838">
        <ele>453</ele>
        <time>2026-08-29T10:10:42Z</time>
      </trkpt>
      <trkpt lat="50.689401431009173" lon="13.25555557385087">
        <ele>453</ele>
        <time>2026-08-29T10:10:43Z</time>
      </trkpt>
      <trkpt lat="50.689401850104332" lon="13.25555456802249">
        <ele>453</ele>
        <time>2026-08-29T10:10:44Z</time>
      </trkpt>
      <trkpt lat="50.689401850104332" lon="13.255554065108299">
        <ele>453</ele>
        <time>2026-08-29T10:10:45Z</time>
      </trkpt>
      <trkpt lat="50.689402017742395" lon="13.255553394556046">
        <ele>453</ele>
        <time>2026-08-29T10:10:46Z</time>
      </trkpt>
      <trkpt lat="50.689402101561427" lon="13.25555314309895">
        <ele>453</ele>
        <time>2026-08-29T10:10:47Z</time>
      </trkpt>
      <trkpt lat="50.689402101561427" lon="13.25555314309895">
        <ele>453</ele>
        <time>2026-08-29T10:10:48Z</time>
      </trkpt>
      <trkpt lat="50.689402101561427" lon="13.255553059279919">
        <ele>453</ele>
        <time>2026-08-29T10:10:49Z</time>
      </trkpt>
      <trkpt lat="50.689402101561427" lon="13.255552891641855">
        <ele>453</ele>
        <time>2026-08-29T10:10:50Z</time>
      </trkpt>
      <trkpt lat="50.689403358846903" lon="13.255552388727665">
        <ele>453</ele>
        <time>2026-08-29T10:10:51Z</time>
      </trkpt>
      <trkpt lat="50.689411824569106" lon="13.255543168634176">
        <ele>453</ele>
        <time>2026-08-29T10:10:52Z</time>
      </trkpt>
      <trkpt lat="50.689432108774781" lon="13.255539480596781">
        <ele>452</ele>
        <time>2026-08-29T10:10:53Z</time>
      </trkpt>
      <trkpt lat="50.689458092674613" lon="13.255523471161723">
        <ele>453</ele>
        <time>2026-08-29T10:10:54Z</time>
      </trkpt>
      <trkpt lat="50.689480137079954" lon="13.255490781739354">
        <ele>452</ele>
        <time>2026-08-29T10:10:55Z</time>
      </trkpt>
      <trkpt lat="50.689497739076614" lon="13.25545247644186">
        <ele>452</ele>
        <time>2026-08-29T10:10:56Z</time>
      </trkpt>
      <trkpt lat="50.689512491226196" lon="13.25540998019278">
        <ele>452</ele>
        <time>2026-08-29T10:10:57Z</time>
      </trkpt>
      <trkpt lat="50.689529003575444" lon="13.255370585247874">
        <ele>452</ele>
        <time>2026-08-29T10:10:58Z</time>
      </trkpt>
      <trkpt lat="50.689552221447229" lon="13.255334040150046">
        <ele>452</ele>
        <time>2026-08-29T10:10:59Z</time>
      </trkpt>
      <trkpt lat="50.68957912735641" lon="13.255294896662235">
        <ele>451</ele>
        <time>2026-08-29T10:11:00Z</time>
      </trkpt>
      <trkpt lat="50.689609050750732" lon="13.25526237487793">
        <ele>451</ele>
        <time>2026-08-29T10:11:01Z</time>
      </trkpt>
      <trkpt lat="50.689638052135706" lon="13.25522331520915">
        <ele>451</ele>
        <time>2026-08-29T10:11:02Z</time>
      </trkpt>
      <trkpt lat="50.689663449302316" lon="13.25519397854805">
        <ele>451</ele>
        <time>2026-08-29T10:11:03Z</time>
      </trkpt>
      <trkpt lat="50.689689936116338" lon="13.255162630230188">
        <ele>451</ele>
        <time>2026-08-29T10:11:04Z</time>
      </trkpt>
      <trkpt lat="50.689715836197138" lon="13.255128096789122">
        <ele>452</ele>
        <time>2026-08-29T10:11:05Z</time>
      </trkpt>
      <trkpt lat="50.689746597781777" lon="13.255099514499307">
        <ele>452</ele>
        <time>2026-08-29T10:11:06Z</time>
      </trkpt>
      <trkpt lat="50.689773838967085" lon="13.255072608590126">
        <ele>452</ele>
        <time>2026-08-29T10:11:07Z</time>
      </trkpt>
      <trkpt lat="50.689803594723344" lon="13.255046959966421">
        <ele>452</ele>
        <time>2026-08-29T10:11:08Z</time>
      </trkpt>
      <trkpt lat="50.68983469158411" lon="13.25501318089664">
        <ele>452</ele>
        <time>2026-08-29T10:11:09Z</time>
      </trkpt>
      <trkpt lat="50.689862938597798" lon="13.254982838407159">
        <ele>452</ele>
        <time>2026-08-29T10:11:10Z</time>
      </trkpt>
      <trkpt lat="50.689901411533356" lon="13.2549496460706">
        <ele>452</ele>
        <time>2026-08-29T10:11:11Z</time>
      </trkpt>
      <trkpt lat="50.689938208088279" lon="13.254907066002488">
        <ele>453</ele>
        <time>2026-08-29T10:11:12Z</time>
      </trkpt>
      <trkpt lat="50.689979447051883" lon="13.254869095981121">
        <ele>453</ele>
        <time>2026-08-29T10:11:13Z</time>
      </trkpt>
      <trkpt lat="50.690025296062231" lon="13.254836993291974">
        <ele>453</ele>
        <time>2026-08-29T10:11:14Z</time>
      </trkpt>
      <trkpt lat="50.690067540854216" lon="13.254802376031876">
        <ele>453</ele>
        <time>2026-08-29T10:11:15Z</time>
      </trkpt>
      <trkpt lat="50.690106013789773" lon="13.254761220887303">
        <ele>453</ele>
        <time>2026-08-29T10:11:16Z</time>
      </trkpt>
      <trkpt lat="50.690139709040523" lon="13.254716964438558">
        <ele>453</ele>
        <time>2026-08-29T10:11:17Z</time>
      </trkpt>
      <trkpt lat="50.690178768709302" lon="13.254665080457926">
        <ele>453</ele>
        <time>2026-08-29T10:11:18Z</time>
      </trkpt>
      <trkpt lat="50.69021481089294" lon="13.254606993868947">
        <ele>453</ele>
        <time>2026-08-29T10:11:19Z</time>
      </trkpt>
      <trkpt lat="50.690245069563389" lon="13.254549326375127">
        <ele>454</ele>
        <time>2026-08-29T10:11:20Z</time>
      </trkpt>
      <trkpt lat="50.69027541205287" lon="13.25449132360518">
        <ele>454</ele>
        <time>2026-08-29T10:11:21Z</time>
      </trkpt>
      <trkpt lat="50.690306760370731" lon="13.254432482644916">
        <ele>454</ele>
        <time>2026-08-29T10:11:22Z</time>
      </trkpt>
      <trkpt lat="50.69033064879477" lon="13.254374479874969">
        <ele>454</ele>
        <time>2026-08-29T10:11:23Z</time>
      </trkpt>
      <trkpt lat="50.690356297418475" lon="13.25431639328599">
        <ele>454</ele>
        <time>2026-08-29T10:11:24Z</time>
      </trkpt>
      <trkpt lat="50.690377419814467" lon="13.254257384687662">
        <ele>454</ele>
        <time>2026-08-29T10:11:25Z</time>
      </trkpt>
      <trkpt lat="50.690391920506954" lon="13.254206422716379">
        <ele>454</ele>
        <time>2026-08-29T10:11:26Z</time>
      </trkpt>
      <trkpt lat="50.690411031246185" lon="13.254158142954111">
        <ele>454</ele>
        <time>2026-08-29T10:11:27Z</time>
      </trkpt>
      <trkpt lat="50.690437769517303" lon="13.254112713038921">
        <ele>454</ele>
        <time>2026-08-29T10:11:28Z</time>
      </trkpt>
      <trkpt lat="50.690475571900606" lon="13.254086812958121">
        <ele>455</ele>
        <time>2026-08-29T10:11:29Z</time>
      </trkpt>
      <trkpt lat="50.69051630795002" lon="13.254073318094015">
        <ele>455</ele>
        <time>2026-08-29T10:11:30Z</time>
      </trkpt>
      <trkpt lat="50.690554948523641" lon="13.254066947847605">
        <ele>455</ele>
        <time>2026-08-29T10:11:31Z</time>
      </trkpt>
      <trkpt lat="50.690590990707278" lon="13.254064014181495">
        <ele>455</ele>
        <time>2026-08-29T10:11:32Z</time>
      </trkpt>
      <trkpt lat="50.690623847767711" lon="13.254055883735418">
        <ele>455</ele>
        <time>2026-08-29T10:11:33Z</time>
      </trkpt>
      <trkpt lat="50.690652681514621" lon="13.254042724147439">
        <ele>455</ele>
        <time>2026-08-29T10:11:34Z</time>
      </trkpt>
      <trkpt lat="50.690676318481565" lon="13.254021937027574">
        <ele>455</ele>
        <time>2026-08-29T10:11:35Z</time>
      </trkpt>
      <trkpt lat="50.690701799467206" lon="13.254005592316389">
        <ele>455</ele>
        <time>2026-08-29T10:11:36Z</time>
      </trkpt>
      <trkpt lat="50.690726358443499" lon="13.253977345302701">
        <ele>454</ele>
        <time>2026-08-29T10:11:37Z</time>
      </trkpt>
      <trkpt lat="50.690751671791077" lon="13.25395479798317">
        <ele>454</ele>
        <time>2026-08-29T10:11:38Z</time>
      </trkpt>
      <trkpt lat="50.690774051472545" lon="13.25392990373075">
        <ele>454</ele>
        <time>2026-08-29T10:11:39Z</time>
      </trkpt>
      <trkpt lat="50.690794168040156" lon="13.253919761627913">
        <ele>455</ele>
        <time>2026-08-29T10:11:40Z</time>
      </trkpt>
      <trkpt lat="50.690813530236483" lon="13.253915822133422">
        <ele>455</ele>
        <time>2026-08-29T10:11:41Z</time>
      </trkpt>
      <trkpt lat="50.690831132233143" lon="13.253924120217562">
        <ele>455</ele>
        <time>2026-08-29T10:11:42Z</time>
      </trkpt>
      <trkpt lat="50.690845381468534" lon="13.253934178501368">
        <ele>455</ele>
        <time>2026-08-29T10:11:43Z</time>
      </trkpt>
      <trkpt lat="50.69085736759007" lon="13.253946918994188">
        <ele>455</ele>
        <time>2026-08-29T10:11:44Z</time>
      </trkpt>
      <trkpt lat="50.690875556319952" lon="13.253961503505707">
        <ele>455</ele>
        <time>2026-08-29T10:11:45Z</time>
      </trkpt>
      <trkpt lat="50.690896678715944" lon="13.253974998369813">
        <ele>455</ele>
        <time>2026-08-29T10:11:46Z</time>
      </trkpt>
      <trkpt lat="50.690914951264858" lon="13.25398220680654">
        <ele>454</ele>
        <time>2026-08-29T10:11:47Z</time>
      </trkpt>
      <trkpt lat="50.690933056175709" lon="13.253997629508376">
        <ele>455</ele>
        <time>2026-08-29T10:11:48Z</time>
      </trkpt>
      <trkpt lat="50.69095510058105" lon="13.254007268697023">
        <ele>455</ele>
        <time>2026-08-29T10:11:49Z</time>
      </trkpt>
      <trkpt lat="50.69097270257771" lon="13.254023948684335">
        <ele>455</ele>
        <time>2026-08-29T10:11:50Z</time>
      </trkpt>
      <trkpt lat="50.690988879650831" lon="13.254043897613883">
        <ele>455</ele>
        <time>2026-08-29T10:11:51Z</time>
      </trkpt>
      <trkpt lat="50.691009582951665" lon="13.254061499610543">
        <ele>455</ele>
        <time>2026-08-29T10:11:52Z</time>
      </trkpt>
      <trkpt lat="50.691030118614435" lon="13.25407549738884">
        <ele>455</ele>
        <time>2026-08-29T10:11:53Z</time>
      </trkpt>
      <trkpt lat="50.691049229353666" lon="13.254078179597855">
        <ele>455</ele>
        <time>2026-08-29T10:11:54Z</time>
      </trkpt>
      <trkpt lat="50.691064987331629" lon="13.254074575379491">
        <ele>455</ele>
        <time>2026-08-29T10:11:55Z</time>
      </trkpt>
      <trkpt lat="50.691062808036804" lon="13.254071976989508">
        <ele>455</ele>
        <time>2026-08-29T10:11:56Z</time>
      </trkpt>
      <trkpt lat="50.691052163019776" lon="13.254047250375152">
        <ele>455</ele>
        <time>2026-08-29T10:11:57Z</time>
      </trkpt>
      <trkpt lat="50.691047469154" lon="13.25400659814477">
        <ele>455</ele>
        <time>2026-08-29T10:11:58Z</time>
      </trkpt>
      <trkpt lat="50.69105627015233" lon="13.253962341696024">
        <ele>455</ele>
        <time>2026-08-29T10:11:59Z</time>
      </trkpt>
      <trkpt lat="50.691070267930627" lon="13.253919426351786">
        <ele>455</ele>
        <time>2026-08-29T10:12:00Z</time>
      </trkpt>
      <trkpt lat="50.691089797765017" lon="13.253877349197865">
        <ele>455</ele>
        <time>2026-08-29T10:12:01Z</time>
      </trkpt>
      <trkpt lat="50.691101448610425" lon="13.253845246508718">
        <ele>455</ele>
        <time>2026-08-29T10:12:02Z</time>
      </trkpt>
      <trkpt lat="50.691112345084548" lon="13.253814820200205">
        <ele>455</ele>
        <time>2026-08-29T10:12:03Z</time>
      </trkpt>
      <trkpt lat="50.691120978444815" lon="13.253777101635933">
        <ele>455</ele>
        <time>2026-08-29T10:12:04Z</time>
      </trkpt>
      <trkpt lat="50.691128186881542" lon="13.253743909299374">
        <ele>455</ele>
        <time>2026-08-29T10:12:05Z</time>
      </trkpt>
      <trkpt lat="50.691141430288553" lon="13.253704179078341">
        <ele>455</ele>
        <time>2026-08-29T10:12:06Z</time>
      </trkpt>
      <trkpt lat="50.691154506057501" lon="13.253668220713735">
        <ele>456</ele>
        <time>2026-08-29T10:12:07Z</time>
      </trkpt>
      <trkpt lat="50.691165402531624" lon="13.253636201843619">
        <ele>456</ele>
        <time>2026-08-29T10:12:08Z</time>
      </trkpt>
      <trkpt lat="50.691174790263176" lon="13.253599153831601">
        <ele>456</ele>
        <time>2026-08-29T10:12:09Z</time>
      </trkpt>
      <trkpt lat="50.69117546081543" lon="13.253553891554475">
        <ele>456</ele>
        <time>2026-08-29T10:12:10Z</time>
      </trkpt>
      <trkpt lat="50.69118233397603" lon="13.253519525751472">
        <ele>456</ele>
        <time>2026-08-29T10:12:11Z</time>
      </trkpt>
      <trkpt lat="50.691190715879202" lon="13.253479627892375">
        <ele>456</ele>
        <time>2026-08-29T10:12:12Z</time>
      </trkpt>
      <trkpt lat="50.691197840496898" lon="13.253438137471676">
        <ele>456</ele>
        <time>2026-08-29T10:12:13Z</time>
      </trkpt>
      <trkpt lat="50.69120823405683" lon="13.253405280411243">
        <ele>456</ele>
        <time>2026-08-29T10:12:14Z</time>
      </trkpt>
      <trkpt lat="50.691221058368683" lon="13.25336555019021">
        <ele>456</ele>
        <time>2026-08-29T10:12:15Z</time>
      </trkpt>
      <trkpt lat="50.69123363122344" lon="13.253333950415254">
        <ele>456</ele>
        <time>2026-08-29T10:12:16Z</time>
      </trkpt>
      <trkpt lat="50.691248802468181" lon="13.253300590440631">
        <ele>456</ele>
        <time>2026-08-29T10:12:17Z</time>
      </trkpt>
      <trkpt lat="50.691261878237128" lon="13.253257339820266">
        <ele>456</ele>
        <time>2026-08-29T10:12:18Z</time>
      </trkpt>
      <trkpt lat="50.691282832995057" lon="13.253219956532121">
        <ele>456</ele>
        <time>2026-08-29T10:12:19Z</time>
      </trkpt>
      <trkpt lat="50.691300602629781" lon="13.253181232139468">
        <ele>456</ele>
        <time>2026-08-29T10:12:20Z</time>
      </trkpt>
      <trkpt lat="50.691320803016424" lon="13.253147955983877">
        <ele>456</ele>
        <time>2026-08-29T10:12:21Z</time>
      </trkpt>
      <trkpt lat="50.691342512145638" lon="13.253117948770523">
        <ele>456</ele>
        <time>2026-08-29T10:12:22Z</time>
      </trkpt>
      <trkpt lat="50.691363718360662" lon="13.253082744777203">
        <ele>456</ele>
        <time>2026-08-29T10:12:23Z</time>
      </trkpt>
      <trkpt lat="50.691385930404067" lon="13.253041924908757">
        <ele>457</ele>
        <time>2026-08-29T10:12:24Z</time>
      </trkpt>
      <trkpt lat="50.691412165760994" lon="13.253003032878041">
        <ele>456</ele>
        <time>2026-08-29T10:12:25Z</time>
      </trkpt>
      <trkpt lat="50.691443011164665" lon="13.252973025664687">
        <ele>456</ele>
        <time>2026-08-29T10:12:26Z</time>
      </trkpt>
      <trkpt lat="50.69147109054029" lon="13.252934888005257">
        <ele>456</ele>
        <time>2026-08-29T10:12:27Z</time>
      </trkpt>
      <trkpt lat="50.691495481878519" lon="13.252892307937145">
        <ele>457</ele>
        <time>2026-08-29T10:12:28Z</time>
      </trkpt>
      <trkpt lat="50.691521801054478" lon="13.252844279631972">
        <ele>457</ele>
        <time>2026-08-29T10:12:29Z</time>
      </trkpt>
      <trkpt lat="50.69155071862042" lon="13.252801196649671">
        <ele>457</ele>
        <time>2026-08-29T10:12:30Z</time>
      </trkpt>
      <trkpt lat="50.691577289253473" lon="13.252756772562861">
        <ele>457</ele>
        <time>2026-08-29T10:12:31Z</time>
      </trkpt>
      <trkpt lat="50.691601345315576" lon="13.252708157524467">
        <ele>458</ele>
        <time>2026-08-29T10:12:32Z</time>
      </trkpt>
      <trkpt lat="50.691626910120249" lon="13.252662727609277">
        <ele>458</ele>
        <time>2026-08-29T10:12:33Z</time>
      </trkpt>
      <trkpt lat="50.691658509895205" lon="13.252623667940497">
        <ele>457</ele>
        <time>2026-08-29T10:12:34Z</time>
      </trkpt>
      <trkpt lat="50.691687678918242" lon="13.252586033195257">
        <ele>457</ele>
        <time>2026-08-29T10:12:35Z</time>
      </trkpt>
      <trkpt lat="50.691716009750962" lon="13.252543369308114">
        <ele>457</ele>
        <time>2026-08-29T10:12:36Z</time>
      </trkpt>
      <trkpt lat="50.691741155460477" lon="13.252496933564544">
        <ele>457</ele>
        <time>2026-08-29T10:12:37Z</time>
      </trkpt>
      <trkpt lat="50.691772168502212" lon="13.252460723742843">
        <ele>457</ele>
        <time>2026-08-29T10:12:38Z</time>
      </trkpt>
      <trkpt lat="50.691800247877836" lon="13.252421412616968">
        <ele>457</ele>
        <time>2026-08-29T10:12:39Z</time>
      </trkpt>
      <trkpt lat="50.691825728863478" lon="13.252377239987254">
        <ele>457</ele>
        <time>2026-08-29T10:12:40Z</time>
      </trkpt>
      <trkpt lat="50.691853640601039" lon="13.252332312986255">
        <ele>457</ele>
        <time>2026-08-29T10:12:41Z</time>
      </trkpt>
      <trkpt lat="50.691881468519568" lon="13.252294342964888">
        <ele>457</ele>
        <time>2026-08-29T10:12:42Z</time>
      </trkpt>
      <trkpt lat="50.691909799352288" lon="13.25225830078125">
        <ele>457</ele>
        <time>2026-08-29T10:12:43Z</time>
      </trkpt>
      <trkpt lat="50.691942404955626" lon="13.252222426235676">
        <ele>457</ele>
        <time>2026-08-29T10:12:44Z</time>
      </trkpt>
      <trkpt lat="50.691977022215724" lon="13.25219233520329">
        <ele>457</ele>
        <time>2026-08-29T10:12:45Z</time>
      </trkpt>
      <trkpt lat="50.692009041085839" lon="13.252149671316147">
        <ele>457</ele>
        <time>2026-08-29T10:12:46Z</time>
      </trkpt>
      <trkpt lat="50.692035527899861" lon="13.252105414867401">
        <ele>456</ele>
        <time>2026-08-29T10:12:47Z</time>
      </trkpt>
      <trkpt lat="50.692072240635753" lon="13.252060990780592">
        <ele>456</ele>
        <time>2026-08-29T10:12:48Z</time>
      </trkpt>
      <trkpt lat="50.692113060504198" lon="13.252030983567238">
        <ele>457</ele>
        <time>2026-08-29T10:12:49Z</time>
      </trkpt>
      <trkpt lat="50.69215371273458" lon="13.252002652734518">
        <ele>457</ele>
        <time>2026-08-29T10:12:50Z</time>
      </trkpt>
      <trkpt lat="50.69219428114593" lon="13.251984883099794">
        <ele>457</ele>
        <time>2026-08-29T10:12:51Z</time>
      </trkpt>
      <trkpt lat="50.692229904234409" lon="13.251960910856724">
        <ele>457</ele>
        <time>2026-08-29T10:12:52Z</time>
      </trkpt>
      <trkpt lat="50.692265359684825" lon="13.251938195899129">
        <ele>457</ele>
        <time>2026-08-29T10:12:53Z</time>
      </trkpt>
      <trkpt lat="50.692296959459782" lon="13.251912211999297">
        <ele>457</ele>
        <time>2026-08-29T10:12:54Z</time>
      </trkpt>
      <trkpt lat="50.692335264757276" lon="13.251872565597296">
        <ele>457</ele>
        <time>2026-08-29T10:12:55Z</time>
      </trkpt>
      <trkpt lat="50.692368960008025" lon="13.251862255856395">
        <ele>457</ele>
        <time>2026-08-29T10:12:56Z</time>
      </trkpt>
      <trkpt lat="50.69240584038198" lon="13.25183124281466">
        <ele>456</ele>
        <time>2026-08-29T10:12:57Z</time>
      </trkpt>
      <trkpt lat="50.69244934245944" lon="13.25180190615356">
        <ele>456</ele>
        <time>2026-08-29T10:12:58Z</time>
      </trkpt>
      <trkpt lat="50.692496281117201" lon="13.251767456531525">
        <ele>456</ele>
        <time>2026-08-29T10:12:59Z</time>
      </trkpt>
      <trkpt lat="50.692540621384978" lon="13.251722026616335">
        <ele>456</ele>
        <time>2026-08-29T10:13:00Z</time>
      </trkpt>
      <trkpt lat="50.692579681053758" lon="13.251680871471763">
        <ele>456</ele>
        <time>2026-08-29T10:13:01Z</time>
      </trkpt>
      <trkpt lat="50.692615890875459" lon="13.25163284316659">
        <ele>456</ele>
        <time>2026-08-29T10:13:02Z</time>
      </trkpt>
      <trkpt lat="50.692653609439731" lon="13.251586826518178">
        <ele>456</ele>
        <time>2026-08-29T10:13:03Z</time>
      </trkpt>
      <trkpt lat="50.692688478156924" lon="13.251539971679449">
        <ele>456</ele>
        <time>2026-08-29T10:13:04Z</time>
      </trkpt>
      <trkpt lat="50.692715300247073" lon="13.251487333327532">
        <ele>456</ele>
        <time>2026-08-29T10:13:05Z</time>
      </trkpt>
      <trkpt lat="50.692750671878457" lon="13.251443495973945">
        <ele>456</ele>
        <time>2026-08-29T10:13:06Z</time>
      </trkpt>
      <trkpt lat="50.692789312452078" lon="13.251404352486134">
        <ele>456</ele>
        <time>2026-08-29T10:13:07Z</time>
      </trkpt>
      <trkpt lat="50.692819068208337" lon="13.251361353322864">
        <ele>455</ele>
        <time>2026-08-29T10:13:08Z</time>
      </trkpt>
      <trkpt lat="50.69285536184907" lon="13.251308547332883">
        <ele>456</ele>
        <time>2026-08-29T10:13:09Z</time>
      </trkpt>
      <trkpt lat="50.692889979109168" lon="13.251256076619029">
        <ele>456</ele>
        <time>2026-08-29T10:13:10Z</time>
      </trkpt>
      <trkpt lat="50.692924680188298" lon="13.251204695552588">
        <ele>455</ele>
        <time>2026-08-29T10:13:11Z</time>
      </trkpt>
      <trkpt lat="50.692962650209665" lon="13.251163959503174">
        <ele>455</ele>
        <time>2026-08-29T10:13:12Z</time>
      </trkpt>
      <trkpt lat="50.692998692393303" lon="13.251104028895497">
        <ele>455</ele>
        <time>2026-08-29T10:13:13Z</time>
      </trkpt>
      <trkpt lat="50.693045044317842" lon="13.25104845687747">
        <ele>455</ele>
        <time>2026-08-29T10:13:14Z</time>
      </trkpt>
      <trkpt lat="50.69308552891016" lon="13.250972097739577">
        <ele>454</ele>
        <time>2026-08-29T10:13:15Z</time>
      </trkpt>
      <trkpt lat="50.693127857521176" lon="13.250904120504856">
        <ele>454</ele>
        <time>2026-08-29T10:13:16Z</time>
      </trkpt>
      <trkpt lat="50.693168845027685" lon="13.250826420262456">
        <ele>454</ele>
        <time>2026-08-29T10:13:17Z</time>
      </trkpt>
      <trkpt lat="50.693211508914828" lon="13.250748384743929">
        <ele>454</ele>
        <time>2026-08-29T10:13:18Z</time>
      </trkpt>
      <trkpt lat="50.693250149488449" lon="13.250675713643432">
        <ele>454</ele>
        <time>2026-08-29T10:13:19Z</time>
      </trkpt>
      <trkpt lat="50.693293148651719" lon="13.250584099441767">
        <ele>454</ele>
        <time>2026-08-29T10:13:20Z</time>
      </trkpt>
      <trkpt lat="50.693328436464071" lon="13.250514445826411">
        <ele>453</ele>
        <time>2026-08-29T10:13:21Z</time>
      </trkpt>
      <trkpt lat="50.693370178341866" lon="13.250447222962976">
        <ele>453</ele>
        <time>2026-08-29T10:13:22Z</time>
      </trkpt>
      <trkpt lat="50.693422229960561" lon="13.250391650944948">
        <ele>453</ele>
        <time>2026-08-29T10:13:23Z</time>
      </trkpt>
      <trkpt lat="50.693466402590275" lon="13.250330379232764">
        <ele>453</ele>
        <time>2026-08-29T10:13:24Z</time>
      </trkpt>
      <trkpt lat="50.693505629897118" lon="13.250272376462817">
        <ele>453</ele>
        <time>2026-08-29T10:13:25Z</time>
      </trkpt>
      <trkpt lat="50.693551059812307" lon="13.25021730735898">
        <ele>453</ele>
        <time>2026-08-29T10:13:26Z</time>
      </trkpt>
      <trkpt lat="50.693588610738516" lon="13.250169614329934">
        <ele>453</ele>
        <time>2026-08-29T10:13:27Z</time>
      </trkpt>
      <trkpt lat="50.693625574931502" lon="13.250120664015412">
        <ele>454</ele>
        <time>2026-08-29T10:13:28Z</time>
      </trkpt>
      <trkpt lat="50.69366698153317" lon="13.250074982643127">
        <ele>454</ele>
        <time>2026-08-29T10:13:29Z</time>
      </trkpt>
      <trkpt lat="50.693702939897776" lon="13.25003894045949">
        <ele>455</ele>
        <time>2026-08-29T10:13:30Z</time>
      </trkpt>
      <trkpt lat="50.693738060072064" lon="13.24999887496233">
        <ele>455</ele>
        <time>2026-08-29T10:13:31Z</time>
      </trkpt>
      <trkpt lat="50.693775527179241" lon="13.249958893284202">
        <ele>455</ele>
        <time>2026-08-29T10:13:32Z</time>
      </trkpt>
      <trkpt lat="50.693811401724815" lon="13.249931987375021">
        <ele>455</ele>
        <time>2026-08-29T10:13:33Z</time>
      </trkpt>
      <trkpt lat="50.693852137774229" lon="13.249896951019764">
        <ele>455</ele>
        <time>2026-08-29T10:13:34Z</time>
      </trkpt>
      <trkpt lat="50.693884743377566" lon="13.249873649328947">
        <ele>455</ele>
        <time>2026-08-29T10:13:35Z</time>
      </trkpt>
      <trkpt lat="50.693906368687749" lon="13.24984934180975">
        <ele>455</ele>
        <time>2026-08-29T10:13:36Z</time>
      </trkpt>
      <trkpt lat="50.693933358415961" lon="13.249820005148649">
        <ele>455</ele>
        <time>2026-08-29T10:13:37Z</time>
      </trkpt>
      <trkpt lat="50.693961270153522" lon="13.24979561381042">
        <ele>455</ele>
        <time>2026-08-29T10:13:38Z</time>
      </trkpt>
      <trkpt lat="50.693988846614957" lon="13.249767366796732">
        <ele>455</ele>
        <time>2026-08-29T10:13:39Z</time>
      </trkpt>
      <trkpt lat="50.694018350914121" lon="13.249745741486549">
        <ele>455</ele>
        <time>2026-08-29T10:13:40Z</time>
      </trkpt>
      <trkpt lat="50.694044586271048" lon="13.249716656282544">
        <ele>455</ele>
        <time>2026-08-29T10:13:41Z</time>
      </trkpt>
      <trkpt lat="50.694066043943167" lon="13.249690504744649">
        <ele>457</ele>
        <time>2026-08-29T10:13:42Z</time>
      </trkpt>
      <trkpt lat="50.694094290956855" lon="13.249652283266187">
        <ele>457</ele>
        <time>2026-08-29T10:13:43Z</time>
      </trkpt>
      <trkpt lat="50.694120777770877" lon="13.249625964090228">
        <ele>457</ele>
        <time>2026-08-29T10:13:44Z</time>
      </trkpt>
      <trkpt lat="50.694146677851677" lon="13.249601824209094">
        <ele>458</ele>
        <time>2026-08-29T10:13:45Z</time>
      </trkpt>
      <trkpt lat="50.694170650094748" lon="13.249575672671199">
        <ele>458</ele>
        <time>2026-08-29T10:13:46Z</time>
      </trkpt>
      <trkpt lat="50.694192359223962" lon="13.2495341822505">
        <ele>458</ele>
        <time>2026-08-29T10:13:47Z</time>
      </trkpt>
      <trkpt lat="50.694204261526465" lon="13.249483304098248">
        <ele>458</ele>
        <time>2026-08-29T10:13:48Z</time>
      </trkpt>
      <trkpt lat="50.694218259304762" lon="13.249434353783727">
        <ele>458</ele>
        <time>2026-08-29T10:13:49Z</time>
      </trkpt>
      <trkpt lat="50.694222617894411" lon="13.249378781765699">
        <ele>457</ele>
        <time>2026-08-29T10:13:50Z</time>
      </trkpt>
      <trkpt lat="50.694227479398251" lon="13.249329579994082">
        <ele>458</ele>
        <time>2026-08-29T10:13:51Z</time>
      </trkpt>
      <trkpt lat="50.694247847422957" lon="13.249292280524969">
        <ele>459</ele>
        <time>2026-08-29T10:13:52Z</time>
      </trkpt>
      <trkpt lat="50.694258157163858" lon="13.249233774840832">
        <ele>459</ele>
        <time>2026-08-29T10:13:53Z</time>
      </trkpt>
      <trkpt lat="50.694265449419618" lon="13.249168395996094">
        <ele>460</ele>
        <time>2026-08-29T10:13:54Z</time>
      </trkpt>
      <trkpt lat="50.69428171031177" lon="13.249104274436831">
        <ele>460</ele>
        <time>2026-08-29T10:13:55Z</time>
      </trkpt>
      <trkpt lat="50.694297468289733" lon="13.249019281938672">
        <ele>461</ele>
        <time>2026-08-29T10:13:56Z</time>
      </trkpt>
      <trkpt lat="50.694299312308431" lon="13.248928757384419">
        <ele>461</ele>
        <time>2026-08-29T10:13:57Z</time>
      </trkpt>
      <trkpt lat="50.694311801344156" lon="13.248840244486928">
        <ele>460</ele>
        <time>2026-08-29T10:13:58Z</time>
      </trkpt>
      <trkpt lat="50.694323871284723" lon="13.248740751296282">
        <ele>460</ele>
        <time>2026-08-29T10:13:59Z</time>
      </trkpt>
      <trkpt lat="50.694336527958512" lon="13.24863807298243">
        <ele>460</ele>
        <time>2026-08-29T10:14:00Z</time>
      </trkpt>
      <trkpt lat="50.694342814385891" lon="13.248553248122334">
        <ele>459</ele>
        <time>2026-08-29T10:14:01Z</time>
      </trkpt>
      <trkpt lat="50.694363098591566" lon="13.248450737446547">
        <ele>459</ele>
        <time>2026-08-29T10:14:02Z</time>
      </trkpt>
      <trkpt lat="50.694379359483719" lon="13.248351663351059">
        <ele>459</ele>
        <time>2026-08-29T10:14:03Z</time>
      </trkpt>
      <trkpt lat="50.694389753043652" lon="13.248260719701648">
        <ele>458</ele>
        <time>2026-08-29T10:14:04Z</time>
      </trkpt>
      <trkpt lat="50.694408528506756" lon="13.248168099671602">
        <ele>458</ele>
        <time>2026-08-29T10:14:05Z</time>
      </trkpt>
      <trkpt lat="50.694432249292731" lon="13.248081849887967">
        <ele>457</ele>
        <time>2026-08-29T10:14:06Z</time>
      </trkpt>
      <trkpt lat="50.694456389173865" lon="13.247999874874949">
        <ele>457</ele>
        <time>2026-08-29T10:14:07Z</time>
      </trkpt>
      <trkpt lat="50.694482121616602" lon="13.247937681153417">
        <ele>457</ele>
        <time>2026-08-29T10:14:08Z</time>
      </trkpt>
      <trkpt lat="50.69451623596251" lon="13.247860567644238">
        <ele>457</ele>
        <time>2026-08-29T10:14:09Z</time>
      </trkpt>
      <trkpt lat="50.694555127993226" lon="13.247808767482638">
        <ele>457</ele>
        <time>2026-08-29T10:14:10Z</time>
      </trkpt>
      <trkpt lat="50.694590080529451" lon="13.24774875305593">
        <ele>457</ele>
        <time>2026-08-29T10:14:11Z</time>
      </trkpt>
      <trkpt lat="50.694626122713089" lon="13.247699551284313">
        <ele>458</ele>
        <time>2026-08-29T10:14:12Z</time>
      </trkpt>
      <trkpt lat="50.694660069420934" lon="13.247649595141411">
        <ele>458</ele>
        <time>2026-08-29T10:14:13Z</time>
      </trkpt>
      <trkpt lat="50.694683622568846" lon="13.247603829950094">
        <ele>458</ele>
        <time>2026-08-29T10:14:14Z</time>
      </trkpt>
      <trkpt lat="50.69471756927669" lon="13.247582204639912">
        <ele>458</ele>
        <time>2026-08-29T10:14:15Z</time>
      </trkpt>
      <trkpt lat="50.69474196061492" lon="13.247550604864955">
        <ele>458</ele>
        <time>2026-08-29T10:14:16Z</time>
      </trkpt>
      <trkpt lat="50.6947654299438" lon="13.247517831623554">
        <ele>458</ele>
        <time>2026-08-29T10:14:17Z</time>
      </trkpt>
      <trkpt lat="50.694785546511412" lon="13.247485477477312">
        <ele>458</ele>
        <time>2026-08-29T10:14:18Z</time>
      </trkpt>
      <trkpt lat="50.694805663079023" lon="13.247447339817882">
        <ele>459</ele>
        <time>2026-08-29T10:14:19Z</time>
      </trkpt>
      <trkpt lat="50.694825109094381" lon="13.247407861053944">
        <ele>459</ele>
        <time>2026-08-29T10:14:20Z</time>
      </trkpt>
      <trkpt lat="50.694846482947469" lon="13.247371986508369">
        <ele>458</ele>
        <time>2026-08-29T10:14:21Z</time>
      </trkpt>
      <trkpt lat="50.694867940619588" lon="13.247337369248271">
        <ele>458</ele>
        <time>2026-08-29T10:14:22Z</time>
      </trkpt>
      <trkpt lat="50.694891912862659" lon="13.247303087264299">
        <ele>458</ele>
        <time>2026-08-29T10:14:23Z</time>
      </trkpt>
      <trkpt lat="50.694916388019919" lon="13.24727232567966">
        <ele>458</ele>
        <time>2026-08-29T10:14:24Z</time>
      </trkpt>
      <trkpt lat="50.694946311414242" lon="13.247232344001532">
        <ele>458</ele>
        <time>2026-08-29T10:14:25Z</time>
      </trkpt>
      <trkpt lat="50.69497506134212" lon="13.247188003733754">
        <ele>458</ele>
        <time>2026-08-29T10:14:26Z</time>
      </trkpt>
      <trkpt lat="50.69500582292676" lon="13.247145423665643">
        <ele>458</ele>
        <time>2026-08-29T10:14:27Z</time>
      </trkpt>
      <trkpt lat="50.69503272883594" lon="13.247101670131087">
        <ele>458</ele>
        <time>2026-08-29T10:14:28Z</time>
      </trkpt>
      <trkpt lat="50.695058042183518" lon="13.247053558006883">
        <ele>457</ele>
        <time>2026-08-29T10:14:29Z</time>
      </trkpt>
      <trkpt lat="50.69508939050138" lon="13.246995471417904">
        <ele>458</ele>
        <time>2026-08-29T10:14:30Z</time>
      </trkpt>
      <trkpt lat="50.695119481533766" lon="13.246943671256304">
        <ele>458</ele>
        <time>2026-08-29T10:14:31Z</time>
      </trkpt>
      <trkpt lat="50.695150913670659" lon="13.246893128380179">
        <ele>459</ele>
        <time>2026-08-29T10:14:32Z</time>
      </trkpt>
      <trkpt lat="50.695201121270657" lon="13.246837388724089">
        <ele>459</ele>
        <time>2026-08-29T10:14:33Z</time>
      </trkpt>
      <trkpt lat="50.695240180939436" lon="13.246781984344125">
        <ele>459</ele>
        <time>2026-08-29T10:14:34Z</time>
      </trkpt>
      <trkpt lat="50.695286197587848" lon="13.246722556650639">
        <ele>459</ele>
        <time>2026-08-29T10:14:35Z</time>
      </trkpt>
      <trkpt lat="50.69532198831439" lon="13.246666062623262">
        <ele>459</ele>
        <time>2026-08-29T10:14:36Z</time>
      </trkpt>
      <trkpt lat="50.695351324975491" lon="13.246617196127772">
        <ele>460</ele>
        <time>2026-08-29T10:14:37Z</time>
      </trkpt>
      <trkpt lat="50.695379991084337" lon="13.246559947729111">
        <ele>460</ele>
        <time>2026-08-29T10:14:38Z</time>
      </trkpt>
      <trkpt lat="50.695423912256956" lon="13.246493060141802">
        <ele>460</ele>
        <time>2026-08-29T10:14:39Z</time>
      </trkpt>
      <trkpt lat="50.695451321080327" lon="13.246440505608916">
        <ele>459</ele>
        <time>2026-08-29T10:14:40Z</time>
      </trkpt>
      <trkpt lat="50.695479065179825" lon="13.24638987891376">
        <ele>459</ele>
        <time>2026-08-29T10:14:41Z</time>
      </trkpt>
      <trkpt lat="50.695512676611543" lon="13.246349394321442">
        <ele>459</ele>
        <time>2026-08-29T10:14:42Z</time>
      </trkpt>
      <trkpt lat="50.695550311356783" lon="13.246289547532797">
        <ele>459</ele>
        <time>2026-08-29T10:14:43Z</time>
      </trkpt>
      <trkpt lat="50.695586353540421" lon="13.246243447065353">
        <ele>459</ele>
        <time>2026-08-29T10:14:44Z</time>
      </trkpt>
      <trkpt lat="50.695617450401187" lon="13.246198855340481">
        <ele>459</ele>
        <time>2026-08-29T10:14:45Z</time>
      </trkpt>
      <trkpt lat="50.695647625252604" lon="13.246145127341151">
        <ele>458</ele>
        <time>2026-08-29T10:14:46Z</time>
      </trkpt>
      <trkpt lat="50.695683248341084" lon="13.246104223653674">
        <ele>459</ele>
        <time>2026-08-29T10:14:47Z</time>
      </trkpt>
      <trkpt lat="50.69572364911437" lon="13.246065499261022">
        <ele>459</ele>
        <time>2026-08-29T10:14:48Z</time>
      </trkpt>
      <trkpt lat="50.695757428184152" lon="13.246014453470707">
        <ele>459</ele>
        <time>2026-08-29T10:14:49Z</time>
      </trkpt>
      <trkpt lat="50.695788273587823" lon="13.245988972485065">
        <ele>459</ele>
        <time>2026-08-29T10:14:50Z</time>
      </trkpt>
      <trkpt lat="50.695818029344082" lon="13.245958629995584">
        <ele>459</ele>
        <time>2026-08-29T10:14:51Z</time>
      </trkpt>
      <trkpt lat="50.695851137861609" lon="13.245921414345503">
        <ele>459</ele>
        <time>2026-08-29T10:14:52Z</time>
      </trkpt>
      <trkpt lat="50.695887180045247" lon="13.245882941409945">
        <ele>459</ele>
        <time>2026-08-29T10:14:53Z</time>
      </trkpt>
      <trkpt lat="50.695919953286648" lon="13.245843295007944">
        <ele>460</ele>
        <time>2026-08-29T10:14:54Z</time>
      </trkpt>
      <trkpt lat="50.695946523919702" lon="13.245810186490417">
        <ele>460</ele>
        <time>2026-08-29T10:14:55Z</time>
      </trkpt>
      <trkpt lat="50.695967981591821" lon="13.245777832344174">
        <ele>460</ele>
        <time>2026-08-29T10:14:56Z</time>
      </trkpt>
      <trkpt lat="50.695990025997162" lon="13.245746484026313">
        <ele>460</ele>
        <time>2026-08-29T10:14:57Z</time>
      </trkpt>
      <trkpt lat="50.696014668792486" lon="13.245710609480739">
        <ele>460</ele>
        <time>2026-08-29T10:14:58Z</time>
      </trkpt>
      <trkpt lat="50.696038892492652" lon="13.245684374123812">
        <ele>460</ele>
        <time>2026-08-29T10:14:59Z</time>
      </trkpt>
      <trkpt lat="50.69606177508831" lon="13.245653780177236">
        <ele>460</ele>
        <time>2026-08-29T10:15:00Z</time>
      </trkpt>
      <trkpt lat="50.696084909141064" lon="13.245627880096436">
        <ele>460</ele>
        <time>2026-08-29T10:15:01Z</time>
      </trkpt>
      <trkpt lat="50.696108546108007" lon="13.24560608714819">
        <ele>460</ele>
        <time>2026-08-29T10:15:02Z</time>
      </trkpt>
      <trkpt lat="50.696135368198156" lon="13.245578426867723">
        <ele>460</ele>
        <time>2026-08-29T10:15:03Z</time>
      </trkpt>
      <trkpt lat="50.696162609383464" lon="13.245557639747858">
        <ele>460</ele>
        <time>2026-08-29T10:15:04Z</time>
      </trkpt>
      <trkpt lat="50.696190102025867" lon="13.245527129620314">
        <ele>460</ele>
        <time>2026-08-29T10:15:05Z</time>
      </trkpt>
      <trkpt lat="50.696215247735381" lon="13.2454863935709">
        <ele>460</ele>
        <time>2026-08-29T10:15:06Z</time>
      </trkpt>
      <trkpt lat="50.69624156691134" lon="13.245441298931837">
        <ele>460</ele>
        <time>2026-08-29T10:15:07Z</time>
      </trkpt>
      <trkpt lat="50.696265287697315" lon="13.245391510426998">
        <ele>460</ele>
        <time>2026-08-29T10:15:08Z</time>
      </trkpt>
      <trkpt lat="50.696295378729701" lon="13.24534515850246">
        <ele>460</ele>
        <time>2026-08-29T10:15:09Z</time>
      </trkpt>
      <trkpt lat="50.696340138092637" lon="13.245299141854048">
        <ele>461</ele>
        <time>2026-08-29T10:15:10Z</time>
      </trkpt>
      <trkpt lat="50.696388669312" lon="13.245256394147873">
        <ele>461</ele>
        <time>2026-08-29T10:15:11Z</time>
      </trkpt>
      <trkpt lat="50.696437619626522" lon="13.245199145749211">
        <ele>461</ele>
        <time>2026-08-29T10:15:12Z</time>
      </trkpt>
      <trkpt lat="50.696489084511995" lon="13.245153464376926">
        <ele>462</ele>
        <time>2026-08-29T10:15:13Z</time>
      </trkpt>
      <trkpt lat="50.696553038433194" lon="13.245093449950218">
        <ele>463</ele>
        <time>2026-08-29T10:15:14Z</time>
      </trkpt>
      <trkpt lat="50.696614645421505" lon="13.245023963972926">
        <ele>462</ele>
        <time>2026-08-29T10:15:15Z</time>
      </trkpt>
      <trkpt lat="50.696675414219499" lon="13.244962273165584">
        <ele>462</ele>
        <time>2026-08-29T10:15:16Z</time>
      </trkpt>
      <trkpt lat="50.696741128340364" lon="13.244897648692131">
        <ele>462</ele>
        <time>2026-08-29T10:15:17Z</time>
      </trkpt>
      <trkpt lat="50.696811368688941" lon="13.244836628437042">
        <ele>462</ele>
        <time>2026-08-29T10:15:18Z</time>
      </trkpt>
      <trkpt lat="50.696881609037519" lon="13.244796143844724">
        <ele>462</ele>
        <time>2026-08-29T10:15:19Z</time>
      </trkpt>
      <trkpt lat="50.696961069479585" lon="13.24476370587945">
        <ele>463</ele>
        <time>2026-08-29T10:15:20Z</time>
      </trkpt>
      <trkpt lat="50.697034746408463" lon="13.244741912931204">
        <ele>463</ele>
        <time>2026-08-29T10:15:21Z</time>
      </trkpt>
      <trkpt lat="50.697104819118977" lon="13.244707295671105">
        <ele>463</ele>
        <time>2026-08-29T10:15:22Z</time>
      </trkpt>
      <trkpt lat="50.697175897657871" lon="13.244694974273443">
        <ele>462</ele>
        <time>2026-08-29T10:15:23Z</time>
      </trkpt>
      <trkpt lat="50.697236247360706" lon="13.244682652875781">
        <ele>462</ele>
        <time>2026-08-29T10:15:24Z</time>
      </trkpt>
      <trkpt lat="50.697300871834159" lon="13.244668319821358">
        <ele>462</ele>
        <time>2026-08-29T10:15:25Z</time>
      </trkpt>
      <trkpt lat="50.697362814098597" lon="13.244658512994647">
        <ele>463</ele>
        <time>2026-08-29T10:15:26Z</time>
      </trkpt>
      <trkpt lat="50.697417883202434" lon="13.244660692289472">
        <ele>462</ele>
        <time>2026-08-29T10:15:27Z</time>
      </trkpt>
      <trkpt lat="50.697467923164368" lon="13.244672594591975">
        <ele>462</ele>
        <time>2026-08-29T10:15:28Z</time>
      </trkpt>
      <trkpt lat="50.697511425241828" lon="13.244677372276783">
        <ele>462</ele>
        <time>2026-08-29T10:15:29Z</time>
      </trkpt>
      <trkpt lat="50.697550820186734" lon="13.244688352569938">
        <ele>461</ele>
        <time>2026-08-29T10:15:30Z</time>
      </trkpt>
      <trkpt lat="50.697588203474879" lon="13.244697069749236">
        <ele>461</ele>
        <time>2026-08-29T10:15:31Z</time>
      </trkpt>
      <trkpt lat="50.697625922039151" lon="13.244714001193643">
        <ele>461</ele>
        <time>2026-08-29T10:15:32Z</time>
      </trkpt>
      <trkpt lat="50.697668083012104" lon="13.244731519371271">
        <ele>461</ele>
        <time>2026-08-29T10:15:33Z</time>
      </trkpt>
      <trkpt lat="50.697714518755674" lon="13.244747025892138">
        <ele>461</ele>
        <time>2026-08-29T10:15:34Z</time>
      </trkpt>
      <trkpt lat="50.697753746062517" lon="13.244766471907496">
        <ele>461</ele>
        <time>2026-08-29T10:15:35Z</time>
      </trkpt>
      <trkpt lat="50.697797080501914" lon="13.244785415008664">
        <ele>461</ele>
        <time>2026-08-29T10:15:36Z</time>
      </trkpt>
      <trkpt lat="50.697838068008423" lon="13.244814584031701">
        <ele>461</ele>
        <time>2026-08-29T10:15:37Z</time>
      </trkpt>
      <trkpt lat="50.697870505973697" lon="13.244829922914505">
        <ele>461</ele>
        <time>2026-08-29T10:15:38Z</time>
      </trkpt>
      <trkpt lat="50.697903865948319" lon="13.244842328131199">
        <ele>460</ele>
        <time>2026-08-29T10:15:39Z</time>
      </trkpt>
      <trkpt lat="50.697941249236465" lon="13.244853308424354">
        <ele>460</ele>
        <time>2026-08-29T10:15:40Z</time>
      </trkpt>
      <trkpt lat="50.697977123782039" lon="13.244870658963919">
        <ele>460</ele>
        <time>2026-08-29T10:15:41Z</time>
      </trkpt>
      <trkpt lat="50.698017859831452" lon="13.244884321466088">
        <ele>460</ele>
        <time>2026-08-29T10:15:42Z</time>
      </trkpt>
      <trkpt lat="50.698056165128946" lon="13.244892368093133">
        <ele>460</ele>
        <time>2026-08-29T10:15:43Z</time>
      </trkpt>
      <trkpt lat="50.698095057159662" lon="13.244902426376939">
        <ele>460</ele>
        <time>2026-08-29T10:15:44Z</time>
      </trkpt>
      <trkpt lat="50.698143420740962" lon="13.244914244860411">
        <ele>460</ele>
        <time>2026-08-29T10:15:45Z</time>
      </trkpt>
      <trkpt lat="50.698188515380025" lon="13.244927572086453">
        <ele>460</ele>
        <time>2026-08-29T10:15:46Z</time>
      </trkpt>
      <trkpt lat="50.698229838162661" lon="13.244944671168923">
        <ele>460</ele>
        <time>2026-08-29T10:15:47Z</time>
      </trkpt>
      <trkpt lat="50.698279878124595" lon="13.244956489652395">
        <ele>460</ele>
        <time>2026-08-29T10:15:48Z</time>
      </trkpt>
      <trkpt lat="50.69832312874496" lon="13.244954226538539">
        <ele>460</ele>
        <time>2026-08-29T10:15:49Z</time>
      </trkpt>
      <trkpt lat="50.698369732126594" lon="13.244959507137537">
        <ele>460</ele>
        <time>2026-08-29T10:15:50Z</time>
      </trkpt>
      <trkpt lat="50.698418347164989" lon="13.244966631755233">
        <ele>460</ele>
        <time>2026-08-29T10:15:51Z</time>
      </trkpt>
      <trkpt lat="50.698461681604385" lon="13.244977528229356">
        <ele>460</ele>
        <time>2026-08-29T10:15:52Z</time>
      </trkpt>
      <trkpt lat="50.698507279157639" lon="13.244981719180942">
        <ele>460</ele>
        <time>2026-08-29T10:15:53Z</time>
      </trkpt>
      <trkpt lat="50.698563018813729" lon="13.244980713352561">
        <ele>460</ele>
        <time>2026-08-29T10:15:54Z</time>
      </trkpt>
      <trkpt lat="50.698615573346615" lon="13.24497920460999">
        <ele>459</ele>
        <time>2026-08-29T10:15:55Z</time>
      </trkpt>
      <trkpt lat="50.698665529489517" lon="13.244986748322845">
        <ele>459</ele>
        <time>2026-08-29T10:15:56Z</time>
      </trkpt>
      <trkpt lat="50.698717329651117" lon="13.244980629533529">
        <ele>458</ele>
        <time>2026-08-29T10:15:57Z</time>
      </trkpt>
      <trkpt lat="50.698770638555288" lon="13.244983479380608">
        <ele>459</ele>
        <time>2026-08-29T10:15:58Z</time>
      </trkpt>
      <trkpt lat="50.698826797306538" lon="13.24498113244772">
        <ele>459</ele>
        <time>2026-08-29T10:15:59Z</time>
      </trkpt>
      <trkpt lat="50.698878346011043" lon="13.244966296479106">
        <ele>459</ele>
        <time>2026-08-29T10:16:00Z</time>
      </trkpt>
      <trkpt lat="50.698935678228736" lon="13.244948526844382">
        <ele>458</ele>
        <time>2026-08-29T10:16:01Z</time>
      </trkpt>
      <trkpt lat="50.699000051245093" lon="13.244927236810327">
        <ele>458</ele>
        <time>2026-08-29T10:16:02Z</time>
      </trkpt>
      <trkpt lat="50.699064927175641" lon="13.244899408891797">
        <ele>458</ele>
        <time>2026-08-29T10:16:03Z</time>
      </trkpt>
      <trkpt lat="50.699122594669461" lon="13.244883315637708">
        <ele>458</ele>
        <time>2026-08-29T10:16:04Z</time>
      </trkpt>
      <trkpt lat="50.699182022362947" lon="13.244877867400646">
        <ele>457</ele>
        <time>2026-08-29T10:16:05Z</time>
      </trkpt>
      <trkpt lat="50.699241701513529" lon="13.244895720854402">
        <ele>458</ele>
        <time>2026-08-29T10:16:06Z</time>
      </trkpt>
      <trkpt lat="50.699304901063442" lon="13.244914496317506">
        <ele>458</ele>
        <time>2026-08-29T10:16:07Z</time>
      </trkpt>
      <trkpt lat="50.69935854524374" lon="13.244940144941211">
        <ele>458</ele>
        <time>2026-08-29T10:16:08Z</time>
      </trkpt>
      <trkpt lat="50.699404310435057" lon="13.244969062507153">
        <ele>458</ele>
        <time>2026-08-29T10:16:09Z</time>
      </trkpt>
      <trkpt lat="50.699443034827709" lon="13.245003931224346">
        <ele>457</ele>
        <time>2026-08-29T10:16:10Z</time>
      </trkpt>
      <trkpt lat="50.699483267962933" lon="13.245020024478436">
        <ele>457</ele>
        <time>2026-08-29T10:16:11Z</time>
      </trkpt>
      <trkpt lat="50.699526183307171" lon="13.245008960366249">
        <ele>457</ele>
        <time>2026-08-29T10:16:12Z</time>
      </trkpt>
      <trkpt lat="50.699569266289473" lon="13.244977192953229">
        <ele>457</ele>
        <time>2026-08-29T10:16:13Z</time>
      </trkpt>
      <trkpt lat="50.699599860236049" lon="13.244925057515502">
        <ele>455</ele>
        <time>2026-08-29T10:16:14Z</time>
      </trkpt>
      <trkpt lat="50.699637411162257" lon="13.244862444698811">
        <ele>455</ele>
        <time>2026-08-29T10:16:15Z</time>
      </trkpt>
      <trkpt lat="50.699684852734208" lon="13.244809303432703">
        <ele>455</ele>
        <time>2026-08-29T10:16:16Z</time>
      </trkpt>
      <trkpt lat="50.699740676209331" lon="13.244761023670435">
        <ele>455</ele>
        <time>2026-08-29T10:16:17Z</time>
      </trkpt>
      <trkpt lat="50.699797086417675" lon="13.244723975658417">
        <ele>455</ele>
        <time>2026-08-29T10:16:18Z</time>
      </trkpt>
      <trkpt lat="50.699848467484117" lon="13.244685921818018">
        <ele>454</ele>
        <time>2026-08-29T10:16:19Z</time>
      </trkpt>
      <trkpt lat="50.69991216994822" lon="13.244649711996317">
        <ele>454</ele>
        <time>2026-08-29T10:16:20Z</time>
      </trkpt>
      <trkpt lat="50.699971681460738" lon="13.244634289294481">
        <ele>454</ele>
        <time>2026-08-29T10:16:21Z</time>
      </trkpt>
      <trkpt lat="50.700026750564575" lon="13.24461517855525">
        <ele>454</ele>
        <time>2026-08-29T10:16:22Z</time>
      </trkpt>
      <trkpt lat="50.700080143287778" lon="13.244625404477119">
        <ele>454</ele>
        <time>2026-08-29T10:16:23Z</time>
      </trkpt>
      <trkpt lat="50.700116017833352" lon="13.244654070585966">
        <ele>453</ele>
        <time>2026-08-29T10:16:24Z</time>
      </trkpt>
      <trkpt lat="50.700158597901464" lon="13.244665889069438">
        <ele>453</ele>
        <time>2026-08-29T10:16:25Z</time>
      </trkpt>
      <trkpt lat="50.700203608721495" lon="13.244673265144229">
        <ele>453</ele>
        <time>2026-08-29T10:16:26Z</time>
      </trkpt>
      <trkpt lat="50.700264209881425" lon="13.244655411690474">
        <ele>453</ele>
        <time>2026-08-29T10:16:27Z</time>
      </trkpt>
      <trkpt lat="50.700306789949536" lon="13.244638480246067">
        <ele>453</ele>
        <time>2026-08-29T10:16:28Z</time>
      </trkpt>
      <trkpt lat="50.700339060276747" lon="13.244611909613013">
        <ele>453</ele>
        <time>2026-08-29T10:16:29Z</time>
      </trkpt>
      <trkpt lat="50.700376611202955" lon="13.244576537981629">
        <ele>453</ele>
        <time>2026-08-29T10:16:30Z</time>
      </trkpt>
      <trkpt lat="50.700404774397612" lon="13.244520798325539">
        <ele>452</ele>
        <time>2026-08-29T10:16:31Z</time>
      </trkpt>
      <trkpt lat="50.700428495183587" lon="13.244467405602336">
        <ele>452</ele>
        <time>2026-08-29T10:16:32Z</time>
      </trkpt>
      <trkpt lat="50.700438050553203" lon="13.244404206052423">
        <ele>452</ele>
        <time>2026-08-29T10:16:33Z</time>
      </trkpt>
      <trkpt lat="50.700440229848027" lon="13.244325248524547">
        <ele>451</ele>
        <time>2026-08-29T10:16:34Z</time>
      </trkpt>
      <trkpt lat="50.700445342808962" lon="13.244259115308523">
        <ele>450</ele>
        <time>2026-08-29T10:16:35Z</time>
      </trkpt>
      <trkpt lat="50.700454562902451" lon="13.244213936850429">
        <ele>451</ele>
        <time>2026-08-29T10:16:36Z</time>
      </trkpt>
      <trkpt lat="50.70046822540462" lon="13.244190718978643">
        <ele>451</ele>
        <time>2026-08-29T10:16:37Z</time>
      </trkpt>
      <trkpt lat="50.700470237061381" lon="13.244179403409362">
        <ele>451</ele>
        <time>2026-08-29T10:16:38Z</time>
      </trkpt>
      <trkpt lat="50.700464621186256" lon="13.24418175034225">
        <ele>451</ele>
        <time>2026-08-29T10:16:39Z</time>
      </trkpt>
      <trkpt lat="50.700462609529495" lon="13.244191305711865">
        <ele>451</ele>
        <time>2026-08-29T10:16:40Z</time>
      </trkpt>
      <trkpt lat="50.70046772249043" lon="13.244193233549595">
        <ele>451</ele>
        <time>2026-08-29T10:16:41Z</time>
      </trkpt>
      <trkpt lat="50.700463699176908" lon="13.244188036769629">
        <ele>449</ele>
        <time>2026-08-29T10:16:42Z</time>
      </trkpt>
      <trkpt lat="50.700463950634003" lon="13.244188288226724">
        <ele>449</ele>
        <time>2026-08-29T10:16:43Z</time>
      </trkpt>
      <trkpt lat="50.700463950634003" lon="13.24418812058866">
        <ele>449</ele>
        <time>2026-08-29T10:16:44Z</time>
      </trkpt>
      <trkpt lat="50.700464202091098" lon="13.24418812058866">
        <ele>449</ele>
        <time>2026-08-29T10:16:45Z</time>
      </trkpt>
      <trkpt lat="50.700463950634003" lon="13.244187366217375">
        <ele>449</ele>
        <time>2026-08-29T10:16:46Z</time>
      </trkpt>
      <trkpt lat="50.700463950634003" lon="13.244187450036407">
        <ele>449</ele>
        <time>2026-08-29T10:16:47Z</time>
      </trkpt>
      <trkpt lat="50.700463950634003" lon="13.244187366217375">
        <ele>449</ele>
        <time>2026-08-29T10:16:48Z</time>
      </trkpt>
      <trkpt lat="50.700463782995939" lon="13.244187198579311">
        <ele>449</ele>
        <time>2026-08-29T10:16:49Z</time>
      </trkpt>
      <trkpt lat="50.700463447719812" lon="13.244187198579311">
        <ele>449</ele>
        <time>2026-08-29T10:16:50Z</time>
      </trkpt>
      <trkpt lat="50.700463531538844" lon="13.244187869131565">
        <ele>449</ele>
        <time>2026-08-29T10:16:51Z</time>
      </trkpt>
      <trkpt lat="50.700463447719812" lon="13.244188539683819">
        <ele>449</ele>
        <time>2026-08-29T10:16:52Z</time>
      </trkpt>
      <trkpt lat="50.700463447719812" lon="13.244189042598009">
        <ele>449</ele>
        <time>2026-08-29T10:16:53Z</time>
      </trkpt>
      <trkpt lat="50.700463280081749" lon="13.244188958778977">
        <ele>449</ele>
        <time>2026-08-29T10:16:54Z</time>
      </trkpt>
      <trkpt lat="50.700463447719812" lon="13.244188539683819">
        <ele>449</ele>
        <time>2026-08-29T10:16:55Z</time>
      </trkpt>
      <trkpt lat="50.700463447719812" lon="13.244188372045755">
        <ele>449</ele>
        <time>2026-08-29T10:16:56Z</time>
      </trkpt>
      <trkpt lat="50.700463363900781" lon="13.244188204407692">
        <ele>449</ele>
        <time>2026-08-29T10:16:57Z</time>
      </trkpt>
      <trkpt lat="50.700463531538844" lon="13.244188204407692">
        <ele>449</ele>
        <time>2026-08-29T10:16:58Z</time>
      </trkpt>
      <trkpt lat="50.700463531538844" lon="13.244187869131565">
        <ele>449</ele>
        <time>2026-08-29T10:16:59Z</time>
      </trkpt>
      <trkpt lat="50.700463531538844" lon="13.244187785312533">
        <ele>449</ele>
        <time>2026-08-29T10:17:00Z</time>
      </trkpt>
      <trkpt lat="50.700463531538844" lon="13.244187533855438">
        <ele>449</ele>
        <time>2026-08-29T10:17:01Z</time>
      </trkpt>
      <trkpt lat="50.700463531538844" lon="13.244187030941248">
        <ele>449</ele>
        <time>2026-08-29T10:17:02Z</time>
      </trkpt>
      <trkpt lat="50.700463699176908" lon="13.244186863303185">
        <ele>449</ele>
        <time>2026-08-29T10:17:03Z</time>
      </trkpt>
      <trkpt lat="50.700463699176908" lon="13.244186695665121">
        <ele>449</ele>
        <time>2026-08-29T10:17:04Z</time>
      </trkpt>
      <trkpt lat="50.700463615357876" lon="13.244186611846089">
        <ele>449</ele>
        <time>2026-08-29T10:17:05Z</time>
      </trkpt>
      <trkpt lat="50.700463615357876" lon="13.244186779484153">
        <ele>449</ele>
        <time>2026-08-29T10:17:06Z</time>
      </trkpt>
      <trkpt lat="50.700463531538844" lon="13.244186611846089">
        <ele>449</ele>
        <time>2026-08-29T10:17:07Z</time>
      </trkpt>
      <trkpt lat="50.700463699176908" lon="13.244186444208026">
        <ele>450</ele>
        <time>2026-08-29T10:17:08Z</time>
      </trkpt>
      <trkpt lat="50.700463531538844" lon="13.244185773655772">
        <ele>450</ele>
        <time>2026-08-29T10:17:09Z</time>
      </trkpt>
      <trkpt lat="50.700463196262717" lon="13.244185270741582">
        <ele>450</ele>
        <time>2026-08-29T10:17:10Z</time>
      </trkpt>
      <trkpt lat="50.70046286098659" lon="13.244184097275138">
        <ele>450</ele>
        <time>2026-08-29T10:17:11Z</time>
      </trkpt>
      <trkpt lat="50.700462609529495" lon="13.244183510541916">
        <ele>450</ele>
        <time>2026-08-29T10:17:12Z</time>
      </trkpt>
      <trkpt lat="50.700462190434337" lon="13.24418275617063">
        <ele>449</ele>
        <time>2026-08-29T10:17:13Z</time>
      </trkpt>
      <trkpt lat="50.700461771339178" lon="13.244182588532567">
        <ele>449</ele>
        <time>2026-08-29T10:17:14Z</time>
      </trkpt>
      <trkpt lat="50.700461687520146" lon="13.244182085618377">
        <ele>449</ele>
        <time>2026-08-29T10:17:15Z</time>
      </trkpt>
      <trkpt lat="50.700461519882083" lon="13.24418175034225">
        <ele>449</ele>
        <time>2026-08-29T10:17:16Z</time>
      </trkpt>
      <trkpt lat="50.700461519882083" lon="13.244181498885155">
        <ele>449</ele>
        <time>2026-08-29T10:17:17Z</time>
      </trkpt>
      <trkpt lat="50.700461771339178" lon="13.244180912151933">
        <ele>450</ele>
        <time>2026-08-29T10:17:18Z</time>
      </trkpt>
      <trkpt lat="50.700461938977242" lon="13.244180493056774">
        <ele>450</ele>
        <time>2026-08-29T10:17:19Z</time>
      </trkpt>
      <trkpt lat="50.700462190434337" lon="13.244180157780647">
        <ele>450</ele>
        <time>2026-08-29T10:17:20Z</time>
      </trkpt>
      <trkpt lat="50.700462190434337" lon="13.244179906323552">
        <ele>450</ele>
        <time>2026-08-29T10:17:21Z</time>
      </trkpt>
      <trkpt lat="50.7004623580724" lon="13.244179487228394">
        <ele>450</ele>
        <time>2026-08-29T10:17:22Z</time>
      </trkpt>
      <trkpt lat="50.700462441891432" lon="13.244178984314203">
        <ele>450</ele>
        <time>2026-08-29T10:17:23Z</time>
      </trkpt>
      <trkpt lat="50.700462609529495" lon="13.244179151952267">
        <ele>450</ele>
        <time>2026-08-29T10:17:24Z</time>
      </trkpt>
      <trkpt lat="50.700462525710464" lon="13.244178565219045">
        <ele>450</ele>
        <time>2026-08-29T10:17:25Z</time>
      </trkpt>
      <trkpt lat="50.700462777167559" lon="13.244178397580981">
        <ele>450</ele>
        <time>2026-08-29T10:17:26Z</time>
      </trkpt>
      <trkpt lat="50.700462693348527" lon="13.244177727028728">
        <ele>450</ele>
        <time>2026-08-29T10:17:27Z</time>
      </trkpt>
      <trkpt lat="50.70046286098659" lon="13.244167333468795">
        <ele>450</ele>
        <time>2026-08-29T10:17:28Z</time>
      </trkpt>
      <trkpt lat="50.700463028624654" lon="13.244166998192668">
        <ele>450</ele>
        <time>2026-08-29T10:17:29Z</time>
      </trkpt>
      <trkpt lat="50.700463280081749" lon="13.244167333468795">
        <ele>450</ele>
        <time>2026-08-29T10:17:30Z</time>
      </trkpt>
      <trkpt lat="50.700463028624654" lon="13.244166914373636">
        <ele>450</ele>
        <time>2026-08-29T10:17:31Z</time>
      </trkpt>
      <trkpt lat="50.70046286098659" lon="13.244166579097509">
        <ele>450</ele>
        <time>2026-08-29T10:17:32Z</time>
      </trkpt>
      <trkpt lat="50.700462609529495" lon="13.244166495278478">
        <ele>450</ele>
        <time>2026-08-29T10:17:33Z</time>
      </trkpt>
      <trkpt lat="50.7004623580724" lon="13.244166495278478">
        <ele>450</ele>
        <time>2026-08-29T10:17:34Z</time>
      </trkpt>
      <trkpt lat="50.700462190434337" lon="13.244166411459446">
        <ele>450</ele>
        <time>2026-08-29T10:17:35Z</time>
      </trkpt>
      <trkpt lat="50.70046185515821" lon="13.244166411459446">
        <ele>450</ele>
        <time>2026-08-29T10:17:36Z</time>
      </trkpt>
      <trkpt lat="50.700461687520146" lon="13.244166411459446">
        <ele>450</ele>
        <time>2026-08-29T10:17:37Z</time>
      </trkpt>
      <trkpt lat="50.700461519882083" lon="13.244166495278478">
        <ele>450</ele>
        <time>2026-08-29T10:17:38Z</time>
      </trkpt>
      <trkpt lat="50.700461436063051" lon="13.244166579097509">
        <ele>450</ele>
        <time>2026-08-29T10:17:39Z</time>
      </trkpt>
      <trkpt lat="50.700461268424988" lon="13.244166662916541">
        <ele>450</ele>
        <time>2026-08-29T10:17:40Z</time>
      </trkpt>
      <trkpt lat="50.70046135224402" lon="13.244166746735573">
        <ele>450</ele>
        <time>2026-08-29T10:17:41Z</time>
      </trkpt>
      <trkpt lat="50.70046135224402" lon="13.244166579097509">
        <ele>450</ele>
        <time>2026-08-29T10:17:42Z</time>
      </trkpt>
      <trkpt lat="50.700461268424988" lon="13.244166076183319">
        <ele>450</ele>
        <time>2026-08-29T10:17:43Z</time>
      </trkpt>
      <trkpt lat="50.70046135224402" lon="13.244165992364287">
        <ele>450</ele>
        <time>2026-08-29T10:17:44Z</time>
      </trkpt>
      <trkpt lat="50.70046135224402" lon="13.244165908545256">
        <ele>450</ele>
        <time>2026-08-29T10:17:45Z</time>
      </trkpt>
      <trkpt lat="50.700461268424988" lon="13.244165908545256">
        <ele>450</ele>
        <time>2026-08-29T10:17:46Z</time>
      </trkpt>
      <trkpt lat="50.700461268424988" lon="13.244166579097509">
        <ele>450</ele>
        <time>2026-08-29T10:17:47Z</time>
      </trkpt>
      <trkpt lat="50.70046135224402" lon="13.244166662916541">
        <ele>450</ele>
        <time>2026-08-29T10:17:48Z</time>
      </trkpt>
      <trkpt lat="50.700461436063051" lon="13.244166830554605">
        <ele>450</ele>
        <time>2026-08-29T10:17:49Z</time>
      </trkpt>
      <trkpt lat="50.700461436063051" lon="13.244166830554605">
        <ele>450</ele>
        <time>2026-08-29T10:17:50Z</time>
      </trkpt>
      <trkpt lat="50.700461436063051" lon="13.244167249649763">
        <ele>450</ele>
        <time>2026-08-29T10:17:51Z</time>
      </trkpt>
      <trkpt lat="50.700461603701115" lon="13.244171105325222">
        <ele>450</ele>
        <time>2026-08-29T10:17:52Z</time>
      </trkpt>
      <trkpt lat="50.700461100786924" lon="13.244181582704186">
        <ele>451</ele>
        <time>2026-08-29T10:17:53Z</time>
      </trkpt>
      <trkpt lat="50.700461687520146" lon="13.244191221892834">
        <ele>450</ele>
        <time>2026-08-29T10:17:54Z</time>
      </trkpt>
      <trkpt lat="50.700460178777575" lon="13.244196083396673">
        <ele>450</ele>
        <time>2026-08-29T10:17:55Z</time>
      </trkpt>
      <trkpt lat="50.700451042503119" lon="13.24419105425477">
        <ele>450</ele>
        <time>2026-08-29T10:17:56Z</time>
      </trkpt>
      <trkpt lat="50.700449701398611" lon="13.244193065911531">
        <ele>450</ele>
        <time>2026-08-29T10:17:57Z</time>
      </trkpt>
      <trkpt lat="50.700451042503119" lon="13.244190718978643">
        <ele>450</ele>
        <time>2026-08-29T10:17:58Z</time>
      </trkpt>
      <trkpt lat="50.700450539588928" lon="13.244182001799345">
        <ele>450</ele>
        <time>2026-08-29T10:17:59Z</time>
      </trkpt>
      <trkpt lat="50.700455401092768" lon="13.244178229942918">
        <ele>450</ele>
        <time>2026-08-29T10:18:00Z</time>
      </trkpt>
      <trkpt lat="50.700462609529495" lon="13.244170183315873">
        <ele>450</ele>
        <time>2026-08-29T10:18:01Z</time>
      </trkpt>
      <trkpt lat="50.700466884300113" lon="13.244162807241082">
        <ele>449</ele>
        <time>2026-08-29T10:18:02Z</time>
      </trkpt>
      <trkpt lat="50.700459340587258" lon="13.244156604632735">
        <ele>449</ele>
        <time>2026-08-29T10:18:03Z</time>
      </trkpt>
      <trkpt lat="50.7004623580724" lon="13.244150569662452">
        <ele>449</ele>
        <time>2026-08-29T10:18:04Z</time>
      </trkpt>
      <trkpt lat="50.700460681691766" lon="13.244145205244422">
        <ele>449</ele>
        <time>2026-08-29T10:18:05Z</time>
      </trkpt>
      <trkpt lat="50.700456071645021" lon="13.244133051484823">
        <ele>449</ele>
        <time>2026-08-29T10:18:06Z</time>
      </trkpt>
      <trkpt lat="50.700448108837008" lon="13.244118299335241">
        <ele>449</ele>
        <time>2026-08-29T10:18:07Z</time>
      </trkpt>
      <trkpt lat="50.700452299788594" lon="13.244113521650434">
        <ele>448</ele>
        <time>2026-08-29T10:18:08Z</time>
      </trkpt>
      <trkpt lat="50.700446851551533" lon="13.244105558842421">
        <ele>448</ele>
        <time>2026-08-29T10:18:09Z</time>
      </trkpt>
      <trkpt lat="50.700437799096107" lon="13.244096841663122">
        <ele>447</ele>
        <time>2026-08-29T10:18:10Z</time>
      </trkpt>
      <trkpt lat="50.700439475476742" lon="13.244059374555945">
        <ele>446</ele>
        <time>2026-08-29T10:18:11Z</time>
      </trkpt>
      <trkpt lat="50.700455904006958" lon="13.24402492493391">
        <ele>446</ele>
        <time>2026-08-29T10:18:12Z</time>
      </trkpt>
      <trkpt lat="50.700472332537174" lon="13.243976980447769">
        <ele>446</ele>
        <time>2026-08-29T10:18:13Z</time>
      </trkpt>
      <trkpt lat="50.700491108000278" lon="13.243921743705869">
        <ele>445</ele>
        <time>2026-08-29T10:18:14Z</time>
      </trkpt>
      <trkpt lat="50.700510302558541" lon="13.243872290477157">
        <ele>445</ele>
        <time>2026-08-29T10:18:15Z</time>
      </trkpt>
      <trkpt lat="50.700520696118474" lon="13.243814539164305">
        <ele>445</ele>
        <time>2026-08-29T10:18:16Z</time>
      </trkpt>
      <trkpt lat="50.700538968667388" lon="13.243753435090184">
        <ele>445</ele>
        <time>2026-08-29T10:18:17Z</time>
      </trkpt>
      <trkpt lat="50.700555061921477" lon="13.243704065680504">
        <ele>445</ele>
        <time>2026-08-29T10:18:18Z</time>
      </trkpt>
      <trkpt lat="50.700573669746518" lon="13.243667269125581">
        <ele>444</ele>
        <time>2026-08-29T10:18:19Z</time>
      </trkpt>
      <trkpt lat="50.700580459088087" lon="13.243647404015064">
        <ele>444</ele>
        <time>2026-08-29T10:18:20Z</time>
      </trkpt>
      <trkpt lat="50.700588840991259" lon="13.243637345731258">
        <ele>444</ele>
        <time>2026-08-29T10:18:21Z</time>
      </trkpt>
      <trkpt lat="50.700588840991259" lon="13.243630807846785">
        <ele>444</ele>
        <time>2026-08-29T10:18:22Z</time>
      </trkpt>
      <trkpt lat="50.700588589534163" lon="13.243630472570658">
        <ele>444</ele>
        <time>2026-08-29T10:18:23Z</time>
      </trkpt>
      <trkpt lat="50.700582470744848" lon="13.24362083338201">
        <ele>444</ele>
        <time>2026-08-29T10:18:24Z</time>
      </trkpt>
      <trkpt lat="50.700581464916468" lon="13.243610942736268">
        <ele>444</ele>
        <time>2026-08-29T10:18:25Z</time>
      </trkpt>
      <trkpt lat="50.700589008629322" lon="13.243597447872162">
        <ele>444</ele>
        <time>2026-08-29T10:18:26Z</time>
      </trkpt>
      <trkpt lat="50.700600072741508" lon="13.243583617731929">
        <ele>444</ele>
        <time>2026-08-29T10:18:27Z</time>
      </trkpt>
      <trkpt lat="50.700613651424646" lon="13.243565764278173">
        <ele>444</ele>
        <time>2026-08-29T10:18:28Z</time>
      </trkpt>
      <trkpt lat="50.700631588697433" lon="13.243537433445454">
        <ele>444</ele>
        <time>2026-08-29T10:18:29Z</time>
      </trkpt>
      <trkpt lat="50.700655141845345" lon="13.243510276079178">
        <ele>444</ele>
        <time>2026-08-29T10:18:30Z</time>
      </trkpt>
      <trkpt lat="50.700684059411287" lon="13.243478173390031">
        <ele>443</ele>
        <time>2026-08-29T10:18:31Z</time>
      </trkpt>
      <trkpt lat="50.700715743005276" lon="13.243439784273505">
        <ele>444</ele>
        <time>2026-08-29T10:18:32Z</time>
      </trkpt>
      <trkpt lat="50.700744828209281" lon="13.243379266932607">
        <ele>443</ele>
        <time>2026-08-29T10:18:33Z</time>
      </trkpt>
      <trkpt lat="50.700787492096424" lon="13.243322353810072">
        <ele>444</ele>
        <time>2026-08-29T10:18:34Z</time>
      </trkpt>
      <trkpt lat="50.700818840414286" lon="13.243264937773347">
        <ele>444</ele>
        <time>2026-08-29T10:18:35Z</time>
      </trkpt>
      <trkpt lat="50.700844237580895" lon="13.243221268057823">
        <ele>445</ele>
        <time>2026-08-29T10:18:36Z</time>
      </trkpt>
      <trkpt lat="50.700869467109442" lon="13.243179358541965">
        <ele>445</ele>
        <time>2026-08-29T10:18:37Z</time>
      </trkpt>
      <trkpt lat="50.700896792113781" lon="13.243128145113587">
        <ele>444</ele>
        <time>2026-08-29T10:18:38Z</time>
      </trkpt>
      <trkpt lat="50.700919339433312" lon="13.243075842037797">
        <ele>444</ele>
        <time>2026-08-29T10:18:39Z</time>
      </trkpt>
      <trkpt lat="50.700942892581224" lon="13.24302077293396">
        <ele>444</ele>
        <time>2026-08-29T10:18:40Z</time>
      </trkpt>
      <trkpt lat="50.700963512063026" lon="13.242965620011091">
        <ele>443</ele>
        <time>2026-08-29T10:18:41Z</time>
      </trkpt>
      <trkpt lat="50.70099301636219" lon="13.242912059649825">
        <ele>443</ele>
        <time>2026-08-29T10:18:42Z</time>
      </trkpt>
      <trkpt lat="50.701022855937481" lon="13.24286637827754">
        <ele>442</ele>
        <time>2026-08-29T10:18:43Z</time>
      </trkpt>
      <trkpt lat="50.701053952798247" lon="13.242820613086224">
        <ele>443</ele>
        <time>2026-08-29T10:18:44Z</time>
      </trkpt>
      <trkpt lat="50.701091419905424" lon="13.242777530103922">
        <ele>443</ele>
        <time>2026-08-29T10:18:45Z</time>
      </trkpt>
      <trkpt lat="50.701123019680381" lon="13.242722628638148">
        <ele>443</ele>
        <time>2026-08-29T10:18:46Z</time>
      </trkpt>
      <trkpt lat="50.701150679960847" lon="13.242670996114612">
        <ele>443</ele>
        <time>2026-08-29T10:18:47Z</time>
      </trkpt>
      <trkpt lat="50.701180016621947" lon="13.242618357762694">
        <ele>443</ele>
        <time>2026-08-29T10:18:48Z</time>
      </trkpt>
      <trkpt lat="50.701204827055335" lon="13.242562366649508">
        <ele>442</ele>
        <time>2026-08-29T10:18:49Z</time>
      </trkpt>
      <trkpt lat="50.701234079897404" lon="13.242510231211782">
        <ele>442</ele>
        <time>2026-08-29T10:18:50Z</time>
      </trkpt>
      <trkpt lat="50.701259644702077" lon="13.242451641708612">
        <ele>442</ele>
        <time>2026-08-29T10:18:51Z</time>
      </trkpt>
      <trkpt lat="50.701288897544146" lon="13.24240118265152">
        <ele>442</ele>
        <time>2026-08-29T10:18:52Z</time>
      </trkpt>
      <trkpt lat="50.70131991058588" lon="13.242346365004778">
        <ele>442</ele>
        <time>2026-08-29T10:18:53Z</time>
      </trkpt>
      <trkpt lat="50.701351091265678" lon="13.242291212081909">
        <ele>442</ele>
        <time>2026-08-29T10:18:54Z</time>
      </trkpt>
      <trkpt lat="50.70138294249773" lon="13.242238573729992">
        <ele>443</ele>
        <time>2026-08-29T10:18:55Z</time>
      </trkpt>
      <trkpt lat="50.701413368806243" lon="13.242174787446856">
        <ele>443</ele>
        <time>2026-08-29T10:18:56Z</time>
      </trkpt>
      <trkpt lat="50.701444800943136" lon="13.242113180458546">
        <ele>443</ele>
        <time>2026-08-29T10:18:57Z</time>
      </trkpt>
      <trkpt lat="50.701478831470013" lon="13.242056434974074">
        <ele>443</ele>
        <time>2026-08-29T10:18:58Z</time>
      </trkpt>
      <trkpt lat="50.701512694358826" lon="13.242001449689269">
        <ele>444</ele>
        <time>2026-08-29T10:18:59Z</time>
      </trkpt>
      <trkpt lat="50.701548149809241" lon="13.241935316473246">
        <ele>444</ele>
        <time>2026-08-29T10:19:00Z</time>
      </trkpt>
      <trkpt lat="50.701578659936786" lon="13.241878990083933">
        <ele>443</ele>
        <time>2026-08-29T10:19:01Z</time>
      </trkpt>
      <trkpt lat="50.701606068760157" lon="13.241817886009812">
        <ele>443</ele>
        <time>2026-08-29T10:19:02Z</time>
      </trkpt>
      <trkpt lat="50.701634399592876" lon="13.241758961230516">
        <ele>444</ele>
        <time>2026-08-29T10:19:03Z</time>
      </trkpt>
      <trkpt lat="50.701660551130772" lon="13.241697438061237">
        <ele>444</ele>
        <time>2026-08-29T10:19:04Z</time>
      </trkpt>
      <trkpt lat="50.701689971610904" lon="13.241638010367751">
        <ele>444</ele>
        <time>2026-08-29T10:19:05Z</time>
      </trkpt>
      <trkpt lat="50.701717967167497" lon="13.241579756140709">
        <ele>444</ele>
        <time>2026-08-29T10:19:06Z</time>
      </trkpt>
      <trkpt lat="50.701751327142119" lon="13.241520496085286">
        <ele>444</ele>
        <time>2026-08-29T10:19:07Z</time>
      </trkpt>
      <trkpt lat="50.701785441488028" lon="13.24146936647594">
        <ele>444</ele>
        <time>2026-08-29T10:19:08Z</time>
      </trkpt>
      <trkpt lat="50.701816538348794" lon="13.241412369534373">
        <ele>444</ele>
        <time>2026-08-29T10:19:09Z</time>
      </trkpt>
      <trkpt lat="50.701850485056639" lon="13.241350930184126">
        <ele>444</ele>
        <time>2026-08-29T10:19:10Z</time>
      </trkpt>
      <trkpt lat="50.701885521411896" lon="13.241298040375113">
        <ele>445</ele>
        <time>2026-08-29T10:19:11Z</time>
      </trkpt>
      <trkpt lat="50.701913852244616" lon="13.241240121424198">
        <ele>445</ele>
        <time>2026-08-29T10:19:12Z</time>
      </trkpt>
      <trkpt lat="50.701930280774832" lon="13.241181699559093">
        <ele>445</ele>
        <time>2026-08-29T10:19:13Z</time>
      </trkpt>
      <trkpt lat="50.701953331008554" lon="13.241127301007509">
        <ele>445</ele>
        <time>2026-08-29T10:19:14Z</time>
      </trkpt>
      <trkpt lat="50.701982583850622" lon="13.241076841950417">
        <ele>445</ele>
        <time>2026-08-29T10:19:15Z</time>
      </trkpt>
      <trkpt lat="50.702009908854961" lon="13.241025125607848">
        <ele>445</ele>
        <time>2026-08-29T10:19:16Z</time>
      </trkpt>
      <trkpt lat="50.702033881098032" lon="13.240958908572793">
        <ele>445</ele>
        <time>2026-08-29T10:19:17Z</time>
      </trkpt>
      <trkpt lat="50.702050141990185" lon="13.240890176966786">
        <ele>445</ele>
        <time>2026-08-29T10:19:18Z</time>
      </trkpt>
      <trkpt lat="50.702067660167813" lon="13.24081901460886">
        <ele>445</ele>
        <time>2026-08-29T10:19:19Z</time>
      </trkpt>
      <trkpt lat="50.702088363468647" lon="13.240755312144756">
        <ele>444</ele>
        <time>2026-08-29T10:19:20Z</time>
      </trkpt>
      <trkpt lat="50.702118286862969" lon="13.240672498941422">
        <ele>444</ele>
        <time>2026-08-29T10:19:21Z</time>
      </trkpt>
      <trkpt lat="50.702147539705038" lon="13.240602342411876">
        <ele>444</ele>
        <time>2026-08-29T10:19:22Z</time>
      </trkpt>
      <trkpt lat="50.702181989327073" lon="13.240536460652947">
        <ele>444</ele>
        <time>2026-08-29T10:19:23Z</time>
      </trkpt>
      <trkpt lat="50.702208811417222" lon="13.240461526438594">
        <ele>444</ele>
        <time>2026-08-29T10:19:24Z</time>
      </trkpt>
      <trkpt lat="50.702236974611878" lon="13.240388771519065">
        <ele>444</ele>
        <time>2026-08-29T10:19:25Z</time>
      </trkpt>
      <trkpt lat="50.702265724539757" lon="13.240311490371823">
        <ele>444</ele>
        <time>2026-08-29T10:19:26Z</time>
      </trkpt>
      <trkpt lat="50.702295647934079" lon="13.240242758765817">
        <ele>444</ele>
        <time>2026-08-29T10:19:27Z</time>
      </trkpt>
      <trkpt lat="50.702321380376816" lon="13.240159107372165">
        <ele>444</ele>
        <time>2026-08-29T10:19:28Z</time>
      </trkpt>
      <trkpt lat="50.702350717037916" lon="13.24007579125464">
        <ele>444</ele>
        <time>2026-08-29T10:19:29Z</time>
      </trkpt>
      <trkpt lat="50.702377874404192" lon="13.23999909684062">
        <ele>444</ele>
        <time>2026-08-29T10:19:30Z</time>
      </trkpt>
      <trkpt lat="50.702401427552104" lon="13.239922234788537">
        <ele>444</ele>
        <time>2026-08-29T10:19:31Z</time>
      </trkpt>
      <trkpt lat="50.702433278784156" lon="13.239834057167172">
        <ele>444</ele>
        <time>2026-08-29T10:19:32Z</time>
      </trkpt>
      <trkpt lat="50.7024637889117" lon="13.239743951708078">
        <ele>444</ele>
        <time>2026-08-29T10:19:33Z</time>
      </trkpt>
      <trkpt lat="50.702493963763118" lon="13.239663820713758">
        <ele>444</ele>
        <time>2026-08-29T10:19:34Z</time>
      </trkpt>
      <trkpt lat="50.702524809166789" lon="13.23959156870842">
        <ele>444</ele>
        <time>2026-08-29T10:19:35Z</time>
      </trkpt>
      <trkpt lat="50.702556660398841" lon="13.239509845152497">
        <ele>444</ele>
        <time>2026-08-29T10:19:36Z</time>
      </trkpt>
      <trkpt lat="50.702586499974132" lon="13.239433318376541">
        <ele>444</ele>
        <time>2026-08-29T10:19:37Z</time>
      </trkpt>
      <trkpt lat="50.702623212710023" lon="13.239349666982889">
        <ele>444</ele>
        <time>2026-08-29T10:19:38Z</time>
      </trkpt>
      <trkpt lat="50.702652465552092" lon="13.239261573180556">
        <ele>444</ele>
        <time>2026-08-29T10:19:39Z</time>
      </trkpt>
      <trkpt lat="50.702681802213192" lon="13.239180352538824">
        <ele>445</ele>
        <time>2026-08-29T10:19:40Z</time>
      </trkpt>
      <trkpt lat="50.702709127217531" lon="13.239097120240331">
        <ele>444</ele>
        <time>2026-08-29T10:19:41Z</time>
      </trkpt>
      <trkpt lat="50.702734440565109" lon="13.2390071824193">
        <ele>444</ele>
        <time>2026-08-29T10:19:42Z</time>
      </trkpt>
      <trkpt lat="50.702767968177795" lon="13.238922357559204">
        <ele>444</ele>
        <time>2026-08-29T10:19:43Z</time>
      </trkpt>
      <trkpt lat="50.702800825238228" lon="13.238836694508791">
        <ele>444</ele>
        <time>2026-08-29T10:19:44Z</time>
      </trkpt>
      <trkpt lat="50.702830580994487" lon="13.238756060600281">
        <ele>444</ele>
        <time>2026-08-29T10:19:45Z</time>
      </trkpt>
      <trkpt lat="50.702859498560429" lon="13.238672325387597">
        <ele>445</ele>
        <time>2026-08-29T10:19:46Z</time>
      </trkpt>
      <trkpt lat="50.702890511602163" lon="13.238590937107801">
        <ele>444</ele>
        <time>2026-08-29T10:19:47Z</time>
      </trkpt>
      <trkpt lat="50.702918590977788" lon="13.238502591848373">
        <ele>444</ele>
        <time>2026-08-29T10:19:48Z</time>
      </trkpt>
      <trkpt lat="50.70294993929565" lon="13.238413743674755">
        <ele>444</ele>
        <time>2026-08-29T10:19:49Z</time>
      </trkpt>
      <trkpt lat="50.702975001186132" lon="13.238330176100135">
        <ele>444</ele>
        <time>2026-08-29T10:19:50Z</time>
      </trkpt>
      <trkpt lat="50.702998638153076" lon="13.238242501392961">
        <ele>444</ele>
        <time>2026-08-29T10:19:51Z</time>
      </trkpt>
      <trkpt lat="50.703027974814177" lon="13.238152982667089">
        <ele>444</ele>
        <time>2026-08-29T10:19:52Z</time>
      </trkpt>
      <trkpt lat="50.70305940695107" lon="13.238070337101817">
        <ele>444</ele>
        <time>2026-08-29T10:19:53Z</time>
      </trkpt>
      <trkpt lat="50.70308824069798" lon="13.23799129575491">
        <ele>443</ele>
        <time>2026-08-29T10:19:54Z</time>
      </trkpt>
      <trkpt lat="50.703122019767761" lon="13.237910494208336">
        <ele>443</ele>
        <time>2026-08-29T10:19:55Z</time>
      </trkpt>
      <trkpt lat="50.703152529895306" lon="13.237824495881796">
        <ele>443</ele>
        <time>2026-08-29T10:19:56Z</time>
      </trkpt>
      <trkpt lat="50.703180693089962" lon="13.237746711820364">
        <ele>443</ele>
        <time>2026-08-29T10:19:57Z</time>
      </trkpt>
      <trkpt lat="50.703207515180111" lon="13.237674124538898">
        <ele>443</ele>
        <time>2026-08-29T10:19:58Z</time>
      </trkpt>
      <trkpt lat="50.703238109126687" lon="13.237597094848752">
        <ele>443</ele>
        <time>2026-08-29T10:19:59Z</time>
      </trkpt>
      <trkpt lat="50.703265098854899" lon="13.23752517811954">
        <ele>443</ele>
        <time>2026-08-29T10:20:00Z</time>
      </trkpt>
      <trkpt lat="50.703287981450558" lon="13.237454518675804">
        <ele>443</ele>
        <time>2026-08-29T10:20:01Z</time>
      </trkpt>
      <trkpt lat="50.703311199322343" lon="13.237391235306859">
        <ele>443</ele>
        <time>2026-08-29T10:20:02Z</time>
      </trkpt>
      <trkpt lat="50.703333411365747" lon="13.237334741279483">
        <ele>443</ele>
        <time>2026-08-29T10:20:03Z</time>
      </trkpt>
      <trkpt lat="50.703354449942708" lon="13.237270871177316">
        <ele>442</ele>
        <time>2026-08-29T10:20:04Z</time>
      </trkpt>
      <trkpt lat="50.703370040282607" lon="13.237208342179656">
        <ele>442</ele>
        <time>2026-08-29T10:20:05Z</time>
      </trkpt>
      <trkpt lat="50.703384960070252" lon="13.237149082124233">
        <ele>442</ele>
        <time>2026-08-29T10:20:06Z</time>
      </trkpt>
      <trkpt lat="50.703402478247881" lon="13.237096359953284">
        <ele>441</ele>
        <time>2026-08-29T10:20:07Z</time>
      </trkpt>
      <trkpt lat="50.703426282852888" lon="13.237030226737261">
        <ele>441</ele>
        <time>2026-08-29T10:20:08Z</time>
      </trkpt>
      <trkpt lat="50.703444136306643" lon="13.236978426575661">
        <ele>440</ele>
        <time>2026-08-29T10:20:09Z</time>
      </trkpt>
      <trkpt lat="50.703462157398462" lon="13.236917993053794">
        <ele>440</ele>
        <time>2026-08-29T10:20:10Z</time>
      </trkpt>
      <trkpt lat="50.703475149348378" lon="13.236871138215065">
        <ele>440</ele>
        <time>2026-08-29T10:20:11Z</time>
      </trkpt>
      <trkpt lat="50.703492751345038" lon="13.236831575632095">
        <ele>440</ele>
        <time>2026-08-29T10:20:12Z</time>
      </trkpt>
      <trkpt lat="50.703507252037525" lon="13.236788492649794">
        <ele>440</ele>
        <time>2026-08-29T10:20:13Z</time>
      </trkpt>
      <trkpt lat="50.703520914539695" lon="13.236750774085522">
        <ele>440</ele>
        <time>2026-08-29T10:20:14Z</time>
      </trkpt>
      <trkpt lat="50.703531475737691" lon="13.236711462959647">
        <ele>440</ele>
        <time>2026-08-29T10:20:15Z</time>
      </trkpt>
      <trkpt lat="50.703543210402131" lon="13.236680449917912">
        <ele>440</ele>
        <time>2026-08-29T10:20:16Z</time>
      </trkpt>
      <trkpt lat="50.703555950894952" lon="13.236646503210068">
        <ele>440</ele>
        <time>2026-08-29T10:20:17Z</time>
      </trkpt>
      <trkpt lat="50.703567769378424" lon="13.236615657806396">
        <ele>440</ele>
        <time>2026-08-29T10:20:18Z</time>
      </trkpt>
      <trkpt lat="50.703576821833849" lon="13.236576933413744">
        <ele>440</ele>
        <time>2026-08-29T10:20:19Z</time>
      </trkpt>
      <trkpt lat="50.703590232878923" lon="13.236536867916584">
        <ele>441</ele>
        <time>2026-08-29T10:20:20Z</time>
      </trkpt>
      <trkpt lat="50.703602638095617" lon="13.236490599811077">
        <ele>441</ele>
        <time>2026-08-29T10:20:21Z</time>
      </trkpt>
      <trkpt lat="50.703615630045533" lon="13.236448438838124">
        <ele>441</ele>
        <time>2026-08-29T10:20:22Z</time>
      </trkpt>
      <trkpt lat="50.703628789633512" lon="13.236403344199061">
        <ele>441</ele>
        <time>2026-08-29T10:20:23Z</time>
      </trkpt>
      <trkpt lat="50.703641781583428" lon="13.236360009759665">
        <ele>441</ele>
        <time>2026-08-29T10:20:24Z</time>
      </trkpt>
      <trkpt lat="50.703657036647201" lon="13.236308796331286">
        <ele>441</ele>
        <time>2026-08-29T10:20:25Z</time>
      </trkpt>
      <trkpt lat="50.70367019623518" lon="13.236262612044811">
        <ele>441</ele>
        <time>2026-08-29T10:20:26Z</time>
      </trkpt>
      <trkpt lat="50.70368679240346" lon="13.23621416464448">
        <ele>441</ele>
        <time>2026-08-29T10:20:27Z</time>
      </trkpt>
      <trkpt lat="50.703705819323659" lon="13.236161358654499">
        <ele>441</ele>
        <time>2026-08-29T10:20:28Z</time>
      </trkpt>
      <trkpt lat="50.703721325844526" lon="13.236109893769026">
        <ele>440</ele>
        <time>2026-08-29T10:20:29Z</time>
      </trkpt>
      <trkpt lat="50.703735239803791" lon="13.236056668683887">
        <ele>440</ele>
        <time>2026-08-29T10:20:30Z</time>
      </trkpt>
      <trkpt lat="50.703751668334007" lon="13.235998665913939">
        <ele>440</ele>
        <time>2026-08-29T10:20:31Z</time>
      </trkpt>
      <trkpt lat="50.703773461282253" lon="13.2359385676682">
        <ele>441</ele>
        <time>2026-08-29T10:20:32Z</time>
      </trkpt>
      <trkpt lat="50.703792069107294" lon="13.235879894345999">
        <ele>441</ele>
        <time>2026-08-29T10:20:33Z</time>
      </trkpt>
      <trkpt lat="50.70380799472332" lon="13.235814347863197">
        <ele>441</ele>
        <time>2026-08-29T10:20:34Z</time>
      </trkpt>
      <trkpt lat="50.703822830691934" lon="13.235756596550345">
        <ele>441</ele>
        <time>2026-08-29T10:20:35Z</time>
      </trkpt>
      <trkpt lat="50.70383339188993" lon="13.235692726448178">
        <ele>441</ele>
        <time>2026-08-29T10:20:36Z</time>
      </trkpt>
      <trkpt lat="50.70383976213634" lon="13.235626760870218">
        <ele>441</ele>
        <time>2026-08-29T10:20:37Z</time>
      </trkpt>
      <trkpt lat="50.703841438516974" lon="13.235562639310956">
        <ele>440</ele>
        <time>2026-08-29T10:20:38Z</time>
      </trkpt>
      <trkpt lat="50.703848479315639" lon="13.235495751723647">
        <ele>441</ele>
        <time>2026-08-29T10:20:39Z</time>
      </trkpt>
      <trkpt lat="50.703853508457541" lon="13.235431546345353">
        <ele>440</ele>
        <time>2026-08-29T10:20:40Z</time>
      </trkpt>
      <trkpt lat="50.703858369961381" lon="13.235363401472569">
        <ele>440</ele>
        <time>2026-08-29T10:20:41Z</time>
      </trkpt>
      <trkpt lat="50.703855939209461" lon="13.235299866646528">
        <ele>440</ele>
        <time>2026-08-29T10:20:42Z</time>
      </trkpt>
      <trkpt lat="50.703853843733668" lon="13.235235745087266">
        <ele>441</ele>
        <time>2026-08-29T10:20:43Z</time>
      </trkpt>
      <trkpt lat="50.703847641125321" lon="13.235179586336017">
        <ele>441</ele>
        <time>2026-08-29T10:20:44Z</time>
      </trkpt>
      <trkpt lat="50.703844120725989" lon="13.235123259946704">
        <ele>441</ele>
        <time>2026-08-29T10:20:45Z</time>
      </trkpt>
      <trkpt lat="50.703840013593435" lon="13.23507372289896">
        <ele>441</ele>
        <time>2026-08-29T10:20:46Z</time>
      </trkpt>
      <trkpt lat="50.703832888975739" lon="13.235027119517326">
        <ele>441</ele>
        <time>2026-08-29T10:20:47Z</time>
      </trkpt>
      <trkpt lat="50.7038280274719" lon="13.234979510307312">
        <ele>441</ele>
        <time>2026-08-29T10:20:48Z</time>
      </trkpt>
      <trkpt lat="50.703823082149029" lon="13.234931062906981">
        <ele>441</ele>
        <time>2026-08-29T10:20:49Z</time>
      </trkpt>
      <trkpt lat="50.703817801550031" lon="13.234889572486281">
        <ele>441</ele>
        <time>2026-08-29T10:20:50Z</time>
      </trkpt>
      <trkpt lat="50.703812101855874" lon="13.234853781759739">
        <ele>442</ele>
        <time>2026-08-29T10:20:51Z</time>
      </trkpt>
      <trkpt lat="50.703807156533003" lon="13.234825367107987">
        <ele>442</ele>
        <time>2026-08-29T10:20:52Z</time>
      </trkpt>
      <trkpt lat="50.70380799472332" lon="13.234824361279607">
        <ele>442</ele>
        <time>2026-08-29T10:20:53Z</time>
      </trkpt>
      <trkpt lat="50.703809168189764" lon="13.234815811738372">
        <ele>442</ele>
        <time>2026-08-29T10:20:54Z</time>
      </trkpt>
      <trkpt lat="50.703808581456542" lon="13.234804077073932">
        <ele>442</ele>
        <time>2026-08-29T10:20:55Z</time>
      </trkpt>
      <trkpt lat="50.703805731609464" lon="13.234802149236202">
        <ele>442</ele>
        <time>2026-08-29T10:20:56Z</time>
      </trkpt>
      <trkpt lat="50.703810760751367" lon="13.23480349034071">
        <ele>442</ele>
        <time>2026-08-29T10:20:57Z</time>
      </trkpt>
      <trkpt lat="50.703810676932335" lon="13.234803071245551">
        <ele>442</ele>
        <time>2026-08-29T10:20:58Z</time>
      </trkpt>
      <trkpt lat="50.703810509294271" lon="13.234802903607488">
        <ele>442</ele>
        <time>2026-08-29T10:20:59Z</time>
      </trkpt>
      <trkpt lat="50.70381042547524" lon="13.234802316874266">
        <ele>442</ele>
        <time>2026-08-29T10:21:00Z</time>
      </trkpt>
      <trkpt lat="50.703810341656208" lon="13.234801897779107">
        <ele>442</ele>
        <time>2026-08-29T10:21:01Z</time>
      </trkpt>
      <trkpt lat="50.703810257837176" lon="13.234801478683949">
        <ele>442</ele>
        <time>2026-08-29T10:21:02Z</time>
      </trkpt>
      <trkpt lat="50.703810090199113" lon="13.23480105958879">
        <ele>442</ele>
        <time>2026-08-29T10:21:03Z</time>
      </trkpt>
      <trkpt lat="50.703810090199113" lon="13.234800975769758">
        <ele>442</ele>
        <time>2026-08-29T10:21:04Z</time>
      </trkpt>
      <trkpt lat="50.703809922561049" lon="13.234801143407822">
        <ele>442</ele>
        <time>2026-08-29T10:21:05Z</time>
      </trkpt>
      <trkpt lat="50.703809922561049" lon="13.234801143407822">
        <ele>442</ele>
        <time>2026-08-29T10:21:06Z</time>
      </trkpt>
      <trkpt lat="50.703809838742018" lon="13.234801227226853">
        <ele>442</ele>
        <time>2026-08-29T10:21:07Z</time>
      </trkpt>
      <trkpt lat="50.703809754922986" lon="13.234801227226853">
        <ele>442</ele>
        <time>2026-08-29T10:21:08Z</time>
      </trkpt>
      <trkpt lat="50.703809838742018" lon="13.234801394864917">
        <ele>442</ele>
        <time>2026-08-29T10:21:09Z</time>
      </trkpt>
      <trkpt lat="50.703809838742018" lon="13.23480156250298">
        <ele>442</ele>
        <time>2026-08-29T10:21:10Z</time>
      </trkpt>
      <trkpt lat="50.703809922561049" lon="13.234801813960075">
        <ele>442</ele>
        <time>2026-08-29T10:21:11Z</time>
      </trkpt>
      <trkpt lat="50.703810006380081" lon="13.234802065417171">
        <ele>442</ele>
        <time>2026-08-29T10:21:12Z</time>
      </trkpt>
      <trkpt lat="50.703810006380081" lon="13.234802065417171">
        <ele>442</ele>
        <time>2026-08-29T10:21:13Z</time>
      </trkpt>
      <trkpt lat="50.703809922561049" lon="13.234801897779107">
        <ele>442</ele>
        <time>2026-08-29T10:21:14Z</time>
      </trkpt>
      <trkpt lat="50.703809922561049" lon="13.234802149236202">
        <ele>442</ele>
        <time>2026-08-29T10:21:15Z</time>
      </trkpt>
      <trkpt lat="50.703809252008796" lon="13.234796617180109">
        <ele>442</ele>
        <time>2026-08-29T10:21:16Z</time>
      </trkpt>
      <trkpt lat="50.703806318342686" lon="13.234789157286286">
        <ele>442</ele>
        <time>2026-08-29T10:21:17Z</time>
      </trkpt>
      <trkpt lat="50.703801037743688" lon="13.234778679907322">
        <ele>442</ele>
        <time>2026-08-29T10:21:18Z</time>
      </trkpt>
      <trkpt lat="50.703794248402119" lon="13.23476635850966">
        <ele>442</ele>
        <time>2026-08-29T10:21:19Z</time>
      </trkpt>
      <trkpt lat="50.703783771023154" lon="13.234746912494302">
        <ele>442</ele>
        <time>2026-08-29T10:21:20Z</time>
      </trkpt>
      <trkpt lat="50.703769437968731" lon="13.234715647995472">
        <ele>442</ele>
        <time>2026-08-29T10:21:21Z</time>
      </trkpt>
      <trkpt lat="50.703758541494608" lon="13.23467843234539">
        <ele>442</ele>
        <time>2026-08-29T10:21:22Z</time>
      </trkpt>
      <trkpt lat="50.703745968639851" lon="13.234639707952738">
        <ele>442</ele>
        <time>2026-08-29T10:21:23Z</time>
      </trkpt>
      <trkpt lat="50.703732138499618" lon="13.234588075429201">
        <ele>442</ele>
        <time>2026-08-29T10:21:24Z</time>
      </trkpt>
      <trkpt lat="50.703715961426497" lon="13.234536359086633">
        <ele>442</ele>
        <time>2026-08-29T10:21:25Z</time>
      </trkpt>
      <trkpt lat="50.703694922849536" lon="13.234483720734715">
        <ele>442</ele>
        <time>2026-08-29T10:21:26Z</time>
      </trkpt>
      <trkpt lat="50.70367556065321" lon="13.234425969421864">
        <ele>442</ele>
        <time>2026-08-29T10:21:27Z</time>
      </trkpt>
      <trkpt lat="50.703646894544363" lon="13.234356315806508">
        <ele>442</ele>
        <time>2026-08-29T10:21:28Z</time>
      </trkpt>
      <trkpt lat="50.703624514862895" lon="13.234297223389149">
        <ele>442</ele>
        <time>2026-08-29T10:21:29Z</time>
      </trkpt>
      <trkpt lat="50.703605571761727" lon="13.234241064637899">
        <ele>442</ele>
        <time>2026-08-29T10:21:30Z</time>
      </trkpt>
      <trkpt lat="50.703582437708974" lon="13.234182558953762">
        <ele>443</ele>
        <time>2026-08-29T10:21:31Z</time>
      </trkpt>
      <trkpt lat="50.70355586707592" lon="13.234106451272964">
        <ele>443</ele>
        <time>2026-08-29T10:21:32Z</time>
      </trkpt>
      <trkpt lat="50.703528709709644" lon="13.234046855941415">
        <ele>443</ele>
        <time>2026-08-29T10:21:33Z</time>
      </trkpt>
      <trkpt lat="50.70350456982851" lon="13.233986841514707">
        <ele>443</ele>
        <time>2026-08-29T10:21:34Z</time>
      </trkpt>
      <trkpt lat="50.703478753566742" lon="13.233929174020886">
        <ele>443</ele>
        <time>2026-08-29T10:21:35Z</time>
      </trkpt>
      <trkpt lat="50.703449752181768" lon="13.233873015269637">
        <ele>443</ele>
        <time>2026-08-29T10:21:36Z</time>
      </trkpt>
      <trkpt lat="50.703414296731353" lon="13.233820963650942">
        <ele>443</ele>
        <time>2026-08-29T10:21:37Z</time>
      </trkpt>
      <trkpt lat="50.703378422185779" lon="13.233764888718724">
        <ele>442</ele>
        <time>2026-08-29T10:21:38Z</time>
      </trkpt>
      <trkpt lat="50.70333844050765" lon="13.233718955889344">
        <ele>443</ele>
        <time>2026-08-29T10:21:39Z</time>
      </trkpt>
      <trkpt lat="50.703296111896634" lon="13.233675705268979">
        <ele>443</ele>
        <time>2026-08-29T10:21:40Z</time>
      </trkpt>
      <trkpt lat="50.703256884589791" lon="13.233641088008881">
        <ele>443</ele>
        <time>2026-08-29T10:21:41Z</time>
      </trkpt>
      <trkpt lat="50.703219752758741" lon="13.233599262312055">
        <ele>442</ele>
        <time>2026-08-29T10:21:42Z</time>
      </trkpt>
      <trkpt lat="50.70318547077477" lon="13.233550144359469">
        <ele>442</ele>
        <time>2026-08-29T10:21:43Z</time>
      </trkpt>
      <trkpt lat="50.703149260953069" lon="13.233508067205548">
        <ele>442</ele>
        <time>2026-08-29T10:21:44Z</time>
      </trkpt>
      <trkpt lat="50.703118667006493" lon="13.233455177396536">
        <ele>442</ele>
        <time>2026-08-29T10:21:45Z</time>
      </trkpt>
      <trkpt lat="50.703093186020851" lon="13.233401868492365">
        <ele>441</ele>
        <time>2026-08-29T10:21:46Z</time>
      </trkpt>
      <trkpt lat="50.703069884330034" lon="13.233349565416574">
        <ele>441</ele>
        <time>2026-08-29T10:21:47Z</time>
      </trkpt>
      <trkpt lat="50.70303937420249" lon="13.233304135501385">
        <ele>442</ele>
        <time>2026-08-29T10:21:48Z</time>
      </trkpt>
      <trkpt lat="50.703011630102992" lon="13.233251497149467">
        <ele>442</ele>
        <time>2026-08-29T10:21:49Z</time>
      </trkpt>
      <trkpt lat="50.702988160774112" lon="13.233195673674345">
        <ele>442</ele>
        <time>2026-08-29T10:21:50Z</time>
      </trkpt>
      <trkpt lat="50.702967457473278" lon="13.233130797743797">
        <ele>442</ele>
        <time>2026-08-29T10:21:51Z</time>
      </trkpt>
      <trkpt lat="50.702951531857252" lon="13.233069609850645">
        <ele>443</ele>
        <time>2026-08-29T10:21:52Z</time>
      </trkpt>
      <trkpt lat="50.702936109155416" lon="13.233015378937125">
        <ele>443</ele>
        <time>2026-08-29T10:21:53Z</time>
      </trkpt>
      <trkpt lat="50.702915070578456" lon="13.232964081689715">
        <ele>443</ele>
        <time>2026-08-29T10:21:54Z</time>
      </trkpt>
      <trkpt lat="50.702891768887639" lon="13.232922591269016">
        <ele>442</ele>
        <time>2026-08-29T10:21:55Z</time>
      </trkpt>
      <trkpt lat="50.702871149405837" lon="13.232872048392892">
        <ele>442</ele>
        <time>2026-08-29T10:21:56Z</time>
      </trkpt>
      <trkpt lat="50.702849859371781" lon="13.232822930440307">
        <ele>442</ele>
        <time>2026-08-29T10:21:57Z</time>
      </trkpt>
      <trkpt lat="50.70282488130033" lon="13.232773644849658">
        <ele>442</ele>
        <time>2026-08-29T10:21:58Z</time>
      </trkpt>
      <trkpt lat="50.702798645943403" lon="13.232727460563183">
        <ele>443</ele>
        <time>2026-08-29T10:21:59Z</time>
      </trkpt>
      <trkpt lat="50.702774003148079" lon="13.232677672058344">
        <ele>444</ele>
        <time>2026-08-29T10:22:00Z</time>
      </trkpt>
      <trkpt lat="50.702749695628881" lon="13.232618495821953">
        <ele>444</ele>
        <time>2026-08-29T10:22:01Z</time>
      </trkpt>
      <trkpt lat="50.70272765122354" lon="13.232566947117448">
        <ele>444</ele>
        <time>2026-08-29T10:22:02Z</time>
      </trkpt>
      <trkpt lat="50.702708624303341" lon="13.232515817508101">
        <ele>444</ele>
        <time>2026-08-29T10:22:03Z</time>
      </trkpt>
      <trkpt lat="50.70269295014441" lon="13.232470136135817">
        <ele>444</ele>
        <time>2026-08-29T10:22:04Z</time>
      </trkpt>
      <trkpt lat="50.70267484523356" lon="13.232425209134817">
        <ele>444</ele>
        <time>2026-08-29T10:22:05Z</time>
      </trkpt>
      <trkpt lat="50.702656069770455" lon="13.232381790876389">
        <ele>444</ele>
        <time>2026-08-29T10:22:06Z</time>
      </trkpt>
      <trkpt lat="50.70264064706862" lon="13.232336277142167">
        <ele>443</ele>
        <time>2026-08-29T10:22:07Z</time>
      </trkpt>
      <trkpt lat="50.702628158032894" lon="13.232293361797929">
        <ele>443</ele>
        <time>2026-08-29T10:22:08Z</time>
      </trkpt>
      <trkpt lat="50.702616591006517" lon="13.232258576899767">
        <ele>444</ele>
        <time>2026-08-29T10:22:09Z</time>
      </trkpt>
      <trkpt lat="50.70260988548398" lon="13.232227815315127">
        <ele>444</ele>
        <time>2026-08-29T10:22:10Z</time>
      </trkpt>
      <trkpt lat="50.702605107799172" lon="13.232206609100103">
        <ele>444</ele>
        <time>2026-08-29T10:22:11Z</time>
      </trkpt>
      <trkpt lat="50.702604772523046" lon="13.232203088700771">
        <ele>444</ele>
        <time>2026-08-29T10:22:12Z</time>
      </trkpt>
      <trkpt lat="50.702601419761777" lon="13.232206190004945">
        <ele>444</ele>
        <time>2026-08-29T10:22:13Z</time>
      </trkpt>
      <trkpt lat="50.702603599056602" lon="13.232207866385579">
        <ele>443</ele>
        <time>2026-08-29T10:22:14Z</time>
      </trkpt>
      <trkpt lat="50.702603682875633" lon="13.232207698747516">
        <ele>443</ele>
        <time>2026-08-29T10:22:15Z</time>
      </trkpt>
      <trkpt lat="50.702603850513697" lon="13.232207698747516">
        <ele>443</ele>
        <time>2026-08-29T10:22:16Z</time>
      </trkpt>
      <trkpt lat="50.70260401815176" lon="13.232207782566547">
        <ele>443</ele>
        <time>2026-08-29T10:22:17Z</time>
      </trkpt>
      <trkpt lat="50.702604185789824" lon="13.232208117842674">
        <ele>443</ele>
        <time>2026-08-29T10:22:18Z</time>
      </trkpt>
      <trkpt lat="50.702604269608855" lon="13.232207950204611">
        <ele>443</ele>
        <time>2026-08-29T10:22:19Z</time>
      </trkpt>
      <trkpt lat="50.702608460560441" lon="13.232206357643008">
        <ele>444</ele>
        <time>2026-08-29T10:22:20Z</time>
      </trkpt>
      <trkpt lat="50.702608544379473" lon="13.232206525281072">
        <ele>444</ele>
        <time>2026-08-29T10:22:21Z</time>
      </trkpt>
      <trkpt lat="50.702608628198504" lon="13.23220644146204">
        <ele>444</ele>
        <time>2026-08-29T10:22:22Z</time>
      </trkpt>
      <trkpt lat="50.702608628198504" lon="13.232206106185913">
        <ele>444</ele>
        <time>2026-08-29T10:22:23Z</time>
      </trkpt>
      <trkpt lat="50.702608544379473" lon="13.232206022366881">
        <ele>444</ele>
        <time>2026-08-29T10:22:24Z</time>
      </trkpt>
      <trkpt lat="50.702608628198504" lon="13.232206190004945">
        <ele>444</ele>
        <time>2026-08-29T10:22:25Z</time>
      </trkpt>
      <trkpt lat="50.702608628198504" lon="13.232206190004945">
        <ele>444</ele>
        <time>2026-08-29T10:22:26Z</time>
      </trkpt>
      <trkpt lat="50.702608376741409" lon="13.232206022366881">
        <ele>444</ele>
        <time>2026-08-29T10:22:27Z</time>
      </trkpt>
      <trkpt lat="50.702608292922378" lon="13.232206022366881">
        <ele>444</ele>
        <time>2026-08-29T10:22:28Z</time>
      </trkpt>
      <trkpt lat="50.702608292922378" lon="13.232206022366881">
        <ele>444</ele>
        <time>2026-08-29T10:22:29Z</time>
      </trkpt>
      <trkpt lat="50.702608292922378" lon="13.232205854728818">
        <ele>444</ele>
        <time>2026-08-29T10:22:30Z</time>
      </trkpt>
      <trkpt lat="50.702610807493329" lon="13.232204597443342">
        <ele>443</ele>
        <time>2026-08-29T10:22:31Z</time>
      </trkpt>
      <trkpt lat="50.702610807493329" lon="13.232204597443342">
        <ele>443</ele>
        <time>2026-08-29T10:22:32Z</time>
      </trkpt>
      <trkpt lat="50.702610891312361" lon="13.232204681262374">
        <ele>443</ele>
        <time>2026-08-29T10:22:33Z</time>
      </trkpt>
      <trkpt lat="50.702611058950424" lon="13.232204765081406">
        <ele>443</ele>
        <time>2026-08-29T10:22:34Z</time>
      </trkpt>
      <trkpt lat="50.702611226588488" lon="13.232204765081406">
        <ele>443</ele>
        <time>2026-08-29T10:22:35Z</time>
      </trkpt>
      <trkpt lat="50.702611310407519" lon="13.232204681262374">
        <ele>443</ele>
        <time>2026-08-29T10:22:36Z</time>
      </trkpt>
      <trkpt lat="50.702611310407519" lon="13.232204681262374">
        <ele>443</ele>
        <time>2026-08-29T10:22:37Z</time>
      </trkpt>
      <trkpt lat="50.702611394226551" lon="13.232204681262374">
        <ele>443</ele>
        <time>2026-08-29T10:22:38Z</time>
      </trkpt>
      <trkpt lat="50.702611310407519" lon="13.232204681262374">
        <ele>443</ele>
        <time>2026-08-29T10:22:39Z</time>
      </trkpt>
      <trkpt lat="50.702611310407519" lon="13.23220451362431">
        <ele>443</ele>
        <time>2026-08-29T10:22:40Z</time>
      </trkpt>
      <trkpt lat="50.702611394226551" lon="13.23220451362431">
        <ele>443</ele>
        <time>2026-08-29T10:22:41Z</time>
      </trkpt>
      <trkpt lat="50.702611478045583" lon="13.232204681262374">
        <ele>443</ele>
        <time>2026-08-29T10:22:42Z</time>
      </trkpt>
      <trkpt lat="50.702611561864614" lon="13.232204597443342">
        <ele>443</ele>
        <time>2026-08-29T10:22:43Z</time>
      </trkpt>
      <trkpt lat="50.702611729502678" lon="13.232204848900437">
        <ele>443</ele>
        <time>2026-08-29T10:22:44Z</time>
      </trkpt>
      <trkpt lat="50.702612902969122" lon="13.232203423976898">
        <ele>443</ele>
        <time>2026-08-29T10:22:45Z</time>
      </trkpt>
      <trkpt lat="50.702613741159439" lon="13.232203423976898">
        <ele>443</ele>
        <time>2026-08-29T10:22:46Z</time>
      </trkpt>
      <trkpt lat="50.702615333721042" lon="13.232202837243676">
        <ele>442</ele>
        <time>2026-08-29T10:22:47Z</time>
      </trkpt>
      <trkpt lat="50.702618770301342" lon="13.232209626585245">
        <ele>442</ele>
        <time>2026-08-29T10:22:48Z</time>
      </trkpt>
      <trkpt lat="50.702618770301342" lon="13.232209794223309">
        <ele>442</ele>
        <time>2026-08-29T10:22:49Z</time>
      </trkpt>
      <trkpt lat="50.702622458338737" lon="13.232204848900437">
        <ele>442</ele>
        <time>2026-08-29T10:22:50Z</time>
      </trkpt>
      <trkpt lat="50.702622039243579" lon="13.232203926891088">
        <ele>442</ele>
        <time>2026-08-29T10:22:51Z</time>
      </trkpt>
      <trkpt lat="50.702622877433896" lon="13.232208201661706">
        <ele>441</ele>
        <time>2026-08-29T10:22:52Z</time>
      </trkpt>
      <trkpt lat="50.702623212710023" lon="13.232205435633659">
        <ele>442</ele>
        <time>2026-08-29T10:22:53Z</time>
      </trkpt>
      <trkpt lat="50.702623128890991" lon="13.232205351814628">
        <ele>442</ele>
        <time>2026-08-29T10:22:54Z</time>
      </trkpt>
      <trkpt lat="50.70262405090034" lon="13.232206022366881">
        <ele>442</ele>
        <time>2026-08-29T10:22:55Z</time>
      </trkpt>
      <trkpt lat="50.702624805271626" lon="13.232204178348184">
        <ele>442</ele>
        <time>2026-08-29T10:22:56Z</time>
      </trkpt>
      <trkpt lat="50.702624889090657" lon="13.232204094529152">
        <ele>442</ele>
        <time>2026-08-29T10:22:57Z</time>
      </trkpt>
      <trkpt lat="50.702624721452594" lon="13.232204094529152">
        <ele>442</ele>
        <time>2026-08-29T10:22:58Z</time>
      </trkpt>
      <trkpt lat="50.702624721452594" lon="13.232204094529152">
        <ele>442</ele>
        <time>2026-08-29T10:22:59Z</time>
      </trkpt>
      <trkpt lat="50.702624637633562" lon="13.232204262167215">
        <ele>442</ele>
        <time>2026-08-29T10:23:00Z</time>
      </trkpt>
      <trkpt lat="50.70262455381453" lon="13.232203843072057">
        <ele>442</ele>
        <time>2026-08-29T10:23:01Z</time>
      </trkpt>
      <trkpt lat="50.702624469995499" lon="13.232203675433993">
        <ele>442</ele>
        <time>2026-08-29T10:23:02Z</time>
      </trkpt>
      <trkpt lat="50.702624469995499" lon="13.232203591614962">
        <ele>442</ele>
        <time>2026-08-29T10:23:03Z</time>
      </trkpt>
      <trkpt lat="50.702624302357435" lon="13.232203340157866">
        <ele>442</ele>
        <time>2026-08-29T10:23:04Z</time>
      </trkpt>
      <trkpt lat="50.702624469995499" lon="13.232203340157866">
        <ele>442</ele>
        <time>2026-08-29T10:23:05Z</time>
      </trkpt>
      <trkpt lat="50.702624469995499" lon="13.232203256338835">
        <ele>442</ele>
        <time>2026-08-29T10:23:06Z</time>
      </trkpt>
      <trkpt lat="50.702624469995499" lon="13.23220300488174">
        <ele>442</ele>
        <time>2026-08-29T10:23:07Z</time>
      </trkpt>
      <trkpt lat="50.702624218538404" lon="13.232202753424644">
        <ele>442</ele>
        <time>2026-08-29T10:23:08Z</time>
      </trkpt>
      <trkpt lat="50.70262405090034" lon="13.232202585786581">
        <ele>442</ele>
        <time>2026-08-29T10:23:09Z</time>
      </trkpt>
      <trkpt lat="50.702623799443245" lon="13.232202501967549">
        <ele>442</ele>
        <time>2026-08-29T10:23:10Z</time>
      </trkpt>
      <trkpt lat="50.702623631805182" lon="13.232202166691422">
        <ele>442</ele>
        <time>2026-08-29T10:23:11Z</time>
      </trkpt>
      <trkpt lat="50.702623380348086" lon="13.232202082872391">
        <ele>442</ele>
        <time>2026-08-29T10:23:12Z</time>
      </trkpt>
      <trkpt lat="50.702623296529055" lon="13.232202082872391">
        <ele>442</ele>
        <time>2026-08-29T10:23:13Z</time>
      </trkpt>
      <trkpt lat="50.702623212710023" lon="13.232202166691422">
        <ele>442</ele>
        <time>2026-08-29T10:23:14Z</time>
      </trkpt>
      <trkpt lat="50.702623212710023" lon="13.232202250510454">
        <ele>442</ele>
        <time>2026-08-29T10:23:15Z</time>
      </trkpt>
      <trkpt lat="50.702623380348086" lon="13.232202250510454">
        <ele>442</ele>
        <time>2026-08-29T10:23:16Z</time>
      </trkpt>
      <trkpt lat="50.702623296529055" lon="13.232202082872391">
        <ele>442</ele>
        <time>2026-08-29T10:23:17Z</time>
      </trkpt>
      <trkpt lat="50.702623296529055" lon="13.232202082872391">
        <ele>442</ele>
        <time>2026-08-29T10:23:18Z</time>
      </trkpt>
      <trkpt lat="50.702623380348086" lon="13.232202166691422">
        <ele>442</ele>
        <time>2026-08-29T10:23:19Z</time>
      </trkpt>
      <trkpt lat="50.702623380348086" lon="13.232202334329486">
        <ele>442</ele>
        <time>2026-08-29T10:23:20Z</time>
      </trkpt>
      <trkpt lat="50.702623380348086" lon="13.232202334329486">
        <ele>442</ele>
        <time>2026-08-29T10:23:21Z</time>
      </trkpt>
      <trkpt lat="50.70262354798615" lon="13.232202501967549">
        <ele>442</ele>
        <time>2026-08-29T10:23:22Z</time>
      </trkpt>
      <trkpt lat="50.702623464167118" lon="13.232202669605613">
        <ele>442</ele>
        <time>2026-08-29T10:23:23Z</time>
      </trkpt>
      <trkpt lat="50.702623296529055" lon="13.232202501967549">
        <ele>441</ele>
        <time>2026-08-29T10:23:24Z</time>
      </trkpt>
      <trkpt lat="50.702623212710023" lon="13.232202585786581">
        <ele>441</ele>
        <time>2026-08-29T10:23:25Z</time>
      </trkpt>
      <trkpt lat="50.702623212710023" lon="13.232202585786581">
        <ele>441</ele>
        <time>2026-08-29T10:23:26Z</time>
      </trkpt>
      <trkpt lat="50.702623380348086" lon="13.232202837243676">
        <ele>441</ele>
        <time>2026-08-29T10:23:27Z</time>
      </trkpt>
      <trkpt lat="50.702623128890991" lon="13.232202837243676">
        <ele>441</ele>
        <time>2026-08-29T10:23:28Z</time>
      </trkpt>
      <trkpt lat="50.702623212710023" lon="13.232202753424644">
        <ele>442</ele>
        <time>2026-08-29T10:23:29Z</time>
      </trkpt>
      <trkpt lat="50.702623212710023" lon="13.232202837243676">
        <ele>442</ele>
        <time>2026-08-29T10:23:30Z</time>
      </trkpt>
      <trkpt lat="50.702623296529055" lon="13.23220300488174">
        <ele>442</ele>
        <time>2026-08-29T10:23:31Z</time>
      </trkpt>
      <trkpt lat="50.702620362862945" lon="13.232204681262374">
        <ele>442</ele>
        <time>2026-08-29T10:23:32Z</time>
      </trkpt>
      <trkpt lat="50.702620111405849" lon="13.232204345986247">
        <ele>442</ele>
        <time>2026-08-29T10:23:33Z</time>
      </trkpt>
      <trkpt lat="50.702619859948754" lon="13.232204094529152">
        <ele>442</ele>
        <time>2026-08-29T10:23:34Z</time>
      </trkpt>
      <trkpt lat="50.702619943767786" lon="13.232203926891088">
        <ele>442</ele>
        <time>2026-08-29T10:23:35Z</time>
      </trkpt>
      <trkpt lat="50.702619859948754" lon="13.232203926891088">
        <ele>442</ele>
        <time>2026-08-29T10:23:36Z</time>
      </trkpt>
      <trkpt lat="50.702619943767786" lon="13.23220401071012">
        <ele>442</ele>
        <time>2026-08-29T10:23:37Z</time>
      </trkpt>
      <trkpt lat="50.702619859948754" lon="13.232203843072057">
        <ele>442</ele>
        <time>2026-08-29T10:23:38Z</time>
      </trkpt>
      <trkpt lat="50.702620027586818" lon="13.232203675433993">
        <ele>442</ele>
        <time>2026-08-29T10:23:39Z</time>
      </trkpt>
      <trkpt lat="50.702620027586818" lon="13.232203591614962">
        <ele>442</ele>
        <time>2026-08-29T10:23:40Z</time>
      </trkpt>
      <trkpt lat="50.702620111405849" lon="13.232203591614962">
        <ele>442</ele>
        <time>2026-08-29T10:23:41Z</time>
      </trkpt>
      <trkpt lat="50.702620111405849" lon="13.232203675433993">
        <ele>442</ele>
        <time>2026-08-29T10:23:42Z</time>
      </trkpt>
      <trkpt lat="50.702620195224881" lon="13.23220401071012">
        <ele>442</ele>
        <time>2026-08-29T10:23:43Z</time>
      </trkpt>
      <trkpt lat="50.702620111405849" lon="13.23220401071012">
        <ele>442</ele>
        <time>2026-08-29T10:23:44Z</time>
      </trkpt>
      <trkpt lat="50.702620111405849" lon="13.232204178348184">
        <ele>442</ele>
        <time>2026-08-29T10:23:45Z</time>
      </trkpt>
      <trkpt lat="50.702620111405849" lon="13.23220401071012">
        <ele>442</ele>
        <time>2026-08-29T10:23:46Z</time>
      </trkpt>
      <trkpt lat="50.702620111405849" lon="13.232203675433993">
        <ele>442</ele>
        <time>2026-08-29T10:23:47Z</time>
      </trkpt>
      <trkpt lat="50.702620027586818" lon="13.232203423976898">
        <ele>442</ele>
        <time>2026-08-29T10:23:48Z</time>
      </trkpt>
      <trkpt lat="50.702619943767786" lon="13.232203591614962">
        <ele>442</ele>
        <time>2026-08-29T10:23:49Z</time>
      </trkpt>
      <trkpt lat="50.702619859948754" lon="13.232203340157866">
        <ele>442</ele>
        <time>2026-08-29T10:23:50Z</time>
      </trkpt>
      <trkpt lat="50.702619776129723" lon="13.232202837243676">
        <ele>442</ele>
        <time>2026-08-29T10:23:51Z</time>
      </trkpt>
      <trkpt lat="50.702619692310691" lon="13.232202753424644">
        <ele>442</ele>
        <time>2026-08-29T10:23:52Z</time>
      </trkpt>
      <trkpt lat="50.702619608491659" lon="13.232202501967549">
        <ele>442</ele>
        <time>2026-08-29T10:23:53Z</time>
      </trkpt>
      <trkpt lat="50.702619608491659" lon="13.232202501967549">
        <ele>442</ele>
        <time>2026-08-29T10:23:54Z</time>
      </trkpt>
      <trkpt lat="50.702619440853596" lon="13.232202334329486">
        <ele>442</ele>
        <time>2026-08-29T10:23:55Z</time>
      </trkpt>
      <trkpt lat="50.702619357034564" lon="13.232202250510454">
        <ele>442</ele>
        <time>2026-08-29T10:23:56Z</time>
      </trkpt>
      <trkpt lat="50.702619189396501" lon="13.232202334329486">
        <ele>442</ele>
        <time>2026-08-29T10:23:57Z</time>
      </trkpt>
      <trkpt lat="50.702619105577469" lon="13.232202334329486">
        <ele>442</ele>
        <time>2026-08-29T10:23:58Z</time>
      </trkpt>
      <trkpt lat="50.702619021758437" lon="13.232202334329486">
        <ele>442</ele>
        <time>2026-08-29T10:23:59Z</time>
      </trkpt>
      <trkpt lat="50.702619021758437" lon="13.232202334329486">
        <ele>442</ele>
        <time>2026-08-29T10:24:00Z</time>
      </trkpt>
      <trkpt lat="50.702618770301342" lon="13.232202585786581">
        <ele>442</ele>
        <time>2026-08-29T10:24:01Z</time>
      </trkpt>
      <trkpt lat="50.702618602663279" lon="13.232202166691422">
        <ele>442</ele>
        <time>2026-08-29T10:24:02Z</time>
      </trkpt>
      <trkpt lat="50.702618602663279" lon="13.232201915234327">
        <ele>442</ele>
        <time>2026-08-29T10:24:03Z</time>
      </trkpt>
      <trkpt lat="50.70261868648231" lon="13.232202166691422">
        <ele>442</ele>
        <time>2026-08-29T10:24:04Z</time>
      </trkpt>
      <trkpt lat="50.702618770301342" lon="13.232202418148518">
        <ele>442</ele>
        <time>2026-08-29T10:24:05Z</time>
      </trkpt>
      <trkpt lat="50.702618602663279" lon="13.232202082872391">
        <ele>442</ele>
        <time>2026-08-29T10:24:06Z</time>
      </trkpt>
      <trkpt lat="50.702618435025215" lon="13.232202082872391">
        <ele>442</ele>
        <time>2026-08-29T10:24:07Z</time>
      </trkpt>
      <trkpt lat="50.702618351206183" lon="13.232201999053359">
        <ele>442</ele>
        <time>2026-08-29T10:24:08Z</time>
      </trkpt>
      <trkpt lat="50.70261818356812" lon="13.232202334329486">
        <ele>442</ele>
        <time>2026-08-29T10:24:09Z</time>
      </trkpt>
      <trkpt lat="50.702618099749088" lon="13.232202334329486">
        <ele>442</ele>
        <time>2026-08-29T10:24:10Z</time>
      </trkpt>
      <trkpt lat="50.702617932111025" lon="13.232202418148518">
        <ele>442</ele>
        <time>2026-08-29T10:24:11Z</time>
      </trkpt>
      <trkpt lat="50.702617848291993" lon="13.232202418148518">
        <ele>442</ele>
        <time>2026-08-29T10:24:12Z</time>
      </trkpt>
      <trkpt lat="50.702617764472961" lon="13.232202585786581">
        <ele>442</ele>
        <time>2026-08-29T10:24:13Z</time>
      </trkpt>
      <trkpt lat="50.70261768065393" lon="13.232202753424644">
        <ele>442</ele>
        <time>2026-08-29T10:24:14Z</time>
      </trkpt>
      <trkpt lat="50.70261768065393" lon="13.232203088700771">
        <ele>442</ele>
        <time>2026-08-29T10:24:15Z</time>
      </trkpt>
      <trkpt lat="50.702617513015866" lon="13.232203340157866">
        <ele>442</ele>
        <time>2026-08-29T10:24:16Z</time>
      </trkpt>
      <trkpt lat="50.702617429196835" lon="13.23220350779593">
        <ele>442</ele>
        <time>2026-08-29T10:24:17Z</time>
      </trkpt>
      <trkpt lat="50.702617177739739" lon="13.232203340157866">
        <ele>442</ele>
        <time>2026-08-29T10:24:18Z</time>
      </trkpt>
      <trkpt lat="50.702617010101676" lon="13.232203340157866">
        <ele>442</ele>
        <time>2026-08-29T10:24:19Z</time>
      </trkpt>
      <trkpt lat="50.702616758644581" lon="13.232203256338835">
        <ele>442</ele>
        <time>2026-08-29T10:24:20Z</time>
      </trkpt>
      <trkpt lat="50.702616591006517" lon="13.232203256338835">
        <ele>442</ele>
        <time>2026-08-29T10:24:21Z</time>
      </trkpt>
      <trkpt lat="50.702616339549422" lon="13.232203675433993">
        <ele>442</ele>
        <time>2026-08-29T10:24:22Z</time>
      </trkpt>
      <trkpt lat="50.702616088092327" lon="13.232203926891088">
        <ele>442</ele>
        <time>2026-08-29T10:24:23Z</time>
      </trkpt>
      <trkpt lat="50.702615920454264" lon="13.232204262167215">
        <ele>442</ele>
        <time>2026-08-29T10:24:24Z</time>
      </trkpt>
      <trkpt lat="50.702615668997169" lon="13.23220451362431">
        <ele>442</ele>
        <time>2026-08-29T10:24:25Z</time>
      </trkpt>
      <trkpt lat="50.702615501359105" lon="13.232205016538501">
        <ele>442</ele>
        <time>2026-08-29T10:24:26Z</time>
      </trkpt>
      <trkpt lat="50.70261524990201" lon="13.232205435633659">
        <ele>442</ele>
        <time>2026-08-29T10:24:27Z</time>
      </trkpt>
      <trkpt lat="50.702615082263947" lon="13.232205854728818">
        <ele>442</ele>
        <time>2026-08-29T10:24:28Z</time>
      </trkpt>
      <trkpt lat="50.70261524990201" lon="13.232205687090755">
        <ele>442</ele>
        <time>2026-08-29T10:24:29Z</time>
      </trkpt>
      <trkpt lat="50.702614830806851" lon="13.232206190004945">
        <ele>442</ele>
        <time>2026-08-29T10:24:30Z</time>
      </trkpt>
      <trkpt lat="50.70261474698782" lon="13.232206525281072">
        <ele>442</ele>
        <time>2026-08-29T10:24:31Z</time>
      </trkpt>
      <trkpt lat="50.702614579349756" lon="13.232206609100103">
        <ele>442</ele>
        <time>2026-08-29T10:24:32Z</time>
      </trkpt>
      <trkpt lat="50.702614327892661" lon="13.232206860557199">
        <ele>442</ele>
        <time>2026-08-29T10:24:33Z</time>
      </trkpt>
      <trkpt lat="50.702614327892661" lon="13.232207363471389">
        <ele>442</ele>
        <time>2026-08-29T10:24:34Z</time>
      </trkpt>
      <trkpt lat="50.702614160254598" lon="13.232207447290421">
        <ele>442</ele>
        <time>2026-08-29T10:24:35Z</time>
      </trkpt>
      <trkpt lat="50.702614160254598" lon="13.232207195833325">
        <ele>442</ele>
        <time>2026-08-29T10:24:36Z</time>
      </trkpt>
      <trkpt lat="50.702613992616534" lon="13.232207447290421">
        <ele>442</ele>
        <time>2026-08-29T10:24:37Z</time>
      </trkpt>
      <trkpt lat="50.702614076435566" lon="13.232207614928484">
        <ele>442</ele>
        <time>2026-08-29T10:24:38Z</time>
      </trkpt>
      <trkpt lat="50.702614160254598" lon="13.232207614928484">
        <ele>442</ele>
        <time>2026-08-29T10:24:39Z</time>
      </trkpt>
      <trkpt lat="50.702614327892661" lon="13.232207614928484">
        <ele>442</ele>
        <time>2026-08-29T10:24:40Z</time>
      </trkpt>
      <trkpt lat="50.702614160254598" lon="13.232207782566547">
        <ele>442</ele>
        <time>2026-08-29T10:24:41Z</time>
      </trkpt>
      <trkpt lat="50.702614160254598" lon="13.232207866385579">
        <ele>442</ele>
        <time>2026-08-29T10:24:42Z</time>
      </trkpt>
      <trkpt lat="50.702614076435566" lon="13.232208117842674">
        <ele>442</ele>
        <time>2026-08-29T10:24:43Z</time>
      </trkpt>
      <trkpt lat="50.702614160254598" lon="13.232208117842674">
        <ele>442</ele>
        <time>2026-08-29T10:24:44Z</time>
      </trkpt>
      <trkpt lat="50.702614076435566" lon="13.232208285480738">
        <ele>442</ele>
        <time>2026-08-29T10:24:45Z</time>
      </trkpt>
      <trkpt lat="50.702614076435566" lon="13.232208369299769">
        <ele>442</ele>
        <time>2026-08-29T10:24:46Z</time>
      </trkpt>
      <trkpt lat="50.702614160254598" lon="13.232208285480738">
        <ele>442</ele>
        <time>2026-08-29T10:24:47Z</time>
      </trkpt>
      <trkpt lat="50.702614411711693" lon="13.232208704575896">
        <ele>442</ele>
        <time>2026-08-29T10:24:48Z</time>
      </trkpt>
      <trkpt lat="50.702614411711693" lon="13.232208956032991">
        <ele>442</ele>
        <time>2026-08-29T10:24:49Z</time>
      </trkpt>
      <trkpt lat="50.70261474698782" lon="13.232207950204611">
        <ele>442</ele>
        <time>2026-08-29T10:24:50Z</time>
      </trkpt>
      <trkpt lat="50.70261474698782" lon="13.232207782566547">
        <ele>442</ele>
        <time>2026-08-29T10:24:51Z</time>
      </trkpt>
      <trkpt lat="50.70261474698782" lon="13.232207866385579">
        <ele>442</ele>
        <time>2026-08-29T10:24:52Z</time>
      </trkpt>
      <trkpt lat="50.702614663168788" lon="13.232207950204611">
        <ele>442</ele>
        <time>2026-08-29T10:24:53Z</time>
      </trkpt>
      <trkpt lat="50.70261524990201" lon="13.232211470603943">
        <ele>442</ele>
        <time>2026-08-29T10:24:54Z</time>
      </trkpt>
      <trkpt lat="50.702612902969122" lon="13.232205603271723">
        <ele>442</ele>
        <time>2026-08-29T10:24:55Z</time>
      </trkpt>
      <trkpt lat="50.70260594598949" lon="13.232194036245346">
        <ele>441</ele>
        <time>2026-08-29T10:24:56Z</time>
      </trkpt>
      <trkpt lat="50.702602341771126" lon="13.232178781181574">
        <ele>441</ele>
        <time>2026-08-29T10:24:57Z</time>
      </trkpt>
      <trkpt lat="50.702602928504348" lon="13.232161263003945">
        <ele>441</ele>
        <time>2026-08-29T10:24:58Z</time>
      </trkpt>
      <trkpt lat="50.702599240466952" lon="13.23213410563767">
        <ele>440</ele>
        <time>2026-08-29T10:24:59Z</time>
      </trkpt>
      <trkpt lat="50.702599156647921" lon="13.232113486155868">
        <ele>441</ele>
        <time>2026-08-29T10:25:00Z</time>
      </trkpt>
      <trkpt lat="50.702600078657269" lon="13.232089849188924">
        <ele>441</ele>
        <time>2026-08-29T10:25:01Z</time>
      </trkpt>
      <trkpt lat="50.702604269608855" lon="13.232075348496437">
        <ele>440</ele>
        <time>2026-08-29T10:25:02Z</time>
      </trkpt>
      <trkpt lat="50.702616339549422" lon="13.232059255242348">
        <ele>441</ele>
        <time>2026-08-29T10:25:03Z</time>
      </trkpt>
      <trkpt lat="50.702624637633562" lon="13.232053304091096">
        <ele>441</ele>
        <time>2026-08-29T10:25:04Z</time>
      </trkpt>
      <trkpt lat="50.702633941546082" lon="13.232050789520144">
        <ele>440</ele>
        <time>2026-08-29T10:25:05Z</time>
      </trkpt>
      <trkpt lat="50.702641736716032" lon="13.23205254971981">
        <ele>440</ele>
        <time>2026-08-29T10:25:06Z</time>
      </trkpt>
      <trkpt lat="50.702642071992159" lon="13.232048358768225">
        <ele>441</ele>
        <time>2026-08-29T10:25:07Z</time>
      </trkpt>
      <trkpt lat="50.70265187881887" lon="13.232034277170897">
        <ele>440</ele>
        <time>2026-08-29T10:25:08Z</time>
      </trkpt>
      <trkpt lat="50.702660009264946" lon="13.232030924409628">
        <ele>440</ele>
        <time>2026-08-29T10:25:09Z</time>
      </trkpt>
      <trkpt lat="50.702667133882642" lon="13.232025895267725">
        <ele>440</ele>
        <time>2026-08-29T10:25:10Z</time>
      </trkpt>
      <trkpt lat="50.702679120004177" lon="13.232016507536173">
        <ele>440</ele>
        <time>2026-08-29T10:25:11Z</time>
      </trkpt>
      <trkpt lat="50.70269487798214" lon="13.232011646032333">
        <ele>440</ele>
        <time>2026-08-29T10:25:12Z</time>
      </trkpt>
      <trkpt lat="50.702711809426546" lon="13.232009969651699">
        <ele>441</ele>
        <time>2026-08-29T10:25:13Z</time>
      </trkpt>
      <trkpt lat="50.702724130824208" lon="13.232002509757876">
        <ele>442</ele>
        <time>2026-08-29T10:25:14Z</time>
      </trkpt>
      <trkpt lat="50.702733099460602" lon="13.231988428160548">
        <ele>442</ele>
        <time>2026-08-29T10:25:15Z</time>
      </trkpt>
      <trkpt lat="50.702743157744408" lon="13.231989685446024">
        <ele>442</ele>
        <time>2026-08-29T10:25:16Z</time>
      </trkpt>
      <trkpt lat="50.70275011472404" lon="13.231987673789263">
        <ele>442</ele>
        <time>2026-08-29T10:25:17Z</time>
      </trkpt>
      <trkpt lat="50.702753299847245" lon="13.231987338513136">
        <ele>441</ele>
        <time>2026-08-29T10:25:18Z</time>
      </trkpt>
      <trkpt lat="50.70275790989399" lon="13.231986919417977">
        <ele>441</ele>
        <time>2026-08-29T10:25:19Z</time>
      </trkpt>
      <trkpt lat="50.702761933207512" lon="13.231988260522485">
        <ele>441</ele>
        <time>2026-08-29T10:25:20Z</time>
      </trkpt>
      <trkpt lat="50.702762017026544" lon="13.231988176703453">
        <ele>441</ele>
        <time>2026-08-29T10:25:21Z</time>
      </trkpt>
      <trkpt lat="50.702762017026544" lon="13.231988344341516">
        <ele>441</ele>
        <time>2026-08-29T10:25:22Z</time>
      </trkpt>
      <trkpt lat="50.702761933207512" lon="13.231988595798612">
        <ele>441</ele>
        <time>2026-08-29T10:25:23Z</time>
      </trkpt>
      <trkpt lat="50.702762100845575" lon="13.231988595798612">
        <ele>441</ele>
        <time>2026-08-29T10:25:24Z</time>
      </trkpt>
      <trkpt lat="50.702763358131051" lon="13.231986500322819">
        <ele>441</ele>
        <time>2026-08-29T10:25:25Z</time>
      </trkpt>
      <trkpt lat="50.702764028683305" lon="13.231988847255707">
        <ele>441</ele>
        <time>2026-08-29T10:25:26Z</time>
      </trkpt>
      <trkpt lat="50.702766040340066" lon="13.231989769265056">
        <ele>442</ele>
        <time>2026-08-29T10:25:27Z</time>
      </trkpt>
      <trkpt lat="50.702766040340066" lon="13.231989769265056">
        <ele>442</ele>
        <time>2026-08-29T10:25:28Z</time>
      </trkpt>
      <trkpt lat="50.702766040340066" lon="13.231989769265056">
        <ele>442</ele>
        <time>2026-08-29T10:25:29Z</time>
      </trkpt>
      <trkpt lat="50.702766040340066" lon="13.231989350169897">
        <ele>441</ele>
        <time>2026-08-29T10:25:30Z</time>
      </trkpt>
      <trkpt lat="50.702766040340066" lon="13.231988847255707">
        <ele>441</ele>
        <time>2026-08-29T10:25:31Z</time>
      </trkpt>
      <trkpt lat="50.702766040340066" lon="13.231988679617643">
        <ele>441</ele>
        <time>2026-08-29T10:25:32Z</time>
      </trkpt>
      <trkpt lat="50.702766040340066" lon="13.231988763436675">
        <ele>441</ele>
        <time>2026-08-29T10:25:33Z</time>
      </trkpt>
      <trkpt lat="50.702766124159098" lon="13.231988763436675">
        <ele>441</ele>
        <time>2026-08-29T10:25:34Z</time>
      </trkpt>
      <trkpt lat="50.702766291797161" lon="13.231988847255707">
        <ele>441</ele>
        <time>2026-08-29T10:25:35Z</time>
      </trkpt>
      <trkpt lat="50.702766291797161" lon="13.231988763436675">
        <ele>441</ele>
        <time>2026-08-29T10:25:36Z</time>
      </trkpt>
      <trkpt lat="50.702766291797161" lon="13.231988595798612">
        <ele>441</ele>
        <time>2026-08-29T10:25:37Z</time>
      </trkpt>
      <trkpt lat="50.702766291797161" lon="13.23198851197958">
        <ele>442</ele>
        <time>2026-08-29T10:25:38Z</time>
      </trkpt>
      <trkpt lat="50.702766291797161" lon="13.231988428160548">
        <ele>442</ele>
        <time>2026-08-29T10:25:39Z</time>
      </trkpt>
      <trkpt lat="50.702766627073288" lon="13.231989266350865">
        <ele>442</ele>
        <time>2026-08-29T10:25:40Z</time>
      </trkpt>
      <trkpt lat="50.70276671089232" lon="13.231989517807961">
        <ele>442</ele>
        <time>2026-08-29T10:25:41Z</time>
      </trkpt>
      <trkpt lat="50.702766040340066" lon="13.231987003237009">
        <ele>442</ele>
        <time>2026-08-29T10:25:42Z</time>
      </trkpt>
      <trkpt lat="50.702767297625542" lon="13.23198557831347">
        <ele>441</ele>
        <time>2026-08-29T10:25:43Z</time>
      </trkpt>
      <trkpt lat="50.702765788882971" lon="13.231990188360214">
        <ele>441</ele>
        <time>2026-08-29T10:25:44Z</time>
      </trkpt>
      <trkpt lat="50.702772829681635" lon="13.231994127854705">
        <ele>441</ele>
        <time>2026-08-29T10:25:45Z</time>
      </trkpt>
      <trkpt lat="50.702771991491318" lon="13.231993960216641">
        <ele>442</ele>
        <time>2026-08-29T10:25:46Z</time>
      </trkpt>
      <trkpt lat="50.702772159129381" lon="13.231993708759546">
        <ele>442</ele>
        <time>2026-08-29T10:25:47Z</time>
      </trkpt>
      <trkpt lat="50.702771237120032" lon="13.231993792578578">
        <ele>442</ele>
        <time>2026-08-29T10:25:48Z</time>
      </trkpt>
      <trkpt lat="50.702775260433555" lon="13.231999408453703">
        <ele>442</ele>
        <time>2026-08-29T10:25:49Z</time>
      </trkpt>
      <trkpt lat="50.70277551189065" lon="13.231999324634671">
        <ele>442</ele>
        <time>2026-08-29T10:25:50Z</time>
      </trkpt>
      <trkpt lat="50.702775428071618" lon="13.231999827548862">
        <ele>442</ele>
        <time>2026-08-29T10:25:51Z</time>
      </trkpt>
      <trkpt lat="50.702775344252586" lon="13.23199974372983">
        <ele>442</ele>
        <time>2026-08-29T10:25:52Z</time>
      </trkpt>
      <trkpt lat="50.702775260433555" lon="13.231999995186925">
        <ele>442</ele>
        <time>2026-08-29T10:25:53Z</time>
      </trkpt>
      <trkpt lat="50.702775344252586" lon="13.232000079005957">
        <ele>442</ele>
        <time>2026-08-29T10:25:54Z</time>
      </trkpt>
      <trkpt lat="50.702775428071618" lon="13.232000079005957">
        <ele>442</ele>
        <time>2026-08-29T10:25:55Z</time>
      </trkpt>
      <trkpt lat="50.702775595709682" lon="13.232000162824988">
        <ele>442</ele>
        <time>2026-08-29T10:25:56Z</time>
      </trkpt>
      <trkpt lat="50.702775679528713" lon="13.23200024664402">
        <ele>442</ele>
        <time>2026-08-29T10:25:57Z</time>
      </trkpt>
      <trkpt lat="50.702775595709682" lon="13.232000330463052">
        <ele>442</ele>
        <time>2026-08-29T10:25:58Z</time>
      </trkpt>
      <trkpt lat="50.702775679528713" lon="13.232000330463052">
        <ele>442</ele>
        <time>2026-08-29T10:25:59Z</time>
      </trkpt>
      <trkpt lat="50.702775679528713" lon="13.232000498101115">
        <ele>442</ele>
        <time>2026-08-29T10:26:00Z</time>
      </trkpt>
      <trkpt lat="50.702775679528713" lon="13.232000581920147">
        <ele>442</ele>
        <time>2026-08-29T10:26:01Z</time>
      </trkpt>
      <trkpt lat="50.702777020633221" lon="13.232008377090096">
        <ele>442</ele>
        <time>2026-08-29T10:26:02Z</time>
      </trkpt>
      <trkpt lat="50.702776098623872" lon="13.23200854472816">
        <ele>442</ele>
        <time>2026-08-29T10:26:03Z</time>
      </trkpt>
      <trkpt lat="50.702771320939064" lon="13.23200561106205">
        <ele>442</ele>
        <time>2026-08-29T10:26:04Z</time>
      </trkpt>
      <trkpt lat="50.702770901843905" lon="13.232007790356874">
        <ele>442</ele>
        <time>2026-08-29T10:26:05Z</time>
      </trkpt>
      <trkpt lat="50.702771069481969" lon="13.232008293271065">
        <ele>442</ele>
        <time>2026-08-29T10:26:06Z</time>
      </trkpt>
      <trkpt lat="50.702772745862603" lon="13.232016591355205">
        <ele>442</ele>
        <time>2026-08-29T10:26:07Z</time>
      </trkpt>
      <trkpt lat="50.702772410586476" lon="13.232014831155539">
        <ele>442</ele>
        <time>2026-08-29T10:26:08Z</time>
      </trkpt>
      <trkpt lat="50.702772159129381" lon="13.232013238593936">
        <ele>442</ele>
        <time>2026-08-29T10:26:09Z</time>
      </trkpt>
      <trkpt lat="50.702772242948413" lon="13.232012987136841">
        <ele>442</ele>
        <time>2026-08-29T10:26:10Z</time>
      </trkpt>
      <trkpt lat="50.702772410586476" lon="13.232013238593936">
        <ele>442</ele>
        <time>2026-08-29T10:26:11Z</time>
      </trkpt>
      <trkpt lat="50.70277308113873" lon="13.232010388746858">
        <ele>442</ele>
        <time>2026-08-29T10:26:12Z</time>
      </trkpt>
      <trkpt lat="50.70277651771903" lon="13.232005443423986">
        <ele>443</ele>
        <time>2026-08-29T10:26:13Z</time>
      </trkpt>
      <trkpt lat="50.70277601480484" lon="13.232004856690764">
        <ele>443</ele>
        <time>2026-08-29T10:26:14Z</time>
      </trkpt>
      <trkpt lat="50.702777439728379" lon="13.232016507536173">
        <ele>443</ele>
        <time>2026-08-29T10:26:15Z</time>
      </trkpt>
      <trkpt lat="50.702774841338396" lon="13.232023380696774">
        <ele>443</ele>
        <time>2026-08-29T10:26:16Z</time>
      </trkpt>
      <trkpt lat="50.702774589881301" lon="13.232023883610964">
        <ele>443</ele>
        <time>2026-08-29T10:26:17Z</time>
      </trkpt>
      <trkpt lat="50.702774506062269" lon="13.232023967429996">
        <ele>443</ele>
        <time>2026-08-29T10:26:18Z</time>
      </trkpt>
      <trkpt lat="50.702774170786142" lon="13.232024135068059">
        <ele>443</ele>
        <time>2026-08-29T10:26:19Z</time>
      </trkpt>
      <trkpt lat="50.702774086967111" lon="13.232024135068059">
        <ele>443</ele>
        <time>2026-08-29T10:26:20Z</time>
      </trkpt>
      <trkpt lat="50.702774086967111" lon="13.232023967429996">
        <ele>443</ele>
        <time>2026-08-29T10:26:21Z</time>
      </trkpt>
      <trkpt lat="50.702773919329047" lon="13.232024302706122">
        <ele>443</ele>
        <time>2026-08-29T10:26:22Z</time>
      </trkpt>
      <trkpt lat="50.702773751690984" lon="13.232024721801281">
        <ele>443</ele>
        <time>2026-08-29T10:26:23Z</time>
      </trkpt>
      <trkpt lat="50.702773835510015" lon="13.232025057077408">
        <ele>443</ele>
        <time>2026-08-29T10:26:24Z</time>
      </trkpt>
      <trkpt lat="50.702773919329047" lon="13.232025308534503">
        <ele>443</ele>
        <time>2026-08-29T10:26:25Z</time>
      </trkpt>
      <trkpt lat="50.702774003148079" lon="13.232025559991598">
        <ele>443</ele>
        <time>2026-08-29T10:26:26Z</time>
      </trkpt>
      <trkpt lat="50.702773919329047" lon="13.232025476172566">
        <ele>443</ele>
        <time>2026-08-29T10:26:27Z</time>
      </trkpt>
      <trkpt lat="50.702774086967111" lon="13.23202564381063">
        <ele>443</ele>
        <time>2026-08-29T10:26:28Z</time>
      </trkpt>
      <trkpt lat="50.702774170786142" lon="13.232025811448693">
        <ele>443</ele>
        <time>2026-08-29T10:26:29Z</time>
      </trkpt>
      <trkpt lat="50.702774338424206" lon="13.232026062905788">
        <ele>443</ele>
        <time>2026-08-29T10:26:30Z</time>
      </trkpt>
      <trkpt lat="50.702774338424206" lon="13.232025979086757">
        <ele>443</ele>
        <time>2026-08-29T10:26:31Z</time>
      </trkpt>
      <trkpt lat="50.702774338424206" lon="13.232025979086757">
        <ele>443</ele>
        <time>2026-08-29T10:26:32Z</time>
      </trkpt>
      <trkpt lat="50.702777188271284" lon="13.23202807456255">
        <ele>444</ele>
        <time>2026-08-29T10:26:33Z</time>
      </trkpt>
      <trkpt lat="50.702776936814189" lon="13.232028828933835">
        <ele>444</ele>
        <time>2026-08-29T10:26:34Z</time>
      </trkpt>
      <trkpt lat="50.702777020633221" lon="13.232028996571898">
        <ele>444</ele>
        <time>2026-08-29T10:26:35Z</time>
      </trkpt>
      <trkpt lat="50.702777020633221" lon="13.232028912752867">
        <ele>444</ele>
        <time>2026-08-29T10:26:36Z</time>
      </trkpt>
      <trkpt lat="50.702777020633221" lon="13.232028745114803">
        <ele>444</ele>
        <time>2026-08-29T10:26:37Z</time>
      </trkpt>
      <trkpt lat="50.702777188271284" lon="13.232028661295772">
        <ele>444</ele>
        <time>2026-08-29T10:26:38Z</time>
      </trkpt>
      <trkpt lat="50.702777188271284" lon="13.23202857747674">
        <ele>444</ele>
        <time>2026-08-29T10:26:39Z</time>
      </trkpt>
      <trkpt lat="50.702777272090316" lon="13.232028493657708">
        <ele>444</ele>
        <time>2026-08-29T10:26:40Z</time>
      </trkpt>
      <trkpt lat="50.702777439728379" lon="13.232028661295772">
        <ele>444</ele>
        <time>2026-08-29T10:26:41Z</time>
      </trkpt>
      <trkpt lat="50.702777607366443" lon="13.23202857747674">
        <ele>444</ele>
        <time>2026-08-29T10:26:42Z</time>
      </trkpt>
      <trkpt lat="50.702777691185474" lon="13.23202857747674">
        <ele>444</ele>
        <time>2026-08-29T10:26:43Z</time>
      </trkpt>
      <trkpt lat="50.702777691185474" lon="13.232028493657708">
        <ele>444</ele>
        <time>2026-08-29T10:26:44Z</time>
      </trkpt>
      <trkpt lat="50.702777775004506" lon="13.232028493657708">
        <ele>444</ele>
        <time>2026-08-29T10:26:45Z</time>
      </trkpt>
      <trkpt lat="50.702777858823538" lon="13.232028745114803">
        <ele>444</ele>
        <time>2026-08-29T10:26:46Z</time>
      </trkpt>
      <trkpt lat="50.702777691185474" lon="13.232028661295772">
        <ele>444</ele>
        <time>2026-08-29T10:26:47Z</time>
      </trkpt>
      <trkpt lat="50.702777691185474" lon="13.232028493657708">
        <ele>444</ele>
        <time>2026-08-29T10:26:48Z</time>
      </trkpt>
      <trkpt lat="50.702777607366443" lon="13.232028409838676">
        <ele>444</ele>
        <time>2026-08-29T10:26:49Z</time>
      </trkpt>
      <trkpt lat="50.702781043946743" lon="13.232018267735839">
        <ele>443</ele>
        <time>2026-08-29T10:26:50Z</time>
      </trkpt>
      <trkpt lat="50.702779367566109" lon="13.232014328241348">
        <ele>443</ele>
        <time>2026-08-29T10:26:51Z</time>
      </trkpt>
      <trkpt lat="50.702780541032553" lon="13.23201147839427">
        <ele>443</ele>
        <time>2026-08-29T10:26:52Z</time>
      </trkpt>
      <trkpt lat="50.702779954299331" lon="13.232011143118143">
        <ele>443</ele>
        <time>2026-08-29T10:26:53Z</time>
      </trkpt>
      <trkpt lat="50.702780121937394" lon="13.23201097548008">
        <ele>443</ele>
        <time>2026-08-29T10:26:54Z</time>
      </trkpt>
      <trkpt lat="50.702780038118362" lon="13.232010807842016">
        <ele>443</ele>
        <time>2026-08-29T10:26:55Z</time>
      </trkpt>
      <trkpt lat="50.702780121937394" lon="13.232010640203953">
        <ele>443</ele>
        <time>2026-08-29T10:26:56Z</time>
      </trkpt>
      <trkpt lat="50.702780121937394" lon="13.232010472565889">
        <ele>443</ele>
        <time>2026-08-29T10:26:57Z</time>
      </trkpt>
      <trkpt lat="50.702780121937394" lon="13.232010304927826">
        <ele>443</ele>
        <time>2026-08-29T10:26:58Z</time>
      </trkpt>
      <trkpt lat="50.702780121937394" lon="13.232010137289762">
        <ele>443</ele>
        <time>2026-08-29T10:26:59Z</time>
      </trkpt>
      <trkpt lat="50.702780121937394" lon="13.232010053470731">
        <ele>443</ele>
        <time>2026-08-29T10:27:00Z</time>
      </trkpt>
      <trkpt lat="50.702779954299331" lon="13.232009969651699">
        <ele>443</ele>
        <time>2026-08-29T10:27:01Z</time>
      </trkpt>
      <trkpt lat="50.702779870480299" lon="13.232009802013636">
        <ele>443</ele>
        <time>2026-08-29T10:27:02Z</time>
      </trkpt>
      <trkpt lat="50.702779870480299" lon="13.232009718194604">
        <ele>443</ele>
        <time>2026-08-29T10:27:03Z</time>
      </trkpt>
      <trkpt lat="50.702779870480299" lon="13.232009634375572">
        <ele>443</ele>
        <time>2026-08-29T10:27:04Z</time>
      </trkpt>
      <trkpt lat="50.702779702842236" lon="13.232009466737509">
        <ele>443</ele>
        <time>2026-08-29T10:27:05Z</time>
      </trkpt>
      <trkpt lat="50.702779702842236" lon="13.23200955055654">
        <ele>443</ele>
        <time>2026-08-29T10:27:06Z</time>
      </trkpt>
      <trkpt lat="50.702779870480299" lon="13.232009634375572">
        <ele>444</ele>
        <time>2026-08-29T10:27:07Z</time>
      </trkpt>
      <trkpt lat="50.702782301232219" lon="13.232004437595606">
        <ele>443</ele>
        <time>2026-08-29T10:27:08Z</time>
      </trkpt>
      <trkpt lat="50.70277945138514" lon="13.23200561106205">
        <ele>443</ele>
        <time>2026-08-29T10:27:09Z</time>
      </trkpt>
      <trkpt lat="50.702777691185474" lon="13.232002845034003">
        <ele>443</ele>
        <time>2026-08-29T10:27:10Z</time>
      </trkpt>
      <trkpt lat="50.702777607366443" lon="13.232003012672067">
        <ele>443</ele>
        <time>2026-08-29T10:27:11Z</time>
      </trkpt>
      <trkpt lat="50.70277794264257" lon="13.231996055692434">
        <ele>443</ele>
        <time>2026-08-29T10:27:12Z</time>
      </trkpt>
      <trkpt lat="50.70277844555676" lon="13.231996390968561">
        <ele>443</ele>
        <time>2026-08-29T10:27:13Z</time>
      </trkpt>
      <trkpt lat="50.702779283747077" lon="13.231997732073069">
        <ele>443</ele>
        <time>2026-08-29T10:27:14Z</time>
      </trkpt>
      <trkpt lat="50.702778110280633" lon="13.2319943793118">
        <ele>443</ele>
        <time>2026-08-29T10:27:15Z</time>
      </trkpt>
      <trkpt lat="50.702776098623872" lon="13.231993038207293">
        <ele>443</ele>
        <time>2026-08-29T10:27:16Z</time>
      </trkpt>
      <trkpt lat="50.702774757519364" lon="13.2319909427315">
        <ele>443</ele>
        <time>2026-08-29T10:27:17Z</time>
      </trkpt>
      <trkpt lat="50.702774506062269" lon="13.231996223330498">
        <ele>443</ele>
        <time>2026-08-29T10:27:18Z</time>
      </trkpt>
      <trkpt lat="50.702774338424206" lon="13.231999827548862">
        <ele>442</ele>
        <time>2026-08-29T10:27:19Z</time>
      </trkpt>
      <trkpt lat="50.7027867436409" lon="13.231999492272735">
        <ele>442</ele>
        <time>2026-08-29T10:27:20Z</time>
      </trkpt>
      <trkpt lat="50.702813901007175" lon="13.231988931074739">
        <ele>442</ele>
        <time>2026-08-29T10:27:21Z</time>
      </trkpt>
      <trkpt lat="50.702843070030212" lon="13.231991529464722">
        <ele>441</ele>
        <time>2026-08-29T10:27:22Z</time>
      </trkpt>
      <trkpt lat="50.702869473025203" lon="13.231984907761216">
        <ele>441</ele>
        <time>2026-08-29T10:27:23Z</time>
      </trkpt>
      <trkpt lat="50.702898809686303" lon="13.231996223330498">
        <ele>440</ele>
        <time>2026-08-29T10:27:24Z</time>
      </trkpt>
      <trkpt lat="50.702928649261594" lon="13.232041317969561">
        <ele>441</ele>
        <time>2026-08-29T10:27:25Z</time>
      </trkpt>
      <trkpt lat="50.702949352562428" lon="13.232098650187254">
        <ele>441</ele>
        <time>2026-08-29T10:27:26Z</time>
      </trkpt>
      <trkpt lat="50.702975252643228" lon="13.232141481712461">
        <ele>441</ele>
        <time>2026-08-29T10:27:27Z</time>
      </trkpt>
      <trkpt lat="50.702998721972108" lon="13.232198394834995">
        <ele>441</ele>
        <time>2026-08-29T10:27:28Z</time>
      </trkpt>
      <trkpt lat="50.703029399737716" lon="13.232255056500435">
        <ele>441</ele>
        <time>2026-08-29T10:27:29Z</time>
      </trkpt>
      <trkpt lat="50.703056221827865" lon="13.232308365404606">
        <ele>442</ele>
        <time>2026-08-29T10:27:30Z</time>
      </trkpt>
      <trkpt lat="50.703084301203489" lon="13.232358070090413">
        <ele>442</ele>
        <time>2026-08-29T10:27:31Z</time>
      </trkpt>
      <trkpt lat="50.703103747218847" lon="13.232415318489075">
        <ele>443</ele>
        <time>2026-08-29T10:27:32Z</time>
      </trkpt>
      <trkpt lat="50.703128222376108" lon="13.232464352622628">
        <ele>443</ele>
        <time>2026-08-29T10:27:33Z</time>
      </trkpt>
      <trkpt lat="50.703156720846891" lon="13.232507016509771">
        <ele>443</ele>
        <time>2026-08-29T10:27:34Z</time>
      </trkpt>
      <trkpt lat="50.703181531280279" lon="13.232546579092741">
        <ele>444</ele>
        <time>2026-08-29T10:27:35Z</time>
      </trkpt>
      <trkpt lat="50.703208772465587" lon="13.232589410617948">
        <ele>444</ele>
        <time>2026-08-29T10:27:36Z</time>
      </trkpt>
      <trkpt lat="50.703235762193799" lon="13.232634253799915">
        <ele>444</ele>
        <time>2026-08-29T10:27:37Z</time>
      </trkpt>
      <trkpt lat="50.703249759972095" lon="13.232676079496741">
        <ele>444</ele>
        <time>2026-08-29T10:27:38Z</time>
      </trkpt>
      <trkpt lat="50.703269122168422" lon="13.23272050358355">
        <ele>444</ele>
        <time>2026-08-29T10:27:39Z</time>
      </trkpt>
      <trkpt lat="50.70329250767827" lon="13.23276593349874">
        <ele>444</ele>
        <time>2026-08-29T10:27:40Z</time>
      </trkpt>
      <trkpt lat="50.703324610367417" lon="13.232806837186217">
        <ele>443</ele>
        <time>2026-08-29T10:27:41Z</time>
      </trkpt>
      <trkpt lat="50.703357886523008" lon="13.232834497466683">
        <ele>443</ele>
        <time>2026-08-29T10:27:42Z</time>
      </trkpt>
      <trkpt lat="50.703393761068583" lon="13.232865761965513">
        <ele>442</ele>
        <time>2026-08-29T10:27:43Z</time>
      </trkpt>
      <trkpt lat="50.703429048880935" lon="13.232881268486381">
        <ele>442</ele>
        <time>2026-08-29T10:27:44Z</time>
      </trkpt>
      <trkpt lat="50.703460313379765" lon="13.232898954302073">
        <ele>443</ele>
        <time>2026-08-29T10:27:45Z</time>
      </trkpt>
      <trkpt lat="50.70348939858377" lon="13.232911443337798">
        <ele>443</ele>
        <time>2026-08-29T10:27:46Z</time>
      </trkpt>
      <trkpt lat="50.703516053035855" lon="13.232920076698065">
        <ele>443</ele>
        <time>2026-08-29T10:27:47Z</time>
      </trkpt>
      <trkpt lat="50.703540528193116" lon="13.232926111668348">
        <ele>443</ele>
        <time>2026-08-29T10:27:48Z</time>
      </trkpt>
      <trkpt lat="50.703564919531345" lon="13.232934912666678">
        <ele>443</ele>
        <time>2026-08-29T10:27:49Z</time>
      </trkpt>
      <trkpt lat="50.70358662866056" lon="13.232938935980201">
        <ele>443</ele>
        <time>2026-08-29T10:27:50Z</time>
      </trkpt>
      <trkpt lat="50.703607499599457" lon="13.232946647331119">
        <ele>443</ele>
        <time>2026-08-29T10:27:51Z</time>
      </trkpt>
      <trkpt lat="50.703625688329339" lon="13.232951257377863">
        <ele>443</ele>
        <time>2026-08-29T10:27:52Z</time>
      </trkpt>
      <trkpt lat="50.703637758269906" lon="13.232954777777195">
        <ele>443</ele>
        <time>2026-08-29T10:27:53Z</time>
      </trkpt>
      <trkpt lat="50.703651839867234" lon="13.232958801090717">
        <ele>443</ele>
        <time>2026-08-29T10:27:54Z</time>
      </trkpt>
      <trkpt lat="50.703664747998118" lon="13.23297263123095">
        <ele>443</ele>
        <time>2026-08-29T10:27:55Z</time>
      </trkpt>
      <trkpt lat="50.703682517632842" lon="13.232994005084038">
        <ele>443</ele>
        <time>2026-08-29T10:27:56Z</time>
      </trkpt>
      <trkpt lat="50.703695677220821" lon="13.233013451099396">
        <ele>443</ele>
        <time>2026-08-29T10:27:57Z</time>
      </trkpt>
      <trkpt lat="50.703712021932006" lon="13.233022252097726">
        <ele>443</ele>
        <time>2026-08-29T10:27:58Z</time>
      </trkpt>
      <trkpt lat="50.703727276995778" lon="13.233027448877692">
        <ele>443</ele>
        <time>2026-08-29T10:27:59Z</time>
      </trkpt>
      <trkpt lat="50.703744878992438" lon="13.233030969277024">
        <ele>443</ele>
        <time>2026-08-29T10:28:00Z</time>
      </trkpt>
      <trkpt lat="50.703759379684925" lon="13.233042536303401">
        <ele>443</ele>
        <time>2026-08-29T10:28:01Z</time>
      </trkpt>
      <trkpt lat="50.703769940882921" lon="13.233058545738459">
        <ele>443</ele>
        <time>2026-08-29T10:28:02Z</time>
      </trkpt>
      <trkpt lat="50.703782010823488" lon="13.233077740296721">
        <ele>443</ele>
        <time>2026-08-29T10:28:03Z</time>
      </trkpt>
      <trkpt lat="50.703794751316309" lon="13.233102718368173">
        <ele>443</ele>
        <time>2026-08-29T10:28:04Z</time>
      </trkpt>
      <trkpt lat="50.703801037743688" lon="13.233134150505066">
        <ele>443</ele>
        <time>2026-08-29T10:28:05Z</time>
      </trkpt>
      <trkpt lat="50.703809168189764" lon="13.233157116919756">
        <ele>442</ele>
        <time>2026-08-29T10:28:06Z</time>
      </trkpt>
      <trkpt lat="50.703819477930665" lon="13.233182346448302">
        <ele>442</ele>
        <time>2026-08-29T10:28:07Z</time>
      </trkpt>
      <trkpt lat="50.703829368576407" lon="13.233216712251306">
        <ele>442</ele>
        <time>2026-08-29T10:28:08Z</time>
      </trkpt>
      <trkpt lat="50.703845461830497" lon="13.23324135504663">
        <ele>442</ele>
        <time>2026-08-29T10:28:09Z</time>
      </trkpt>
      <trkpt lat="50.703861052170396" lon="13.233269015327096">
        <ele>442</ele>
        <time>2026-08-29T10:28:10Z</time>
      </trkpt>
      <trkpt lat="50.70388225838542" lon="13.233290892094374">
        <ele>442</ele>
        <time>2026-08-29T10:28:11Z</time>
      </trkpt>
      <trkpt lat="50.703897681087255" lon="13.233300279825926">
        <ele>442</ele>
        <time>2026-08-29T10:28:12Z</time>
      </trkpt>
      <trkpt lat="50.703906649723649" lon="13.233305308967829">
        <ele>442</ele>
        <time>2026-08-29T10:28:13Z</time>
      </trkpt>
      <trkpt lat="50.703906901180744" lon="13.233307655900717">
        <ele>442</ele>
        <time>2026-08-29T10:28:14Z</time>
      </trkpt>
      <trkpt lat="50.703906482085586" lon="13.233299190178514">
        <ele>442</ele>
        <time>2026-08-29T10:28:15Z</time>
      </trkpt>
      <trkpt lat="50.70390178821981" lon="13.233292400836945">
        <ele>441</ele>
        <time>2026-08-29T10:28:16Z</time>
      </trkpt>
      <trkpt lat="50.703902039676905" lon="13.233299357816577">
        <ele>441</ele>
        <time>2026-08-29T10:28:17Z</time>
      </trkpt>
      <trkpt lat="50.703902123495936" lon="13.233299357816577">
        <ele>441</ele>
        <time>2026-08-29T10:28:18Z</time>
      </trkpt>
      <trkpt lat="50.703901955857873" lon="13.233299609273672">
        <ele>441</ele>
        <time>2026-08-29T10:28:19Z</time>
      </trkpt>
      <trkpt lat="50.703900698572397" lon="13.233302291482687">
        <ele>441</ele>
        <time>2026-08-29T10:28:20Z</time>
      </trkpt>
      <trkpt lat="50.703900530934334" lon="13.23329902254045">
        <ele>441</ele>
        <time>2026-08-29T10:28:21Z</time>
      </trkpt>
      <trkpt lat="50.703903799876571" lon="13.233296675607562">
        <ele>441</ele>
        <time>2026-08-29T10:28:22Z</time>
      </trkpt>
      <trkpt lat="50.703908326104283" lon="13.233303129673004">
        <ele>442</ele>
        <time>2026-08-29T10:28:23Z</time>
      </trkpt>
      <trkpt lat="50.70390866138041" lon="13.233303716406226">
        <ele>442</ele>
        <time>2026-08-29T10:28:24Z</time>
      </trkpt>
      <trkpt lat="50.703911511227489" lon="13.233298184350133">
        <ele>442</ele>
        <time>2026-08-29T10:28:25Z</time>
      </trkpt>
      <trkpt lat="50.703911678865552" lon="13.233297597616911">
        <ele>442</ele>
        <time>2026-08-29T10:28:26Z</time>
      </trkpt>
      <trkpt lat="50.703911678865552" lon="13.233297681435943">
        <ele>442</ele>
        <time>2026-08-29T10:28:27Z</time>
      </trkpt>
      <trkpt lat="50.703911846503615" lon="13.233297932893038">
        <ele>442</ele>
        <time>2026-08-29T10:28:28Z</time>
      </trkpt>
      <trkpt lat="50.703911930322647" lon="13.233298184350133">
        <ele>442</ele>
        <time>2026-08-29T10:28:29Z</time>
      </trkpt>
      <trkpt lat="50.703911930322647" lon="13.233297932893038">
        <ele>442</ele>
        <time>2026-08-29T10:28:30Z</time>
      </trkpt>
      <trkpt lat="50.703911511227489" lon="13.233301704749465">
        <ele>442</ele>
        <time>2026-08-29T10:28:31Z</time>
      </trkpt>
      <trkpt lat="50.703911511227489" lon="13.233301201835275">
        <ele>442</ele>
        <time>2026-08-29T10:28:32Z</time>
      </trkpt>
      <trkpt lat="50.703913858160377" lon="13.233302710577846">
        <ele>443</ele>
        <time>2026-08-29T10:28:33Z</time>
      </trkpt>
      <trkpt lat="50.703913858160377" lon="13.2333102542907">
        <ele>443</ele>
        <time>2026-08-29T10:28:34Z</time>
      </trkpt>
      <trkpt lat="50.703914444893599" lon="13.233305308967829">
        <ele>443</ele>
        <time>2026-08-29T10:28:35Z</time>
      </trkpt>
      <trkpt lat="50.703917965292931" lon="13.23330975137651">
        <ele>443</ele>
        <time>2026-08-29T10:28:36Z</time>
      </trkpt>
      <trkpt lat="50.703919474035501" lon="13.233312098309398">
        <ele>444</ele>
        <time>2026-08-29T10:28:37Z</time>
      </trkpt>
      <trkpt lat="50.703918552026153" lon="13.233312517404556">
        <ele>444</ele>
        <time>2026-08-29T10:28:38Z</time>
      </trkpt>
      <trkpt lat="50.703917127102613" lon="13.233307404443622">
        <ele>444</ele>
        <time>2026-08-29T10:28:39Z</time>
      </trkpt>
      <trkpt lat="50.703916624188423" lon="13.233308158814907">
        <ele>444</ele>
        <time>2026-08-29T10:28:40Z</time>
      </trkpt>
      <trkpt lat="50.703911008313298" lon="13.233309919014573">
        <ele>444</ele>
        <time>2026-08-29T10:28:41Z</time>
      </trkpt>
      <trkpt lat="50.703910840675235" lon="13.233310505747795">
        <ele>444</ele>
        <time>2026-08-29T10:28:42Z</time>
      </trkpt>
      <trkpt lat="50.70391058921814" lon="13.233310505747795">
        <ele>444</ele>
        <time>2026-08-29T10:28:43Z</time>
      </trkpt>
      <trkpt lat="50.703910421580076" lon="13.233310673385859">
        <ele>444</ele>
        <time>2026-08-29T10:28:44Z</time>
      </trkpt>
      <trkpt lat="50.703914109617472" lon="13.233307907357812">
        <ele>443</ele>
        <time>2026-08-29T10:28:45Z</time>
      </trkpt>
      <trkpt lat="50.70391645655036" lon="13.233307152986526">
        <ele>443</ele>
        <time>2026-08-29T10:28:46Z</time>
      </trkpt>
      <trkpt lat="50.703919976949692" lon="13.233309080824256">
        <ele>444</ele>
        <time>2026-08-29T10:28:47Z</time>
      </trkpt>
      <trkpt lat="50.703926598653197" lon="13.233312517404556">
        <ele>444</ele>
        <time>2026-08-29T10:28:48Z</time>
      </trkpt>
      <trkpt lat="50.703939758241177" lon="13.233312014490366">
        <ele>443</ele>
        <time>2026-08-29T10:28:49Z</time>
      </trkpt>
      <trkpt lat="50.703950570896268" lon="13.233302626758814">
        <ele>443</ele>
        <time>2026-08-29T10:28:50Z</time>
      </trkpt>
      <trkpt lat="50.703966580331326" lon="13.233291730284691">
        <ele>443</ele>
        <time>2026-08-29T10:28:51Z</time>
      </trkpt>
      <trkpt lat="50.703981500118971" lon="13.23327655903995">
        <ele>443</ele>
        <time>2026-08-29T10:28:52Z</time>
      </trkpt>
      <trkpt lat="50.703993150964379" lon="13.233261723071337">
        <ele>443</ele>
        <time>2026-08-29T10:28:53Z</time>
      </trkpt>
      <trkpt lat="50.704004969447851" lon="13.233254095539451">
        <ele>443</ele>
        <time>2026-08-29T10:28:54Z</time>
      </trkpt>
      <trkpt lat="50.70401226170361" lon="13.233250407502055">
        <ele>444</ele>
        <time>2026-08-29T10:28:55Z</time>
      </trkpt>
      <trkpt lat="50.704011842608452" lon="13.233250407502055">
        <ele>444</ele>
        <time>2026-08-29T10:28:56Z</time>
      </trkpt>
      <trkpt lat="50.704013938084245" lon="13.233250491321087">
        <ele>444</ele>
        <time>2026-08-29T10:28:57Z</time>
      </trkpt>
      <trkpt lat="50.70401226170361" lon="13.233248312026262">
        <ele>444</ele>
        <time>2026-08-29T10:28:58Z</time>
      </trkpt>
      <trkpt lat="50.704013602808118" lon="13.233240097761154">
        <ele>443</ele>
        <time>2026-08-29T10:28:59Z</time>
      </trkpt>
      <trkpt lat="50.704021146520972" lon="13.233234649524093">
        <ele>443</ele>
        <time>2026-08-29T10:29:00Z</time>
      </trkpt>
      <trkpt lat="50.704027432948351" lon="13.233242277055979">
        <ele>443</ele>
        <time>2026-08-29T10:29:01Z</time>
      </trkpt>
      <trkpt lat="50.704033132642508" lon="13.233252335339785">
        <ele>443</ele>
        <time>2026-08-29T10:29:02Z</time>
      </trkpt>
      <trkpt lat="50.70404059253633" lon="13.233267338946462">
        <ele>443</ele>
        <time>2026-08-29T10:29:03Z</time>
      </trkpt>
      <trkpt lat="50.704046627506614" lon="13.233283348381519">
        <ele>443</ele>
        <time>2026-08-29T10:29:04Z</time>
      </trkpt>
      <trkpt lat="50.704054841771722" lon="13.233299106359482">
        <ele>443</ele>
        <time>2026-08-29T10:29:05Z</time>
      </trkpt>
      <trkpt lat="50.704057021066546" lon="13.233300447463989">
        <ele>443</ele>
        <time>2026-08-29T10:29:06Z</time>
      </trkpt>
      <trkpt lat="50.704062301665545" lon="13.233288042247295">
        <ele>444</ele>
        <time>2026-08-29T10:29:07Z</time>
      </trkpt>
      <trkpt lat="50.704068001359701" lon="13.23327362537384">
        <ele>444</ele>
        <time>2026-08-29T10:29:08Z</time>
      </trkpt>
      <trkpt lat="50.704076969996095" lon="13.23326775804162">
        <ele>443</ele>
        <time>2026-08-29T10:29:09Z</time>
      </trkpt>
      <trkpt lat="50.704082418233156" lon="13.2332584541291">
        <ele>443</ele>
        <time>2026-08-29T10:29:10Z</time>
      </trkpt>
      <trkpt lat="50.704089375212789" lon="13.23324085213244">
        <ele>443</ele>
        <time>2026-08-29T10:29:11Z</time>
      </trkpt>
      <trkpt lat="50.704099601134658" lon="13.233223417773843">
        <ele>443</ele>
        <time>2026-08-29T10:29:12Z</time>
      </trkpt>
      <trkpt lat="50.704107228666544" lon="13.233205480501056">
        <ele>443</ele>
        <time>2026-08-29T10:29:13Z</time>
      </trkpt>
      <trkpt lat="50.704117622226477" lon="13.233194332569838">
        <ele>443</ele>
        <time>2026-08-29T10:29:14Z</time>
      </trkpt>
      <trkpt lat="50.704133380204439" lon="13.233184777200222">
        <ele>443</ele>
        <time>2026-08-29T10:29:15Z</time>
      </trkpt>
      <trkpt lat="50.704151317477226" lon="13.233180334791541">
        <ele>443</ele>
        <time>2026-08-29T10:29:16Z</time>
      </trkpt>
      <trkpt lat="50.704163974151015" lon="13.233180586248636">
        <ele>444</ele>
        <time>2026-08-29T10:29:17Z</time>
      </trkpt>
      <trkpt lat="50.70418082177639" lon="13.233188549056649">
        <ele>444</ele>
        <time>2026-08-29T10:29:18Z</time>
      </trkpt>
      <trkpt lat="50.704196328297257" lon="13.233193745836616">
        <ele>445</ele>
        <time>2026-08-29T10:29:19Z</time>
      </trkpt>
      <trkpt lat="50.704209320247173" lon="13.233201121911407">
        <ele>445</ele>
        <time>2026-08-29T10:29:20Z</time>
      </trkpt>
      <trkpt lat="50.70422382093966" lon="13.2332100905478">
        <ele>445</ele>
        <time>2026-08-29T10:29:21Z</time>
      </trkpt>
      <trkpt lat="50.704236309975386" lon="13.233213275671005">
        <ele>446</ele>
        <time>2026-08-29T10:29:22Z</time>
      </trkpt>
      <trkpt lat="50.70424972102046" lon="13.23320958763361">
        <ele>445</ele>
        <time>2026-08-29T10:29:23Z</time>
      </trkpt>
      <trkpt lat="50.704255839809775" lon="13.233209671452641">
        <ele>445</ele>
        <time>2026-08-29T10:29:24Z</time>
      </trkpt>
      <trkpt lat="50.704265059903264" lon="13.233218472450972">
        <ele>446</ele>
        <time>2026-08-29T10:29:25Z</time>
      </trkpt>
      <trkpt lat="50.704271346330643" lon="13.233222747221589">
        <ele>445</ele>
        <time>2026-08-29T10:29:26Z</time>
      </trkpt>
      <trkpt lat="50.704279979690909" lon="13.23322182521224">
        <ele>446</ele>
        <time>2026-08-29T10:29:27Z</time>
      </trkpt>
      <trkpt lat="50.704286769032478" lon="13.233223333954811">
        <ele>446</ele>
        <time>2026-08-29T10:29:28Z</time>
      </trkpt>
      <trkpt lat="50.704292887821794" lon="13.233231296762824">
        <ele>446</ele>
        <time>2026-08-29T10:29:29Z</time>
      </trkpt>
      <trkpt lat="50.70429515093565" lon="13.233238253742456">
        <ele>445</ele>
        <time>2026-08-29T10:29:30Z</time>
      </trkpt>
      <trkpt lat="50.704295318573713" lon="13.233238002285361">
        <ele>445</ele>
        <time>2026-08-29T10:29:31Z</time>
      </trkpt>
      <trkpt lat="50.704295067116618" lon="13.23322962038219">
        <ele>445</ele>
        <time>2026-08-29T10:29:32Z</time>
      </trkpt>
      <trkpt lat="50.704294731840491" lon="13.233228446915746">
        <ele>445</ele>
        <time>2026-08-29T10:29:33Z</time>
      </trkpt>
      <trkpt lat="50.70429758168757" lon="13.233233140781522">
        <ele>445</ele>
        <time>2026-08-29T10:29:34Z</time>
      </trkpt>
      <trkpt lat="50.70430395193398" lon="13.233234817162156">
        <ele>445</ele>
        <time>2026-08-29T10:29:35Z</time>
      </trkpt>
      <trkpt lat="50.70430931635201" lon="13.233235571533442">
        <ele>445</ele>
        <time>2026-08-29T10:29:36Z</time>
      </trkpt>
      <trkpt lat="50.704319039359689" lon="13.2332359906286">
        <ele>445</ele>
        <time>2026-08-29T10:29:37Z</time>
      </trkpt>
      <trkpt lat="50.704331528395414" lon="13.233242696151137">
        <ele>445</ele>
        <time>2026-08-29T10:29:38Z</time>
      </trkpt>
      <trkpt lat="50.704341838136315" lon="13.233245797455311">
        <ele>445</ele>
        <time>2026-08-29T10:29:39Z</time>
      </trkpt>
      <trkpt lat="50.704352650791407" lon="13.233247557654977">
        <ele>445</ele>
        <time>2026-08-29T10:29:40Z</time>
      </trkpt>
      <trkpt lat="50.704363379627466" lon="13.233248814940453">
        <ele>446</ele>
        <time>2026-08-29T10:29:41Z</time>
      </trkpt>
      <trkpt lat="50.704371761530638" lon="13.233250491321087">
        <ele>446</ele>
        <time>2026-08-29T10:29:42Z</time>
      </trkpt>
      <trkpt lat="50.704380981624126" lon="13.233250407502055">
        <ele>446</ele>
        <time>2026-08-29T10:29:43Z</time>
      </trkpt>
      <trkpt lat="50.704386681318283" lon="13.233259627595544">
        <ele>446</ele>
        <time>2026-08-29T10:29:44Z</time>
      </trkpt>
      <trkpt lat="50.704392548650503" lon="13.233266081660986">
        <ele>446</ele>
        <time>2026-08-29T10:29:45Z</time>
      </trkpt>
      <trkpt lat="50.704400260001421" lon="13.233271110802889">
        <ele>446</ele>
        <time>2026-08-29T10:29:46Z</time>
      </trkpt>
      <trkpt lat="50.704407300800085" lon="13.233275804668665">
        <ele>446</ele>
        <time>2026-08-29T10:29:47Z</time>
      </trkpt>
      <trkpt lat="50.704413168132305" lon="13.233282091096044">
        <ele>446</ele>
        <time>2026-08-29T10:29:48Z</time>
      </trkpt>
      <trkpt lat="50.704417526721954" lon="13.23328536003828">
        <ele>445</ele>
        <time>2026-08-29T10:29:49Z</time>
      </trkpt>
      <trkpt lat="50.704425740987062" lon="13.233290472999215">
        <ele>446</ele>
        <time>2026-08-29T10:29:50Z</time>
      </trkpt>
      <trkpt lat="50.704432697966695" lon="13.233294831588864">
        <ele>446</ele>
        <time>2026-08-29T10:29:51Z</time>
      </trkpt>
      <trkpt lat="50.704440660774708" lon="13.233301369473338">
        <ele>446</ele>
        <time>2026-08-29T10:29:52Z</time>
      </trkpt>
      <trkpt lat="50.704448036849499" lon="13.233299190178514">
        <ele>446</ele>
        <time>2026-08-29T10:29:53Z</time>
      </trkpt>
      <trkpt lat="50.704452311620116" lon="13.233308410272002">
        <ele>446</ele>
        <time>2026-08-29T10:29:54Z</time>
      </trkpt>
      <trkpt lat="50.704455664381385" lon="13.233313690871">
        <ele>446</ele>
        <time>2026-08-29T10:29:55Z</time>
      </trkpt>
      <trkpt lat="50.704455748200417" lon="13.233313942328095">
        <ele>446</ele>
        <time>2026-08-29T10:29:56Z</time>
      </trkpt>
      <trkpt lat="50.704452311620116" lon="13.233313104137778">
        <ele>446</ele>
        <time>2026-08-29T10:29:57Z</time>
      </trkpt>
      <trkpt lat="50.704453652724624" lon="13.233316540718079">
        <ele>447</ele>
        <time>2026-08-29T10:29:58Z</time>
      </trkpt>
      <trkpt lat="50.704457508400083" lon="13.233312014490366">
        <ele>447</ele>
        <time>2026-08-29T10:29:59Z</time>
      </trkpt>
      <trkpt lat="50.704459771513939" lon="13.233303464949131">
        <ele>447</ele>
        <time>2026-08-29T10:30:00Z</time>
      </trkpt>
      <trkpt lat="50.70446471683681" lon="13.233302123844624">
        <ele>447</ele>
        <time>2026-08-29T10:30:01Z</time>
      </trkpt>
      <trkpt lat="50.704463627189398" lon="13.233301537111402">
        <ele>447</ele>
        <time>2026-08-29T10:30:02Z</time>
      </trkpt>
      <trkpt lat="50.70446815341711" lon="13.233298603445292">
        <ele>447</ele>
        <time>2026-08-29T10:30:03Z</time>
      </trkpt>
      <trkpt lat="50.704469997435808" lon="13.233299357816577">
        <ele>447</ele>
        <time>2026-08-29T10:30:04Z</time>
      </trkpt>
      <trkpt lat="50.704476702958345" lon="13.233294580131769">
        <ele>447</ele>
        <time>2026-08-29T10:30:05Z</time>
      </trkpt>
      <trkpt lat="50.704481899738312" lon="13.233287874609232">
        <ele>447</ele>
        <time>2026-08-29T10:30:06Z</time>
      </trkpt>
      <trkpt lat="50.704485839232802" lon="13.233285192400217">
        <ele>447</ele>
        <time>2026-08-29T10:30:07Z</time>
      </trkpt>
      <trkpt lat="50.704490197822452" lon="13.233275888487697">
        <ele>447</ele>
        <time>2026-08-29T10:30:08Z</time>
      </trkpt>
      <trkpt lat="50.704493131488562" lon="13.233278235420585">
        <ele>446</ele>
        <time>2026-08-29T10:30:09Z</time>
      </trkpt>
      <trkpt lat="50.704493802040815" lon="13.233276139944792">
        <ele>446</ele>
        <time>2026-08-29T10:30:10Z</time>
      </trkpt>
      <trkpt lat="50.704494724050164" lon="13.233274882659316">
        <ele>447</ele>
        <time>2026-08-29T10:30:11Z</time>
      </trkpt>
      <trkpt lat="50.704493131488562" lon="13.233271697536111">
        <ele>446</ele>
        <time>2026-08-29T10:30:12Z</time>
      </trkpt>
      <trkpt lat="50.704492377117276" lon="13.233266333118081">
        <ele>447</ele>
        <time>2026-08-29T10:30:13Z</time>
      </trkpt>
      <trkpt lat="50.70449061691761" lon="13.233259040862322">
        <ele>447</ele>
        <time>2026-08-29T10:30:14Z</time>
      </trkpt>
      <trkpt lat="50.704492796212435" lon="13.23325308971107">
        <ele>447</ele>
        <time>2026-08-29T10:30:15Z</time>
      </trkpt>
      <trkpt lat="50.704494137316942" lon="13.233242193236947">
        <ele>447</ele>
        <time>2026-08-29T10:30:16Z</time>
      </trkpt>
      <trkpt lat="50.704496987164021" lon="13.233231883496046">
        <ele>447</ele>
        <time>2026-08-29T10:30:17Z</time>
      </trkpt>
      <trkpt lat="50.704497154802084" lon="13.233231548219919">
        <ele>447</ele>
        <time>2026-08-29T10:30:18Z</time>
      </trkpt>
      <trkpt lat="50.704499166458845" lon="13.233225932344794">
        <ele>448</ele>
        <time>2026-08-29T10:30:19Z</time>
      </trkpt>
      <trkpt lat="50.704502770677209" lon="13.233214616775513">
        <ele>448</ele>
        <time>2026-08-29T10:30:20Z</time>
      </trkpt>
      <trkpt lat="50.704505369067192" lon="13.233217131346464">
        <ele>448</ele>
        <time>2026-08-29T10:30:21Z</time>
      </trkpt>
      <trkpt lat="50.704508302733302" lon="13.233223333954811">
        <ele>449</ele>
        <time>2026-08-29T10:30:22Z</time>
      </trkpt>
      <trkpt lat="50.704508638009429" lon="13.233229033648968">
        <ele>449</ele>
        <time>2026-08-29T10:30:23Z</time>
      </trkpt>
      <trkpt lat="50.704508721828461" lon="13.233229368925095">
        <ele>449</ele>
        <time>2026-08-29T10:30:24Z</time>
      </trkpt>
      <trkpt lat="50.704508302733302" lon="13.233221154659986">
        <ele>449</ele>
        <time>2026-08-29T10:30:25Z</time>
      </trkpt>
      <trkpt lat="50.704507967457175" lon="13.233221238479018">
        <ele>449</ele>
        <time>2026-08-29T10:30:26Z</time>
      </trkpt>
      <trkpt lat="50.704507799819112" lon="13.233220065012574">
        <ele>449</ele>
        <time>2026-08-29T10:30:27Z</time>
      </trkpt>
      <trkpt lat="50.704507632181048" lon="13.233220567926764">
        <ele>449</ele>
        <time>2026-08-29T10:30:28Z</time>
      </trkpt>
      <trkpt lat="50.704503022134304" lon="13.233217718079686">
        <ele>449</ele>
        <time>2026-08-29T10:30:29Z</time>
      </trkpt>
      <trkpt lat="50.704502854496241" lon="13.233218053355813">
        <ele>449</ele>
        <time>2026-08-29T10:30:30Z</time>
      </trkpt>
      <trkpt lat="50.704507045447826" lon="13.233212437480688">
        <ele>449</ele>
        <time>2026-08-29T10:30:31Z</time>
      </trkpt>
      <trkpt lat="50.70451064966619" lon="13.233211850747466">
        <ele>449</ele>
        <time>2026-08-29T10:30:32Z</time>
      </trkpt>
      <trkpt lat="50.704510733485222" lon="13.233208078891039">
        <ele>449</ele>
        <time>2026-08-29T10:30:33Z</time>
      </trkpt>
      <trkpt lat="50.704508721828461" lon="13.233196930959821">
        <ele>449</ele>
        <time>2026-08-29T10:30:34Z</time>
      </trkpt>
      <trkpt lat="50.704508721828461" lon="13.233196511864662">
        <ele>449</ele>
        <time>2026-08-29T10:30:35Z</time>
      </trkpt>
      <trkpt lat="50.704508721828461" lon="13.233196511864662">
        <ele>449</ele>
        <time>2026-08-29T10:30:36Z</time>
      </trkpt>
      <trkpt lat="50.704508721828461" lon="13.233196511864662">
        <ele>449</ele>
        <time>2026-08-29T10:30:37Z</time>
      </trkpt>
      <trkpt lat="50.704508889466524" lon="13.233196176588535">
        <ele>449</ele>
        <time>2026-08-29T10:30:38Z</time>
      </trkpt>
      <trkpt lat="50.704509057104588" lon="13.233196344226599">
        <ele>449</ele>
        <time>2026-08-29T10:30:39Z</time>
      </trkpt>
      <trkpt lat="50.704509057104588" lon="13.233196260407567">
        <ele>449</ele>
        <time>2026-08-29T10:30:40Z</time>
      </trkpt>
      <trkpt lat="50.704510062932968" lon="13.233194332569838">
        <ele>449</ele>
        <time>2026-08-29T10:30:41Z</time>
      </trkpt>
      <trkpt lat="50.704508051276207" lon="13.233188716694713">
        <ele>449</ele>
        <time>2026-08-29T10:30:42Z</time>
      </trkpt>
      <trkpt lat="50.704504614695907" lon="13.233185447752476">
        <ele>448</ele>
        <time>2026-08-29T10:30:43Z</time>
      </trkpt>
      <trkpt lat="50.704502100124955" lon="13.233180083334446">
        <ele>447</ele>
        <time>2026-08-29T10:30:44Z</time>
      </trkpt>
      <trkpt lat="50.704505201429129" lon="13.233175305649638">
        <ele>447</ele>
        <time>2026-08-29T10:30:45Z</time>
      </trkpt>
      <trkpt lat="50.704505788162351" lon="13.233173293992877">
        <ele>448</ele>
        <time>2026-08-29T10:30:46Z</time>
      </trkpt>
      <trkpt lat="50.704506458714604" lon="13.233169270679355">
        <ele>447</ele>
        <time>2026-08-29T10:30:47Z</time>
      </trkpt>
      <trkpt lat="50.704506542533636" lon="13.23316901922226">
        <ele>447</ele>
        <time>2026-08-29T10:30:48Z</time>
      </trkpt>
      <trkpt lat="50.704506542533636" lon="13.233168851584196">
        <ele>447</ele>
        <time>2026-08-29T10:30:49Z</time>
      </trkpt>
      <trkpt lat="50.704506626352668" lon="13.233168935403228">
        <ele>447</ele>
        <time>2026-08-29T10:30:50Z</time>
      </trkpt>
      <trkpt lat="50.704506123438478" lon="13.233175808563828">
        <ele>447</ele>
        <time>2026-08-29T10:30:51Z</time>
      </trkpt>
      <trkpt lat="50.704505033791065" lon="13.233166001737118">
        <ele>447</ele>
        <time>2026-08-29T10:30:52Z</time>
      </trkpt>
      <trkpt lat="50.704503692686558" lon="13.233163235709071">
        <ele>447</ele>
        <time>2026-08-29T10:30:53Z</time>
      </trkpt>
      <trkpt lat="50.704501010477543" lon="13.233158877119422">
        <ele>447</ele>
        <time>2026-08-29T10:30:54Z</time>
      </trkpt>
      <trkpt lat="50.704497406259179" lon="13.233144460245967">
        <ele>447</ele>
        <time>2026-08-29T10:30:55Z</time>
      </trkpt>
      <trkpt lat="50.704492460936308" lon="13.233125768601894">
        <ele>448</ele>
        <time>2026-08-29T10:30:56Z</time>
      </trkpt>
      <trkpt lat="50.704485839232802" lon="13.233113531023264">
        <ele>448</ele>
        <time>2026-08-29T10:30:57Z</time>
      </trkpt>
      <trkpt lat="50.704485420137644" lon="13.233101796358824">
        <ele>448</ele>
        <time>2026-08-29T10:30:58Z</time>
      </trkpt>
      <trkpt lat="50.704484498128295" lon="13.233092660084367">
        <ele>448</ele>
        <time>2026-08-29T10:30:59Z</time>
      </trkpt>
      <trkpt lat="50.704483157023787" lon="13.233087379485369">
        <ele>447</ele>
        <time>2026-08-29T10:31:00Z</time>
      </trkpt>
      <trkpt lat="50.704482151195407" lon="13.233079416677356">
        <ele>447</ele>
        <time>2026-08-29T10:31:01Z</time>
      </trkpt>
      <trkpt lat="50.704473182559013" lon="13.233070280402899">
        <ele>447</ele>
        <time>2026-08-29T10:31:02Z</time>
      </trkpt>
      <trkpt lat="50.704469662159681" lon="13.233082015067339">
        <ele>446</ele>
        <time>2026-08-29T10:31:03Z</time>
      </trkpt>
      <trkpt lat="50.704470919445157" lon="13.233092911541462">
        <ele>446</ele>
        <time>2026-08-29T10:31:04Z</time>
      </trkpt>
      <trkpt lat="50.704470500349998" lon="13.233102718368173">
        <ele>447</ele>
        <time>2026-08-29T10:31:05Z</time>
      </trkpt>
      <trkpt lat="50.704470248892903" lon="13.23309869505465">
        <ele>447</ele>
        <time>2026-08-29T10:31:06Z</time>
      </trkpt>
      <trkpt lat="50.704471673816442" lon="13.233091738075018">
        <ele>447</ele>
        <time>2026-08-29T10:31:07Z</time>
      </trkpt>
      <trkpt lat="50.704471673816442" lon="13.233078327029943">
        <ele>447</ele>
        <time>2026-08-29T10:31:08Z</time>
      </trkpt>
      <trkpt lat="50.70446128025651" lon="13.233076566830277">
        <ele>447</ele>
        <time>2026-08-29T10:31:09Z</time>
      </trkpt>
      <trkpt lat="50.704457089304924" lon="13.233069693669677">
        <ele>448</ele>
        <time>2026-08-29T10:31:10Z</time>
      </trkpt>
      <trkpt lat="50.704454742372036" lon="13.233064161613584">
        <ele>448</ele>
        <time>2026-08-29T10:31:11Z</time>
      </trkpt>
      <trkpt lat="50.704455580562353" lon="13.233055863529444">
        <ele>448</ele>
        <time>2026-08-29T10:31:12Z</time>
      </trkpt>
      <trkpt lat="50.70445247925818" lon="13.233042620122433">
        <ele>447</ele>
        <time>2026-08-29T10:31:13Z</time>
      </trkpt>
      <trkpt lat="50.704444097355008" lon="13.233035746961832">
        <ele>448</ele>
        <time>2026-08-29T10:31:14Z</time>
      </trkpt>
      <trkpt lat="50.704433284699917" lon="13.233027867972851">
        <ele>447</ele>
        <time>2026-08-29T10:31:15Z</time>
      </trkpt>
      <trkpt lat="50.704425489529967" lon="13.233010349795222">
        <ele>447</ele>
        <time>2026-08-29T10:31:16Z</time>
      </trkpt>
      <trkpt lat="50.704413000494242" lon="13.232992831617594">
        <ele>447</ele>
        <time>2026-08-29T10:31:17Z</time>
      </trkpt>
      <trkpt lat="50.704401349648833" lon="13.232966428622603">
        <ele>446</ele>
        <time>2026-08-29T10:31:18Z</time>
      </trkpt>
      <trkpt lat="50.704386932775378" lon="13.232945222407579">
        <ele>447</ele>
        <time>2026-08-29T10:31:19Z</time>
      </trkpt>
      <trkpt lat="50.704371677711606" lon="13.232919657602906">
        <ele>447</ele>
        <time>2026-08-29T10:31:20Z</time>
      </trkpt>
      <trkpt lat="50.704356841742992" lon="13.232887806370854">
        <ele>447</ele>
        <time>2026-08-29T10:31:21Z</time>
      </trkpt>
      <trkpt lat="50.704342843964696" lon="13.232863750308752">
        <ele>447</ele>
        <time>2026-08-29T10:31:22Z</time>
      </trkpt>
      <trkpt lat="50.70432641543448" lon="13.232839358970523">
        <ele>447</ele>
        <time>2026-08-29T10:31:23Z</time>
      </trkpt>
      <trkpt lat="50.704311328008771" lon="13.232816811650991">
        <ele>447</ele>
        <time>2026-08-29T10:31:24Z</time>
      </trkpt>
      <trkpt lat="50.704297916963696" lon="13.232786804437637">
        <ele>447</ele>
        <time>2026-08-29T10:31:25Z</time>
      </trkpt>
      <trkpt lat="50.704275872558355" lon="13.232759144157171">
        <ele>447</ele>
        <time>2026-08-29T10:31:26Z</time>
      </trkpt>
      <trkpt lat="50.704260282218456" lon="13.232732489705086">
        <ele>447</ele>
        <time>2026-08-29T10:31:27Z</time>
      </trkpt>
      <trkpt lat="50.704244188964367" lon="13.232695860788226">
        <ele>447</ele>
        <time>2026-08-29T10:31:28Z</time>
      </trkpt>
      <trkpt lat="50.704232789576054" lon="13.232668284326792">
        <ele>448</ele>
        <time>2026-08-29T10:31:29Z</time>
      </trkpt>
      <trkpt lat="50.704220803454518" lon="13.232641713693738">
        <ele>448</ele>
        <time>2026-08-29T10:31:30Z</time>
      </trkpt>
      <trkpt lat="50.704209990799427" lon="13.232606928795576">
        <ele>448</ele>
        <time>2026-08-29T10:31:31Z</time>
      </trkpt>
      <trkpt lat="50.704202111810446" lon="13.232578430324793">
        <ele>448</ele>
        <time>2026-08-29T10:31:32Z</time>
      </trkpt>
      <trkpt lat="50.704195657745004" lon="13.232547333464026">
        <ele>448</ele>
        <time>2026-08-29T10:31:33Z</time>
      </trkpt>
      <trkpt lat="50.70419549010694" lon="13.232511207461357">
        <ele>448</ele>
        <time>2026-08-29T10:31:34Z</time>
      </trkpt>
      <trkpt lat="50.704201273620129" lon="13.232481451705098">
        <ele>449</ele>
        <time>2026-08-29T10:31:35Z</time>
      </trkpt>
      <trkpt lat="50.704211750999093" lon="13.232455467805266">
        <ele>449</ele>
        <time>2026-08-29T10:31:36Z</time>
      </trkpt>
      <trkpt lat="50.70422574877739" lon="13.232440128922462">
        <ele>449</ele>
        <time>2026-08-29T10:31:37Z</time>
      </trkpt>
      <trkpt lat="50.704238321632147" lon="13.232427053153515">
        <ele>449</ele>
        <time>2026-08-29T10:31:38Z</time>
      </trkpt>
      <trkpt lat="50.70424972102046" lon="13.232416491955519">
        <ele>449</ele>
        <time>2026-08-29T10:31:39Z</time>
      </trkpt>
      <trkpt lat="50.7042580191046" lon="13.232396123930812">
        <ele>449</ele>
        <time>2026-08-29T10:31:40Z</time>
      </trkpt>
      <trkpt lat="50.704264808446169" lon="13.232373241335154">
        <ele>449</ele>
        <time>2026-08-29T10:31:41Z</time>
      </trkpt>
      <trkpt lat="50.70427025668323" lon="13.232350023463368">
        <ele>449</ele>
        <time>2026-08-29T10:31:42Z</time>
      </trkpt>
      <trkpt lat="50.704280398786068" lon="13.232332253828645">
        <ele>450</ele>
        <time>2026-08-29T10:31:43Z</time>
      </trkpt>
      <trkpt lat="50.704289870336652" lon="13.232320267707109">
        <ele>449</ele>
        <time>2026-08-29T10:31:44Z</time>
      </trkpt>
      <trkpt lat="50.704303029924631" lon="13.23230467736721">
        <ele>449</ele>
        <time>2026-08-29T10:31:45Z</time>
      </trkpt>
      <trkpt lat="50.704316105693579" lon="13.232282046228647">
        <ele>449</ele>
        <time>2026-08-29T10:31:46Z</time>
      </trkpt>
      <trkpt lat="50.704326331615448" lon="13.232264276593924">
        <ele>449</ele>
        <time>2026-08-29T10:31:47Z</time>
      </trkpt>
      <trkpt lat="50.704342341050506" lon="13.232248770073056">
        <ele>449</ele>
        <time>2026-08-29T10:31:48Z</time>
      </trkpt>
      <trkpt lat="50.704356674104929" lon="13.232227815315127">
        <ele>449</ele>
        <time>2026-08-29T10:31:49Z</time>
      </trkpt>
      <trkpt lat="50.704369330778718" lon="13.232200238853693">
        <ele>448</ele>
        <time>2026-08-29T10:31:50Z</time>
      </trkpt>
      <trkpt lat="50.704383328557014" lon="13.232171656563878">
        <ele>448</ele>
        <time>2026-08-29T10:31:51Z</time>
      </trkpt>
      <trkpt lat="50.704396907240152" lon="13.232149947434664">
        <ele>448</ele>
        <time>2026-08-29T10:31:52Z</time>
      </trkpt>
      <trkpt lat="50.704412078484893" lon="13.232136704027653">
        <ele>448</ele>
        <time>2026-08-29T10:31:53Z</time>
      </trkpt>
      <trkpt lat="50.704426411539316" lon="13.232110133394599">
        <ele>448</ele>
        <time>2026-08-29T10:31:54Z</time>
      </trkpt>
      <trkpt lat="50.704442085698247" lon="13.232080796733499">
        <ele>448</ele>
        <time>2026-08-29T10:31:55Z</time>
      </trkpt>
      <trkpt lat="50.704455580562353" lon="13.232052465900779">
        <ele>448</ele>
        <time>2026-08-29T10:31:56Z</time>
      </trkpt>
      <trkpt lat="50.704464968293905" lon="13.232027068734169">
        <ele>447</ele>
        <time>2026-08-29T10:31:57Z</time>
      </trkpt>
      <trkpt lat="50.704472009092569" lon="13.231989182531834">
        <ele>447</ele>
        <time>2026-08-29T10:31:58Z</time>
      </trkpt>
      <trkpt lat="50.704471925273538" lon="13.231951631605625">
        <ele>446</ele>
        <time>2026-08-29T10:31:59Z</time>
      </trkpt>
      <trkpt lat="50.70447251200676" lon="13.23190838098526">
        <ele>446</ele>
        <time>2026-08-29T10:32:00Z</time>
      </trkpt>
      <trkpt lat="50.704469829797745" lon="13.231869656592607">
        <ele>445</ele>
        <time>2026-08-29T10:32:01Z</time>
      </trkpt>
      <trkpt lat="50.704464381560683" lon="13.231834033504128">
        <ele>445</ele>
        <time>2026-08-29T10:32:02Z</time>
      </trkpt>
      <trkpt lat="50.704465219751" lon="13.231796817854047">
        <ele>445</ele>
        <time>2026-08-29T10:32:03Z</time>
      </trkpt>
      <trkpt lat="50.704466309398413" lon="13.231768319383264">
        <ele>445</ele>
        <time>2026-08-29T10:32:04Z</time>
      </trkpt>
      <trkpt lat="50.704470667988062" lon="13.231743173673749">
        <ele>445</ele>
        <time>2026-08-29T10:32:05Z</time>
      </trkpt>
      <trkpt lat="50.704479133710265" lon="13.231726158410311">
        <ele>446</ele>
        <time>2026-08-29T10:32:06Z</time>
      </trkpt>
      <trkpt lat="50.704486928880215" lon="13.231710316613317">
        <ele>446</ele>
        <time>2026-08-29T10:32:07Z</time>
      </trkpt>
      <trkpt lat="50.70449405349791" lon="13.231703778728843">
        <ele>446</ele>
        <time>2026-08-29T10:32:08Z</time>
      </trkpt>
      <trkpt lat="50.704497070983052" lon="13.231704030185938">
        <ele>446</ele>
        <time>2026-08-29T10:32:09Z</time>
      </trkpt>
      <trkpt lat="50.704494640231133" lon="13.231709310784936">
        <ele>446</ele>
        <time>2026-08-29T10:32:10Z</time>
      </trkpt>
      <trkpt lat="50.704493299126625" lon="13.231706544756889">
        <ele>445</ele>
        <time>2026-08-29T10:32:11Z</time>
      </trkpt>
      <trkpt lat="50.704497070983052" lon="13.231706544756889">
        <ele>445</ele>
        <time>2026-08-29T10:32:12Z</time>
      </trkpt>
      <trkpt lat="50.704496232792735" lon="13.231715681031346">
        <ele>445</ele>
        <time>2026-08-29T10:32:13Z</time>
      </trkpt>
      <trkpt lat="50.70449547842145" lon="13.23172515258193">
        <ele>445</ele>
        <time>2026-08-29T10:32:14Z</time>
      </trkpt>
      <trkpt lat="50.704493634402752" lon="13.231754573062062">
        <ele>445</ele>
        <time>2026-08-29T10:32:15Z</time>
      </trkpt>
      <trkpt lat="50.70449648424983" lon="13.23178575374186">
        <ele>446</ele>
        <time>2026-08-29T10:32:16Z</time>
      </trkpt>
      <trkpt lat="50.70449891500175" lon="13.23180771432817">
        <ele>446</ele>
        <time>2026-08-29T10:32:17Z</time>
      </trkpt>
      <trkpt lat="50.704499250277877" lon="13.231835206970572">
        <ele>446</ele>
        <time>2026-08-29T10:32:18Z</time>
      </trkpt>
      <trkpt lat="50.704501681029797" lon="13.231866220012307">
        <ele>446</ele>
        <time>2026-08-29T10:32:19Z</time>
      </trkpt>
      <trkpt lat="50.704500842839479" lon="13.231900837272406">
        <ele>446</ele>
        <time>2026-08-29T10:32:20Z</time>
      </trkpt>
      <trkpt lat="50.704495394602418" lon="13.231940735131502">
        <ele>446</ele>
        <time>2026-08-29T10:32:21Z</time>
      </trkpt>
      <trkpt lat="50.704493718221784" lon="13.231974933296442">
        <ele>446</ele>
        <time>2026-08-29T10:32:22Z</time>
      </trkpt>
      <trkpt lat="50.704486258327961" lon="13.232000330463052">
        <ele>446</ele>
        <time>2026-08-29T10:32:23Z</time>
      </trkpt>
      <trkpt lat="50.704483659937978" lon="13.23203394189477">
        <ele>446</ele>
        <time>2026-08-29T10:32:24Z</time>
      </trkpt>
      <trkpt lat="50.704485001042485" lon="13.232064452022314">
        <ele>446</ele>
        <time>2026-08-29T10:32:25Z</time>
      </trkpt>
      <trkpt lat="50.704493802040815" lon="13.232087669894099">
        <ele>446</ele>
        <time>2026-08-29T10:32:26Z</time>
      </trkpt>
      <trkpt lat="50.704506291076541" lon="13.232102589681745">
        <ele>445</ele>
        <time>2026-08-29T10:32:27Z</time>
      </trkpt>
      <trkpt lat="50.70451894775033" lon="13.232113653793931">
        <ele>445</ele>
        <time>2026-08-29T10:32:28Z</time>
      </trkpt>
      <trkpt lat="50.704529928043485" lon="13.232122957706451">
        <ele>446</ele>
        <time>2026-08-29T10:32:29Z</time>
      </trkpt>
      <trkpt lat="50.704542752355337" lon="13.232134357094765">
        <ele>446</ele>
        <time>2026-08-29T10:32:30Z</time>
      </trkpt>
      <trkpt lat="50.704555409029126" lon="13.232150953263044">
        <ele>446</ele>
        <time>2026-08-29T10:32:31Z</time>
      </trkpt>
      <trkpt lat="50.704559432342649" lon="13.232160592451692">
        <ele>446</ele>
        <time>2026-08-29T10:32:32Z</time>
      </trkpt>
      <trkpt lat="50.704559180885553" lon="13.232176015153527">
        <ele>446</ele>
        <time>2026-08-29T10:32:33Z</time>
      </trkpt>
      <trkpt lat="50.704552978277206" lon="13.232177020981908">
        <ele>447</ele>
        <time>2026-08-29T10:32:34Z</time>
      </trkpt>
      <trkpt lat="50.704553397372365" lon="13.232180709019303">
        <ele>447</ele>
        <time>2026-08-29T10:32:35Z</time>
      </trkpt>
      <trkpt lat="50.704553481191397" lon="13.232180960476398">
        <ele>447</ele>
        <time>2026-08-29T10:32:36Z</time>
      </trkpt>
      <trkpt lat="50.704553481191397" lon="13.232181211933494">
        <ele>447</ele>
        <time>2026-08-29T10:32:37Z</time>
      </trkpt>
      <trkpt lat="50.704556331038475" lon="13.23218104429543">
        <ele>446</ele>
        <time>2026-08-29T10:32:38Z</time>
      </trkpt>
      <trkpt lat="50.704559599980712" lon="13.23218883946538">
        <ele>446</ele>
        <time>2026-08-29T10:32:39Z</time>
      </trkpt>
      <trkpt lat="50.704562952741981" lon="13.232194958254695">
        <ele>447</ele>
        <time>2026-08-29T10:32:40Z</time>
      </trkpt>
      <trkpt lat="50.704566221684217" lon="13.232203423976898">
        <ele>447</ele>
        <time>2026-08-29T10:32:41Z</time>
      </trkpt>
      <trkpt lat="50.704569322988391" lon="13.232215577736497">
        <ele>447</ele>
        <time>2026-08-29T10:32:42Z</time>
      </trkpt>
      <trkpt lat="50.704577788710594" lon="13.232236700132489">
        <ele>448</ele>
        <time>2026-08-29T10:32:43Z</time>
      </trkpt>
      <trkpt lat="50.704591618850827" lon="13.232258073985577">
        <ele>448</ele>
        <time>2026-08-29T10:32:44Z</time>
      </trkpt>
      <trkpt lat="50.704606873914599" lon="13.232279615476727">
        <ele>448</ele>
        <time>2026-08-29T10:32:45Z</time>
      </trkpt>
      <trkpt lat="50.704618692398071" lon="13.232316663488746">
        <ele>447</ele>
        <time>2026-08-29T10:32:46Z</time>
      </trkpt>
      <trkpt lat="50.704631684347987" lon="13.232360417023301">
        <ele>447</ele>
        <time>2026-08-29T10:32:47Z</time>
      </trkpt>
      <trkpt lat="50.704640233889222" lon="13.232393022626638">
        <ele>447</ele>
        <time>2026-08-29T10:32:48Z</time>
      </trkpt>
      <trkpt lat="50.704652639105916" lon="13.232427639886737">
        <ele>448</ele>
        <time>2026-08-29T10:32:49Z</time>
      </trkpt>
      <trkpt lat="50.704661272466183" lon="13.232466364279389">
        <ele>447</ele>
        <time>2026-08-29T10:32:50Z</time>
      </trkpt>
      <trkpt lat="50.704664289951324" lon="13.232508189976215">
        <ele>447</ele>
        <time>2026-08-29T10:32:51Z</time>
      </trkpt>
      <trkpt lat="50.704672168940306" lon="13.232550518587232">
        <ele>448</ele>
        <time>2026-08-29T10:32:52Z</time>
      </trkpt>
      <trkpt lat="50.704677868634462" lon="13.232587482780218">
        <ele>448</ele>
        <time>2026-08-29T10:32:53Z</time>
      </trkpt>
      <trkpt lat="50.704688429832458" lon="13.2326246984303">
        <ele>448</ele>
        <time>2026-08-29T10:32:54Z</time>
      </trkpt>
      <trkpt lat="50.704701589420438" lon="13.232670295983553">
        <ele>448</ele>
        <time>2026-08-29T10:32:55Z</time>
      </trkpt>
      <trkpt lat="50.704712737351656" lon="13.232700387015939">
        <ele>448</ele>
        <time>2026-08-29T10:32:56Z</time>
      </trkpt>
      <trkpt lat="50.704726651310921" lon="13.232731651514769">
        <ele>448</ele>
        <time>2026-08-29T10:32:57Z</time>
      </trkpt>
      <trkpt lat="50.704735871404409" lon="13.232760485261679">
        <ele>449</ele>
        <time>2026-08-29T10:32:58Z</time>
      </trkpt>
      <trkpt lat="50.70474810898304" lon="13.232795018702745">
        <ele>448</ele>
        <time>2026-08-29T10:32:59Z</time>
      </trkpt>
      <trkpt lat="50.704767219722271" lon="13.232829971238971">
        <ele>448</ele>
        <time>2026-08-29T10:33:00Z</time>
      </trkpt>
      <trkpt lat="50.704779038205743" lon="13.232864420861006">
        <ele>449</ele>
        <time>2026-08-29T10:33:01Z</time>
      </trkpt>
      <trkpt lat="50.704792449250817" lon="13.232896691188216">
        <ele>449</ele>
        <time>2026-08-29T10:33:02Z</time>
      </trkpt>
      <trkpt lat="50.704808458685875" lon="13.232930805534124">
        <ele>449</ele>
        <time>2026-08-29T10:33:03Z</time>
      </trkpt>
      <trkpt lat="50.704821953549981" lon="13.232957795262337">
        <ele>449</ele>
        <time>2026-08-29T10:33:04Z</time>
      </trkpt>
      <trkpt lat="50.704834861680865" lon="13.232985958456993">
        <ele>449</ele>
        <time>2026-08-29T10:33:05Z</time>
      </trkpt>
      <trkpt lat="50.704848440364003" lon="13.233015043660998">
        <ele>450</ele>
        <time>2026-08-29T10:33:06Z</time>
      </trkpt>
      <trkpt lat="50.704857828095555" lon="13.233040859922767">
        <ele>449</ele>
        <time>2026-08-29T10:33:07Z</time>
      </trkpt>
      <trkpt lat="50.70487174205482" lon="13.233065083622932">
        <ele>449</ele>
        <time>2026-08-29T10:33:08Z</time>
      </trkpt>
      <trkpt lat="50.704888170585036" lon="13.233092408627272">
        <ele>448</ele>
        <time>2026-08-29T10:33:09Z</time>
      </trkpt>
      <trkpt lat="50.704904263839126" lon="13.233113782480359">
        <ele>448</ele>
        <time>2026-08-29T10:33:10Z</time>
      </trkpt>
      <trkpt lat="50.704921362921596" lon="13.233144795522094">
        <ele>448</ele>
        <time>2026-08-29T10:33:11Z</time>
      </trkpt>
      <trkpt lat="50.704941898584366" lon="13.233182765543461">
        <ele>448</ele>
        <time>2026-08-29T10:33:12Z</time>
      </trkpt>
      <trkpt lat="50.704964948818088" lon="13.233223920688033">
        <ele>447</ele>
        <time>2026-08-29T10:33:13Z</time>
      </trkpt>
      <trkpt lat="50.704989926889539" lon="13.233258537948132">
        <ele>448</ele>
        <time>2026-08-29T10:33:14Z</time>
      </trkpt>
      <trkpt lat="50.705022197216749" lon="13.233306398615241">
        <ele>448</ele>
        <time>2026-08-29T10:33:15Z</time>
      </trkpt>
      <trkpt lat="50.705049438402057" lon="13.233357779681683">
        <ele>448</ele>
        <time>2026-08-29T10:33:16Z</time>
      </trkpt>
      <trkpt lat="50.705083468928933" lon="13.233406478539109">
        <ele>448</ele>
        <time>2026-08-29T10:33:17Z</time>
      </trkpt>
      <trkpt lat="50.705118421465158" lon="13.233457691967487">
        <ele>447</ele>
        <time>2026-08-29T10:33:18Z</time>
      </trkpt>
      <trkpt lat="50.70515857078135" lon="13.233512677252293">
        <ele>446</ele>
        <time>2026-08-29T10:33:19Z</time>
      </trkpt>
      <trkpt lat="50.705191427841783" lon="13.233563555404544">
        <ele>446</ele>
        <time>2026-08-29T10:33:20Z</time>
      </trkpt>
      <trkpt lat="50.705233169719577" lon="13.233618456870317">
        <ele>446</ele>
        <time>2026-08-29T10:33:21Z</time>
      </trkpt>
      <trkpt lat="50.705271810293198" lon="13.233681404963136">
        <ele>446</ele>
        <time>2026-08-29T10:33:22Z</time>
      </trkpt>
      <trkpt lat="50.705313133075833" lon="13.233729097992182">
        <ele>446</ele>
        <time>2026-08-29T10:33:23Z</time>
      </trkpt>
      <trkpt lat="50.705347079783678" lon="13.233773857355118">
        <ele>445</ele>
        <time>2026-08-29T10:33:24Z</time>
      </trkpt>
      <trkpt lat="50.705384630709887" lon="13.233826663345098">
        <ele>444</ele>
        <time>2026-08-29T10:33:25Z</time>
      </trkpt>
      <trkpt lat="50.705417739227414" lon="13.233870584517717">
        <ele>444</ele>
        <time>2026-08-29T10:33:26Z</time>
      </trkpt>
      <trkpt lat="50.705452021211386" lon="13.233916517347097">
        <ele>444</ele>
        <time>2026-08-29T10:33:27Z</time>
      </trkpt>
      <trkpt lat="50.705479178577662" lon="13.233953230082989">
        <ele>444</ele>
        <time>2026-08-29T10:33:28Z</time>
      </trkpt>
      <trkpt lat="50.705511951819062" lon="13.233983656391501">
        <ele>443</ele>
        <time>2026-08-29T10:33:29Z</time>
      </trkpt>
      <trkpt lat="50.705549251288176" lon="13.234008885920048">
        <ele>443</ele>
        <time>2026-08-29T10:33:30Z</time>
      </trkpt>
      <trkpt lat="50.705582778900862" lon="13.234032858163118">
        <ele>443</ele>
        <time>2026-08-29T10:33:31Z</time>
      </trkpt>
      <trkpt lat="50.705618737265468" lon="13.234050879254937">
        <ele>443</ele>
        <time>2026-08-29T10:33:32Z</time>
      </trkpt>
      <trkpt lat="50.705658467486501" lon="13.23406127281487">
        <ele>443</ele>
        <time>2026-08-29T10:33:33Z</time>
      </trkpt>
      <trkpt lat="50.705703310668468" lon="13.234060183167458">
        <ele>443</ele>
        <time>2026-08-29T10:33:34Z</time>
      </trkpt>
      <trkpt lat="50.705742370337248" lon="13.234033947810531">
        <ele>443</ele>
        <time>2026-08-29T10:33:35Z</time>
      </trkpt>
      <trkpt lat="50.705779502168298" lon="13.233995223417878">
        <ele>443</ele>
        <time>2026-08-29T10:33:36Z</time>
      </trkpt>
      <trkpt lat="50.70581235922873" lon="13.233951386064291">
        <ele>443</ele>
        <time>2026-08-29T10:33:37Z</time>
      </trkpt>
      <trkpt lat="50.70584312081337" lon="13.233921127393842">
        <ele>443</ele>
        <time>2026-08-29T10:33:38Z</time>
      </trkpt>
      <trkpt lat="50.705865668132901" lon="13.233883241191506">
        <ele>443</ele>
        <time>2026-08-29T10:33:39Z</time>
      </trkpt>
      <trkpt lat="50.705890981480479" lon="13.233836553990841">
        <ele>444</ele>
        <time>2026-08-29T10:33:40Z</time>
      </trkpt>
      <trkpt lat="50.705908918753266" lon="13.233788777142763">
        <ele>444</ele>
        <time>2026-08-29T10:33:41Z</time>
      </trkpt>
      <trkpt lat="50.70592325180769" lon="13.233742257580161">
        <ele>444</ele>
        <time>2026-08-29T10:33:42Z</time>
      </trkpt>
      <trkpt lat="50.705937668681145" lon="13.233698671683669">
        <ele>444</ele>
        <time>2026-08-29T10:33:43Z</time>
      </trkpt>
      <trkpt lat="50.705954683944583" lon="13.233651565387845">
        <ele>444</ele>
        <time>2026-08-29T10:33:44Z</time>
      </trkpt>
      <trkpt lat="50.705974297598004" lon="13.233608566224575">
        <ele>444</ele>
        <time>2026-08-29T10:33:45Z</time>
      </trkpt>
      <trkpt lat="50.705996258184314" lon="13.233562465757132">
        <ele>444</ele>
        <time>2026-08-29T10:33:46Z</time>
      </trkpt>
      <trkpt lat="50.706011010333896" lon="13.233497589826584">
        <ele>444</ele>
        <time>2026-08-29T10:33:47Z</time>
      </trkpt>
      <trkpt lat="50.706027522683144" lon="13.23344268836081">
        <ele>444</ele>
        <time>2026-08-29T10:33:48Z</time>
      </trkpt>
      <trkpt lat="50.706042777746916" lon="13.233391223475337">
        <ele>444</ele>
        <time>2026-08-29T10:33:49Z</time>
      </trkpt>
      <trkpt lat="50.706058368086815" lon="13.23333028703928">
        <ele>444</ele>
        <time>2026-08-29T10:33:50Z</time>
      </trkpt>
      <trkpt lat="50.706071527674794" lon="13.233278067782521">
        <ele>443</ele>
        <time>2026-08-29T10:33:51Z</time>
      </trkpt>
      <trkpt lat="50.706085776910186" lon="13.233226519078016">
        <ele>443</ele>
        <time>2026-08-29T10:33:52Z</time>
      </trkpt>
      <trkpt lat="50.706089800223708" lon="13.233173880726099">
        <ele>443</ele>
        <time>2026-08-29T10:33:53Z</time>
      </trkpt>
      <trkpt lat="50.70609382353723" lon="13.233135240152478">
        <ele>443</ele>
        <time>2026-08-29T10:33:54Z</time>
      </trkpt>
      <trkpt lat="50.706102540716529" lon="13.233095929026604">
        <ele>443</ele>
        <time>2026-08-29T10:33:55Z</time>
      </trkpt>
      <trkpt lat="50.70611285045743" lon="13.233060808852315">
        <ele>443</ele>
        <time>2026-08-29T10:33:56Z</time>
      </trkpt>
      <trkpt lat="50.706126512959599" lon="13.233023090288043">
        <ele>443</ele>
        <time>2026-08-29T10:33:57Z</time>
      </trkpt>
      <trkpt lat="50.70613531395793" lon="13.23298143222928">
        <ele>443</ele>
        <time>2026-08-29T10:33:58Z</time>
      </trkpt>
      <trkpt lat="50.706140007823706" lon="13.232937343418598">
        <ele>443</ele>
        <time>2026-08-29T10:33:59Z</time>
      </trkpt>
      <trkpt lat="50.706145958974957" lon="13.232889650389552">
        <ele>443</ele>
        <time>2026-08-29T10:34:00Z</time>
      </trkpt>
      <trkpt lat="50.706157023087144" lon="13.23283969424665">
        <ele>443</ele>
        <time>2026-08-29T10:34:01Z</time>
      </trkpt>
      <trkpt lat="50.706169512122869" lon="13.23279476724565">
        <ele>443</ele>
        <time>2026-08-29T10:34:02Z</time>
      </trkpt>
      <trkpt lat="50.706184431910515" lon="13.232750343158841">
        <ele>443</ele>
        <time>2026-08-29T10:34:03Z</time>
      </trkpt>
      <trkpt lat="50.706196250393987" lon="13.232710445299745">
        <ele>443</ele>
        <time>2026-08-29T10:34:04Z</time>
      </trkpt>
      <trkpt lat="50.70620521903038" lon="13.232670212164521">
        <ele>443</ele>
        <time>2026-08-29T10:34:05Z</time>
      </trkpt>
      <trkpt lat="50.706212511286139" lon="13.232637271285057">
        <ele>443</ele>
        <time>2026-08-29T10:34:06Z</time>
      </trkpt>
      <trkpt lat="50.706224413588643" lon="13.232608688995242">
        <ele>443</ele>
        <time>2026-08-29T10:34:07Z</time>
      </trkpt>
      <trkpt lat="50.706235729157925" lon="13.232582286000252">
        <ele>444</ele>
        <time>2026-08-29T10:34:08Z</time>
      </trkpt>
      <trkpt lat="50.706246960908175" lon="13.232557140290737">
        <ele>443</ele>
        <time>2026-08-29T10:34:09Z</time>
      </trkpt>
      <trkpt lat="50.706253666430712" lon="13.232535347342491">
        <ele>443</ele>
        <time>2026-08-29T10:34:10Z</time>
      </trkpt>
      <trkpt lat="50.706254253163934" lon="13.232509363442659">
        <ele>443</ele>
        <time>2026-08-29T10:34:11Z</time>
      </trkpt>
      <trkpt lat="50.706258360296488" lon="13.232483211904764">
        <ele>443</ele>
        <time>2026-08-29T10:34:12Z</time>
      </trkpt>
      <trkpt lat="50.706264730542898" lon="13.232451947405934">
        <ele>443</ele>
        <time>2026-08-29T10:34:13Z</time>
      </trkpt>
      <trkpt lat="50.706275794655085" lon="13.23241556994617">
        <ele>443</ele>
        <time>2026-08-29T10:34:14Z</time>
      </trkpt>
      <trkpt lat="50.706282751634717" lon="13.23237651027739">
        <ele>443</ele>
        <time>2026-08-29T10:34:15Z</time>
      </trkpt>
      <trkpt lat="50.706286188215017" lon="13.232334852218628">
        <ele>443</ele>
        <time>2026-08-29T10:34:16Z</time>
      </trkpt>
      <trkpt lat="50.706291301175952" lon="13.232287997379899">
        <ele>442</ele>
        <time>2026-08-29T10:34:17Z</time>
      </trkpt>
      <trkpt lat="50.70630001835525" lon="13.232248183339834">
        <ele>442</ele>
        <time>2026-08-29T10:34:18Z</time>
      </trkpt>
      <trkpt lat="50.706310411915183" lon="13.232200741767883">
        <ele>442</ele>
        <time>2026-08-29T10:34:19Z</time>
      </trkpt>
      <trkpt lat="50.706324242055416" lon="13.232147349044681">
        <ele>442</ele>
        <time>2026-08-29T10:34:20Z</time>
      </trkpt>
      <trkpt lat="50.706338742747903" lon="13.232096387073398">
        <ele>442</ele>
        <time>2026-08-29T10:34:21Z</time>
      </trkpt>
      <trkpt lat="50.706351231783628" lon="13.232042910531163">
        <ele>442</ele>
        <time>2026-08-29T10:34:22Z</time>
      </trkpt>
      <trkpt lat="50.706361122429371" lon="13.231994463130832">
        <ele>441</ele>
        <time>2026-08-29T10:34:23Z</time>
      </trkpt>
      <trkpt lat="50.706369336694479" lon="13.231941992416978">
        <ele>441</ele>
        <time>2026-08-29T10:34:24Z</time>
      </trkpt>
      <trkpt lat="50.706379730254412" lon="13.231889186426997">
        <ele>441</ele>
        <time>2026-08-29T10:34:25Z</time>
      </trkpt>
      <trkpt lat="50.706392303109169" lon="13.231840571388602">
        <ele>442</ele>
        <time>2026-08-29T10:34:26Z</time>
      </trkpt>
      <trkpt lat="50.706405462697148" lon="13.231792626902461">
        <ele>442</ele>
        <time>2026-08-29T10:34:27Z</time>
      </trkpt>
      <trkpt lat="50.706419292837381" lon="13.23174468241632">
        <ele>442</ele>
        <time>2026-08-29T10:34:28Z</time>
      </trkpt>
      <trkpt lat="50.706430105492473" lon="13.231699503958225">
        <ele>442</ele>
        <time>2026-08-29T10:34:29Z</time>
      </trkpt>
      <trkpt lat="50.706437900662422" lon="13.231646362692118">
        <ele>442</ele>
        <time>2026-08-29T10:34:30Z</time>
      </trkpt>
      <trkpt lat="50.706448126584291" lon="13.231594981625676">
        <ele>442</ele>
        <time>2026-08-29T10:34:31Z</time>
      </trkpt>
      <trkpt lat="50.706459693610668" lon="13.231548964977264">
        <ele>442</ele>
        <time>2026-08-29T10:34:32Z</time>
      </trkpt>
      <trkpt lat="50.706469919532537" lon="13.231500182300806">
        <ele>442</ele>
        <time>2026-08-29T10:34:33Z</time>
      </trkpt>
      <trkpt lat="50.706480899825692" lon="13.231452824547887">
        <ele>441</ele>
        <time>2026-08-29T10:34:34Z</time>
      </trkpt>
      <trkpt lat="50.706493724137545" lon="13.231402700766921">
        <ele>441</ele>
        <time>2026-08-29T10:34:35Z</time>
      </trkpt>
      <trkpt lat="50.706507554277778" lon="13.231351571157575">
        <ele>441</ele>
        <time>2026-08-29T10:34:36Z</time>
      </trkpt>
      <trkpt lat="50.706519959494472" lon="13.231304632499814">
        <ele>441</ele>
        <time>2026-08-29T10:34:37Z</time>
      </trkpt>
      <trkpt lat="50.706531777977943" lon="13.231255682185292">
        <ele>441</ele>
        <time>2026-08-29T10:34:38Z</time>
      </trkpt>
      <trkpt lat="50.706541081890464" lon="13.231206983327866">
        <ele>440</ele>
        <time>2026-08-29T10:34:39Z</time>
      </trkpt>
      <trkpt lat="50.706550050526857" lon="13.231156943365932">
        <ele>441</ele>
        <time>2026-08-29T10:34:40Z</time>
      </trkpt>
      <trkpt lat="50.706560779362917" lon="13.231107154861093">
        <ele>441</ele>
        <time>2026-08-29T10:34:41Z</time>
      </trkpt>
      <trkpt lat="50.706573352217674" lon="13.231054013594985">
        <ele>441</ele>
        <time>2026-08-29T10:34:42Z</time>
      </trkpt>
      <trkpt lat="50.706574274227023" lon="13.230987880378962">
        <ele>441</ele>
        <time>2026-08-29T10:34:43Z</time>
      </trkpt>
      <trkpt lat="50.706583829596639" lon="13.230931721627712">
        <ele>441</ele>
        <time>2026-08-29T10:34:44Z</time>
      </trkpt>
      <trkpt lat="50.706598246470094" lon="13.230882352218032">
        <ele>441</ele>
        <time>2026-08-29T10:34:45Z</time>
      </trkpt>
      <trkpt lat="50.706610064953566" lon="13.230829378589988">
        <ele>441</ele>
        <time>2026-08-29T10:34:46Z</time>
      </trkpt>
      <trkpt lat="50.706621129065752" lon="13.230776991695166">
        <ele>440</ele>
        <time>2026-08-29T10:34:47Z</time>
      </trkpt>
      <trkpt lat="50.706634121015668" lon="13.230725359171629">
        <ele>440</ele>
        <time>2026-08-29T10:34:48Z</time>
      </trkpt>
      <trkpt lat="50.706645855680108" lon="13.23067020624876">
        <ele>440</ele>
        <time>2026-08-29T10:34:49Z</time>
      </trkpt>
      <trkpt lat="50.706654572859406" lon="13.230626117438078">
        <ele>440</ele>
        <time>2026-08-29T10:34:50Z</time>
      </trkpt>
      <trkpt lat="50.706667480990291" lon="13.230578927323222">
        <ele>440</ele>
        <time>2026-08-29T10:34:51Z</time>
      </trkpt>
      <trkpt lat="50.706680808216333" lon="13.230525953695178">
        <ele>440</ele>
        <time>2026-08-29T10:34:52Z</time>
      </trkpt>
      <trkpt lat="50.706694889813662" lon="13.230471471324563">
        <ele>440</ele>
        <time>2026-08-29T10:34:53Z</time>
      </trkpt>
      <trkpt lat="50.706708049401641" lon="13.230419922620058">
        <ele>440</ele>
        <time>2026-08-29T10:34:54Z</time>
      </trkpt>
      <trkpt lat="50.706716598942876" lon="13.230367116630077">
        <ele>440</ele>
        <time>2026-08-29T10:34:55Z</time>
      </trkpt>
      <trkpt lat="50.70672657340765" lon="13.230315232649446">
        <ele>440</ele>
        <time>2026-08-29T10:34:56Z</time>
      </trkpt>
      <trkpt lat="50.706737469881773" lon="13.230270221829414">
        <ele>440</ele>
        <time>2026-08-29T10:34:57Z</time>
      </trkpt>
      <trkpt lat="50.706751719117165" lon="13.230215907096863">
        <ele>440</ele>
        <time>2026-08-29T10:34:58Z</time>
      </trkpt>
      <trkpt lat="50.706763789057732" lon="13.230164777487516">
        <ele>440</ele>
        <time>2026-08-29T10:34:59Z</time>
      </trkpt>
      <trkpt lat="50.706773679703474" lon="13.230111133307219">
        <ele>440</ele>
        <time>2026-08-29T10:35:00Z</time>
      </trkpt>
      <trkpt lat="50.706782564520836" lon="13.230056650936604">
        <ele>440</ele>
        <time>2026-08-29T10:35:01Z</time>
      </trkpt>
      <trkpt lat="50.706791868433356" lon="13.23000225238502">
        <ele>440</ele>
        <time>2026-08-29T10:35:02Z</time>
      </trkpt>
      <trkpt lat="50.706802681088448" lon="13.229950787499547">
        <ele>440</ele>
        <time>2026-08-29T10:35:03Z</time>
      </trkpt>
      <trkpt lat="50.706814918667078" lon="13.229890102520585">
        <ele>440</ele>
        <time>2026-08-29T10:35:04Z</time>
      </trkpt>
      <trkpt lat="50.706825815141201" lon="13.229834530502558">
        <ele>440</ele>
        <time>2026-08-29T10:35:05Z</time>
      </trkpt>
      <trkpt lat="50.706839561462402" lon="13.229773258790374">
        <ele>440</ele>
        <time>2026-08-29T10:35:06Z</time>
      </trkpt>
      <trkpt lat="50.706850122660398" lon="13.229718776419759">
        <ele>440</ele>
        <time>2026-08-29T10:35:07Z</time>
      </trkpt>
      <trkpt lat="50.70685900747776" lon="13.229663958773017">
        <ele>440</ele>
        <time>2026-08-29T10:35:08Z</time>
      </trkpt>
      <trkpt lat="50.706866551190615" lon="13.229608302935958">
        <ele>440</ele>
        <time>2026-08-29T10:35:09Z</time>
      </trkpt>
      <trkpt lat="50.70687610656023" lon="13.229555580765009">
        <ele>440</ele>
        <time>2026-08-29T10:35:10Z</time>
      </trkpt>
      <trkpt lat="50.706889098510146" lon="13.229504367336631">
        <ele>440</ele>
        <time>2026-08-29T10:35:11Z</time>
      </trkpt>
      <trkpt lat="50.706899911165237" lon="13.229455584660172">
        <ele>440</ele>
        <time>2026-08-29T10:35:12Z</time>
      </trkpt>
      <trkpt lat="50.706910472363234" lon="13.229402862489223">
        <ele>440</ele>
        <time>2026-08-29T10:35:13Z</time>
      </trkpt>
      <trkpt lat="50.706922290846705" lon="13.229353073984385">
        <ele>440</ele>
        <time>2026-08-29T10:35:14Z</time>
      </trkpt>
      <trkpt lat="50.706932600587606" lon="13.229303117841482">
        <ele>440</ele>
        <time>2026-08-29T10:35:15Z</time>
      </trkpt>
      <trkpt lat="50.706938551738858" lon="13.229251988232136">
        <ele>440</ele>
        <time>2026-08-29T10:35:16Z</time>
      </trkpt>
      <trkpt lat="50.706950789317489" lon="13.229203373193741">
        <ele>440</ele>
        <time>2026-08-29T10:35:17Z</time>
      </trkpt>
      <trkpt lat="50.706964368000627" lon="13.229157691821456">
        <ele>440</ele>
        <time>2026-08-29T10:35:18Z</time>
      </trkpt>
      <trkpt lat="50.70697627030313" lon="13.22910807095468">
        <ele>440</ele>
        <time>2026-08-29T10:35:19Z</time>
      </trkpt>
      <trkpt lat="50.706987837329507" lon="13.229054845869541">
        <ele>440</ele>
        <time>2026-08-29T10:35:20Z</time>
      </trkpt>
      <trkpt lat="50.706997979432344" lon="13.22900447063148">
        <ele>440</ele>
        <time>2026-08-29T10:35:21Z</time>
      </trkpt>
      <trkpt lat="50.707013737410307" lon="13.228956190869212">
        <ele>440</ele>
        <time>2026-08-29T10:35:22Z</time>
      </trkpt>
      <trkpt lat="50.70702807046473" lon="13.228907659649849">
        <ele>440</ele>
        <time>2026-08-29T10:35:23Z</time>
      </trkpt>
      <trkpt lat="50.70703930221498" lon="13.228859882801771">
        <ele>440</ele>
        <time>2026-08-29T10:35:24Z</time>
      </trkpt>
      <trkpt lat="50.707051791250706" lon="13.22880707681179">
        <ele>440</ele>
        <time>2026-08-29T10:35:25Z</time>
      </trkpt>
      <trkpt lat="50.707064028829336" lon="13.228759383782744">
        <ele>440</ele>
        <time>2026-08-29T10:35:26Z</time>
      </trkpt>
      <trkpt lat="50.707074757665396" lon="13.228720240294933">
        <ele>440</ele>
        <time>2026-08-29T10:35:27Z</time>
      </trkpt>
      <trkpt lat="50.707086324691772" lon="13.228678246960044">
        <ele>440</ele>
        <time>2026-08-29T10:35:28Z</time>
      </trkpt>
      <trkpt lat="50.707094538956881" lon="13.22863508015871">
        <ele>440</ele>
        <time>2026-08-29T10:35:29Z</time>
      </trkpt>
      <trkpt lat="50.707105938345194" lon="13.228591326624155">
        <ele>440</ele>
        <time>2026-08-29T10:35:30Z</time>
      </trkpt>
      <trkpt lat="50.707113482058048" lon="13.22855344042182">
        <ele>440</ele>
        <time>2026-08-29T10:35:31Z</time>
      </trkpt>
      <trkpt lat="50.707117589190602" lon="13.228521086275578">
        <ele>440</ele>
        <time>2026-08-29T10:35:32Z</time>
      </trkpt>
      <trkpt lat="50.707119768485427" lon="13.228488396853209">
        <ele>440</ele>
        <time>2026-08-29T10:35:33Z</time>
      </trkpt>
      <trkpt lat="50.707114152610302" lon="13.228456294164062">
        <ele>440</ele>
        <time>2026-08-29T10:35:34Z</time>
      </trkpt>
      <trkpt lat="50.707098478451371" lon="13.228424778208137">
        <ele>440</ele>
        <time>2026-08-29T10:35:35Z</time>
      </trkpt>
      <trkpt lat="50.707082469016314" lon="13.228396447375417">
        <ele>439</ele>
        <time>2026-08-29T10:35:36Z</time>
      </trkpt>
      <trkpt lat="50.707066543400288" lon="13.2283731456846">
        <ele>440</ele>
        <time>2026-08-29T10:35:37Z</time>
      </trkpt>
      <trkpt lat="50.707055563107133" lon="13.228347161784768">
        <ele>440</ele>
        <time>2026-08-29T10:35:38Z</time>
      </trkpt>
      <trkpt lat="50.707047851756215" lon="13.228332493454218">
        <ele>440</ele>
        <time>2026-08-29T10:35:39Z</time>
      </trkpt>
      <trkpt lat="50.70703343488276" lon="13.228334840387106">
        <ele>440</ele>
        <time>2026-08-29T10:35:40Z</time>
      </trkpt>
      <trkpt lat="50.707027651369572" lon="13.228352358564734">
        <ele>440</ele>
        <time>2026-08-29T10:35:41Z</time>
      </trkpt>
      <trkpt lat="50.707030920311809" lon="13.228367613628507">
        <ele>440</ele>
        <time>2026-08-29T10:35:42Z</time>
      </trkpt>
      <trkpt lat="50.707037793472409" lon="13.228376833721995">
        <ele>440</ele>
        <time>2026-08-29T10:35:43Z</time>
      </trkpt>
      <trkpt lat="50.707053551450372" lon="13.228389406576753">
        <ele>441</ele>
        <time>2026-08-29T10:35:44Z</time>
      </trkpt>
      <trkpt lat="50.707063945010304" lon="13.228383455425501">
        <ele>441</ele>
        <time>2026-08-29T10:35:45Z</time>
      </trkpt>
      <trkpt lat="50.707073248922825" lon="13.22838538326323">
        <ele>441</ele>
        <time>2026-08-29T10:35:46Z</time>
      </trkpt>
      <trkpt lat="50.707083474844694" lon="13.22839024476707">
        <ele>441</ele>
        <time>2026-08-29T10:35:47Z</time>
      </trkpt>
      <trkpt lat="50.707097137346864" lon="13.228396279737353">
        <ele>441</ele>
        <time>2026-08-29T10:35:48Z</time>
      </trkpt>
      <trkpt lat="50.707112224772573" lon="13.228400219231844">
        <ele>441</ele>
        <time>2026-08-29T10:35:49Z</time>
      </trkpt>
      <trkpt lat="50.707118008285761" lon="13.228387730196118">
        <ele>441</ele>
        <time>2026-08-29T10:35:50Z</time>
      </trkpt>
      <trkpt lat="50.707128569483757" lon="13.228371804580092">
        <ele>441</ele>
        <time>2026-08-29T10:35:51Z</time>
      </trkpt>
      <trkpt lat="50.707140471786261" lon="13.228357974439859">
        <ele>440</ele>
        <time>2026-08-29T10:35:52Z</time>
      </trkpt>
      <trkpt lat="50.707156397402287" lon="13.228338528424501">
        <ele>440</ele>
        <time>2026-08-29T10:35:53Z</time>
      </trkpt>
      <trkpt lat="50.707168970257044" lon="13.228312795981765">
        <ele>439</ele>
        <time>2026-08-29T10:35:54Z</time>
      </trkpt>
      <trkpt lat="50.707182381302118" lon="13.228290919214487">
        <ele>439</ele>
        <time>2026-08-29T10:35:55Z</time>
      </trkpt>
      <trkpt lat="50.707193110138178" lon="13.228263845667243">
        <ele>439</ele>
        <time>2026-08-29T10:35:56Z</time>
      </trkpt>
      <trkpt lat="50.707200318574905" lon="13.22823878377676">
        <ele>439</ele>
        <time>2026-08-29T10:35:57Z</time>
      </trkpt>
      <trkpt lat="50.707204593345523" lon="13.228214727714658">
        <ele>439</ele>
        <time>2026-08-29T10:35:58Z</time>
      </trkpt>
      <trkpt lat="50.707206102088094" lon="13.228187821805477">
        <ele>439</ele>
        <time>2026-08-29T10:35:59Z</time>
      </trkpt>
      <trkpt lat="50.707213981077075" lon="13.228159323334694">
        <ele>439</ele>
        <time>2026-08-29T10:36:00Z</time>
      </trkpt>
      <trkpt lat="50.707231247797608" lon="13.228127975016832">
        <ele>439</ele>
        <time>2026-08-29T10:36:01Z</time>
      </trkpt>
      <trkpt lat="50.707251112908125" lon="13.228099057450891">
        <ele>439</ele>
        <time>2026-08-29T10:36:02Z</time>
      </trkpt>
      <trkpt lat="50.707272738218307" lon="13.228067541494966">
        <ele>439</ele>
        <time>2026-08-29T10:36:03Z</time>
      </trkpt>
      <trkpt lat="50.707294950261712" lon="13.228040635585785">
        <ele>439</ele>
        <time>2026-08-29T10:36:04Z</time>
      </trkpt>
      <trkpt lat="50.707316910848022" lon="13.228017166256905">
        <ele>439</ele>
        <time>2026-08-29T10:36:05Z</time>
      </trkpt>
      <trkpt lat="50.707340631633997" lon="13.227996211498976">
        <ele>439</ele>
        <time>2026-08-29T10:36:06Z</time>
      </trkpt>
      <trkpt lat="50.707364687696099" lon="13.2279690541327">
        <ele>439</ele>
        <time>2026-08-29T10:36:07Z</time>
      </trkpt>
      <trkpt lat="50.707390587776899" lon="13.227935945615172">
        <ele>439</ele>
        <time>2026-08-29T10:36:08Z</time>
      </trkpt>
      <trkpt lat="50.70741506293416" lon="13.227903926745057">
        <ele>439</ele>
        <time>2026-08-29T10:36:09Z</time>
      </trkpt>
      <trkpt lat="50.707441298291087" lon="13.227876015007496">
        <ele>440</ele>
        <time>2026-08-29T10:36:10Z</time>
      </trkpt>
      <trkpt lat="50.707467449828982" lon="13.227842738851905">
        <ele>440</ele>
        <time>2026-08-29T10:36:11Z</time>
      </trkpt>
      <trkpt lat="50.707496367394924" lon="13.227815749123693">
        <ele>440</ele>
        <time>2026-08-29T10:36:12Z</time>
      </trkpt>
      <trkpt lat="50.707528386265039" lon="13.227794207632542">
        <ele>440</ele>
        <time>2026-08-29T10:36:13Z</time>
      </trkpt>
      <trkpt lat="50.707558309659362" lon="13.2277652900666">
        <ele>440</ele>
        <time>2026-08-29T10:36:14Z</time>
      </trkpt>
      <trkpt lat="50.707584377378225" lon="13.227742658928037">
        <ele>440</ele>
        <time>2026-08-29T10:36:15Z</time>
      </trkpt>
      <trkpt lat="50.707616396248341" lon="13.22771642357111">
        <ele>440</ele>
        <time>2026-08-29T10:36:16Z</time>
      </trkpt>
      <trkpt lat="50.70764321833849" lon="13.227695301175117">
        <ele>441</ele>
        <time>2026-08-29T10:36:17Z</time>
      </trkpt>
      <trkpt lat="50.707670878618956" lon="13.227679627016187">
        <ele>441</ele>
        <time>2026-08-29T10:36:18Z</time>
      </trkpt>
      <trkpt lat="50.70769895799458" lon="13.22765733115375">
        <ele>441</ele>
        <time>2026-08-29T10:36:19Z</time>
      </trkpt>
      <trkpt lat="50.707722259685397" lon="13.22763629257679">
        <ele>441</ele>
        <time>2026-08-29T10:36:20Z</time>
      </trkpt>
      <trkpt lat="50.707749668508768" lon="13.227617517113686">
        <ele>441</ele>
        <time>2026-08-29T10:36:21Z</time>
      </trkpt>
      <trkpt lat="50.707776239141822" lon="13.227600166574121">
        <ele>441</ele>
        <time>2026-08-29T10:36:22Z</time>
      </trkpt>
      <trkpt lat="50.707804569974542" lon="13.22758985683322">
        <ele>442</ele>
        <time>2026-08-29T10:36:23Z</time>
      </trkpt>
      <trkpt lat="50.707832900807261" lon="13.227568147704005">
        <ele>442</ele>
        <time>2026-08-29T10:36:24Z</time>
      </trkpt>
      <trkpt lat="50.707864249125123" lon="13.22755272500217">
        <ele>442</ele>
        <time>2026-08-29T10:36:25Z</time>
      </trkpt>
      <trkpt lat="50.707892999053001" lon="13.227540487423539">
        <ele>442</ele>
        <time>2026-08-29T10:36:26Z</time>
      </trkpt>
      <trkpt lat="50.707920659333467" lon="13.227521209046245">
        <ele>442</ele>
        <time>2026-08-29T10:36:27Z</time>
      </trkpt>
      <trkpt lat="50.707947481423616" lon="13.227504780516028">
        <ele>442</ele>
        <time>2026-08-29T10:36:28Z</time>
      </trkpt>
      <trkpt lat="50.70797354914248" lon="13.22748483158648">
        <ele>442</ele>
        <time>2026-08-29T10:36:29Z</time>
      </trkpt>
      <trkpt lat="50.70799894630909" lon="13.227474438026547">
        <ele>442</ele>
        <time>2026-08-29T10:36:30Z</time>
      </trkpt>
      <trkpt lat="50.708025265485048" lon="13.227460188791156">
        <ele>441</ele>
        <time>2026-08-29T10:36:31Z</time>
      </trkpt>
      <trkpt lat="50.708049489185214" lon="13.227450046688318">
        <ele>441</ele>
        <time>2026-08-29T10:36:32Z</time>
      </trkpt>
      <trkpt lat="50.708072287961841" lon="13.227441916242242">
        <ele>441</ele>
        <time>2026-08-29T10:36:33Z</time>
      </trkpt>
      <trkpt lat="50.708096930757165" lon="13.227431019768119">
        <ele>441</ele>
        <time>2026-08-29T10:36:34Z</time>
      </trkpt>
      <trkpt lat="50.708121070638299" lon="13.227424649521708">
        <ele>441</ele>
        <time>2026-08-29T10:36:35Z</time>
      </trkpt>
      <trkpt lat="50.708145378157496" lon="13.227416016161442">
        <ele>441</ele>
        <time>2026-08-29T10:36:36Z</time>
      </trkpt>
      <trkpt lat="50.708163399249315" lon="13.227410987019539">
        <ele>441</ele>
        <time>2026-08-29T10:36:37Z</time>
      </trkpt>
      <trkpt lat="50.708172786980867" lon="13.227405454963446">
        <ele>441</ele>
        <time>2026-08-29T10:36:38Z</time>
      </trkpt>
      <trkpt lat="50.708176223561168" lon="13.22741006501019">
        <ele>441</ele>
        <time>2026-08-29T10:36:39Z</time>
      </trkpt>
      <trkpt lat="50.708175720646977" lon="13.22741006501019">
        <ele>441</ele>
        <time>2026-08-29T10:36:40Z</time>
      </trkpt>
      <trkpt lat="50.708175469189882" lon="13.227409981191158">
        <ele>441</ele>
        <time>2026-08-29T10:36:41Z</time>
      </trkpt>
      <trkpt lat="50.708175469189882" lon="13.227410232648253">
        <ele>441</ele>
        <time>2026-08-29T10:36:42Z</time>
      </trkpt>
      <trkpt lat="50.708175133913755" lon="13.227410400286317">
        <ele>441</ele>
        <time>2026-08-29T10:36:43Z</time>
      </trkpt>
      <trkpt lat="50.708174966275692" lon="13.227410316467285">
        <ele>441</ele>
        <time>2026-08-29T10:36:44Z</time>
      </trkpt>
      <trkpt lat="50.70817488245666" lon="13.227410316467285">
        <ele>441</ele>
        <time>2026-08-29T10:36:45Z</time>
      </trkpt>
      <trkpt lat="50.708174630999565" lon="13.22741056792438">
        <ele>441</ele>
        <time>2026-08-29T10:36:46Z</time>
      </trkpt>
      <trkpt lat="50.708174547180533" lon="13.22741056792438">
        <ele>441</ele>
        <time>2026-08-29T10:36:47Z</time>
      </trkpt>
      <trkpt lat="50.708174463361502" lon="13.22741056792438">
        <ele>441</ele>
        <time>2026-08-29T10:36:48Z</time>
      </trkpt>
      <trkpt lat="50.70817437954247" lon="13.227410400286317">
        <ele>441</ele>
        <time>2026-08-29T10:36:49Z</time>
      </trkpt>
      <trkpt lat="50.708174295723438" lon="13.227410148829222">
        <ele>441</ele>
        <time>2026-08-29T10:36:50Z</time>
      </trkpt>
      <trkpt lat="50.708174211904407" lon="13.227410148829222">
        <ele>441</ele>
        <time>2026-08-29T10:36:51Z</time>
      </trkpt>
      <trkpt lat="50.708174211904407" lon="13.227409981191158">
        <ele>441</ele>
        <time>2026-08-29T10:36:52Z</time>
      </trkpt>
      <trkpt lat="50.708174211904407" lon="13.227410148829222">
        <ele>441</ele>
        <time>2026-08-29T10:36:53Z</time>
      </trkpt>
      <trkpt lat="50.708173960447311" lon="13.227410232648253">
        <ele>441</ele>
        <time>2026-08-29T10:36:54Z</time>
      </trkpt>
      <trkpt lat="50.708173792809248" lon="13.227410232648253">
        <ele>441</ele>
        <time>2026-08-29T10:36:55Z</time>
      </trkpt>
      <trkpt lat="50.708173960447311" lon="13.227410316467285">
        <ele>441</ele>
        <time>2026-08-29T10:36:56Z</time>
      </trkpt>
      <trkpt lat="50.708173960447311" lon="13.227410232648253">
        <ele>441</ele>
        <time>2026-08-29T10:36:57Z</time>
      </trkpt>
      <trkpt lat="50.708173960447311" lon="13.227410148829222">
        <ele>441</ele>
        <time>2026-08-29T10:36:58Z</time>
      </trkpt>
      <trkpt lat="50.708173960447311" lon="13.227409981191158">
        <ele>441</ele>
        <time>2026-08-29T10:36:59Z</time>
      </trkpt>
      <trkpt lat="50.708173960447311" lon="13.227409813553095">
        <ele>441</ele>
        <time>2026-08-29T10:37:00Z</time>
      </trkpt>
      <trkpt lat="50.708173792809248" lon="13.227409478276968">
        <ele>441</ele>
        <time>2026-08-29T10:37:01Z</time>
      </trkpt>
      <trkpt lat="50.708173792809248" lon="13.227409310638905">
        <ele>441</ele>
        <time>2026-08-29T10:37:02Z</time>
      </trkpt>
      <trkpt lat="50.708173960447311" lon="13.227408975362778">
        <ele>441</ele>
        <time>2026-08-29T10:37:03Z</time>
      </trkpt>
      <trkpt lat="50.708173960447311" lon="13.227408975362778">
        <ele>441</ele>
        <time>2026-08-29T10:37:04Z</time>
      </trkpt>
      <trkpt lat="50.708174128085375" lon="13.227412160485983">
        <ele>441</ele>
        <time>2026-08-29T10:37:05Z</time>
      </trkpt>
      <trkpt lat="50.708174547180533" lon="13.227412160485983">
        <ele>441</ele>
        <time>2026-08-29T10:37:06Z</time>
      </trkpt>
      <trkpt lat="50.708172451704741" lon="13.227413585409522">
        <ele>441</ele>
        <time>2026-08-29T10:37:07Z</time>
      </trkpt>
      <trkpt lat="50.708176307380199" lon="13.227416267618537">
        <ele>441</ele>
        <time>2026-08-29T10:37:08Z</time>
      </trkpt>
      <trkpt lat="50.70817437954247" lon="13.227427918463945">
        <ele>441</ele>
        <time>2026-08-29T10:37:09Z</time>
      </trkpt>
      <trkpt lat="50.708175720646977" lon="13.22743009775877">
        <ele>441</ele>
        <time>2026-08-29T10:37:10Z</time>
      </trkpt>
      <trkpt lat="50.708177397027612" lon="13.227431606501341">
        <ele>441</ele>
        <time>2026-08-29T10:37:11Z</time>
      </trkpt>
      <trkpt lat="50.708177397027612" lon="13.227431857958436">
        <ele>440</ele>
        <time>2026-08-29T10:37:12Z</time>
      </trkpt>
      <trkpt lat="50.708177229389548" lon="13.227432025596499">
        <ele>440</ele>
        <time>2026-08-29T10:37:13Z</time>
      </trkpt>
      <trkpt lat="50.708177145570517" lon="13.227431941777468">
        <ele>440</ele>
        <time>2026-08-29T10:37:14Z</time>
      </trkpt>
      <trkpt lat="50.70817681029439" lon="13.227433115243912">
        <ele>440</ele>
        <time>2026-08-29T10:37:15Z</time>
      </trkpt>
      <trkpt lat="50.708176642656326" lon="13.227437054738402">
        <ele>440</ele>
        <time>2026-08-29T10:37:16Z</time>
      </trkpt>
      <trkpt lat="50.70817194879055" lon="13.22743596509099">
        <ele>440</ele>
        <time>2026-08-29T10:37:17Z</time>
      </trkpt>
      <trkpt lat="50.708170188590884" lon="13.227439317852259">
        <ele>440</ele>
        <time>2026-08-29T10:37:18Z</time>
      </trkpt>
      <trkpt lat="50.708168679848313" lon="13.2274423353374">
        <ele>440</ele>
        <time>2026-08-29T10:37:19Z</time>
      </trkpt>
      <trkpt lat="50.708170188590884" lon="13.227437725290656">
        <ele>439</ele>
        <time>2026-08-29T10:37:20Z</time>
      </trkpt>
      <trkpt lat="50.708174798637629" lon="13.227431187406182">
        <ele>439</ele>
        <time>2026-08-29T10:37:21Z</time>
      </trkpt>
      <trkpt lat="50.708174463361502" lon="13.227432612329721">
        <ele>439</ele>
        <time>2026-08-29T10:37:22Z</time>
      </trkpt>
      <trkpt lat="50.708163231611252" lon="13.227436803281307">
        <ele>439</ele>
        <time>2026-08-29T10:37:23Z</time>
      </trkpt>
      <trkpt lat="50.708157531917095" lon="13.227439066395164">
        <ele>438</ele>
        <time>2026-08-29T10:37:24Z</time>
      </trkpt>
      <trkpt lat="50.708153089508414" lon="13.227450801059604">
        <ele>439</ele>
        <time>2026-08-29T10:37:25Z</time>
      </trkpt>
      <trkpt lat="50.708140768110752" lon="13.22744669392705">
        <ele>438</ele>
        <time>2026-08-29T10:37:26Z</time>
      </trkpt>
      <trkpt lat="50.708132470026612" lon="13.227454070001841">
        <ele>438</ele>
        <time>2026-08-29T10:37:27Z</time>
      </trkpt>
      <trkpt lat="50.708117298781872" lon="13.227455914020538">
        <ele>438</ele>
        <time>2026-08-29T10:37:28Z</time>
      </trkpt>
      <trkpt lat="50.708100954070687" lon="13.22746236808598">
        <ele>438</ele>
        <time>2026-08-29T10:37:29Z</time>
      </trkpt>
      <trkpt lat="50.708084860816598" lon="13.227464044466615">
        <ele>438</ele>
        <time>2026-08-29T10:37:30Z</time>
      </trkpt>
      <trkpt lat="50.708072874695063" lon="13.227457003667951">
        <ele>438</ele>
        <time>2026-08-29T10:37:31Z</time>
      </trkpt>
      <trkpt lat="50.708056781440973" lon="13.227456081658602">
        <ele>438</ele>
        <time>2026-08-29T10:37:32Z</time>
      </trkpt>
      <trkpt lat="50.70803708396852" lon="13.227465050294995">
        <ele>438</ele>
        <time>2026-08-29T10:37:33Z</time>
      </trkpt>
      <trkpt lat="50.708020403981209" lon="13.22747066617012">
        <ele>438</ele>
        <time>2026-08-29T10:37:34Z</time>
      </trkpt>
      <trkpt lat="50.708002550527453" lon="13.227475695312023">
        <ele>438</ele>
        <time>2026-08-29T10:37:35Z</time>
      </trkpt>
      <trkpt lat="50.707987798377872" lon="13.227491201832891">
        <ele>438</ele>
        <time>2026-08-29T10:37:36Z</time>
      </trkpt>
      <trkpt lat="50.707970699295402" lon="13.22750193066895">
        <ele>438</ele>
        <time>2026-08-29T10:37:37Z</time>
      </trkpt>
      <trkpt lat="50.707952678203583" lon="13.227506373077631">
        <ele>438</ele>
        <time>2026-08-29T10:37:38Z</time>
      </trkpt>
      <trkpt lat="50.707929292693734" lon="13.227509055286646">
        <ele>438</ele>
        <time>2026-08-29T10:37:39Z</time>
      </trkpt>
      <trkpt lat="50.707907332107425" lon="13.227516850456595">
        <ele>437</ele>
        <time>2026-08-29T10:37:40Z</time>
      </trkpt>
      <trkpt lat="50.707888891920447" lon="13.227526573464274">
        <ele>437</ele>
        <time>2026-08-29T10:37:41Z</time>
      </trkpt>
      <trkpt lat="50.707866428419948" lon="13.227534284815192">
        <ele>437</ele>
        <time>2026-08-29T10:37:42Z</time>
      </trkpt>
      <trkpt lat="50.707849748432636" lon="13.227547025308013">
        <ele>437</ele>
        <time>2026-08-29T10:37:43Z</time>
      </trkpt>
      <trkpt lat="50.70782988332212" lon="13.227561861276627">
        <ele>438</ele>
        <time>2026-08-29T10:37:44Z</time>
      </trkpt>
      <trkpt lat="50.707810018211603" lon="13.227571584284306">
        <ele>438</ele>
        <time>2026-08-29T10:37:45Z</time>
      </trkpt>
      <trkpt lat="50.707789398729801" lon="13.227586001157761">
        <ele>438</ele>
        <time>2026-08-29T10:37:46Z</time>
      </trkpt>
      <trkpt lat="50.707765258848667" lon="13.227603519335389">
        <ele>437</ele>
        <time>2026-08-29T10:37:47Z</time>
      </trkpt>
      <trkpt lat="50.707744639366865" lon="13.227625144645572">
        <ele>437</ele>
        <time>2026-08-29T10:37:48Z</time>
      </trkpt>
      <trkpt lat="50.707719158381224" lon="13.227636711671948">
        <ele>438</ele>
        <time>2026-08-29T10:37:49Z</time>
      </trkpt>
      <trkpt lat="50.707693006843328" lon="13.227649284526706">
        <ele>438</ele>
        <time>2026-08-29T10:37:50Z</time>
      </trkpt>
      <trkpt lat="50.707666520029306" lon="13.227676944807172">
        <ele>438</ele>
        <time>2026-08-29T10:37:51Z</time>
      </trkpt>
      <trkpt lat="50.707642128691077" lon="13.227698318660259">
        <ele>438</ele>
        <time>2026-08-29T10:37:52Z</time>
      </trkpt>
      <trkpt lat="50.707616899162531" lon="13.227720698341727">
        <ele>438</ele>
        <time>2026-08-29T10:37:53Z</time>
      </trkpt>
      <trkpt lat="50.707593681290746" lon="13.2277393899858">
        <ele>438</ele>
        <time>2026-08-29T10:37:54Z</time>
      </trkpt>
      <trkpt lat="50.707568200305104" lon="13.22775942273438">
        <ele>438</ele>
        <time>2026-08-29T10:37:55Z</time>
      </trkpt>
      <trkpt lat="50.707547329366207" lon="13.227785238996148">
        <ele>439</ele>
        <time>2026-08-29T10:37:56Z</time>
      </trkpt>
      <trkpt lat="50.70752059109509" lon="13.227807618677616">
        <ele>439</ele>
        <time>2026-08-29T10:37:57Z</time>
      </trkpt>
      <trkpt lat="50.707491589710116" lon="13.227834524586797">
        <ele>439</ele>
        <time>2026-08-29T10:37:58Z</time>
      </trkpt>
      <trkpt lat="50.707468120381236" lon="13.227857910096645">
        <ele>439</ele>
        <time>2026-08-29T10:37:59Z</time>
      </trkpt>
      <trkpt lat="50.707444399595261" lon="13.227882301434875">
        <ele>439</ele>
        <time>2026-08-29T10:38:00Z</time>
      </trkpt>
      <trkpt lat="50.70742042735219" lon="13.227904262021184">
        <ele>439</ele>
        <time>2026-08-29T10:38:01Z</time>
      </trkpt>
      <trkpt lat="50.707391761243343" lon="13.227930329740047">
        <ele>439</ele>
        <time>2026-08-29T10:38:02Z</time>
      </trkpt>
      <trkpt lat="50.707368543371558" lon="13.227963102981448">
        <ele>439</ele>
        <time>2026-08-29T10:38:03Z</time>
      </trkpt>
      <trkpt lat="50.707342559471726" lon="13.227992691099644">
        <ele>439</ele>
        <time>2026-08-29T10:38:04Z</time>
      </trkpt>
      <trkpt lat="50.707321269437671" lon="13.228020183742046">
        <ele>439</ele>
        <time>2026-08-29T10:38:05Z</time>
      </trkpt>
      <trkpt lat="50.707298805937171" lon="13.228049771860242">
        <ele>438</ele>
        <time>2026-08-29T10:38:06Z</time>
      </trkpt>
      <trkpt lat="50.707277348265052" lon="13.228082712739706">
        <ele>438</ele>
        <time>2026-08-29T10:38:07Z</time>
      </trkpt>
      <trkpt lat="50.707257399335504" lon="13.22812395170331">
        <ele>438</ele>
        <time>2026-08-29T10:38:08Z</time>
      </trkpt>
      <trkpt lat="50.707236863672733" lon="13.228161837905645">
        <ele>438</ele>
        <time>2026-08-29T10:38:09Z</time>
      </trkpt>
      <trkpt lat="50.707216998562217" lon="13.228200059384108">
        <ele>438</ele>
        <time>2026-08-29T10:38:10Z</time>
      </trkpt>
      <trkpt lat="50.707196462899446" lon="13.228232748806477">
        <ele>438</ele>
        <time>2026-08-29T10:38:11Z</time>
      </trkpt>
      <trkpt lat="50.707180621102452" lon="13.228263175114989">
        <ele>438</ele>
        <time>2026-08-29T10:38:12Z</time>
      </trkpt>
      <trkpt lat="50.707168048247695" lon="13.228289913386106">
        <ele>438</ele>
        <time>2026-08-29T10:38:13Z</time>
      </trkpt>
      <trkpt lat="50.707154218107462" lon="13.228317070752382">
        <ele>438</ele>
        <time>2026-08-29T10:38:14Z</time>
      </trkpt>
      <trkpt lat="50.707141226157546" lon="13.228344647213817">
        <ele>438</ele>
        <time>2026-08-29T10:38:15Z</time>
      </trkpt>
      <trkpt lat="50.707122115418315" lon="13.228364512324333">
        <ele>438</ele>
        <time>2026-08-29T10:38:16Z</time>
      </trkpt>
      <trkpt lat="50.707099568098783" lon="13.228378426283598">
        <ele>438</ele>
        <time>2026-08-29T10:38:17Z</time>
      </trkpt>
      <trkpt lat="50.707079451531172" lon="13.228382617235184">
        <ele>439</ele>
        <time>2026-08-29T10:38:18Z</time>
      </trkpt>
      <trkpt lat="50.707058748230338" lon="13.228377420455217">
        <ele>439</ele>
        <time>2026-08-29T10:38:19Z</time>
      </trkpt>
      <trkpt lat="50.707046091556549" lon="13.228362752124667">
        <ele>439</ele>
        <time>2026-08-29T10:38:20Z</time>
      </trkpt>
      <trkpt lat="50.70704760029912" lon="13.228324865922332">
        <ele>439</ele>
        <time>2026-08-29T10:38:21Z</time>
      </trkpt>
      <trkpt lat="50.707045421004295" lon="13.228288656100631">
        <ele>439</ele>
        <time>2026-08-29T10:38:22Z</time>
      </trkpt>
      <trkpt lat="50.707050953060389" lon="13.228254206478596">
        <ele>439</ele>
        <time>2026-08-29T10:38:23Z</time>
      </trkpt>
      <trkpt lat="50.707057323306799" lon="13.228216068819165">
        <ele>438</ele>
        <time>2026-08-29T10:38:24Z</time>
      </trkpt>
      <trkpt lat="50.707057490944862" lon="13.22818354703486">
        <ele>438</ele>
        <time>2026-08-29T10:38:25Z</time>
      </trkpt>
      <trkpt lat="50.707051455974579" lon="13.228154294192791">
        <ele>438</ele>
        <time>2026-08-29T10:38:26Z</time>
      </trkpt>
      <trkpt lat="50.707047432661057" lon="13.228131998330355">
        <ele>438</ele>
        <time>2026-08-29T10:38:27Z</time>
      </trkpt>
      <trkpt lat="50.7070451695472" lon="13.228113725781441">
        <ele>438</ele>
        <time>2026-08-29T10:38:28Z</time>
      </trkpt>
      <trkpt lat="50.707036284729838" lon="13.228090843185782">
        <ele>438</ele>
        <time>2026-08-29T10:38:29Z</time>
      </trkpt>
      <trkpt lat="50.707031842321157" lon="13.228077851235867">
        <ele>438</ele>
        <time>2026-08-29T10:38:30Z</time>
      </trkpt>
      <trkpt lat="50.707024298608303" lon="13.228067709133029">
        <ele>438</ele>
        <time>2026-08-29T10:38:31Z</time>
      </trkpt>
      <trkpt lat="50.707026561722159" lon="13.228061925619841">
        <ele>439</ele>
        <time>2026-08-29T10:38:32Z</time>
      </trkpt>
      <trkpt lat="50.707026813179255" lon="13.228062093257904">
        <ele>439</ele>
        <time>2026-08-29T10:38:33Z</time>
      </trkpt>
      <trkpt lat="50.707026980817318" lon="13.228062093257904">
        <ele>439</ele>
        <time>2026-08-29T10:38:34Z</time>
      </trkpt>
      <trkpt lat="50.707027148455381" lon="13.228061925619841">
        <ele>439</ele>
        <time>2026-08-29T10:38:35Z</time>
      </trkpt>
      <trkpt lat="50.707027399912477" lon="13.228062093257904">
        <ele>439</ele>
        <time>2026-08-29T10:38:36Z</time>
      </trkpt>
      <trkpt lat="50.707027651369572" lon="13.228062177076936">
        <ele>439</ele>
        <time>2026-08-29T10:38:37Z</time>
      </trkpt>
      <trkpt lat="50.707030249759555" lon="13.228051448240876">
        <ele>438</ele>
        <time>2026-08-29T10:38:38Z</time>
      </trkpt>
      <trkpt lat="50.707036620005965" lon="13.22804625146091">
        <ele>439</ele>
        <time>2026-08-29T10:38:39Z</time>
      </trkpt>
      <trkpt lat="50.70703687146306" lon="13.228046167641878">
        <ele>439</ele>
        <time>2026-08-29T10:38:40Z</time>
      </trkpt>
      <trkpt lat="50.707036620005965" lon="13.228046335279942">
        <ele>439</ele>
        <time>2026-08-29T10:38:41Z</time>
      </trkpt>
      <trkpt lat="50.707034189254045" lon="13.228044910356402">
        <ele>439</ele>
        <time>2026-08-29T10:38:42Z</time>
      </trkpt>
      <trkpt lat="50.707034692168236" lon="13.228040719404817">
        <ele>440</ele>
        <time>2026-08-29T10:38:43Z</time>
      </trkpt>
      <trkpt lat="50.707034608349204" lon="13.228040719404817">
        <ele>440</ele>
        <time>2026-08-29T10:38:44Z</time>
      </trkpt>
      <trkpt lat="50.707034692168236" lon="13.228040719404817">
        <ele>440</ele>
        <time>2026-08-29T10:38:45Z</time>
      </trkpt>
      <trkpt lat="50.707034608349204" lon="13.228040803223848">
        <ele>440</ele>
        <time>2026-08-29T10:38:46Z</time>
      </trkpt>
      <trkpt lat="50.707034608349204" lon="13.228041054680943">
        <ele>440</ele>
        <time>2026-08-29T10:38:47Z</time>
      </trkpt>
      <trkpt lat="50.707034524530172" lon="13.228041054680943">
        <ele>440</ele>
        <time>2026-08-29T10:38:48Z</time>
      </trkpt>
      <trkpt lat="50.707034608349204" lon="13.228040635585785">
        <ele>440</ele>
        <time>2026-08-29T10:38:49Z</time>
      </trkpt>
      <trkpt lat="50.707034608349204" lon="13.228040551766753">
        <ele>440</ele>
        <time>2026-08-29T10:38:50Z</time>
      </trkpt>
      <trkpt lat="50.707034608349204" lon="13.228040635585785">
        <ele>440</ele>
        <time>2026-08-29T10:38:51Z</time>
      </trkpt>
      <trkpt lat="50.70703636854887" lon="13.22805505245924">
        <ele>441</ele>
        <time>2026-08-29T10:38:52Z</time>
      </trkpt>
      <trkpt lat="50.70703636854887" lon="13.228055220097303">
        <ele>441</ele>
        <time>2026-08-29T10:38:53Z</time>
      </trkpt>
      <trkpt lat="50.707036452367902" lon="13.228055303916335">
        <ele>441</ele>
        <time>2026-08-29T10:38:54Z</time>
      </trkpt>
      <trkpt lat="50.707036452367902" lon="13.228055387735367">
        <ele>440</ele>
        <time>2026-08-29T10:38:55Z</time>
      </trkpt>
      <trkpt lat="50.707036452367902" lon="13.228055220097303">
        <ele>440</ele>
        <time>2026-08-29T10:38:56Z</time>
      </trkpt>
      <trkpt lat="50.70703636854887" lon="13.228054968640208">
        <ele>440</ele>
        <time>2026-08-29T10:38:57Z</time>
      </trkpt>
      <trkpt lat="50.707036200910807" lon="13.22805505245924">
        <ele>440</ele>
        <time>2026-08-29T10:38:58Z</time>
      </trkpt>
      <trkpt lat="50.707036200910807" lon="13.22805505245924">
        <ele>440</ele>
        <time>2026-08-29T10:38:59Z</time>
      </trkpt>
      <trkpt lat="50.707036200910807" lon="13.228055136278272">
        <ele>440</ele>
        <time>2026-08-29T10:39:00Z</time>
      </trkpt>
      <trkpt lat="50.707036284729838" lon="13.228055136278272">
        <ele>440</ele>
        <time>2026-08-29T10:39:01Z</time>
      </trkpt>
      <trkpt lat="50.707036200910807" lon="13.228055136278272">
        <ele>440</ele>
        <time>2026-08-29T10:39:02Z</time>
      </trkpt>
      <trkpt lat="50.707036200910807" lon="13.228055220097303">
        <ele>440</ele>
        <time>2026-08-29T10:39:03Z</time>
      </trkpt>
      <trkpt lat="50.707036033272743" lon="13.228055136278272">
        <ele>440</ele>
        <time>2026-08-29T10:39:04Z</time>
      </trkpt>
      <trkpt lat="50.707035781815648" lon="13.228054717183113">
        <ele>440</ele>
        <time>2026-08-29T10:39:05Z</time>
      </trkpt>
      <trkpt lat="50.707035614177585" lon="13.228054633364081">
        <ele>440</ele>
        <time>2026-08-29T10:39:06Z</time>
      </trkpt>
      <trkpt lat="50.707035614177585" lon="13.22805454954505">
        <ele>440</ele>
        <time>2026-08-29T10:39:07Z</time>
      </trkpt>
      <trkpt lat="50.707035614177585" lon="13.228054298087955">
        <ele>440</ele>
        <time>2026-08-29T10:39:08Z</time>
      </trkpt>
      <trkpt lat="50.707035530358553" lon="13.228054130449891">
        <ele>440</ele>
        <time>2026-08-29T10:39:09Z</time>
      </trkpt>
      <trkpt lat="50.707035446539521" lon="13.228053711354733">
        <ele>440</ele>
        <time>2026-08-29T10:39:10Z</time>
      </trkpt>
      <trkpt lat="50.70703536272049" lon="13.228053627535701">
        <ele>440</ele>
        <time>2026-08-29T10:39:11Z</time>
      </trkpt>
      <trkpt lat="50.707035278901458" lon="13.228053711354733">
        <ele>440</ele>
        <time>2026-08-29T10:39:12Z</time>
      </trkpt>
      <trkpt lat="50.707035278901458" lon="13.228053795173764">
        <ele>440</ele>
        <time>2026-08-29T10:39:13Z</time>
      </trkpt>
      <trkpt lat="50.707035111263394" lon="13.228053627535701">
        <ele>440</ele>
        <time>2026-08-29T10:39:14Z</time>
      </trkpt>
      <trkpt lat="50.707035111263394" lon="13.228053627535701">
        <ele>440</ele>
        <time>2026-08-29T10:39:15Z</time>
      </trkpt>
      <trkpt lat="50.707037290558219" lon="13.228057650849223">
        <ele>440</ele>
        <time>2026-08-29T10:39:16Z</time>
      </trkpt>
      <trkpt lat="50.707037877291441" lon="13.228062344714999">
        <ele>440</ele>
        <time>2026-08-29T10:39:17Z</time>
      </trkpt>
      <trkpt lat="50.707041062414646" lon="13.228064524009824">
        <ele>440</ele>
        <time>2026-08-29T10:39:18Z</time>
      </trkpt>
      <trkpt lat="50.707041146233678" lon="13.228064607828856">
        <ele>440</ele>
        <time>2026-08-29T10:39:19Z</time>
      </trkpt>
      <trkpt lat="50.707041146233678" lon="13.228064691647887">
        <ele>440</ele>
        <time>2026-08-29T10:39:20Z</time>
      </trkpt>
      <trkpt lat="50.70704123005271" lon="13.228064691647887">
        <ele>440</ele>
        <time>2026-08-29T10:39:21Z</time>
      </trkpt>
      <trkpt lat="50.707041062414646" lon="13.228064943104982">
        <ele>440</ele>
        <time>2026-08-29T10:39:22Z</time>
      </trkpt>
      <trkpt lat="50.707041146233678" lon="13.228065110743046">
        <ele>440</ele>
        <time>2026-08-29T10:39:23Z</time>
      </trkpt>
      <trkpt lat="50.707041062414646" lon="13.228065110743046">
        <ele>440</ele>
        <time>2026-08-29T10:39:24Z</time>
      </trkpt>
      <trkpt lat="50.70704123005271" lon="13.228065362200141">
        <ele>440</ele>
        <time>2026-08-29T10:39:25Z</time>
      </trkpt>
      <trkpt lat="50.70704123005271" lon="13.228065529838204">
        <ele>440</ele>
        <time>2026-08-29T10:39:26Z</time>
      </trkpt>
      <trkpt lat="50.707041146233678" lon="13.228065529838204">
        <ele>440</ele>
        <time>2026-08-29T10:39:27Z</time>
      </trkpt>
      <trkpt lat="50.70704123005271" lon="13.228065948933363">
        <ele>440</ele>
        <time>2026-08-29T10:39:28Z</time>
      </trkpt>
      <trkpt lat="50.707041397690773" lon="13.228066116571426">
        <ele>440</ele>
        <time>2026-08-29T10:39:29Z</time>
      </trkpt>
      <trkpt lat="50.70704123005271" lon="13.228066032752395">
        <ele>440</ele>
        <time>2026-08-29T10:39:30Z</time>
      </trkpt>
      <trkpt lat="50.70704123005271" lon="13.228065948933363">
        <ele>440</ele>
        <time>2026-08-29T10:39:31Z</time>
      </trkpt>
      <trkpt lat="50.70704123005271" lon="13.228065948933363">
        <ele>440</ele>
        <time>2026-08-29T10:39:32Z</time>
      </trkpt>
      <trkpt lat="50.707041313871741" lon="13.228065948933363">
        <ele>440</ele>
        <time>2026-08-29T10:39:33Z</time>
      </trkpt>
      <trkpt lat="50.707041481509805" lon="13.228066451847553">
        <ele>440</ele>
        <time>2026-08-29T10:39:34Z</time>
      </trkpt>
      <trkpt lat="50.707041481509805" lon="13.228066535666585">
        <ele>440</ele>
        <time>2026-08-29T10:39:35Z</time>
      </trkpt>
      <trkpt lat="50.707041649147868" lon="13.228066870942712">
        <ele>440</ele>
        <time>2026-08-29T10:39:36Z</time>
      </trkpt>
      <trkpt lat="50.707041649147868" lon="13.228067122399807">
        <ele>440</ele>
        <time>2026-08-29T10:39:37Z</time>
      </trkpt>
      <trkpt lat="50.707041649147868" lon="13.228067122399807">
        <ele>440</ele>
        <time>2026-08-29T10:39:38Z</time>
      </trkpt>
      <trkpt lat="50.707041649147868" lon="13.228067373856902">
        <ele>440</ele>
        <time>2026-08-29T10:39:39Z</time>
      </trkpt>
      <trkpt lat="50.707041649147868" lon="13.228067541494966">
        <ele>440</ele>
        <time>2026-08-29T10:39:40Z</time>
      </trkpt>
      <trkpt lat="50.707041565328836" lon="13.228067625313997">
        <ele>440</ele>
        <time>2026-08-29T10:39:41Z</time>
      </trkpt>
      <trkpt lat="50.707041565328836" lon="13.228067625313997">
        <ele>440</ele>
        <time>2026-08-29T10:39:42Z</time>
      </trkpt>
      <trkpt lat="50.707041649147868" lon="13.228067541494966">
        <ele>440</ele>
        <time>2026-08-29T10:39:43Z</time>
      </trkpt>
      <trkpt lat="50.707041649147868" lon="13.228067457675934">
        <ele>440</ele>
        <time>2026-08-29T10:39:44Z</time>
      </trkpt>
      <trkpt lat="50.70703930221498" lon="13.228068295866251">
        <ele>440</ele>
        <time>2026-08-29T10:39:45Z</time>
      </trkpt>
      <trkpt lat="50.707039218395948" lon="13.228068295866251">
        <ele>440</ele>
        <time>2026-08-29T10:39:46Z</time>
      </trkpt>
      <trkpt lat="50.707039218395948" lon="13.228068295866251">
        <ele>440</ele>
        <time>2026-08-29T10:39:47Z</time>
      </trkpt>
      <trkpt lat="50.707039218395948" lon="13.228068128228188">
        <ele>440</ele>
        <time>2026-08-29T10:39:48Z</time>
      </trkpt>
      <trkpt lat="50.707039218395948" lon="13.228067960590124">
        <ele>440</ele>
        <time>2026-08-29T10:39:49Z</time>
      </trkpt>
      <trkpt lat="50.707039218395948" lon="13.228067960590124">
        <ele>440</ele>
        <time>2026-08-29T10:39:50Z</time>
      </trkpt>
      <trkpt lat="50.70703930221498" lon="13.228068128228188">
        <ele>440</ele>
        <time>2026-08-29T10:39:51Z</time>
      </trkpt>
      <trkpt lat="50.70703930221498" lon="13.228068044409156">
        <ele>440</ele>
        <time>2026-08-29T10:39:52Z</time>
      </trkpt>
      <trkpt lat="50.707039386034012" lon="13.228068212047219">
        <ele>440</ele>
        <time>2026-08-29T10:39:53Z</time>
      </trkpt>
      <trkpt lat="50.70703930221498" lon="13.228068212047219">
        <ele>440</ele>
        <time>2026-08-29T10:39:54Z</time>
      </trkpt>
      <trkpt lat="50.70703930221498" lon="13.228068212047219">
        <ele>440</ele>
        <time>2026-08-29T10:39:55Z</time>
      </trkpt>
      <trkpt lat="50.707039218395948" lon="13.228068044409156">
        <ele>440</ele>
        <time>2026-08-29T10:39:56Z</time>
      </trkpt>
      <trkpt lat="50.707039134576917" lon="13.228067960590124">
        <ele>440</ele>
        <time>2026-08-29T10:39:57Z</time>
      </trkpt>
      <trkpt lat="50.707039050757885" lon="13.228067876771092">
        <ele>440</ele>
        <time>2026-08-29T10:39:58Z</time>
      </trkpt>
      <trkpt lat="50.707039050757885" lon="13.228067792952061">
        <ele>440</ele>
        <time>2026-08-29T10:39:59Z</time>
      </trkpt>
      <trkpt lat="50.707038966938853" lon="13.228067709133029">
        <ele>440</ele>
        <time>2026-08-29T10:40:00Z</time>
      </trkpt>
      <trkpt lat="50.707038883119822" lon="13.228067373856902">
        <ele>440</ele>
        <time>2026-08-29T10:40:01Z</time>
      </trkpt>
      <trkpt lat="50.707038966938853" lon="13.228067457675934">
        <ele>440</ele>
        <time>2026-08-29T10:40:02Z</time>
      </trkpt>
      <trkpt lat="50.707038966938853" lon="13.228067541494966">
        <ele>440</ele>
        <time>2026-08-29T10:40:03Z</time>
      </trkpt>
      <trkpt lat="50.707038966938853" lon="13.228067457675934">
        <ele>440</ele>
        <time>2026-08-29T10:40:04Z</time>
      </trkpt>
      <trkpt lat="50.707039050757885" lon="13.228067541494966">
        <ele>440</ele>
        <time>2026-08-29T10:40:05Z</time>
      </trkpt>
      <trkpt lat="50.707039050757885" lon="13.228067457675934">
        <ele>440</ele>
        <time>2026-08-29T10:40:06Z</time>
      </trkpt>
      <trkpt lat="50.707039134576917" lon="13.228067709133029">
        <ele>440</ele>
        <time>2026-08-29T10:40:07Z</time>
      </trkpt>
      <trkpt lat="50.707039134576917" lon="13.228067792952061">
        <ele>440</ele>
        <time>2026-08-29T10:40:08Z</time>
      </trkpt>
      <trkpt lat="50.707039134576917" lon="13.228067792952061">
        <ele>440</ele>
        <time>2026-08-29T10:40:09Z</time>
      </trkpt>
      <trkpt lat="50.707039134576917" lon="13.228067709133029">
        <ele>440</ele>
        <time>2026-08-29T10:40:10Z</time>
      </trkpt>
      <trkpt lat="50.707039134576917" lon="13.228067625313997">
        <ele>440</ele>
        <time>2026-08-29T10:40:11Z</time>
      </trkpt>
      <trkpt lat="50.707039134576917" lon="13.228067625313997">
        <ele>440</ele>
        <time>2026-08-29T10:40:12Z</time>
      </trkpt>
      <trkpt lat="50.707039134576917" lon="13.228067541494966">
        <ele>440</ele>
        <time>2026-08-29T10:40:13Z</time>
      </trkpt>
      <trkpt lat="50.707039218395948" lon="13.228067457675934">
        <ele>440</ele>
        <time>2026-08-29T10:40:14Z</time>
      </trkpt>
      <trkpt lat="50.707039218395948" lon="13.22806729003787">
        <ele>440</ele>
        <time>2026-08-29T10:40:15Z</time>
      </trkpt>
      <trkpt lat="50.707039218395948" lon="13.228067122399807">
        <ele>440</ele>
        <time>2026-08-29T10:40:16Z</time>
      </trkpt>
      <trkpt lat="50.707039218395948" lon="13.228067038580775">
        <ele>440</ele>
        <time>2026-08-29T10:40:17Z</time>
      </trkpt>
      <trkpt lat="50.707039218395948" lon="13.228066954761744">
        <ele>440</ele>
        <time>2026-08-29T10:40:18Z</time>
      </trkpt>
      <trkpt lat="50.707039218395948" lon="13.228066870942712">
        <ele>440</ele>
        <time>2026-08-29T10:40:19Z</time>
      </trkpt>
      <trkpt lat="50.70703930221498" lon="13.228067373856902">
        <ele>440</ele>
        <time>2026-08-29T10:40:20Z</time>
      </trkpt>
      <trkpt lat="50.707039386034012" lon="13.228067541494966">
        <ele>440</ele>
        <time>2026-08-29T10:40:21Z</time>
      </trkpt>
      <trkpt lat="50.70703930221498" lon="13.228067457675934">
        <ele>440</ele>
        <time>2026-08-29T10:40:22Z</time>
      </trkpt>
      <trkpt lat="50.707039386034012" lon="13.228067457675934">
        <ele>440</ele>
        <time>2026-08-29T10:40:23Z</time>
      </trkpt>
      <trkpt lat="50.707039553672075" lon="13.228067373856902">
        <ele>440</ele>
        <time>2026-08-29T10:40:24Z</time>
      </trkpt>
      <trkpt lat="50.707039637491107" lon="13.228067206218839">
        <ele>440</ele>
        <time>2026-08-29T10:40:25Z</time>
      </trkpt>
      <trkpt lat="50.707039721310139" lon="13.228067373856902">
        <ele>440</ele>
        <time>2026-08-29T10:40:26Z</time>
      </trkpt>
      <trkpt lat="50.707039721310139" lon="13.228067541494966">
        <ele>440</ele>
        <time>2026-08-29T10:40:27Z</time>
      </trkpt>
      <trkpt lat="50.707039888948202" lon="13.228067792952061">
        <ele>440</ele>
        <time>2026-08-29T10:40:28Z</time>
      </trkpt>
      <trkpt lat="50.70703980512917" lon="13.228067541494966">
        <ele>440</ele>
        <time>2026-08-29T10:40:29Z</time>
      </trkpt>
      <trkpt lat="50.707039888948202" lon="13.228067709133029">
        <ele>440</ele>
        <time>2026-08-29T10:40:30Z</time>
      </trkpt>
      <trkpt lat="50.707039888948202" lon="13.228067625313997">
        <ele>440</ele>
        <time>2026-08-29T10:40:31Z</time>
      </trkpt>
      <trkpt lat="50.707039888948202" lon="13.228067541494966">
        <ele>440</ele>
        <time>2026-08-29T10:40:32Z</time>
      </trkpt>
      <trkpt lat="50.707039721310139" lon="13.228067457675934">
        <ele>440</ele>
        <time>2026-08-29T10:40:33Z</time>
      </trkpt>
      <trkpt lat="50.707039386034012" lon="13.22806729003787">
        <ele>440</ele>
        <time>2026-08-29T10:40:34Z</time>
      </trkpt>
      <trkpt lat="50.707039218395948" lon="13.22806729003787">
        <ele>440</ele>
        <time>2026-08-29T10:40:35Z</time>
      </trkpt>
      <trkpt lat="50.707039050757885" lon="13.228067206218839">
        <ele>440</ele>
        <time>2026-08-29T10:40:36Z</time>
      </trkpt>
      <trkpt lat="50.70703879930079" lon="13.228067038580775">
        <ele>440</ele>
        <time>2026-08-29T10:40:37Z</time>
      </trkpt>
      <trkpt lat="50.70703879930079" lon="13.228067038580775">
        <ele>440</ele>
        <time>2026-08-29T10:40:38Z</time>
      </trkpt>
      <trkpt lat="50.707038631662726" lon="13.228066954761744">
        <ele>440</ele>
        <time>2026-08-29T10:40:39Z</time>
      </trkpt>
      <trkpt lat="50.707038380205631" lon="13.228066954761744">
        <ele>440</ele>
        <time>2026-08-29T10:40:40Z</time>
      </trkpt>
      <trkpt lat="50.707038128748536" lon="13.228066954761744">
        <ele>440</ele>
        <time>2026-08-29T10:40:41Z</time>
      </trkpt>
      <trkpt lat="50.707037961110473" lon="13.228066954761744">
        <ele>440</ele>
        <time>2026-08-29T10:40:42Z</time>
      </trkpt>
      <trkpt lat="50.707037542015314" lon="13.228066954761744">
        <ele>440</ele>
        <time>2026-08-29T10:40:43Z</time>
      </trkpt>
      <trkpt lat="50.707037458196282" lon="13.228066870942712">
        <ele>440</ele>
        <time>2026-08-29T10:40:44Z</time>
      </trkpt>
      <trkpt lat="50.707037290558219" lon="13.228066954761744">
        <ele>440</ele>
        <time>2026-08-29T10:40:45Z</time>
      </trkpt>
      <trkpt lat="50.707037290558219" lon="13.22806678712368">
        <ele>440</ele>
        <time>2026-08-29T10:40:46Z</time>
      </trkpt>
      <trkpt lat="50.707037039101124" lon="13.22806678712368">
        <ele>440</ele>
        <time>2026-08-29T10:40:47Z</time>
      </trkpt>
      <trkpt lat="50.707036787644029" lon="13.22806678712368">
        <ele>440</ele>
        <time>2026-08-29T10:40:48Z</time>
      </trkpt>
      <trkpt lat="50.707036620005965" lon="13.228066703304648">
        <ele>440</ele>
        <time>2026-08-29T10:40:49Z</time>
      </trkpt>
      <trkpt lat="50.707036536186934" lon="13.228066703304648">
        <ele>440</ele>
        <time>2026-08-29T10:40:50Z</time>
      </trkpt>
      <trkpt lat="50.70703636854887" lon="13.228066703304648">
        <ele>440</ele>
        <time>2026-08-29T10:40:51Z</time>
      </trkpt>
      <trkpt lat="50.70703636854887" lon="13.228066619485617">
        <ele>440</ele>
        <time>2026-08-29T10:40:52Z</time>
      </trkpt>
      <trkpt lat="50.707036284729838" lon="13.228066451847553">
        <ele>440</ele>
        <time>2026-08-29T10:40:53Z</time>
      </trkpt>
      <trkpt lat="50.707036200910807" lon="13.228066451847553">
        <ele>440</ele>
        <time>2026-08-29T10:40:54Z</time>
      </trkpt>
      <trkpt lat="50.707036284729838" lon="13.228066368028522">
        <ele>440</ele>
        <time>2026-08-29T10:40:55Z</time>
      </trkpt>
      <trkpt lat="50.70703636854887" lon="13.22806628420949">
        <ele>440</ele>
        <time>2026-08-29T10:40:56Z</time>
      </trkpt>
      <trkpt lat="50.70703636854887" lon="13.228066116571426">
        <ele>440</ele>
        <time>2026-08-29T10:40:57Z</time>
      </trkpt>
      <trkpt lat="50.70703636854887" lon="13.228066116571426">
        <ele>440</ele>
        <time>2026-08-29T10:40:58Z</time>
      </trkpt>
      <trkpt lat="50.70703636854887" lon="13.228066032752395">
        <ele>440</ele>
        <time>2026-08-29T10:40:59Z</time>
      </trkpt>
      <trkpt lat="50.70703636854887" lon="13.228065865114331">
        <ele>440</ele>
        <time>2026-08-29T10:41:00Z</time>
      </trkpt>
      <trkpt lat="50.70703636854887" lon="13.228065948933363">
        <ele>440</ele>
        <time>2026-08-29T10:41:01Z</time>
      </trkpt>
      <trkpt lat="50.70703636854887" lon="13.228065948933363">
        <ele>440</ele>
        <time>2026-08-29T10:41:02Z</time>
      </trkpt>
      <trkpt lat="50.707036284729838" lon="13.228066032752395">
        <ele>440</ele>
        <time>2026-08-29T10:41:03Z</time>
      </trkpt>
      <trkpt lat="50.707036200910807" lon="13.228065865114331">
        <ele>440</ele>
        <time>2026-08-29T10:41:04Z</time>
      </trkpt>
      <trkpt lat="50.707036117091775" lon="13.228065697476268">
        <ele>440</ele>
        <time>2026-08-29T10:41:05Z</time>
      </trkpt>
      <trkpt lat="50.707036117091775" lon="13.228065613657236">
        <ele>440</ele>
        <time>2026-08-29T10:41:06Z</time>
      </trkpt>
      <trkpt lat="50.707036117091775" lon="13.228065529838204">
        <ele>440</ele>
        <time>2026-08-29T10:41:07Z</time>
      </trkpt>
      <trkpt lat="50.707036200910807" lon="13.228065697476268">
        <ele>440</ele>
        <time>2026-08-29T10:41:08Z</time>
      </trkpt>
      <trkpt lat="50.707036200910807" lon="13.228065697476268">
        <ele>440</ele>
        <time>2026-08-29T10:41:09Z</time>
      </trkpt>
      <trkpt lat="50.707036200910807" lon="13.228065529838204">
        <ele>440</ele>
        <time>2026-08-29T10:41:10Z</time>
      </trkpt>
      <trkpt lat="50.707036200910807" lon="13.228065446019173">
        <ele>440</ele>
        <time>2026-08-29T10:41:11Z</time>
      </trkpt>
      <trkpt lat="50.70703636854887" lon="13.228065529838204">
        <ele>440</ele>
        <time>2026-08-29T10:41:12Z</time>
      </trkpt>
      <trkpt lat="50.707036452367902" lon="13.228065865114331">
        <ele>440</ele>
        <time>2026-08-29T10:41:13Z</time>
      </trkpt>
      <trkpt lat="50.70703636854887" lon="13.228066116571426">
        <ele>440</ele>
        <time>2026-08-29T10:41:14Z</time>
      </trkpt>
      <trkpt lat="50.70703636854887" lon="13.22806628420949">
        <ele>440</ele>
        <time>2026-08-29T10:41:15Z</time>
      </trkpt>
      <trkpt lat="50.707036200910807" lon="13.228066368028522">
        <ele>440</ele>
        <time>2026-08-29T10:41:16Z</time>
      </trkpt>
      <trkpt lat="50.707036033272743" lon="13.22806628420949">
        <ele>440</ele>
        <time>2026-08-29T10:41:17Z</time>
      </trkpt>
      <trkpt lat="50.707036200910807" lon="13.228066451847553">
        <ele>440</ele>
        <time>2026-08-29T10:41:18Z</time>
      </trkpt>
      <trkpt lat="50.707033518701792" lon="13.228068547323346">
        <ele>440</ele>
        <time>2026-08-29T10:41:19Z</time>
      </trkpt>
      <trkpt lat="50.707035195082426" lon="13.228070056065917">
        <ele>440</ele>
        <time>2026-08-29T10:41:20Z</time>
      </trkpt>
      <trkpt lat="50.707031842321157" lon="13.228065697476268">
        <ele>440</ele>
        <time>2026-08-29T10:41:21Z</time>
      </trkpt>
      <trkpt lat="50.707031087949872" lon="13.228066368028522">
        <ele>440</ele>
        <time>2026-08-29T10:41:22Z</time>
      </trkpt>
      <trkpt lat="50.707032680511475" lon="13.228070978075266">
        <ele>440</ele>
        <time>2026-08-29T10:41:23Z</time>
      </trkpt>
      <trkpt lat="50.707036200910807" lon="13.228085143491626">
        <ele>440</ele>
        <time>2026-08-29T10:41:24Z</time>
      </trkpt>
      <trkpt lat="50.707041313871741" lon="13.228095201775432">
        <ele>440</ele>
        <time>2026-08-29T10:41:25Z</time>
      </trkpt>
      <trkpt lat="50.707046343013644" lon="13.228118335828185">
        <ele>440</ele>
        <time>2026-08-29T10:41:26Z</time>
      </trkpt>
      <trkpt lat="50.707051875069737" lon="13.228129902854562">
        <ele>440</ele>
        <time>2026-08-29T10:41:27Z</time>
      </trkpt>
      <trkpt lat="50.707058999687433" lon="13.228143230080605">
        <ele>440</ele>
        <time>2026-08-29T10:41:28Z</time>
      </trkpt>
      <trkpt lat="50.707062520086765" lon="13.228157982230186">
        <ele>440</ele>
        <time>2026-08-29T10:41:29Z</time>
      </trkpt>
      <trkpt lat="50.707067800685763" lon="13.228174829855561">
        <ele>439</ele>
        <time>2026-08-29T10:41:30Z</time>
      </trkpt>
      <trkpt lat="50.707069477066398" lon="13.228192767128348">
        <ele>439</ele>
        <time>2026-08-29T10:41:31Z</time>
      </trkpt>
      <trkpt lat="50.707070399075747" lon="13.228205675259233">
        <ele>439</ele>
        <time>2026-08-29T10:41:32Z</time>
      </trkpt>
      <trkpt lat="50.707066711038351" lon="13.228223361074924">
        <ele>439</ele>
        <time>2026-08-29T10:41:33Z</time>
      </trkpt>
      <trkpt lat="50.707062100991607" lon="13.228236269205809">
        <ele>439</ele>
        <time>2026-08-29T10:41:34Z</time>
      </trkpt>
      <trkpt lat="50.707059418782592" lon="13.228233838453889">
        <ele>439</ele>
        <time>2026-08-29T10:41:35Z</time>
      </trkpt>
      <trkpt lat="50.707060089334846" lon="13.228230066597462">
        <ele>439</ele>
        <time>2026-08-29T10:41:36Z</time>
      </trkpt>
      <trkpt lat="50.707060759887099" lon="13.228226210922003">
        <ele>439</ele>
        <time>2026-08-29T10:41:37Z</time>
      </trkpt>
      <trkpt lat="50.707060843706131" lon="13.228225791826844">
        <ele>439</ele>
        <time>2026-08-29T10:41:38Z</time>
      </trkpt>
      <trkpt lat="50.707060927525163" lon="13.228225456550717">
        <ele>439</ele>
        <time>2026-08-29T10:41:39Z</time>
      </trkpt>
      <trkpt lat="50.707061011344194" lon="13.228225456550717">
        <ele>439</ele>
        <time>2026-08-29T10:41:40Z</time>
      </trkpt>
      <trkpt lat="50.707061011344194" lon="13.228225288912654">
        <ele>439</ele>
        <time>2026-08-29T10:41:41Z</time>
      </trkpt>
      <trkpt lat="50.707061011344194" lon="13.228224953636527">
        <ele>439</ele>
        <time>2026-08-29T10:41:42Z</time>
      </trkpt>
      <trkpt lat="50.707061095163226" lon="13.228224869817495">
        <ele>439</ele>
        <time>2026-08-29T10:41:43Z</time>
      </trkpt>
      <trkpt lat="50.707061011344194" lon="13.228224702179432">
        <ele>439</ele>
        <time>2026-08-29T10:41:44Z</time>
      </trkpt>
      <trkpt lat="50.707061178982258" lon="13.228224702179432">
        <ele>439</ele>
        <time>2026-08-29T10:41:45Z</time>
      </trkpt>
      <trkpt lat="50.70706126280129" lon="13.228224702179432">
        <ele>439</ele>
        <time>2026-08-29T10:41:46Z</time>
      </trkpt>
      <trkpt lat="50.707061346620321" lon="13.2282246183604">
        <ele>439</ele>
        <time>2026-08-29T10:41:47Z</time>
      </trkpt>
      <trkpt lat="50.70706126280129" lon="13.22822411544621">
        <ele>439</ele>
        <time>2026-08-29T10:41:48Z</time>
      </trkpt>
      <trkpt lat="50.70706126280129" lon="13.228224199265242">
        <ele>439</ele>
        <time>2026-08-29T10:41:49Z</time>
      </trkpt>
      <trkpt lat="50.707061346620321" lon="13.22822411544621">
        <ele>439</ele>
        <time>2026-08-29T10:41:50Z</time>
      </trkpt>
      <trkpt lat="50.707061430439353" lon="13.228224199265242">
        <ele>439</ele>
        <time>2026-08-29T10:41:51Z</time>
      </trkpt>
      <trkpt lat="50.707061681896448" lon="13.228223947808146">
        <ele>439</ele>
        <time>2026-08-29T10:41:52Z</time>
      </trkpt>
      <trkpt lat="50.70706176571548" lon="13.228223780170083">
        <ele>439</ele>
        <time>2026-08-29T10:41:53Z</time>
      </trkpt>
      <trkpt lat="50.70706176571548" lon="13.228223696351051">
        <ele>439</ele>
        <time>2026-08-29T10:41:54Z</time>
      </trkpt>
      <trkpt lat="50.707061681896448" lon="13.228223696351051">
        <ele>439</ele>
        <time>2026-08-29T10:41:55Z</time>
      </trkpt>
      <trkpt lat="50.707061681896448" lon="13.228223863989115">
        <ele>439</ele>
        <time>2026-08-29T10:41:56Z</time>
      </trkpt>
      <trkpt lat="50.707061681896448" lon="13.228224031627178">
        <ele>439</ele>
        <time>2026-08-29T10:41:57Z</time>
      </trkpt>
      <trkpt lat="50.707061681896448" lon="13.228224031627178">
        <ele>439</ele>
        <time>2026-08-29T10:41:58Z</time>
      </trkpt>
      <trkpt lat="50.707061598077416" lon="13.228224450722337">
        <ele>439</ele>
        <time>2026-08-29T10:41:59Z</time>
      </trkpt>
      <trkpt lat="50.707061514258385" lon="13.2282246183604">
        <ele>439</ele>
        <time>2026-08-29T10:42:00Z</time>
      </trkpt>
      <trkpt lat="50.707061514258385" lon="13.228224785998464">
        <ele>439</ele>
        <time>2026-08-29T10:42:01Z</time>
      </trkpt>
      <trkpt lat="50.707061430439353" lon="13.228225037455559">
        <ele>439</ele>
        <time>2026-08-29T10:42:02Z</time>
      </trkpt>
      <trkpt lat="50.70706126280129" lon="13.228225372731686">
        <ele>439</ele>
        <time>2026-08-29T10:42:03Z</time>
      </trkpt>
      <trkpt lat="50.707061178982258" lon="13.228225540369749">
        <ele>439</ele>
        <time>2026-08-29T10:42:04Z</time>
      </trkpt>
      <trkpt lat="50.707061178982258" lon="13.228225624188781">
        <ele>439</ele>
        <time>2026-08-29T10:42:05Z</time>
      </trkpt>
      <trkpt lat="50.707061178982258" lon="13.228225624188781">
        <ele>439</ele>
        <time>2026-08-29T10:42:06Z</time>
      </trkpt>
      <trkpt lat="50.707061178982258" lon="13.228225624188781">
        <ele>439</ele>
        <time>2026-08-29T10:42:07Z</time>
      </trkpt>
      <trkpt lat="50.70706126280129" lon="13.228225708007813">
        <ele>439</ele>
        <time>2026-08-29T10:42:08Z</time>
      </trkpt>
      <trkpt lat="50.707061346620321" lon="13.228225708007813">
        <ele>439</ele>
        <time>2026-08-29T10:42:09Z</time>
      </trkpt>
      <trkpt lat="50.707061346620321" lon="13.228225875645876">
        <ele>439</ele>
        <time>2026-08-29T10:42:10Z</time>
      </trkpt>
      <trkpt lat="50.707061346620321" lon="13.228225959464908">
        <ele>439</ele>
        <time>2026-08-29T10:42:11Z</time>
      </trkpt>
      <trkpt lat="50.707061430439353" lon="13.228226043283939">
        <ele>439</ele>
        <time>2026-08-29T10:42:12Z</time>
      </trkpt>
      <trkpt lat="50.707061430439353" lon="13.228226210922003">
        <ele>439</ele>
        <time>2026-08-29T10:42:13Z</time>
      </trkpt>
      <trkpt lat="50.707061514258385" lon="13.228226713836193">
        <ele>439</ele>
        <time>2026-08-29T10:42:14Z</time>
      </trkpt>
      <trkpt lat="50.707061598077416" lon="13.228227384388447">
        <ele>439</ele>
        <time>2026-08-29T10:42:15Z</time>
      </trkpt>
      <trkpt lat="50.70706176571548" lon="13.228227803483605">
        <ele>439</ele>
        <time>2026-08-29T10:42:16Z</time>
      </trkpt>
      <trkpt lat="50.707061849534512" lon="13.228228474035859">
        <ele>439</ele>
        <time>2026-08-29T10:42:17Z</time>
      </trkpt>
      <trkpt lat="50.707061933353543" lon="13.228229060769081">
        <ele>438</ele>
        <time>2026-08-29T10:42:18Z</time>
      </trkpt>
      <trkpt lat="50.707061095163226" lon="13.228224031627178">
        <ele>438</ele>
        <time>2026-08-29T10:42:19Z</time>
      </trkpt>
      <trkpt lat="50.707062100991607" lon="13.228232329711318">
        <ele>438</ele>
        <time>2026-08-29T10:42:20Z</time>
      </trkpt>
      <trkpt lat="50.707063693553209" lon="13.22823635302484">
        <ele>438</ele>
        <time>2026-08-29T10:42:21Z</time>
      </trkpt>
      <trkpt lat="50.707068219780922" lon="13.22823585011065">
        <ele>438</ele>
        <time>2026-08-29T10:42:22Z</time>
      </trkpt>
      <trkpt lat="50.70706713013351" lon="13.228242639452219">
        <ele>438</ele>
        <time>2026-08-29T10:42:23Z</time>
      </trkpt>
      <trkpt lat="50.707067716866732" lon="13.228242387995124">
        <ele>438</ele>
        <time>2026-08-29T10:42:24Z</time>
      </trkpt>
      <trkpt lat="50.707069560885429" lon="13.228244902566075">
        <ele>438</ele>
        <time>2026-08-29T10:42:25Z</time>
      </trkpt>
      <trkpt lat="50.707070901989937" lon="13.228250350803137">
        <ele>438</ele>
        <time>2026-08-29T10:42:26Z</time>
      </trkpt>
      <trkpt lat="50.707073751837015" lon="13.228255631402135">
        <ele>438</ele>
        <time>2026-08-29T10:42:27Z</time>
      </trkpt>
      <trkpt lat="50.707073751837015" lon="13.228256050497293">
        <ele>438</ele>
        <time>2026-08-29T10:42:28Z</time>
      </trkpt>
      <trkpt lat="50.707073835656047" lon="13.228256134316325">
        <ele>438</ele>
        <time>2026-08-29T10:42:29Z</time>
      </trkpt>
      <trkpt lat="50.707071823999286" lon="13.228262588381767">
        <ele>439</ele>
        <time>2026-08-29T10:42:30Z</time>
      </trkpt>
      <trkpt lat="50.707071991637349" lon="13.228262504562736">
        <ele>439</ele>
        <time>2026-08-29T10:42:31Z</time>
      </trkpt>
      <trkpt lat="50.707072075456381" lon="13.228262504562736">
        <ele>439</ele>
        <time>2026-08-29T10:42:32Z</time>
      </trkpt>
      <trkpt lat="50.707069979980588" lon="13.228259989991784">
        <ele>439</ele>
        <time>2026-08-29T10:42:33Z</time>
      </trkpt>
      <trkpt lat="50.707069728523493" lon="13.228260157629848">
        <ele>439</ele>
        <time>2026-08-29T10:42:34Z</time>
      </trkpt>
      <trkpt lat="50.707067381590605" lon="13.228269126266241">
        <ele>439</ele>
        <time>2026-08-29T10:42:35Z</time>
      </trkpt>
      <trkpt lat="50.707067381590605" lon="13.228269210085273">
        <ele>439</ele>
        <time>2026-08-29T10:42:36Z</time>
      </trkpt>
      <trkpt lat="50.707068974152207" lon="13.228271305561066">
        <ele>439</ele>
        <time>2026-08-29T10:42:37Z</time>
      </trkpt>
      <trkpt lat="50.707068638876081" lon="13.228275077417493">
        <ele>439</ele>
        <time>2026-08-29T10:42:38Z</time>
      </trkpt>
      <trkpt lat="50.707067549228668" lon="13.228280022740364">
        <ele>440</ele>
        <time>2026-08-29T10:42:39Z</time>
      </trkpt>
      <trkpt lat="50.707067549228668" lon="13.228279519826174">
        <ele>440</ele>
        <time>2026-08-29T10:42:40Z</time>
      </trkpt>
      <trkpt lat="50.707067549228668" lon="13.228279603645205">
        <ele>440</ele>
        <time>2026-08-29T10:42:41Z</time>
      </trkpt>
      <trkpt lat="50.707067549228668" lon="13.228279771283269">
        <ele>440</ele>
        <time>2026-08-29T10:42:42Z</time>
      </trkpt>
      <trkpt lat="50.707067549228668" lon="13.228279855102301">
        <ele>440</ele>
        <time>2026-08-29T10:42:43Z</time>
      </trkpt>
      <trkpt lat="50.707067549228668" lon="13.228279771283269">
        <ele>440</ele>
        <time>2026-08-29T10:42:44Z</time>
      </trkpt>
      <trkpt lat="50.707068638876081" lon="13.228278430178761">
        <ele>440</ele>
        <time>2026-08-29T10:42:45Z</time>
      </trkpt>
      <trkpt lat="50.707063945010304" lon="13.228282537311316">
        <ele>440</ele>
        <time>2026-08-29T10:42:46Z</time>
      </trkpt>
      <trkpt lat="50.707064112648368" lon="13.228282704949379">
        <ele>440</ele>
        <time>2026-08-29T10:42:47Z</time>
      </trkpt>
      <trkpt lat="50.707064112648368" lon="13.228282872587442">
        <ele>440</ele>
        <time>2026-08-29T10:42:48Z</time>
      </trkpt>
      <trkpt lat="50.7070641964674" lon="13.228282704949379">
        <ele>440</ele>
        <time>2026-08-29T10:42:49Z</time>
      </trkpt>
      <trkpt lat="50.70706813596189" lon="13.228274490684271">
        <ele>439</ele>
        <time>2026-08-29T10:42:50Z</time>
      </trkpt>
      <trkpt lat="50.707071572542191" lon="13.228279436007142">
        <ele>439</ele>
        <time>2026-08-29T10:42:51Z</time>
      </trkpt>
      <trkpt lat="50.707071237266064" lon="13.228305922821164">
        <ele>439</ele>
        <time>2026-08-29T10:42:52Z</time>
      </trkpt>
      <trkpt lat="50.707072578370571" lon="13.22833651676774">
        <ele>439</ele>
        <time>2026-08-29T10:42:53Z</time>
      </trkpt>
      <trkpt lat="50.707074170932174" lon="13.228369457647204">
        <ele>439</ele>
        <time>2026-08-29T10:42:54Z</time>
      </trkpt>
      <trkpt lat="50.70708716288209" lon="13.2284024823457">
        <ele>440</ele>
        <time>2026-08-29T10:42:55Z</time>
      </trkpt>
      <trkpt lat="50.707108369097114" lon="13.228413378819823">
        <ele>440</ele>
        <time>2026-08-29T10:42:56Z</time>
      </trkpt>
      <trkpt lat="50.707139298319817" lon="13.228390831500292">
        <ele>439</ele>
        <time>2026-08-29T10:42:57Z</time>
      </trkpt>
      <trkpt lat="50.707166539505124" lon="13.228346994146705">
        <ele>439</ele>
        <time>2026-08-29T10:42:58Z</time>
      </trkpt>
      <trkpt lat="50.707191349938512" lon="13.228289829567075">
        <ele>439</ele>
        <time>2026-08-29T10:42:59Z</time>
      </trkpt>
      <trkpt lat="50.707228062674403" lon="13.22820458561182">
        <ele>439</ele>
        <time>2026-08-29T10:43:00Z</time>
      </trkpt>
      <trkpt lat="50.707261674106121" lon="13.228138033300638">
        <ele>439</ele>
        <time>2026-08-29T10:43:01Z</time>
      </trkpt>
      <trkpt lat="50.707306349650025" lon="13.228068966418505">
        <ele>440</ele>
        <time>2026-08-29T10:43:02Z</time>
      </trkpt>
      <trkpt lat="50.707353288307786" lon="13.227993361651897">
        <ele>439</ele>
        <time>2026-08-29T10:43:03Z</time>
      </trkpt>
      <trkpt lat="50.707401987165213" lon="13.227926641702652">
        <ele>439</ele>
        <time>2026-08-29T10:43:04Z</time>
      </trkpt>
      <trkpt lat="50.707459654659033" lon="13.227861933410168">
        <ele>439</ele>
        <time>2026-08-29T10:43:05Z</time>
      </trkpt>
      <trkpt lat="50.707516148686409" lon="13.227799655869603">
        <ele>439</ele>
        <time>2026-08-29T10:43:06Z</time>
      </trkpt>
      <trkpt lat="50.707575660198927" lon="13.227745592594147">
        <ele>439</ele>
        <time>2026-08-29T10:43:07Z</time>
      </trkpt>
      <trkpt lat="50.707629891112447" lon="13.227689769119024">
        <ele>438</ele>
        <time>2026-08-29T10:43:08Z</time>
      </trkpt>
      <trkpt lat="50.707691917195916" lon="13.227637382224202">
        <ele>439</ele>
        <time>2026-08-29T10:43:09Z</time>
      </trkpt>
      <trkpt lat="50.70774924941361" lon="13.227598993107677">
        <ele>438</ele>
        <time>2026-08-29T10:43:10Z</time>
      </trkpt>
      <trkpt lat="50.707815298810601" lon="13.227557167410851">
        <ele>438</ele>
        <time>2026-08-29T10:43:11Z</time>
      </trkpt>
      <trkpt lat="50.707885203883052" lon="13.227520873770118">
        <ele>437</ele>
        <time>2026-08-29T10:43:12Z</time>
      </trkpt>
      <trkpt lat="50.707949912175536" lon="13.227487346157432">
        <ele>438</ele>
        <time>2026-08-29T10:43:13Z</time>
      </trkpt>
      <trkpt lat="50.708016799762845" lon="13.227452896535397">
        <ele>438</ele>
        <time>2026-08-29T10:43:14Z</time>
      </trkpt>
      <trkpt lat="50.708081508055329" lon="13.22741886600852">
        <ele>438</ele>
        <time>2026-08-29T10:43:15Z</time>
      </trkpt>
      <trkpt lat="50.70814847946167" lon="13.227387685328722">
        <ele>437</ele>
        <time>2026-08-29T10:43:16Z</time>
      </trkpt>
      <trkpt lat="50.708211427554488" lon="13.227367401123047">
        <ele>437</ele>
        <time>2026-08-29T10:43:17Z</time>
      </trkpt>
      <trkpt lat="50.708278566598892" lon="13.22734703309834">
        <ele>436</ele>
        <time>2026-08-29T10:43:18Z</time>
      </trkpt>
      <trkpt lat="50.708343107253313" lon="13.227326245978475">
        <ele>436</ele>
        <time>2026-08-29T10:43:19Z</time>
      </trkpt>
      <trkpt lat="50.708409491926432" lon="13.227304201573133">
        <ele>437</ele>
        <time>2026-08-29T10:43:20Z</time>
      </trkpt>
      <trkpt lat="50.708477050065994" lon="13.227277128025889">
        <ele>437</ele>
        <time>2026-08-29T10:43:21Z</time>
      </trkpt>
      <trkpt lat="50.708533879369497" lon="13.227246198803186">
        <ele>437</ele>
        <time>2026-08-29T10:43:22Z</time>
      </trkpt>
      <trkpt lat="50.708592133596539" lon="13.227219376713037">
        <ele>437</ele>
        <time>2026-08-29T10:43:23Z</time>
      </trkpt>
      <trkpt lat="50.708656841889024" lon="13.227193057537079">
        <ele>437</ele>
        <time>2026-08-29T10:43:24Z</time>
      </trkpt>
      <trkpt lat="50.708717107772827" lon="13.227166905999184">
        <ele>437</ele>
        <time>2026-08-29T10:43:25Z</time>
      </trkpt>
      <trkpt lat="50.708779469132423" lon="13.22714033536613">
        <ele>437</ele>
        <time>2026-08-29T10:43:26Z</time>
      </trkpt>
      <trkpt lat="50.708846691995859" lon="13.227113094180822">
        <ele>437</ele>
        <time>2026-08-29T10:43:27Z</time>
      </trkpt>
      <trkpt lat="50.708912238478661" lon="13.227091133594513">
        <ele>437</ele>
        <time>2026-08-29T10:43:28Z</time>
      </trkpt>
      <trkpt lat="50.708975270390511" lon="13.22705140337348">
        <ele>437</ele>
        <time>2026-08-29T10:43:29Z</time>
      </trkpt>
      <trkpt lat="50.709028830751777" lon="13.22699767537415">
        <ele>436</ele>
        <time>2026-08-29T10:43:30Z</time>
      </trkpt>
      <trkpt lat="50.709082558751106" lon="13.226930452510715">
        <ele>436</ele>
        <time>2026-08-29T10:43:31Z</time>
      </trkpt>
      <trkpt lat="50.709127318114042" lon="13.226849483326077">
        <ele>436</ele>
        <time>2026-08-29T10:43:32Z</time>
      </trkpt>
      <trkpt lat="50.709156151860952" lon="13.22676851414144">
        <ele>436</ele>
        <time>2026-08-29T10:43:33Z</time>
      </trkpt>
      <trkpt lat="50.709175430238247" lon="13.226680755615234">
        <ele>437</ele>
        <time>2026-08-29T10:43:34Z</time>
      </trkpt>
      <trkpt lat="50.7091916911304" lon="13.226586040109396">
        <ele>437</ele>
        <time>2026-08-29T10:43:35Z</time>
      </trkpt>
      <trkpt lat="50.709206527099013" lon="13.226493587717414">
        <ele>436</ele>
        <time>2026-08-29T10:43:36Z</time>
      </trkpt>
      <trkpt lat="50.709225721657276" lon="13.22640398517251">
        <ele>436</ele>
        <time>2026-08-29T10:43:37Z</time>
      </trkpt>
      <trkpt lat="50.709236701950431" lon="13.226311197504401">
        <ele>436</ele>
        <time>2026-08-29T10:43:38Z</time>
      </trkpt>
      <trkpt lat="50.709248268976808" lon="13.226217404007912">
        <ele>436</ele>
        <time>2026-08-29T10:43:39Z</time>
      </trkpt>
      <trkpt lat="50.70926402695477" lon="13.226122353225946">
        <ele>436</ele>
        <time>2026-08-29T10:43:40Z</time>
      </trkpt>
      <trkpt lat="50.709283640608191" lon="13.226036103442311">
        <ele>435</ele>
        <time>2026-08-29T10:43:41Z</time>
      </trkpt>
      <trkpt lat="50.709300488233566" lon="13.225949602201581">
        <ele>435</ele>
        <time>2026-08-29T10:43:42Z</time>
      </trkpt>
      <trkpt lat="50.709321610629559" lon="13.225863939151168">
        <ele>435</ele>
        <time>2026-08-29T10:43:43Z</time>
      </trkpt>
      <trkpt lat="50.709347510710359" lon="13.225781042128801">
        <ele>435</ele>
        <time>2026-08-29T10:43:44Z</time>
      </trkpt>
      <trkpt lat="50.709365950897336" lon="13.225702419877052">
        <ele>436</ele>
        <time>2026-08-29T10:43:45Z</time>
      </trkpt>
      <trkpt lat="50.709385732188821" lon="13.225614074617624">
        <ele>436</ele>
        <time>2026-08-29T10:43:46Z</time>
      </trkpt>
      <trkpt lat="50.709401741623878" lon="13.225519945845008">
        <ele>436</ele>
        <time>2026-08-29T10:43:47Z</time>
      </trkpt>
      <trkpt lat="50.709418673068285" lon="13.225435120984912">
        <ele>436</ele>
        <time>2026-08-29T10:43:48Z</time>
      </trkpt>
      <trkpt lat="50.709431916475296" lon="13.225343255326152">
        <ele>435</ele>
        <time>2026-08-29T10:43:49Z</time>
      </trkpt>
      <trkpt lat="50.709447339177132" lon="13.225257508456707">
        <ele>435</ele>
        <time>2026-08-29T10:43:50Z</time>
      </trkpt>
      <trkpt lat="50.709461756050587" lon="13.22517653927207">
        <ele>435</ele>
        <time>2026-08-29T10:43:51Z</time>
      </trkpt>
      <trkpt lat="50.709482040256262" lon="13.225088948383927">
        <ele>435</ele>
        <time>2026-08-29T10:43:52Z</time>
      </trkpt>
      <trkpt lat="50.709499977529049" lon="13.225010158494115">
        <ele>435</ele>
        <time>2026-08-29T10:43:53Z</time>
      </trkpt>
      <trkpt lat="50.709516741335392" lon="13.224935056641698">
        <ele>435</ele>
        <time>2026-08-29T10:43:54Z</time>
      </trkpt>
      <trkpt lat="50.70953618735075" lon="13.224859870970249">
        <ele>434</ele>
        <time>2026-08-29T10:43:55Z</time>
      </trkpt>
      <trkpt lat="50.709556639194489" lon="13.224776973947883">
        <ele>434</ele>
        <time>2026-08-29T10:43:56Z</time>
      </trkpt>
      <trkpt lat="50.709575666114688" lon="13.224708158522844">
        <ele>433</ele>
        <time>2026-08-29T10:43:57Z</time>
      </trkpt>
      <trkpt lat="50.709596201777458" lon="13.224633643403649">
        <ele>433</ele>
        <time>2026-08-29T10:43:58Z</time>
      </trkpt>
      <trkpt lat="50.709623359143734" lon="13.224556194618344">
        <ele>433</ele>
        <time>2026-08-29T10:43:59Z</time>
      </trkpt>
      <trkpt lat="50.709638111293316" lon="13.224483607336879">
        <ele>433</ele>
        <time>2026-08-29T10:44:00Z</time>
      </trkpt>
      <trkpt lat="50.70965152233839" lon="13.224413199350238">
        <ele>433</ele>
        <time>2026-08-29T10:44:01Z</time>
      </trkpt>
      <trkpt lat="50.709671219810843" lon="13.22434832341969">
        <ele>433</ele>
        <time>2026-08-29T10:44:02Z</time>
      </trkpt>
      <trkpt lat="50.709697706624866" lon="13.224282022565603">
        <ele>433</ele>
        <time>2026-08-29T10:44:03Z</time>
      </trkpt>
      <trkpt lat="50.709721008315682" lon="13.224208680912852">
        <ele>434</ele>
        <time>2026-08-29T10:44:04Z</time>
      </trkpt>
      <trkpt lat="50.709744729101658" lon="13.224138859659433">
        <ele>434</ele>
        <time>2026-08-29T10:44:05Z</time>
      </trkpt>
      <trkpt lat="50.70976342074573" lon="13.224075073376298">
        <ele>434</ele>
        <time>2026-08-29T10:44:06Z</time>
      </trkpt>
      <trkpt lat="50.709788734093308" lon="13.224004749208689">
        <ele>434</ele>
        <time>2026-08-29T10:44:07Z</time>
      </trkpt>
      <trkpt lat="50.709815388545394" lon="13.223936269059777">
        <ele>434</ele>
        <time>2026-08-29T10:44:08Z</time>
      </trkpt>
      <trkpt lat="50.70983475074172" lon="13.223856892436743">
        <ele>433</ele>
        <time>2026-08-29T10:44:09Z</time>
      </trkpt>
      <trkpt lat="50.70985377766192" lon="13.223782125860453">
        <ele>433</ele>
        <time>2026-08-29T10:44:10Z</time>
      </trkpt>
      <trkpt lat="50.709873139858246" lon="13.223708448931575">
        <ele>433</ele>
        <time>2026-08-29T10:44:11Z</time>
      </trkpt>
      <trkpt lat="50.709891077131033" lon="13.223636616021395">
        <ele>433</ele>
        <time>2026-08-29T10:44:12Z</time>
      </trkpt>
      <trkpt lat="50.709910439327359" lon="13.223566459491849">
        <ele>433</ele>
        <time>2026-08-29T10:44:13Z</time>
      </trkpt>
      <trkpt lat="50.709932399913669" lon="13.223487585783005">
        <ele>433</ele>
        <time>2026-08-29T10:44:14Z</time>
      </trkpt>
      <trkpt lat="50.709953857585788" lon="13.223424218595028">
        <ele>433</ele>
        <time>2026-08-29T10:44:15Z</time>
      </trkpt>
      <trkpt lat="50.709971878677607" lon="13.223361438140273">
        <ele>433</ele>
        <time>2026-08-29T10:44:16Z</time>
      </trkpt>
      <trkpt lat="50.709991408511996" lon="13.223292035982013">
        <ele>433</ele>
        <time>2026-08-29T10:44:17Z</time>
      </trkpt>
      <trkpt lat="50.710009764879942" lon="13.223229506984353">
        <ele>433</ele>
        <time>2026-08-29T10:44:18Z</time>
      </trkpt>
      <trkpt lat="50.710026947781444" lon="13.223166223615408">
        <ele>433</ele>
        <time>2026-08-29T10:44:19Z</time>
      </trkpt>
      <trkpt lat="50.710051842033863" lon="13.22310428135097">
        <ele>433</ele>
        <time>2026-08-29T10:44:20Z</time>
      </trkpt>
      <trkpt lat="50.710079502314329" lon="13.223046865314245">
        <ele>433</ele>
        <time>2026-08-29T10:44:21Z</time>
      </trkpt>
      <trkpt lat="50.710102971643209" lon="13.222987186163664">
        <ele>434</ele>
        <time>2026-08-29T10:44:22Z</time>
      </trkpt>
      <trkpt lat="50.710125602781773" lon="13.222929015755653">
        <ele>433</ele>
        <time>2026-08-29T10:44:23Z</time>
      </trkpt>
      <trkpt lat="50.710149239748716" lon="13.22287411428988">
        <ele>433</ele>
        <time>2026-08-29T10:44:24Z</time>
      </trkpt>
      <trkpt lat="50.710165752097964" lon="13.222830109298229">
        <ele>434</ele>
        <time>2026-08-29T10:44:25Z</time>
      </trkpt>
      <trkpt lat="50.710182180628181" lon="13.222773782908916">
        <ele>434</ele>
        <time>2026-08-29T10:44:26Z</time>
      </trkpt>
      <trkpt lat="50.710197519510984" lon="13.222716702148318">
        <ele>434</ele>
        <time>2026-08-29T10:44:27Z</time>
      </trkpt>
      <trkpt lat="50.710206488147378" lon="13.222661046311259">
        <ele>434</ele>
        <time>2026-08-29T10:44:28Z</time>
      </trkpt>
      <trkpt lat="50.710210930556059" lon="13.222607737407088">
        <ele>434</ele>
        <time>2026-08-29T10:44:29Z</time>
      </trkpt>
      <trkpt lat="50.710220821201801" lon="13.22255308739841">
        <ele>434</ele>
        <time>2026-08-29T10:44:30Z</time>
      </trkpt>
      <trkpt lat="50.710231969133019" lon="13.222500197589397">
        <ele>434</ele>
        <time>2026-08-29T10:44:31Z</time>
      </trkpt>
      <trkpt lat="50.71024420671165" lon="13.222450660541654">
        <ele>434</ele>
        <time>2026-08-29T10:44:32Z</time>
      </trkpt>
      <trkpt lat="50.710256779566407" lon="13.222398608922958">
        <ele>434</ele>
        <time>2026-08-29T10:44:33Z</time>
      </trkpt>
      <trkpt lat="50.710264490917325" lon="13.222338678315282">
        <ele>434</ele>
        <time>2026-08-29T10:44:34Z</time>
      </trkpt>
      <trkpt lat="50.710277147591114" lon="13.222286375239491">
        <ele>435</ele>
        <time>2026-08-29T10:44:35Z</time>
      </trkpt>
      <trkpt lat="50.710296928882599" lon="13.222231222316623">
        <ele>435</ele>
        <time>2026-08-29T10:44:36Z</time>
      </trkpt>
      <trkpt lat="50.710305897518992" lon="13.222172800451517">
        <ele>435</ele>
        <time>2026-08-29T10:44:37Z</time>
      </trkpt>
      <trkpt lat="50.710322661325336" lon="13.222112702205777">
        <ele>435</ele>
        <time>2026-08-29T10:44:38Z</time>
      </trkpt>
      <trkpt lat="50.710337162017822" lon="13.222049754112959">
        <ele>435</ele>
        <time>2026-08-29T10:44:39Z</time>
      </trkpt>
      <trkpt lat="50.710351914167404" lon="13.221991751343012">
        <ele>435</ele>
        <time>2026-08-29T10:44:40Z</time>
      </trkpt>
      <trkpt lat="50.710367085412145" lon="13.221935508772731">
        <ele>435</ele>
        <time>2026-08-29T10:44:41Z</time>
      </trkpt>
      <trkpt lat="50.710380831733346" lon="13.221877506002784">
        <ele>435</ele>
        <time>2026-08-29T10:44:42Z</time>
      </trkpt>
      <trkpt lat="50.710392063483596" lon="13.221824867650867">
        <ele>435</ele>
        <time>2026-08-29T10:44:43Z</time>
      </trkpt>
      <trkpt lat="50.710402289405465" lon="13.221777426078916">
        <ele>435</ele>
        <time>2026-08-29T10:44:44Z</time>
      </trkpt>
      <trkpt lat="50.710407318547368" lon="13.221731157973409">
        <ele>435</ele>
        <time>2026-08-29T10:44:45Z</time>
      </trkpt>
      <trkpt lat="50.710414359346032" lon="13.221684470772743">
        <ele>435</ele>
        <time>2026-08-29T10:44:46Z</time>
      </trkpt>
      <trkpt lat="50.710418550297618" lon="13.221639292314649">
        <ele>435</ele>
        <time>2026-08-29T10:44:47Z</time>
      </trkpt>
      <trkpt lat="50.710425758734345" lon="13.221592605113983">
        <ele>435</ele>
        <time>2026-08-29T10:44:48Z</time>
      </trkpt>
      <trkpt lat="50.7104367390275" lon="13.221544828265905">
        <ele>435</ele>
        <time>2026-08-29T10:44:49Z</time>
      </trkpt>
      <trkpt lat="50.710452497005463" lon="13.221500990912318">
        <ele>435</ele>
        <time>2026-08-29T10:44:50Z</time>
      </trkpt>
      <trkpt lat="50.710466662421823" lon="13.22145614773035">
        <ele>435</ele>
        <time>2026-08-29T10:44:51Z</time>
      </trkpt>
      <trkpt lat="50.710482420399785" lon="13.221401916816831">
        <ele>434</ele>
        <time>2026-08-29T10:44:52Z</time>
      </trkpt>
      <trkpt lat="50.710497424006462" lon="13.221349362283945">
        <ele>434</ele>
        <time>2026-08-29T10:44:53Z</time>
      </trkpt>
      <trkpt lat="50.710508236661553" lon="13.2213085424155">
        <ele>434</ele>
        <time>2026-08-29T10:44:54Z</time>
      </trkpt>
      <trkpt lat="50.71052173152566" lon="13.221260011196136">
        <ele>434</ele>
        <time>2026-08-29T10:44:55Z</time>
      </trkpt>
      <trkpt lat="50.710535058751702" lon="13.221223382279277">
        <ele>434</ele>
        <time>2026-08-29T10:44:56Z</time>
      </trkpt>
      <trkpt lat="50.71055106818676" lon="13.221187926828861">
        <ele>435</ele>
        <time>2026-08-29T10:44:57Z</time>
      </trkpt>
      <trkpt lat="50.710566407069564" lon="13.221163786947727">
        <ele>435</ele>
        <time>2026-08-29T10:44:58Z</time>
      </trkpt>
      <trkpt lat="50.710575878620148" lon="13.221147693693638">
        <ele>434</ele>
        <time>2026-08-29T10:44:59Z</time>
      </trkpt>
      <trkpt lat="50.710583841428161" lon="13.221141826361418">
        <ele>435</ele>
        <time>2026-08-29T10:45:00Z</time>
      </trkpt>
      <trkpt lat="50.710589289665222" lon="13.221132354810834">
        <ele>435</ele>
        <time>2026-08-29T10:45:01Z</time>
      </trkpt>
      <trkpt lat="50.71059113368392" lon="13.221127074211836">
        <ele>435</ele>
        <time>2026-08-29T10:45:02Z</time>
      </trkpt>
      <trkpt lat="50.710597839206457" lon="13.221121542155743">
        <ele>434</ele>
        <time>2026-08-29T10:45:03Z</time>
      </trkpt>
      <trkpt lat="50.710610831156373" lon="13.22111458517611">
        <ele>434</ele>
        <time>2026-08-29T10:45:04Z</time>
      </trkpt>
      <trkpt lat="50.710625415667892" lon="13.221103940159082">
        <ele>434</ele>
        <time>2026-08-29T10:45:05Z</time>
      </trkpt>
      <trkpt lat="50.710640838369727" lon="13.221099162474275">
        <ele>434</ele>
        <time>2026-08-29T10:45:06Z</time>
      </trkpt>
      <trkpt lat="50.710660452023149" lon="13.221098156645894">
        <ele>434</ele>
        <time>2026-08-29T10:45:07Z</time>
      </trkpt>
      <trkpt lat="50.710683921352029" lon="13.221104694530368">
        <ele>434</ele>
        <time>2026-08-29T10:45:08Z</time>
      </trkpt>
      <trkpt lat="50.71070839650929" lon="13.221111400052905">
        <ele>434</ele>
        <time>2026-08-29T10:45:09Z</time>
      </trkpt>
      <trkpt lat="50.710730021819472" lon="13.22111751884222">
        <ele>434</ele>
        <time>2026-08-29T10:45:10Z</time>
      </trkpt>
      <trkpt lat="50.710753239691257" lon="13.22113361209631">
        <ele>434</ele>
        <time>2026-08-29T10:45:11Z</time>
      </trkpt>
      <trkpt lat="50.710779558867216" lon="13.221150292083621">
        <ele>435</ele>
        <time>2026-08-29T10:45:12Z</time>
      </trkpt>
      <trkpt lat="50.710806380957365" lon="13.221168983727694">
        <ele>435</ele>
        <time>2026-08-29T10:45:13Z</time>
      </trkpt>
      <trkpt lat="50.710836974903941" lon="13.221196308732033">
        <ele>435</ele>
        <time>2026-08-29T10:45:14Z</time>
      </trkpt>
      <trkpt lat="50.710871256887913" lon="13.221226232126355">
        <ele>435</ele>
        <time>2026-08-29T10:45:15Z</time>
      </trkpt>
      <trkpt lat="50.710903778672218" lon="13.22126897983253">
        <ele>436</ele>
        <time>2026-08-29T10:45:16Z</time>
      </trkpt>
      <trkpt lat="50.710939988493919" lon="13.221297645941377">
        <ele>436</ele>
        <time>2026-08-29T10:45:17Z</time>
      </trkpt>
      <trkpt lat="50.710983071476221" lon="13.221331844106317">
        <ele>436</ele>
        <time>2026-08-29T10:45:18Z</time>
      </trkpt>
      <trkpt lat="50.711023220792413" lon="13.221356989815831">
        <ele>437</ele>
        <time>2026-08-29T10:45:19Z</time>
      </trkpt>
      <trkpt lat="50.711065968498588" lon="13.221390601247549">
        <ele>437</ele>
        <time>2026-08-29T10:45:20Z</time>
      </trkpt>
      <trkpt lat="50.711111985146999" lon="13.221430080011487">
        <ele>437</ele>
        <time>2026-08-29T10:45:21Z</time>
      </trkpt>
      <trkpt lat="50.711157498881221" lon="13.221465954557061">
        <ele>437</ele>
        <time>2026-08-29T10:45:22Z</time>
      </trkpt>
      <trkpt lat="50.711207706481218" lon="13.221496632322669">
        <ele>438</ele>
        <time>2026-08-29T10:45:23Z</time>
      </trkpt>
      <trkpt lat="50.711251040920615" lon="13.221537955105305">
        <ele>437</ele>
        <time>2026-08-29T10:45:24Z</time>
      </trkpt>
      <trkpt lat="50.711296554654837" lon="13.221574081107974">
        <ele>437</ele>
        <time>2026-08-29T10:45:25Z</time>
      </trkpt>
      <trkpt lat="50.711346426978707" lon="13.221608949825168">
        <ele>437</ele>
        <time>2026-08-29T10:45:26Z</time>
      </trkpt>
      <trkpt lat="50.711394287645817" lon="13.221651446074247">
        <ele>438</ele>
        <time>2026-08-29T10:45:27Z</time>
      </trkpt>
      <trkpt lat="50.711440471932292" lon="13.221687907353044">
        <ele>437</ele>
        <time>2026-08-29T10:45:28Z</time>
      </trkpt>
      <trkpt lat="50.711490008980036" lon="13.221727218478918">
        <ele>437</ele>
        <time>2026-08-29T10:45:29Z</time>
      </trkpt>
      <trkpt lat="50.711534852162004" lon="13.221767116338015">
        <ele>438</ele>
        <time>2026-08-29T10:45:30Z</time>
      </trkpt>
      <trkpt lat="50.711578689515591" lon="13.221810450777411">
        <ele>438</ele>
        <time>2026-08-29T10:45:31Z</time>
      </trkpt>
      <trkpt lat="50.711621688678861" lon="13.221858981996775">
        <ele>438</ele>
        <time>2026-08-29T10:45:32Z</time>
      </trkpt>
      <trkpt lat="50.71165781468153" lon="13.221904579550028">
        <ele>438</ele>
        <time>2026-08-29T10:45:33Z</time>
      </trkpt>
      <trkpt lat="50.711695617064834" lon="13.221950931474566">
        <ele>438</ele>
        <time>2026-08-29T10:45:34Z</time>
      </trkpt>
      <trkpt lat="50.711728809401393" lon="13.222003988921642">
        <ele>438</ele>
        <time>2026-08-29T10:45:35Z</time>
      </trkpt>
      <trkpt lat="50.711756888777018" lon="13.222052436321974">
        <ele>438</ele>
        <time>2026-08-29T10:45:36Z</time>
      </trkpt>
      <trkpt lat="50.711785554885864" lon="13.222111612558365">
        <ele>439</ele>
        <time>2026-08-29T10:45:37Z</time>
      </trkpt>
      <trkpt lat="50.711810030043125" lon="13.222166765481234">
        <ele>439</ele>
        <time>2026-08-29T10:45:38Z</time>
      </trkpt>
      <trkpt lat="50.711833583191037" lon="13.22223256342113">
        <ele>439</ele>
        <time>2026-08-29T10:45:39Z</time>
      </trkpt>
      <trkpt lat="50.71185328066349" lon="13.22229559533298">
        <ele>439</ele>
        <time>2026-08-29T10:45:40Z</time>
      </trkpt>
      <trkpt lat="50.711873732507229" lon="13.222363824024796">
        <ele>438</ele>
        <time>2026-08-29T10:45:41Z</time>
      </trkpt>
      <trkpt lat="50.711888819932938" lon="13.222428616136312">
        <ele>438</ele>
        <time>2026-08-29T10:45:42Z</time>
      </trkpt>
      <trkpt lat="50.711912708356977" lon="13.222491648048162">
        <ele>439</ele>
        <time>2026-08-29T10:45:43Z</time>
      </trkpt>
      <trkpt lat="50.711931819096208" lon="13.22255409322679">
        <ele>438</ele>
        <time>2026-08-29T10:45:44Z</time>
      </trkpt>
      <trkpt lat="50.711948666721582" lon="13.222613018006086">
        <ele>438</ele>
        <time>2026-08-29T10:45:45Z</time>
      </trkpt>
      <trkpt lat="50.711972638964653" lon="13.222676133736968">
        <ele>438</ele>
        <time>2026-08-29T10:45:46Z</time>
      </trkpt>
      <trkpt lat="50.711993928998709" lon="13.222737740725279">
        <ele>438</ele>
        <time>2026-08-29T10:45:47Z</time>
      </trkpt>
      <trkpt lat="50.712013291195035" lon="13.222793396562338">
        <ele>438</ele>
        <time>2026-08-29T10:45:48Z</time>
      </trkpt>
      <trkpt lat="50.712032821029425" lon="13.222844190895557">
        <ele>438</ele>
        <time>2026-08-29T10:45:49Z</time>
      </trkpt>
      <trkpt lat="50.712050590664148" lon="13.222900852560997">
        <ele>439</ele>
        <time>2026-08-29T10:45:50Z</time>
      </trkpt>
      <trkpt lat="50.712060648947954" lon="13.22295474819839">
        <ele>439</ele>
        <time>2026-08-29T10:45:51Z</time>
      </trkpt>
      <trkpt lat="50.712084788829088" lon="13.223011326044798">
        <ele>438</ele>
        <time>2026-08-29T10:45:52Z</time>
      </trkpt>
      <trkpt lat="50.712101049721241" lon="13.22307008318603">
        <ele>438</ele>
        <time>2026-08-29T10:45:53Z</time>
      </trkpt>
      <trkpt lat="50.712123597040772" lon="13.223134120926261">
        <ele>437</ele>
        <time>2026-08-29T10:45:54Z</time>
      </trkpt>
      <trkpt lat="50.712148072198033" lon="13.223198829218745">
        <ele>437</ele>
        <time>2026-08-29T10:45:55Z</time>
      </trkpt>
      <trkpt lat="50.712168104946613" lon="13.223258927464485">
        <ele>437</ele>
        <time>2026-08-29T10:45:56Z</time>
      </trkpt>
      <trkpt lat="50.712195010855794" lon="13.223316092044115">
        <ele>437</ele>
        <time>2026-08-29T10:45:57Z</time>
      </trkpt>
      <trkpt lat="50.712222000584006" lon="13.22337107732892">
        <ele>437</ele>
        <time>2026-08-29T10:45:58Z</time>
      </trkpt>
      <trkpt lat="50.712249996140599" lon="13.223427571356297">
        <ele>438</ele>
        <time>2026-08-29T10:45:59Z</time>
      </trkpt>
      <trkpt lat="50.712276063859463" lon="13.223483981564641">
        <ele>438</ele>
        <time>2026-08-29T10:46:00Z</time>
      </trkpt>
      <trkpt lat="50.712303388863802" lon="13.223539972677827">
        <ele>438</ele>
        <time>2026-08-29T10:46:01Z</time>
      </trkpt>
      <trkpt lat="50.712329791858792" lon="13.223586324602365">
        <ele>438</ele>
        <time>2026-08-29T10:46:02Z</time>
      </trkpt>
      <trkpt lat="50.712361978366971" lon="13.223629826679826">
        <ele>438</ele>
        <time>2026-08-29T10:46:03Z</time>
      </trkpt>
      <trkpt lat="50.71239123120904" lon="13.223649021238089">
        <ele>438</ele>
        <time>2026-08-29T10:46:04Z</time>
      </trkpt>
      <trkpt lat="50.712432218715549" lon="13.22365446947515">
        <ele>438</ele>
        <time>2026-08-29T10:46:05Z</time>
      </trkpt>
      <trkpt lat="50.712469182908535" lon="13.223639717325568">
        <ele>438</ele>
        <time>2026-08-29T10:46:06Z</time>
      </trkpt>
      <trkpt lat="50.712506398558617" lon="13.223620606586337">
        <ele>438</ele>
        <time>2026-08-29T10:46:07Z</time>
      </trkpt>
      <trkpt lat="50.712537998333573" lon="13.223606692627072">
        <ele>438</ele>
        <time>2026-08-29T10:46:08Z</time>
      </trkpt>
      <trkpt lat="50.712570939213037" lon="13.22359386831522">
        <ele>438</ele>
        <time>2026-08-29T10:46:09Z</time>
      </trkpt>
      <trkpt lat="50.712604215368629" lon="13.223579786717892">
        <ele>438</ele>
        <time>2026-08-29T10:46:10Z</time>
      </trkpt>
      <trkpt lat="50.712639335542917" lon="13.223572745919228">
        <ele>438</ele>
        <time>2026-08-29T10:46:11Z</time>
      </trkpt>
      <trkpt lat="50.712673785164952" lon="13.223580708727241">
        <ele>438</ele>
        <time>2026-08-29T10:46:12Z</time>
      </trkpt>
      <trkpt lat="50.712717371061444" lon="13.2236139010638">
        <ele>438</ele>
        <time>2026-08-29T10:46:13Z</time>
      </trkpt>
      <trkpt lat="50.712753497064114" lon="13.223658157512546">
        <ele>437</ele>
        <time>2026-08-29T10:46:14Z</time>
      </trkpt>
      <trkpt lat="50.712785013020039" lon="13.223699312657118">
        <ele>437</ele>
        <time>2026-08-29T10:46:15Z</time>
      </trkpt>
      <trkpt lat="50.712829688563943" lon="13.223753878846765">
        <ele>437</ele>
        <time>2026-08-29T10:46:16Z</time>
      </trkpt>
      <trkpt lat="50.712874112650752" lon="13.223793776705861">
        <ele>437</ele>
        <time>2026-08-29T10:46:17Z</time>
      </trkpt>
      <trkpt lat="50.712919291108847" lon="13.223833506926894">
        <ele>437</ele>
        <time>2026-08-29T10:46:18Z</time>
      </trkpt>
      <trkpt lat="50.712965559214354" lon="13.223878098651767">
        <ele>437</ele>
        <time>2026-08-29T10:46:19Z</time>
      </trkpt>
      <trkpt lat="50.713016018271446" lon="13.223924115300179">
        <ele>437</ele>
        <time>2026-08-29T10:46:20Z</time>
      </trkpt>
      <trkpt lat="50.713066561147571" lon="13.22396669536829">
        <ele>437</ele>
        <time>2026-08-29T10:46:21Z</time>
      </trkpt>
      <trkpt lat="50.713120540603995" lon="13.224000558257103">
        <ele>437</ele>
        <time>2026-08-29T10:46:22Z</time>
      </trkpt>
      <trkpt lat="50.713177202269435" lon="13.224017741158605">
        <ele>437</ele>
        <time>2026-08-29T10:46:23Z</time>
      </trkpt>
      <trkpt lat="50.713234366849065" lon="13.224022602662444">
        <ele>437</ele>
        <time>2026-08-29T10:46:24Z</time>
      </trkpt>
      <trkpt lat="50.71328985504806" lon="13.224027464166284">
        <ele>437</ele>
        <time>2026-08-29T10:46:25Z</time>
      </trkpt>
      <trkpt lat="50.713347522541881" lon="13.224037857726216">
        <ele>437</ele>
        <time>2026-08-29T10:46:26Z</time>
      </trkpt>
      <trkpt lat="50.71340074762702" lon="13.224055040627718">
        <ele>437</ele>
        <time>2026-08-29T10:46:27Z</time>
      </trkpt>
      <trkpt lat="50.713454810902476" lon="13.224081862717867">
        <ele>437</ele>
        <time>2026-08-29T10:46:28Z</time>
      </trkpt>
      <trkpt lat="50.713507449254394" lon="13.224099967628717">
        <ele>437</ele>
        <time>2026-08-29T10:46:29Z</time>
      </trkpt>
      <trkpt lat="50.713565284386277" lon="13.224121844395995">
        <ele>436</ele>
        <time>2026-08-29T10:46:30Z</time>
      </trkpt>
      <trkpt lat="50.713621359318495" lon="13.224150342866778">
        <ele>436</ele>
        <time>2026-08-29T10:46:31Z</time>
      </trkpt>
      <trkpt lat="50.7136797811836" lon="13.224176494404674">
        <ele>436</ele>
        <time>2026-08-29T10:46:32Z</time>
      </trkpt>
      <trkpt lat="50.713738538324833" lon="13.224199628457427">
        <ele>436</ele>
        <time>2026-08-29T10:46:33Z</time>
      </trkpt>
      <trkpt lat="50.713792517781258" lon="13.224241957068443">
        <ele>437</ele>
        <time>2026-08-29T10:46:34Z</time>
      </trkpt>
      <trkpt lat="50.713847419247031" lon="13.224269114434719">
        <ele>437</ele>
        <time>2026-08-29T10:46:35Z</time>
      </trkpt>
      <trkpt lat="50.713902488350868" lon="13.224286129698157">
        <ele>437</ele>
        <time>2026-08-29T10:46:36Z</time>
      </trkpt>
      <trkpt lat="50.713956635445356" lon="13.224297696724534">
        <ele>437</ele>
        <time>2026-08-29T10:46:37Z</time>
      </trkpt>
      <trkpt lat="50.714009189978242" lon="13.224306413903832">
        <ele>437</ele>
        <time>2026-08-29T10:46:38Z</time>
      </trkpt>
      <trkpt lat="50.714059229940176" lon="13.224326446652412">
        <ele>438</ele>
        <time>2026-08-29T10:46:39Z</time>
      </trkpt>
      <trkpt lat="50.714112035930157" lon="13.224335080012679">
        <ele>438</ele>
        <time>2026-08-29T10:46:40Z</time>
      </trkpt>
      <trkpt lat="50.714163919910789" lon="13.224356956779957">
        <ele>438</ele>
        <time>2026-08-29T10:46:41Z</time>
      </trkpt>
      <trkpt lat="50.714213540777564" lon="13.224379923194647">
        <ele>438</ele>
        <time>2026-08-29T10:46:42Z</time>
      </trkpt>
      <trkpt lat="50.714250588789582" lon="13.224421916529536">
        <ele>438</ele>
        <time>2026-08-29T10:46:43Z</time>
      </trkpt>
      <trkpt lat="50.714282104745507" lon="13.224470280110836">
        <ele>438</ele>
        <time>2026-08-29T10:46:44Z</time>
      </trkpt>
      <trkpt lat="50.71429249830544" lon="13.224537754431367">
        <ele>438</ele>
        <time>2026-08-29T10:46:45Z</time>
      </trkpt>
      <trkpt lat="50.714306998997927" lon="13.224578155204654">
        <ele>438</ele>
        <time>2026-08-29T10:46:46Z</time>
      </trkpt>
      <trkpt lat="50.714332479983568" lon="13.224614029750228">
        <ele>438</ele>
        <time>2026-08-29T10:46:47Z</time>
      </trkpt>
      <trkpt lat="50.714360810816288" lon="13.224628362804651">
        <ele>438</ele>
        <time>2026-08-29T10:46:48Z</time>
      </trkpt>
      <trkpt lat="50.714401798322797" lon="13.224625261500478">
        <ele>438</ele>
        <time>2026-08-29T10:46:49Z</time>
      </trkpt>
      <trkpt lat="50.71444395929575" lon="13.224611766636372">
        <ele>438</ele>
        <time>2026-08-29T10:46:50Z</time>
      </trkpt>
      <trkpt lat="50.714478828012943" lon="13.224623249843717">
        <ele>438</ele>
        <time>2026-08-29T10:46:51Z</time>
      </trkpt>
      <trkpt lat="50.714513277634978" lon="13.224628362804651">
        <ele>438</ele>
        <time>2026-08-29T10:46:52Z</time>
      </trkpt>
      <trkpt lat="50.71454806253314" lon="13.224626686424017">
        <ele>438</ele>
        <time>2026-08-29T10:46:53Z</time>
      </trkpt>
      <trkpt lat="50.71460573002696" lon="13.224645294249058">
        <ele>438</ele>
        <time>2026-08-29T10:46:54Z</time>
      </trkpt>
      <trkpt lat="50.714648813009262" lon="13.224644456058741">
        <ele>437</ele>
        <time>2026-08-29T10:46:55Z</time>
      </trkpt>
      <trkpt lat="50.714686028659344" lon="13.22464001365006">
        <ele>437</ele>
        <time>2026-08-29T10:46:56Z</time>
      </trkpt>
      <trkpt lat="50.714720310643315" lon="13.224640097469091">
        <ele>436</ele>
        <time>2026-08-29T10:46:57Z</time>
      </trkpt>
      <trkpt lat="50.714752078056335" lon="13.224643198773265">
        <ele>436</ele>
        <time>2026-08-29T10:46:58Z</time>
      </trkpt>
      <trkpt lat="50.714781917631626" lon="13.224656274542212">
        <ele>436</ele>
        <time>2026-08-29T10:46:59Z</time>
      </trkpt>
      <trkpt lat="50.714811086654663" lon="13.224677732214332">
        <ele>436</ele>
        <time>2026-08-29T10:47:00Z</time>
      </trkpt>
      <trkpt lat="50.7148368190974" lon="13.224700279533863">
        <ele>435</ele>
        <time>2026-08-29T10:47:01Z</time>
      </trkpt>
      <trkpt lat="50.714859534054995" lon="13.224737662822008">
        <ele>435</ele>
        <time>2026-08-29T10:47:02Z</time>
      </trkpt>
      <trkpt lat="50.714876716956496" lon="13.224790804088116">
        <ele>435</ele>
        <time>2026-08-29T10:47:03Z</time>
      </trkpt>
      <trkpt lat="50.714884847402573" lon="13.224837826564908">
        <ele>435</ele>
        <time>2026-08-29T10:47:04Z</time>
      </trkpt>
      <trkpt lat="50.714882919564843" lon="13.224898260086775">
        <ele>434</ele>
        <time>2026-08-29T10:47:05Z</time>
      </trkpt>
      <trkpt lat="50.714892810210586" lon="13.22495081461966">
        <ele>433</ele>
        <time>2026-08-29T10:47:06Z</time>
      </trkpt>
      <trkpt lat="50.714902617037296" lon="13.225004374980927">
        <ele>433</ele>
        <time>2026-08-29T10:47:07Z</time>
      </trkpt>
      <trkpt lat="50.71490672416985" lon="13.2250558398664">
        <ele>433</ele>
        <time>2026-08-29T10:47:08Z</time>
      </trkpt>
      <trkpt lat="50.714907562360168" lon="13.22510864585638">
        <ele>433</ele>
        <time>2026-08-29T10:47:09Z</time>
      </trkpt>
      <trkpt lat="50.714911920949817" lon="13.225147454068065">
        <ele>433</ele>
        <time>2026-08-29T10:47:10Z</time>
      </trkpt>
      <trkpt lat="50.7149145193398" lon="13.225188609212637">
        <ele>432</ele>
        <time>2026-08-29T10:47:11Z</time>
      </trkpt>
      <trkpt lat="50.714919548481703" lon="13.225226327776909">
        <ele>432</ele>
        <time>2026-08-29T10:47:12Z</time>
      </trkpt>
      <trkpt lat="50.714927511289716" lon="13.225270248949528">
        <ele>432</ele>
        <time>2026-08-29T10:47:13Z</time>
      </trkpt>
      <trkpt lat="50.714939748868346" lon="13.225304782390594">
        <ele>432</ele>
        <time>2026-08-29T10:47:14Z</time>
      </trkpt>
      <trkpt lat="50.714944526553154" lon="13.225339902564883">
        <ele>432</ele>
        <time>2026-08-29T10:47:15Z</time>
      </trkpt>
      <trkpt lat="50.714945951476693" lon="13.225374771282077">
        <ele>432</ele>
        <time>2026-08-29T10:47:16Z</time>
      </trkpt>
      <trkpt lat="50.71494922041893" lon="13.225419782102108">
        <ele>432</ele>
        <time>2026-08-29T10:47:17Z</time>
      </trkpt>
      <trkpt lat="50.714961038902402" lon="13.225471414625645">
        <ele>432</ele>
        <time>2026-08-29T10:47:18Z</time>
      </trkpt>
      <trkpt lat="50.714969588443637" lon="13.225506199523807">
        <ele>431</ele>
        <time>2026-08-29T10:47:19Z</time>
      </trkpt>
      <trkpt lat="50.714975958690047" lon="13.225555988028646">
        <ele>432</ele>
        <time>2026-08-29T10:47:20Z</time>
      </trkpt>
      <trkpt lat="50.714978892356157" lon="13.225601082667708">
        <ele>431</ele>
        <time>2026-08-29T10:47:21Z</time>
      </trkpt>
      <trkpt lat="50.714988699182868" lon="13.225649949163198">
        <ele>431</ele>
        <time>2026-08-29T10:47:22Z</time>
      </trkpt>
      <trkpt lat="50.714993644505739" lon="13.225695127621293">
        <ele>431</ele>
        <time>2026-08-29T10:47:23Z</time>
      </trkpt>
      <trkpt lat="50.715001942589879" lon="13.225734690204263">
        <ele>430</ele>
        <time>2026-08-29T10:47:24Z</time>
      </trkpt>
      <trkpt lat="50.71501174941659" lon="13.225777689367533">
        <ele>430</ele>
        <time>2026-08-29T10:47:25Z</time>
      </trkpt>
      <trkpt lat="50.715018203482032" lon="13.225817168131471">
        <ele>430</ele>
        <time>2026-08-29T10:47:26Z</time>
      </trkpt>
      <trkpt lat="50.71502298116684" lon="13.225859580561519">
        <ele>430</ele>
        <time>2026-08-29T10:47:27Z</time>
      </trkpt>
      <trkpt lat="50.715025998651981" lon="13.225908447057009">
        <ele>430</ele>
        <time>2026-08-29T10:47:28Z</time>
      </trkpt>
      <trkpt lat="50.71503178216517" lon="13.22595396079123">
        <ele>429</ele>
        <time>2026-08-29T10:47:29Z</time>
      </trkpt>
      <trkpt lat="50.715040499344468" lon="13.225995870307088">
        <ele>429</ele>
        <time>2026-08-29T10:47:30Z</time>
      </trkpt>
      <trkpt lat="50.71504988707602" lon="13.226045574992895">
        <ele>429</ele>
        <time>2026-08-29T10:47:31Z</time>
      </trkpt>
      <trkpt lat="50.715057849884033" lon="13.226093770936131">
        <ele>429</ele>
        <time>2026-08-29T10:47:32Z</time>
      </trkpt>
      <trkpt lat="50.71506354957819" lon="13.226128723472357">
        <ele>429</ele>
        <time>2026-08-29T10:47:33Z</time>
      </trkpt>
      <trkpt lat="50.715070841833949" lon="13.226155042648315">
        <ele>429</ele>
        <time>2026-08-29T10:47:34Z</time>
      </trkpt>
      <trkpt lat="50.715073356404901" lon="13.22619142010808">
        <ele>429</ele>
        <time>2026-08-29T10:47:35Z</time>
      </trkpt>
      <trkpt lat="50.715077212080359" lon="13.226214805617929">
        <ele>428</ele>
        <time>2026-08-29T10:47:36Z</time>
      </trkpt>
      <trkpt lat="50.715084001421928" lon="13.226233832538128">
        <ele>428</ele>
        <time>2026-08-29T10:47:37Z</time>
      </trkpt>
      <trkpt lat="50.715088192373514" lon="13.226254032924771">
        <ele>428</ele>
        <time>2026-08-29T10:47:38Z</time>
      </trkpt>
      <trkpt lat="50.715094311162829" lon="13.22626668959856">
        <ele>428</ele>
        <time>2026-08-29T10:47:39Z</time>
      </trkpt>
      <trkpt lat="50.715097412467003" lon="13.226281274110079">
        <ele>428</ele>
        <time>2026-08-29T10:47:40Z</time>
      </trkpt>
      <trkpt lat="50.715089701116085" lon="13.226301977410913">
        <ele>428</ele>
        <time>2026-08-29T10:47:41Z</time>
      </trkpt>
      <trkpt lat="50.715075368061662" lon="13.226326201111078">
        <ele>428</ele>
        <time>2026-08-29T10:47:42Z</time>
      </trkpt>
      <trkpt lat="50.715070087462664" lon="13.226356878876686">
        <ele>428</ele>
        <time>2026-08-29T10:47:43Z</time>
      </trkpt>
      <trkpt lat="50.715068243443966" lon="13.226378755643964">
        <ele>428</ele>
        <time>2026-08-29T10:47:44Z</time>
      </trkpt>
      <trkpt lat="50.715079475194216" lon="13.22638638317585">
        <ele>428</ele>
        <time>2026-08-29T10:47:45Z</time>
      </trkpt>
      <trkpt lat="50.715084420517087" lon="13.226394597440958">
        <ele>428</ele>
        <time>2026-08-29T10:47:46Z</time>
      </trkpt>
      <trkpt lat="50.715087689459324" lon="13.226420246064663">
        <ele>427</ele>
        <time>2026-08-29T10:47:47Z</time>
      </trkpt>
      <trkpt lat="50.715093389153481" lon="13.226444218307734">
        <ele>427</ele>
        <time>2026-08-29T10:47:48Z</time>
      </trkpt>
      <trkpt lat="50.715096741914749" lon="13.226473052054644">
        <ele>427</ele>
        <time>2026-08-29T10:47:49Z</time>
      </trkpt>
      <trkpt lat="50.715094311162829" lon="13.226500460878015">
        <ele>427</ele>
        <time>2026-08-29T10:47:50Z</time>
      </trkpt>
      <trkpt lat="50.715100849047303" lon="13.226533653214574">
        <ele>426</ele>
        <time>2026-08-29T10:47:51Z</time>
      </trkpt>
      <trkpt lat="50.715107470750809" lon="13.226571455597878">
        <ele>426</ele>
        <time>2026-08-29T10:47:52Z</time>
      </trkpt>
      <trkpt lat="50.715112751349807" lon="13.226605318486691">
        <ele>426</ele>
        <time>2026-08-29T10:47:53Z</time>
      </trkpt>
      <trkpt lat="50.715123061090708" lon="13.226639768108726">
        <ele>426</ele>
        <time>2026-08-29T10:47:54Z</time>
      </trkpt>
      <trkpt lat="50.715127838775516" lon="13.226680923253298">
        <ele>426</ele>
        <time>2026-08-29T10:47:55Z</time>
      </trkpt>
      <trkpt lat="50.715133789926767" lon="13.226718390360475">
        <ele>426</ele>
        <time>2026-08-29T10:47:56Z</time>
      </trkpt>
      <trkpt lat="50.715143848210573" lon="13.22675870731473">
        <ele>426</ele>
        <time>2026-08-29T10:47:57Z</time>
      </trkpt>
      <trkpt lat="50.71515248157084" lon="13.226793576031923">
        <ele>426</ele>
        <time>2026-08-29T10:47:58Z</time>
      </trkpt>
      <trkpt lat="50.715165892615914" lon="13.226828947663307">
        <ele>426</ele>
        <time>2026-08-29T10:47:59Z</time>
      </trkpt>
      <trkpt lat="50.715172765776515" lon="13.226879155263305">
        <ele>426</ele>
        <time>2026-08-29T10:48:00Z</time>
      </trkpt>
      <trkpt lat="50.715179722756147" lon="13.226925255730748">
        <ele>426</ele>
        <time>2026-08-29T10:48:01Z</time>
      </trkpt>
      <trkpt lat="50.715190870687366" lon="13.22696934454143">
        <ele>426</ele>
        <time>2026-08-29T10:48:02Z</time>
      </trkpt>
      <trkpt lat="50.715200928971171" lon="13.227013433352113">
        <ele>426</ele>
        <time>2026-08-29T10:48:03Z</time>
      </trkpt>
      <trkpt lat="50.715212998911738" lon="13.227046458050609">
        <ele>426</ele>
        <time>2026-08-29T10:48:04Z</time>
      </trkpt>
      <trkpt lat="50.715226409956813" lon="13.227091552689672">
        <ele>426</ele>
        <time>2026-08-29T10:48:05Z</time>
      </trkpt>
      <trkpt lat="50.715242000296712" lon="13.22713254019618">
        <ele>426</ele>
        <time>2026-08-29T10:48:06Z</time>
      </trkpt>
      <trkpt lat="50.715254489332438" lon="13.227173527702689">
        <ele>426</ele>
        <time>2026-08-29T10:48:07Z</time>
      </trkpt>
      <trkpt lat="50.715266391634941" lon="13.227228010073304">
        <ele>427</ele>
        <time>2026-08-29T10:48:08Z</time>
      </trkpt>
      <trkpt lat="50.715278629213572" lon="13.22727469727397">
        <ele>427</ele>
        <time>2026-08-29T10:48:09Z</time>
      </trkpt>
      <trkpt lat="50.715296482667327" lon="13.227316774427891">
        <ele>427</ele>
        <time>2026-08-29T10:48:10Z</time>
      </trkpt>
      <trkpt lat="50.715311486274004" lon="13.227365389466286">
        <ele>427</ele>
        <time>2026-08-29T10:48:11Z</time>
      </trkpt>
      <trkpt lat="50.715327160432935" lon="13.227407718077302">
        <ele>427</ele>
        <time>2026-08-29T10:48:12Z</time>
      </trkpt>
      <trkpt lat="50.715347360819578" lon="13.227459182962775">
        <ele>427</ele>
        <time>2026-08-29T10:48:13Z</time>
      </trkpt>
      <trkpt lat="50.715366220101714" lon="13.22751022875309">
        <ele>427</ele>
        <time>2026-08-29T10:48:14Z</time>
      </trkpt>
      <trkpt lat="50.71538264863193" lon="13.227560520172119">
        <ele>428</ele>
        <time>2026-08-29T10:48:15Z</time>
      </trkpt>
      <trkpt lat="50.715403938665986" lon="13.227611482143402">
        <ele>428</ele>
        <time>2026-08-29T10:48:16Z</time>
      </trkpt>
      <trkpt lat="50.715431347489357" lon="13.227660097181797">
        <ele>429</ele>
        <time>2026-08-29T10:48:17Z</time>
      </trkpt>
      <trkpt lat="50.715451380237937" lon="13.227713322266936">
        <ele>429</ele>
        <time>2026-08-29T10:48:18Z</time>
      </trkpt>
      <trkpt lat="50.715478537604213" lon="13.227772079408169">
        <ele>430</ele>
        <time>2026-08-29T10:48:19Z</time>
      </trkpt>
      <trkpt lat="50.715499240905046" lon="13.227820694446564">
        <ele>431</ele>
        <time>2026-08-29T10:48:20Z</time>
      </trkpt>
      <trkpt lat="50.715521117672324" lon="13.22786302305758">
        <ele>431</ele>
        <time>2026-08-29T10:48:21Z</time>
      </trkpt>
      <trkpt lat="50.715546514838934" lon="13.22790602222085">
        <ele>431</ele>
        <time>2026-08-29T10:48:22Z</time>
      </trkpt>
      <trkpt lat="50.715570319443941" lon="13.227949440479279">
        <ele>432</ele>
        <time>2026-08-29T10:48:23Z</time>
      </trkpt>
      <trkpt lat="50.71559957228601" lon="13.227984979748726">
        <ele>433</ele>
        <time>2026-08-29T10:48:24Z</time>
      </trkpt>
      <trkpt lat="50.715628070756793" lon="13.22801842354238">
        <ele>433</ele>
        <time>2026-08-29T10:48:25Z</time>
      </trkpt>
      <trkpt lat="50.715661933645606" lon="13.228041306138039">
        <ele>432</ele>
        <time>2026-08-29T10:48:26Z</time>
      </trkpt>
      <trkpt lat="50.715704010799527" lon="13.228052370250225">
        <ele>432</ele>
        <time>2026-08-29T10:48:27Z</time>
      </trkpt>
      <trkpt lat="50.715732928365469" lon="13.228059075772762">
        <ele>433</ele>
        <time>2026-08-29T10:48:28Z</time>
      </trkpt>
      <trkpt lat="50.71576033718884" lon="13.228063518181443">
        <ele>432</ele>
        <time>2026-08-29T10:48:29Z</time>
      </trkpt>
      <trkpt lat="50.715791769325733" lon="13.228063769638538">
        <ele>432</ele>
        <time>2026-08-29T10:48:30Z</time>
      </trkpt>
      <trkpt lat="50.715828398242593" lon="13.228058237582445">
        <ele>432</ele>
        <time>2026-08-29T10:48:31Z</time>
      </trkpt>
      <trkpt lat="50.715858740732074" lon="13.228043569251895">
        <ele>432</ele>
        <time>2026-08-29T10:48:32Z</time>
      </trkpt>
      <trkpt lat="50.71589034050703" lon="13.228032756596804">
        <ele>432</ele>
        <time>2026-08-29T10:48:33Z</time>
      </trkpt>
      <trkpt lat="50.71592059917748" lon="13.228016076609492">
        <ele>432</ele>
        <time>2026-08-29T10:48:34Z</time>
      </trkpt>
      <trkpt lat="50.715952282771468" lon="13.228004006668925">
        <ele>432</ele>
        <time>2026-08-29T10:48:35Z</time>
      </trkpt>
      <trkpt lat="50.715976087376475" lon="13.227994702756405">
        <ele>432</ele>
        <time>2026-08-29T10:48:36Z</time>
      </trkpt>
      <trkpt lat="50.71600659750402" lon="13.227978525683284">
        <ele>432</ele>
        <time>2026-08-29T10:48:37Z</time>
      </trkpt>
      <trkpt lat="50.716034593060613" lon="13.227967210114002">
        <ele>432</ele>
        <time>2026-08-29T10:48:38Z</time>
      </trkpt>
      <trkpt lat="50.716062588617206" lon="13.227953799068928">
        <ele>433</ele>
        <time>2026-08-29T10:48:39Z</time>
      </trkpt>
      <trkpt lat="50.71609360165894" lon="13.227942567318678">
        <ele>433</ele>
        <time>2026-08-29T10:48:40Z</time>
      </trkpt>
      <trkpt lat="50.716126458719373" lon="13.227925132960081">
        <ele>433</ele>
        <time>2026-08-29T10:48:41Z</time>
      </trkpt>
      <trkpt lat="50.716157471761107" lon="13.22790895588696">
        <ele>433</ele>
        <time>2026-08-29T10:48:42Z</time>
      </trkpt>
      <trkpt lat="50.716190747916698" lon="13.227893533185124">
        <ele>433</ele>
        <time>2026-08-29T10:48:43Z</time>
      </trkpt>
      <trkpt lat="50.716225951910019" lon="13.227880541235209">
        <ele>433</ele>
        <time>2026-08-29T10:48:44Z</time>
      </trkpt>
      <trkpt lat="50.71625922806561" lon="13.227869980037212">
        <ele>433</ele>
        <time>2026-08-29T10:48:45Z</time>
      </trkpt>
      <trkpt lat="50.716290408745408" lon="13.227852629497647">
        <ele>433</ele>
        <time>2026-08-29T10:48:46Z</time>
      </trkpt>
      <trkpt lat="50.71631739847362" lon="13.227833854034543">
        <ele>433</ele>
        <time>2026-08-29T10:48:47Z</time>
      </trkpt>
      <trkpt lat="50.716347070410848" lon="13.227799739688635">
        <ele>433</ele>
        <time>2026-08-29T10:48:48Z</time>
      </trkpt>
      <trkpt lat="50.716374311596155" lon="13.227769313380122">
        <ele>433</ele>
        <time>2026-08-29T10:48:49Z</time>
      </trkpt>
      <trkpt lat="50.716400211676955" lon="13.227765038609505">
        <ele>434</ele>
        <time>2026-08-29T10:48:50Z</time>
      </trkpt>
      <trkpt lat="50.716411359608173" lon="13.227753136307001">
        <ele>434</ele>
        <time>2026-08-29T10:48:51Z</time>
      </trkpt>
      <trkpt lat="50.716414963826537" lon="13.227763865143061">
        <ele>433</ele>
        <time>2026-08-29T10:48:52Z</time>
      </trkpt>
      <trkpt lat="50.716416388750076" lon="13.227762775495648">
        <ele>433</ele>
        <time>2026-08-29T10:48:53Z</time>
      </trkpt>
      <trkpt lat="50.716418484225869" lon="13.227758165448904">
        <ele>433</ele>
        <time>2026-08-29T10:48:54Z</time>
      </trkpt>
      <trkpt lat="50.716420412063599" lon="13.227738719433546">
        <ele>433</ele>
        <time>2026-08-29T10:48:55Z</time>
      </trkpt>
      <trkpt lat="50.71642829105258" lon="13.227728493511677">
        <ele>433</ele>
        <time>2026-08-29T10:48:56Z</time>
      </trkpt>
      <trkpt lat="50.716438684612513" lon="13.227719273418188">
        <ele>433</ele>
        <time>2026-08-29T10:48:57Z</time>
      </trkpt>
      <trkpt lat="50.716449413448572" lon="13.227710388600826">
        <ele>432</ele>
        <time>2026-08-29T10:48:58Z</time>
      </trkpt>
      <trkpt lat="50.716453352943063" lon="13.227696558460593">
        <ele>433</ele>
        <time>2026-08-29T10:48:59Z</time>
      </trkpt>
      <trkpt lat="50.716460729017854" lon="13.227676693350077">
        <ele>433</ele>
        <time>2026-08-29T10:49:00Z</time>
      </trkpt>
      <trkpt lat="50.716470368206501" lon="13.227667640894651">
        <ele>433</ele>
        <time>2026-08-29T10:49:01Z</time>
      </trkpt>
      <trkpt lat="50.716475564986467" lon="13.227646518498659">
        <ele>433</ele>
        <time>2026-08-29T10:49:02Z</time>
      </trkpt>
      <trkpt lat="50.716483779251575" lon="13.227655570954084">
        <ele>433</ele>
        <time>2026-08-29T10:49:03Z</time>
      </trkpt>
      <trkpt lat="50.71649475954473" lon="13.227649787440896">
        <ele>433</ele>
        <time>2026-08-29T10:49:04Z</time>
      </trkpt>
      <trkpt lat="50.716506578028202" lon="13.227640399709344">
        <ele>433</ele>
        <time>2026-08-29T10:49:05Z</time>
      </trkpt>
      <trkpt lat="50.716521162539721" lon="13.227643752470613">
        <ele>433</ele>
        <time>2026-08-29T10:49:06Z</time>
      </trkpt>
      <trkpt lat="50.716531556099653" lon="13.227633442729712">
        <ele>433</ele>
        <time>2026-08-29T10:49:07Z</time>
      </trkpt>
      <trkpt lat="50.716538177803159" lon="13.227611985057592">
        <ele>434</ele>
        <time>2026-08-29T10:49:08Z</time>
      </trkpt>
      <trkpt lat="50.716545470058918" lon="13.227598071098328">
        <ele>433</ele>
        <time>2026-08-29T10:49:09Z</time>
      </trkpt>
      <trkpt lat="50.71655385196209" lon="13.227588599547744">
        <ele>433</ele>
        <time>2026-08-29T10:49:10Z</time>
      </trkpt>
      <trkpt lat="50.716560641303658" lon="13.227583570405841">
        <ele>433</ele>
        <time>2026-08-29T10:49:11Z</time>
      </trkpt>
      <trkpt lat="50.716566424816847" lon="13.227573679760098">
        <ele>432</ele>
        <time>2026-08-29T10:49:12Z</time>
      </trkpt>
      <trkpt lat="50.716574639081955" lon="13.227572506293654">
        <ele>433</ele>
        <time>2026-08-29T10:49:13Z</time>
      </trkpt>
      <trkpt lat="50.716584445908666" lon="13.22757133282721">
        <ele>433</ele>
        <time>2026-08-29T10:49:14Z</time>
      </trkpt>
      <trkpt lat="50.716594252735376" lon="13.227568147704005">
        <ele>433</ele>
        <time>2026-08-29T10:49:15Z</time>
      </trkpt>
      <trkpt lat="50.716593246906996" lon="13.227571668103337">
        <ele>433</ele>
        <time>2026-08-29T10:49:16Z</time>
      </trkpt>
      <trkpt lat="50.716591738164425" lon="13.227569321170449">
        <ele>432</ele>
        <time>2026-08-29T10:49:17Z</time>
      </trkpt>
      <trkpt lat="50.716595510020852" lon="13.227559849619865">
        <ele>432</ele>
        <time>2026-08-29T10:49:18Z</time>
      </trkpt>
      <trkpt lat="50.716600120067596" lon="13.227557083591819">
        <ele>432</ele>
        <time>2026-08-29T10:49:19Z</time>
      </trkpt>
      <trkpt lat="50.716607831418514" lon="13.227537386119366">
        <ele>432</ele>
        <time>2026-08-29T10:49:20Z</time>
      </trkpt>
      <trkpt lat="50.716621661558747" lon="13.227520538493991">
        <ele>432</ele>
        <time>2026-08-29T10:49:21Z</time>
      </trkpt>
      <trkpt lat="50.716627780348063" lon="13.227504696696997">
        <ele>432</ele>
        <time>2026-08-29T10:49:22Z</time>
      </trkpt>
      <trkpt lat="50.716632222756743" lon="13.227497739717364">
        <ele>433</ele>
        <time>2026-08-29T10:49:23Z</time>
      </trkpt>
      <trkpt lat="50.716643538326025" lon="13.227492040023208">
        <ele>433</ele>
        <time>2026-08-29T10:49:24Z</time>
      </trkpt>
      <trkpt lat="50.71664965711534" lon="13.227475443854928">
        <ele>433</ele>
        <time>2026-08-29T10:49:25Z</time>
      </trkpt>
      <trkpt lat="50.716659631580114" lon="13.227461194619536">
        <ele>433</ele>
        <time>2026-08-29T10:49:26Z</time>
      </trkpt>
      <trkpt lat="50.716671198606491" lon="13.227448957040906">
        <ele>433</ele>
        <time>2026-08-29T10:49:27Z</time>
      </trkpt>
      <trkpt lat="50.716683771461248" lon="13.227437306195498">
        <ele>433</ele>
        <time>2026-08-29T10:49:28Z</time>
      </trkpt>
      <trkpt lat="50.716691315174103" lon="13.227427331730723">
        <ele>433</ele>
        <time>2026-08-29T10:49:29Z</time>
      </trkpt>
      <trkpt lat="50.716699613258243" lon="13.227415848523378">
        <ele>433</ele>
        <time>2026-08-29T10:49:30Z</time>
      </trkpt>
      <trkpt lat="50.71670975536108" lon="13.227393720299006">
        <ele>433</ele>
        <time>2026-08-29T10:49:31Z</time>
      </trkpt>
      <trkpt lat="50.716715874150395" lon="13.227373687550426">
        <ele>433</ele>
        <time>2026-08-29T10:49:32Z</time>
      </trkpt>
      <trkpt lat="50.716721238568425" lon="13.227361366152763">
        <ele>433</ele>
        <time>2026-08-29T10:49:33Z</time>
      </trkpt>
      <trkpt lat="50.716733057051897" lon="13.227345691993833">
        <ele>433</ele>
        <time>2026-08-29T10:49:34Z</time>
      </trkpt>
      <trkpt lat="50.716744288802147" lon="13.22734409943223">
        <ele>433</ele>
        <time>2026-08-29T10:49:35Z</time>
      </trkpt>
      <trkpt lat="50.716752335429192" lon="13.227320127189159">
        <ele>433</ele>
        <time>2026-08-29T10:49:36Z</time>
      </trkpt>
      <trkpt lat="50.716768680140376" lon="13.227306799963117">
        <ele>433</ele>
        <time>2026-08-29T10:49:37Z</time>
      </trkpt>
      <trkpt lat="50.716793406754732" lon="13.227300764992833">
        <ele>433</ele>
        <time>2026-08-29T10:49:38Z</time>
      </trkpt>
      <trkpt lat="50.716813942417502" lon="13.227289197966456">
        <ele>433</ele>
        <time>2026-08-29T10:49:39Z</time>
      </trkpt>
      <trkpt lat="50.716828610748053" lon="13.227274026721716">
        <ele>433</ele>
        <time>2026-08-29T10:49:40Z</time>
      </trkpt>
      <trkpt lat="50.716841770336032" lon="13.227246953174472">
        <ele>433</ele>
        <time>2026-08-29T10:49:41Z</time>
      </trkpt>
      <trkpt lat="50.716853840276599" lon="13.227228177711368">
        <ele>433</ele>
        <time>2026-08-29T10:49:42Z</time>
      </trkpt>
      <trkpt lat="50.716866748407483" lon="13.22720387019217">
        <ele>433</ele>
        <time>2026-08-29T10:49:43Z</time>
      </trkpt>
      <trkpt lat="50.716879991814494" lon="13.227177383378148">
        <ele>434</ele>
        <time>2026-08-29T10:49:44Z</time>
      </trkpt>
      <trkpt lat="50.716890804469585" lon="13.227148968726397">
        <ele>434</ele>
        <time>2026-08-29T10:49:45Z</time>
      </trkpt>
      <trkpt lat="50.716901700943708" lon="13.227112758904696">
        <ele>435</ele>
        <time>2026-08-29T10:49:46Z</time>
      </trkpt>
      <trkpt lat="50.716916536912322" lon="13.227088199928403">
        <ele>435</ele>
        <time>2026-08-29T10:49:47Z</time>
      </trkpt>
      <trkpt lat="50.716931959614158" lon="13.227063724771142">
        <ele>435</ele>
        <time>2026-08-29T10:49:48Z</time>
      </trkpt>
      <trkpt lat="50.716950567439198" lon="13.227047631517053">
        <ele>435</ele>
        <time>2026-08-29T10:49:49Z</time>
      </trkpt>
      <trkpt lat="50.716966660693288" lon="13.227021647617221">
        <ele>435</ele>
        <time>2026-08-29T10:49:50Z</time>
      </trkpt>
      <trkpt lat="50.716978227719665" lon="13.226981665939093">
        <ele>435</ele>
        <time>2026-08-29T10:49:51Z</time>
      </trkpt>
      <trkpt lat="50.716990968212485" lon="13.226947886869311">
        <ele>435</ele>
        <time>2026-08-29T10:49:52Z</time>
      </trkpt>
      <trkpt lat="50.717003624886274" lon="13.226908911019564">
        <ele>436</ele>
        <time>2026-08-29T10:49:53Z</time>
      </trkpt>
      <trkpt lat="50.717017957940698" lon="13.226874209940434">
        <ele>436</ele>
        <time>2026-08-29T10:49:54Z</time>
      </trkpt>
      <trkpt lat="50.717031452804804" lon="13.226842693984509">
        <ele>435</ele>
        <time>2026-08-29T10:49:55Z</time>
      </trkpt>
      <trkpt lat="50.717044612392783" lon="13.226808998733759">
        <ele>435</ele>
        <time>2026-08-29T10:49:56Z</time>
      </trkpt>
      <trkpt lat="50.717053329572082" lon="13.226771783083677">
        <ele>436</ele>
        <time>2026-08-29T10:49:57Z</time>
      </trkpt>
      <trkpt lat="50.717066656798124" lon="13.226738255470991">
        <ele>436</ele>
        <time>2026-08-29T10:49:58Z</time>
      </trkpt>
      <trkpt lat="50.717080989852548" lon="13.226705733686686">
        <ele>436</ele>
        <time>2026-08-29T10:49:59Z</time>
      </trkpt>
      <trkpt lat="50.717094819992781" lon="13.226678408682346">
        <ele>436</ele>
        <time>2026-08-29T10:50:00Z</time>
      </trkpt>
      <trkpt lat="50.717107309028506" lon="13.226650916039944">
        <ele>436</ele>
        <time>2026-08-29T10:50:01Z</time>
      </trkpt>
      <trkpt lat="50.717122061178088" lon="13.226622333750129">
        <ele>435</ele>
        <time>2026-08-29T10:50:02Z</time>
      </trkpt>
      <trkpt lat="50.717133795842528" lon="13.226589141413569">
        <ele>435</ele>
        <time>2026-08-29T10:50:03Z</time>
      </trkpt>
      <trkpt lat="50.717143267393112" lon="13.226560391485691">
        <ele>435</ele>
        <time>2026-08-29T10:50:04Z</time>
      </trkpt>
      <trkpt lat="50.717148128896952" lon="13.226534575223923">
        <ele>435</ele>
        <time>2026-08-29T10:50:05Z</time>
      </trkpt>
      <trkpt lat="50.717159193009138" lon="13.226505573838949">
        <ele>434</ele>
        <time>2026-08-29T10:50:06Z</time>
      </trkpt>
      <trkpt lat="50.7171715144068" lon="13.226466933265328">
        <ele>435</ele>
        <time>2026-08-29T10:50:07Z</time>
      </trkpt>
      <trkpt lat="50.717182410880923" lon="13.226437764242291">
        <ele>435</ele>
        <time>2026-08-29T10:50:08Z</time>
      </trkpt>
      <trkpt lat="50.71719984523952" lon="13.226412702351809">
        <ele>435</ele>
        <time>2026-08-29T10:50:09Z</time>
      </trkpt>
      <trkpt lat="50.717214178293943" lon="13.226383700966835">
        <ele>435</ele>
        <time>2026-08-29T10:50:10Z</time>
      </trkpt>
      <trkpt lat="50.717219123616815" lon="13.22635754942894">
        <ele>434</ele>
        <time>2026-08-29T10:50:11Z</time>
      </trkpt>
      <trkpt lat="50.717225912958384" lon="13.226331314072013">
        <ele>434</ele>
        <time>2026-08-29T10:50:12Z</time>
      </trkpt>
      <trkpt lat="50.717239324003458" lon="13.226317316293716">
        <ele>434</ele>
        <time>2026-08-29T10:50:13Z</time>
      </trkpt>
      <trkpt lat="50.717251980677247" lon="13.226294182240963">
        <ele>434</ele>
        <time>2026-08-29T10:50:14Z</time>
      </trkpt>
      <trkpt lat="50.717265391722322" lon="13.226267611607909">
        <ele>433</ele>
        <time>2026-08-29T10:50:15Z</time>
      </trkpt>
      <trkpt lat="50.717278467491269" lon="13.226233245804906">
        <ele>433</ele>
        <time>2026-08-29T10:50:16Z</time>
      </trkpt>
      <trkpt lat="50.717291124165058" lon="13.226212039589882">
        <ele>432</ele>
        <time>2026-08-29T10:50:17Z</time>
      </trkpt>
      <trkpt lat="50.717300847172737" lon="13.226184798404574">
        <ele>432</ele>
        <time>2026-08-29T10:50:18Z</time>
      </trkpt>
      <trkpt lat="50.717313839122653" lon="13.226155629381537">
        <ele>432</ele>
        <time>2026-08-29T10:50:19Z</time>
      </trkpt>
      <trkpt lat="50.7173234783113" lon="13.226115480065346">
        <ele>431</ele>
        <time>2026-08-29T10:50:20Z</time>
      </trkpt>
      <trkpt lat="50.717333452776074" lon="13.22608002461493">
        <ele>431</ele>
        <time>2026-08-29T10:50:21Z</time>
      </trkpt>
      <trkpt lat="50.717341164126992" lon="13.226040545850992">
        <ele>431</ele>
        <time>2026-08-29T10:50:22Z</time>
      </trkpt>
      <trkpt lat="50.71735474281013" lon="13.226011963561177">
        <ele>432</ele>
        <time>2026-08-29T10:50:23Z</time>
      </trkpt>
      <trkpt lat="50.717366058379412" lon="13.225983968004584">
        <ele>432</ele>
        <time>2026-08-29T10:50:24Z</time>
      </trkpt>
      <trkpt lat="50.717379888519645" lon="13.225951781496406">
        <ele>432</ele>
        <time>2026-08-29T10:50:25Z</time>
      </trkpt>
      <trkpt lat="50.717391539365053" lon="13.225903501734138">
        <ele>431</ele>
        <time>2026-08-29T10:50:26Z</time>
      </trkpt>
      <trkpt lat="50.717411488294601" lon="13.225859748199582">
        <ele>431</ele>
        <time>2026-08-29T10:50:27Z</time>
      </trkpt>
      <trkpt lat="50.717429257929325" lon="13.225815827026963">
        <ele>430</ele>
        <time>2026-08-29T10:50:28Z</time>
      </trkpt>
      <trkpt lat="50.717442417517304" lon="13.225771570578218">
        <ele>430</ele>
        <time>2026-08-29T10:50:29Z</time>
      </trkpt>
      <trkpt lat="50.71745976805687" lon="13.225728739053011">
        <ele>430</ele>
        <time>2026-08-29T10:50:30Z</time>
      </trkpt>
      <trkpt lat="50.717476028949022" lon="13.225692277774215">
        <ele>430</ele>
        <time>2026-08-29T10:50:31Z</time>
      </trkpt>
      <trkpt lat="50.717492122203112" lon="13.225662773475051">
        <ele>430</ele>
        <time>2026-08-29T10:50:32Z</time>
      </trkpt>
      <trkpt lat="50.717498660087585" lon="13.225653888657689">
        <ele>430</ele>
        <time>2026-08-29T10:50:33Z</time>
      </trkpt>
      <trkpt lat="50.71750570088625" lon="13.225661348551512">
        <ele>430</ele>
        <time>2026-08-29T10:50:34Z</time>
      </trkpt>
      <trkpt lat="50.717504611238837" lon="13.225658917799592">
        <ele>430</ele>
        <time>2026-08-29T10:50:35Z</time>
      </trkpt>
      <trkpt lat="50.717504862695932" lon="13.225659923627973">
        <ele>430</ele>
        <time>2026-08-29T10:50:36Z</time>
      </trkpt>
      <trkpt lat="50.717505030333996" lon="13.225659336894751">
        <ele>430</ele>
        <time>2026-08-29T10:50:37Z</time>
      </trkpt>
      <trkpt lat="50.717505281791091" lon="13.225659923627973">
        <ele>430</ele>
        <time>2026-08-29T10:50:38Z</time>
      </trkpt>
      <trkpt lat="50.717505533248186" lon="13.225660007447004">
        <ele>430</ele>
        <time>2026-08-29T10:50:39Z</time>
      </trkpt>
      <trkpt lat="50.71750913746655" lon="13.225667383521795">
        <ele>430</ele>
        <time>2026-08-29T10:50:40Z</time>
      </trkpt>
      <trkpt lat="50.717516681179404" lon="13.225684147328138">
        <ele>430</ele>
        <time>2026-08-29T10:50:41Z</time>
      </trkpt>
      <trkpt lat="50.717516345903277" lon="13.225680710747838">
        <ele>430</ele>
        <time>2026-08-29T10:50:42Z</time>
      </trkpt>
      <trkpt lat="50.717521458864212" lon="13.225676268339157">
        <ele>430</ele>
        <time>2026-08-29T10:50:43Z</time>
      </trkpt>
      <trkpt lat="50.717518692836165" lon="13.225683309137821">
        <ele>430</ele>
        <time>2026-08-29T10:50:44Z</time>
      </trkpt>
      <trkpt lat="50.717518860474229" lon="13.225683644413948">
        <ele>430</ele>
        <time>2026-08-29T10:50:45Z</time>
      </trkpt>
      <trkpt lat="50.717519447207451" lon="13.225683979690075">
        <ele>430</ele>
        <time>2026-08-29T10:50:46Z</time>
      </trkpt>
      <trkpt lat="50.717519531026483" lon="13.225684398785233">
        <ele>430</ele>
        <time>2026-08-29T10:50:47Z</time>
      </trkpt>
      <trkpt lat="50.717519531026483" lon="13.225684314966202">
        <ele>430</ele>
        <time>2026-08-29T10:50:48Z</time>
      </trkpt>
      <trkpt lat="50.717519782483578" lon="13.225684985518456">
        <ele>430</ele>
        <time>2026-08-29T10:50:49Z</time>
      </trkpt>
      <trkpt lat="50.717520117759705" lon="13.225685907527804">
        <ele>430</ele>
        <time>2026-08-29T10:50:50Z</time>
      </trkpt>
      <trkpt lat="50.717520117759705" lon="13.225685572251678">
        <ele>430</ele>
        <time>2026-08-29T10:50:51Z</time>
      </trkpt>
      <trkpt lat="50.717517351731658" lon="13.225678615272045">
        <ele>430</ele>
        <time>2026-08-29T10:50:52Z</time>
      </trkpt>
      <trkpt lat="50.717517100274563" lon="13.225678531453013">
        <ele>430</ele>
        <time>2026-08-29T10:50:53Z</time>
      </trkpt>
      <trkpt lat="50.717517016455531" lon="13.22567836381495">
        <ele>430</ele>
        <time>2026-08-29T10:50:54Z</time>
      </trkpt>
      <trkpt lat="50.717517100274563" lon="13.225678950548172">
        <ele>430</ele>
        <time>2026-08-29T10:50:55Z</time>
      </trkpt>
      <trkpt lat="50.717517351731658" lon="13.225679537281394">
        <ele>430</ele>
        <time>2026-08-29T10:50:56Z</time>
      </trkpt>
      <trkpt lat="50.717517519369721" lon="13.225680040195584">
        <ele>430</ele>
        <time>2026-08-29T10:50:57Z</time>
      </trkpt>
      <trkpt lat="50.717517519369721" lon="13.225680375471711">
        <ele>430</ele>
        <time>2026-08-29T10:50:58Z</time>
      </trkpt>
      <trkpt lat="50.717520201578736" lon="13.225685404613614">
        <ele>431</ele>
        <time>2026-08-29T10:50:59Z</time>
      </trkpt>
      <trkpt lat="50.717520201578736" lon="13.225685404613614">
        <ele>431</ele>
        <time>2026-08-29T10:51:00Z</time>
      </trkpt>
      <trkpt lat="50.71751844137907" lon="13.225685320794582">
        <ele>431</ele>
        <time>2026-08-29T10:51:01Z</time>
      </trkpt>
      <trkpt lat="50.717517100274563" lon="13.225681465119123">
        <ele>431</ele>
        <time>2026-08-29T10:51:02Z</time>
      </trkpt>
      <trkpt lat="50.717521123588085" lon="13.225676184520125">
        <ele>431</ele>
        <time>2026-08-29T10:51:03Z</time>
      </trkpt>
      <trkpt lat="50.717526152729988" lon="13.225679453462362">
        <ele>431</ele>
        <time>2026-08-29T10:51:04Z</time>
      </trkpt>
      <trkpt lat="50.717527577653527" lon="13.225684566423297">
        <ele>431</ele>
        <time>2026-08-29T10:51:05Z</time>
      </trkpt>
      <trkpt lat="50.717525482177734" lon="13.225699486210942">
        <ele>431</ele>
        <time>2026-08-29T10:51:06Z</time>
      </trkpt>
      <trkpt lat="50.717525482177734" lon="13.225710885599256">
        <ele>432</ele>
        <time>2026-08-29T10:51:07Z</time>
      </trkpt>
      <trkpt lat="50.717514753341675" lon="13.225719016045332">
        <ele>431</ele>
        <time>2026-08-29T10:51:08Z</time>
      </trkpt>
      <trkpt lat="50.717513998970389" lon="13.225711723789573">
        <ele>431</ele>
        <time>2026-08-29T10:51:09Z</time>
      </trkpt>
      <trkpt lat="50.717513831332326" lon="13.225711388513446">
        <ele>431</ele>
        <time>2026-08-29T10:51:10Z</time>
      </trkpt>
      <trkpt lat="50.717510897666216" lon="13.225712645798922">
        <ele>431</ele>
        <time>2026-08-29T10:51:11Z</time>
      </trkpt>
      <trkpt lat="50.717511149123311" lon="13.225713483989239">
        <ele>431</ele>
        <time>2026-08-29T10:51:12Z</time>
      </trkpt>
      <trkpt lat="50.717516262084246" lon="13.225713316351175">
        <ele>431</ele>
        <time>2026-08-29T10:51:13Z</time>
      </trkpt>
      <trkpt lat="50.717520201578736" lon="13.22570133022964">
        <ele>430</ele>
        <time>2026-08-29T10:51:14Z</time>
      </trkpt>
      <trkpt lat="50.717520201578736" lon="13.225702755153179">
        <ele>430</ele>
        <time>2026-08-29T10:51:15Z</time>
      </trkpt>
      <trkpt lat="50.717520536854863" lon="13.22570669464767">
        <ele>429</ele>
        <time>2026-08-29T10:51:16Z</time>
      </trkpt>
      <trkpt lat="50.717515088617802" lon="13.22570912539959">
        <ele>429</ele>
        <time>2026-08-29T10:51:17Z</time>
      </trkpt>
      <trkpt lat="50.71751014329493" lon="13.225709460675716">
        <ele>429</ele>
        <time>2026-08-29T10:51:18Z</time>
      </trkpt>
      <trkpt lat="50.717504359781742" lon="13.225720357149839">
        <ele>429</ele>
        <time>2026-08-29T10:51:19Z</time>
      </trkpt>
      <trkpt lat="50.717499582096934" lon="13.225724380463362">
        <ele>429</ele>
        <time>2026-08-29T10:51:20Z</time>
      </trkpt>
      <trkpt lat="50.717494469136" lon="13.22573502548039">
        <ele>429</ele>
        <time>2026-08-29T10:51:21Z</time>
      </trkpt>
      <trkpt lat="50.717481477186084" lon="13.22574382647872">
        <ele>428</ele>
        <time>2026-08-29T10:51:22Z</time>
      </trkpt>
      <trkpt lat="50.717477118596435" lon="13.225750029087067">
        <ele>429</ele>
        <time>2026-08-29T10:51:23Z</time>
      </trkpt>
      <trkpt lat="50.717476448044181" lon="13.225766373798251">
        <ele>428</ele>
        <time>2026-08-29T10:51:24Z</time>
      </trkpt>
      <trkpt lat="50.717476699501276" lon="13.225766038522124">
        <ele>428</ele>
        <time>2026-08-29T10:51:25Z</time>
      </trkpt>
      <trkpt lat="50.717478208243847" lon="13.225769642740488">
        <ele>428</ele>
        <time>2026-08-29T10:51:26Z</time>
      </trkpt>
      <trkpt lat="50.71748130954802" lon="13.225777270272374">
        <ele>428</ele>
        <time>2026-08-29T10:51:27Z</time>
      </trkpt>
      <trkpt lat="50.717476699501276" lon="13.225772911682725">
        <ele>428</ele>
        <time>2026-08-29T10:51:28Z</time>
      </trkpt>
      <trkpt lat="50.717476615682244" lon="13.225761847570539">
        <ele>430</ele>
        <time>2026-08-29T10:51:29Z</time>
      </trkpt>
      <trkpt lat="50.717476531863213" lon="13.225761344656348">
        <ele>429</ele>
        <time>2026-08-29T10:51:30Z</time>
      </trkpt>
      <trkpt lat="50.717476196587086" lon="13.225761344656348">
        <ele>429</ele>
        <time>2026-08-29T10:51:31Z</time>
      </trkpt>
      <trkpt lat="50.717475861310959" lon="13.225756483152509">
        <ele>430</ele>
        <time>2026-08-29T10:51:32Z</time>
      </trkpt>
      <trkpt lat="50.717479297891259" lon="13.225754136219621">
        <ele>431</ele>
        <time>2026-08-29T10:51:33Z</time>
      </trkpt>
      <trkpt lat="50.717480387538671" lon="13.22575606405735">
        <ele>431</ele>
        <time>2026-08-29T10:51:34Z</time>
      </trkpt>
      <trkpt lat="50.717473514378071" lon="13.225758578628302">
        <ele>431</ele>
        <time>2026-08-29T10:51:35Z</time>
      </trkpt>
      <trkpt lat="50.717473598197103" lon="13.225758243352175">
        <ele>431</ele>
        <time>2026-08-29T10:51:36Z</time>
      </trkpt>
      <trkpt lat="50.717473514378071" lon="13.225758159533143">
        <ele>431</ele>
        <time>2026-08-29T10:51:37Z</time>
      </trkpt>
      <trkpt lat="50.71747737005353" lon="13.225765032693744">
        <ele>431</ele>
        <time>2026-08-29T10:51:38Z</time>
      </trkpt>
      <trkpt lat="50.717484578490257" lon="13.22576972655952">
        <ele>431</ele>
        <time>2026-08-29T10:51:39Z</time>
      </trkpt>
      <trkpt lat="50.717484662309289" lon="13.225768720731139">
        <ele>431</ele>
        <time>2026-08-29T10:51:40Z</time>
      </trkpt>
      <trkpt lat="50.717484662309289" lon="13.225768133997917">
        <ele>431</ele>
        <time>2026-08-29T10:51:41Z</time>
      </trkpt>
      <trkpt lat="50.717484997585416" lon="13.225768553093076">
        <ele>431</ele>
        <time>2026-08-29T10:51:42Z</time>
      </trkpt>
      <trkpt lat="50.717490529641509" lon="13.225771067664027">
        <ele>432</ele>
        <time>2026-08-29T10:51:43Z</time>
      </trkpt>
      <trkpt lat="50.717492792755365" lon="13.225773833692074">
        <ele>432</ele>
        <time>2026-08-29T10:51:44Z</time>
      </trkpt>
      <trkpt lat="50.717492708936334" lon="13.225774085149169">
        <ele>432</ele>
        <time>2026-08-29T10:51:45Z</time>
      </trkpt>
      <trkpt lat="50.717492122203112" lon="13.225773833692074">
        <ele>432</ele>
        <time>2026-08-29T10:51:46Z</time>
      </trkpt>
      <trkpt lat="50.717494720593095" lon="13.225770480930805">
        <ele>432</ele>
        <time>2026-08-29T10:51:47Z</time>
      </trkpt>
      <trkpt lat="50.717496480792761" lon="13.225768385455012">
        <ele>432</ele>
        <time>2026-08-29T10:51:48Z</time>
      </trkpt>
      <trkpt lat="50.717487931251526" lon="13.225767379626632">
        <ele>432</ele>
        <time>2026-08-29T10:51:49Z</time>
      </trkpt>
      <trkpt lat="50.717490948736668" lon="13.225768804550171">
        <ele>432</ele>
        <time>2026-08-29T10:51:50Z</time>
      </trkpt>
      <trkpt lat="50.717490529641509" lon="13.225766457617283">
        <ele>432</ele>
        <time>2026-08-29T10:51:51Z</time>
      </trkpt>
      <trkpt lat="50.717488853260875" lon="13.225768469274044">
        <ele>432</ele>
        <time>2026-08-29T10:51:52Z</time>
      </trkpt>
      <trkpt lat="50.717487595975399" lon="13.225761596113443">
        <ele>432</ele>
        <time>2026-08-29T10:51:53Z</time>
      </trkpt>
      <trkpt lat="50.717484578490257" lon="13.225750867277384">
        <ele>432</ele>
        <time>2026-08-29T10:51:54Z</time>
      </trkpt>
      <trkpt lat="50.717481896281242" lon="13.225742485374212">
        <ele>431</ele>
        <time>2026-08-29T10:51:55Z</time>
      </trkpt>
      <trkpt lat="50.717482231557369" lon="13.22574189864099">
        <ele>431</ele>
        <time>2026-08-29T10:51:56Z</time>
      </trkpt>
      <trkpt lat="50.717480890452862" lon="13.225739803165197">
        <ele>431</ele>
        <time>2026-08-29T10:51:57Z</time>
      </trkpt>
      <trkpt lat="50.717481980100274" lon="13.225738545879722">
        <ele>431</ele>
        <time>2026-08-29T10:51:58Z</time>
      </trkpt>
      <trkpt lat="50.717486841604114" lon="13.225741814821959">
        <ele>432</ele>
        <time>2026-08-29T10:51:59Z</time>
      </trkpt>
      <trkpt lat="50.71748960763216" lon="13.225742233917117">
        <ele>432</ele>
        <time>2026-08-29T10:52:00Z</time>
      </trkpt>
      <trkpt lat="50.717489942908287" lon="13.225741731002927">
        <ele>433</ele>
        <time>2026-08-29T10:52:01Z</time>
      </trkpt>
      <trkpt lat="50.717491200193763" lon="13.22574676014483">
        <ele>432</ele>
        <time>2026-08-29T10:52:02Z</time>
      </trkpt>
      <trkpt lat="50.717487260699272" lon="13.225755644962192">
        <ele>432</ele>
        <time>2026-08-29T10:52:03Z</time>
      </trkpt>
      <trkpt lat="50.717479968443513" lon="13.225755980238318">
        <ele>432</ele>
        <time>2026-08-29T10:52:04Z</time>
      </trkpt>
      <trkpt lat="50.71747787296772" lon="13.225756650790572">
        <ele>432</ele>
        <time>2026-08-29T10:52:05Z</time>
      </trkpt>
      <trkpt lat="50.717471670359373" lon="13.225755393505096">
        <ele>433</ele>
        <time>2026-08-29T10:52:06Z</time>
      </trkpt>
      <trkpt lat="50.717472089454532" lon="13.225757488980889">
        <ele>433</ele>
        <time>2026-08-29T10:52:07Z</time>
      </trkpt>
      <trkpt lat="50.71746613830328" lon="13.225762350484729">
        <ele>432</ele>
        <time>2026-08-29T10:52:08Z</time>
      </trkpt>
      <trkpt lat="50.71746613830328" lon="13.225762769579887">
        <ele>432</ele>
        <time>2026-08-29T10:52:09Z</time>
      </trkpt>
      <trkpt lat="50.717465803027153" lon="13.225762853398919">
        <ele>432</ele>
        <time>2026-08-29T10:52:10Z</time>
      </trkpt>
      <trkpt lat="50.717465719208121" lon="13.225762853398919">
        <ele>432</ele>
        <time>2026-08-29T10:52:11Z</time>
      </trkpt>
      <trkpt lat="50.717465719208121" lon="13.225763021036983">
        <ele>432</ele>
        <time>2026-08-29T10:52:12Z</time>
      </trkpt>
      <trkpt lat="50.717465803027153" lon="13.225762853398919">
        <ele>432</ele>
        <time>2026-08-29T10:52:13Z</time>
      </trkpt>
      <trkpt lat="50.717465719208121" lon="13.225763021036983">
        <ele>432</ele>
        <time>2026-08-29T10:52:14Z</time>
      </trkpt>
      <trkpt lat="50.71746563538909" lon="13.225763188675046">
        <ele>432</ele>
        <time>2026-08-29T10:52:15Z</time>
      </trkpt>
      <trkpt lat="50.717465551570058" lon="13.225763356313109">
        <ele>432</ele>
        <time>2026-08-29T10:52:16Z</time>
      </trkpt>
      <trkpt lat="50.717465383931994" lon="13.2257638592273">
        <ele>432</ele>
        <time>2026-08-29T10:52:17Z</time>
      </trkpt>
      <trkpt lat="50.717465216293931" lon="13.225763607770205">
        <ele>432</ele>
        <time>2026-08-29T10:52:18Z</time>
      </trkpt>
      <trkpt lat="50.717465300112963" lon="13.225763943046331">
        <ele>432</ele>
        <time>2026-08-29T10:52:19Z</time>
      </trkpt>
      <trkpt lat="50.717468820512295" lon="13.225763943046331">
        <ele>433</ele>
        <time>2026-08-29T10:52:20Z</time>
      </trkpt>
      <trkpt lat="50.717471754178405" lon="13.225774839520454">
        <ele>433</ele>
        <time>2026-08-29T10:52:21Z</time>
      </trkpt>
      <trkpt lat="50.717471837997437" lon="13.225774923339486">
        <ele>433</ele>
        <time>2026-08-29T10:52:22Z</time>
      </trkpt>
      <trkpt lat="50.717471921816468" lon="13.22577509097755">
        <ele>433</ele>
        <time>2026-08-29T10:52:23Z</time>
      </trkpt>
      <trkpt lat="50.717471921816468" lon="13.225775174796581">
        <ele>433</ele>
        <time>2026-08-29T10:52:24Z</time>
      </trkpt>
      <trkpt lat="50.717471837997437" lon="13.22577509097755">
        <ele>433</ele>
        <time>2026-08-29T10:52:25Z</time>
      </trkpt>
      <trkpt lat="50.717471670359373" lon="13.22577509097755">
        <ele>433</ele>
        <time>2026-08-29T10:52:26Z</time>
      </trkpt>
      <trkpt lat="50.717471586540341" lon="13.225775007158518">
        <ele>433</ele>
        <time>2026-08-29T10:52:27Z</time>
      </trkpt>
      <trkpt lat="50.717471418902278" lon="13.225774923339486">
        <ele>433</ele>
        <time>2026-08-29T10:52:28Z</time>
      </trkpt>
      <trkpt lat="50.717471251264215" lon="13.225774839520454">
        <ele>433</ele>
        <time>2026-08-29T10:52:29Z</time>
      </trkpt>
      <trkpt lat="50.717471167445183" lon="13.225774755701423">
        <ele>433</ele>
        <time>2026-08-29T10:52:30Z</time>
      </trkpt>
      <trkpt lat="50.717471167445183" lon="13.225774588063359">
        <ele>433</ele>
        <time>2026-08-29T10:52:31Z</time>
      </trkpt>
      <trkpt lat="50.717470832169056" lon="13.225774336606264">
        <ele>433</ele>
        <time>2026-08-29T10:52:32Z</time>
      </trkpt>
      <trkpt lat="50.717470580711961" lon="13.225774168968201">
        <ele>433</ele>
        <time>2026-08-29T10:52:33Z</time>
      </trkpt>
      <trkpt lat="50.717470496892929" lon="13.225774336606264">
        <ele>433</ele>
        <time>2026-08-29T10:52:34Z</time>
      </trkpt>
      <trkpt lat="50.717470329254866" lon="13.225774336606264">
        <ele>433</ele>
        <time>2026-08-29T10:52:35Z</time>
      </trkpt>
      <trkpt lat="50.717470329254866" lon="13.225774504244328">
        <ele>433</ele>
        <time>2026-08-29T10:52:36Z</time>
      </trkpt>
      <trkpt lat="50.717469826340675" lon="13.225774336606264">
        <ele>433</ele>
        <time>2026-08-29T10:52:37Z</time>
      </trkpt>
      <trkpt lat="50.717469826340675" lon="13.225774336606264">
        <ele>433</ele>
        <time>2026-08-29T10:52:38Z</time>
      </trkpt>
      <trkpt lat="50.717469910159707" lon="13.225774252787232">
        <ele>433</ele>
        <time>2026-08-29T10:52:39Z</time>
      </trkpt>
      <trkpt lat="50.717470077797771" lon="13.225774504244328">
        <ele>433</ele>
        <time>2026-08-29T10:52:40Z</time>
      </trkpt>
      <trkpt lat="50.717470161616802" lon="13.225774336606264">
        <ele>433</ele>
        <time>2026-08-29T10:52:41Z</time>
      </trkpt>
      <trkpt lat="50.717469910159707" lon="13.225774085149169">
        <ele>433</ele>
        <time>2026-08-29T10:52:42Z</time>
      </trkpt>
      <trkpt lat="50.717478627339005" lon="13.225767379626632">
        <ele>434</ele>
        <time>2026-08-29T10:52:43Z</time>
      </trkpt>
      <trkpt lat="50.717478627339005" lon="13.225767211988568">
        <ele>434</ele>
        <time>2026-08-29T10:52:44Z</time>
      </trkpt>
      <trkpt lat="50.717480136081576" lon="13.225766289979219">
        <ele>433</ele>
        <time>2026-08-29T10:52:45Z</time>
      </trkpt>
      <trkpt lat="50.717479800805449" lon="13.225765619426966">
        <ele>433</ele>
        <time>2026-08-29T10:52:46Z</time>
      </trkpt>
      <trkpt lat="50.717479716986418" lon="13.225765870884061">
        <ele>433</ele>
        <time>2026-08-29T10:52:47Z</time>
      </trkpt>
      <trkpt lat="50.717479716986418" lon="13.225766038522124">
        <ele>433</ele>
        <time>2026-08-29T10:52:48Z</time>
      </trkpt>
      <trkpt lat="50.717479381710291" lon="13.225771319121122">
        <ele>434</ele>
        <time>2026-08-29T10:52:49Z</time>
      </trkpt>
      <trkpt lat="50.717479716986418" lon="13.225785149261355">
        <ele>435</ele>
        <time>2026-08-29T10:52:50Z</time>
      </trkpt>
      <trkpt lat="50.717474604025483" lon="13.225787244737148">
        <ele>435</ele>
        <time>2026-08-29T10:52:51Z</time>
      </trkpt>
      <trkpt lat="50.717471837997437" lon="13.225796045735478">
        <ele>436</ele>
        <time>2026-08-29T10:52:52Z</time>
      </trkpt>
      <trkpt lat="50.717467311769724" lon="13.22580442763865">
        <ele>435</ele>
        <time>2026-08-29T10:52:53Z</time>
      </trkpt>
      <trkpt lat="50.717462114989758" lon="13.225805349647999">
        <ele>435</ele>
        <time>2026-08-29T10:52:54Z</time>
      </trkpt>
      <trkpt lat="50.717462031170726" lon="13.225805265828967">
        <ele>435</ele>
        <time>2026-08-29T10:52:55Z</time>
      </trkpt>
      <trkpt lat="50.717455912381411" lon="13.225813899189234">
        <ele>436</ele>
        <time>2026-08-29T10:52:56Z</time>
      </trkpt>
      <trkpt lat="50.717457421123981" lon="13.225825633853674">
        <ele>436</ele>
        <time>2026-08-29T10:52:57Z</time>
      </trkpt>
      <trkpt lat="50.717457421123981" lon="13.225831752642989">
        <ele>435</ele>
        <time>2026-08-29T10:52:58Z</time>
      </trkpt>
      <trkpt lat="50.717459432780743" lon="13.225833429023623">
        <ele>436</ele>
        <time>2026-08-29T10:52:59Z</time>
      </trkpt>
      <trkpt lat="50.717453733086586" lon="13.22582395747304">
        <ele>436</ele>
        <time>2026-08-29T10:53:00Z</time>
      </trkpt>
      <trkpt lat="50.717460690066218" lon="13.225821861997247">
        <ele>436</ele>
        <time>2026-08-29T10:53:01Z</time>
      </trkpt>
      <trkpt lat="50.717465719208121" lon="13.225794788450003">
        <ele>436</ele>
        <time>2026-08-29T10:53:02Z</time>
      </trkpt>
      <trkpt lat="50.717475106939673" lon="13.225773246958852">
        <ele>435</ele>
        <time>2026-08-29T10:53:03Z</time>
      </trkpt>
      <trkpt lat="50.717479716986418" lon="13.225757824257016">
        <ele>435</ele>
        <time>2026-08-29T10:53:04Z</time>
      </trkpt>
      <trkpt lat="50.71748374029994" lon="13.225753298029304">
        <ele>436</ele>
        <time>2026-08-29T10:53:05Z</time>
      </trkpt>
      <trkpt lat="50.717485249042511" lon="13.225763104856014">
        <ele>436</ele>
        <time>2026-08-29T10:53:06Z</time>
      </trkpt>
      <trkpt lat="50.71748566813767" lon="13.22577509097755">
        <ele>435</ele>
        <time>2026-08-29T10:53:07Z</time>
      </trkpt>
      <trkpt lat="50.717489859089255" lon="13.225769223645329">
        <ele>435</ele>
        <time>2026-08-29T10:53:08Z</time>
      </trkpt>
      <trkpt lat="50.717490194365382" lon="13.225769056007266">
        <ele>435</ele>
        <time>2026-08-29T10:53:09Z</time>
      </trkpt>
      <trkpt lat="50.717490445822477" lon="13.225770145654678">
        <ele>435</ele>
        <time>2026-08-29T10:53:10Z</time>
      </trkpt>
      <trkpt lat="50.717490697279572" lon="13.225770564749837">
        <ele>435</ele>
        <time>2026-08-29T10:53:11Z</time>
      </trkpt>
      <trkpt lat="50.717490781098604" lon="13.225770397111773">
        <ele>435</ele>
        <time>2026-08-29T10:53:12Z</time>
      </trkpt>
      <trkpt lat="50.717490781098604" lon="13.225770397111773">
        <ele>435</ele>
        <time>2026-08-29T10:53:13Z</time>
      </trkpt>
      <trkpt lat="50.717490864917636" lon="13.2257707323879">
        <ele>436</ele>
        <time>2026-08-29T10:53:14Z</time>
      </trkpt>
      <trkpt lat="50.717490781098604" lon="13.225770648568869">
        <ele>436</ele>
        <time>2026-08-29T10:53:15Z</time>
      </trkpt>
      <trkpt lat="50.717490362003446" lon="13.225757824257016">
        <ele>436</ele>
        <time>2026-08-29T10:53:16Z</time>
      </trkpt>
      <trkpt lat="50.717491870746017" lon="13.225754387676716">
        <ele>436</ele>
        <time>2026-08-29T10:53:17Z</time>
      </trkpt>
      <trkpt lat="50.71748273447156" lon="13.225760506466031">
        <ele>435</ele>
        <time>2026-08-29T10:53:18Z</time>
      </trkpt>
      <trkpt lat="50.717478208243847" lon="13.225757069885731">
        <ele>436</ele>
        <time>2026-08-29T10:53:19Z</time>
      </trkpt>
      <trkpt lat="50.717472676187754" lon="13.225746927782893">
        <ele>435</ele>
        <time>2026-08-29T10:53:20Z</time>
      </trkpt>
      <trkpt lat="50.717468401417136" lon="13.22574969381094">
        <ele>435</ele>
        <time>2026-08-29T10:53:21Z</time>
      </trkpt>
      <trkpt lat="50.71746613830328" lon="13.225742233917117">
        <ele>435</ele>
        <time>2026-08-29T10:53:22Z</time>
      </trkpt>
      <trkpt lat="50.717465216293931" lon="13.225752878934145">
        <ele>435</ele>
        <time>2026-08-29T10:53:23Z</time>
      </trkpt>
      <trkpt lat="50.717469742521644" lon="13.225749107077718">
        <ele>435</ele>
        <time>2026-08-29T10:53:24Z</time>
      </trkpt>
      <trkpt lat="50.717480471357703" lon="13.225744161754847">
        <ele>435</ele>
        <time>2026-08-29T10:53:25Z</time>
      </trkpt>
      <trkpt lat="50.717490194365382" lon="13.225759584456682">
        <ele>435</ele>
        <time>2026-08-29T10:53:26Z</time>
      </trkpt>
      <trkpt lat="50.717488517984748" lon="13.225760841742158">
        <ele>435</ele>
        <time>2026-08-29T10:53:27Z</time>
      </trkpt>
      <trkpt lat="50.71748960763216" lon="13.225772576406598">
        <ele>435</ele>
        <time>2026-08-29T10:53:28Z</time>
      </trkpt>
      <trkpt lat="50.717496648430824" lon="13.225776683539152">
        <ele>435</ele>
        <time>2026-08-29T10:53:29Z</time>
      </trkpt>
      <trkpt lat="50.717499665915966" lon="13.225781125947833">
        <ele>435</ele>
        <time>2026-08-29T10:53:30Z</time>
      </trkpt>
      <trkpt lat="50.717504108324647" lon="13.225791519507766">
        <ele>434</ele>
        <time>2026-08-29T10:53:31Z</time>
      </trkpt>
      <trkpt lat="50.717508466914296" lon="13.225805014371872">
        <ele>434</ele>
        <time>2026-08-29T10:53:32Z</time>
      </trkpt>
      <trkpt lat="50.717505868524313" lon="13.225810043513775">
        <ele>435</ele>
        <time>2026-08-29T10:53:33Z</time>
      </trkpt>
      <trkpt lat="50.71750327013433" lon="13.225806690752506">
        <ele>435</ele>
        <time>2026-08-29T10:53:34Z</time>
      </trkpt>
      <trkpt lat="50.717504611238837" lon="13.225803589448333">
        <ele>435</ele>
        <time>2026-08-29T10:53:35Z</time>
      </trkpt>
      <trkpt lat="50.717504108324647" lon="13.225807612761855">
        <ele>435</ele>
        <time>2026-08-29T10:53:36Z</time>
      </trkpt>
      <trkpt lat="50.717505868524313" lon="13.225814402103424">
        <ele>435</ele>
        <time>2026-08-29T10:53:37Z</time>
      </trkpt>
      <trkpt lat="50.717510227113962" lon="13.225826723501086">
        <ele>435</ele>
        <time>2026-08-29T10:53:38Z</time>
      </trkpt>
      <trkpt lat="50.717514669522643" lon="13.225835105404258">
        <ele>435</ele>
        <time>2026-08-29T10:53:39Z</time>
      </trkpt>
      <trkpt lat="50.717511903494596" lon="13.225840386003256">
        <ele>435</ele>
        <time>2026-08-29T10:53:40Z</time>
      </trkpt>
      <trkpt lat="50.717513160780072" lon="13.225841475650668">
        <ele>435</ele>
        <time>2026-08-29T10:53:41Z</time>
      </trkpt>
      <trkpt lat="50.717513579875231" lon="13.225848851725459">
        <ele>436</ele>
        <time>2026-08-29T10:53:42Z</time>
      </trkpt>
      <trkpt lat="50.717523135244846" lon="13.225853880867362">
        <ele>436</ele>
        <time>2026-08-29T10:53:43Z</time>
      </trkpt>
      <trkpt lat="50.717526320368052" lon="13.225864190608263">
        <ele>436</ele>
        <time>2026-08-29T10:53:44Z</time>
      </trkpt>
      <trkpt lat="50.717527996748686" lon="13.225869219750166">
        <ele>436</ele>
        <time>2026-08-29T10:53:45Z</time>
      </trkpt>
      <trkpt lat="50.717524141073227" lon="13.225871985778213">
        <ele>436</ele>
        <time>2026-08-29T10:53:46Z</time>
      </trkpt>
      <trkpt lat="50.717528583481908" lon="13.225873494520783">
        <ele>436</ele>
        <time>2026-08-29T10:53:47Z</time>
      </trkpt>
      <trkpt lat="50.717530678957701" lon="13.225886486470699">
        <ele>435</ele>
        <time>2026-08-29T10:53:48Z</time>
      </trkpt>
      <trkpt lat="50.717528751119971" lon="13.225874835625291">
        <ele>435</ele>
        <time>2026-08-29T10:53:49Z</time>
      </trkpt>
      <trkpt lat="50.717528918758035" lon="13.225874835625291">
        <ele>435</ele>
        <time>2026-08-29T10:53:50Z</time>
      </trkpt>
      <trkpt lat="50.717535456642509" lon="13.225870057940483">
        <ele>435</ele>
        <time>2026-08-29T10:53:51Z</time>
      </trkpt>
      <trkpt lat="50.717541659250855" lon="13.225859496742487">
        <ele>435</ele>
        <time>2026-08-29T10:53:52Z</time>
      </trkpt>
      <trkpt lat="50.717546101659536" lon="13.225858239457011">
        <ele>435</ele>
        <time>2026-08-29T10:53:53Z</time>
      </trkpt>
      <trkpt lat="50.717549119144678" lon="13.225856311619282">
        <ele>435</ele>
        <time>2026-08-29T10:53:54Z</time>
      </trkpt>
      <trkpt lat="50.717554064467549" lon="13.225857485085726">
        <ele>435</ele>
        <time>2026-08-29T10:53:55Z</time>
      </trkpt>
      <trkpt lat="50.717556579038501" lon="13.225861759856343">
        <ele>435</ele>
        <time>2026-08-29T10:53:56Z</time>
      </trkpt>
      <trkpt lat="50.717560518532991" lon="13.225866034626961">
        <ele>435</ele>
        <time>2026-08-29T10:53:57Z</time>
      </trkpt>
      <trkpt lat="50.71756336838007" lon="13.225860586389899">
        <ele>435</ele>
        <time>2026-08-29T10:53:58Z</time>
      </trkpt>
      <trkpt lat="50.717557584866881" lon="13.225855892524123">
        <ele>435</ele>
        <time>2026-08-29T10:53:59Z</time>
      </trkpt>
      <trkpt lat="50.717555992305279" lon="13.225860334932804">
        <ele>435</ele>
        <time>2026-08-29T10:54:00Z</time>
      </trkpt>
      <trkpt lat="50.7175531424582" lon="13.225863855332136">
        <ele>435</ele>
        <time>2026-08-29T10:54:01Z</time>
      </trkpt>
      <trkpt lat="50.717543922364712" lon="13.225867627188563">
        <ele>434</ele>
        <time>2026-08-29T10:54:02Z</time>
      </trkpt>
      <trkpt lat="50.71753797121346" lon="13.225872153416276">
        <ele>434</ele>
        <time>2026-08-29T10:54:03Z</time>
      </trkpt>
      <trkpt lat="50.717532942071557" lon="13.225859748199582">
        <ele>434</ele>
        <time>2026-08-29T10:54:04Z</time>
      </trkpt>
      <trkpt lat="50.717531433328986" lon="13.225869806483388">
        <ele>434</ele>
        <time>2026-08-29T10:54:05Z</time>
      </trkpt>
      <trkpt lat="50.717530427500606" lon="13.225877517834306">
        <ele>434</ele>
        <time>2026-08-29T10:54:06Z</time>
      </trkpt>
      <trkpt lat="50.717529254034162" lon="13.225886151194572">
        <ele>434</ele>
        <time>2026-08-29T10:54:07Z</time>
      </trkpt>
      <trkpt lat="50.717521291226149" lon="13.225897299125791">
        <ele>433</ele>
        <time>2026-08-29T10:54:08Z</time>
      </trkpt>
      <trkpt lat="50.717524643987417" lon="13.225896125659347">
        <ele>432</ele>
        <time>2026-08-29T10:54:09Z</time>
      </trkpt>
      <trkpt lat="50.717527158558369" lon="13.225909536704421">
        <ele>432</ele>
        <time>2026-08-29T10:54:10Z</time>
      </trkpt>
      <trkpt lat="50.717532858252525" lon="13.225924707949162">
        <ele>432</ele>
        <time>2026-08-29T10:54:11Z</time>
      </trkpt>
      <trkpt lat="50.717535875737667" lon="13.22593342512846">
        <ele>432</ele>
        <time>2026-08-29T10:54:12Z</time>
      </trkpt>
      <trkpt lat="50.717536378651857" lon="13.225947339087725">
        <ele>432</ele>
        <time>2026-08-29T10:54:13Z</time>
      </trkpt>
      <trkpt lat="50.717534366995096" lon="13.22594566270709">
        <ele>432</ele>
        <time>2026-08-29T10:54:14Z</time>
      </trkpt>
      <trkpt lat="50.717530930414796" lon="13.225943315774202">
        <ele>432</ele>
        <time>2026-08-29T10:54:15Z</time>
      </trkpt>
      <trkpt lat="50.717537049204111" lon="13.225945997983217">
        <ele>433</ele>
        <time>2026-08-29T10:54:16Z</time>
      </trkpt>
      <trkpt lat="50.717544257640839" lon="13.225956559181213">
        <ele>433</ele>
        <time>2026-08-29T10:54:17Z</time>
      </trkpt>
      <trkpt lat="50.717547358945012" lon="13.225963432341814">
        <ele>433</ele>
        <time>2026-08-29T10:54:18Z</time>
      </trkpt>
      <trkpt lat="50.717555992305279" lon="13.225977094843984">
        <ele>433</ele>
        <time>2026-08-29T10:54:19Z</time>
      </trkpt>
      <trkpt lat="50.717567140236497" lon="13.225984973832965">
        <ele>433</ele>
        <time>2026-08-29T10:54:20Z</time>
      </trkpt>
      <trkpt lat="50.717577701434493" lon="13.226000228896737">
        <ele>432</ele>
        <time>2026-08-29T10:54:21Z</time>
      </trkpt>
      <trkpt lat="50.717586250975728" lon="13.225998636335135">
        <ele>433</ele>
        <time>2026-08-29T10:54:22Z</time>
      </trkpt>
      <trkpt lat="50.717593710869551" lon="13.226001402363181">
        <ele>433</ele>
        <time>2026-08-29T10:54:23Z</time>
      </trkpt>
      <trkpt lat="50.717597231268883" lon="13.226006096228957">
        <ele>433</ele>
        <time>2026-08-29T10:54:24Z</time>
      </trkpt>
      <trkpt lat="50.717602008953691" lon="13.226007353514433">
        <ele>433</ele>
        <time>2026-08-29T10:54:25Z</time>
      </trkpt>
      <trkpt lat="50.717607876285911" lon="13.226001067087054">
        <ele>433</ele>
        <time>2026-08-29T10:54:26Z</time>
      </trkpt>
      <trkpt lat="50.717611229047179" lon="13.22600232437253">
        <ele>434</ele>
        <time>2026-08-29T10:54:27Z</time>
      </trkpt>
      <trkpt lat="50.717618018388748" lon="13.225994864478707">
        <ele>434</ele>
        <time>2026-08-29T10:54:28Z</time>
      </trkpt>
      <trkpt lat="50.717625478282571" lon="13.225993188098073">
        <ele>435</ele>
        <time>2026-08-29T10:54:29Z</time>
      </trkpt>
      <trkpt lat="50.717634866014123" lon="13.225969886407256">
        <ele>435</ele>
        <time>2026-08-29T10:54:30Z</time>
      </trkpt>
      <trkpt lat="50.717644169926643" lon="13.225940465927124">
        <ele>435</ele>
        <time>2026-08-29T10:54:31Z</time>
      </trkpt>
      <trkpt lat="50.717645175755024" lon="13.22592856362462">
        <ele>435</ele>
        <time>2026-08-29T10:54:32Z</time>
      </trkpt>
      <trkpt lat="50.717642745003104" lon="13.225933173671365">
        <ele>436</ele>
        <time>2026-08-29T10:54:33Z</time>
      </trkpt>
      <trkpt lat="50.717653390020132" lon="13.225939124822617">
        <ele>437</ele>
        <time>2026-08-29T10:54:34Z</time>
      </trkpt>
      <trkpt lat="50.717660682275891" lon="13.225941807031631">
        <ele>437</ele>
        <time>2026-08-29T10:54:35Z</time>
      </trkpt>
      <trkpt lat="50.717668980360031" lon="13.225952368229628">
        <ele>437</ele>
        <time>2026-08-29T10:54:36Z</time>
      </trkpt>
      <trkpt lat="50.717681804671884" lon="13.22596812620759">
        <ele>437</ele>
        <time>2026-08-29T10:54:37Z</time>
      </trkpt>
      <trkpt lat="50.717691862955689" lon="13.225983716547489">
        <ele>437</ele>
        <time>2026-08-29T10:54:38Z</time>
      </trkpt>
      <trkpt lat="50.717702927067876" lon="13.225985979661345">
        <ele>438</ele>
        <time>2026-08-29T10:54:39Z</time>
      </trkpt>
      <trkpt lat="50.717712817713618" lon="13.225985476747155">
        <ele>439</ele>
        <time>2026-08-29T10:54:40Z</time>
      </trkpt>
      <trkpt lat="50.717710973694921" lon="13.225983884185553">
        <ele>439</ele>
        <time>2026-08-29T10:54:41Z</time>
      </trkpt>
      <trkpt lat="50.71771239861846" lon="13.225980782881379">
        <ele>439</ele>
        <time>2026-08-29T10:54:42Z</time>
      </trkpt>
      <trkpt lat="50.717716757208109" lon="13.225976843386889">
        <ele>440</ele>
        <time>2026-08-29T10:54:43Z</time>
      </trkpt>
      <trkpt lat="50.717716924846172" lon="13.22597692720592">
        <ele>440</ele>
        <time>2026-08-29T10:54:44Z</time>
      </trkpt>
      <trkpt lat="50.717723211273551" lon="13.225974831730127">
        <ele>441</ele>
        <time>2026-08-29T10:54:45Z</time>
      </trkpt>
      <trkpt lat="50.717724384739995" lon="13.225976843386889">
        <ele>441</ele>
        <time>2026-08-29T10:54:46Z</time>
      </trkpt>
      <trkpt lat="50.717721115797758" lon="13.225970892235637">
        <ele>441</ele>
        <time>2026-08-29T10:54:47Z</time>
      </trkpt>
      <trkpt lat="50.717721451073885" lon="13.225970640778542">
        <ele>441</ele>
        <time>2026-08-29T10:54:48Z</time>
      </trkpt>
      <trkpt lat="50.717721451073885" lon="13.225970724597573">
        <ele>441</ele>
        <time>2026-08-29T10:54:49Z</time>
      </trkpt>
      <trkpt lat="50.71772170253098" lon="13.225970808416605">
        <ele>441</ele>
        <time>2026-08-29T10:54:50Z</time>
      </trkpt>
      <trkpt lat="50.71772170253098" lon="13.225970976054668">
        <ele>441</ele>
        <time>2026-08-29T10:54:51Z</time>
      </trkpt>
      <trkpt lat="50.71772119961679" lon="13.225973155349493">
        <ele>441</ele>
        <time>2026-08-29T10:54:52Z</time>
      </trkpt>
      <trkpt lat="50.717726647853851" lon="13.225976843386889">
        <ele>441</ele>
        <time>2026-08-29T10:54:53Z</time>
      </trkpt>
      <trkpt lat="50.717735700309277" lon="13.22597592137754">
        <ele>441</ele>
        <time>2026-08-29T10:54:54Z</time>
      </trkpt>
      <trkpt lat="50.717743327841163" lon="13.225973742082715">
        <ele>440</ele>
        <time>2026-08-29T10:54:55Z</time>
      </trkpt>
      <trkpt lat="50.717748440802097" lon="13.225972736254334">
        <ele>441</ele>
        <time>2026-08-29T10:54:56Z</time>
      </trkpt>
      <trkpt lat="50.717754140496254" lon="13.225981201976538">
        <ele>441</ele>
        <time>2026-08-29T10:54:57Z</time>
      </trkpt>
      <trkpt lat="50.717764869332314" lon="13.22597885504365">
        <ele>441</ele>
        <time>2026-08-29T10:54:58Z</time>
      </trkpt>
      <trkpt lat="50.717772748321295" lon="13.225971478968859">
        <ele>441</ele>
        <time>2026-08-29T10:54:59Z</time>
      </trkpt>
      <trkpt lat="50.717778615653515" lon="13.225971730425954">
        <ele>441</ele>
        <time>2026-08-29T10:55:00Z</time>
      </trkpt>
      <trkpt lat="50.717781046405435" lon="13.225977011024952">
        <ele>441</ele>
        <time>2026-08-29T10:55:01Z</time>
      </trkpt>
      <trkpt lat="50.717790182679892" lon="13.225985560566187">
        <ele>441</ele>
        <time>2026-08-29T10:55:02Z</time>
      </trkpt>
      <trkpt lat="50.717799067497253" lon="13.226000228896737">
        <ele>441</ele>
        <time>2026-08-29T10:55:03Z</time>
      </trkpt>
      <trkpt lat="50.717809209600091" lon="13.226012550294399">
        <ele>441</ele>
        <time>2026-08-29T10:55:04Z</time>
      </trkpt>
      <trkpt lat="50.717822201550007" lon="13.226022440940142">
        <ele>441</ele>
        <time>2026-08-29T10:55:05Z</time>
      </trkpt>
      <trkpt lat="50.717837791889906" lon="13.226039540022612">
        <ele>441</ele>
        <time>2026-08-29T10:55:06Z</time>
      </trkpt>
      <trkpt lat="50.717860423028469" lon="13.22605462744832">
        <ele>441</ele>
        <time>2026-08-29T10:55:07Z</time>
      </trkpt>
      <trkpt lat="50.717881880700588" lon="13.226079186424613">
        <ele>441</ele>
        <time>2026-08-29T10:55:08Z</time>
      </trkpt>
      <trkpt lat="50.717903589829803" lon="13.226102069020271">
        <ele>440</ele>
        <time>2026-08-29T10:55:09Z</time>
      </trkpt>
      <trkpt lat="50.717932507395744" lon="13.226126879453659">
        <ele>440</ele>
        <time>2026-08-29T10:55:10Z</time>
      </trkpt>
      <trkpt lat="50.71796603500843" lon="13.226154204457998">
        <ele>440</ele>
        <time>2026-08-29T10:55:11Z</time>
      </trkpt>
      <trkpt lat="50.717996209859848" lon="13.226184463128448">
        <ele>440</ele>
        <time>2026-08-29T10:55:12Z</time>
      </trkpt>
      <trkpt lat="50.718023618683219" lon="13.226219248026609">
        <ele>440</ele>
        <time>2026-08-29T10:55:13Z</time>
      </trkpt>
      <trkpt lat="50.718053542077541" lon="13.226251685991883">
        <ele>440</ele>
        <time>2026-08-29T10:55:14Z</time>
      </trkpt>
      <trkpt lat="50.718087572604418" lon="13.226296193897724">
        <ele>440</ele>
        <time>2026-08-29T10:55:15Z</time>
      </trkpt>
      <trkpt lat="50.718121184036136" lon="13.226332822814584">
        <ele>440</ele>
        <time>2026-08-29T10:55:16Z</time>
      </trkpt>
      <trkpt lat="50.718160746619105" lon="13.226377163082361">
        <ele>440</ele>
        <time>2026-08-29T10:55:17Z</time>
      </trkpt>
      <trkpt lat="50.718194860965014" lon="13.226427203044295">
        <ele>439</ele>
        <time>2026-08-29T10:55:18Z</time>
      </trkpt>
      <trkpt lat="50.718241631984711" lon="13.226491659879684">
        <ele>439</ele>
        <time>2026-08-29T10:55:19Z</time>
      </trkpt>
      <trkpt lat="50.718283038586378" lon="13.226530719548464">
        <ele>439</ele>
        <time>2026-08-29T10:55:20Z</time>
      </trkpt>
      <trkpt lat="50.718344477936625" lon="13.226571120321751">
        <ele>439</ele>
        <time>2026-08-29T10:55:21Z</time>
      </trkpt>
      <trkpt lat="50.718396529555321" lon="13.226621747016907">
        <ele>439</ele>
        <time>2026-08-29T10:55:22Z</time>
      </trkpt>
      <trkpt lat="50.718435421586037" lon="13.226655274629593">
        <ele>439</ele>
        <time>2026-08-29T10:55:23Z</time>
      </trkpt>
      <trkpt lat="50.7184839528054" lon="13.226693160831928">
        <ele>440</ele>
        <time>2026-08-29T10:55:24Z</time>
      </trkpt>
      <trkpt lat="50.718535082414746" lon="13.226733980700374">
        <ele>440</ele>
        <time>2026-08-29T10:55:25Z</time>
      </trkpt>
      <trkpt lat="50.718588642776012" lon="13.226773794740438">
        <ele>440</ele>
        <time>2026-08-29T10:55:26Z</time>
      </trkpt>
      <trkpt lat="50.718632563948631" lon="13.226829366758466">
        <ele>440</ele>
        <time>2026-08-29T10:55:27Z</time>
      </trkpt>
      <trkpt lat="50.718684447929263" lon="13.226880999282002">
        <ele>440</ele>
        <time>2026-08-29T10:55:28Z</time>
      </trkpt>
      <trkpt lat="50.7187360804528" lon="13.226924166083336">
        <ele>440</ele>
        <time>2026-08-29T10:55:29Z</time>
      </trkpt>
      <trkpt lat="50.718790059909225" lon="13.226962387561798">
        <ele>440</ele>
        <time>2026-08-29T10:55:30Z</time>
      </trkpt>
      <trkpt lat="50.718846637755632" lon="13.227010080590844">
        <ele>441</ele>
        <time>2026-08-29T10:55:31Z</time>
      </trkpt>
      <trkpt lat="50.718900533393025" lon="13.227043775841594">
        <ele>441</ele>
        <time>2026-08-29T10:55:32Z</time>
      </trkpt>
      <trkpt lat="50.71895451284945" lon="13.227093648165464">
        <ele>440</ele>
        <time>2026-08-29T10:55:33Z</time>
      </trkpt>
      <trkpt lat="50.719009581953287" lon="13.227132456377149">
        <ele>440</ele>
        <time>2026-08-29T10:55:34Z</time>
      </trkpt>
      <trkpt lat="50.71906884200871" lon="13.227184843271971">
        <ele>441</ele>
        <time>2026-08-29T10:55:35Z</time>
      </trkpt>
      <trkpt lat="50.719121647998691" lon="13.227234296500683">
        <ele>441</ele>
        <time>2026-08-29T10:55:36Z</time>
      </trkpt>
      <trkpt lat="50.719168754294515" lon="13.227282995358109">
        <ele>442</ele>
        <time>2026-08-29T10:55:37Z</time>
      </trkpt>
      <trkpt lat="50.719216531142592" lon="13.227338567376137">
        <ele>441</ele>
        <time>2026-08-29T10:55:38Z</time>
      </trkpt>
      <trkpt lat="50.719265230000019" lon="13.227386763319373">
        <ele>441</ele>
        <time>2026-08-29T10:55:39Z</time>
      </trkpt>
      <trkpt lat="50.719317952170968" lon="13.227425739169121">
        <ele>441</ele>
        <time>2026-08-29T10:55:40Z</time>
      </trkpt>
      <trkpt lat="50.719375954940915" lon="13.227471923455596">
        <ele>441</ele>
        <time>2026-08-29T10:55:41Z</time>
      </trkpt>
      <trkpt lat="50.719432029873133" lon="13.227514587342739">
        <ele>441</ele>
        <time>2026-08-29T10:55:42Z</time>
      </trkpt>
      <trkpt lat="50.719480225816369" lon="13.227564794942737">
        <ele>440</ele>
        <time>2026-08-29T10:55:43Z</time>
      </trkpt>
      <trkpt lat="50.719531523063779" lon="13.22759572416544">
        <ele>440</ele>
        <time>2026-08-29T10:55:44Z</time>
      </trkpt>
      <trkpt lat="50.719581479206681" lon="13.227623132988811">
        <ele>440</ele>
        <time>2026-08-29T10:55:45Z</time>
      </trkpt>
      <trkpt lat="50.719629423692822" lon="13.22763629257679">
        <ele>440</ele>
        <time>2026-08-29T10:55:46Z</time>
      </trkpt>
      <trkpt lat="50.719672171398997" lon="13.227644339203835">
        <ele>440</ele>
        <time>2026-08-29T10:55:47Z</time>
      </trkpt>
      <trkpt lat="50.719701340422034" lon="13.227649955078959">
        <ele>440</ele>
        <time>2026-08-29T10:55:48Z</time>
      </trkpt>
      <trkpt lat="50.719729419797659" lon="13.227644255384803">
        <ele>439</ele>
        <time>2026-08-29T10:55:49Z</time>
      </trkpt>
      <trkpt lat="50.719764875248075" lon="13.227637801319361">
        <ele>438</ele>
        <time>2026-08-29T10:55:50Z</time>
      </trkpt>
      <trkpt lat="50.719790020957589" lon="13.227640483528376">
        <ele>438</ele>
        <time>2026-08-29T10:55:51Z</time>
      </trkpt>
      <trkpt lat="50.719815837219357" lon="13.227630844339728">
        <ele>438</ele>
        <time>2026-08-29T10:55:52Z</time>
      </trkpt>
      <trkpt lat="50.719846095889807" lon="13.227637633681297">
        <ele>438</ele>
        <time>2026-08-29T10:55:53Z</time>
      </trkpt>
      <trkpt lat="50.719870822504163" lon="13.227646350860596">
        <ele>438</ele>
        <time>2026-08-29T10:55:54Z</time>
      </trkpt>
      <trkpt lat="50.719901164993644" lon="13.227659007534385">
        <ele>438</ele>
        <time>2026-08-29T10:55:55Z</time>
      </trkpt>
      <trkpt lat="50.719924969598651" lon="13.227661354467273">
        <ele>438</ele>
        <time>2026-08-29T10:55:56Z</time>
      </trkpt>
      <trkpt lat="50.719941230490804" lon="13.227666132152081">
        <ele>438</ele>
        <time>2026-08-29T10:55:57Z</time>
      </trkpt>
      <trkpt lat="50.719960508868098" lon="13.227682895958424">
        <ele>438</ele>
        <time>2026-08-29T10:55:58Z</time>
      </trkpt>
      <trkpt lat="50.719972997903824" lon="13.227707957848907">
        <ele>438</ele>
        <time>2026-08-29T10:55:59Z</time>
      </trkpt>
      <trkpt lat="50.719981882721186" lon="13.227734109386802">
        <ele>438</ele>
        <time>2026-08-29T10:56:00Z</time>
      </trkpt>
      <trkpt lat="50.719995629042387" lon="13.227748358622193">
        <ele>438</ele>
        <time>2026-08-29T10:56:01Z</time>
      </trkpt>
      <trkpt lat="50.719996131956577" lon="13.227771911770105">
        <ele>437</ele>
        <time>2026-08-29T10:56:02Z</time>
      </trkpt>
      <trkpt lat="50.719998059794307" lon="13.227793034166098">
        <ele>438</ele>
        <time>2026-08-29T10:56:03Z</time>
      </trkpt>
      <trkpt lat="50.719987079501152" lon="13.227812144905329">
        <ele>438</ele>
        <time>2026-08-29T10:56:04Z</time>
      </trkpt>
      <trkpt lat="50.719985319301486" lon="13.227815581485629">
        <ele>437</ele>
        <time>2026-08-29T10:56:05Z</time>
      </trkpt>
      <trkpt lat="50.719990348443389" lon="13.227826142683625">
        <ele>437</ele>
        <time>2026-08-29T10:56:06Z</time>
      </trkpt>
      <trkpt lat="50.719994623214006" lon="13.227829746901989">
        <ele>437</ele>
        <time>2026-08-29T10:56:07Z</time>
      </trkpt>
      <trkpt lat="50.719997892156243" lon="13.227828154340386">
        <ele>437</ele>
        <time>2026-08-29T10:56:08Z</time>
      </trkpt>
      <trkpt lat="50.720003172755241" lon="13.22782882489264">
        <ele>437</ele>
        <time>2026-08-29T10:56:09Z</time>
      </trkpt>
      <trkpt lat="50.720006357878447" lon="13.227831590920687">
        <ele>438</ele>
        <time>2026-08-29T10:56:10Z</time>
      </trkpt>
      <trkpt lat="50.720015661790967" lon="13.227842319756746">
        <ele>437</ele>
        <time>2026-08-29T10:56:11Z</time>
      </trkpt>
      <trkpt lat="50.720035778358579" lon="13.227869644761086">
        <ele>438</ele>
        <time>2026-08-29T10:56:12Z</time>
      </trkpt>
      <trkpt lat="50.720044830814004" lon="13.227893700823188">
        <ele>437</ele>
        <time>2026-08-29T10:56:13Z</time>
      </trkpt>
      <trkpt lat="50.720047177746892" lon="13.227918595075607">
        <ele>437</ele>
        <time>2026-08-29T10:56:14Z</time>
      </trkpt>
      <trkpt lat="50.720054470002651" lon="13.227933347225189">
        <ele>437</ele>
        <time>2026-08-29T10:56:15Z</time>
      </trkpt>
      <trkpt lat="50.720050781965256" lon="13.227944830432534">
        <ele>436</ele>
        <time>2026-08-29T10:56:16Z</time>
      </trkpt>
      <trkpt lat="50.720050279051065" lon="13.227951535955071">
        <ele>436</ele>
        <time>2026-08-29T10:56:17Z</time>
      </trkpt>
      <trkpt lat="50.720040807500482" lon="13.227947009727359">
        <ele>435</ele>
        <time>2026-08-29T10:56:18Z</time>
      </trkpt>
      <trkpt lat="50.720036868005991" lon="13.227953212335706">
        <ele>435</ele>
        <time>2026-08-29T10:56:19Z</time>
      </trkpt>
      <trkpt lat="50.720034185796976" lon="13.227973328903317">
        <ele>435</ele>
        <time>2026-08-29T10:56:20Z</time>
      </trkpt>
      <trkpt lat="50.720031419768929" lon="13.227985231205821">
        <ele>435</ele>
        <time>2026-08-29T10:56:21Z</time>
      </trkpt>
      <trkpt lat="50.720035778358579" lon="13.227996295318007">
        <ele>434</ele>
        <time>2026-08-29T10:56:22Z</time>
      </trkpt>
      <trkpt lat="50.720042483881116" lon="13.22802035138011">
        <ele>434</ele>
        <time>2026-08-29T10:56:23Z</time>
      </trkpt>
      <trkpt lat="50.720045920461416" lon="13.228029320016503">
        <ele>434</ele>
        <time>2026-08-29T10:56:24Z</time>
      </trkpt>
      <trkpt lat="50.720050111413002" lon="13.228044491261244">
        <ele>435</ele>
        <time>2026-08-29T10:56:25Z</time>
      </trkpt>
      <trkpt lat="50.72004902176559" lon="13.228052370250225">
        <ele>434</ele>
        <time>2026-08-29T10:56:26Z</time>
      </trkpt>
      <trkpt lat="50.720053464174271" lon="13.228069888427854">
        <ele>434</ele>
        <time>2026-08-29T10:56:27Z</time>
      </trkpt>
      <trkpt lat="50.720053212717175" lon="13.228084975853562">
        <ele>434</ele>
        <time>2026-08-29T10:56:28Z</time>
      </trkpt>
      <trkpt lat="50.720056062564254" lon="13.228100901469588">
        <ele>434</ele>
        <time>2026-08-29T10:56:29Z</time>
      </trkpt>
      <trkpt lat="50.720060337334871" lon="13.228116240352392">
        <ele>434</ele>
        <time>2026-08-29T10:56:30Z</time>
      </trkpt>
      <trkpt lat="50.720061929896474" lon="13.228128980845213">
        <ele>435</ele>
        <time>2026-08-29T10:56:31Z</time>
      </trkpt>
      <trkpt lat="50.720063773915172" lon="13.228135770186782">
        <ele>436</ele>
        <time>2026-08-29T10:56:32Z</time>
      </trkpt>
      <trkpt lat="50.720062348991632" lon="13.228154126554728">
        <ele>436</ele>
        <time>2026-08-29T10:56:33Z</time>
      </trkpt>
      <trkpt lat="50.720059750601649" lon="13.228163346648216">
        <ele>436</ele>
        <time>2026-08-29T10:56:34Z</time>
      </trkpt>
      <trkpt lat="50.720063941553235" lon="13.228187235072255">
        <ele>436</ele>
        <time>2026-08-29T10:56:35Z</time>
      </trkpt>
      <trkpt lat="50.720066791400313" lon="13.228198466822505">
        <ele>437</ele>
        <time>2026-08-29T10:56:36Z</time>
      </trkpt>
      <trkpt lat="50.72006469592452" lon="13.228207267820835">
        <ele>437</ele>
        <time>2026-08-29T10:56:37Z</time>
      </trkpt>
      <trkpt lat="50.720059331506491" lon="13.228225708007813">
        <ele>438</ele>
        <time>2026-08-29T10:56:38Z</time>
      </trkpt>
      <trkpt lat="50.720058074221015" lon="13.228238113224506">
        <ele>438</ele>
        <time>2026-08-29T10:56:39Z</time>
      </trkpt>
      <trkpt lat="50.72006025351584" lon="13.228248506784439">
        <ele>439</ele>
        <time>2026-08-29T10:56:40Z</time>
      </trkpt>
      <trkpt lat="50.720059750601649" lon="13.228255463764071">
        <ele>439</ele>
        <time>2026-08-29T10:56:41Z</time>
      </trkpt>
      <trkpt lat="50.720061510801315" lon="13.228268623352051">
        <ele>439</ele>
        <time>2026-08-29T10:56:42Z</time>
      </trkpt>
      <trkpt lat="50.720061175525188" lon="13.228282034397125">
        <ele>440</ele>
        <time>2026-08-29T10:56:43Z</time>
      </trkpt>
      <trkpt lat="50.720065198838711" lon="13.228300893679261">
        <ele>441</ele>
        <time>2026-08-29T10:56:44Z</time>
      </trkpt>
      <trkpt lat="50.720066539943218" lon="13.228307263925672">
        <ele>441</ele>
        <time>2026-08-29T10:56:45Z</time>
      </trkpt>
      <trkpt lat="50.720068719238043" lon="13.228319669142365">
        <ele>441</ele>
        <time>2026-08-29T10:56:46Z</time>
      </trkpt>
      <trkpt lat="50.720074586570263" lon="13.22833601385355">
        <ele>441</ele>
        <time>2026-08-29T10:56:47Z</time>
      </trkpt>
      <trkpt lat="50.720080370083451" lon="13.228355292230844">
        <ele>442</ele>
        <time>2026-08-29T10:56:48Z</time>
      </trkpt>
      <trkpt lat="50.720085985958576" lon="13.228374989703298">
        <ele>442</ele>
        <time>2026-08-29T10:56:49Z</time>
      </trkpt>
      <trkpt lat="50.720094870775938" lon="13.228393932804465">
        <ele>442</ele>
        <time>2026-08-29T10:56:50Z</time>
      </trkpt>
      <trkpt lat="50.720102079212666" lon="13.228408601135015">
        <ele>442</ele>
        <time>2026-08-29T10:56:51Z</time>
      </trkpt>
      <trkpt lat="50.720111718401313" lon="13.228422095999122">
        <ele>442</ele>
        <time>2026-08-29T10:56:52Z</time>
      </trkpt>
      <trkpt lat="50.72011792100966" lon="13.228439278900623">
        <ele>442</ele>
        <time>2026-08-29T10:56:53Z</time>
      </trkpt>
      <trkpt lat="50.720123872160912" lon="13.228446068242192">
        <ele>443</ele>
        <time>2026-08-29T10:56:54Z</time>
      </trkpt>
      <trkpt lat="50.720130074769258" lon="13.228464340791106">
        <ele>442</ele>
        <time>2026-08-29T10:56:55Z</time>
      </trkpt>
      <trkpt lat="50.720135942101479" lon="13.228477500379086">
        <ele>443</ele>
        <time>2026-08-29T10:56:56Z</time>
      </trkpt>
      <trkpt lat="50.720141138881445" lon="13.228496946394444">
        <ele>443</ele>
        <time>2026-08-29T10:56:57Z</time>
      </trkpt>
      <trkpt lat="50.720149436965585" lon="13.228506837040186">
        <ele>443</ele>
        <time>2026-08-29T10:56:58Z</time>
      </trkpt>
      <trkpt lat="50.720157315954566" lon="13.228518906980753">
        <ele>443</ele>
        <time>2026-08-29T10:56:59Z</time>
      </trkpt>
      <trkpt lat="50.720163770020008" lon="13.228534329682589">
        <ele>444</ele>
        <time>2026-08-29T10:57:00Z</time>
      </trkpt>
      <trkpt lat="50.720173409208655" lon="13.228546818718314">
        <ele>443</ele>
        <time>2026-08-29T10:57:01Z</time>
      </trkpt>
      <trkpt lat="50.720179779455066" lon="13.228549668565392">
        <ele>444</ele>
        <time>2026-08-29T10:57:02Z</time>
      </trkpt>
      <trkpt lat="50.72018682025373" lon="13.228556122630835">
        <ele>444</ele>
        <time>2026-08-29T10:57:03Z</time>
      </trkpt>
      <trkpt lat="50.720189334824681" lon="13.228569533675909">
        <ele>444</ele>
        <time>2026-08-29T10:57:04Z</time>
      </trkpt>
      <trkpt lat="50.720194783061743" lon="13.228583950549364">
        <ele>445</ele>
        <time>2026-08-29T10:57:05Z</time>
      </trkpt>
      <trkpt lat="50.72020199149847" lon="13.228599289432168">
        <ele>445</ele>
        <time>2026-08-29T10:57:06Z</time>
      </trkpt>
      <trkpt lat="50.720207942649722" lon="13.228615047410131">
        <ele>445</ele>
        <time>2026-08-29T10:57:07Z</time>
      </trkpt>
      <trkpt lat="50.720214061439037" lon="13.228619741275907">
        <ele>444</ele>
        <time>2026-08-29T10:57:08Z</time>
      </trkpt>
      <trkpt lat="50.720218420028687" lon="13.228620914742351">
        <ele>444</ele>
        <time>2026-08-29T10:57:09Z</time>
      </trkpt>
      <trkpt lat="50.72021808475256" lon="13.228623261675239">
        <ele>444</ele>
        <time>2026-08-29T10:57:10Z</time>
      </trkpt>
      <trkpt lat="50.720218336209655" lon="13.228623932227492">
        <ele>444</ele>
        <time>2026-08-29T10:57:11Z</time>
      </trkpt>
      <trkpt lat="50.720218671485782" lon="13.228624686598778">
        <ele>444</ele>
        <time>2026-08-29T10:57:12Z</time>
      </trkpt>
      <trkpt lat="50.720217833295465" lon="13.228628793731332">
        <ele>444</ele>
        <time>2026-08-29T10:57:13Z</time>
      </trkpt>
      <trkpt lat="50.72021808475256" lon="13.228629380464554">
        <ele>444</ele>
        <time>2026-08-29T10:57:14Z</time>
      </trkpt>
      <trkpt lat="50.720218252390623" lon="13.228629799559712">
        <ele>444</ele>
        <time>2026-08-29T10:57:15Z</time>
      </trkpt>
      <trkpt lat="50.720218336209655" lon="13.228630051016808">
        <ele>444</ele>
        <time>2026-08-29T10:57:16Z</time>
      </trkpt>
      <trkpt lat="50.720218252390623" lon="13.228630302473903">
        <ele>444</ele>
        <time>2026-08-29T10:57:17Z</time>
      </trkpt>
      <trkpt lat="50.720218336209655" lon="13.228630386292934">
        <ele>444</ele>
        <time>2026-08-29T10:57:18Z</time>
      </trkpt>
      <trkpt lat="50.720218420028687" lon="13.22863114066422">
        <ele>444</ele>
        <time>2026-08-29T10:57:19Z</time>
      </trkpt>
      <trkpt lat="50.720218671485782" lon="13.228631559759378">
        <ele>444</ele>
        <time>2026-08-29T10:57:20Z</time>
      </trkpt>
      <trkpt lat="50.720218671485782" lon="13.228631308302283">
        <ele>444</ele>
        <time>2026-08-29T10:57:21Z</time>
      </trkpt>
      <trkpt lat="50.720218671485782" lon="13.228631811216474">
        <ele>444</ele>
        <time>2026-08-29T10:57:22Z</time>
      </trkpt>
      <trkpt lat="50.720218671485782" lon="13.228631978854537">
        <ele>444</ele>
        <time>2026-08-29T10:57:23Z</time>
      </trkpt>
      <trkpt lat="50.720218420028687" lon="13.228632397949696">
        <ele>444</ele>
        <time>2026-08-29T10:57:24Z</time>
      </trkpt>
      <trkpt lat="50.720214899629354" lon="13.2286321464926">
        <ele>443</ele>
        <time>2026-08-29T10:57:25Z</time>
      </trkpt>
      <trkpt lat="50.72021615691483" lon="13.2286321464926">
        <ele>443</ele>
        <time>2026-08-29T10:57:26Z</time>
      </trkpt>
      <trkpt lat="50.720207188278437" lon="13.228641115128994">
        <ele>443</ele>
        <time>2026-08-29T10:57:27Z</time>
      </trkpt>
      <trkpt lat="50.720204338431358" lon="13.228649748489261">
        <ele>442</ele>
        <time>2026-08-29T10:57:28Z</time>
      </trkpt>
      <trkpt lat="50.720203248783946" lon="13.228642120957375">
        <ele>443</ele>
        <time>2026-08-29T10:57:29Z</time>
      </trkpt>
      <trkpt lat="50.720202410593629" lon="13.228652514517307">
        <ele>442</ele>
        <time>2026-08-29T10:57:30Z</time>
      </trkpt>
      <trkpt lat="50.720205176621675" lon="13.228658717125654">
        <ele>442</ele>
        <time>2026-08-29T10:57:31Z</time>
      </trkpt>
      <trkpt lat="50.720210541039705" lon="13.228665171191096">
        <ele>442</ele>
        <time>2026-08-29T10:57:32Z</time>
      </trkpt>
      <trkpt lat="50.720215989276767" lon="13.228674726560712">
        <ele>443</ele>
        <time>2026-08-29T10:57:33Z</time>
      </trkpt>
      <trkpt lat="50.72021858766675" lon="13.228684784844518">
        <ele>443</ele>
        <time>2026-08-29T10:57:34Z</time>
      </trkpt>
      <trkpt lat="50.720223868265748" lon="13.228694926947355">
        <ele>443</ele>
        <time>2026-08-29T10:57:35Z</time>
      </trkpt>
      <trkpt lat="50.720229400321841" lon="13.228704230859876">
        <ele>443</ele>
        <time>2026-08-29T10:57:36Z</time>
      </trkpt>
      <trkpt lat="50.720234345644712" lon="13.228714792057872">
        <ele>443</ele>
        <time>2026-08-29T10:57:37Z</time>
      </trkpt>
      <trkpt lat="50.720237530767918" lon="13.228723425418139">
        <ele>443</ele>
        <time>2026-08-29T10:57:38Z</time>
      </trkpt>
      <trkpt lat="50.72024499066174" lon="13.228739267215133">
        <ele>443</ele>
        <time>2026-08-29T10:57:39Z</time>
      </trkpt>
      <trkpt lat="50.720252702012658" lon="13.228755695745349">
        <ele>443</ele>
        <time>2026-08-29T10:57:40Z</time>
      </trkpt>
      <trkpt lat="50.720260748639703" lon="13.228769190609455">
        <ele>444</ele>
        <time>2026-08-29T10:57:41Z</time>
      </trkpt>
      <trkpt lat="50.720271142199636" lon="13.228775560855865">
        <ele>444</ele>
        <time>2026-08-29T10:57:42Z</time>
      </trkpt>
      <trkpt lat="50.720274662598968" lon="13.228787714615464">
        <ele>444</ele>
        <time>2026-08-29T10:57:43Z</time>
      </trkpt>
      <trkpt lat="50.720279859378934" lon="13.228802550584078">
        <ele>444</ele>
        <time>2026-08-29T10:57:44Z</time>
      </trkpt>
      <trkpt lat="50.720289498567581" lon="13.228822164237499">
        <ele>444</ele>
        <time>2026-08-29T10:57:45Z</time>
      </trkpt>
      <trkpt lat="50.720292516052723" lon="13.22883146815002">
        <ele>444</ele>
        <time>2026-08-29T10:57:46Z</time>
      </trkpt>
      <trkpt lat="50.720300059765577" lon="13.228846890851855">
        <ele>444</ele>
        <time>2026-08-29T10:57:47Z</time>
      </trkpt>
      <trkpt lat="50.720301484689116" lon="13.228860469534993">
        <ele>443</ele>
        <time>2026-08-29T10:57:48Z</time>
      </trkpt>
      <trkpt lat="50.720305759459734" lon="13.228865833953023">
        <ele>444</ele>
        <time>2026-08-29T10:57:49Z</time>
      </trkpt>
      <trkpt lat="50.720309698954225" lon="13.228872623294592">
        <ele>444</ele>
        <time>2026-08-29T10:57:50Z</time>
      </trkpt>
      <trkpt lat="50.720317829400301" lon="13.22887547314167">
        <ele>444</ele>
        <time>2026-08-29T10:57:51Z</time>
      </trkpt>
      <trkpt lat="50.720328558236361" lon="13.228875724598765">
        <ele>444</ele>
        <time>2026-08-29T10:57:52Z</time>
      </trkpt>
      <trkpt lat="50.720337443053722" lon="13.228870779275894">
        <ele>443</ele>
        <time>2026-08-29T10:57:53Z</time>
      </trkpt>
      <trkpt lat="50.720350770279765" lon="13.228870192542672">
        <ele>443</ele>
        <time>2026-08-29T10:57:54Z</time>
      </trkpt>
      <trkpt lat="50.720369881018996" lon="13.228865414857864">
        <ele>442</ele>
        <time>2026-08-29T10:57:55Z</time>
      </trkpt>
      <trkpt lat="50.720383962616324" lon="13.228864073753357">
        <ele>442</ele>
        <time>2026-08-29T10:57:56Z</time>
      </trkpt>
      <trkpt lat="50.720400642603636" lon="13.228855859488249">
        <ele>442</ele>
        <time>2026-08-29T10:57:57Z</time>
      </trkpt>
      <trkpt lat="50.720418328419328" lon="13.228848651051521">
        <ele>442</ele>
        <time>2026-08-29T10:57:58Z</time>
      </trkpt>
      <trkpt lat="50.720440791919827" lon="13.228834066540003">
        <ele>442</ele>
        <time>2026-08-29T10:57:59Z</time>
      </trkpt>
      <trkpt lat="50.720464177429676" lon="13.228826522827148">
        <ele>442</ele>
        <time>2026-08-29T10:58:00Z</time>
      </trkpt>
      <trkpt lat="50.720485718920827" lon="13.228806238621473">
        <ele>442</ele>
        <time>2026-08-29T10:58:01Z</time>
      </trkpt>
      <trkpt lat="50.720496028661728" lon="13.228776566684246">
        <ele>441</ele>
        <time>2026-08-29T10:58:02Z</time>
      </trkpt>
      <trkpt lat="50.720514887943864" lon="13.22872837074101">
        <ele>441</ele>
        <time>2026-08-29T10:58:03Z</time>
      </trkpt>
      <trkpt lat="50.720533747226" lon="13.228669529780746">
        <ele>441</ele>
        <time>2026-08-29T10:58:04Z</time>
      </trkpt>
      <trkpt lat="50.720553109422326" lon="13.228610437363386">
        <ele>441</ele>
        <time>2026-08-29T10:58:05Z</time>
      </trkpt>
      <trkpt lat="50.720573142170906" lon="13.228560229763389">
        <ele>441</ele>
        <time>2026-08-29T10:58:06Z</time>
      </trkpt>
      <trkpt lat="50.720585882663727" lon="13.228512704372406">
        <ele>440</ele>
        <time>2026-08-29T10:58:07Z</time>
      </trkpt>
      <trkpt lat="50.720601221546531" lon="13.228471968322992">
        <ele>440</ele>
        <time>2026-08-29T10:58:08Z</time>
      </trkpt>
      <trkpt lat="50.720625780522823" lon="13.228426035493612">
        <ele>440</ele>
        <time>2026-08-29T10:58:09Z</time>
      </trkpt>
      <trkpt lat="50.720658302307129" lon="13.228383036330342">
        <ele>440</ele>
        <time>2026-08-29T10:58:10Z</time>
      </trkpt>
      <trkpt lat="50.720699708908796" lon="13.228318830952048">
        <ele>440</ele>
        <time>2026-08-29T10:58:11Z</time>
      </trkpt>
      <trkpt lat="50.720735499635339" lon="13.228280525654554">
        <ele>439</ele>
        <time>2026-08-29T10:58:12Z</time>
      </trkpt>
      <trkpt lat="50.720776151865721" lon="13.228274658322334">
        <ele>439</ele>
        <time>2026-08-29T10:58:13Z</time>
      </trkpt>
      <trkpt lat="50.720813954249024" lon="13.228256804868579">
        <ele>440</ele>
        <time>2026-08-29T10:58:14Z</time>
      </trkpt>
      <trkpt lat="50.720824599266052" lon="13.228247836232185">
        <ele>439</ele>
        <time>2026-08-29T10:58:15Z</time>
      </trkpt>
      <trkpt lat="50.720817390829325" lon="13.228241298347712">
        <ele>440</ele>
        <time>2026-08-29T10:58:16Z</time>
      </trkpt>
      <trkpt lat="50.720815295353532" lon="13.228236269205809">
        <ele>440</ele>
        <time>2026-08-29T10:58:17Z</time>
      </trkpt>
      <trkpt lat="50.720815882086754" lon="13.228241633623838">
        <ele>440</ele>
        <time>2026-08-29T10:58:18Z</time>
      </trkpt>
      <trkpt lat="50.720816049724817" lon="13.22824222035706">
        <ele>440</ele>
        <time>2026-08-29T10:58:19Z</time>
      </trkpt>
      <trkpt lat="50.720815630629659" lon="13.228243729099631">
        <ele>440</ele>
        <time>2026-08-29T10:58:20Z</time>
      </trkpt>
      <trkpt lat="50.720807751640677" lon="13.228253368288279">
        <ele>439</ele>
        <time>2026-08-29T10:58:21Z</time>
      </trkpt>
      <trkpt lat="50.720806829631329" lon="13.228253116831183">
        <ele>439</ele>
        <time>2026-08-29T10:58:22Z</time>
      </trkpt>
      <trkpt lat="50.72080641053617" lon="13.228253200650215">
        <ele>439</ele>
        <time>2026-08-29T10:58:23Z</time>
      </trkpt>
      <trkpt lat="50.720805739983916" lon="13.22825345210731">
        <ele>439</ele>
        <time>2026-08-29T10:58:24Z</time>
      </trkpt>
      <trkpt lat="50.720805069431663" lon="13.228253368288279">
        <ele>439</ele>
        <time>2026-08-29T10:58:25Z</time>
      </trkpt>
      <trkpt lat="50.720804566517472" lon="13.228253535926342">
        <ele>439</ele>
        <time>2026-08-29T10:58:26Z</time>
      </trkpt>
      <trkpt lat="50.720804901793599" lon="13.228253955021501">
        <ele>439</ele>
        <time>2026-08-29T10:58:27Z</time>
      </trkpt>
      <trkpt lat="50.720805320888758" lon="13.228255631402135">
        <ele>439</ele>
        <time>2026-08-29T10:58:28Z</time>
      </trkpt>
      <trkpt lat="50.720805320888758" lon="13.228255966678262">
        <ele>439</ele>
        <time>2026-08-29T10:58:29Z</time>
      </trkpt>
      <trkpt lat="50.720805320888758" lon="13.228256553411484">
        <ele>439</ele>
        <time>2026-08-29T10:58:30Z</time>
      </trkpt>
      <trkpt lat="50.720805069431663" lon="13.22825638577342">
        <ele>440</ele>
        <time>2026-08-29T10:58:31Z</time>
      </trkpt>
      <trkpt lat="50.720804147422314" lon="13.228256050497293">
        <ele>440</ele>
        <time>2026-08-29T10:58:32Z</time>
      </trkpt>
      <trkpt lat="50.720798196271062" lon="13.228258900344372">
        <ele>440</ele>
        <time>2026-08-29T10:58:33Z</time>
      </trkpt>
      <trkpt lat="50.720798363909125" lon="13.228262839838862">
        <ele>439</ele>
        <time>2026-08-29T10:58:34Z</time>
      </trkpt>
      <trkpt lat="50.720799872651696" lon="13.228270299732685">
        <ele>439</ele>
        <time>2026-08-29T10:58:35Z</time>
      </trkpt>
      <trkpt lat="50.720800375565886" lon="13.22826468385756">
        <ele>439</ele>
        <time>2026-08-29T10:58:36Z</time>
      </trkpt>
      <trkpt lat="50.720805739983916" lon="13.228259067982435">
        <ele>439</ele>
        <time>2026-08-29T10:58:37Z</time>
      </trkpt>
      <trkpt lat="50.720819905400276" lon="13.228240460157394">
        <ele>439</ele>
        <time>2026-08-29T10:58:38Z</time>
      </trkpt>
      <trkpt lat="50.720844967290759" lon="13.228226043283939">
        <ele>439</ele>
        <time>2026-08-29T10:58:39Z</time>
      </trkpt>
      <trkpt lat="50.720875225961208" lon="13.228228809311986">
        <ele>439</ele>
        <time>2026-08-29T10:58:40Z</time>
      </trkpt>
      <trkpt lat="50.72090607136488" lon="13.228220427408814">
        <ele>439</ele>
        <time>2026-08-29T10:58:41Z</time>
      </trkpt>
      <trkpt lat="50.720943789929152" lon="13.228215146809816">
        <ele>439</ele>
        <time>2026-08-29T10:58:42Z</time>
      </trkpt>
      <trkpt lat="50.720981005579233" lon="13.228203831240535">
        <ele>439</ele>
        <time>2026-08-29T10:58:43Z</time>
      </trkpt>
      <trkpt lat="50.721019646152854" lon="13.228200813755393">
        <ele>438</ele>
        <time>2026-08-29T10:58:44Z</time>
      </trkpt>
      <trkpt lat="50.721047390252352" lon="13.2281987182796">
        <ele>438</ele>
        <time>2026-08-29T10:58:45Z</time>
      </trkpt>
      <trkpt lat="50.721076391637325" lon="13.228189749643207">
        <ele>438</ele>
        <time>2026-08-29T10:58:46Z</time>
      </trkpt>
      <trkpt lat="50.721099860966206" lon="13.228171560913324">
        <ele>438</ele>
        <time>2026-08-29T10:58:47Z</time>
      </trkpt>
      <trkpt lat="50.721135986968875" lon="13.228150689974427">
        <ele>438</ele>
        <time>2026-08-29T10:58:48Z</time>
      </trkpt>
      <trkpt lat="50.721168927848339" lon="13.228124957531691">
        <ele>438</ele>
        <time>2026-08-29T10:58:49Z</time>
      </trkpt>
      <trkpt lat="50.721212429925799" lon="13.228108445182443">
        <ele>438</ele>
        <time>2026-08-29T10:58:50Z</time>
      </trkpt>
      <trkpt lat="50.721250986680388" lon="13.228095034137368">
        <ele>438</ele>
        <time>2026-08-29T10:58:51Z</time>
      </trkpt>
      <trkpt lat="50.72127060033381" lon="13.228096542879939">
        <ele>438</ele>
        <time>2026-08-29T10:58:52Z</time>
      </trkpt>
      <trkpt lat="50.721289208158851" lon="13.228103835135698">
        <ele>438</ele>
        <time>2026-08-29T10:58:53Z</time>
      </trkpt>
      <trkpt lat="50.721307648345828" lon="13.228088663890958">
        <ele>438</ele>
        <time>2026-08-29T10:58:54Z</time>
      </trkpt>
      <trkpt lat="50.721324998885393" lon="13.228087574243546">
        <ele>438</ele>
        <time>2026-08-29T10:58:55Z</time>
      </trkpt>
      <trkpt lat="50.721351401880383" lon="13.228097883984447">
        <ele>438</ele>
        <time>2026-08-29T10:58:56Z</time>
      </trkpt>
      <trkpt lat="50.721369171515107" lon="13.228104338049889">
        <ele>439</ele>
        <time>2026-08-29T10:58:57Z</time>
      </trkpt>
      <trkpt lat="50.721392473205924" lon="13.228103667497635">
        <ele>438</ele>
        <time>2026-08-29T10:58:58Z</time>
      </trkpt>
      <trkpt lat="50.721397418528795" lon="13.22810341604054">
        <ele>438</ele>
        <time>2026-08-29T10:58:59Z</time>
      </trkpt>
      <trkpt lat="50.721406806260347" lon="13.228102996945381">
        <ele>438</ele>
        <time>2026-08-29T10:59:00Z</time>
      </trkpt>
      <trkpt lat="50.721421977505088" lon="13.228099476546049">
        <ele>438</ele>
        <time>2026-08-29T10:59:01Z</time>
      </trkpt>
      <trkpt lat="50.721444860100746" lon="13.228097967803478">
        <ele>438</ele>
        <time>2026-08-29T10:59:02Z</time>
      </trkpt>
      <trkpt lat="50.721471849828959" lon="13.228089585900307">
        <ele>438</ele>
        <time>2026-08-29T10:59:03Z</time>
      </trkpt>
      <trkpt lat="50.721486769616604" lon="13.228077264502645">
        <ele>438</ele>
        <time>2026-08-29T10:59:04Z</time>
      </trkpt>
      <trkpt lat="50.721499845385551" lon="13.228062763810158">
        <ele>438</ele>
        <time>2026-08-29T10:59:05Z</time>
      </trkpt>
      <trkpt lat="50.721523398533463" lon="13.228058405220509">
        <ele>438</ele>
        <time>2026-08-29T10:59:06Z</time>
      </trkpt>
      <trkpt lat="50.721538821235299" lon="13.228057231754065">
        <ele>438</ele>
        <time>2026-08-29T10:59:07Z</time>
      </trkpt>
      <trkpt lat="50.721552316099405" lon="13.228039378300309">
        <ele>438</ele>
        <time>2026-08-29T10:59:08Z</time>
      </trkpt>
      <trkpt lat="50.721563631668687" lon="13.22803015820682">
        <ele>438</ele>
        <time>2026-08-29T10:59:09Z</time>
      </trkpt>
      <trkpt lat="50.721574863418937" lon="13.228021189570427">
        <ele>438</ele>
        <time>2026-08-29T10:59:10Z</time>
      </trkpt>
      <trkpt lat="50.721595231443644" lon="13.228004677221179">
        <ele>438</ele>
        <time>2026-08-29T10:59:11Z</time>
      </trkpt>
      <trkpt lat="50.721612414345145" lon="13.227993948385119">
        <ele>438</ele>
        <time>2026-08-29T10:59:12Z</time>
      </trkpt>
      <trkpt lat="50.721632614731789" lon="13.227984895929694">
        <ele>438</ele>
        <time>2026-08-29T10:59:13Z</time>
      </trkpt>
      <trkpt lat="50.721643511205912" lon="13.227963438257575">
        <ele>438</ele>
        <time>2026-08-29T10:59:14Z</time>
      </trkpt>
      <trkpt lat="50.721655916422606" lon="13.227950949221849">
        <ele>438</ele>
        <time>2026-08-29T10:59:15Z</time>
      </trkpt>
      <trkpt lat="50.721668740734458" lon="13.227938795462251">
        <ele>438</ele>
        <time>2026-08-29T10:59:16Z</time>
      </trkpt>
      <trkpt lat="50.721673769876361" lon="13.227927898988128">
        <ele>438</ele>
        <time>2026-08-29T10:59:17Z</time>
      </trkpt>
      <trkpt lat="50.721688522025943" lon="13.227918343618512">
        <ele>439</ele>
        <time>2026-08-29T10:59:18Z</time>
      </trkpt>
      <trkpt lat="50.721696568652987" lon="13.227908788248897">
        <ele>439</ele>
        <time>2026-08-29T10:59:19Z</time>
      </trkpt>
      <trkpt lat="50.721704447641969" lon="13.227905686944723">
        <ele>439</ele>
        <time>2026-08-29T10:59:20Z</time>
      </trkpt>
      <trkpt lat="50.721710398793221" lon="13.227907950058579">
        <ele>439</ele>
        <time>2026-08-29T10:59:21Z</time>
      </trkpt>
      <trkpt lat="50.721721798181534" lon="13.227892694994807">
        <ele>439</ele>
        <time>2026-08-29T10:59:22Z</time>
      </trkpt>
      <trkpt lat="50.721732191741467" lon="13.22787475772202">
        <ele>439</ele>
        <time>2026-08-29T10:59:23Z</time>
      </trkpt>
      <trkpt lat="50.721738897264004" lon="13.227863693609834">
        <ele>439</ele>
        <time>2026-08-29T10:59:24Z</time>
      </trkpt>
      <trkpt lat="50.721745602786541" lon="13.227861011400819">
        <ele>439</ele>
        <time>2026-08-29T10:59:25Z</time>
      </trkpt>
      <trkpt lat="50.721753900870681" lon="13.227840978652239">
        <ele>439</ele>
        <time>2026-08-29T10:59:26Z</time>
      </trkpt>
      <trkpt lat="50.721769072115421" lon="13.227819856256247">
        <ele>438</ele>
        <time>2026-08-29T10:59:27Z</time>
      </trkpt>
      <trkpt lat="50.72179296053946" lon="13.227794542908669">
        <ele>437</ele>
        <time>2026-08-29T10:59:28Z</time>
      </trkpt>
      <trkpt lat="50.721807880327106" lon="13.227766631171107">
        <ele>438</ele>
        <time>2026-08-29T10:59:29Z</time>
      </trkpt>
      <trkpt lat="50.721816681325436" lon="13.227739138528705">
        <ele>438</ele>
        <time>2026-08-29T10:59:30Z</time>
      </trkpt>
      <trkpt lat="50.721836211159825" lon="13.227712651714683">
        <ele>438</ele>
        <time>2026-08-29T10:59:31Z</time>
      </trkpt>
      <trkpt lat="50.721860351040959" lon="13.227686081081629">
        <ele>438</ele>
        <time>2026-08-29T10:59:32Z</time>
      </trkpt>
      <trkpt lat="50.721885748207569" lon="13.227663282305002">
        <ele>438</ele>
        <time>2026-08-29T10:59:33Z</time>
      </trkpt>
      <trkpt lat="50.721906032413244" lon="13.22763972915709">
        <ele>438</ele>
        <time>2026-08-29T10:59:34Z</time>
      </trkpt>
      <trkpt lat="50.721920281648636" lon="13.227616176009178">
        <ele>438</ele>
        <time>2026-08-29T10:59:35Z</time>
      </trkpt>
      <trkpt lat="50.721928328275681" lon="13.227599328383803">
        <ele>437</ele>
        <time>2026-08-29T10:59:36Z</time>
      </trkpt>
      <trkpt lat="50.721942158415914" lon="13.227581055834889">
        <ele>437</ele>
        <time>2026-08-29T10:59:37Z</time>
      </trkpt>
      <trkpt lat="50.721951127052307" lon="13.2275649625808">
        <ele>437</ele>
        <time>2026-08-29T10:59:38Z</time>
      </trkpt>
      <trkpt lat="50.721961101517081" lon="13.227542163804173">
        <ele>437</ele>
        <time>2026-08-29T10:59:39Z</time>
      </trkpt>
      <trkpt lat="50.721969902515411" lon="13.227521711960435">
        <ele>438</ele>
        <time>2026-08-29T10:59:40Z</time>
      </trkpt>
      <trkpt lat="50.721984403207898" lon="13.227508887648582">
        <ele>438</ele>
        <time>2026-08-29T10:59:41Z</time>
      </trkpt>
      <trkpt lat="50.721994210034609" lon="13.227488435804844">
        <ele>438</ele>
        <time>2026-08-29T10:59:42Z</time>
      </trkpt>
      <trkpt lat="50.722001418471336" lon="13.227463206276298">
        <ele>438</ele>
        <time>2026-08-29T10:59:43Z</time>
      </trkpt>
      <trkpt lat="50.722011476755142" lon="13.227440239861608">
        <ele>438</ele>
        <time>2026-08-29T10:59:44Z</time>
      </trkpt>
      <trkpt lat="50.722018769010901" lon="13.227420877665281">
        <ele>438</ele>
        <time>2026-08-29T10:59:45Z</time>
      </trkpt>
      <trkpt lat="50.72202555835247" lon="13.227400006726384">
        <ele>438</ele>
        <time>2026-08-29T10:59:46Z</time>
      </trkpt>
      <trkpt lat="50.722041148692369" lon="13.227378129959106">
        <ele>438</ele>
        <time>2026-08-29T10:59:47Z</time>
      </trkpt>
      <trkpt lat="50.722054727375507" lon="13.227341501042247">
        <ele>437</ele>
        <time>2026-08-29T10:59:48Z</time>
      </trkpt>
      <trkpt lat="50.722066042944789" lon="13.227295819669962">
        <ele>438</ele>
        <time>2026-08-29T10:59:49Z</time>
      </trkpt>
      <trkpt lat="50.722079370170832" lon="13.227256340906024">
        <ele>437</ele>
        <time>2026-08-29T10:59:50Z</time>
      </trkpt>
      <trkpt lat="50.722092110663652" lon="13.227217448875308">
        <ele>437</ele>
        <time>2026-08-29T10:59:51Z</time>
      </trkpt>
      <trkpt lat="50.722103174775839" lon="13.227190962061286">
        <ele>436</ele>
        <time>2026-08-29T10:59:52Z</time>
      </trkpt>
      <trkpt lat="50.722117088735104" lon="13.227159027010202">
        <ele>436</ele>
        <time>2026-08-29T10:59:53Z</time>
      </trkpt>
      <trkpt lat="50.722132930532098" lon="13.227127091959119">
        <ele>436</ele>
        <time>2026-08-29T10:59:54Z</time>
      </trkpt>
      <trkpt lat="50.722145419567823" lon="13.227084930986166">
        <ele>436</ele>
        <time>2026-08-29T10:59:55Z</time>
      </trkpt>
      <trkpt lat="50.722166206687689" lon="13.227031202986836">
        <ele>435</ele>
        <time>2026-08-29T10:59:56Z</time>
      </trkpt>
      <trkpt lat="50.722191017121077" lon="13.226980743929744">
        <ele>435</ele>
        <time>2026-08-29T10:59:57Z</time>
      </trkpt>
      <trkpt lat="50.722225299105048" lon="13.226927602663636">
        <ele>435</ele>
        <time>2026-08-29T10:59:58Z</time>
      </trkpt>
      <trkpt lat="50.722255809232593" lon="13.226860044524074">
        <ele>434</ele>
        <time>2026-08-29T10:59:59Z</time>
      </trkpt>
      <trkpt lat="50.722282296046615" lon="13.226817045360804">
        <ele>434</ele>
        <time>2026-08-29T11:00:00Z</time>
      </trkpt>
      <trkpt lat="50.72230601683259" lon="13.226761054247618">
        <ele>434</ele>
        <time>2026-08-29T11:00:01Z</time>
      </trkpt>
      <trkpt lat="50.722331162542105" lon="13.226717300713062">
        <ele>434</ele>
        <time>2026-08-29T11:00:02Z</time>
      </trkpt>
      <trkpt lat="50.72235538624227" lon="13.226678827777505">
        <ele>433</ele>
        <time>2026-08-29T11:00:03Z</time>
      </trkpt>
      <trkpt lat="50.722368881106377" lon="13.226648569107056">
        <ele>433</ele>
        <time>2026-08-29T11:00:04Z</time>
      </trkpt>
      <trkpt lat="50.722386818379164" lon="13.22660724632442">
        <ele>434</ele>
        <time>2026-08-29T11:00:05Z</time>
      </trkpt>
      <trkpt lat="50.722414562478662" lon="13.226570198312402">
        <ele>434</ele>
        <time>2026-08-29T11:00:06Z</time>
      </trkpt>
      <trkpt lat="50.722442390397191" lon="13.226515632122755">
        <ele>433</ele>
        <time>2026-08-29T11:00:07Z</time>
      </trkpt>
      <trkpt lat="50.722456891089678" lon="13.226470286026597">
        <ele>433</ele>
        <time>2026-08-29T11:00:08Z</time>
      </trkpt>
      <trkpt lat="50.722480360418558" lon="13.226441368460655">
        <ele>433</ele>
        <time>2026-08-29T11:00:09Z</time>
      </trkpt>
      <trkpt lat="50.722512630745769" lon="13.226415384560823">
        <ele>433</ele>
        <time>2026-08-29T11:00:10Z</time>
      </trkpt>
      <trkpt lat="50.722544398158789" lon="13.226395016536117">
        <ele>433</ele>
        <time>2026-08-29T11:00:11Z</time>
      </trkpt>
      <trkpt lat="50.722569711506367" lon="13.226364338770509">
        <ele>433</ele>
        <time>2026-08-29T11:00:12Z</time>
      </trkpt>
      <trkpt lat="50.722583457827568" lon="13.226332990452647">
        <ele>433</ele>
        <time>2026-08-29T11:00:13Z</time>
      </trkpt>
      <trkpt lat="50.722591588273644" lon="13.226304491981864">
        <ele>433</ele>
        <time>2026-08-29T11:00:14Z</time>
      </trkpt>
      <trkpt lat="50.722603239119053" lon="13.226281357929111">
        <ele>432</ele>
        <time>2026-08-29T11:00:15Z</time>
      </trkpt>
      <trkpt lat="50.722615057602525" lon="13.226251350715756">
        <ele>432</ele>
        <time>2026-08-29T11:00:16Z</time>
      </trkpt>
      <trkpt lat="50.722628552466631" lon="13.226222181692719">
        <ele>432</ele>
        <time>2026-08-29T11:00:17Z</time>
      </trkpt>
      <trkpt lat="50.722648082301021" lon="13.226177841424942">
        <ele>433</ele>
        <time>2026-08-29T11:00:18Z</time>
      </trkpt>
      <trkpt lat="50.722664091736078" lon="13.226128555834293">
        <ele>433</ele>
        <time>2026-08-29T11:00:19Z</time>
      </trkpt>
      <trkpt lat="50.7226871419698" lon="13.226072816178203">
        <ele>433</ele>
        <time>2026-08-29T11:00:20Z</time>
      </trkpt>
      <trkpt lat="50.722715556621552" lon="13.226035600528121">
        <ele>433</ele>
        <time>2026-08-29T11:00:21Z</time>
      </trkpt>
      <trkpt lat="50.722739528864622" lon="13.225994361564517">
        <ele>433</ele>
        <time>2026-08-29T11:00:22Z</time>
      </trkpt>
      <trkpt lat="50.722760399803519" lon="13.225942477583885">
        <ele>432</ele>
        <time>2026-08-29T11:00:23Z</time>
      </trkpt>
      <trkpt lat="50.722779594361782" lon="13.225910123437643">
        <ele>433</ele>
        <time>2026-08-29T11:00:24Z</time>
      </trkpt>
      <trkpt lat="50.722794681787491" lon="13.225895203649998">
        <ele>432</ele>
        <time>2026-08-29T11:00:25Z</time>
      </trkpt>
      <trkpt lat="50.722802979871631" lon="13.225874332711101">
        <ele>432</ele>
        <time>2026-08-29T11:00:26Z</time>
      </trkpt>
      <trkpt lat="50.72281857021153" lon="13.225860251113772">
        <ele>432</ele>
        <time>2026-08-29T11:00:27Z</time>
      </trkpt>
      <trkpt lat="50.722824269905686" lon="13.225842649117112">
        <ele>432</ele>
        <time>2026-08-29T11:00:28Z</time>
      </trkpt>
      <trkpt lat="50.722830388695002" lon="13.225807277485728">
        <ele>433</ele>
        <time>2026-08-29T11:00:29Z</time>
      </trkpt>
      <trkpt lat="50.722828879952431" lon="13.22579512372613">
        <ele>433</ele>
        <time>2026-08-29T11:00:30Z</time>
      </trkpt>
      <trkpt lat="50.722835166379809" lon="13.225772827863693">
        <ele>432</ele>
        <time>2026-08-29T11:00:31Z</time>
      </trkpt>
      <trkpt lat="50.722829131409526" lon="13.225748520344496">
        <ele>432</ele>
        <time>2026-08-29T11:00:32Z</time>
      </trkpt>
      <trkpt lat="50.722840279340744" lon="13.225709712132812">
        <ele>433</ele>
        <time>2026-08-29T11:00:33Z</time>
      </trkpt>
      <trkpt lat="50.722842626273632" lon="13.225702922791243">
        <ele>434</ele>
        <time>2026-08-29T11:00:34Z</time>
      </trkpt>
      <trkpt lat="50.722844218835235" lon="13.225698983296752">
        <ele>435</ele>
        <time>2026-08-29T11:00:35Z</time>
      </trkpt>
      <trkpt lat="50.722849080339074" lon="13.225696887820959">
        <ele>435</ele>
        <time>2026-08-29T11:00:36Z</time>
      </trkpt>
      <trkpt lat="50.722856959328055" lon="13.225692613050342">
        <ele>436</ele>
        <time>2026-08-29T11:00:37Z</time>
      </trkpt>
      <trkpt lat="50.722863497212529" lon="13.225679704919457">
        <ele>436</ele>
        <time>2026-08-29T11:00:38Z</time>
      </trkpt>
      <trkpt lat="50.722866514697671" lon="13.225658582523465">
        <ele>436</ele>
        <time>2026-08-29T11:00:39Z</time>
      </trkpt>
      <trkpt lat="50.722862910479307" lon="13.225645255297422">
        <ele>437</ele>
        <time>2026-08-29T11:00:40Z</time>
      </trkpt>
      <trkpt lat="50.722862407565117" lon="13.22563243098557">
        <ele>438</ele>
        <time>2026-08-29T11:00:41Z</time>
      </trkpt>
      <trkpt lat="50.722871292382479" lon="13.225610889494419">
        <ele>438</ele>
        <time>2026-08-29T11:00:42Z</time>
      </trkpt>
      <trkpt lat="50.72287430986762" lon="13.225592533126473">
        <ele>438</ele>
        <time>2026-08-29T11:00:43Z</time>
      </trkpt>
      <trkpt lat="50.722881769761443" lon="13.225585995242">
        <ele>438</ele>
        <time>2026-08-29T11:00:44Z</time>
      </trkpt>
      <trkpt lat="50.722877411171794" lon="13.225572081282735">
        <ele>438</ele>
        <time>2026-08-29T11:00:45Z</time>
      </trkpt>
      <trkpt lat="50.722877997905016" lon="13.225559676066041">
        <ele>439</ele>
        <time>2026-08-29T11:00:46Z</time>
      </trkpt>
      <trkpt lat="50.722882188856602" lon="13.225546265020967">
        <ele>439</ele>
        <time>2026-08-29T11:00:47Z</time>
      </trkpt>
      <trkpt lat="50.722879255190492" lon="13.225533859804273">
        <ele>439</ele>
        <time>2026-08-29T11:00:48Z</time>
      </trkpt>
      <trkpt lat="50.722878081724048" lon="13.225521286949515">
        <ele>439</ele>
        <time>2026-08-29T11:00:49Z</time>
      </trkpt>
      <trkpt lat="50.722883362323046" lon="13.225507037714124">
        <ele>439</ele>
        <time>2026-08-29T11:00:50Z</time>
      </trkpt>
      <trkpt lat="50.722888391464949" lon="13.225497398525476">
        <ele>439</ele>
        <time>2026-08-29T11:00:51Z</time>
      </trkpt>
      <trkpt lat="50.722882188856602" lon="13.225487256422639">
        <ele>439</ele>
        <time>2026-08-29T11:00:52Z</time>
      </trkpt>
      <trkpt lat="50.722877494990826" lon="13.225488429889083">
        <ele>439</ele>
        <time>2026-08-29T11:00:53Z</time>
      </trkpt>
      <trkpt lat="50.722880009561777" lon="13.225492537021637">
        <ele>438</ele>
        <time>2026-08-29T11:00:54Z</time>
      </trkpt>
      <trkpt lat="50.722878500819206" lon="13.225473510101438">
        <ele>438</ele>
        <time>2026-08-29T11:00:55Z</time>
      </trkpt>
      <trkpt lat="50.722876908257604" lon="13.225467391312122">
        <ele>438</ele>
        <time>2026-08-29T11:00:56Z</time>
      </trkpt>
      <trkpt lat="50.722875902429223" lon="13.225472839549184">
        <ele>438</ele>
        <time>2026-08-29T11:00:57Z</time>
      </trkpt>
      <trkpt lat="50.722876572981477" lon="13.225472755730152">
        <ele>438</ele>
        <time>2026-08-29T11:00:58Z</time>
      </trkpt>
      <trkpt lat="50.722882188856602" lon="13.225470157340169">
        <ele>438</ele>
        <time>2026-08-29T11:00:59Z</time>
      </trkpt>
      <trkpt lat="50.722882272675633" lon="13.225469905883074">
        <ele>438</ele>
        <time>2026-08-29T11:01:00Z</time>
      </trkpt>
      <trkpt lat="50.722882272675633" lon="13.2254599314183">
        <ele>439</ele>
        <time>2026-08-29T11:01:01Z</time>
      </trkpt>
      <trkpt lat="50.72288847528398" lon="13.225473007187247">
        <ele>438</ele>
        <time>2026-08-29T11:01:02Z</time>
      </trkpt>
      <trkpt lat="50.722883613780141" lon="13.22547166608274">
        <ele>439</ele>
        <time>2026-08-29T11:01:03Z</time>
      </trkpt>
      <trkpt lat="50.722884787246585" lon="13.225461523979902">
        <ele>439</ele>
        <time>2026-08-29T11:01:04Z</time>
      </trkpt>
      <trkpt lat="50.722886128351092" lon="13.225459093227983">
        <ele>440</ele>
        <time>2026-08-29T11:01:05Z</time>
      </trkpt>
      <trkpt lat="50.722890319302678" lon="13.225461943075061">
        <ele>440</ele>
        <time>2026-08-29T11:01:06Z</time>
      </trkpt>
      <trkpt lat="50.722892666235566" lon="13.225458674132824">
        <ele>439</ele>
        <time>2026-08-29T11:01:07Z</time>
      </trkpt>
      <trkpt lat="50.722892750054598" lon="13.225459093227983">
        <ele>439</ele>
        <time>2026-08-29T11:01:08Z</time>
      </trkpt>
      <trkpt lat="50.722892917692661" lon="13.225459679961205">
        <ele>439</ele>
        <time>2026-08-29T11:01:09Z</time>
      </trkpt>
      <trkpt lat="50.722897863015532" lon="13.225456075742841">
        <ele>439</ele>
        <time>2026-08-29T11:01:10Z</time>
      </trkpt>
      <trkpt lat="50.722898030653596" lon="13.225455991923809">
        <ele>439</ele>
        <time>2026-08-29T11:01:11Z</time>
      </trkpt>
      <trkpt lat="50.722898030653596" lon="13.225455991923809">
        <ele>439</ele>
        <time>2026-08-29T11:01:12Z</time>
      </trkpt>
      <trkpt lat="50.722898114472628" lon="13.225455991923809">
        <ele>439</ele>
        <time>2026-08-29T11:01:13Z</time>
      </trkpt>
      <trkpt lat="50.722898282110691" lon="13.225455740466714">
        <ele>439</ele>
        <time>2026-08-29T11:01:14Z</time>
      </trkpt>
      <trkpt lat="50.722898365929723" lon="13.225455321371555">
        <ele>439</ele>
        <time>2026-08-29T11:01:15Z</time>
      </trkpt>
      <trkpt lat="50.722898449748755" lon="13.225454986095428">
        <ele>439</ele>
        <time>2026-08-29T11:01:16Z</time>
      </trkpt>
      <trkpt lat="50.722898365929723" lon="13.225454818457365">
        <ele>439</ele>
        <time>2026-08-29T11:01:17Z</time>
      </trkpt>
      <trkpt lat="50.722898449748755" lon="13.225454818457365">
        <ele>439</ele>
        <time>2026-08-29T11:01:18Z</time>
      </trkpt>
      <trkpt lat="50.722898449748755" lon="13.225454734638333">
        <ele>439</ele>
        <time>2026-08-29T11:01:19Z</time>
      </trkpt>
      <trkpt lat="50.722898449748755" lon="13.225454650819302">
        <ele>439</ele>
        <time>2026-08-29T11:01:20Z</time>
      </trkpt>
      <trkpt lat="50.722897527739406" lon="13.22544677183032">
        <ele>439</ele>
        <time>2026-08-29T11:01:21Z</time>
      </trkpt>
      <trkpt lat="50.722897779196501" lon="13.225445514544845">
        <ele>439</ele>
        <time>2026-08-29T11:01:22Z</time>
      </trkpt>
      <trkpt lat="50.722897863015532" lon="13.225445263087749">
        <ele>439</ele>
        <time>2026-08-29T11:01:23Z</time>
      </trkpt>
      <trkpt lat="50.722898030653596" lon="13.225444927811623">
        <ele>439</ele>
        <time>2026-08-29T11:01:24Z</time>
      </trkpt>
      <trkpt lat="50.722898114472628" lon="13.225444927811623">
        <ele>439</ele>
        <time>2026-08-29T11:01:25Z</time>
      </trkpt>
      <trkpt lat="50.722898198291659" lon="13.225444508716464">
        <ele>439</ele>
        <time>2026-08-29T11:01:26Z</time>
      </trkpt>
      <trkpt lat="50.722898282110691" lon="13.225444592535496">
        <ele>439</ele>
        <time>2026-08-29T11:01:27Z</time>
      </trkpt>
      <trkpt lat="50.722901551052928" lon="13.225433276966214">
        <ele>439</ele>
        <time>2026-08-29T11:01:28Z</time>
      </trkpt>
      <trkpt lat="50.722901551052928" lon="13.225421961396933">
        <ele>438</ele>
        <time>2026-08-29T11:01:29Z</time>
      </trkpt>
      <trkpt lat="50.722903562709689" lon="13.225414250046015">
        <ele>438</ele>
        <time>2026-08-29T11:01:30Z</time>
      </trkpt>
      <trkpt lat="50.722909262403846" lon="13.225405784323812">
        <ele>437</ele>
        <time>2026-08-29T11:01:31Z</time>
      </trkpt>
      <trkpt lat="50.722909346222878" lon="13.225406035780907">
        <ele>437</ele>
        <time>2026-08-29T11:01:32Z</time>
      </trkpt>
      <trkpt lat="50.722909430041909" lon="13.22540620341897">
        <ele>437</ele>
        <time>2026-08-29T11:01:33Z</time>
      </trkpt>
      <trkpt lat="50.722909597679973" lon="13.225406371057034">
        <ele>437</ele>
        <time>2026-08-29T11:01:34Z</time>
      </trkpt>
      <trkpt lat="50.722914962098002" lon="13.225408885627985">
        <ele>437</ele>
        <time>2026-08-29T11:01:35Z</time>
      </trkpt>
      <trkpt lat="50.722915129736066" lon="13.225408717989922">
        <ele>437</ele>
        <time>2026-08-29T11:01:36Z</time>
      </trkpt>
      <trkpt lat="50.722914878278971" lon="13.225407544523478">
        <ele>437</ele>
        <time>2026-08-29T11:01:37Z</time>
      </trkpt>
      <trkpt lat="50.722914878278971" lon="13.225407460704446">
        <ele>437</ele>
        <time>2026-08-29T11:01:38Z</time>
      </trkpt>
      <trkpt lat="50.722914459183812" lon="13.225407041609287">
        <ele>437</ele>
        <time>2026-08-29T11:01:39Z</time>
      </trkpt>
      <trkpt lat="50.722914207726717" lon="13.225407041609287">
        <ele>437</ele>
        <time>2026-08-29T11:01:40Z</time>
      </trkpt>
      <trkpt lat="50.722914040088654" lon="13.225407209247351">
        <ele>437</ele>
        <time>2026-08-29T11:01:41Z</time>
      </trkpt>
      <trkpt lat="50.722914291545749" lon="13.225407963618636">
        <ele>437</ele>
        <time>2026-08-29T11:01:42Z</time>
      </trkpt>
      <trkpt lat="50.722914291545749" lon="13.225407963618636">
        <ele>437</ele>
        <time>2026-08-29T11:01:43Z</time>
      </trkpt>
      <trkpt lat="50.722914040088654" lon="13.225407795980573">
        <ele>437</ele>
        <time>2026-08-29T11:01:44Z</time>
      </trkpt>
      <trkpt lat="50.722914459183812" lon="13.225412406027317">
        <ele>437</ele>
        <time>2026-08-29T11:01:45Z</time>
      </trkpt>
      <trkpt lat="50.72291144169867" lon="13.225420787930489">
        <ele>437</ele>
        <time>2026-08-29T11:01:46Z</time>
      </trkpt>
      <trkpt lat="50.722909346222878" lon="13.225420536473393">
        <ele>438</ele>
        <time>2026-08-29T11:01:47Z</time>
      </trkpt>
      <trkpt lat="50.722905490547419" lon="13.225424140691757">
        <ele>438</ele>
        <time>2026-08-29T11:01:48Z</time>
      </trkpt>
      <trkpt lat="50.722905322909355" lon="13.225424140691757">
        <ele>438</ele>
        <time>2026-08-29T11:01:49Z</time>
      </trkpt>
      <trkpt lat="50.722905406728387" lon="13.225425314158201">
        <ele>438</ele>
        <time>2026-08-29T11:01:50Z</time>
      </trkpt>
      <trkpt lat="50.722905322909355" lon="13.225425314158201">
        <ele>438</ele>
        <time>2026-08-29T11:01:51Z</time>
      </trkpt>
      <trkpt lat="50.722901802510023" lon="13.225415926426649">
        <ele>438</ele>
        <time>2026-08-29T11:01:52Z</time>
      </trkpt>
      <trkpt lat="50.72290456853807" lon="13.225412238389254">
        <ele>438</ele>
        <time>2026-08-29T11:01:53Z</time>
      </trkpt>
      <trkpt lat="50.722912615165114" lon="13.225417267531157">
        <ele>437</ele>
        <time>2026-08-29T11:01:54Z</time>
      </trkpt>
      <trkpt lat="50.722913285717368" lon="13.225414082407951">
        <ele>438</ele>
        <time>2026-08-29T11:01:55Z</time>
      </trkpt>
      <trkpt lat="50.722914543002844" lon="13.225396731868386">
        <ele>438</ele>
        <time>2026-08-29T11:01:56Z</time>
      </trkpt>
      <trkpt lat="50.722916638478637" lon="13.225385332480073">
        <ele>438</ele>
        <time>2026-08-29T11:01:57Z</time>
      </trkpt>
      <trkpt lat="50.722912698984146" lon="13.225381309166551">
        <ele>438</ele>
        <time>2026-08-29T11:01:58Z</time>
      </trkpt>
      <trkpt lat="50.722917728126049" lon="13.225369658321142">
        <ele>438</ele>
        <time>2026-08-29T11:01:59Z</time>
      </trkpt>
      <trkpt lat="50.722924936562777" lon="13.225355073809624">
        <ele>438</ele>
        <time>2026-08-29T11:02:00Z</time>
      </trkpt>
      <trkpt lat="50.722929798066616" lon="13.225350128486753">
        <ele>438</ele>
        <time>2026-08-29T11:02:01Z</time>
      </trkpt>
      <trkpt lat="50.722931139171124" lon="13.225338226184249">
        <ele>439</ele>
        <time>2026-08-29T11:02:02Z</time>
      </trkpt>
      <trkpt lat="50.722932647913694" lon="13.22532850317657">
        <ele>440</ele>
        <time>2026-08-29T11:02:03Z</time>
      </trkpt>
      <trkpt lat="50.722940443083644" lon="13.225315511226654">
        <ele>440</ele>
        <time>2026-08-29T11:02:04Z</time>
      </trkpt>
      <trkpt lat="50.722942622378469" lon="13.225298747420311">
        <ele>441</ele>
        <time>2026-08-29T11:02:05Z</time>
      </trkpt>
      <trkpt lat="50.722944550216198" lon="13.225276535376906">
        <ele>440</ele>
        <time>2026-08-29T11:02:06Z</time>
      </trkpt>
      <trkpt lat="50.722947986796498" lon="13.225255748257041">
        <ele>440</ele>
        <time>2026-08-29T11:02:07Z</time>
      </trkpt>
      <trkpt lat="50.722953351214528" lon="13.225237308070064">
        <ele>440</ele>
        <time>2026-08-29T11:02:08Z</time>
      </trkpt>
      <trkpt lat="50.722962655127048" lon="13.225221550092101">
        <ele>440</ele>
        <time>2026-08-29T11:02:09Z</time>
      </trkpt>
      <trkpt lat="50.722969360649586" lon="13.225207468494773">
        <ele>440</ele>
        <time>2026-08-29T11:02:10Z</time>
      </trkpt>
      <trkpt lat="50.722976820543408" lon="13.225184418261051">
        <ele>440</ele>
        <time>2026-08-29T11:02:11Z</time>
      </trkpt>
      <trkpt lat="50.722980508580804" lon="13.225168995559216">
        <ele>440</ele>
        <time>2026-08-29T11:02:12Z</time>
      </trkpt>
      <trkpt lat="50.722991321235895" lon="13.22514770552516">
        <ele>440</ele>
        <time>2026-08-29T11:02:13Z</time>
      </trkpt>
      <trkpt lat="50.723000541329384" lon="13.225130354985595">
        <ele>440</ele>
        <time>2026-08-29T11:02:14Z</time>
      </trkpt>
      <trkpt lat="50.723007330670953" lon="13.225116860121489">
        <ele>440</ele>
        <time>2026-08-29T11:02:15Z</time>
      </trkpt>
      <trkpt lat="50.723009929060936" lon="13.225099928677082">
        <ele>440</ele>
        <time>2026-08-29T11:02:16Z</time>
      </trkpt>
      <trkpt lat="50.723015628755093" lon="13.225082494318485">
        <ele>440</ele>
        <time>2026-08-29T11:02:17Z</time>
      </trkpt>
      <trkpt lat="50.723018981516361" lon="13.225071094930172">
        <ele>440</ele>
        <time>2026-08-29T11:02:18Z</time>
      </trkpt>
      <trkpt lat="50.723022082820535" lon="13.225062461569905">
        <ele>440</ele>
        <time>2026-08-29T11:02:19Z</time>
      </trkpt>
      <trkpt lat="50.723029039800167" lon="13.225047709420323">
        <ele>440</ele>
        <time>2026-08-29T11:02:20Z</time>
      </trkpt>
      <trkpt lat="50.723029710352421" lon="13.225039411336184">
        <ele>439</ele>
        <time>2026-08-29T11:02:21Z</time>
      </trkpt>
      <trkpt lat="50.723029961809516" lon="13.225024743005633">
        <ele>440</ele>
        <time>2026-08-29T11:02:22Z</time>
      </trkpt>
      <trkpt lat="50.723036248236895" lon="13.225012756884098">
        <ele>441</ele>
        <time>2026-08-29T11:02:23Z</time>
      </trkpt>
      <trkpt lat="50.723040942102671" lon="13.225005548447371">
        <ele>441</ele>
        <time>2026-08-29T11:02:24Z</time>
      </trkpt>
      <trkpt lat="50.723040942102671" lon="13.225004710257053">
        <ele>442</ele>
        <time>2026-08-29T11:02:25Z</time>
      </trkpt>
      <trkpt lat="50.723037337884307" lon="13.22499523870647">
        <ele>443</ele>
        <time>2026-08-29T11:02:26Z</time>
      </trkpt>
      <trkpt lat="50.723039349541068" lon="13.224979816004634">
        <ele>443</ele>
        <time>2026-08-29T11:02:27Z</time>
      </trkpt>
      <trkpt lat="50.723043875768781" lon="13.224962381646037">
        <ele>443</ele>
        <time>2026-08-29T11:02:28Z</time>
      </trkpt>
      <trkpt lat="50.723044378682971" lon="13.224956011399627">
        <ele>443</ele>
        <time>2026-08-29T11:02:29Z</time>
      </trkpt>
      <trkpt lat="50.72304186411202" lon="13.224936733022332">
        <ele>444</ele>
        <time>2026-08-29T11:02:30Z</time>
      </trkpt>
      <trkpt lat="50.723039098083973" lon="13.224921729415655">
        <ele>443</ele>
        <time>2026-08-29T11:02:31Z</time>
      </trkpt>
      <trkpt lat="50.723035661503673" lon="13.224902199581265">
        <ele>442</ele>
        <time>2026-08-29T11:02:32Z</time>
      </trkpt>
      <trkpt lat="50.723036751151085" lon="13.224884010851383">
        <ele>442</ele>
        <time>2026-08-29T11:02:33Z</time>
      </trkpt>
      <trkpt lat="50.723039181903005" lon="13.22487504221499">
        <ele>442</ele>
        <time>2026-08-29T11:02:34Z</time>
      </trkpt>
      <trkpt lat="50.723041277378798" lon="13.224864900112152">
        <ele>442</ele>
        <time>2026-08-29T11:02:35Z</time>
      </trkpt>
      <trkpt lat="50.723041361197829" lon="13.224852913990617">
        <ele>441</ele>
        <time>2026-08-29T11:02:36Z</time>
      </trkpt>
      <trkpt lat="50.723045552149415" lon="13.224833551794291">
        <ele>441</ele>
        <time>2026-08-29T11:02:37Z</time>
      </trkpt>
      <trkpt lat="50.723051251843572" lon="13.224813938140869">
        <ele>441</ele>
        <time>2026-08-29T11:02:38Z</time>
      </trkpt>
      <trkpt lat="50.723058460280299" lon="13.224803712219">
        <ele>441</ele>
        <time>2026-08-29T11:02:39Z</time>
      </trkpt>
      <trkpt lat="50.72306239977479" lon="13.224793653935194">
        <ele>442</ele>
        <time>2026-08-29T11:02:40Z</time>
      </trkpt>
      <trkpt lat="50.723063070327044" lon="13.224770938977599">
        <ele>442</ele>
        <time>2026-08-29T11:02:41Z</time>
      </trkpt>
      <trkpt lat="50.723063070327044" lon="13.224757444113493">
        <ele>442</ele>
        <time>2026-08-29T11:02:42Z</time>
      </trkpt>
      <trkpt lat="50.723067428916693" lon="13.224743781611323">
        <ele>443</ele>
        <time>2026-08-29T11:02:43Z</time>
      </trkpt>
      <trkpt lat="50.723069859668612" lon="13.224734980612993">
        <ele>443</ele>
        <time>2026-08-29T11:02:44Z</time>
      </trkpt>
      <trkpt lat="50.723072290420532" lon="13.224727436900139">
        <ele>443</ele>
        <time>2026-08-29T11:02:45Z</time>
      </trkpt>
      <trkpt lat="50.723074804991484" lon="13.224717630073428">
        <ele>443</ele>
        <time>2026-08-29T11:02:46Z</time>
      </trkpt>
      <trkpt lat="50.723083019256592" lon="13.22470304556191">
        <ele>443</ele>
        <time>2026-08-29T11:02:47Z</time>
      </trkpt>
      <trkpt lat="50.723092071712017" lon="13.224703129380941">
        <ele>443</ele>
        <time>2026-08-29T11:02:48Z</time>
      </trkpt>
      <trkpt lat="50.723102549090981" lon="13.224701033905149">
        <ele>443</ele>
        <time>2026-08-29T11:02:49Z</time>
      </trkpt>
      <trkpt lat="50.723113613203168" lon="13.224695837125182">
        <ele>443</ele>
        <time>2026-08-29T11:02:50Z</time>
      </trkpt>
      <trkpt lat="50.723115541040897" lon="13.224687203764915">
        <ele>444</ele>
        <time>2026-08-29T11:02:51Z</time>
      </trkpt>
      <trkpt lat="50.723122162744403" lon="13.224689131602645">
        <ele>444</ele>
        <time>2026-08-29T11:02:52Z</time>
      </trkpt>
      <trkpt lat="50.723132137209177" lon="13.224672116339207">
        <ele>444</ele>
        <time>2026-08-29T11:02:53Z</time>
      </trkpt>
      <trkpt lat="50.723137585446239" lon="13.224658872932196">
        <ele>444</ele>
        <time>2026-08-29T11:02:54Z</time>
      </trkpt>
      <trkpt lat="50.723138758912683" lon="13.224642612040043">
        <ele>445</ele>
        <time>2026-08-29T11:02:55Z</time>
      </trkpt>
      <trkpt lat="50.72314353659749" lon="13.224640600383282">
        <ele>445</ele>
        <time>2026-08-29T11:02:56Z</time>
      </trkpt>
      <trkpt lat="50.723148062825203" lon="13.224627943709493">
        <ele>444</ele>
        <time>2026-08-29T11:02:57Z</time>
      </trkpt>
      <trkpt lat="50.723158875480294" lon="13.224622495472431">
        <ele>445</ele>
        <time>2026-08-29T11:02:58Z</time>
      </trkpt>
      <trkpt lat="50.723166083917022" lon="13.224617382511497">
        <ele>445</ele>
        <time>2026-08-29T11:02:59Z</time>
      </trkpt>
      <trkpt lat="50.723168598487973" lon="13.22460975497961">
        <ele>445</ele>
        <time>2026-08-29T11:03:00Z</time>
      </trkpt>
      <trkpt lat="50.72317379526794" lon="13.224607240408659">
        <ele>446</ele>
        <time>2026-08-29T11:03:01Z</time>
      </trkpt>
      <trkpt lat="50.723175220191479" lon="13.224598607048392">
        <ele>446</ele>
        <time>2026-08-29T11:03:02Z</time>
      </trkpt>
      <trkpt lat="50.723177315667272" lon="13.224597852677107">
        <ele>446</ele>
        <time>2026-08-29T11:03:03Z</time>
      </trkpt>
      <trkpt lat="50.723169520497322" lon="13.22458678856492">
        <ele>446</ele>
        <time>2026-08-29T11:03:04Z</time>
      </trkpt>
      <trkpt lat="50.723170023411512" lon="13.224580585956573">
        <ele>446</ele>
        <time>2026-08-29T11:03:05Z</time>
      </trkpt>
      <trkpt lat="50.723168011754751" lon="13.224578825756907">
        <ele>446</ele>
        <time>2026-08-29T11:03:06Z</time>
      </trkpt>
      <trkpt lat="50.723162144422531" lon="13.224564241245389">
        <ele>445</ele>
        <time>2026-08-29T11:03:07Z</time>
      </trkpt>
      <trkpt lat="50.723145212978125" lon="13.224542196840048">
        <ele>445</ele>
        <time>2026-08-29T11:03:08Z</time>
      </trkpt>
      <trkpt lat="50.723132640123367" lon="13.224522415548563">
        <ele>445</ele>
        <time>2026-08-29T11:03:09Z</time>
      </trkpt>
      <trkpt lat="50.72312006726861" lon="13.224496683105826">
        <ele>445</ele>
        <time>2026-08-29T11:03:10Z</time>
      </trkpt>
      <trkpt lat="50.7231136970222" lon="13.224462233483791">
        <ele>445</ele>
        <time>2026-08-29T11:03:11Z</time>
      </trkpt>
      <trkpt lat="50.723107242956758" lon="13.224411522969604">
        <ele>445</ele>
        <time>2026-08-29T11:03:12Z</time>
      </trkpt>
      <trkpt lat="50.723103052005172" lon="13.224355448037386">
        <ele>445</ele>
        <time>2026-08-29T11:03:13Z</time>
      </trkpt>
      <trkpt lat="50.723096849396825" lon="13.224292499944568">
        <ele>445</ele>
        <time>2026-08-29T11:03:14Z</time>
      </trkpt>
      <trkpt lat="50.72309710085392" lon="13.22422276251018">
        <ele>445</ele>
        <time>2026-08-29T11:03:15Z</time>
      </trkpt>
      <trkpt lat="50.723098861053586" lon="13.224172303453088">
        <ele>445</ele>
        <time>2026-08-29T11:03:16Z</time>
      </trkpt>
      <trkpt lat="50.72310782968998" lon="13.224117234349251">
        <ele>445</ele>
        <time>2026-08-29T11:03:17Z</time>
      </trkpt>
      <trkpt lat="50.723111350089312" lon="13.224065266549587">
        <ele>444</ele>
        <time>2026-08-29T11:03:18Z</time>
      </trkpt>
      <trkpt lat="50.723111601546407" lon="13.224021680653095">
        <ele>444</ele>
        <time>2026-08-29T11:03:19Z</time>
      </trkpt>
      <trkpt lat="50.723110511898994" lon="13.223980609327555">
        <ele>444</ele>
        <time>2026-08-29T11:03:20Z</time>
      </trkpt>
      <trkpt lat="50.723113780841231" lon="13.223931072279811">
        <ele>444</ele>
        <time>2026-08-29T11:03:21Z</time>
      </trkpt>
      <trkpt lat="50.723121408373117" lon="13.223891844972968">
        <ele>444</ele>
        <time>2026-08-29T11:03:22Z</time>
      </trkpt>
      <trkpt lat="50.723118642345071" lon="13.223874997347593">
        <ele>444</ele>
        <time>2026-08-29T11:03:23Z</time>
      </trkpt>
      <trkpt lat="50.723112942650914" lon="13.223859993740916">
        <ele>444</ele>
        <time>2026-08-29T11:03:24Z</time>
      </trkpt>
      <trkpt lat="50.723110511898994" lon="13.223842643201351">
        <ele>444</ele>
        <time>2026-08-29T11:03:25Z</time>
      </trkpt>
      <trkpt lat="50.723112523555756" lon="13.223822358995676">
        <ele>444</ele>
        <time>2026-08-29T11:03:26Z</time>
      </trkpt>
      <trkpt lat="50.723118558526039" lon="13.223817832767963">
        <ele>443</ele>
        <time>2026-08-29T11:03:27Z</time>
      </trkpt>
      <trkpt lat="50.723117301240563" lon="13.223814060911536">
        <ele>443</ele>
        <time>2026-08-29T11:03:28Z</time>
      </trkpt>
      <trkpt lat="50.723121827468276" lon="13.223815653473139">
        <ele>443</ele>
        <time>2026-08-29T11:03:29Z</time>
      </trkpt>
      <trkpt lat="50.723115792497993" lon="13.22380056604743">
        <ele>443</ele>
        <time>2026-08-29T11:03:30Z</time>
      </trkpt>
      <trkpt lat="50.723110176622868" lon="13.223791178315878">
        <ele>444</ele>
        <time>2026-08-29T11:03:31Z</time>
      </trkpt>
      <trkpt lat="50.723110847175121" lon="13.223770307376981">
        <ele>444</ele>
        <time>2026-08-29T11:03:32Z</time>
      </trkpt>
      <trkpt lat="50.723104309290648" lon="13.223763098940253">
        <ele>444</ele>
        <time>2026-08-29T11:03:33Z</time>
      </trkpt>
      <trkpt lat="50.723104057833552" lon="13.223758991807699">
        <ele>444</ele>
        <time>2026-08-29T11:03:34Z</time>
      </trkpt>
      <trkpt lat="50.723099950700998" lon="13.223753711208701">
        <ele>444</ele>
        <time>2026-08-29T11:03:35Z</time>
      </trkpt>
      <trkpt lat="50.723099950700998" lon="13.223754549399018">
        <ele>444</ele>
        <time>2026-08-29T11:03:36Z</time>
      </trkpt>
      <trkpt lat="50.723096262663603" lon="13.223756980150938">
        <ele>444</ele>
        <time>2026-08-29T11:03:37Z</time>
      </trkpt>
      <trkpt lat="50.723095759749413" lon="13.223759746178985">
        <ele>443</ele>
        <time>2026-08-29T11:03:38Z</time>
      </trkpt>
      <trkpt lat="50.723096011206508" lon="13.223748598247766">
        <ele>443</ele>
        <time>2026-08-29T11:03:39Z</time>
      </trkpt>
      <trkpt lat="50.723098861053586" lon="13.223747676238418">
        <ele>443</ele>
        <time>2026-08-29T11:03:40Z</time>
      </trkpt>
      <trkpt lat="50.723103219643235" lon="13.223744742572308">
        <ele>443</ele>
        <time>2026-08-29T11:03:41Z</time>
      </trkpt>
      <trkpt lat="50.723102381452918" lon="13.223741138353944">
        <ele>443</ele>
        <time>2026-08-29T11:03:42Z</time>
      </trkpt>
      <trkpt lat="50.723100202158093" lon="13.223738372325897">
        <ele>443</ele>
        <time>2026-08-29T11:03:43Z</time>
      </trkpt>
      <trkpt lat="50.723098609596491" lon="13.223738875240088">
        <ele>443</ele>
        <time>2026-08-29T11:03:44Z</time>
      </trkpt>
      <trkpt lat="50.72309760376811" lon="13.223738372325897">
        <ele>443</ele>
        <time>2026-08-29T11:03:45Z</time>
      </trkpt>
      <trkpt lat="50.723091317340732" lon="13.223725631833076">
        <ele>442</ele>
        <time>2026-08-29T11:03:46Z</time>
      </trkpt>
      <trkpt lat="50.72308829985559" lon="13.223712639883161">
        <ele>442</ele>
        <time>2026-08-29T11:03:47Z</time>
      </trkpt>
      <trkpt lat="50.723087377846241" lon="13.223706688731909">
        <ele>442</ele>
        <time>2026-08-29T11:03:48Z</time>
      </trkpt>
      <trkpt lat="50.723086958751082" lon="13.22370383888483">
        <ele>442</ele>
        <time>2026-08-29T11:03:49Z</time>
      </trkpt>
      <trkpt lat="50.723085282370448" lon="13.223687577992678">
        <ele>442</ele>
        <time>2026-08-29T11:03:50Z</time>
      </trkpt>
      <trkpt lat="50.723086707293987" lon="13.223676010966301">
        <ele>443</ele>
        <time>2026-08-29T11:03:51Z</time>
      </trkpt>
      <trkpt lat="50.723091568797827" lon="13.22366863489151">
        <ele>443</ele>
        <time>2026-08-29T11:03:52Z</time>
      </trkpt>
      <trkpt lat="50.723092826083302" lon="13.223667042329907">
        <ele>443</ele>
        <time>2026-08-29T11:03:53Z</time>
      </trkpt>
      <trkpt lat="50.723092742264271" lon="13.223653631284833">
        <ele>443</ele>
        <time>2026-08-29T11:03:54Z</time>
      </trkpt>
      <trkpt lat="50.723089892417192" lon="13.223637202754617">
        <ele>445</ele>
        <time>2026-08-29T11:03:55Z</time>
      </trkpt>
      <trkpt lat="50.723090562969446" lon="13.223627982661128">
        <ele>446</ele>
        <time>2026-08-29T11:03:56Z</time>
      </trkpt>
      <trkpt lat="50.723094418644905" lon="13.223617924377322">
        <ele>446</ele>
        <time>2026-08-29T11:03:57Z</time>
      </trkpt>
      <trkpt lat="50.723095508292317" lon="13.223604932427406">
        <ele>446</ele>
        <time>2026-08-29T11:03:58Z</time>
      </trkpt>
      <trkpt lat="50.723098022863269" lon="13.223589090630412">
        <ele>446</ele>
        <time>2026-08-29T11:03:59Z</time>
      </trkpt>
      <trkpt lat="50.723096765577793" lon="13.223581127822399">
        <ele>446</ele>
        <time>2026-08-29T11:04:00Z</time>
      </trkpt>
      <trkpt lat="50.723106069490314" lon="13.223567213863134">
        <ele>446</ele>
        <time>2026-08-29T11:04:01Z</time>
      </trkpt>
      <trkpt lat="50.723108667880297" lon="13.223557155579329">
        <ele>446</ele>
        <time>2026-08-29T11:04:02Z</time>
      </trkpt>
      <trkpt lat="50.723112104460597" lon="13.223553048446774">
        <ele>446</ele>
        <time>2026-08-29T11:04:03Z</time>
      </trkpt>
      <trkpt lat="50.723120318725705" lon="13.223545085638762">
        <ele>447</ele>
        <time>2026-08-29T11:04:04Z</time>
      </trkpt>
      <trkpt lat="50.723119899630547" lon="13.223544666543603">
        <ele>447</ele>
        <time>2026-08-29T11:04:05Z</time>
      </trkpt>
      <trkpt lat="50.723115289583802" lon="13.22353377006948">
        <ele>448</ele>
        <time>2026-08-29T11:04:06Z</time>
      </trkpt>
      <trkpt lat="50.723110930994153" lon="13.223524047061801">
        <ele>448</ele>
        <time>2026-08-29T11:04:07Z</time>
      </trkpt>
      <trkpt lat="50.723111182451248" lon="13.223503846675158">
        <ele>448</ele>
        <time>2026-08-29T11:04:08Z</time>
      </trkpt>
      <trkpt lat="50.723113529384136" lon="13.223482053726912">
        <ele>449</ele>
        <time>2026-08-29T11:04:09Z</time>
      </trkpt>
      <trkpt lat="50.72311470285058" lon="13.22346780449152">
        <ele>449</ele>
        <time>2026-08-29T11:04:10Z</time>
      </trkpt>
      <trkpt lat="50.723113110288978" lon="13.223459338769317">
        <ele>450</ele>
        <time>2026-08-29T11:04:11Z</time>
      </trkpt>
      <trkpt lat="50.723113277927041" lon="13.223456908017397">
        <ele>450</ele>
        <time>2026-08-29T11:04:12Z</time>
      </trkpt>
      <trkpt lat="50.723112020641565" lon="13.223441485315561">
        <ele>450</ele>
        <time>2026-08-29T11:04:13Z</time>
      </trkpt>
      <trkpt lat="50.723102381452918" lon="13.223436456173658">
        <ele>450</ele>
        <time>2026-08-29T11:04:14Z</time>
      </trkpt>
      <trkpt lat="50.723096849396825" lon="13.223429331555963">
        <ele>451</ele>
        <time>2026-08-29T11:04:15Z</time>
      </trkpt>
      <trkpt lat="50.723098441958427" lon="13.223409885540605">
        <ele>451</ele>
        <time>2026-08-29T11:04:16Z</time>
      </trkpt>
      <trkpt lat="50.723099699243903" lon="13.22340527549386">
        <ele>451</ele>
        <time>2026-08-29T11:04:17Z</time>
      </trkpt>
      <trkpt lat="50.723103303462267" lon="13.223398989066482">
        <ele>451</ele>
        <time>2026-08-29T11:04:18Z</time>
      </trkpt>
      <trkpt lat="50.723099699243903" lon="13.223386919125915">
        <ele>452</ele>
        <time>2026-08-29T11:04:19Z</time>
      </trkpt>
      <trkpt lat="50.723097939044237" lon="13.223375603556633">
        <ele>452</ele>
        <time>2026-08-29T11:04:20Z</time>
      </trkpt>
      <trkpt lat="50.723093748092651" lon="13.223367389291525">
        <ele>452</ele>
        <time>2026-08-29T11:04:21Z</time>
      </trkpt>
      <trkpt lat="50.723091568797827" lon="13.223351715132594">
        <ele>452</ele>
        <time>2026-08-29T11:04:22Z</time>
      </trkpt>
      <trkpt lat="50.723088970407844" lon="13.223343249410391">
        <ele>453</ele>
        <time>2026-08-29T11:04:23Z</time>
      </trkpt>
      <trkpt lat="50.723086874932051" lon="13.22333344258368">
        <ele>453</ele>
        <time>2026-08-29T11:04:24Z</time>
      </trkpt>
      <trkpt lat="50.723085785284638" lon="13.223322797566652">
        <ele>453</ele>
        <time>2026-08-29T11:04:25Z</time>
      </trkpt>
      <trkpt lat="50.723085952922702" lon="13.223308129236102">
        <ele>453</ele>
        <time>2026-08-29T11:04:26Z</time>
      </trkpt>
      <trkpt lat="50.723091149702668" lon="13.223298909142613">
        <ele>453</ele>
        <time>2026-08-29T11:04:27Z</time>
      </trkpt>
      <trkpt lat="50.723091401159763" lon="13.223292538896203">
        <ele>454</ele>
        <time>2026-08-29T11:04:28Z</time>
      </trkpt>
      <trkpt lat="50.723094921559095" lon="13.223284324631095">
        <ele>454</ele>
        <time>2026-08-29T11:04:29Z</time>
      </trkpt>
      <trkpt lat="50.723100285977125" lon="13.223273679614067">
        <ele>454</ele>
        <time>2026-08-29T11:04:30Z</time>
      </trkpt>
      <trkpt lat="50.723101878538728" lon="13.223266638815403">
        <ele>454</ele>
        <time>2026-08-29T11:04:31Z</time>
      </trkpt>
      <trkpt lat="50.723098525777459" lon="13.223258759826422">
        <ele>455</ele>
        <time>2026-08-29T11:04:32Z</time>
      </trkpt>
      <trkpt lat="50.723097184672952" lon="13.223257334902883">
        <ele>455</ele>
        <time>2026-08-29T11:04:33Z</time>
      </trkpt>
      <trkpt lat="50.723091820254922" lon="13.223251719027758">
        <ele>455</ele>
        <time>2026-08-29T11:04:34Z</time>
      </trkpt>
      <trkpt lat="50.723087629303336" lon="13.223250126466155">
        <ele>455</ele>
        <time>2026-08-29T11:04:35Z</time>
      </trkpt>
      <trkpt lat="50.723081259056926" lon="13.223242582753301">
        <ele>455</ele>
        <time>2026-08-29T11:04:36Z</time>
      </trkpt>
      <trkpt lat="50.723078325390816" lon="13.223232021555305">
        <ele>455</ele>
        <time>2026-08-29T11:04:37Z</time>
      </trkpt>
      <trkpt lat="50.723072206601501" lon="13.223231099545956">
        <ele>456</ele>
        <time>2026-08-29T11:04:38Z</time>
      </trkpt>
      <trkpt lat="50.72307120077312" lon="13.223230931907892">
        <ele>456</ele>
        <time>2026-08-29T11:04:39Z</time>
      </trkpt>
      <trkpt lat="50.72306633926928" lon="13.223208636045456">
        <ele>456</ele>
        <time>2026-08-29T11:04:40Z</time>
      </trkpt>
      <trkpt lat="50.723065920174122" lon="13.223196817561984">
        <ele>457</ele>
        <time>2026-08-29T11:04:41Z</time>
      </trkpt>
      <trkpt lat="50.723060220479965" lon="13.223181730136275">
        <ele>458</ele>
        <time>2026-08-29T11:04:42Z</time>
      </trkpt>
      <trkpt lat="50.723059047013521" lon="13.22317217476666">
        <ele>457</ele>
        <time>2026-08-29T11:04:43Z</time>
      </trkpt>
      <trkpt lat="50.723058879375458" lon="13.223164463415742">
        <ele>457</ele>
        <time>2026-08-29T11:04:44Z</time>
      </trkpt>
      <trkpt lat="50.723064998164773" lon="13.223157087340951">
        <ele>456</ele>
        <time>2026-08-29T11:04:45Z</time>
      </trkpt>
      <trkpt lat="50.723059633746743" lon="13.223160859197378">
        <ele>457</ele>
        <time>2026-08-29T11:04:46Z</time>
      </trkpt>
      <trkpt lat="50.723060974851251" lon="13.223145939409733">
        <ele>457</ele>
        <time>2026-08-29T11:04:47Z</time>
      </trkpt>
      <trkpt lat="50.723054939880967" lon="13.22313797660172">
        <ele>457</ele>
        <time>2026-08-29T11:04:48Z</time>
      </trkpt>
      <trkpt lat="50.723051419481635" lon="13.223124565556645">
        <ele>458</ele>
        <time>2026-08-29T11:04:49Z</time>
      </trkpt>
      <trkpt lat="50.723046809434891" lon="13.223105454817414">
        <ele>457</ele>
        <time>2026-08-29T11:04:50Z</time>
      </trkpt>
      <trkpt lat="50.723045552149415" lon="13.223093552514911">
        <ele>458</ele>
        <time>2026-08-29T11:04:51Z</time>
      </trkpt>
      <trkpt lat="50.723045971244574" lon="13.223084751516581">
        <ele>458</ele>
        <time>2026-08-29T11:04:52Z</time>
      </trkpt>
      <trkpt lat="50.723047060891986" lon="13.223079890012741">
        <ele>458</ele>
        <time>2026-08-29T11:04:53Z</time>
      </trkpt>
      <trkpt lat="50.723042450845242" lon="13.223079890012741">
        <ele>458</ele>
        <time>2026-08-29T11:04:54Z</time>
      </trkpt>
      <trkpt lat="50.723047479987144" lon="13.22307494468987">
        <ele>458</ele>
        <time>2026-08-29T11:04:55Z</time>
      </trkpt>
      <trkpt lat="50.723048150539398" lon="13.223066227510571">
        <ele>459</ele>
        <time>2026-08-29T11:04:56Z</time>
      </trkpt>
      <trkpt lat="50.72304773144424" lon="13.223054660484195">
        <ele>459</ele>
        <time>2026-08-29T11:04:57Z</time>
      </trkpt>
      <trkpt lat="50.723044211044908" lon="13.223038986325264">
        <ele>459</ele>
        <time>2026-08-29T11:04:58Z</time>
      </trkpt>
      <trkpt lat="50.723044127225876" lon="13.223033957183361">
        <ele>459</ele>
        <time>2026-08-29T11:04:59Z</time>
      </trkpt>
      <trkpt lat="50.723043791949749" lon="13.22301828302443">
        <ele>459</ele>
        <time>2026-08-29T11:05:00Z</time>
      </trkpt>
      <trkpt lat="50.723043205216527" lon="13.22300411760807">
        <ele>459</ele>
        <time>2026-08-29T11:05:01Z</time>
      </trkpt>
      <trkpt lat="50.723039181903005" lon="13.22300411760807">
        <ele>459</ele>
        <time>2026-08-29T11:05:02Z</time>
      </trkpt>
      <trkpt lat="50.723038092255592" lon="13.222998753190041">
        <ele>459</ele>
        <time>2026-08-29T11:05:03Z</time>
      </trkpt>
      <trkpt lat="50.723047060891986" lon="13.222994226962328">
        <ele>459</ele>
        <time>2026-08-29T11:05:04Z</time>
      </trkpt>
      <trkpt lat="50.723045552149415" lon="13.22299137711525">
        <ele>459</ele>
        <time>2026-08-29T11:05:05Z</time>
      </trkpt>
      <trkpt lat="50.723044378682971" lon="13.223005961626768">
        <ele>459</ele>
        <time>2026-08-29T11:05:06Z</time>
      </trkpt>
      <trkpt lat="50.723044378682971" lon="13.223006380721927">
        <ele>459</ele>
        <time>2026-08-29T11:05:07Z</time>
      </trkpt>
      <trkpt lat="50.723043121397495" lon="13.222995651885867">
        <ele>460</ele>
        <time>2026-08-29T11:05:08Z</time>
      </trkpt>
      <trkpt lat="50.723045552149415" lon="13.223002860322595">
        <ele>460</ele>
        <time>2026-08-29T11:05:09Z</time>
      </trkpt>
      <trkpt lat="50.723040858283639" lon="13.223011493682861">
        <ele>460</ele>
        <time>2026-08-29T11:05:10Z</time>
      </trkpt>
      <trkpt lat="50.723042618483305" lon="13.223007302731276">
        <ele>460</ele>
        <time>2026-08-29T11:05:11Z</time>
      </trkpt>
      <trkpt lat="50.72304479777813" lon="13.223004201427102">
        <ele>460</ele>
        <time>2026-08-29T11:05:12Z</time>
      </trkpt>
      <trkpt lat="50.72304479777813" lon="13.222997579723597">
        <ele>460</ele>
        <time>2026-08-29T11:05:13Z</time>
      </trkpt>
      <trkpt lat="50.723049072548747" lon="13.222987940534949">
        <ele>460</ele>
        <time>2026-08-29T11:05:14Z</time>
      </trkpt>
      <trkpt lat="50.723050162196159" lon="13.222975367680192">
        <ele>460</ele>
        <time>2026-08-29T11:05:15Z</time>
      </trkpt>
      <trkpt lat="50.72304924018681" lon="13.222966566681862">
        <ele>460</ele>
        <time>2026-08-29T11:05:16Z</time>
      </trkpt>
      <trkpt lat="50.723051251843572" lon="13.222964303568006">
        <ele>460</ele>
        <time>2026-08-29T11:05:17Z</time>
      </trkpt>
      <trkpt lat="50.723057286813855" lon="13.222952736541629">
        <ele>460</ele>
        <time>2026-08-29T11:05:18Z</time>
      </trkpt>
      <trkpt lat="50.723067428916693" lon="13.222950305789709">
        <ele>460</ele>
        <time>2026-08-29T11:05:19Z</time>
      </trkpt>
      <trkpt lat="50.723080169409513" lon="13.222932619974017">
        <ele>460</ele>
        <time>2026-08-29T11:05:20Z</time>
      </trkpt>
      <trkpt lat="50.723090898245573" lon="13.222916191443801">
        <ele>460</ele>
        <time>2026-08-29T11:05:21Z</time>
      </trkpt>
      <trkpt lat="50.723100788891315" lon="13.22289808653295">
        <ele>460</ele>
        <time>2026-08-29T11:05:22Z</time>
      </trkpt>
      <trkpt lat="50.723110511898994" lon="13.222879227250814">
        <ele>460</ele>
        <time>2026-08-29T11:05:23Z</time>
      </trkpt>
      <trkpt lat="50.723118474707007" lon="13.222861625254154">
        <ele>461</ele>
        <time>2026-08-29T11:05:24Z</time>
      </trkpt>
      <trkpt lat="50.72312350384891" lon="13.222843604162335">
        <ele>461</ele>
        <time>2026-08-29T11:05:25Z</time>
      </trkpt>
      <trkpt lat="50.723124090582132" lon="13.222819129005075">
        <ele>461</ele>
        <time>2026-08-29T11:05:26Z</time>
      </trkpt>
      <trkpt lat="50.723126269876957" lon="13.222793731838465">
        <ele>461</ele>
        <time>2026-08-29T11:05:27Z</time>
      </trkpt>
      <trkpt lat="50.723126018419862" lon="13.222775878384709">
        <ele>461</ele>
        <time>2026-08-29T11:05:28Z</time>
      </trkpt>
      <trkpt lat="50.723118139430881" lon="13.222748134285212">
        <ele>461</ele>
        <time>2026-08-29T11:05:29Z</time>
      </trkpt>
      <trkpt lat="50.723116463050246" lon="13.222720725461841">
        <ele>460</ele>
        <time>2026-08-29T11:05:30Z</time>
      </trkpt>
      <trkpt lat="50.723113361746073" lon="13.222690215334296">
        <ele>460</ele>
        <time>2026-08-29T11:05:31Z</time>
      </trkpt>
      <trkpt lat="50.723112691193819" lon="13.222654676064849">
        <ele>460</ele>
        <time>2026-08-29T11:05:32Z</time>
      </trkpt>
      <trkpt lat="50.723111350089312" lon="13.222628440707922">
        <ele>460</ele>
        <time>2026-08-29T11:05:33Z</time>
      </trkpt>
      <trkpt lat="50.723106069490314" lon="13.222603462636471">
        <ele>460</ele>
        <time>2026-08-29T11:05:34Z</time>
      </trkpt>
      <trkpt lat="50.723099280148745" lon="13.222580663859844">
        <ele>460</ele>
        <time>2026-08-29T11:05:35Z</time>
      </trkpt>
      <trkpt lat="50.723097352311015" lon="13.22256239131093">
        <ele>459</ele>
        <time>2026-08-29T11:05:36Z</time>
      </trkpt>
      <trkpt lat="50.723093915730715" lon="13.222540346905589">
        <ele>459</ele>
        <time>2026-08-29T11:05:37Z</time>
      </trkpt>
      <trkpt lat="50.723089640960097" lon="13.222518134862185">
        <ele>459</ele>
        <time>2026-08-29T11:05:38Z</time>
      </trkpt>
      <trkpt lat="50.723084947094321" lon="13.22249399498105">
        <ele>459</ele>
        <time>2026-08-29T11:05:39Z</time>
      </trkpt>
      <trkpt lat="50.723077319562435" lon="13.222469938918948">
        <ele>459</ele>
        <time>2026-08-29T11:05:40Z</time>
      </trkpt>
      <trkpt lat="50.723064914345741" lon="13.222459712997079">
        <ele>459</ele>
        <time>2026-08-29T11:05:41Z</time>
      </trkpt>
      <trkpt lat="50.723055107519031" lon="13.222444290295243">
        <ele>459</ele>
        <time>2026-08-29T11:05:42Z</time>
      </trkpt>
      <trkpt lat="50.723037170246243" lon="13.222426688298583">
        <ele>459</ele>
        <time>2026-08-29T11:05:43Z</time>
      </trkpt>
      <trkpt lat="50.723019987344742" lon="13.222415540367365">
        <ele>458</ele>
        <time>2026-08-29T11:05:44Z</time>
      </trkpt>
      <trkpt lat="50.723004899919033" lon="13.222408499568701">
        <ele>457</ele>
        <time>2026-08-29T11:05:45Z</time>
      </trkpt>
      <trkpt lat="50.722985370084643" lon="13.222388885915279">
        <ele>457</ele>
        <time>2026-08-29T11:05:46Z</time>
      </trkpt>
      <trkpt lat="50.722966678440571" lon="13.222392238676548">
        <ele>457</ele>
        <time>2026-08-29T11:05:47Z</time>
      </trkpt>
      <trkpt lat="50.722952680662274" lon="13.222383353859186">
        <ele>457</ele>
        <time>2026-08-29T11:05:48Z</time>
      </trkpt>
      <trkpt lat="50.722940526902676" lon="13.222369691357017">
        <ele>457</ele>
        <time>2026-08-29T11:05:49Z</time>
      </trkpt>
      <trkpt lat="50.722932228818536" lon="13.22236105799675">
        <ele>457</ele>
        <time>2026-08-29T11:05:50Z</time>
      </trkpt>
      <trkpt lat="50.722925020381808" lon="13.2223498262465">
        <ele>457</ele>
        <time>2026-08-29T11:05:51Z</time>
      </trkpt>
      <trkpt lat="50.72291730903089" lon="13.222345719113946">
        <ele>457</ele>
        <time>2026-08-29T11:05:52Z</time>
      </trkpt>
      <trkpt lat="50.722904317080975" lon="13.222327278926969">
        <ele>457</ele>
        <time>2026-08-29T11:05:53Z</time>
      </trkpt>
      <trkpt lat="50.722891828045249" lon="13.222304061055183">
        <ele>457</ele>
        <time>2026-08-29T11:05:54Z</time>
      </trkpt>
      <trkpt lat="50.722874812781811" lon="13.22226676158607">
        <ele>457</ele>
        <time>2026-08-29T11:05:55Z</time>
      </trkpt>
      <trkpt lat="50.722865927964449" lon="13.222218481823802">
        <ele>456</ele>
        <time>2026-08-29T11:05:56Z</time>
      </trkpt>
      <trkpt lat="50.722853187471628" lon="13.222176656126976">
        <ele>456</ele>
        <time>2026-08-29T11:05:57Z</time>
      </trkpt>
      <trkpt lat="50.722840949892998" lon="13.222119491547346">
        <ele>455</ele>
        <time>2026-08-29T11:05:58Z</time>
      </trkpt>
      <trkpt lat="50.722824269905686" lon="13.222076240926981">
        <ele>455</ele>
        <time>2026-08-29T11:05:59Z</time>
      </trkpt>
      <trkpt lat="50.722802979871631" lon="13.222028128802776">
        <ele>455</ele>
        <time>2026-08-29T11:06:00Z</time>
      </trkpt>
      <trkpt lat="50.722785880789161" lon="13.221962582319975">
        <ele>454</ele>
        <time>2026-08-29T11:06:01Z</time>
      </trkpt>
      <trkpt lat="50.722765177488327" lon="13.221917236223817">
        <ele>454</ele>
        <time>2026-08-29T11:06:02Z</time>
      </trkpt>
      <trkpt lat="50.722735589370131" lon="13.221871219575405">
        <ele>454</ele>
        <time>2026-08-29T11:06:03Z</time>
      </trkpt>
      <trkpt lat="50.722706587985158" lon="13.221814222633839">
        <ele>453</ele>
        <time>2026-08-29T11:06:04Z</time>
      </trkpt>
      <trkpt lat="50.722686219960451" lon="13.2217454072088">
        <ele>453</ele>
        <time>2026-08-29T11:06:05Z</time>
      </trkpt>
      <trkpt lat="50.722670881077647" lon="13.221668628975749">
        <ele>452</ele>
        <time>2026-08-29T11:06:06Z</time>
      </trkpt>
      <trkpt lat="50.722646992653608" lon="13.221600400283933">
        <ele>452</ele>
        <time>2026-08-29T11:06:07Z</time>
      </trkpt>
      <trkpt lat="50.722625618800521" lon="13.221540804952383">
        <ele>451</ele>
        <time>2026-08-29T11:06:08Z</time>
      </trkpt>
      <trkpt lat="50.722603155300021" lon="13.22148154489696">
        <ele>451</ele>
        <time>2026-08-29T11:06:09Z</time>
      </trkpt>
      <trkpt lat="50.722580021247268" lon="13.221420021727681">
        <ele>450</ele>
        <time>2026-08-29T11:06:10Z</time>
      </trkpt>
      <trkpt lat="50.722550181671977" lon="13.221363527700305">
        <ele>450</ele>
        <time>2026-08-29T11:06:11Z</time>
      </trkpt>
      <trkpt lat="50.722533501684666" lon="13.22132027707994">
        <ele>449</ele>
        <time>2026-08-29T11:06:12Z</time>
      </trkpt>
      <trkpt lat="50.722521767020226" lon="13.221269398927689">
        <ele>449</ele>
        <time>2026-08-29T11:06:13Z</time>
      </trkpt>
      <trkpt lat="50.722499722614884" lon="13.221215335652232">
        <ele>449</ele>
        <time>2026-08-29T11:06:14Z</time>
      </trkpt>
      <trkpt lat="50.722477678209543" lon="13.221159763634205">
        <ele>448</ele>
        <time>2026-08-29T11:06:15Z</time>
      </trkpt>
      <trkpt lat="50.722456052899361" lon="13.221108131110668">
        <ele>448</ele>
        <time>2026-08-29T11:06:16Z</time>
      </trkpt>
      <trkpt lat="50.72242964990437" lon="13.221024982631207">
        <ele>447</ele>
        <time>2026-08-29T11:06:17Z</time>
      </trkpt>
      <trkpt lat="50.722404671832919" lon="13.220968823879957">
        <ele>445</ele>
        <time>2026-08-29T11:06:18Z</time>
      </trkpt>
      <trkpt lat="50.722375502809882" lon="13.220908809453249">
        <ele>444</ele>
        <time>2026-08-29T11:06:19Z</time>
      </trkpt>
      <trkpt lat="50.722346920520067" lon="13.220844101160765">
        <ele>443</ele>
        <time>2026-08-29T11:06:20Z</time>
      </trkpt>
      <trkpt lat="50.722325881943107" lon="13.220815015956759">
        <ele>443</ele>
        <time>2026-08-29T11:06:21Z</time>
      </trkpt>
      <trkpt lat="50.722300820052624" lon="13.220771346241236">
        <ele>444</ele>
        <time>2026-08-29T11:06:22Z</time>
      </trkpt>
      <trkpt lat="50.722287157550454" lon="13.220720132812858">
        <ele>444</ele>
        <time>2026-08-29T11:06:23Z</time>
      </trkpt>
      <trkpt lat="50.722269890829921" lon="13.220663135871291">
        <ele>443</ele>
        <time>2026-08-29T11:06:24Z</time>
      </trkpt>
      <trkpt lat="50.722248181700706" lon="13.220599181950092">
        <ele>442</ele>
        <time>2026-08-29T11:06:25Z</time>
      </trkpt>
      <trkpt lat="50.722229490056634" lon="13.220524666830897">
        <ele>442</ele>
        <time>2026-08-29T11:06:26Z</time>
      </trkpt>
      <trkpt lat="50.722202835604548" lon="13.220454845577478">
        <ele>441</ele>
        <time>2026-08-29T11:06:27Z</time>
      </trkpt>
      <trkpt lat="50.722177689895034" lon="13.220395501703024">
        <ele>441</ele>
        <time>2026-08-29T11:06:28Z</time>
      </trkpt>
      <trkpt lat="50.722139300778508" lon="13.220278238877654">
        <ele>441</ele>
        <time>2026-08-29T11:06:29Z</time>
      </trkpt>
      <trkpt lat="50.722124548628926" lon="13.220190145075321">
        <ele>440</ele>
        <time>2026-08-29T11:06:30Z</time>
      </trkpt>
      <trkpt lat="50.722104599699378" lon="13.22011093609035">
        <ele>440</ele>
        <time>2026-08-29T11:06:31Z</time>
      </trkpt>
      <trkpt lat="50.722085991874337" lon="13.220005575567484">
        <ele>440</ele>
        <time>2026-08-29T11:06:32Z</time>
      </trkpt>
      <trkpt lat="50.722075598314404" lon="13.219913961365819">
        <ele>439</ele>
        <time>2026-08-29T11:06:33Z</time>
      </trkpt>
      <trkpt lat="50.722060510888696" lon="13.219816396012902">
        <ele>439</ele>
        <time>2026-08-29T11:06:34Z</time>
      </trkpt>
      <trkpt lat="50.722046680748463" lon="13.219748502597213">
        <ele>438</ele>
        <time>2026-08-29T11:06:35Z</time>
      </trkpt>
      <trkpt lat="50.722043327987194" lon="13.219675831496716">
        <ele>438</ele>
        <time>2026-08-29T11:06:36Z</time>
      </trkpt>
      <trkpt lat="50.722040981054306" lon="13.219618331640959">
        <ele>438</ele>
        <time>2026-08-29T11:06:37Z</time>
      </trkpt>
      <trkpt lat="50.72203679010272" lon="13.219560077413917">
        <ele>438</ele>
        <time>2026-08-29T11:06:38Z</time>
      </trkpt>
      <trkpt lat="50.722028240561485" lon="13.219506097957492">
        <ele>438</ele>
        <time>2026-08-29T11:06:39Z</time>
      </trkpt>
      <trkpt lat="50.722030503675342" lon="13.219445161521435">
        <ele>438</ele>
        <time>2026-08-29T11:06:40Z</time>
      </trkpt>
      <trkpt lat="50.722031341865659" lon="13.219390930607915">
        <ele>438</ele>
        <time>2026-08-29T11:06:41Z</time>
      </trkpt>
      <trkpt lat="50.722033940255642" lon="13.21934575214982">
        <ele>438</ele>
        <time>2026-08-29T11:06:42Z</time>
      </trkpt>
      <trkpt lat="50.722025642171502" lon="13.219298059120774">
        <ele>438</ele>
        <time>2026-08-29T11:06:43Z</time>
      </trkpt>
      <trkpt lat="50.722018769010901" lon="13.219257071614265">
        <ele>437</ele>
        <time>2026-08-29T11:06:44Z</time>
      </trkpt>
      <trkpt lat="50.722022792324424" lon="13.219223292544484">
        <ele>437</ele>
        <time>2026-08-29T11:06:45Z</time>
      </trkpt>
      <trkpt lat="50.72201675735414" lon="13.219191525131464">
        <ele>437</ele>
        <time>2026-08-29T11:06:46Z</time>
      </trkpt>
      <trkpt lat="50.722010638564825" lon="13.219158248975873">
        <ele>437</ele>
        <time>2026-08-29T11:06:47Z</time>
      </trkpt>
      <trkpt lat="50.722002172842622" lon="13.219129163771868">
        <ele>437</ele>
        <time>2026-08-29T11:06:48Z</time>
      </trkpt>
      <trkpt lat="50.721997311338782" lon="13.219107622280717">
        <ele>437</ele>
        <time>2026-08-29T11:06:49Z</time>
      </trkpt>
      <trkpt lat="50.721989180892706" lon="13.21907895617187">
        <ele>437</ele>
        <time>2026-08-29T11:06:50Z</time>
      </trkpt>
      <trkpt lat="50.721987001597881" lon="13.219052469357848">
        <ele>437</ele>
        <time>2026-08-29T11:06:51Z</time>
      </trkpt>
      <trkpt lat="50.721978703513741" lon="13.219031514599919">
        <ele>436</ele>
        <time>2026-08-29T11:06:52Z</time>
      </trkpt>
      <trkpt lat="50.721972081810236" lon="13.219008799642324">
        <ele>436</ele>
        <time>2026-08-29T11:06:53Z</time>
      </trkpt>
      <trkpt lat="50.721969399601221" lon="13.218985078856349">
        <ele>436</ele>
        <time>2026-08-29T11:06:54Z</time>
      </trkpt>
      <trkpt lat="50.72196546010673" lon="13.218969656154513">
        <ele>436</ele>
        <time>2026-08-29T11:06:55Z</time>
      </trkpt>
      <trkpt lat="50.721954731270671" lon="13.218955658376217">
        <ele>436</ele>
        <time>2026-08-29T11:06:56Z</time>
      </trkpt>
      <trkpt lat="50.72194542735815" lon="13.218930764123797">
        <ele>436</ele>
        <time>2026-08-29T11:06:57Z</time>
      </trkpt>
      <trkpt lat="50.721939811483026" lon="13.218910228461027">
        <ele>436</ele>
        <time>2026-08-29T11:06:58Z</time>
      </trkpt>
      <trkpt lat="50.721931261941791" lon="13.218887010589242">
        <ele>437</ele>
        <time>2026-08-29T11:06:59Z</time>
      </trkpt>
      <trkpt lat="50.721928998827934" lon="13.218866474926472">
        <ele>437</ele>
        <time>2026-08-29T11:07:00Z</time>
      </trkpt>
      <trkpt lat="50.721932519227266" lon="13.218839149922132">
        <ele>437</ele>
        <time>2026-08-29T11:07:01Z</time>
      </trkpt>
      <trkpt lat="50.721937548369169" lon="13.218816183507442">
        <ele>436</ele>
        <time>2026-08-29T11:07:02Z</time>
      </trkpt>
      <trkpt lat="50.721943415701389" lon="13.218794893473387">
        <ele>436</ele>
        <time>2026-08-29T11:07:03Z</time>
      </trkpt>
      <trkpt lat="50.721944840624928" lon="13.218770502135158">
        <ele>436</ele>
        <time>2026-08-29T11:07:04Z</time>
      </trkpt>
      <trkpt lat="50.721945678815246" lon="13.218752816319466">
        <ele>435</ele>
        <time>2026-08-29T11:07:05Z</time>
      </trkpt>
      <trkpt lat="50.721941906958818" lon="13.218730520457029">
        <ele>436</ele>
        <time>2026-08-29T11:07:06Z</time>
      </trkpt>
      <trkpt lat="50.72193805128336" lon="13.218715935945511">
        <ele>436</ele>
        <time>2026-08-29T11:07:07Z</time>
      </trkpt>
      <trkpt lat="50.721938302740455" lon="13.218706045299768">
        <ele>435</ele>
        <time>2026-08-29T11:07:08Z</time>
      </trkpt>
      <trkpt lat="50.721935871988535" lon="13.218687605112791">
        <ele>436</ele>
        <time>2026-08-29T11:07:09Z</time>
      </trkpt>
      <trkpt lat="50.721941571682692" lon="13.218671679496765">
        <ele>435</ele>
        <time>2026-08-29T11:07:10Z</time>
      </trkpt>
      <trkpt lat="50.72193956002593" lon="13.218647539615631">
        <ele>434</ele>
        <time>2026-08-29T11:07:11Z</time>
      </trkpt>
      <trkpt lat="50.721938805654645" lon="13.218628177419305">
        <ele>435</ele>
        <time>2026-08-29T11:07:12Z</time>
      </trkpt>
      <trkpt lat="50.721937632188201" lon="13.218606384471059">
        <ele>435</ele>
        <time>2026-08-29T11:07:13Z</time>
      </trkpt>
      <trkpt lat="50.721938973292708" lon="13.218584088608623">
        <ele>435</ele>
        <time>2026-08-29T11:07:14Z</time>
      </trkpt>
      <trkpt lat="50.721936291083694" lon="13.218554249033332">
        <ele>435</ele>
        <time>2026-08-29T11:07:15Z</time>
      </trkpt>
      <trkpt lat="50.72193805128336" lon="13.218528851866722">
        <ele>434</ele>
        <time>2026-08-29T11:07:16Z</time>
      </trkpt>
      <trkpt lat="50.72193805128336" lon="13.218502616509795">
        <ele>434</ele>
        <time>2026-08-29T11:07:17Z</time>
      </trkpt>
      <trkpt lat="50.721938721835613" lon="13.218476632609963">
        <ele>434</ele>
        <time>2026-08-29T11:07:18Z</time>
      </trkpt>
      <trkpt lat="50.721933441236615" lon="13.218447295948863">
        <ele>434</ele>
        <time>2026-08-29T11:07:19Z</time>
      </trkpt>
      <trkpt lat="50.721929250285029" lon="13.218417959287763">
        <ele>434</ele>
        <time>2026-08-29T11:07:20Z</time>
      </trkpt>
      <trkpt lat="50.721930591389537" lon="13.218408152461052">
        <ele>433</ele>
        <time>2026-08-29T11:07:21Z</time>
      </trkpt>
      <trkpt lat="50.721935536712408" lon="13.218388622626662">
        <ele>433</ele>
        <time>2026-08-29T11:07:22Z</time>
      </trkpt>
      <trkpt lat="50.721938889473677" lon="13.218365488573909">
        <ele>433</ele>
        <time>2026-08-29T11:07:23Z</time>
      </trkpt>
      <trkpt lat="50.721940901130438" lon="13.21834210306406">
        <ele>434</ele>
        <time>2026-08-29T11:07:24Z</time>
      </trkpt>
      <trkpt lat="50.721946936100721" lon="13.218321902677417">
        <ele>434</ele>
        <time>2026-08-29T11:07:25Z</time>
      </trkpt>
      <trkpt lat="50.721946349367499" lon="13.218297846615314">
        <ele>433</ele>
        <time>2026-08-29T11:07:26Z</time>
      </trkpt>
      <trkpt lat="50.721947439014912" lon="13.218285944312811">
        <ele>433</ele>
        <time>2026-08-29T11:07:27Z</time>
      </trkpt>
      <trkpt lat="50.721948277205229" lon="13.218266414478421">
        <ele>433</ele>
        <time>2026-08-29T11:07:28Z</time>
      </trkpt>
      <trkpt lat="50.721946517005563" lon="13.218243028968573">
        <ele>433</ele>
        <time>2026-08-29T11:07:29Z</time>
      </trkpt>
      <trkpt lat="50.721946600824594" lon="13.2182277739048">
        <ele>433</ele>
        <time>2026-08-29T11:07:30Z</time>
      </trkpt>
      <trkpt lat="50.721949618309736" lon="13.218205226585269">
        <ele>433</ele>
        <time>2026-08-29T11:07:31Z</time>
      </trkpt>
      <trkpt lat="50.721951629966497" lon="13.218178320676088">
        <ele>433</ele>
        <time>2026-08-29T11:07:32Z</time>
      </trkpt>
      <trkpt lat="50.721955737099051" lon="13.218170022591949">
        <ele>433</ele>
        <time>2026-08-29T11:07:33Z</time>
      </trkpt>
      <trkpt lat="50.721959760412574" lon="13.218149738386273">
        <ele>433</ele>
        <time>2026-08-29T11:07:34Z</time>
      </trkpt>
      <trkpt lat="50.721965041011572" lon="13.218135572969913">
        <ele>433</ele>
        <time>2026-08-29T11:07:35Z</time>
      </trkpt>
      <trkpt lat="50.721959257498384" lon="13.218119228258729">
        <ele>434</ele>
        <time>2026-08-29T11:07:36Z</time>
      </trkpt>
      <trkpt lat="50.721962610259652" lon="13.218099866062403">
        <ele>434</ele>
        <time>2026-08-29T11:07:37Z</time>
      </trkpt>
      <trkpt lat="50.721962107345462" lon="13.218081761151552">
        <ele>435</ele>
        <time>2026-08-29T11:07:38Z</time>
      </trkpt>
      <trkpt lat="50.721964789554477" lon="13.21806357242167">
        <ele>435</ele>
        <time>2026-08-29T11:07:39Z</time>
      </trkpt>
      <trkpt lat="50.72196839377284" lon="13.218041025102139">
        <ele>436</ele>
        <time>2026-08-29T11:07:40Z</time>
      </trkpt>
      <trkpt lat="50.721968477591872" lon="13.218019735068083">
        <ele>436</ele>
        <time>2026-08-29T11:07:41Z</time>
      </trkpt>
      <trkpt lat="50.721972500905395" lon="13.218010431155562">
        <ele>436</ele>
        <time>2026-08-29T11:07:42Z</time>
      </trkpt>
      <trkpt lat="50.721973422914743" lon="13.217999702319503">
        <ele>436</ele>
        <time>2026-08-29T11:07:43Z</time>
      </trkpt>
      <trkpt lat="50.721979960799217" lon="13.217993248254061">
        <ele>435</ele>
        <time>2026-08-29T11:07:44Z</time>
      </trkpt>
      <trkpt lat="50.721978787332773" lon="13.217980423942208">
        <ele>435</ele>
        <time>2026-08-29T11:07:45Z</time>
      </trkpt>
      <trkpt lat="50.721974177286029" lon="13.217968102544546">
        <ele>435</ele>
        <time>2026-08-29T11:07:46Z</time>
      </trkpt>
      <trkpt lat="50.721973339095712" lon="13.217951841652393">
        <ele>435</ele>
        <time>2026-08-29T11:07:47Z</time>
      </trkpt>
      <trkpt lat="50.721980547532439" lon="13.217937424778938">
        <ele>435</ele>
        <time>2026-08-29T11:07:48Z</time>
      </trkpt>
      <trkpt lat="50.721985409036279" lon="13.217920996248722">
        <ele>436</ele>
        <time>2026-08-29T11:07:49Z</time>
      </trkpt>
      <trkpt lat="50.721984570845962" lon="13.21790280751884">
        <ele>436</ele>
        <time>2026-08-29T11:07:50Z</time>
      </trkpt>
      <trkpt lat="50.721985325217247" lon="13.217893084511161">
        <ele>437</ele>
        <time>2026-08-29T11:07:51Z</time>
      </trkpt>
      <trkpt lat="50.721988510340452" lon="13.217880260199308">
        <ele>437</ele>
        <time>2026-08-29T11:07:52Z</time>
      </trkpt>
      <trkpt lat="50.721991108730435" lon="13.217874141409993">
        <ele>437</ele>
        <time>2026-08-29T11:07:53Z</time>
      </trkpt>
      <trkpt lat="50.721992617473006" lon="13.217859137803316">
        <ele>437</ele>
        <time>2026-08-29T11:07:54Z</time>
      </trkpt>
      <trkpt lat="50.721998149529099" lon="13.21785788051784">
        <ele>437</ele>
        <time>2026-08-29T11:07:55Z</time>
      </trkpt>
      <trkpt lat="50.72199622169137" lon="13.217841368168592">
        <ele>437</ele>
        <time>2026-08-29T11:07:56Z</time>
      </trkpt>
      <trkpt lat="50.721999825909734" lon="13.217816641554236">
        <ele>436</ele>
        <time>2026-08-29T11:07:57Z</time>
      </trkpt>
      <trkpt lat="50.721994880586863" lon="13.217801051214337">
        <ele>436</ele>
        <time>2026-08-29T11:07:58Z</time>
      </trkpt>
      <trkpt lat="50.721988845616579" lon="13.217789316549897">
        <ele>437</ele>
        <time>2026-08-29T11:07:59Z</time>
      </trkpt>
      <trkpt lat="50.721982978284359" lon="13.217781353741884">
        <ele>436</ele>
        <time>2026-08-29T11:08:00Z</time>
      </trkpt>
      <trkpt lat="50.72198448702693" lon="13.21777381002903">
        <ele>436</ele>
        <time>2026-08-29T11:08:01Z</time>
      </trkpt>
      <trkpt lat="50.721983900293708" lon="13.217763667926192">
        <ele>437</ele>
        <time>2026-08-29T11:08:02Z</time>
      </trkpt>
      <trkpt lat="50.721981385722756" lon="13.217761572450399">
        <ele>437</ele>
        <time>2026-08-29T11:08:03Z</time>
      </trkpt>
      <trkpt lat="50.721980379894376" lon="13.217761656269431">
        <ele>436</ele>
        <time>2026-08-29T11:08:04Z</time>
      </trkpt>
      <trkpt lat="50.721972920000553" lon="13.217751095071435">
        <ele>436</ele>
        <time>2026-08-29T11:08:05Z</time>
      </trkpt>
      <trkpt lat="50.72197962552309" lon="13.217742210254073">
        <ele>436</ele>
        <time>2026-08-29T11:08:06Z</time>
      </trkpt>
      <trkpt lat="50.721976775676012" lon="13.217741288244724">
        <ele>435</ele>
        <time>2026-08-29T11:08:07Z</time>
      </trkpt>
      <trkpt lat="50.721975518390536" lon="13.21773374453187">
        <ele>435</ele>
        <time>2026-08-29T11:08:08Z</time>
      </trkpt>
      <trkpt lat="50.721974177286029" lon="13.217727961018682">
        <ele>436</ele>
        <time>2026-08-29T11:08:09Z</time>
      </trkpt>
      <trkpt lat="50.721974093466997" lon="13.217728212475777">
        <ele>436</ele>
        <time>2026-08-29T11:08:10Z</time>
      </trkpt>
      <trkpt lat="50.721974009647965" lon="13.217728547751904">
        <ele>436</ele>
        <time>2026-08-29T11:08:11Z</time>
      </trkpt>
      <trkpt lat="50.721974009647965" lon="13.217728547751904">
        <ele>436</ele>
        <time>2026-08-29T11:08:12Z</time>
      </trkpt>
      <trkpt lat="50.721974009647965" lon="13.217728631570935">
        <ele>436</ele>
        <time>2026-08-29T11:08:13Z</time>
      </trkpt>
      <trkpt lat="50.72197618894279" lon="13.217720501124859">
        <ele>435</ele>
        <time>2026-08-29T11:08:14Z</time>
      </trkpt>
      <trkpt lat="50.721976105123758" lon="13.217720501124859">
        <ele>435</ele>
        <time>2026-08-29T11:08:15Z</time>
      </trkpt>
      <trkpt lat="50.72197618894279" lon="13.217720501124859">
        <ele>435</ele>
        <time>2026-08-29T11:08:16Z</time>
      </trkpt>
      <trkpt lat="50.721976272761822" lon="13.217720333486795">
        <ele>435</ele>
        <time>2026-08-29T11:08:17Z</time>
      </trkpt>
      <trkpt lat="50.721975518390536" lon="13.217730475589633">
        <ele>435</ele>
        <time>2026-08-29T11:08:18Z</time>
      </trkpt>
      <trkpt lat="50.721975518390536" lon="13.217730894684792">
        <ele>435</ele>
        <time>2026-08-29T11:08:19Z</time>
      </trkpt>
      <trkpt lat="50.721975266933441" lon="13.217730643227696">
        <ele>435</ele>
        <time>2026-08-29T11:08:20Z</time>
      </trkpt>
      <trkpt lat="50.721975266933441" lon="13.217730978503823">
        <ele>435</ele>
        <time>2026-08-29T11:08:21Z</time>
      </trkpt>
      <trkpt lat="50.721975350752473" lon="13.217731397598982">
        <ele>435</ele>
        <time>2026-08-29T11:08:22Z</time>
      </trkpt>
      <trkpt lat="50.721975518390536" lon="13.217731900513172">
        <ele>435</ele>
        <time>2026-08-29T11:08:23Z</time>
      </trkpt>
      <trkpt lat="50.7219756860286" lon="13.217732235789299">
        <ele>435</ele>
        <time>2026-08-29T11:08:24Z</time>
      </trkpt>
      <trkpt lat="50.721975769847631" lon="13.217732487246394">
        <ele>435</ele>
        <time>2026-08-29T11:08:25Z</time>
      </trkpt>
      <trkpt lat="50.721975769847631" lon="13.217732487246394">
        <ele>435</ele>
        <time>2026-08-29T11:08:26Z</time>
      </trkpt>
      <trkpt lat="50.721975769847631" lon="13.217732487246394">
        <ele>435</ele>
        <time>2026-08-29T11:08:27Z</time>
      </trkpt>
      <trkpt lat="50.721979541704059" lon="13.217734498903155">
        <ele>435</ele>
        <time>2026-08-29T11:08:28Z</time>
      </trkpt>
      <trkpt lat="50.721981637179852" lon="13.217734415084124">
        <ele>435</ele>
        <time>2026-08-29T11:08:29Z</time>
      </trkpt>
      <trkpt lat="50.72198155336082" lon="13.217734331265092">
        <ele>435</ele>
        <time>2026-08-29T11:08:30Z</time>
      </trkpt>
      <trkpt lat="50.72198155336082" lon="13.217734079807997">
        <ele>435</ele>
        <time>2026-08-29T11:08:31Z</time>
      </trkpt>
      <trkpt lat="50.721981804817915" lon="13.217730894684792">
        <ele>435</ele>
        <time>2026-08-29T11:08:32Z</time>
      </trkpt>
      <trkpt lat="50.721980296075344" lon="13.217731732875109">
        <ele>435</ele>
        <time>2026-08-29T11:08:33Z</time>
      </trkpt>
      <trkpt lat="50.721979038789868" lon="13.217733576893806">
        <ele>435</ele>
        <time>2026-08-29T11:08:34Z</time>
      </trkpt>
      <trkpt lat="50.721976440399885" lon="13.217735756188631">
        <ele>435</ele>
        <time>2026-08-29T11:08:35Z</time>
      </trkpt>
      <trkpt lat="50.721974428743124" lon="13.217726787552238">
        <ele>434</ele>
        <time>2026-08-29T11:08:36Z</time>
      </trkpt>
      <trkpt lat="50.721974680200219" lon="13.217726452276111">
        <ele>434</ele>
        <time>2026-08-29T11:08:37Z</time>
      </trkpt>
      <trkpt lat="50.721974847838283" lon="13.217725614085793">
        <ele>434</ele>
        <time>2026-08-29T11:08:38Z</time>
      </trkpt>
      <trkpt lat="50.721975015476346" lon="13.217725027352571">
        <ele>434</ele>
        <time>2026-08-29T11:08:39Z</time>
      </trkpt>
      <trkpt lat="50.721975099295378" lon="13.217724440619349">
        <ele>434</ele>
        <time>2026-08-29T11:08:40Z</time>
      </trkpt>
      <trkpt lat="50.721975266933441" lon="13.217724021524191">
        <ele>434</ele>
        <time>2026-08-29T11:08:41Z</time>
      </trkpt>
      <trkpt lat="50.721975350752473" lon="13.217723518610001">
        <ele>434</ele>
        <time>2026-08-29T11:08:42Z</time>
      </trkpt>
      <trkpt lat="50.721975518390536" lon="13.217722931876779">
        <ele>434</ele>
        <time>2026-08-29T11:08:43Z</time>
      </trkpt>
      <trkpt lat="50.721975518390536" lon="13.217722345143557">
        <ele>434</ele>
        <time>2026-08-29T11:08:44Z</time>
      </trkpt>
      <trkpt lat="50.721975602209568" lon="13.217721506953239">
        <ele>434</ele>
        <time>2026-08-29T11:08:45Z</time>
      </trkpt>
      <trkpt lat="50.721975937485695" lon="13.217721171677113">
        <ele>434</ele>
        <time>2026-08-29T11:08:46Z</time>
      </trkpt>
      <trkpt lat="50.72197618894279" lon="13.217720752581954">
        <ele>434</ele>
        <time>2026-08-29T11:08:47Z</time>
      </trkpt>
      <trkpt lat="50.72197618894279" lon="13.2177200820297">
        <ele>434</ele>
        <time>2026-08-29T11:08:48Z</time>
      </trkpt>
      <trkpt lat="50.721976272761822" lon="13.217719998210669">
        <ele>434</ele>
        <time>2026-08-29T11:08:49Z</time>
      </trkpt>
      <trkpt lat="50.721976272761822" lon="13.217719914391637">
        <ele>434</ele>
        <time>2026-08-29T11:08:50Z</time>
      </trkpt>
      <trkpt lat="50.721976356580853" lon="13.2177200820297">
        <ele>434</ele>
        <time>2026-08-29T11:08:51Z</time>
      </trkpt>
      <trkpt lat="50.721976356580853" lon="13.217720165848732">
        <ele>434</ele>
        <time>2026-08-29T11:08:52Z</time>
      </trkpt>
      <trkpt lat="50.721976440399885" lon="13.217720584943891">
        <ele>434</ele>
        <time>2026-08-29T11:08:53Z</time>
      </trkpt>
      <trkpt lat="50.721976440399885" lon="13.217720668762922">
        <ele>434</ele>
        <time>2026-08-29T11:08:54Z</time>
      </trkpt>
      <trkpt lat="50.721976440399885" lon="13.217720752581954">
        <ele>434</ele>
        <time>2026-08-29T11:08:55Z</time>
      </trkpt>
      <trkpt lat="50.721976440399885" lon="13.217720752581954">
        <ele>434</ele>
        <time>2026-08-29T11:08:56Z</time>
      </trkpt>
      <trkpt lat="50.721976608037949" lon="13.217720417305827">
        <ele>434</ele>
        <time>2026-08-29T11:08:57Z</time>
      </trkpt>
      <trkpt lat="50.72197669185698" lon="13.217719914391637">
        <ele>434</ele>
        <time>2026-08-29T11:08:58Z</time>
      </trkpt>
      <trkpt lat="50.72197669185698" lon="13.217719746753573">
        <ele>434</ele>
        <time>2026-08-29T11:08:59Z</time>
      </trkpt>
      <trkpt lat="50.72197669185698" lon="13.217719746753573">
        <ele>434</ele>
        <time>2026-08-29T11:09:00Z</time>
      </trkpt>
      <trkpt lat="50.721976608037949" lon="13.217719746753573">
        <ele>434</ele>
        <time>2026-08-29T11:09:01Z</time>
      </trkpt>
      <trkpt lat="50.721976608037949" lon="13.217719327658415">
        <ele>434</ele>
        <time>2026-08-29T11:09:02Z</time>
      </trkpt>
      <trkpt lat="50.721976608037949" lon="13.217719411477447">
        <ele>434</ele>
        <time>2026-08-29T11:09:03Z</time>
      </trkpt>
      <trkpt lat="50.721976440399885" lon="13.217719746753573">
        <ele>434</ele>
        <time>2026-08-29T11:09:04Z</time>
      </trkpt>
      <trkpt lat="50.721976272761822" lon="13.217720249667764">
        <ele>434</ele>
        <time>2026-08-29T11:09:05Z</time>
      </trkpt>
      <trkpt lat="50.72197618894279" lon="13.217720249667764">
        <ele>434</ele>
        <time>2026-08-29T11:09:06Z</time>
      </trkpt>
      <trkpt lat="50.721976105123758" lon="13.2177200820297">
        <ele>434</ele>
        <time>2026-08-29T11:09:07Z</time>
      </trkpt>
      <trkpt lat="50.721976021304727" lon="13.217720165848732">
        <ele>434</ele>
        <time>2026-08-29T11:09:08Z</time>
      </trkpt>
      <trkpt lat="50.721976021304727" lon="13.217719914391637">
        <ele>434</ele>
        <time>2026-08-29T11:09:09Z</time>
      </trkpt>
      <trkpt lat="50.721976105123758" lon="13.21771957911551">
        <ele>434</ele>
        <time>2026-08-29T11:09:10Z</time>
      </trkpt>
      <trkpt lat="50.72197618894279" lon="13.217719746753573">
        <ele>434</ele>
        <time>2026-08-29T11:09:11Z</time>
      </trkpt>
      <trkpt lat="50.721976272761822" lon="13.217720165848732">
        <ele>434</ele>
        <time>2026-08-29T11:09:12Z</time>
      </trkpt>
      <trkpt lat="50.72197618894279" lon="13.217720249667764">
        <ele>434</ele>
        <time>2026-08-29T11:09:13Z</time>
      </trkpt>
      <trkpt lat="50.72197618894279" lon="13.217720165848732">
        <ele>434</ele>
        <time>2026-08-29T11:09:14Z</time>
      </trkpt>
      <trkpt lat="50.721976608037949" lon="13.217720333486795">
        <ele>434</ele>
        <time>2026-08-29T11:09:15Z</time>
      </trkpt>
      <trkpt lat="50.721976859495044" lon="13.217719914391637">
        <ele>434</ele>
        <time>2026-08-29T11:09:16Z</time>
      </trkpt>
      <trkpt lat="50.721977278590202" lon="13.217719830572605">
        <ele>434</ele>
        <time>2026-08-29T11:09:17Z</time>
      </trkpt>
      <trkpt lat="50.721977530047297" lon="13.217719830572605">
        <ele>434</ele>
        <time>2026-08-29T11:09:18Z</time>
      </trkpt>
      <trkpt lat="50.721977781504393" lon="13.217719495296478">
        <ele>434</ele>
        <time>2026-08-29T11:09:19Z</time>
      </trkpt>
      <trkpt lat="50.721978032961488" lon="13.217719160020351">
        <ele>434</ele>
        <time>2026-08-29T11:09:20Z</time>
      </trkpt>
      <trkpt lat="50.721978200599551" lon="13.217718573287129">
        <ele>434</ele>
        <time>2026-08-29T11:09:21Z</time>
      </trkpt>
      <trkpt lat="50.721978284418583" lon="13.217718238011003">
        <ele>434</ele>
        <time>2026-08-29T11:09:22Z</time>
      </trkpt>
      <trkpt lat="50.721978200599551" lon="13.217717651277781">
        <ele>434</ele>
        <time>2026-08-29T11:09:23Z</time>
      </trkpt>
      <trkpt lat="50.721978284418583" lon="13.217717232182622">
        <ele>434</ele>
        <time>2026-08-29T11:09:24Z</time>
      </trkpt>
      <trkpt lat="50.721978368237615" lon="13.217716980725527">
        <ele>434</ele>
        <time>2026-08-29T11:09:25Z</time>
      </trkpt>
      <trkpt lat="50.721974680200219" lon="13.21771421469748">
        <ele>434</ele>
        <time>2026-08-29T11:09:26Z</time>
      </trkpt>
      <trkpt lat="50.721974847838283" lon="13.217713376507163">
        <ele>434</ele>
        <time>2026-08-29T11:09:27Z</time>
      </trkpt>
      <trkpt lat="50.721973842009902" lon="13.217713041231036">
        <ele>433</ele>
        <time>2026-08-29T11:09:28Z</time>
      </trkpt>
      <trkpt lat="50.721969902515411" lon="13.217708263546228">
        <ele>433</ele>
        <time>2026-08-29T11:09:29Z</time>
      </trkpt>
      <trkpt lat="50.721963699907064" lon="13.217701138928533">
        <ele>434</ele>
        <time>2026-08-29T11:09:30Z</time>
      </trkpt>
      <trkpt lat="50.721955569460988" lon="13.217692505568266">
        <ele>434</ele>
        <time>2026-08-29T11:09:31Z</time>
      </trkpt>
      <trkpt lat="50.721955401822925" lon="13.217691667377949">
        <ele>434</ele>
        <time>2026-08-29T11:09:32Z</time>
      </trkpt>
      <trkpt lat="50.721954982727766" lon="13.21769124828279">
        <ele>434</ele>
        <time>2026-08-29T11:09:33Z</time>
      </trkpt>
      <trkpt lat="50.721955988556147" lon="13.217687895521522">
        <ele>434</ele>
        <time>2026-08-29T11:09:34Z</time>
      </trkpt>
      <trkpt lat="50.721958000212908" lon="13.217680100351572">
        <ele>434</ele>
        <time>2026-08-29T11:09:35Z</time>
      </trkpt>
      <trkpt lat="50.721960095688701" lon="13.217673394829035">
        <ele>433</ele>
        <time>2026-08-29T11:09:36Z</time>
      </trkpt>
      <trkpt lat="50.721962107345462" lon="13.217666856944561">
        <ele>432</ele>
        <time>2026-08-29T11:09:37Z</time>
      </trkpt>
      <trkpt lat="50.721960179507732" lon="13.217654367908835">
        <ele>433</ele>
        <time>2026-08-29T11:09:38Z</time>
      </trkpt>
      <trkpt lat="50.721964035183191" lon="13.217639029026031">
        <ele>433</ele>
        <time>2026-08-29T11:09:39Z</time>
      </trkpt>
      <trkpt lat="50.721963029354811" lon="13.217630814760923">
        <ele>434</ele>
        <time>2026-08-29T11:09:40Z</time>
      </trkpt>
      <trkpt lat="50.721963113173842" lon="13.217612709850073">
        <ele>433</ele>
        <time>2026-08-29T11:09:41Z</time>
      </trkpt>
      <trkpt lat="50.721969567239285" lon="13.217580942437053">
        <ele>434</ele>
        <time>2026-08-29T11:09:42Z</time>
      </trkpt>
      <trkpt lat="50.721980882808566" lon="13.217536266893148">
        <ele>434</ele>
        <time>2026-08-29T11:09:43Z</time>
      </trkpt>
      <trkpt lat="50.721994629129767" lon="13.217490082606673">
        <ele>434</ele>
        <time>2026-08-29T11:09:44Z</time>
      </trkpt>
      <trkpt lat="50.7220050226897" lon="13.21743912063539">
        <ele>434</ele>
        <time>2026-08-29T11:09:45Z</time>
      </trkpt>
      <trkpt lat="50.722019607201219" lon="13.217384302988648">
        <ele>434</ele>
        <time>2026-08-29T11:09:46Z</time>
      </trkpt>
      <trkpt lat="50.722040729597211" lon="13.217311380431056">
        <ele>434</ele>
        <time>2026-08-29T11:09:47Z</time>
      </trkpt>
      <trkpt lat="50.722046680748463" lon="13.217237703502178">
        <ele>434</ele>
        <time>2026-08-29T11:09:48Z</time>
      </trkpt>
      <trkpt lat="50.722052967175841" lon="13.217160170897841">
        <ele>434</ele>
        <time>2026-08-29T11:09:49Z</time>
      </trkpt>
      <trkpt lat="50.722071407362819" lon="13.217079536989331">
        <ele>433</ele>
        <time>2026-08-29T11:09:50Z</time>
      </trkpt>
      <trkpt lat="50.722099570557475" lon="13.216991107910872">
        <ele>434</ele>
        <time>2026-08-29T11:09:51Z</time>
      </trkpt>
      <trkpt lat="50.722117591649294" lon="13.216899745166302">
        <ele>434</ele>
        <time>2026-08-29T11:09:52Z</time>
      </trkpt>
      <trkpt lat="50.722128069028258" lon="13.216807628050447">
        <ele>433</ele>
        <time>2026-08-29T11:09:53Z</time>
      </trkpt>
      <trkpt lat="50.722136031836271" lon="13.216717438772321">
        <ele>433</ele>
        <time>2026-08-29T11:09:54Z</time>
      </trkpt>
      <trkpt lat="50.722141899168491" lon="13.216615933924913">
        <ele>434</ele>
        <time>2026-08-29T11:09:55Z</time>
      </trkpt>
      <trkpt lat="50.722157070413232" lon="13.216520631685853">
        <ele>434</ele>
        <time>2026-08-29T11:09:56Z</time>
      </trkpt>
      <trkpt lat="50.722175678238273" lon="13.216438740491867">
        <ele>435</ele>
        <time>2026-08-29T11:09:57Z</time>
      </trkpt>
      <trkpt lat="50.722198141738772" lon="13.216368248686194">
        <ele>434</ele>
        <time>2026-08-29T11:09:58Z</time>
      </trkpt>
      <trkpt lat="50.72220828384161" lon="13.216297253966331">
        <ele>434</ele>
        <time>2026-08-29T11:09:59Z</time>
      </trkpt>
      <trkpt lat="50.722219850867987" lon="13.216224582865834">
        <ele>434</ele>
        <time>2026-08-29T11:10:00Z</time>
      </trkpt>
      <trkpt lat="50.722231501713395" lon="13.216158952564001">
        <ele>435</ele>
        <time>2026-08-29T11:10:01Z</time>
      </trkpt>
      <trkpt lat="50.722234100103378" lon="13.216103380545974">
        <ele>435</ele>
        <time>2026-08-29T11:10:02Z</time>
      </trkpt>
      <trkpt lat="50.72224298492074" lon="13.216046970337629">
        <ele>435</ele>
        <time>2026-08-29T11:10:03Z</time>
      </trkpt>
      <trkpt lat="50.722252959385514" lon="13.215992655605078">
        <ele>435</ele>
        <time>2026-08-29T11:10:04Z</time>
      </trkpt>
      <trkpt lat="50.722256731241941" lon="13.215932724997401">
        <ele>435</ele>
        <time>2026-08-29T11:10:05Z</time>
      </trkpt>
      <trkpt lat="50.722262598574162" lon="13.215884612873197">
        <ele>435</ele>
        <time>2026-08-29T11:10:06Z</time>
      </trkpt>
      <trkpt lat="50.722264610230923" lon="13.215838093310595">
        <ele>435</ele>
        <time>2026-08-29T11:10:07Z</time>
      </trkpt>
      <trkpt lat="50.722272740676999" lon="13.215794758871198">
        <ele>435</ele>
        <time>2026-08-29T11:10:08Z</time>
      </trkpt>
      <trkpt lat="50.722288750112057" lon="13.215757878497243">
        <ele>435</ele>
        <time>2026-08-29T11:10:09Z</time>
      </trkpt>
      <trkpt lat="50.722299981862307" lon="13.215715382248163">
        <ele>435</ele>
        <time>2026-08-29T11:10:10Z</time>
      </trkpt>
      <trkpt lat="50.722311213612556" lon="13.21566048078239">
        <ele>435</ele>
        <time>2026-08-29T11:10:11Z</time>
      </trkpt>
      <trkpt lat="50.72232261300087" lon="13.215602813288569">
        <ele>435</ele>
        <time>2026-08-29T11:10:12Z</time>
      </trkpt>
      <trkpt lat="50.722336610779166" lon="13.215556209906936">
        <ele>434</ele>
        <time>2026-08-29T11:10:13Z</time>
      </trkpt>
      <trkpt lat="50.722343567758799" lon="13.215505750849843">
        <ele>435</ele>
        <time>2026-08-29T11:10:14Z</time>
      </trkpt>
      <trkpt lat="50.722355050966144" lon="13.2154630869627">
        <ele>434</ele>
        <time>2026-08-29T11:10:15Z</time>
      </trkpt>
      <trkpt lat="50.722369300201535" lon="13.215421764180064">
        <ele>434</ele>
        <time>2026-08-29T11:10:16Z</time>
      </trkpt>
      <trkpt lat="50.722374999895692" lon="13.215384129434824">
        <ele>434</ele>
        <time>2026-08-29T11:10:17Z</time>
      </trkpt>
      <trkpt lat="50.722381537780166" lon="13.21535219438374">
        <ele>434</ele>
        <time>2026-08-29T11:10:18Z</time>
      </trkpt>
      <trkpt lat="50.72239151224494" lon="13.215317577123642">
        <ele>434</ele>
        <time>2026-08-29T11:10:19Z</time>
      </trkpt>
      <trkpt lat="50.722401067614555" lon="13.2152886595577">
        <ele>434</ele>
        <time>2026-08-29T11:10:20Z</time>
      </trkpt>
      <trkpt lat="50.722408024594188" lon="13.215249180793762">
        <ele>433</ele>
        <time>2026-08-29T11:10:21Z</time>
      </trkpt>
      <trkpt lat="50.722422441467643" lon="13.215198051184416">
        <ele>433</ele>
        <time>2026-08-29T11:10:22Z</time>
      </trkpt>
      <trkpt lat="50.72243258357048" lon="13.215149855241179">
        <ele>432</ele>
        <time>2026-08-29T11:10:23Z</time>
      </trkpt>
      <trkpt lat="50.722448928281665" lon="13.215102078393102">
        <ele>432</ele>
        <time>2026-08-29T11:10:24Z</time>
      </trkpt>
      <trkpt lat="50.722464183345437" lon="13.215063856914639">
        <ele>431</ele>
        <time>2026-08-29T11:10:25Z</time>
      </trkpt>
      <trkpt lat="50.722479186952114" lon="13.215026305988431">
        <ele>431</ele>
        <time>2026-08-29T11:10:26Z</time>
      </trkpt>
      <trkpt lat="50.722486646845937" lon="13.214980540797114">
        <ele>431</ele>
        <time>2026-08-29T11:10:27Z</time>
      </trkpt>
      <trkpt lat="50.722500309348106" lon="13.214934691786766">
        <ele>431</ele>
        <time>2026-08-29T11:10:28Z</time>
      </trkpt>
      <trkpt lat="50.722516570240259" lon="13.214892530813813">
        <ele>431</ele>
        <time>2026-08-29T11:10:29Z</time>
      </trkpt>
      <trkpt lat="50.722531490027905" lon="13.21485472843051">
        <ele>430</ele>
        <time>2026-08-29T11:10:30Z</time>
      </trkpt>
      <trkpt lat="50.722546493634582" lon="13.214811142534018">
        <ele>430</ele>
        <time>2026-08-29T11:10:31Z</time>
      </trkpt>
      <trkpt lat="50.722559401765466" lon="13.214765042066574">
        <ele>430</ele>
        <time>2026-08-29T11:10:32Z</time>
      </trkpt>
      <trkpt lat="50.722573231905699" lon="13.214720115065575">
        <ele>431</ele>
        <time>2026-08-29T11:10:33Z</time>
      </trkpt>
      <trkpt lat="50.722591672092676" lon="13.214681223034859">
        <ele>430</ele>
        <time>2026-08-29T11:10:34Z</time>
      </trkpt>
      <trkpt lat="50.722614638507366" lon="13.214644426479936">
        <ele>430</ele>
        <time>2026-08-29T11:10:35Z</time>
      </trkpt>
      <trkpt lat="50.722632240504026" lon="13.214614586904645">
        <ele>430</ele>
        <time>2026-08-29T11:10:36Z</time>
      </trkpt>
      <trkpt lat="50.722651518881321" lon="13.214578460901976">
        <ele>430</ele>
        <time>2026-08-29T11:10:37Z</time>
      </trkpt>
      <trkpt lat="50.722665768116713" lon="13.214541329070926">
        <ele>430</ele>
        <time>2026-08-29T11:10:38Z</time>
      </trkpt>
      <trkpt lat="50.722683537751436" lon="13.214507130905986">
        <ele>430</ele>
        <time>2026-08-29T11:10:39Z</time>
      </trkpt>
      <trkpt lat="50.722702732309699" lon="13.214494390413165">
        <ele>430</ele>
        <time>2026-08-29T11:10:40Z</time>
      </trkpt>
      <trkpt lat="50.722715221345425" lon="13.214472094550729">
        <ele>430</ele>
        <time>2026-08-29T11:10:41Z</time>
      </trkpt>
      <trkpt lat="50.72272377088666" lon="13.214440494775772">
        <ele>430</ele>
        <time>2026-08-29T11:10:42Z</time>
      </trkpt>
      <trkpt lat="50.722737601026893" lon="13.214405961334705">
        <ele>430</ele>
        <time>2026-08-29T11:10:43Z</time>
      </trkpt>
      <trkpt lat="50.722753359004855" lon="13.214371260255575">
        <ele>430</ele>
        <time>2026-08-29T11:10:44Z</time>
      </trkpt>
      <trkpt lat="50.722764926031232" lon="13.214346617460251">
        <ele>430</ele>
        <time>2026-08-29T11:10:45Z</time>
      </trkpt>
      <trkpt lat="50.722782611846924" lon="13.214314263314009">
        <ele>430</ele>
        <time>2026-08-29T11:10:46Z</time>
      </trkpt>
      <trkpt lat="50.722797112539411" lon="13.214282160624862">
        <ele>430</ele>
        <time>2026-08-29T11:10:47Z</time>
      </trkpt>
      <trkpt lat="50.7228097692132" lon="13.2142473757267">
        <ele>430</ele>
        <time>2026-08-29T11:10:48Z</time>
      </trkpt>
      <trkpt lat="50.722820246592164" lon="13.2142214756459">
        <ele>430</ele>
        <time>2026-08-29T11:10:49Z</time>
      </trkpt>
      <trkpt lat="50.722834914922714" lon="13.214195240288973">
        <ele>430</ele>
        <time>2026-08-29T11:10:50Z</time>
      </trkpt>
      <trkpt lat="50.722851762548089" lon="13.214175207540393">
        <ele>430</ele>
        <time>2026-08-29T11:10:51Z</time>
      </trkpt>
      <trkpt lat="50.722859306260943" lon="13.214160203933716">
        <ele>429</ele>
        <time>2026-08-29T11:10:52Z</time>
      </trkpt>
      <trkpt lat="50.722873471677303" lon="13.214136650785804">
        <ele>429</ele>
        <time>2026-08-29T11:10:53Z</time>
      </trkpt>
      <trkpt lat="50.722881099209189" lon="13.21411301381886">
        <ele>429</ele>
        <time>2026-08-29T11:10:54Z</time>
      </trkpt>
      <trkpt lat="50.722892582416534" lon="13.214090885594487">
        <ele>430</ele>
        <time>2026-08-29T11:10:55Z</time>
      </trkpt>
      <trkpt lat="50.722904819995165" lon="13.21408468298614">
        <ele>430</ele>
        <time>2026-08-29T11:10:56Z</time>
      </trkpt>
      <trkpt lat="50.722913201898336" lon="13.214077390730381">
        <ele>430</ele>
        <time>2026-08-29T11:10:57Z</time>
      </trkpt>
      <trkpt lat="50.722916051745415" lon="13.214068086817861">
        <ele>430</ele>
        <time>2026-08-29T11:10:58Z</time>
      </trkpt>
      <trkpt lat="50.722917811945081" lon="13.214053753763437">
        <ele>430</ele>
        <time>2026-08-29T11:10:59Z</time>
      </trkpt>
      <trkpt lat="50.722921248525381" lon="13.214029194787145">
        <ele>430</ele>
        <time>2026-08-29T11:11:00Z</time>
      </trkpt>
      <trkpt lat="50.722926864400506" lon="13.214008323848248">
        <ele>430</ele>
        <time>2026-08-29T11:11:01Z</time>
      </trkpt>
      <trkpt lat="50.722934491932392" lon="13.213985357433558">
        <ele>431</ele>
        <time>2026-08-29T11:11:02Z</time>
      </trkpt>
      <trkpt lat="50.72294563986361" lon="13.213961971923709">
        <ele>431</ele>
        <time>2026-08-29T11:11:03Z</time>
      </trkpt>
      <trkpt lat="50.722959721460938" lon="13.213936239480972">
        <ele>431</ele>
        <time>2026-08-29T11:11:04Z</time>
      </trkpt>
      <trkpt lat="50.722971204668283" lon="13.213917296379805">
        <ele>431</ele>
        <time>2026-08-29T11:11:05Z</time>
      </trkpt>
      <trkpt lat="50.722982436418533" lon="13.21388971991837">
        <ele>431</ele>
        <time>2026-08-29T11:11:06Z</time>
      </trkpt>
      <trkpt lat="50.72299643419683" lon="13.213872704654932">
        <ele>432</ele>
        <time>2026-08-29T11:11:07Z</time>
      </trkpt>
      <trkpt lat="50.723011689260602" lon="13.213856779038906">
        <ele>432</ele>
        <time>2026-08-29T11:11:08Z</time>
      </trkpt>
      <trkpt lat="50.723029710352421" lon="13.213840015232563">
        <ele>432</ele>
        <time>2026-08-29T11:11:09Z</time>
      </trkpt>
      <trkpt lat="50.723042450845242" lon="13.213823419064283">
        <ele>432</ele>
        <time>2026-08-29T11:11:10Z</time>
      </trkpt>
      <trkpt lat="50.723056448623538" lon="13.213804475963116">
        <ele>433</ele>
        <time>2026-08-29T11:11:11Z</time>
      </trkpt>
      <trkpt lat="50.723071116954088" lon="13.213787963613868">
        <ele>433</ele>
        <time>2026-08-29T11:11:12Z</time>
      </trkpt>
      <trkpt lat="50.723086958751082" lon="13.213776228949428">
        <ele>433</ele>
        <time>2026-08-29T11:11:13Z</time>
      </trkpt>
      <trkpt lat="50.723107159137726" lon="13.213760303333402">
        <ele>433</ele>
        <time>2026-08-29T11:11:14Z</time>
      </trkpt>
      <trkpt lat="50.723121911287308" lon="13.2137431204319">
        <ele>432</ele>
        <time>2026-08-29T11:11:15Z</time>
      </trkpt>
      <trkpt lat="50.723139597103" lon="13.213725769892335">
        <ele>433</ele>
        <time>2026-08-29T11:11:16Z</time>
      </trkpt>
      <trkpt lat="50.723158288747072" lon="13.213702132925391">
        <ele>433</ele>
        <time>2026-08-29T11:11:17Z</time>
      </trkpt>
      <trkpt lat="50.723177399486303" lon="13.213687380775809">
        <ele>433</ele>
        <time>2026-08-29T11:11:18Z</time>
      </trkpt>
      <trkpt lat="50.723193911835551" lon="13.213670365512371">
        <ele>433</ele>
        <time>2026-08-29T11:11:19Z</time>
      </trkpt>
      <trkpt lat="50.723213776946068" lon="13.213649578392506">
        <ele>433</ele>
        <time>2026-08-29T11:11:20Z</time>
      </trkpt>
      <trkpt lat="50.723231881856918" lon="13.213626779615879">
        <ele>432</ele>
        <time>2026-08-29T11:11:21Z</time>
      </trkpt>
      <trkpt lat="50.723253339529037" lon="13.213603058829904">
        <ele>433</ele>
        <time>2026-08-29T11:11:22Z</time>
      </trkpt>
      <trkpt lat="50.723273791372776" lon="13.21357699111104">
        <ele>433</ele>
        <time>2026-08-29T11:11:23Z</time>
      </trkpt>
      <trkpt lat="50.723296506330371" lon="13.213549247011542">
        <ele>433</ele>
        <time>2026-08-29T11:11:24Z</time>
      </trkpt>
      <trkpt lat="50.723314946517348" lon="13.213520999997854">
        <ele>433</ele>
        <time>2026-08-29T11:11:25Z</time>
      </trkpt>
      <trkpt lat="50.723335230723023" lon="13.213496021926403">
        <ele>433</ele>
        <time>2026-08-29T11:11:26Z</time>
      </trkpt>
      <trkpt lat="50.723350569605827" lon="13.213474899530411">
        <ele>433</ele>
        <time>2026-08-29T11:11:27Z</time>
      </trkpt>
      <trkpt lat="50.723372111096978" lon="13.213457884266973">
        <ele>433</ele>
        <time>2026-08-29T11:11:28Z</time>
      </trkpt>
      <trkpt lat="50.723391138017178" lon="13.213443215936422">
        <ele>433</ele>
        <time>2026-08-29T11:11:29Z</time>
      </trkpt>
      <trkpt lat="50.723412930965424" lon="13.213423518463969">
        <ele>433</ele>
        <time>2026-08-29T11:11:30Z</time>
      </trkpt>
      <trkpt lat="50.723435059189796" lon="13.213407173752785">
        <ele>433</ele>
        <time>2026-08-29T11:11:31Z</time>
      </trkpt>
      <trkpt lat="50.723457019776106" lon="13.213390996679664">
        <ele>433</ele>
        <time>2026-08-29T11:11:32Z</time>
      </trkpt>
      <trkpt lat="50.723475376144052" lon="13.213371969759464">
        <ele>433</ele>
        <time>2026-08-29T11:11:33Z</time>
      </trkpt>
      <trkpt lat="50.723494235426188" lon="13.213358391076326">
        <ele>433</ele>
        <time>2026-08-29T11:11:34Z</time>
      </trkpt>
      <trkpt lat="50.723509071394801" lon="13.213346237316728">
        <ele>433</ele>
        <time>2026-08-29T11:11:35Z</time>
      </trkpt>
      <trkpt lat="50.723524997010827" lon="13.213335927575827">
        <ele>433</ele>
        <time>2026-08-29T11:11:36Z</time>
      </trkpt>
      <trkpt lat="50.723542850464582" lon="13.213319247588515">
        <ele>433</ele>
        <time>2026-08-29T11:11:37Z</time>
      </trkpt>
      <trkpt lat="50.723561458289623" lon="13.213301058858633">
        <ele>434</ele>
        <time>2026-08-29T11:11:38Z</time>
      </trkpt>
      <trkpt lat="50.723581155762076" lon="13.213274320587516">
        <ele>434</ele>
        <time>2026-08-29T11:11:39Z</time>
      </trkpt>
      <trkpt lat="50.723598841577768" lon="13.213250851258636">
        <ele>434</ele>
        <time>2026-08-29T11:11:40Z</time>
      </trkpt>
      <trkpt lat="50.723618790507317" lon="13.213237775489688">
        <ele>434</ele>
        <time>2026-08-29T11:11:41Z</time>
      </trkpt>
      <trkpt lat="50.723637901246548" lon="13.213222939521074">
        <ele>434</ele>
        <time>2026-08-29T11:11:42Z</time>
      </trkpt>
      <trkpt lat="50.723661202937365" lon="13.213204415515065">
        <ele>434</ele>
        <time>2026-08-29T11:11:43Z</time>
      </trkpt>
      <trkpt lat="50.723684839904308" lon="13.213185053318739">
        <ele>434</ele>
        <time>2026-08-29T11:11:44Z</time>
      </trkpt>
      <trkpt lat="50.723703112453222" lon="13.213168121874332">
        <ele>433</ele>
        <time>2026-08-29T11:11:45Z</time>
      </trkpt>
      <trkpt lat="50.723725911229849" lon="13.213143143802881">
        <ele>433</ele>
        <time>2026-08-29T11:11:46Z</time>
      </trkpt>
      <trkpt lat="50.723749380558729" lon="13.213127385824919">
        <ele>433</ele>
        <time>2026-08-29T11:11:47Z</time>
      </trkpt>
      <trkpt lat="50.723774777725339" lon="13.213117746636271">
        <ele>434</ele>
        <time>2026-08-29T11:11:48Z</time>
      </trkpt>
      <trkpt lat="50.723808221518993" lon="13.213103916496038">
        <ele>433</ele>
        <time>2026-08-29T11:11:49Z</time>
      </trkpt>
      <trkpt lat="50.723837809637189" lon="13.21310006082058">
        <ele>433</ele>
        <time>2026-08-29T11:11:50Z</time>
      </trkpt>
      <trkpt lat="50.723863374441862" lon="13.213104335591197">
        <ele>433</ele>
        <time>2026-08-29T11:11:51Z</time>
      </trkpt>
      <trkpt lat="50.723886424675584" lon="13.213107520714402">
        <ele>433</ele>
        <time>2026-08-29T11:11:52Z</time>
      </trkpt>
      <trkpt lat="50.723906541243196" lon="13.213103413581848">
        <ele>434</ele>
        <time>2026-08-29T11:11:53Z</time>
      </trkpt>
      <trkpt lat="50.723920371383429" lon="13.213095366954803">
        <ele>433</ele>
        <time>2026-08-29T11:11:54Z</time>
      </trkpt>
      <trkpt lat="50.723933950066566" lon="13.213087236508727">
        <ele>434</ele>
        <time>2026-08-29T11:11:55Z</time>
      </trkpt>
      <trkpt lat="50.723944259807467" lon="13.213081201538444">
        <ele>433</ele>
        <time>2026-08-29T11:11:56Z</time>
      </trkpt>
      <trkpt lat="50.723955826833844" lon="13.213066449388862">
        <ele>433</ele>
        <time>2026-08-29T11:11:57Z</time>
      </trkpt>
      <trkpt lat="50.723967812955379" lon="13.213051110506058">
        <ele>433</ele>
        <time>2026-08-29T11:11:58Z</time>
      </trkpt>
      <trkpt lat="50.723981391638517" lon="13.213040297850966">
        <ele>433</ele>
        <time>2026-08-29T11:11:59Z</time>
      </trkpt>
      <trkpt lat="50.724001256749034" lon="13.213024707511067">
        <ele>433</ele>
        <time>2026-08-29T11:12:00Z</time>
      </trkpt>
      <trkpt lat="50.724029168486595" lon="13.213017163798213">
        <ele>433</ele>
        <time>2026-08-29T11:12:01Z</time>
      </trkpt>
      <trkpt lat="50.724059762433171" lon="13.213005010038614">
        <ele>433</ele>
        <time>2026-08-29T11:12:02Z</time>
      </trkpt>
      <trkpt lat="50.724087338894606" lon="13.212989754974842">
        <ele>433</ele>
        <time>2026-08-29T11:12:03Z</time>
      </trkpt>
      <trkpt lat="50.72412027977407" lon="13.212972236797214">
        <ele>433</ele>
        <time>2026-08-29T11:12:04Z</time>
      </trkpt>
      <trkpt lat="50.724152969196439" lon="13.21295153349638">
        <ele>433</ele>
        <time>2026-08-29T11:12:05Z</time>
      </trkpt>
      <trkpt lat="50.724184988066554" lon="13.21294616907835">
        <ele>433</ele>
        <time>2026-08-29T11:12:06Z</time>
      </trkpt>
      <trkpt lat="50.724219772964716" lon="13.212936026975513">
        <ele>433</ele>
        <time>2026-08-29T11:12:07Z</time>
      </trkpt>
      <trkpt lat="50.724255312234163" lon="13.212929656729102">
        <ele>433</ele>
        <time>2026-08-29T11:12:08Z</time>
      </trkpt>
      <trkpt lat="50.724287247285247" lon="13.212929153814912">
        <ele>433</ele>
        <time>2026-08-29T11:12:09Z</time>
      </trkpt>
      <trkpt lat="50.72431524284184" lon="13.212920855730772">
        <ele>432</ele>
        <time>2026-08-29T11:12:10Z</time>
      </trkpt>
      <trkpt lat="50.72434114292264" lon="13.212912557646632">
        <ele>432</ele>
        <time>2026-08-29T11:12:11Z</time>
      </trkpt>
      <trkpt lat="50.724363857880235" lon="13.212897386401892">
        <ele>432</ele>
        <time>2026-08-29T11:12:12Z</time>
      </trkpt>
      <trkpt lat="50.724391937255859" lon="13.21288364008069">
        <ele>432</ele>
        <time>2026-08-29T11:12:13Z</time>
      </trkpt>
      <trkpt lat="50.724411215633154" lon="13.212872743606567">
        <ele>432</ele>
        <time>2026-08-29T11:12:14Z</time>
      </trkpt>
      <trkpt lat="50.724431332200766" lon="13.212861092761159">
        <ele>431</ele>
        <time>2026-08-29T11:12:15Z</time>
      </trkpt>
      <trkpt lat="50.724452789872885" lon="13.212837791070342">
        <ele>431</ele>
        <time>2026-08-29T11:12:16Z</time>
      </trkpt>
      <trkpt lat="50.72446670383215" lon="13.212801162153482">
        <ele>431</ele>
        <time>2026-08-29T11:12:17Z</time>
      </trkpt>
      <trkpt lat="50.724472654983401" lon="13.212766377255321">
        <ele>430</ele>
        <time>2026-08-29T11:12:18Z</time>
      </trkpt>
      <trkpt lat="50.724484808743" lon="13.212732179090381">
        <ele>430</ele>
        <time>2026-08-29T11:12:19Z</time>
      </trkpt>
      <trkpt lat="50.724497549235821" lon="13.212702255696058">
        <ele>429</ele>
        <time>2026-08-29T11:12:20Z</time>
      </trkpt>
      <trkpt lat="50.724520431831479" lon="13.212667470797896">
        <ele>429</ele>
        <time>2026-08-29T11:12:21Z</time>
      </trkpt>
      <trkpt lat="50.724548930302262" lon="13.212640732526779">
        <ele>429</ele>
        <time>2026-08-29T11:12:22Z</time>
      </trkpt>
      <trkpt lat="50.724582960829139" lon="13.212616425007582">
        <ele>429</ele>
        <time>2026-08-29T11:12:23Z</time>
      </trkpt>
      <trkpt lat="50.724616404622793" lon="13.212598068639636">
        <ele>428</ele>
        <time>2026-08-29T11:12:24Z</time>
      </trkpt>
      <trkpt lat="50.724654961377382" lon="13.212593039497733">
        <ele>428</ele>
        <time>2026-08-29T11:12:25Z</time>
      </trkpt>
      <trkpt lat="50.724696703255177" lon="13.212577030062675">
        <ele>428</ele>
        <time>2026-08-29T11:12:26Z</time>
      </trkpt>
      <trkpt lat="50.724734673276544" lon="13.212564708665013">
        <ele>427</ele>
        <time>2026-08-29T11:12:27Z</time>
      </trkpt>
      <trkpt lat="50.724770380184054" lon="13.21256110444665">
        <ele>427</ele>
        <time>2026-08-29T11:12:28Z</time>
      </trkpt>
      <trkpt lat="50.724809439852834" lon="13.212558589875698">
        <ele>426</ele>
        <time>2026-08-29T11:12:29Z</time>
      </trkpt>
      <trkpt lat="50.724847912788391" lon="13.21255817078054">
        <ele>426</ele>
        <time>2026-08-29T11:12:30Z</time>
      </trkpt>
      <trkpt lat="50.724881188943982" lon="13.212561523541808">
        <ele>426</ele>
        <time>2026-08-29T11:12:31Z</time>
      </trkpt>
      <trkpt lat="50.724915219470859" lon="13.212567307054996">
        <ele>426</ele>
        <time>2026-08-29T11:12:32Z</time>
      </trkpt>
      <trkpt lat="50.724944639950991" lon="13.212568815797567">
        <ele>426</ele>
        <time>2026-08-29T11:12:33Z</time>
      </trkpt>
      <trkpt lat="50.724978838115931" lon="13.212574096396565">
        <ele>426</ele>
        <time>2026-08-29T11:12:34Z</time>
      </trkpt>
      <trkpt lat="50.725010270252824" lon="13.212576443329453">
        <ele>426</ele>
        <time>2026-08-29T11:12:35Z</time>
      </trkpt>
      <trkpt lat="50.725039606913924" lon="13.212583819404244">
        <ele>426</ele>
        <time>2026-08-29T11:12:36Z</time>
      </trkpt>
      <trkpt lat="50.72506626136601" lon="13.212590273469687">
        <ele>425</ele>
        <time>2026-08-29T11:12:37Z</time>
      </trkpt>
      <trkpt lat="50.725091826170683" lon="13.212594548240304">
        <ele>425</ele>
        <time>2026-08-29T11:12:38Z</time>
      </trkpt>
      <trkpt lat="50.725119486451149" lon="13.212600667029619">
        <ele>425</ele>
        <time>2026-08-29T11:12:39Z</time>
      </trkpt>
      <trkpt lat="50.725144548341632" lon="13.212603265419602">
        <ele>426</ele>
        <time>2026-08-29T11:12:40Z</time>
      </trkpt>
      <trkpt lat="50.725174471735954" lon="13.212614161893725">
        <ele>425</ele>
        <time>2026-08-29T11:12:41Z</time>
      </trkpt>
      <trkpt lat="50.725203473120928" lon="13.212617011740804">
        <ele>425</ele>
        <time>2026-08-29T11:12:42Z</time>
      </trkpt>
      <trkpt lat="50.725234569981694" lon="13.212632685899734">
        <ele>425</ele>
        <time>2026-08-29T11:12:43Z</time>
      </trkpt>
      <trkpt lat="50.725265080109239" lon="13.212640481069684">
        <ele>425</ele>
        <time>2026-08-29T11:12:44Z</time>
      </trkpt>
      <trkpt lat="50.725296679884195" lon="13.212647186592221">
        <ele>425</ele>
        <time>2026-08-29T11:12:45Z</time>
      </trkpt>
      <trkpt lat="50.72531838901341" lon="13.21266177110374">
        <ele>424</ele>
        <time>2026-08-29T11:12:46Z</time>
      </trkpt>
      <trkpt lat="50.725347977131605" lon="13.212668308988214">
        <ele>424</ele>
        <time>2026-08-29T11:12:47Z</time>
      </trkpt>
      <trkpt lat="50.725373206660151" lon="13.212674930691719">
        <ele>424</ele>
        <time>2026-08-29T11:12:48Z</time>
      </trkpt>
      <trkpt lat="50.725400280207396" lon="13.212679289281368">
        <ele>424</ele>
        <time>2026-08-29T11:12:49Z</time>
      </trkpt>
      <trkpt lat="50.725428527221084" lon="13.212692197412252">
        <ele>424</ele>
        <time>2026-08-29T11:12:50Z</time>
      </trkpt>
      <trkpt lat="50.725464401766658" lon="13.212710721418262">
        <ele>424</ele>
        <time>2026-08-29T11:12:51Z</time>
      </trkpt>
      <trkpt lat="50.725499438121915" lon="13.212721198797226">
        <ele>424</ele>
        <time>2026-08-29T11:12:52Z</time>
      </trkpt>
      <trkpt lat="50.725529110059142" lon="13.212736705318093">
        <ele>424</ele>
        <time>2026-08-29T11:12:53Z</time>
      </trkpt>
      <trkpt lat="50.725559620186687" lon="13.212749781087041">
        <ele>424</ele>
        <time>2026-08-29T11:12:54Z</time>
      </trkpt>
      <trkpt lat="50.725587112829089" lon="13.212765790522099">
        <ele>424</ele>
        <time>2026-08-29T11:12:55Z</time>
      </trkpt>
      <trkpt lat="50.725619299337268" lon="13.212784398347139">
        <ele>424</ele>
        <time>2026-08-29T11:12:56Z</time>
      </trkpt>
      <trkpt lat="50.725651737302542" lon="13.212796468287706">
        <ele>424</ele>
        <time>2026-08-29T11:12:57Z</time>
      </trkpt>
      <trkpt lat="50.725685432553291" lon="13.212813986465335">
        <ele>424</ele>
        <time>2026-08-29T11:12:58Z</time>
      </trkpt>
      <trkpt lat="50.72572248056531" lon="13.212838629260659">
        <ele>425</ele>
        <time>2026-08-29T11:12:59Z</time>
      </trkpt>
      <trkpt lat="50.725755840539932" lon="13.212839551270008">
        <ele>425</ele>
        <time>2026-08-29T11:13:00Z</time>
      </trkpt>
      <trkpt lat="50.725783919915557" lon="13.212848855182528">
        <ele>424</ele>
        <time>2026-08-29T11:13:01Z</time>
      </trkpt>
      <trkpt lat="50.72580998763442" lon="13.21285966783762">
        <ele>425</ele>
        <time>2026-08-29T11:13:02Z</time>
      </trkpt>
      <trkpt lat="50.725838989019394" lon="13.212887076660991">
        <ele>425</ele>
        <time>2026-08-29T11:13:03Z</time>
      </trkpt>
      <trkpt lat="50.725867906585336" lon="13.21290316991508">
        <ele>424</ele>
        <time>2026-08-29T11:13:04Z</time>
      </trkpt>
      <trkpt lat="50.72589598596096" lon="13.212915994226933">
        <ele>425</ele>
        <time>2026-08-29T11:13:05Z</time>
      </trkpt>
      <trkpt lat="50.725922472774982" lon="13.212927896529436">
        <ele>424</ele>
        <time>2026-08-29T11:13:06Z</time>
      </trkpt>
      <trkpt lat="50.725945690646768" lon="13.212938625365496">
        <ele>425</ele>
        <time>2026-08-29T11:13:07Z</time>
      </trkpt>
      <trkpt lat="50.725973267108202" lon="13.212955305352807">
        <ele>425</ele>
        <time>2026-08-29T11:13:08Z</time>
      </trkpt>
      <trkpt lat="50.725995060056448" lon="13.21296326816082">
        <ele>425</ele>
        <time>2026-08-29T11:13:09Z</time>
      </trkpt>
      <trkpt lat="50.726019367575645" lon="13.212980031967163">
        <ele>425</ele>
        <time>2026-08-29T11:13:10Z</time>
      </trkpt>
      <trkpt lat="50.726041998714209" lon="13.21299109607935">
        <ele>425</ele>
        <time>2026-08-29T11:13:11Z</time>
      </trkpt>
      <trkpt lat="50.726064378395677" lon="13.213004926219583">
        <ele>425</ele>
        <time>2026-08-29T11:13:12Z</time>
      </trkpt>
      <trkpt lat="50.726085584610701" lon="13.213031245395541">
        <ele>425</ele>
        <time>2026-08-29T11:13:13Z</time>
      </trkpt>
      <trkpt lat="50.726104192435741" lon="13.213051361963153">
        <ele>425</ele>
        <time>2026-08-29T11:13:14Z</time>
      </trkpt>
      <trkpt lat="50.726120201870799" lon="13.213065359741449">
        <ele>426</ele>
        <time>2026-08-29T11:13:15Z</time>
      </trkpt>
      <trkpt lat="50.726132020354271" lon="13.213072316721082">
        <ele>425</ele>
        <time>2026-08-29T11:13:16Z</time>
      </trkpt>
      <trkpt lat="50.726146604865789" lon="13.213075585663319">
        <ele>426</ele>
        <time>2026-08-29T11:13:17Z</time>
      </trkpt>
      <trkpt lat="50.726159764453769" lon="13.213080698624253">
        <ele>426</ele>
        <time>2026-08-29T11:13:18Z</time>
      </trkpt>
      <trkpt lat="50.726172337308526" lon="13.213088242337108">
        <ele>426</ele>
        <time>2026-08-29T11:13:19Z</time>
      </trkpt>
      <trkpt lat="50.726180300116539" lon="13.213095534592867">
        <ele>426</ele>
        <time>2026-08-29T11:13:20Z</time>
      </trkpt>
      <trkpt lat="50.72618767619133" lon="13.213108275085688">
        <ele>427</ele>
        <time>2026-08-29T11:13:21Z</time>
      </trkpt>
      <trkpt lat="50.7262013386935" lon="13.213127134367824">
        <ele>428</ele>
        <time>2026-08-29T11:13:22Z</time>
      </trkpt>
      <trkpt lat="50.726222964003682" lon="13.213148172944784">
        <ele>428</ele>
        <time>2026-08-29T11:13:23Z</time>
      </trkpt>
      <trkpt lat="50.726238889619708" lon="13.21317046880722">
        <ele>428</ele>
        <time>2026-08-29T11:13:24Z</time>
      </trkpt>
      <trkpt lat="50.726247690618038" lon="13.213196704164147">
        <ele>428</ele>
        <time>2026-08-29T11:13:25Z</time>
      </trkpt>
      <trkpt lat="50.726251881569624" lon="13.213213048875332">
        <ele>428</ele>
        <time>2026-08-29T11:13:26Z</time>
      </trkpt>
      <trkpt lat="50.726258670911193" lon="13.213223358616233">
        <ele>428</ele>
        <time>2026-08-29T11:13:27Z</time>
      </trkpt>
      <trkpt lat="50.726261353120208" lon="13.213241882622242">
        <ele>427</ele>
        <time>2026-08-29T11:13:28Z</time>
      </trkpt>
      <trkpt lat="50.726266801357269" lon="13.213247917592525">
        <ele>427</ele>
        <time>2026-08-29T11:13:29Z</time>
      </trkpt>
      <trkpt lat="50.726274345070124" lon="13.213255377486348">
        <ele>427</ele>
        <time>2026-08-29T11:13:30Z</time>
      </trkpt>
      <trkpt lat="50.726280799135566" lon="13.213263088837266">
        <ele>427</ele>
        <time>2026-08-29T11:13:31Z</time>
      </trkpt>
      <trkpt lat="50.726288091391325" lon="13.213266860693693">
        <ele>427</ele>
        <time>2026-08-29T11:13:32Z</time>
      </trkpt>
      <trkpt lat="50.726299490779638" lon="13.213276835158467">
        <ele>427</ele>
        <time>2026-08-29T11:13:33Z</time>
      </trkpt>
      <trkpt lat="50.726315248757601" lon="13.213302651420236">
        <ele>427</ele>
        <time>2026-08-29T11:13:34Z</time>
      </trkpt>
      <trkpt lat="50.726335532963276" lon="13.21332436054945">
        <ele>427</ele>
        <time>2026-08-29T11:13:35Z</time>
      </trkpt>
      <trkpt lat="50.72635481134057" lon="13.213339950889349">
        <ele>427</ele>
        <time>2026-08-29T11:13:36Z</time>
      </trkpt>
      <trkpt lat="50.726369731128216" lon="13.213356463238597">
        <ele>427</ele>
        <time>2026-08-29T11:13:37Z</time>
      </trkpt>
      <trkpt lat="50.726389260962605" lon="13.213374149054289">
        <ele>427</ele>
        <time>2026-08-29T11:13:38Z</time>
      </trkpt>
      <trkpt lat="50.726408120244741" lon="13.213390493765473">
        <ele>427</ele>
        <time>2026-08-29T11:13:39Z</time>
      </trkpt>
      <trkpt lat="50.726425470784307" lon="13.213403820991516">
        <ele>427</ele>
        <time>2026-08-29T11:13:40Z</time>
      </trkpt>
      <trkpt lat="50.726443575695157" lon="13.213425865396857">
        <ele>427</ele>
        <time>2026-08-29T11:13:41Z</time>
      </trkpt>
      <trkpt lat="50.726474840193987" lon="13.213454782962799">
        <ele>427</ele>
        <time>2026-08-29T11:13:42Z</time>
      </trkpt>
      <trkpt lat="50.726509038358927" lon="13.21349149569869">
        <ele>427</ele>
        <time>2026-08-29T11:13:43Z</time>
      </trkpt>
      <trkpt lat="50.726535608991981" lon="13.213534327223897">
        <ele>427</ele>
        <time>2026-08-29T11:13:44Z</time>
      </trkpt>
      <trkpt lat="50.726557737216353" lon="13.213568022474647">
        <ele>427</ele>
        <time>2026-08-29T11:13:45Z</time>
      </trkpt>
      <trkpt lat="50.726585816591978" lon="13.213606243953109">
        <ele>428</ele>
        <time>2026-08-29T11:13:46Z</time>
      </trkpt>
      <trkpt lat="50.726604508236051" lon="13.213646644726396">
        <ele>428</ele>
        <time>2026-08-29T11:13:47Z</time>
      </trkpt>
      <trkpt lat="50.726623451337218" lon="13.213680423796177">
        <ele>428</ele>
        <time>2026-08-29T11:13:48Z</time>
      </trkpt>
      <trkpt lat="50.726638287305832" lon="13.213715879246593">
        <ele>428</ele>
        <time>2026-08-29T11:13:49Z</time>
      </trkpt>
      <trkpt lat="50.726649099960923" lon="13.213750245049596">
        <ele>428</ele>
        <time>2026-08-29T11:13:50Z</time>
      </trkpt>
      <trkpt lat="50.726671228185296" lon="13.213782850652933">
        <ele>428</ele>
        <time>2026-08-29T11:13:51Z</time>
      </trkpt>
      <trkpt lat="50.726689416915178" lon="13.213819395750761">
        <ele>428</ele>
        <time>2026-08-29T11:13:52Z</time>
      </trkpt>
      <trkpt lat="50.726703582331538" lon="13.213853845372796">
        <ele>429</ele>
        <time>2026-08-29T11:13:53Z</time>
      </trkpt>
      <trkpt lat="50.726728141307831" lon="13.213883684948087">
        <ele>429</ele>
        <time>2026-08-29T11:13:54Z</time>
      </trkpt>
      <trkpt lat="50.726741719990969" lon="13.213919727131724">
        <ele>429</ele>
        <time>2026-08-29T11:13:55Z</time>
      </trkpt>
      <trkpt lat="50.72675496339798" lon="13.213963145390153">
        <ele>430</ele>
        <time>2026-08-29T11:13:56Z</time>
      </trkpt>
      <trkpt lat="50.726765189319849" lon="13.214010503143072">
        <ele>430</ele>
        <time>2026-08-29T11:13:57Z</time>
      </trkpt>
      <trkpt lat="50.726776337251067" lon="13.214064314961433">
        <ele>430</ele>
        <time>2026-08-29T11:13:58Z</time>
      </trkpt>
      <trkpt lat="50.726782288402319" lon="13.214115025475621">
        <ele>430</ele>
        <time>2026-08-29T11:13:59Z</time>
      </trkpt>
      <trkpt lat="50.726795112714171" lon="13.214162634685636">
        <ele>430</ele>
        <time>2026-08-29T11:14:00Z</time>
      </trkpt>
      <trkpt lat="50.726806595921516" lon="13.214203370735049">
        <ele>431</ele>
        <time>2026-08-29T11:14:01Z</time>
      </trkpt>
      <trkpt lat="50.726817660033703" lon="13.214249052107334">
        <ele>431</ele>
        <time>2026-08-29T11:14:02Z</time>
      </trkpt>
      <trkpt lat="50.726830987259746" lon="13.214287189766765">
        <ele>431</ele>
        <time>2026-08-29T11:14:03Z</time>
      </trkpt>
      <trkpt lat="50.726848589256406" lon="13.214331530034542">
        <ele>431</ele>
        <time>2026-08-29T11:14:04Z</time>
      </trkpt>
      <trkpt lat="50.726862419396639" lon="13.214386766776443">
        <ele>431</ele>
        <time>2026-08-29T11:14:05Z</time>
      </trkpt>
      <trkpt lat="50.726879769936204" lon="13.214441249147058">
        <ele>432</ele>
        <time>2026-08-29T11:14:06Z</time>
      </trkpt>
      <trkpt lat="50.726899467408657" lon="13.214489109814167">
        <ele>432</ele>
        <time>2026-08-29T11:14:07Z</time>
      </trkpt>
      <trkpt lat="50.726908519864082" lon="13.21453956887126">
        <ele>432</ele>
        <time>2026-08-29T11:14:08Z</time>
      </trkpt>
      <trkpt lat="50.726919081062078" lon="13.214593045413494">
        <ele>432</ele>
        <time>2026-08-29T11:14:09Z</time>
      </trkpt>
      <trkpt lat="50.726933078840375" lon="13.214640906080604">
        <ele>432</ele>
        <time>2026-08-29T11:14:10Z</time>
      </trkpt>
      <trkpt lat="50.726938527077436" lon="13.214699495583773">
        <ele>432</ele>
        <time>2026-08-29T11:14:11Z</time>
      </trkpt>
      <trkpt lat="50.726952021941543" lon="13.214765544980764">
        <ele>432</ele>
        <time>2026-08-29T11:14:12Z</time>
      </trkpt>
      <trkpt lat="50.726972389966249" lon="13.214830169454217">
        <ele>431</ele>
        <time>2026-08-29T11:14:13Z</time>
      </trkpt>
      <trkpt lat="50.726988567039371" lon="13.214884232729673">
        <ele>431</ele>
        <time>2026-08-29T11:14:14Z</time>
      </trkpt>
      <trkpt lat="50.726995440199971" lon="13.214935278519988">
        <ele>432</ele>
        <time>2026-08-29T11:14:15Z</time>
      </trkpt>
      <trkpt lat="50.727008599787951" lon="13.21498523466289">
        <ele>432</ele>
        <time>2026-08-29T11:14:16Z</time>
      </trkpt>
      <trkpt lat="50.727011952549219" lon="13.215046841651201">
        <ele>433</ele>
        <time>2026-08-29T11:14:17Z</time>
      </trkpt>
      <trkpt lat="50.727011617273092" lon="13.21511322632432">
        <ele>433</ele>
        <time>2026-08-29T11:14:18Z</time>
      </trkpt>
      <trkpt lat="50.727018490433693" lon="13.215175922960043">
        <ele>433</ele>
        <time>2026-08-29T11:14:19Z</time>
      </trkpt>
      <trkpt lat="50.727029219269753" lon="13.215238871052861">
        <ele>433</ele>
        <time>2026-08-29T11:14:20Z</time>
      </trkpt>
      <trkpt lat="50.727040702477098" lon="13.215300813317299">
        <ele>433</ele>
        <time>2026-08-29T11:14:21Z</time>
      </trkpt>
      <trkpt lat="50.727042211219668" lon="13.215351523831487">
        <ele>433</ele>
        <time>2026-08-29T11:14:22Z</time>
      </trkpt>
      <trkpt lat="50.727045899257064" lon="13.215412711724639">
        <ele>433</ele>
        <time>2026-08-29T11:14:23Z</time>
      </trkpt>
      <trkpt lat="50.72705059312284" lon="13.215454621240497">
        <ele>434</ele>
        <time>2026-08-29T11:14:24Z</time>
      </trkpt>
      <trkpt lat="50.727044139057398" lon="13.215501727536321">
        <ele>433</ele>
        <time>2026-08-29T11:14:25Z</time>
      </trkpt>
      <trkpt lat="50.727047575637698" lon="13.215538943186402">
        <ele>433</ele>
        <time>2026-08-29T11:14:26Z</time>
      </trkpt>
      <trkpt lat="50.727052856236696" lon="13.215579260140657">
        <ele>434</ele>
        <time>2026-08-29T11:14:27Z</time>
      </trkpt>
      <trkpt lat="50.727051347494125" lon="13.2156184874475">
        <ele>434</ele>
        <time>2026-08-29T11:14:28Z</time>
      </trkpt>
      <trkpt lat="50.727058639749885" lon="13.215646902099252">
        <ele>434</ele>
        <time>2026-08-29T11:14:29Z</time>
      </trkpt>
      <trkpt lat="50.727060567587614" lon="13.215660564601421">
        <ele>434</ele>
        <time>2026-08-29T11:14:30Z</time>
      </trkpt>
      <trkpt lat="50.727066770195961" lon="13.215675484389067">
        <ele>435</ele>
        <time>2026-08-29T11:14:31Z</time>
      </trkpt>
      <trkpt lat="50.727073140442371" lon="13.215690236538649">
        <ele>435</ele>
        <time>2026-08-29T11:14:32Z</time>
      </trkpt>
      <trkpt lat="50.727074397727847" lon="13.215703563764691">
        <ele>435</ele>
        <time>2026-08-29T11:14:33Z</time>
      </trkpt>
      <trkpt lat="50.727073894813657" lon="13.215712197124958">
        <ele>436</ele>
        <time>2026-08-29T11:14:34Z</time>
      </trkpt>
      <trkpt lat="50.727080600336194" lon="13.215719405561686">
        <ele>436</ele>
        <time>2026-08-29T11:14:35Z</time>
      </trkpt>
      <trkpt lat="50.727086300030351" lon="13.215737259015441">
        <ele>436</ele>
        <time>2026-08-29T11:14:36Z</time>
      </trkpt>
      <trkpt lat="50.727095771580935" lon="13.215753603726625">
        <ele>437</ele>
        <time>2026-08-29T11:14:37Z</time>
      </trkpt>
      <trkpt lat="50.727105662226677" lon="13.215771121904254">
        <ele>437</ele>
        <time>2026-08-29T11:14:38Z</time>
      </trkpt>
      <trkpt lat="50.727108512073755" lon="13.215799452736974">
        <ele>437</ele>
        <time>2026-08-29T11:14:39Z</time>
      </trkpt>
      <trkpt lat="50.727108009159565" lon="13.21583591401577">
        <ele>437</ele>
        <time>2026-08-29T11:14:40Z</time>
      </trkpt>
      <trkpt lat="50.727104069665074" lon="13.21586818434298">
        <ele>437</ele>
        <time>2026-08-29T11:14:41Z</time>
      </trkpt>
      <trkpt lat="50.727100381627679" lon="13.215905232354999">
        <ele>437</ele>
        <time>2026-08-29T11:14:42Z</time>
      </trkpt>
      <trkpt lat="50.727099878713489" lon="13.215945716947317">
        <ele>438</ele>
        <time>2026-08-29T11:14:43Z</time>
      </trkpt>
      <trkpt lat="50.727095520123839" lon="13.215983100235462">
        <ele>438</ele>
        <time>2026-08-29T11:14:44Z</time>
      </trkpt>
      <trkpt lat="50.727099794894457" lon="13.216030122712255">
        <ele>438</ele>
        <time>2026-08-29T11:14:45Z</time>
      </trkpt>
      <trkpt lat="50.72709945961833" lon="13.216088796034455">
        <ele>438</ele>
        <time>2026-08-29T11:14:46Z</time>
      </trkpt>
      <trkpt lat="50.727112451568246" lon="13.216167837381363">
        <ele>437</ele>
        <time>2026-08-29T11:14:47Z</time>
      </trkpt>
      <trkpt lat="50.727112283930182" lon="13.216226510703564">
        <ele>437</ele>
        <time>2026-08-29T11:14:48Z</time>
      </trkpt>
      <trkpt lat="50.727119240909815" lon="13.21628250181675">
        <ele>437</ele>
        <time>2026-08-29T11:14:49Z</time>
      </trkpt>
      <trkpt lat="50.727129047736526" lon="13.216336481273174">
        <ele>436</ele>
        <time>2026-08-29T11:14:50Z</time>
      </trkpt>
      <trkpt lat="50.727128209546208" lon="13.21639540605247">
        <ele>436</ele>
        <time>2026-08-29T11:14:51Z</time>
      </trkpt>
      <trkpt lat="50.727124940603971" lon="13.216453660279512">
        <ele>436</ele>
        <time>2026-08-29T11:14:52Z</time>
      </trkpt>
      <trkpt lat="50.727127538993955" lon="13.216507555916905">
        <ele>436</ele>
        <time>2026-08-29T11:14:53Z</time>
      </trkpt>
      <trkpt lat="50.727132232859731" lon="13.2165561709553">
        <ele>435</ele>
        <time>2026-08-29T11:14:54Z</time>
      </trkpt>
      <trkpt lat="50.727145140990615" lon="13.216601684689522">
        <ele>435</ele>
        <time>2026-08-29T11:14:55Z</time>
      </trkpt>
      <trkpt lat="50.727166011929512" lon="13.216639738529921">
        <ele>435</ele>
        <time>2026-08-29T11:14:56Z</time>
      </trkpt>
      <trkpt lat="50.727188978344202" lon="13.216681145131588">
        <ele>435</ele>
        <time>2026-08-29T11:14:57Z</time>
      </trkpt>
      <trkpt lat="50.72720062918961" lon="13.216728838160634">
        <ele>435</ele>
        <time>2026-08-29T11:14:58Z</time>
      </trkpt>
      <trkpt lat="50.727219739928842" lon="13.216783571988344">
        <ele>435</ele>
        <time>2026-08-29T11:14:59Z</time>
      </trkpt>
      <trkpt lat="50.727244131267071" lon="13.216839395463467">
        <ele>435</ele>
        <time>2026-08-29T11:15:00Z</time>
      </trkpt>
      <trkpt lat="50.727267181500793" lon="13.216910641640425">
        <ele>434</ele>
        <time>2026-08-29T11:15:01Z</time>
      </trkpt>
      <trkpt lat="50.727287968620658" lon="13.216972332447767">
        <ele>435</ele>
        <time>2026-08-29T11:15:02Z</time>
      </trkpt>
      <trkpt lat="50.727315880358219" lon="13.217029077932239">
        <ele>434</ele>
        <time>2026-08-29T11:15:03Z</time>
      </trkpt>
      <trkpt lat="50.727334739640355" lon="13.2170794531703">
        <ele>434</ele>
        <time>2026-08-29T11:15:04Z</time>
      </trkpt>
      <trkpt lat="50.727351671084762" lon="13.217130582779646">
        <ele>434</ele>
        <time>2026-08-29T11:15:05Z</time>
      </trkpt>
      <trkpt lat="50.727370027452707" lon="13.217167546972632">
        <ele>434</ele>
        <time>2026-08-29T11:15:06Z</time>
      </trkpt>
      <trkpt lat="50.727387210354209" lon="13.217211132869124">
        <ele>434</ele>
        <time>2026-08-29T11:15:07Z</time>
      </trkpt>
      <trkpt lat="50.727397771552205" lon="13.217262933030725">
        <ele>434</ele>
        <time>2026-08-29T11:15:08Z</time>
      </trkpt>
      <trkpt lat="50.727403219789267" lon="13.217305764555931">
        <ele>434</ele>
        <time>2026-08-29T11:15:09Z</time>
      </trkpt>
      <trkpt lat="50.727417720481753" lon="13.217347925528884">
        <ele>434</ele>
        <time>2026-08-29T11:15:10Z</time>
      </trkpt>
      <trkpt lat="50.727430377155542" lon="13.217383632436395">
        <ele>434</ele>
        <time>2026-08-29T11:15:11Z</time>
      </trkpt>
      <trkpt lat="50.727442530915141" lon="13.217412466183305">
        <ele>434</ele>
        <time>2026-08-29T11:15:12Z</time>
      </trkpt>
      <trkpt lat="50.727451918646693" lon="13.217451358214021">
        <ele>434</ele>
        <time>2026-08-29T11:15:13Z</time>
      </trkpt>
      <trkpt lat="50.72746105492115" lon="13.217486562207341">
        <ele>434</ele>
        <time>2026-08-29T11:15:14Z</time>
      </trkpt>
      <trkpt lat="50.727473963052034" lon="13.217512797564268">
        <ele>434</ele>
        <time>2026-08-29T11:15:15Z</time>
      </trkpt>
      <trkpt lat="50.727490391582251" lon="13.217551102861762">
        <ele>434</ele>
        <time>2026-08-29T11:15:16Z</time>
      </trkpt>
      <trkpt lat="50.727504892274737" lon="13.217586809769273">
        <ele>434</ele>
        <time>2026-08-29T11:15:17Z</time>
      </trkpt>
      <trkpt lat="50.727523500099778" lon="13.217622097581625">
        <ele>434</ele>
        <time>2026-08-29T11:15:18Z</time>
      </trkpt>
      <trkpt lat="50.727544538676739" lon="13.217663420364261">
        <ele>433</ele>
        <time>2026-08-29T11:15:19Z</time>
      </trkpt>
      <trkpt lat="50.727566750720143" lon="13.217688146978617">
        <ele>434</ele>
        <time>2026-08-29T11:15:20Z</time>
      </trkpt>
      <trkpt lat="50.727588962763548" lon="13.217718657106161">
        <ele>434</ele>
        <time>2026-08-29T11:15:21Z</time>
      </trkpt>
      <trkpt lat="50.727610168978572" lon="13.217755034565926">
        <ele>434</ele>
        <time>2026-08-29T11:15:22Z</time>
      </trkpt>
      <trkpt lat="50.727629782631993" lon="13.21779191493988">
        <ele>434</ele>
        <time>2026-08-29T11:15:23Z</time>
      </trkpt>
      <trkpt lat="50.727652329951525" lon="13.21781923994422">
        <ele>435</ele>
        <time>2026-08-29T11:15:24Z</time>
      </trkpt>
      <trkpt lat="50.727683762088418" lon="13.217846481129527">
        <ele>435</ele>
        <time>2026-08-29T11:15:25Z</time>
      </trkpt>
      <trkpt lat="50.727703962475061" lon="13.217874392867088">
        <ele>435</ele>
        <time>2026-08-29T11:15:26Z</time>
      </trkpt>
      <trkpt lat="50.727722402662039" lon="13.217897359281778">
        <ele>435</ele>
        <time>2026-08-29T11:15:27Z</time>
      </trkpt>
      <trkpt lat="50.727742100134492" lon="13.217922085896134">
        <ele>434</ele>
        <time>2026-08-29T11:15:28Z</time>
      </trkpt>
      <trkpt lat="50.727762971073389" lon="13.217952260747552">
        <ele>435</ele>
        <time>2026-08-29T11:15:29Z</time>
      </trkpt>
      <trkpt lat="50.72778551839292" lon="13.217973215505481">
        <ele>435</ele>
        <time>2026-08-29T11:15:30Z</time>
      </trkpt>
      <trkpt lat="50.727803790941834" lon="13.217997858300805">
        <ele>435</ele>
        <time>2026-08-29T11:15:31Z</time>
      </trkpt>
      <trkpt lat="50.727818878367543" lon="13.218013951554894">
        <ele>434</ele>
        <time>2026-08-29T11:15:32Z</time>
      </trkpt>
      <trkpt lat="50.72784410789609" lon="13.218036834150553">
        <ele>434</ele>
        <time>2026-08-29T11:15:33Z</time>
      </trkpt>
      <trkpt lat="50.727875623852015" lon="13.218055693432689">
        <ele>434</ele>
        <time>2026-08-29T11:15:34Z</time>
      </trkpt>
      <trkpt lat="50.727899679914117" lon="13.218073965981603">
        <ele>434</ele>
        <time>2026-08-29T11:15:35Z</time>
      </trkpt>
      <trkpt lat="50.727927507832646" lon="13.218086957931519">
        <ele>434</ele>
        <time>2026-08-29T11:15:36Z</time>
      </trkpt>
      <trkpt lat="50.727949049323797" lon="13.218109169974923">
        <ele>434</ele>
        <time>2026-08-29T11:15:37Z</time>
      </trkpt>
      <trkpt lat="50.727969920262694" lon="13.218125430867076">
        <ele>434</ele>
        <time>2026-08-29T11:15:38Z</time>
      </trkpt>
      <trkpt lat="50.727995987981558" lon="13.218147056177258">
        <ele>434</ele>
        <time>2026-08-29T11:15:39Z</time>
      </trkpt>
      <trkpt lat="50.72801954112947" lon="13.218166083097458">
        <ele>435</ele>
        <time>2026-08-29T11:15:40Z</time>
      </trkpt>
      <trkpt lat="50.728038651868701" lon="13.21818619966507">
        <ele>435</ele>
        <time>2026-08-29T11:15:41Z</time>
      </trkpt>
      <trkpt lat="50.728056840598583" lon="13.218208076432347">
        <ele>435</ele>
        <time>2026-08-29T11:15:42Z</time>
      </trkpt>
      <trkpt lat="50.728076538071036" lon="13.218231881037354">
        <ele>435</ele>
        <time>2026-08-29T11:15:43Z</time>
      </trkpt>
      <trkpt lat="50.728107299655676" lon="13.218248225748539">
        <ele>435</ele>
        <time>2026-08-29T11:15:44Z</time>
      </trkpt>
      <trkpt lat="50.728139821439981" lon="13.218267755582929">
        <ele>435</ele>
        <time>2026-08-29T11:15:45Z</time>
      </trkpt>
      <trkpt lat="50.728171169757843" lon="13.21828443557024">
        <ele>435</ele>
        <time>2026-08-29T11:15:46Z</time>
      </trkpt>
      <trkpt lat="50.728205870836973" lon="13.218289045616984">
        <ele>435</ele>
        <time>2026-08-29T11:15:47Z</time>
      </trkpt>
      <trkpt lat="50.728239398449659" lon="13.218289632350206">
        <ele>436</ele>
        <time>2026-08-29T11:15:48Z</time>
      </trkpt>
      <trkpt lat="50.728269908577204" lon="13.21828929707408">
        <ele>436</ele>
        <time>2026-08-29T11:15:49Z</time>
      </trkpt>
      <trkpt lat="50.728304609656334" lon="13.218288039788604">
        <ele>436</ele>
        <time>2026-08-29T11:15:50Z</time>
      </trkpt>
      <trkpt lat="50.728338724002242" lon="13.218290470540524">
        <ele>436</ele>
        <time>2026-08-29T11:15:51Z</time>
      </trkpt>
      <trkpt lat="50.728375352919102" lon="13.218292566016316">
        <ele>436</ele>
        <time>2026-08-29T11:15:52Z</time>
      </trkpt>
      <trkpt lat="50.728410053998232" lon="13.218289464712143">
        <ele>436</ele>
        <time>2026-08-29T11:15:53Z</time>
      </trkpt>
      <trkpt lat="50.728452131152153" lon="13.218277227133512">
        <ele>436</ele>
        <time>2026-08-29T11:15:54Z</time>
      </trkpt>
      <trkpt lat="50.728486245498061" lon="13.218276808038354">
        <ele>435</ele>
        <time>2026-08-29T11:15:55Z</time>
      </trkpt>
      <trkpt lat="50.728518180549145" lon="13.218273790553212">
        <ele>435</ele>
        <time>2026-08-29T11:15:56Z</time>
      </trkpt>
      <trkpt lat="50.728556485846639" lon="13.218282675370574">
        <ele>435</ele>
        <time>2026-08-29T11:15:57Z</time>
      </trkpt>
      <trkpt lat="50.728594120591879" lon="13.218282340094447">
        <ele>435</ele>
        <time>2026-08-29T11:15:58Z</time>
      </trkpt>
      <trkpt lat="50.728642400354147" lon="13.218283681198955">
        <ele>436</ele>
        <time>2026-08-29T11:15:59Z</time>
      </trkpt>
      <trkpt lat="50.728678107261658" lon="13.218280747532845">
        <ele>436</ele>
        <time>2026-08-29T11:16:00Z</time>
      </trkpt>
      <trkpt lat="50.728708617389202" lon="13.218281082808971">
        <ele>436</ele>
        <time>2026-08-29T11:16:01Z</time>
      </trkpt>
      <trkpt lat="50.728741474449635" lon="13.218280412256718">
        <ele>436</ele>
        <time>2026-08-29T11:16:02Z</time>
      </trkpt>
      <trkpt lat="50.728775253519416" lon="13.218272030353546">
        <ele>436</ele>
        <time>2026-08-29T11:16:03Z</time>
      </trkpt>
      <trkpt lat="50.728809451684356" lon="13.218261217698455">
        <ele>436</ele>
        <time>2026-08-29T11:16:04Z</time>
      </trkpt>
      <trkpt lat="50.728843817487359" lon="13.218246717005968">
        <ele>437</ele>
        <time>2026-08-29T11:16:05Z</time>
      </trkpt>
      <trkpt lat="50.728872567415237" lon="13.218240765854716">
        <ele>436</ele>
        <time>2026-08-29T11:16:06Z</time>
      </trkpt>
      <trkpt lat="50.728906681761146" lon="13.218228360638022">
        <ele>436</ele>
        <time>2026-08-29T11:16:07Z</time>
      </trkpt>
      <trkpt lat="50.728943813592196" lon="13.218212351202965">
        <ele>437</ele>
        <time>2026-08-29T11:16:08Z</time>
      </trkpt>
      <trkpt lat="50.728979520499706" lon="13.218196174129844">
        <ele>437</ele>
        <time>2026-08-29T11:16:09Z</time>
      </trkpt>
      <trkpt lat="50.729007935151458" lon="13.218179242685437">
        <ele>438</ele>
        <time>2026-08-29T11:16:10Z</time>
      </trkpt>
      <trkpt lat="50.729035260155797" lon="13.218165077269077">
        <ele>438</ele>
        <time>2026-08-29T11:16:11Z</time>
      </trkpt>
      <trkpt lat="50.729065435007215" lon="13.218143368139863">
        <ele>438</ele>
        <time>2026-08-29T11:16:12Z</time>
      </trkpt>
      <trkpt lat="50.729095777496696" lon="13.218136243522167">
        <ele>438</ele>
        <time>2026-08-29T11:16:13Z</time>
      </trkpt>
      <trkpt lat="50.729125700891018" lon="13.21812660433352">
        <ele>438</ele>
        <time>2026-08-29T11:16:14Z</time>
      </trkpt>
      <trkpt lat="50.729156881570816" lon="13.218119312077761">
        <ele>438</ele>
        <time>2026-08-29T11:16:15Z</time>
      </trkpt>
      <trkpt lat="50.729185547679663" lon="13.218108499422669">
        <ele>438</ele>
        <time>2026-08-29T11:16:16Z</time>
      </trkpt>
      <trkpt lat="50.729223350062966" lon="13.218092322349548">
        <ele>439</ele>
        <time>2026-08-29T11:16:17Z</time>
      </trkpt>
      <trkpt lat="50.729255368933082" lon="13.218086790293455">
        <ele>438</ele>
        <time>2026-08-29T11:16:18Z</time>
      </trkpt>
      <trkpt lat="50.729286130517721" lon="13.218079833313823">
        <ele>438</ele>
        <time>2026-08-29T11:16:19Z</time>
      </trkpt>
      <trkpt lat="50.729319155216217" lon="13.218069272115827">
        <ele>438</ele>
        <time>2026-08-29T11:16:20Z</time>
      </trkpt>
      <trkpt lat="50.729350168257952" lon="13.218057537451386">
        <ele>438</ele>
        <time>2026-08-29T11:16:21Z</time>
      </trkpt>
      <trkpt lat="50.72938235476613" lon="13.21803867816925">
        <ele>438</ele>
        <time>2026-08-29T11:16:22Z</time>
      </trkpt>
      <trkpt lat="50.729410601779819" lon="13.218026608228683">
        <ele>438</ele>
        <time>2026-08-29T11:16:23Z</time>
      </trkpt>
      <trkpt lat="50.729445051401854" lon="13.218022417277098">
        <ele>437</ele>
        <time>2026-08-29T11:16:24Z</time>
      </trkpt>
      <trkpt lat="50.729466928169131" lon="13.218014286831021">
        <ele>437</ele>
        <time>2026-08-29T11:16:25Z</time>
      </trkpt>
      <trkpt lat="50.729494672268629" lon="13.218001378700137">
        <ele>436</ele>
        <time>2026-08-29T11:16:26Z</time>
      </trkpt>
      <trkpt lat="50.729522248730063" lon="13.217988638207316">
        <ele>436</ele>
        <time>2026-08-29T11:16:27Z</time>
      </trkpt>
      <trkpt lat="50.729558793827891" lon="13.217976903542876">
        <ele>436</ele>
        <time>2026-08-29T11:16:28Z</time>
      </trkpt>
      <trkpt lat="50.729589974507689" lon="13.217972880229354">
        <ele>436</ele>
        <time>2026-08-29T11:16:29Z</time>
      </trkpt>
      <trkpt lat="50.729619059711695" lon="13.217966677621007">
        <ele>436</ele>
        <time>2026-08-29T11:16:30Z</time>
      </trkpt>
      <trkpt lat="50.729644792154431" lon="13.217953434213996">
        <ele>436</ele>
        <time>2026-08-29T11:16:31Z</time>
      </trkpt>
      <trkpt lat="50.729668345302343" lon="13.21793801151216">
        <ele>437</ele>
        <time>2026-08-29T11:16:32Z</time>
      </trkpt>
      <trkpt lat="50.729691311717033" lon="13.217926025390625">
        <ele>437</ele>
        <time>2026-08-29T11:16:33Z</time>
      </trkpt>
      <trkpt lat="50.729712015017867" lon="13.217904986813664">
        <ele>437</ele>
        <time>2026-08-29T11:16:34Z</time>
      </trkpt>
      <trkpt lat="50.729730539023876" lon="13.217888306826353">
        <ele>437</ele>
        <time>2026-08-29T11:16:35Z</time>
      </trkpt>
      <trkpt lat="50.729756522923708" lon="13.217882104218006">
        <ele>437</ele>
        <time>2026-08-29T11:16:36Z</time>
      </trkpt>
      <trkpt lat="50.729784769937396" lon="13.217879254370928">
        <ele>437</ele>
        <time>2026-08-29T11:16:37Z</time>
      </trkpt>
      <trkpt lat="50.729813687503338" lon="13.217880679294467">
        <ele>437</ele>
        <time>2026-08-29T11:16:38Z</time>
      </trkpt>
      <trkpt lat="50.72983531281352" lon="13.217885540798306">
        <ele>436</ele>
        <time>2026-08-29T11:16:39Z</time>
      </trkpt>
      <trkpt lat="50.729862973093987" lon="13.217880511656404">
        <ele>436</ele>
        <time>2026-08-29T11:16:40Z</time>
      </trkpt>
      <trkpt lat="50.729882000014186" lon="13.2178686093539">
        <ele>437</ele>
        <time>2026-08-29T11:16:41Z</time>
      </trkpt>
      <trkpt lat="50.729898428544402" lon="13.217861820012331">
        <ele>437</ele>
        <time>2026-08-29T11:16:42Z</time>
      </trkpt>
      <trkpt lat="50.729916784912348" lon="13.217857042327523">
        <ele>437</ele>
        <time>2026-08-29T11:16:43Z</time>
      </trkpt>
      <trkpt lat="50.729923322796822" lon="13.21785100735724">
        <ele>437</ele>
        <time>2026-08-29T11:16:44Z</time>
      </trkpt>
      <trkpt lat="50.729933129623532" lon="13.217845307663083">
        <ele>438</ele>
        <time>2026-08-29T11:16:45Z</time>
      </trkpt>
      <trkpt lat="50.729948971420527" lon="13.217841787263751">
        <ele>438</ele>
        <time>2026-08-29T11:16:46Z</time>
      </trkpt>
      <trkpt lat="50.729972440749407" lon="13.217839440330863">
        <ele>438</ele>
        <time>2026-08-29T11:16:47Z</time>
      </trkpt>
      <trkpt lat="50.729994736611843" lon="13.217826951295137">
        <ele>438</ele>
        <time>2026-08-29T11:16:48Z</time>
      </trkpt>
      <trkpt lat="50.730016361922026" lon="13.217822844162583">
        <ele>438</ele>
        <time>2026-08-29T11:16:49Z</time>
      </trkpt>
      <trkpt lat="50.730037400498986" lon="13.217817982658744">
        <ele>439</ele>
        <time>2026-08-29T11:16:50Z</time>
      </trkpt>
      <trkpt lat="50.730054499581456" lon="13.217809600755572">
        <ele>439</ele>
        <time>2026-08-29T11:16:51Z</time>
      </trkpt>
      <trkpt lat="50.730067156255245" lon="13.217796357348561">
        <ele>439</ele>
        <time>2026-08-29T11:16:52Z</time>
      </trkpt>
      <trkpt lat="50.730081321671605" lon="13.217792585492134">
        <ele>439</ele>
        <time>2026-08-29T11:16:53Z</time>
      </trkpt>
      <trkpt lat="50.730103030800819" lon="13.217783197760582">
        <ele>440</ele>
        <time>2026-08-29T11:16:54Z</time>
      </trkpt>
      <trkpt lat="50.730118788778782" lon="13.217778000980616">
        <ele>440</ele>
        <time>2026-08-29T11:16:55Z</time>
      </trkpt>
      <trkpt lat="50.730133960023522" lon="13.217787221074104">
        <ele>441</ele>
        <time>2026-08-29T11:16:56Z</time>
      </trkpt>
      <trkpt lat="50.730145191773772" lon="13.217798620462418">
        <ele>441</ele>
        <time>2026-08-29T11:16:57Z</time>
      </trkpt>
      <trkpt lat="50.730142258107662" lon="13.217800799757242">
        <ele>442</ele>
        <time>2026-08-29T11:16:58Z</time>
      </trkpt>
      <trkpt lat="50.730134127661586" lon="13.21782317943871">
        <ele>442</ele>
        <time>2026-08-29T11:16:59Z</time>
      </trkpt>
      <trkpt lat="50.730125159025192" lon="13.217822927981615">
        <ele>443</ele>
        <time>2026-08-29T11:17:00Z</time>
      </trkpt>
      <trkpt lat="50.730115938931704" lon="13.217826867476106">
        <ele>443</ele>
        <time>2026-08-29T11:17:01Z</time>
      </trkpt>
      <trkpt lat="50.730105461552739" lon="13.217838937416673">
        <ele>444</ele>
        <time>2026-08-29T11:17:02Z</time>
      </trkpt>
      <trkpt lat="50.730088865384459" lon="13.217844720929861">
        <ele>443</ele>
        <time>2026-08-29T11:17:03Z</time>
      </trkpt>
      <trkpt lat="50.730074951425195" lon="13.21785444393754">
        <ele>444</ele>
        <time>2026-08-29T11:17:04Z</time>
      </trkpt>
      <trkpt lat="50.730049889534712" lon="13.217861233279109">
        <ele>444</ele>
        <time>2026-08-29T11:17:05Z</time>
      </trkpt>
      <trkpt lat="50.730029689148068" lon="13.217879505828023">
        <ele>444</ele>
        <time>2026-08-29T11:17:06Z</time>
      </trkpt>
      <trkpt lat="50.730012087151408" lon="13.217889228835702">
        <ele>443</ele>
        <time>2026-08-29T11:17:07Z</time>
      </trkpt>
      <trkpt lat="50.729999095201492" lon="13.217888558283448">
        <ele>444</ele>
        <time>2026-08-29T11:17:08Z</time>
      </trkpt>
      <trkpt lat="50.729983588680625" lon="13.217893503606319">
        <ele>444</ele>
        <time>2026-08-29T11:17:09Z</time>
      </trkpt>
      <trkpt lat="50.729975877329707" lon="13.217895599082112">
        <ele>444</ele>
        <time>2026-08-29T11:17:10Z</time>
      </trkpt>
      <trkpt lat="50.729976128786802" lon="13.217901634052396">
        <ele>444</ele>
        <time>2026-08-29T11:17:11Z</time>
      </trkpt>
      <trkpt lat="50.729974200949073" lon="13.217906076461077">
        <ele>444</ele>
        <time>2026-08-29T11:17:12Z</time>
      </trkpt>
      <trkpt lat="50.729960957542062" lon="13.217911943793297">
        <ele>444</ele>
        <time>2026-08-29T11:17:13Z</time>
      </trkpt>
      <trkpt lat="50.72995500639081" lon="13.21791403926909">
        <ele>443</ele>
        <time>2026-08-29T11:17:14Z</time>
      </trkpt>
      <trkpt lat="50.729948468506336" lon="13.217917308211327">
        <ele>443</ele>
        <time>2026-08-29T11:17:15Z</time>
      </trkpt>
      <trkpt lat="50.729941762983799" lon="13.217919655144215">
        <ele>443</ele>
        <time>2026-08-29T11:17:16Z</time>
      </trkpt>
      <trkpt lat="50.729942349717021" lon="13.217919738963246">
        <ele>443</ele>
        <time>2026-08-29T11:17:17Z</time>
      </trkpt>
      <trkpt lat="50.729942349717021" lon="13.217920074239373">
        <ele>443</ele>
        <time>2026-08-29T11:17:18Z</time>
      </trkpt>
      <trkpt lat="50.729942517355084" lon="13.217920158058405">
        <ele>443</ele>
        <time>2026-08-29T11:17:19Z</time>
      </trkpt>
      <trkpt lat="50.729939918965101" lon="13.217929042875767">
        <ele>443</ele>
        <time>2026-08-29T11:17:20Z</time>
      </trkpt>
      <trkpt lat="50.729940002784133" lon="13.21792921051383">
        <ele>443</ele>
        <time>2026-08-29T11:17:21Z</time>
      </trkpt>
      <trkpt lat="50.729941511526704" lon="13.217929294332862">
        <ele>443</ele>
        <time>2026-08-29T11:17:22Z</time>
      </trkpt>
      <trkpt lat="50.729941008612514" lon="13.217927450314164">
        <ele>443</ele>
        <time>2026-08-29T11:17:23Z</time>
      </trkpt>
      <trkpt lat="50.729939248412848" lon="13.217926695942879">
        <ele>444</ele>
        <time>2026-08-29T11:17:24Z</time>
      </trkpt>
      <trkpt lat="50.729934722185135" lon="13.217927282676101">
        <ele>444</ele>
        <time>2026-08-29T11:17:25Z</time>
      </trkpt>
      <trkpt lat="50.729936566203833" lon="13.217933736741543">
        <ele>444</ele>
        <time>2026-08-29T11:17:26Z</time>
      </trkpt>
      <trkpt lat="50.729938074946404" lon="13.217951338738203">
        <ele>444</ele>
        <time>2026-08-29T11:17:27Z</time>
      </trkpt>
      <trkpt lat="50.729941260069609" lon="13.217960558831692">
        <ele>444</ele>
        <time>2026-08-29T11:17:28Z</time>
      </trkpt>
      <trkpt lat="50.729936901479959" lon="13.217969108372927">
        <ele>444</ele>
        <time>2026-08-29T11:17:29Z</time>
      </trkpt>
      <trkpt lat="50.729934386909008" lon="13.217976065352559">
        <ele>443</ele>
        <time>2026-08-29T11:17:30Z</time>
      </trkpt>
      <trkpt lat="50.729934386909008" lon="13.217975981533527">
        <ele>443</ele>
        <time>2026-08-29T11:17:31Z</time>
      </trkpt>
      <trkpt lat="50.729933464899659" lon="13.217975227162242">
        <ele>444</ele>
        <time>2026-08-29T11:17:32Z</time>
      </trkpt>
      <trkpt lat="50.729930028319359" lon="13.217969695106149">
        <ele>444</ele>
        <time>2026-08-29T11:17:33Z</time>
      </trkpt>
      <trkpt lat="50.729927597567439" lon="13.21796290576458">
        <ele>443</ele>
        <time>2026-08-29T11:17:34Z</time>
      </trkpt>
      <trkpt lat="50.72992667555809" lon="13.217954523861408">
        <ele>443</ele>
        <time>2026-08-29T11:17:35Z</time>
      </trkpt>
      <trkpt lat="50.729933800175786" lon="13.217949829995632">
        <ele>444</ele>
        <time>2026-08-29T11:17:36Z</time>
      </trkpt>
      <trkpt lat="50.729933800175786" lon="13.217949327081442">
        <ele>444</ele>
        <time>2026-08-29T11:17:37Z</time>
      </trkpt>
      <trkpt lat="50.729934219270945" lon="13.217948991805315">
        <ele>444</ele>
        <time>2026-08-29T11:17:38Z</time>
      </trkpt>
      <trkpt lat="50.729934051632881" lon="13.21794924326241">
        <ele>444</ele>
        <time>2026-08-29T11:17:39Z</time>
      </trkpt>
      <trkpt lat="50.729933800175786" lon="13.217949494719505">
        <ele>444</ele>
        <time>2026-08-29T11:17:40Z</time>
      </trkpt>
      <trkpt lat="50.729933716356754" lon="13.217949494719505">
        <ele>444</ele>
        <time>2026-08-29T11:17:41Z</time>
      </trkpt>
      <trkpt lat="50.729933800175786" lon="13.217949075624347">
        <ele>444</ele>
        <time>2026-08-29T11:17:42Z</time>
      </trkpt>
      <trkpt lat="50.729934051632881" lon="13.21794874034822">
        <ele>444</ele>
        <time>2026-08-29T11:17:43Z</time>
      </trkpt>
      <trkpt lat="50.729934219270945" lon="13.217948321253061">
        <ele>444</ele>
        <time>2026-08-29T11:17:44Z</time>
      </trkpt>
      <trkpt lat="50.729934051632881" lon="13.217948488891125">
        <ele>444</ele>
        <time>2026-08-29T11:17:45Z</time>
      </trkpt>
      <trkpt lat="50.729933800175786" lon="13.217948907986283">
        <ele>444</ele>
        <time>2026-08-29T11:17:46Z</time>
      </trkpt>
      <trkpt lat="50.729933716356754" lon="13.217949159443378">
        <ele>444</ele>
        <time>2026-08-29T11:17:47Z</time>
      </trkpt>
      <trkpt lat="50.729933548718691" lon="13.217949159443378">
        <ele>444</ele>
        <time>2026-08-29T11:17:48Z</time>
      </trkpt>
      <trkpt lat="50.729933632537723" lon="13.217948907986283">
        <ele>444</ele>
        <time>2026-08-29T11:17:49Z</time>
      </trkpt>
      <trkpt lat="50.729933716356754" lon="13.217948656529188">
        <ele>444</ele>
        <time>2026-08-29T11:17:50Z</time>
      </trkpt>
      <trkpt lat="50.729933800175786" lon="13.217948991805315">
        <ele>444</ele>
        <time>2026-08-29T11:17:51Z</time>
      </trkpt>
      <trkpt lat="50.729933548718691" lon="13.217949327081442">
        <ele>444</ele>
        <time>2026-08-29T11:17:52Z</time>
      </trkpt>
      <trkpt lat="50.729932626709342" lon="13.217949159443378">
        <ele>444</ele>
        <time>2026-08-29T11:17:53Z</time>
      </trkpt>
      <trkpt lat="50.72993203997612" lon="13.217949159443378">
        <ele>444</ele>
        <time>2026-08-29T11:17:54Z</time>
      </trkpt>
      <trkpt lat="50.72993153706193" lon="13.21794924326241">
        <ele>444</ele>
        <time>2026-08-29T11:17:55Z</time>
      </trkpt>
      <trkpt lat="50.729931285604835" lon="13.21794924326241">
        <ele>444</ele>
        <time>2026-08-29T11:17:56Z</time>
      </trkpt>
      <trkpt lat="50.729931201785803" lon="13.217949159443378">
        <ele>444</ele>
        <time>2026-08-29T11:17:57Z</time>
      </trkpt>
      <trkpt lat="50.729931369423866" lon="13.21794874034822">
        <ele>444</ele>
        <time>2026-08-29T11:17:58Z</time>
      </trkpt>
      <trkpt lat="50.729931620880961" lon="13.217947818338871">
        <ele>444</ele>
        <time>2026-08-29T11:17:59Z</time>
      </trkpt>
      <trkpt lat="50.729931620880961" lon="13.217947566881776">
        <ele>444</ele>
        <time>2026-08-29T11:18:00Z</time>
      </trkpt>
      <trkpt lat="50.729931620880961" lon="13.217946896329522">
        <ele>444</ele>
        <time>2026-08-29T11:18:01Z</time>
      </trkpt>
      <trkpt lat="50.729931453242898" lon="13.217946980148554">
        <ele>444</ele>
        <time>2026-08-29T11:18:02Z</time>
      </trkpt>
      <trkpt lat="50.729931453242898" lon="13.217946980148554">
        <ele>444</ele>
        <time>2026-08-29T11:18:03Z</time>
      </trkpt>
      <trkpt lat="50.729934303089976" lon="13.217937843874097">
        <ele>444</ele>
        <time>2026-08-29T11:18:04Z</time>
      </trkpt>
      <trkpt lat="50.729937488213181" lon="13.217931808903813">
        <ele>445</ele>
        <time>2026-08-29T11:18:05Z</time>
      </trkpt>
      <trkpt lat="50.72993790730834" lon="13.217924349009991">
        <ele>445</ele>
        <time>2026-08-29T11:18:06Z</time>
      </trkpt>
      <trkpt lat="50.729937488213181" lon="13.217924768105149">
        <ele>445</ele>
        <time>2026-08-29T11:18:07Z</time>
      </trkpt>
      <trkpt lat="50.729937488213181" lon="13.217923929914832">
        <ele>445</ele>
        <time>2026-08-29T11:18:08Z</time>
      </trkpt>
      <trkpt lat="50.729937739670277" lon="13.217923929914832">
        <ele>445</ele>
        <time>2026-08-29T11:18:09Z</time>
      </trkpt>
      <trkpt lat="50.729940757155418" lon="13.217926444485784">
        <ele>445</ele>
        <time>2026-08-29T11:18:10Z</time>
      </trkpt>
      <trkpt lat="50.729941008612514" lon="13.217931054532528">
        <ele>445</ele>
        <time>2026-08-29T11:18:11Z</time>
      </trkpt>
      <trkpt lat="50.729941260069609" lon="13.217937340959907">
        <ele>446</ele>
        <time>2026-08-29T11:18:12Z</time>
      </trkpt>
      <trkpt lat="50.729943607002497" lon="13.217936418950558">
        <ele>446</ele>
        <time>2026-08-29T11:18:13Z</time>
      </trkpt>
      <trkpt lat="50.729948887601495" lon="13.217935832217336">
        <ele>445</ele>
        <time>2026-08-29T11:18:14Z</time>
      </trkpt>
      <trkpt lat="50.729951066896319" lon="13.21794094517827">
        <ele>445</ele>
        <time>2026-08-29T11:18:15Z</time>
      </trkpt>
      <trkpt lat="50.729951821267605" lon="13.217944297939539">
        <ele>445</ele>
        <time>2026-08-29T11:18:16Z</time>
      </trkpt>
      <trkpt lat="50.72996037080884" lon="13.217938430607319">
        <ele>444</ele>
        <time>2026-08-29T11:18:17Z</time>
      </trkpt>
      <trkpt lat="50.72996330447495" lon="13.217935496941209">
        <ele>444</ele>
        <time>2026-08-29T11:18:18Z</time>
      </trkpt>
      <trkpt lat="50.729967663064599" lon="13.217927450314164">
        <ele>444</ele>
        <time>2026-08-29T11:18:19Z</time>
      </trkpt>
      <trkpt lat="50.729973698034883" lon="13.21792091242969">
        <ele>444</ele>
        <time>2026-08-29T11:18:20Z</time>
      </trkpt>
      <trkpt lat="50.729975458234549" lon="13.217927701771259">
        <ele>444</ele>
        <time>2026-08-29T11:18:21Z</time>
      </trkpt>
      <trkpt lat="50.729965399950743" lon="13.217920325696468">
        <ele>444</ele>
        <time>2026-08-29T11:18:22Z</time>
      </trkpt>
      <trkpt lat="50.729964561760426" lon="13.217922756448388">
        <ele>444</ele>
        <time>2026-08-29T11:18:23Z</time>
      </trkpt>
      <trkpt lat="50.729965399950743" lon="13.217919738963246">
        <ele>443</ele>
        <time>2026-08-29T11:18:24Z</time>
      </trkpt>
      <trkpt lat="50.72997260838747" lon="13.217913620173931">
        <ele>443</ele>
        <time>2026-08-29T11:18:25Z</time>
      </trkpt>
      <trkpt lat="50.729974871501327" lon="13.217914374545217">
        <ele>442</ele>
        <time>2026-08-29T11:18:26Z</time>
      </trkpt>
      <trkpt lat="50.729985265061259" lon="13.217913536354899">
        <ele>442</ele>
        <time>2026-08-29T11:18:27Z</time>
      </trkpt>
      <trkpt lat="50.729983672499657" lon="13.21791797876358">
        <ele>442</ele>
        <time>2026-08-29T11:18:28Z</time>
      </trkpt>
      <trkpt lat="50.729997837916017" lon="13.217934323474765">
        <ele>440</ele>
        <time>2026-08-29T11:18:29Z</time>
      </trkpt>
      <trkpt lat="50.730000101029873" lon="13.217937089502811">
        <ele>440</ele>
        <time>2026-08-29T11:18:30Z</time>
      </trkpt>
      <trkpt lat="50.730004711076617" lon="13.217931557446718">
        <ele>440</ele>
        <time>2026-08-29T11:18:31Z</time>
      </trkpt>
      <trkpt lat="50.729991970583797" lon="13.217910351231694">
        <ele>440</ele>
        <time>2026-08-29T11:18:32Z</time>
      </trkpt>
      <trkpt lat="50.730000771582127" lon="13.217908004298806">
        <ele>439</ele>
        <time>2026-08-29T11:18:33Z</time>
      </trkpt>
      <trkpt lat="50.730008231475949" lon="13.21790381334722">
        <ele>439</ele>
        <time>2026-08-29T11:18:34Z</time>
      </trkpt>
      <trkpt lat="50.730021391063929" lon="13.217905405908823">
        <ele>439</ele>
        <time>2026-08-29T11:18:35Z</time>
      </trkpt>
      <trkpt lat="50.730016948655248" lon="13.217908339574933">
        <ele>438</ele>
        <time>2026-08-29T11:18:36Z</time>
      </trkpt>
      <trkpt lat="50.730016278102994" lon="13.217910518869758">
        <ele>438</ele>
        <time>2026-08-29T11:18:37Z</time>
      </trkpt>
      <trkpt lat="50.730015439912677" lon="13.217909261584282">
        <ele>438</ele>
        <time>2026-08-29T11:18:38Z</time>
      </trkpt>
      <trkpt lat="50.730024911463261" lon="13.217910351231694">
        <ele>438</ele>
        <time>2026-08-29T11:18:39Z</time>
      </trkpt>
      <trkpt lat="50.730034802109003" lon="13.217902891337872">
        <ele>438</ele>
        <time>2026-08-29T11:18:40Z</time>
      </trkpt>
      <trkpt lat="50.7300487998873" lon="13.217893252149224">
        <ele>438</ele>
        <time>2026-08-29T11:18:41Z</time>
      </trkpt>
      <trkpt lat="50.73006883263588" lon="13.217878332361579">
        <ele>438</ele>
        <time>2026-08-29T11:18:42Z</time>
      </trkpt>
      <trkpt lat="50.730093978345394" lon="13.217873889952898">
        <ele>437</ele>
        <time>2026-08-29T11:18:43Z</time>
      </trkpt>
      <trkpt lat="50.730113843455911" lon="13.217852516099811">
        <ele>437</ele>
        <time>2026-08-29T11:18:44Z</time>
      </trkpt>
      <trkpt lat="50.730133960023522" lon="13.217832148075104">
        <ele>437</ele>
        <time>2026-08-29T11:18:45Z</time>
      </trkpt>
      <trkpt lat="50.730164553970098" lon="13.217822341248393">
        <ele>437</ele>
        <time>2026-08-29T11:18:46Z</time>
      </trkpt>
      <trkpt lat="50.730200428515673" lon="13.217786969617009">
        <ele>437</ele>
        <time>2026-08-29T11:18:47Z</time>
      </trkpt>
      <trkpt lat="50.730237895622849" lon="13.21774891577661">
        <ele>437</ele>
        <time>2026-08-29T11:18:48Z</time>
      </trkpt>
      <trkpt lat="50.730284163728356" lon="13.217718321830034">
        <ele>437</ele>
        <time>2026-08-29T11:18:49Z</time>
      </trkpt>
      <trkpt lat="50.73032246902585" lon="13.217693846672773">
        <ele>437</ele>
        <time>2026-08-29T11:18:50Z</time>
      </trkpt>
      <trkpt lat="50.73035717010498" lon="13.217670880258083">
        <ele>438</ele>
        <time>2026-08-29T11:18:51Z</time>
      </trkpt>
      <trkpt lat="50.730409054085612" lon="13.217658475041389">
        <ele>438</ele>
        <time>2026-08-29T11:18:52Z</time>
      </trkpt>
      <trkpt lat="50.730460183694959" lon="13.217646908015013">
        <ele>438</ele>
        <time>2026-08-29T11:18:53Z</time>
      </trkpt>
      <trkpt lat="50.730512905865908" lon="13.217629222199321">
        <ele>438</ele>
        <time>2026-08-29T11:18:54Z</time>
      </trkpt>
      <trkpt lat="50.730565711855888" lon="13.217604830861092">
        <ele>438</ele>
        <time>2026-08-29T11:18:55Z</time>
      </trkpt>
      <trkpt lat="50.730616170912981" lon="13.217594521120191">
        <ele>438</ele>
        <time>2026-08-29T11:18:56Z</time>
      </trkpt>
      <trkpt lat="50.730666546151042" lon="13.21759301237762">
        <ele>439</ele>
        <time>2026-08-29T11:18:57Z</time>
      </trkpt>
      <trkpt lat="50.730700241401792" lon="13.217580774798989">
        <ele>438</ele>
        <time>2026-08-29T11:18:58Z</time>
      </trkpt>
      <trkpt lat="50.730738462880254" lon="13.217581445351243">
        <ele>438</ele>
        <time>2026-08-29T11:18:59Z</time>
      </trkpt>
      <trkpt lat="50.730785820633173" lon="13.217584881931543">
        <ele>438</ele>
        <time>2026-08-29T11:19:00Z</time>
      </trkpt>
      <trkpt lat="50.730847930535674" lon="13.217601645737886">
        <ele>439</ele>
        <time>2026-08-29T11:19:01Z</time>
      </trkpt>
      <trkpt lat="50.73089906014502" lon="13.217609860002995">
        <ele>439</ele>
        <time>2026-08-29T11:19:02Z</time>
      </trkpt>
      <trkpt lat="50.730946250259876" lon="13.217608602717519">
        <ele>438</ele>
        <time>2026-08-29T11:19:03Z</time>
      </trkpt>
      <trkpt lat="50.730985980480909" lon="13.217613212764263">
        <ele>438</ele>
        <time>2026-08-29T11:19:04Z</time>
      </trkpt>
      <trkpt lat="50.731025040149689" lon="13.217613212764263">
        <ele>438</ele>
        <time>2026-08-29T11:19:05Z</time>
      </trkpt>
      <trkpt lat="50.731053957715631" lon="13.21762721054256">
        <ele>439</ele>
        <time>2026-08-29T11:19:06Z</time>
      </trkpt>
      <trkpt lat="50.731078600510955" lon="13.217632072046399">
        <ele>439</ele>
        <time>2026-08-29T11:19:07Z</time>
      </trkpt>
      <trkpt lat="50.731110535562038" lon="13.217633329331875">
        <ele>439</ele>
        <time>2026-08-29T11:19:08Z</time>
      </trkpt>
      <trkpt lat="50.731139788404107" lon="13.217628886923194">
        <ele>438</ele>
        <time>2026-08-29T11:19:09Z</time>
      </trkpt>
      <trkpt lat="50.731178428977728" lon="13.217628132551908">
        <ele>438</ele>
        <time>2026-08-29T11:19:10Z</time>
      </trkpt>
      <trkpt lat="50.731222350150347" lon="13.217626791447401">
        <ele>439</ele>
        <time>2026-08-29T11:19:11Z</time>
      </trkpt>
      <trkpt lat="50.731261409819126" lon="13.217634502798319">
        <ele>439</ele>
        <time>2026-08-29T11:19:12Z</time>
      </trkpt>
      <trkpt lat="50.731298960745335" lon="13.217638274654746">
        <ele>439</ele>
        <time>2026-08-29T11:19:13Z</time>
      </trkpt>
      <trkpt lat="50.731333242729306" lon="13.21764187887311">
        <ele>439</ele>
        <time>2026-08-29T11:19:14Z</time>
      </trkpt>
      <trkpt lat="50.731357801705599" lon="13.217646237462759">
        <ele>438</ele>
        <time>2026-08-29T11:19:15Z</time>
      </trkpt>
      <trkpt lat="50.731395268812776" lon="13.217663168907166">
        <ele>438</ele>
        <time>2026-08-29T11:19:16Z</time>
      </trkpt>
      <trkpt lat="50.731426533311605" lon="13.217657301574945">
        <ele>438</ele>
        <time>2026-08-29T11:19:17Z</time>
      </trkpt>
      <trkpt lat="50.731484284624457" lon="13.217674316838384">
        <ele>438</ele>
        <time>2026-08-29T11:19:18Z</time>
      </trkpt>
      <trkpt lat="50.731535917147994" lon="13.217707425355911">
        <ele>438</ele>
        <time>2026-08-29T11:19:19Z</time>
      </trkpt>
      <trkpt lat="50.731575731188059" lon="13.217752268537879">
        <ele>438</ele>
        <time>2026-08-29T11:19:20Z</time>
      </trkpt>
      <trkpt lat="50.73161143809557" lon="13.217774732038379">
        <ele>438</ele>
        <time>2026-08-29T11:19:21Z</time>
      </trkpt>
      <trkpt lat="50.731654018163681" lon="13.217804739251733">
        <ele>437</ele>
        <time>2026-08-29T11:19:22Z</time>
      </trkpt>
      <trkpt lat="50.731690479442477" lon="13.217829884961247">
        <ele>437</ele>
        <time>2026-08-29T11:19:23Z</time>
      </trkpt>
      <trkpt lat="50.731729539111257" lon="13.217850420624018">
        <ele>437</ele>
        <time>2026-08-29T11:19:24Z</time>
      </trkpt>
      <trkpt lat="50.731767760589719" lon="13.217873722314835">
        <ele>437</ele>
        <time>2026-08-29T11:19:25Z</time>
      </trkpt>
      <trkpt lat="50.731801120564342" lon="13.21790381334722">
        <ele>437</ele>
        <time>2026-08-29T11:19:26Z</time>
      </trkpt>
      <trkpt lat="50.731830457225442" lon="13.217928288504481">
        <ele>436</ele>
        <time>2026-08-29T11:19:27Z</time>
      </trkpt>
      <trkpt lat="50.731858033686876" lon="13.217951254919171">
        <ele>436</ele>
        <time>2026-08-29T11:19:28Z</time>
      </trkpt>
      <trkpt lat="50.731881335377693" lon="13.217975981533527">
        <ele>436</ele>
        <time>2026-08-29T11:19:29Z</time>
      </trkpt>
      <trkpt lat="50.731902541592717" lon="13.217995762825012">
        <ele>436</ele>
        <time>2026-08-29T11:19:30Z</time>
      </trkpt>
      <trkpt lat="50.731920059770346" lon="13.218014957383275">
        <ele>436</ele>
        <time>2026-08-29T11:19:31Z</time>
      </trkpt>
      <trkpt lat="50.7319310400635" lon="13.21804060600698">
        <ele>436</ele>
        <time>2026-08-29T11:19:32Z</time>
      </trkpt>
      <trkpt lat="50.731948642060161" lon="13.218060052022338">
        <ele>436</ele>
        <time>2026-08-29T11:19:33Z</time>
      </trkpt>
      <trkpt lat="50.731964902952313" lon="13.218086371198297">
        <ele>436</ele>
        <time>2026-08-29T11:19:34Z</time>
      </trkpt>
      <trkpt lat="50.731983259320259" lon="13.218105649575591">
        <ele>436</ele>
        <time>2026-08-29T11:19:35Z</time>
      </trkpt>
      <trkpt lat="50.731996167451143" lon="13.218125933781266">
        <ele>436</ele>
        <time>2026-08-29T11:19:36Z</time>
      </trkpt>
      <trkpt lat="50.732007902115583" lon="13.218136243522167">
        <ele>436</ele>
        <time>2026-08-29T11:19:37Z</time>
      </trkpt>
      <trkpt lat="50.732012679800391" lon="13.218139931559563">
        <ele>436</ele>
        <time>2026-08-29T11:19:38Z</time>
      </trkpt>
      <trkpt lat="50.732016870751977" lon="13.218141943216324">
        <ele>436</ele>
        <time>2026-08-29T11:19:39Z</time>
      </trkpt>
      <trkpt lat="50.732016367837787" lon="13.218141021206975">
        <ele>436</ele>
        <time>2026-08-29T11:19:40Z</time>
      </trkpt>
      <trkpt lat="50.732015278190374" lon="13.218142027035356">
        <ele>436</ele>
        <time>2026-08-29T11:19:41Z</time>
      </trkpt>
      <trkpt lat="50.732015278190374" lon="13.218141943216324">
        <ele>436</ele>
        <time>2026-08-29T11:19:42Z</time>
      </trkpt>
      <trkpt lat="50.732015278190374" lon="13.218142110854387">
        <ele>436</ele>
        <time>2026-08-29T11:19:43Z</time>
      </trkpt>
      <trkpt lat="50.732015864923596" lon="13.218142865225673">
        <ele>436</ele>
        <time>2026-08-29T11:19:44Z</time>
      </trkpt>
      <trkpt lat="50.732015948742628" lon="13.2181432005018">
        <ele>436</ele>
        <time>2026-08-29T11:19:45Z</time>
      </trkpt>
      <trkpt lat="50.732016619294882" lon="13.218143954873085">
        <ele>436</ele>
        <time>2026-08-29T11:19:46Z</time>
      </trkpt>
      <trkpt lat="50.732015864923596" lon="13.2181432005018">
        <ele>436</ele>
        <time>2026-08-29T11:19:47Z</time>
      </trkpt>
      <trkpt lat="50.732014607638121" lon="13.218142865225673">
        <ele>436</ele>
        <time>2026-08-29T11:19:48Z</time>
      </trkpt>
      <trkpt lat="50.732014859095216" lon="13.218142949044704">
        <ele>436</ele>
        <time>2026-08-29T11:19:49Z</time>
      </trkpt>
      <trkpt lat="50.73201309889555" lon="13.218136578798294">
        <ele>436</ele>
        <time>2026-08-29T11:19:50Z</time>
      </trkpt>
      <trkpt lat="50.732002537697554" lon="13.218139763921499">
        <ele>435</ele>
        <time>2026-08-29T11:19:51Z</time>
      </trkpt>
      <trkpt lat="50.732006309553981" lon="13.218135656788945">
        <ele>435</ele>
        <time>2026-08-29T11:19:52Z</time>
      </trkpt>
      <trkpt lat="50.732004046440125" lon="13.218131214380264">
        <ele>434</ele>
        <time>2026-08-29T11:19:53Z</time>
      </trkpt>
      <trkpt lat="50.732009578496218" lon="13.218123503029346">
        <ele>434</ele>
        <time>2026-08-29T11:19:54Z</time>
      </trkpt>
      <trkpt lat="50.732017289847136" lon="13.218128615990281">
        <ele>434</ele>
        <time>2026-08-29T11:19:55Z</time>
      </trkpt>
      <trkpt lat="50.732023911550641" lon="13.218135824427009">
        <ele>435</ele>
        <time>2026-08-29T11:19:56Z</time>
      </trkpt>
      <trkpt lat="50.732023911550641" lon="13.218146888539195">
        <ele>435</ele>
        <time>2026-08-29T11:19:57Z</time>
      </trkpt>
      <trkpt lat="50.732023660093546" lon="13.21814764291048">
        <ele>435</ele>
        <time>2026-08-29T11:19:58Z</time>
      </trkpt>
      <trkpt lat="50.732023408636451" lon="13.218156779184937">
        <ele>435</ele>
        <time>2026-08-29T11:19:59Z</time>
      </trkpt>
      <trkpt lat="50.732021732255816" lon="13.218160886317492">
        <ele>435</ele>
        <time>2026-08-29T11:20:00Z</time>
      </trkpt>
      <trkpt lat="50.732022989541292" lon="13.218173962086439">
        <ele>435</ele>
        <time>2026-08-29T11:20:01Z</time>
      </trkpt>
      <trkpt lat="50.732025420293212" lon="13.218178572133183">
        <ele>435</ele>
        <time>2026-08-29T11:20:02Z</time>
      </trkpt>
      <trkpt lat="50.732027180492878" lon="13.218183601275086">
        <ele>435</ele>
        <time>2026-08-29T11:20:03Z</time>
      </trkpt>
      <trkpt lat="50.732022570446134" lon="13.218183936551213">
        <ele>436</ele>
        <time>2026-08-29T11:20:04Z</time>
      </trkpt>
      <trkpt lat="50.732025504112244" lon="13.218183349817991">
        <ele>436</ele>
        <time>2026-08-29T11:20:05Z</time>
      </trkpt>
      <trkpt lat="50.732020642608404" lon="13.218176895752549">
        <ele>436</ele>
        <time>2026-08-29T11:20:06Z</time>
      </trkpt>
      <trkpt lat="50.732026007026434" lon="13.218174716457725">
        <ele>437</ele>
        <time>2026-08-29T11:20:07Z</time>
      </trkpt>
      <trkpt lat="50.732030533254147" lon="13.218175303190947">
        <ele>437</ele>
        <time>2026-08-29T11:20:08Z</time>
      </trkpt>
      <trkpt lat="50.732035897672176" lon="13.218164490535855">
        <ele>437</ele>
        <time>2026-08-29T11:20:09Z</time>
      </trkpt>
      <trkpt lat="50.732032041996717" lon="13.218167005106807">
        <ele>437</ele>
        <time>2026-08-29T11:20:10Z</time>
      </trkpt>
      <trkpt lat="50.732029192149639" lon="13.21816960349679">
        <ele>438</ele>
        <time>2026-08-29T11:20:11Z</time>
      </trkpt>
      <trkpt lat="50.73202827014029" lon="13.218172201886773">
        <ele>438</ele>
        <time>2026-08-29T11:20:12Z</time>
      </trkpt>
      <trkpt lat="50.73203070089221" lon="13.218164406716824">
        <ele>438</ele>
        <time>2026-08-29T11:20:13Z</time>
      </trkpt>
      <trkpt lat="50.732030030339956" lon="13.218161556869745">
        <ele>438</ele>
        <time>2026-08-29T11:20:14Z</time>
      </trkpt>
      <trkpt lat="50.732019888237119" lon="13.218163903802633">
        <ele>438</ele>
        <time>2026-08-29T11:20:15Z</time>
      </trkpt>
      <trkpt lat="50.73201066814363" lon="13.218163987621665">
        <ele>438</ele>
        <time>2026-08-29T11:20:16Z</time>
      </trkpt>
      <trkpt lat="50.732002956792712" lon="13.218173459172249">
        <ele>438</ele>
        <time>2026-08-29T11:20:17Z</time>
      </trkpt>
      <trkpt lat="50.731996586546302" lon="13.218178739771247">
        <ele>438</ele>
        <time>2026-08-29T11:20:18Z</time>
      </trkpt>
      <trkpt lat="50.731991892680526" lon="13.218179997056723">
        <ele>438</ele>
        <time>2026-08-29T11:20:19Z</time>
      </trkpt>
      <trkpt lat="50.731992647051811" lon="13.218179075047374">
        <ele>438</ele>
        <time>2026-08-29T11:20:20Z</time>
      </trkpt>
      <trkpt lat="50.731987282633781" lon="13.218194916844368">
        <ele>438</ele>
        <time>2026-08-29T11:20:21Z</time>
      </trkpt>
      <trkpt lat="50.731984600424767" lon="13.21819206699729">
        <ele>438</ele>
        <time>2026-08-29T11:20:22Z</time>
      </trkpt>
      <trkpt lat="50.731982421129942" lon="13.218203214928508">
        <ele>438</ele>
        <time>2026-08-29T11:20:23Z</time>
      </trkpt>
      <trkpt lat="50.731985354796052" lon="13.218195922672749">
        <ele>438</ele>
        <time>2026-08-29T11:20:24Z</time>
      </trkpt>
      <trkpt lat="50.731983762234449" lon="13.218187959864736">
        <ele>438</ele>
        <time>2026-08-29T11:20:25Z</time>
      </trkpt>
      <trkpt lat="50.731985941529274" lon="13.218187959864736">
        <ele>438</ele>
        <time>2026-08-29T11:20:26Z</time>
      </trkpt>
      <trkpt lat="50.731985941529274" lon="13.218188211321831">
        <ele>438</ele>
        <time>2026-08-29T11:20:27Z</time>
      </trkpt>
      <trkpt lat="50.731986109167337" lon="13.218188798055053">
        <ele>438</ele>
        <time>2026-08-29T11:20:28Z</time>
      </trkpt>
      <trkpt lat="50.731986192986369" lon="13.218189049512148">
        <ele>438</ele>
        <time>2026-08-29T11:20:29Z</time>
      </trkpt>
      <trkpt lat="50.731989042833447" lon="13.218184439465404">
        <ele>437</ele>
        <time>2026-08-29T11:20:30Z</time>
      </trkpt>
      <trkpt lat="50.73198820464313" lon="13.218196425586939">
        <ele>437</ele>
        <time>2026-08-29T11:20:31Z</time>
      </trkpt>
      <trkpt lat="50.731993820518255" lon="13.218190893530846">
        <ele>437</ele>
        <time>2026-08-29T11:20:32Z</time>
      </trkpt>
      <trkpt lat="50.732009578496218" lon="13.21818477474153">
        <ele>437</ele>
        <time>2026-08-29T11:20:33Z</time>
      </trkpt>
      <trkpt lat="50.732009829953313" lon="13.218184858560562">
        <ele>437</ele>
        <time>2026-08-29T11:20:34Z</time>
      </trkpt>
      <trkpt lat="50.732009746134281" lon="13.218185445293784">
        <ele>437</ele>
        <time>2026-08-29T11:20:35Z</time>
      </trkpt>
      <trkpt lat="50.73201066814363" lon="13.21818427182734">
        <ele>438</ele>
        <time>2026-08-29T11:20:36Z</time>
      </trkpt>
      <trkpt lat="50.732005639001727" lon="13.218181924894452">
        <ele>438</ele>
        <time>2026-08-29T11:20:37Z</time>
      </trkpt>
      <trkpt lat="50.732006896287203" lon="13.21818913333118">
        <ele>438</ele>
        <time>2026-08-29T11:20:38Z</time>
      </trkpt>
      <trkpt lat="50.732007650658488" lon="13.218176225200295">
        <ele>439</ele>
        <time>2026-08-29T11:20:39Z</time>
      </trkpt>
      <trkpt lat="50.732008488848805" lon="13.218172704800963">
        <ele>438</ele>
        <time>2026-08-29T11:20:40Z</time>
      </trkpt>
      <trkpt lat="50.732007483020425" lon="13.218177314847708">
        <ele>438</ele>
        <time>2026-08-29T11:20:41Z</time>
      </trkpt>
      <trkpt lat="50.732004549354315" lon="13.218180416151881">
        <ele>438</ele>
        <time>2026-08-29T11:20:42Z</time>
      </trkpt>
      <trkpt lat="50.732003459706903" lon="13.218184942379594">
        <ele>438</ele>
        <time>2026-08-29T11:20:43Z</time>
      </trkpt>
      <trkpt lat="50.732005806639791" lon="13.218190725892782">
        <ele>439</ele>
        <time>2026-08-29T11:20:44Z</time>
      </trkpt>
      <trkpt lat="50.732013350352645" lon="13.218193156644702">
        <ele>439</ele>
        <time>2026-08-29T11:20:45Z</time>
      </trkpt>
      <trkpt lat="50.732016619294882" lon="13.218197012320161">
        <ele>439</ele>
        <time>2026-08-29T11:20:46Z</time>
      </trkpt>
      <trkpt lat="50.732014775276184" lon="13.218194162473083">
        <ele>439</ele>
        <time>2026-08-29T11:20:47Z</time>
      </trkpt>
      <trkpt lat="50.732017457485199" lon="13.218188043683767">
        <ele>439</ele>
        <time>2026-08-29T11:20:48Z</time>
      </trkpt>
      <trkpt lat="50.732012428343296" lon="13.218188714236021">
        <ele>438</ele>
        <time>2026-08-29T11:20:49Z</time>
      </trkpt>
      <trkpt lat="50.732002202421427" lon="13.218181254342198">
        <ele>438</ele>
        <time>2026-08-29T11:20:50Z</time>
      </trkpt>
      <trkpt lat="50.732003459706903" lon="13.218192234635353">
        <ele>438</ele>
        <time>2026-08-29T11:20:51Z</time>
      </trkpt>
      <trkpt lat="50.732000609859824" lon="13.218192905187607">
        <ele>438</ele>
        <time>2026-08-29T11:20:52Z</time>
      </trkpt>
      <trkpt lat="50.732001112774014" lon="13.218202292919159">
        <ele>438</ele>
        <time>2026-08-29T11:20:53Z</time>
      </trkpt>
      <trkpt lat="50.73200237005949" lon="13.218197766691446">
        <ele>438</ele>
        <time>2026-08-29T11:20:54Z</time>
      </trkpt>
      <trkpt lat="50.731989126652479" lon="13.218195587396622">
        <ele>438</ele>
        <time>2026-08-29T11:20:55Z</time>
      </trkpt>
      <trkpt lat="50.731980828568339" lon="13.218185864388943">
        <ele>438</ele>
        <time>2026-08-29T11:20:56Z</time>
      </trkpt>
      <trkpt lat="50.731967417523265" lon="13.218173291534185">
        <ele>438</ele>
        <time>2026-08-29T11:20:57Z</time>
      </trkpt>
      <trkpt lat="50.731956269592047" lon="13.218153174966574">
        <ele>438</ele>
        <time>2026-08-29T11:20:58Z</time>
      </trkpt>
      <trkpt lat="50.731938919052482" lon="13.218138758093119">
        <ele>438</ele>
        <time>2026-08-29T11:20:59Z</time>
      </trkpt>
      <trkpt lat="50.731919221580029" lon="13.218125179409981">
        <ele>438</ele>
        <time>2026-08-29T11:21:00Z</time>
      </trkpt>
      <trkpt lat="50.73189876973629" lon="13.218106320127845">
        <ele>438</ele>
        <time>2026-08-29T11:21:01Z</time>
      </trkpt>
      <trkpt lat="50.731885861605406" lon="13.218085868284106">
        <ele>438</ele>
        <time>2026-08-29T11:21:02Z</time>
      </trkpt>
      <trkpt lat="50.731875132769346" lon="13.21806114166975">
        <ele>439</ele>
        <time>2026-08-29T11:21:03Z</time>
      </trkpt>
      <trkpt lat="50.731852082535625" lon="13.218032140284777">
        <ele>439</ele>
        <time>2026-08-29T11:21:04Z</time>
      </trkpt>
      <trkpt lat="50.73182106949389" lon="13.217994589358568">
        <ele>439</ele>
        <time>2026-08-29T11:21:05Z</time>
      </trkpt>
      <trkpt lat="50.731786619871855" lon="13.217962486669421">
        <ele>439</ele>
        <time>2026-08-29T11:21:06Z</time>
      </trkpt>
      <trkpt lat="50.731751499697566" lon="13.217929461970925">
        <ele>439</ele>
        <time>2026-08-29T11:21:07Z</time>
      </trkpt>
      <trkpt lat="50.731717301532626" lon="13.217899287119508">
        <ele>439</ele>
        <time>2026-08-29T11:21:08Z</time>
      </trkpt>
      <trkpt lat="50.731683941558003" lon="13.2178720459342">
        <ele>439</ele>
        <time>2026-08-29T11:21:09Z</time>
      </trkpt>
      <trkpt lat="50.73164664208889" lon="13.21784321218729">
        <ele>439</ele>
        <time>2026-08-29T11:21:10Z</time>
      </trkpt>
      <trkpt lat="50.731609761714935" lon="13.217823347076774">
        <ele>439</ele>
        <time>2026-08-29T11:21:11Z</time>
      </trkpt>
      <trkpt lat="50.731576988473535" lon="13.217793507501483">
        <ele>439</ele>
        <time>2026-08-29T11:21:12Z</time>
      </trkpt>
      <trkpt lat="50.731546143069863" lon="13.217761320993304">
        <ele>438</ele>
        <time>2026-08-29T11:21:13Z</time>
      </trkpt>
      <trkpt lat="50.731511944904923" lon="13.217731481418014">
        <ele>438</ele>
        <time>2026-08-29T11:21:14Z</time>
      </trkpt>
      <trkpt lat="50.731466850265861" lon="13.217702228575945">
        <ele>438</ele>
        <time>2026-08-29T11:21:15Z</time>
      </trkpt>
      <trkpt lat="50.731421839445829" lon="13.217688649892807">
        <ele>438</ele>
        <time>2026-08-29T11:21:16Z</time>
      </trkpt>
      <trkpt lat="50.731372218579054" lon="13.217687392607331">
        <ele>438</ele>
        <time>2026-08-29T11:21:17Z</time>
      </trkpt>
      <trkpt lat="50.731321508064866" lon="13.217687727883458">
        <ele>437</ele>
        <time>2026-08-29T11:21:18Z</time>
      </trkpt>
      <trkpt lat="50.731268702074885" lon="13.217672472819686">
        <ele>437</ele>
        <time>2026-08-29T11:21:19Z</time>
      </trkpt>
      <trkpt lat="50.731226205825806" lon="13.217664174735546">
        <ele>437</ele>
        <time>2026-08-29T11:21:20Z</time>
      </trkpt>
      <trkpt lat="50.731176752597094" lon="13.217675657942891">
        <ele>437</ele>
        <time>2026-08-29T11:21:21Z</time>
      </trkpt>
      <trkpt lat="50.731126544997096" lon="13.217687979340553">
        <ele>437</ele>
        <time>2026-08-29T11:21:22Z</time>
      </trkpt>
      <trkpt lat="50.731082540005445" lon="13.217702899128199">
        <ele>436</ele>
        <time>2026-08-29T11:21:23Z</time>
      </trkpt>
      <trkpt lat="50.731029650196433" lon="13.217688230797648">
        <ele>436</ele>
        <time>2026-08-29T11:21:24Z</time>
      </trkpt>
      <trkpt lat="50.730990003794432" lon="13.21767020970583">
        <ele>436</ele>
        <time>2026-08-29T11:21:25Z</time>
      </trkpt>
      <trkpt lat="50.730931414291263" lon="13.217646488919854">
        <ele>436</ele>
        <time>2026-08-29T11:21:26Z</time>
      </trkpt>
      <trkpt lat="50.73086922056973" lon="13.217628970742226">
        <ele>436</ele>
        <time>2026-08-29T11:21:27Z</time>
      </trkpt>
      <trkpt lat="50.730816749855876" lon="13.217646069824696">
        <ele>436</ele>
        <time>2026-08-29T11:21:28Z</time>
      </trkpt>
      <trkpt lat="50.730771739035845" lon="13.217655960470438">
        <ele>436</ele>
        <time>2026-08-29T11:21:29Z</time>
      </trkpt>
      <trkpt lat="50.730723040178418" lon="13.217669622972608">
        <ele>436</ele>
        <time>2026-08-29T11:21:30Z</time>
      </trkpt>
      <trkpt lat="50.730663277208805" lon="13.217691835016012">
        <ele>437</ele>
        <time>2026-08-29T11:21:31Z</time>
      </trkpt>
      <trkpt lat="50.730605190619826" lon="13.217695774510503">
        <ele>437</ele>
        <time>2026-08-29T11:21:32Z</time>
      </trkpt>
      <trkpt lat="50.730543415993452" lon="13.217714466154575">
        <ele>437</ele>
        <time>2026-08-29T11:21:33Z</time>
      </trkpt>
      <trkpt lat="50.73048030026257" lon="13.21772737428546">
        <ele>437</ele>
        <time>2026-08-29T11:21:34Z</time>
      </trkpt>
      <trkpt lat="50.73042162694037" lon="13.217747826129198">
        <ele>437</ele>
        <time>2026-08-29T11:21:35Z</time>
      </trkpt>
      <trkpt lat="50.730359517037868" lon="13.217761404812336">
        <ele>438</ele>
        <time>2026-08-29T11:21:36Z</time>
      </trkpt>
      <trkpt lat="50.730302687734365" lon="13.217776911333203">
        <ele>438</ele>
        <time>2026-08-29T11:21:37Z</time>
      </trkpt>
      <trkpt lat="50.730251641944051" lon="13.217816473916173">
        <ele>437</ele>
        <time>2026-08-29T11:21:38Z</time>
      </trkpt>
      <trkpt lat="50.730196489021182" lon="13.217829382047057">
        <ele>437</ele>
        <time>2026-08-29T11:21:39Z</time>
      </trkpt>
      <trkpt lat="50.730135971680284" lon="13.217856790870428">
        <ele>437</ele>
        <time>2026-08-29T11:21:40Z</time>
      </trkpt>
      <trkpt lat="50.730087272822857" lon="13.217880176380277">
        <ele>437</ele>
        <time>2026-08-29T11:21:41Z</time>
      </trkpt>
      <trkpt lat="50.730052655562758" lon="13.217898532748222">
        <ele>438</ele>
        <time>2026-08-29T11:21:42Z</time>
      </trkpt>
      <trkpt lat="50.730015188455582" lon="13.217914290726185">
        <ele>438</ele>
        <time>2026-08-29T11:21:43Z</time>
      </trkpt>
      <trkpt lat="50.729978140443563" lon="13.217927031219006">
        <ele>438</ele>
        <time>2026-08-29T11:21:44Z</time>
      </trkpt>
      <trkpt lat="50.729927597567439" lon="13.217942789196968">
        <ele>438</ele>
        <time>2026-08-29T11:21:45Z</time>
      </trkpt>
      <trkpt lat="50.729887532070279" lon="13.217936838045716">
        <ele>437</ele>
        <time>2026-08-29T11:21:46Z</time>
      </trkpt>
      <trkpt lat="50.729846712201834" lon="13.217945052310824">
        <ele>437</ele>
        <time>2026-08-29T11:21:47Z</time>
      </trkpt>
      <trkpt lat="50.729813519865274" lon="13.217928456142545">
        <ele>438</ele>
        <time>2026-08-29T11:21:48Z</time>
      </trkpt>
      <trkpt lat="50.729772029444575" lon="13.21789400652051">
        <ele>438</ele>
        <time>2026-08-29T11:21:49Z</time>
      </trkpt>
      <trkpt lat="50.729731963947415" lon="13.217822257429361">
        <ele>438</ele>
        <time>2026-08-29T11:21:50Z</time>
      </trkpt>
      <trkpt lat="50.729690557345748" lon="13.217716477811337">
        <ele>437</ele>
        <time>2026-08-29T11:21:51Z</time>
      </trkpt>
      <trkpt lat="50.729639008641243" lon="13.217645986005664">
        <ele>437</ele>
        <time>2026-08-29T11:21:52Z</time>
      </trkpt>
      <trkpt lat="50.72956851683557" lon="13.217593850567937">
        <ele>436</ele>
        <time>2026-08-29T11:21:53Z</time>
      </trkpt>
      <trkpt lat="50.729492241516709" lon="13.217565435916185">
        <ele>435</ele>
        <time>2026-08-29T11:21:54Z</time>
      </trkpt>
      <trkpt lat="50.729422168806195" lon="13.217548001557589">
        <ele>434</ele>
        <time>2026-08-29T11:21:55Z</time>
      </trkpt>
      <trkpt lat="50.729348910972476" lon="13.217546325176954">
        <ele>433</ele>
        <time>2026-08-29T11:21:56Z</time>
      </trkpt>
      <trkpt lat="50.729270204901695" lon="13.217556970193982">
        <ele>433</ele>
        <time>2026-08-29T11:21:57Z</time>
      </trkpt>
      <trkpt lat="50.729187978431582" lon="13.21756518445909">
        <ele>432</ele>
        <time>2026-08-29T11:21:58Z</time>
      </trkpt>
      <trkpt lat="50.72910332120955" lon="13.217514976859093">
        <ele>431</ele>
        <time>2026-08-29T11:21:59Z</time>
      </trkpt>
      <trkpt lat="50.729039199650288" lon="13.217452531680465">
        <ele>431</ele>
        <time>2026-08-29T11:22:00Z</time>
      </trkpt>
      <trkpt lat="50.728980107232928" lon="13.217396037653089">
        <ele>431</ele>
        <time>2026-08-29T11:22:01Z</time>
      </trkpt>
      <trkpt lat="50.72893182747066" lon="13.217329233884811">
        <ele>431</ele>
        <time>2026-08-29T11:22:02Z</time>
      </trkpt>
      <trkpt lat="50.728884721174836" lon="13.217270895838737">
        <ele>431</ele>
        <time>2026-08-29T11:22:03Z</time>
      </trkpt>
      <trkpt lat="50.728840800002217" lon="13.217209624126554">
        <ele>431</ele>
        <time>2026-08-29T11:22:04Z</time>
      </trkpt>
      <trkpt lat="50.728790173307061" lon="13.217162769287825">
        <ele>431</ele>
        <time>2026-08-29T11:22:05Z</time>
      </trkpt>
      <trkpt lat="50.728752622380853" lon="13.217124212533236">
        <ele>430</ele>
        <time>2026-08-29T11:22:06Z</time>
      </trkpt>
      <trkpt lat="50.728726219385862" lon="13.21710929274559">
        <ele>430</ele>
        <time>2026-08-29T11:22:07Z</time>
      </trkpt>
      <trkpt lat="50.728700319305062" lon="13.217081632465124">
        <ele>430</ele>
        <time>2026-08-29T11:22:08Z</time>
      </trkpt>
      <trkpt lat="50.728662936016917" lon="13.217053133994341">
        <ele>429</ele>
        <time>2026-08-29T11:22:09Z</time>
      </trkpt>
      <trkpt lat="50.728622451424599" lon="13.217026479542255">
        <ele>429</ele>
        <time>2026-08-29T11:22:10Z</time>
      </trkpt>
      <trkpt lat="50.728580458089709" lon="13.2170086260885">
        <ele>428</ele>
        <time>2026-08-29T11:22:11Z</time>
      </trkpt>
      <trkpt lat="50.728536453098059" lon="13.216983480378985">
        <ele>429</ele>
        <time>2026-08-29T11:22:12Z</time>
      </trkpt>
      <trkpt lat="50.728486999869347" lon="13.216949282214046">
        <ele>429</ele>
        <time>2026-08-29T11:22:13Z</time>
      </trkpt>
      <trkpt lat="50.728444000706077" lon="13.21691432967782">
        <ele>429</ele>
        <time>2026-08-29T11:22:14Z</time>
      </trkpt>
      <trkpt lat="50.728397648781538" lon="13.216850627213717">
        <ele>429</ele>
        <time>2026-08-29T11:22:15Z</time>
      </trkpt>
      <trkpt lat="50.728357918560505" lon="13.21678533218801">
        <ele>429</ele>
        <time>2026-08-29T11:22:16Z</time>
      </trkpt>
      <trkpt lat="50.728316260501742" lon="13.216711236163974">
        <ele>428</ele>
        <time>2026-08-29T11:22:17Z</time>
      </trkpt>
      <trkpt lat="50.728272758424282" lon="13.216646695509553">
        <ele>428</ele>
        <time>2026-08-29T11:22:18Z</time>
      </trkpt>
      <trkpt lat="50.728241661563516" lon="13.216570504009724">
        <ele>427</ele>
        <time>2026-08-29T11:22:19Z</time>
      </trkpt>
      <trkpt lat="50.72821157053113" lon="13.21649020537734">
        <ele>427</ele>
        <time>2026-08-29T11:22:20Z</time>
      </trkpt>
      <trkpt lat="50.728180389851332" lon="13.21640906855464">
        <ele>426</ele>
        <time>2026-08-29T11:22:21Z</time>
      </trkpt>
      <trkpt lat="50.728151891380548" lon="13.216309491544962">
        <ele>426</ele>
        <time>2026-08-29T11:22:22Z</time>
      </trkpt>
      <trkpt lat="50.728134205564857" lon="13.216214356943965">
        <ele>426</ele>
        <time>2026-08-29T11:22:23Z</time>
      </trkpt>
      <trkpt lat="50.728118950501084" lon="13.216122323647141">
        <ele>426</ele>
        <time>2026-08-29T11:22:24Z</time>
      </trkpt>
      <trkpt lat="50.72812314145267" lon="13.216022746637464">
        <ele>426</ele>
        <time>2026-08-29T11:22:25Z</time>
      </trkpt>
      <trkpt lat="50.728112580254674" lon="13.215909926220775">
        <ele>425</ele>
        <time>2026-08-29T11:22:26Z</time>
      </trkpt>
      <trkpt lat="50.728112580254674" lon="13.215827699750662">
        <ele>425</ele>
        <time>2026-08-29T11:22:27Z</time>
      </trkpt>
      <trkpt lat="50.728109395131469" lon="13.215722171589732">
        <ele>426</ele>
        <time>2026-08-29T11:22:28Z</time>
      </trkpt>
      <trkpt lat="50.728115178644657" lon="13.215634413063526">
        <ele>426</ele>
        <time>2026-08-29T11:22:29Z</time>
      </trkpt>
      <trkpt lat="50.728124482557178" lon="13.215540032833815">
        <ele>426</ele>
        <time>2026-08-29T11:22:30Z</time>
      </trkpt>
      <trkpt lat="50.728134205564857" lon="13.215440204367042">
        <ele>426</ele>
        <time>2026-08-29T11:22:31Z</time>
      </trkpt>
      <trkpt lat="50.728150885552168" lon="13.215355044230819">
        <ele>426</ele>
        <time>2026-08-29T11:22:32Z</time>
      </trkpt>
      <trkpt lat="50.728164883330464" lon="13.215258400887251">
        <ele>426</ele>
        <time>2026-08-29T11:22:33Z</time>
      </trkpt>
      <trkpt lat="50.728178797289729" lon="13.215171983465552">
        <ele>426</ele>
        <time>2026-08-29T11:22:34Z</time>
      </trkpt>
      <trkpt lat="50.728195980191231" lon="13.215073244646192">
        <ele>426</ele>
        <time>2026-08-29T11:22:35Z</time>
      </trkpt>
      <trkpt lat="50.72821500711143" lon="13.214972158893943">
        <ele>426</ele>
        <time>2026-08-29T11:22:36Z</time>
      </trkpt>
      <trkpt lat="50.728236883878708" lon="13.214882053434849">
        <ele>426</ele>
        <time>2026-08-29T11:22:37Z</time>
      </trkpt>
      <trkpt lat="50.728252306580544" lon="13.214795552194118">
        <ele>426</ele>
        <time>2026-08-29T11:22:38Z</time>
      </trkpt>
      <trkpt lat="50.728272339329123" lon="13.214689353480935">
        <ele>426</ele>
        <time>2026-08-29T11:22:39Z</time>
      </trkpt>
      <trkpt lat="50.728296898305416" lon="13.2145772036165">
        <ele>426</ele>
        <time>2026-08-29T11:22:40Z</time>
      </trkpt>
      <trkpt lat="50.728315254673362" lon="13.214463628828526">
        <ele>426</ele>
        <time>2026-08-29T11:22:41Z</time>
      </trkpt>
      <trkpt lat="50.728335790336132" lon="13.214373691007495">
        <ele>427</ele>
        <time>2026-08-29T11:22:42Z</time>
      </trkpt>
      <trkpt lat="50.72835867293179" lon="13.214282914996147">
        <ele>427</ele>
        <time>2026-08-29T11:22:43Z</time>
      </trkpt>
      <trkpt lat="50.728373005986214" lon="13.214194653555751">
        <ele>427</ele>
        <time>2026-08-29T11:22:44Z</time>
      </trkpt>
      <trkpt lat="50.728385578840971" lon="13.214101949706674">
        <ele>428</ele>
        <time>2026-08-29T11:22:45Z</time>
      </trkpt>
      <trkpt lat="50.728402929380536" lon="13.214016454294324">
        <ele>429</ele>
        <time>2026-08-29T11:22:46Z</time>
      </trkpt>
      <trkpt lat="50.72842069901526" lon="13.21392928250134">
        <ele>429</ele>
        <time>2026-08-29T11:22:47Z</time>
      </trkpt>
      <trkpt lat="50.728438720107079" lon="13.213838087394834">
        <ele>428</ele>
        <time>2026-08-29T11:22:48Z</time>
      </trkpt>
      <trkpt lat="50.728458501398563" lon="13.213744126260281">
        <ele>429</ele>
        <time>2026-08-29T11:22:49Z</time>
      </trkpt>
      <trkpt lat="50.728468978777528" lon="13.213657876476645">
        <ele>429</ele>
        <time>2026-08-29T11:22:50Z</time>
      </trkpt>
      <trkpt lat="50.728481048718095" lon="13.213573303073645">
        <ele>430</ele>
        <time>2026-08-29T11:22:51Z</time>
      </trkpt>
      <trkpt lat="50.728499656543136" lon="13.213477414101362">
        <ele>430</ele>
        <time>2026-08-29T11:22:52Z</time>
      </trkpt>
      <trkpt lat="50.72851893492043" lon="13.213380770757794">
        <ele>431</ele>
        <time>2026-08-29T11:22:53Z</time>
      </trkpt>
      <trkpt lat="50.728540141135454" lon="13.213289408013225">
        <ele>430</ele>
        <time>2026-08-29T11:22:54Z</time>
      </trkpt>
      <trkpt lat="50.72855656966567" lon="13.213198715820909">
        <ele>429</ele>
        <time>2026-08-29T11:22:55Z</time>
      </trkpt>
      <trkpt lat="50.728567969053984" lon="13.213110202923417">
        <ele>429</ele>
        <time>2026-08-29T11:22:56Z</time>
      </trkpt>
      <trkpt lat="50.728579368442297" lon="13.213060749694705">
        <ele>429</ele>
        <time>2026-08-29T11:22:57Z</time>
      </trkpt>
      <trkpt lat="50.728590600192547" lon="13.213019426912069">
        <ele>428</ele>
        <time>2026-08-29T11:22:58Z</time>
      </trkpt>
      <trkpt lat="50.728608788922429" lon="13.212981373071671">
        <ele>428</ele>
        <time>2026-08-29T11:22:59Z</time>
      </trkpt>
      <trkpt lat="50.72862496599555" lon="13.212938457727432">
        <ele>428</ele>
        <time>2026-08-29T11:23:00Z</time>
      </trkpt>
      <trkpt lat="50.728645753115416" lon="13.212885400280356">
        <ele>428</ele>
        <time>2026-08-29T11:23:01Z</time>
      </trkpt>
      <trkpt lat="50.728669138625264" lon="13.212838126346469">
        <ele>428</ele>
        <time>2026-08-29T11:23:02Z</time>
      </trkpt>
      <trkpt lat="50.728691183030605" lon="13.212775010615587">
        <ele>428</ele>
        <time>2026-08-29T11:23:03Z</time>
      </trkpt>
      <trkpt lat="50.728711718693376" lon="13.212710218504071">
        <ele>428</ele>
        <time>2026-08-29T11:23:04Z</time>
      </trkpt>
      <trkpt lat="50.728731667622924" lon="13.212650371715426">
        <ele>428</ele>
        <time>2026-08-29T11:23:05Z</time>
      </trkpt>
      <trkpt lat="50.728754801675677" lon="13.212597817182541">
        <ele>428</ele>
        <time>2026-08-29T11:23:06Z</time>
      </trkpt>
      <trkpt lat="50.728788999840617" lon="13.212549369782209">
        <ele>428</ele>
        <time>2026-08-29T11:23:07Z</time>
      </trkpt>
      <trkpt lat="50.728828394785523" lon="13.212492121383548">
        <ele>427</ele>
        <time>2026-08-29T11:23:08Z</time>
      </trkpt>
      <trkpt lat="50.728870388120413" lon="13.212434872984886">
        <ele>427</ele>
        <time>2026-08-29T11:23:09Z</time>
      </trkpt>
      <trkpt lat="50.728913638740778" lon="13.212385503575206">
        <ele>427</ele>
        <time>2026-08-29T11:23:10Z</time>
      </trkpt>
      <trkpt lat="50.728949764743447" lon="13.212353484705091">
        <ele>427</ele>
        <time>2026-08-29T11:23:11Z</time>
      </trkpt>
      <trkpt lat="50.728966863825917" lon="13.212342839688063">
        <ele>427</ele>
        <time>2026-08-29T11:23:12Z</time>
      </trkpt>
      <trkpt lat="50.728985723108053" lon="13.212325153872371">
        <ele>427</ele>
        <time>2026-08-29T11:23:13Z</time>
      </trkpt>
      <trkpt lat="50.729002151638269" lon="13.212298080325127">
        <ele>427</ele>
        <time>2026-08-29T11:23:14Z</time>
      </trkpt>
      <trkpt lat="50.729018999263644" lon="13.212283747270703">
        <ele>427</ele>
        <time>2026-08-29T11:23:15Z</time>
      </trkpt>
      <trkpt lat="50.729036517441273" lon="13.212256003171206">
        <ele>427</ele>
        <time>2026-08-29T11:23:16Z</time>
      </trkpt>
      <trkpt lat="50.729045905172825" lon="13.212236892431974">
        <ele>427</ele>
        <time>2026-08-29T11:23:17Z</time>
      </trkpt>
      <trkpt lat="50.729062920436263" lon="13.212217530235648">
        <ele>427</ele>
        <time>2026-08-29T11:23:18Z</time>
      </trkpt>
      <trkpt lat="50.729073649272323" lon="13.212213004007936">
        <ele>427</ele>
        <time>2026-08-29T11:23:19Z</time>
      </trkpt>
      <trkpt lat="50.729084713384509" lon="13.212197329849005">
        <ele>428</ele>
        <time>2026-08-29T11:23:20Z</time>
      </trkpt>
      <trkpt lat="50.729095442220569" lon="13.212200095877051">
        <ele>428</ele>
        <time>2026-08-29T11:23:21Z</time>
      </trkpt>
      <trkpt lat="50.729093765839934" lon="13.212196240201592">
        <ele>428</ele>
        <time>2026-08-29T11:23:22Z</time>
      </trkpt>
      <trkpt lat="50.729099297896028" lon="13.212190037593246">
        <ele>428</ele>
        <time>2026-08-29T11:23:23Z</time>
      </trkpt>
      <trkpt lat="50.729108853265643" lon="13.212176626548171">
        <ele>428</ele>
        <time>2026-08-29T11:23:24Z</time>
      </trkpt>
      <trkpt lat="50.729124443605542" lon="13.212167238816619">
        <ele>428</ele>
        <time>2026-08-29T11:23:25Z</time>
      </trkpt>
      <trkpt lat="50.729129053652287" lon="13.212145613506436">
        <ele>428</ele>
        <time>2026-08-29T11:23:26Z</time>
      </trkpt>
      <trkpt lat="50.729137184098363" lon="13.2121267542243">
        <ele>428</ele>
        <time>2026-08-29T11:23:27Z</time>
      </trkpt>
      <trkpt lat="50.729140704497695" lon="13.212133040651679">
        <ele>428</ele>
        <time>2026-08-29T11:23:28Z</time>
      </trkpt>
      <trkpt lat="50.729152522981167" lon="13.21212817914784">
        <ele>428</ele>
        <time>2026-08-29T11:23:29Z</time>
      </trkpt>
      <trkpt lat="50.729171968996525" lon="13.21212281472981">
        <ele>428</ele>
        <time>2026-08-29T11:23:30Z</time>
      </trkpt>
      <trkpt lat="50.729187559336424" lon="13.212114349007607">
        <ele>429</ele>
        <time>2026-08-29T11:23:31Z</time>
      </trkpt>
      <trkpt lat="50.729199796915054" lon="13.212115354835987">
        <ele>430</ele>
        <time>2026-08-29T11:23:32Z</time>
      </trkpt>
      <trkpt lat="50.729213207960129" lon="13.212094148620963">
        <ele>430</ele>
        <time>2026-08-29T11:23:33Z</time>
      </trkpt>
      <trkpt lat="50.729219997301698" lon="13.212079647928476">
        <ele>430</ele>
        <time>2026-08-29T11:23:34Z</time>
      </trkpt>
      <trkpt lat="50.729227792471647" lon="13.212076211348176">
        <ele>430</ele>
        <time>2026-08-29T11:23:35Z</time>
      </trkpt>
      <trkpt lat="50.72923818603158" lon="13.212062884122133">
        <ele>430</ele>
        <time>2026-08-29T11:23:36Z</time>
      </trkpt>
      <trkpt lat="50.729257799685001" lon="13.212047712877393">
        <ele>430</ele>
        <time>2026-08-29T11:23:37Z</time>
      </trkpt>
      <trkpt lat="50.729257212951779" lon="13.212035810574889">
        <ele>430</ele>
        <time>2026-08-29T11:23:38Z</time>
      </trkpt>
      <trkpt lat="50.729261068627238" lon="13.212024411186576">
        <ele>430</ele>
        <time>2026-08-29T11:23:39Z</time>
      </trkpt>
      <trkpt lat="50.729269869625568" lon="13.212015023455024">
        <ele>431</ele>
        <time>2026-08-29T11:23:40Z</time>
      </trkpt>
      <trkpt lat="50.729278838261962" lon="13.212011167779565">
        <ele>431</ele>
        <time>2026-08-29T11:23:41Z</time>
      </trkpt>
      <trkpt lat="50.729289231821895" lon="13.212003037333488">
        <ele>431</ele>
        <time>2026-08-29T11:23:42Z</time>
      </trkpt>
      <trkpt lat="50.729293506592512" lon="13.211985351517797">
        <ele>431</ele>
        <time>2026-08-29T11:23:43Z</time>
      </trkpt>
      <trkpt lat="50.729301469400525" lon="13.211968503892422">
        <ele>431</ele>
        <time>2026-08-29T11:23:44Z</time>
      </trkpt>
      <trkpt lat="50.729301469400525" lon="13.211950398981571">
        <ele>431</ele>
        <time>2026-08-29T11:23:45Z</time>
      </trkpt>
      <trkpt lat="50.729307169094682" lon="13.211923660710454">
        <ele>432</ele>
        <time>2026-08-29T11:23:46Z</time>
      </trkpt>
      <trkpt lat="50.729314461350441" lon="13.211903544142842">
        <ele>432</ele>
        <time>2026-08-29T11:23:47Z</time>
      </trkpt>
      <trkpt lat="50.729322591796517" lon="13.211886528879404">
        <ele>433</ele>
        <time>2026-08-29T11:23:48Z</time>
      </trkpt>
      <trkpt lat="50.729330135509372" lon="13.211868675425649">
        <ele>433</ele>
        <time>2026-08-29T11:23:49Z</time>
      </trkpt>
      <trkpt lat="50.72933591902256" lon="13.211857276037335">
        <ele>433</ele>
        <time>2026-08-29T11:23:50Z</time>
      </trkpt>
      <trkpt lat="50.729347988963127" lon="13.211831878870726">
        <ele>433</ele>
        <time>2026-08-29T11:23:51Z</time>
      </trkpt>
      <trkpt lat="50.72935838252306" lon="13.211811846122146">
        <ele>433</ele>
        <time>2026-08-29T11:23:52Z</time>
      </trkpt>
      <trkpt lat="50.729363411664963" lon="13.21178519167006">
        <ele>433</ele>
        <time>2026-08-29T11:23:53Z</time>
      </trkpt>
      <trkpt lat="50.729373302310705" lon="13.211771529167891">
        <ele>433</ele>
        <time>2026-08-29T11:23:54Z</time>
      </trkpt>
      <trkpt lat="50.729384031146765" lon="13.211754849180579">
        <ele>433</ele>
        <time>2026-08-29T11:23:55Z</time>
      </trkpt>
      <trkpt lat="50.729396268725395" lon="13.21173632517457">
        <ele>433</ele>
        <time>2026-08-29T11:23:56Z</time>
      </trkpt>
      <trkpt lat="50.729404231533408" lon="13.211719980463386">
        <ele>434</ele>
        <time>2026-08-29T11:23:57Z</time>
      </trkpt>
      <trkpt lat="50.72941361926496" lon="13.211704138666391">
        <ele>435</ele>
        <time>2026-08-29T11:23:58Z</time>
      </trkpt>
      <trkpt lat="50.729429544880986" lon="13.21166985668242">
        <ele>435</ele>
        <time>2026-08-29T11:23:59Z</time>
      </trkpt>
      <trkpt lat="50.729453098028898" lon="13.211641358211637">
        <ele>434</ele>
        <time>2026-08-29T11:24:00Z</time>
      </trkpt>
      <trkpt lat="50.729468939825892" lon="13.211614955216646">
        <ele>435</ele>
        <time>2026-08-29T11:24:01Z</time>
      </trkpt>
      <trkpt lat="50.729489307850599" lon="13.211588468402624">
        <ele>435</ele>
        <time>2026-08-29T11:24:02Z</time>
      </trkpt>
      <trkpt lat="50.729507999494672" lon="13.211567094549537">
        <ele>435</ele>
        <time>2026-08-29T11:24:03Z</time>
      </trkpt>
      <trkpt lat="50.729528954252601" lon="13.211533650755882">
        <ele>436</ele>
        <time>2026-08-29T11:24:04Z</time>
      </trkpt>
      <trkpt lat="50.729550076648593" lon="13.211503308266401">
        <ele>435</ele>
        <time>2026-08-29T11:24:05Z</time>
      </trkpt>
      <trkpt lat="50.729568935930729" lon="13.211471876129508">
        <ele>436</ele>
        <time>2026-08-29T11:24:06Z</time>
      </trkpt>
      <trkpt lat="50.729584945365787" lon="13.211437007412314">
        <ele>436</ele>
        <time>2026-08-29T11:24:07Z</time>
      </trkpt>
      <trkpt lat="50.729603301733732" lon="13.211405491456389">
        <ele>436</ele>
        <time>2026-08-29T11:24:08Z</time>
      </trkpt>
      <trkpt lat="50.729629788547754" lon="13.211367689073086">
        <ele>436</ele>
        <time>2026-08-29T11:24:09Z</time>
      </trkpt>
      <trkpt lat="50.729657113552094" lon="13.211331311613321">
        <ele>436</ele>
        <time>2026-08-29T11:24:10Z</time>
      </trkpt>
      <trkpt lat="50.729686198756099" lon="13.211290491744876">
        <ele>436</ele>
        <time>2026-08-29T11:24:11Z</time>
      </trkpt>
      <trkpt lat="50.729715451598167" lon="13.211232321336865">
        <ele>436</ele>
        <time>2026-08-29T11:24:12Z</time>
      </trkpt>
      <trkpt lat="50.729742189869285" lon="13.211190914735198">
        <ele>436</ele>
        <time>2026-08-29T11:24:13Z</time>
      </trkpt>
      <trkpt lat="50.729774460196495" lon="13.211142718791962">
        <ele>436</ele>
        <time>2026-08-29T11:24:14Z</time>
      </trkpt>
      <trkpt lat="50.729799941182137" lon="13.211115226149559">
        <ele>436</ele>
        <time>2026-08-29T11:24:15Z</time>
      </trkpt>
      <trkpt lat="50.729814022779465" lon="13.21108010597527">
        <ele>436</ele>
        <time>2026-08-29T11:24:16Z</time>
      </trkpt>
      <trkpt lat="50.729832798242569" lon="13.211050350219011">
        <ele>437</ele>
        <time>2026-08-29T11:24:17Z</time>
      </trkpt>
      <trkpt lat="50.729854088276625" lon="13.211026629433036">
        <ele>437</ele>
        <time>2026-08-29T11:24:18Z</time>
      </trkpt>
      <trkpt lat="50.729872612282634" lon="13.210996622219682">
        <ele>436</ele>
        <time>2026-08-29T11:24:19Z</time>
      </trkpt>
      <trkpt lat="50.729890130460262" lon="13.210968626663089">
        <ele>436</ele>
        <time>2026-08-29T11:24:20Z</time>
      </trkpt>
      <trkpt lat="50.729903457686305" lon="13.210940379649401">
        <ele>436</ele>
        <time>2026-08-29T11:24:21Z</time>
      </trkpt>
      <trkpt lat="50.729909325018525" lon="13.210901403799653">
        <ele>435</ele>
        <time>2026-08-29T11:24:22Z</time>
      </trkpt>
      <trkpt lat="50.72991837747395" lon="13.210854548960924">
        <ele>435</ele>
        <time>2026-08-29T11:24:23Z</time>
      </trkpt>
      <trkpt lat="50.729936901479959" lon="13.210805598646402">
        <ele>436</ele>
        <time>2026-08-29T11:24:24Z</time>
      </trkpt>
      <trkpt lat="50.729961292818189" lon="13.210751619189978">
        <ele>435</ele>
        <time>2026-08-29T11:24:25Z</time>
      </trkpt>
      <trkpt lat="50.729980152100325" lon="13.21070920675993">
        <ele>435</ele>
        <time>2026-08-29T11:24:26Z</time>
      </trkpt>
      <trkpt lat="50.730001358315349" lon="13.210668470710516">
        <ele>434</ele>
        <time>2026-08-29T11:24:27Z</time>
      </trkpt>
      <trkpt lat="50.730019798502326" lon="13.210619604215026">
        <ele>434</ele>
        <time>2026-08-29T11:24:28Z</time>
      </trkpt>
      <trkpt lat="50.730039915069938" lon="13.210571492090821">
        <ele>434</ele>
        <time>2026-08-29T11:24:29Z</time>
      </trkpt>
      <trkpt lat="50.730072101578116" lon="13.210516255348921">
        <ele>435</ele>
        <time>2026-08-29T11:24:30Z</time>
      </trkpt>
      <trkpt lat="50.730092637240887" lon="13.210469484329224">
        <ele>435</ele>
        <time>2026-08-29T11:24:31Z</time>
      </trkpt>
      <trkpt lat="50.730113089084625" lon="13.210413325577974">
        <ele>435</ele>
        <time>2026-08-29T11:24:32Z</time>
      </trkpt>
      <trkpt lat="50.730132954195142" lon="13.210361022502184">
        <ele>435</ele>
        <time>2026-08-29T11:24:33Z</time>
      </trkpt>
      <trkpt lat="50.730150304734707" lon="13.210315005853772">
        <ele>436</ele>
        <time>2026-08-29T11:24:34Z</time>
      </trkpt>
      <trkpt lat="50.730167990550399" lon="13.21026898920536">
        <ele>436</ele>
        <time>2026-08-29T11:24:35Z</time>
      </trkpt>
      <trkpt lat="50.730187017470598" lon="13.210229007527232">
        <ele>437</ele>
        <time>2026-08-29T11:24:36Z</time>
      </trkpt>
      <trkpt lat="50.730205960571766" lon="13.210178464651108">
        <ele>437</ele>
        <time>2026-08-29T11:24:37Z</time>
      </trkpt>
      <trkpt lat="50.730228759348392" lon="13.210120797157288">
        <ele>437</ele>
        <time>2026-08-29T11:24:38Z</time>
      </trkpt>
      <trkpt lat="50.730243679136038" lon="13.210070421919227">
        <ele>437</ele>
        <time>2026-08-29T11:24:39Z</time>
      </trkpt>
      <trkpt lat="50.73025650344789" lon="13.210012335330248">
        <ele>437</ele>
        <time>2026-08-29T11:24:40Z</time>
      </trkpt>
      <trkpt lat="50.730272429063916" lon="13.209956511855125">
        <ele>437</ele>
        <time>2026-08-29T11:24:41Z</time>
      </trkpt>
      <trkpt lat="50.730287600308657" lon="13.209909405559301">
        <ele>437</ele>
        <time>2026-08-29T11:24:42Z</time>
      </trkpt>
      <trkpt lat="50.730305202305317" lon="13.209866993129253">
        <ele>437</ele>
        <time>2026-08-29T11:24:43Z</time>
      </trkpt>
      <trkpt lat="50.730322217568755" lon="13.209824245423079">
        <ele>437</ele>
        <time>2026-08-29T11:24:44Z</time>
      </trkpt>
      <trkpt lat="50.730332275852561" lon="13.209772612899542">
        <ele>438</ele>
        <time>2026-08-29T11:24:45Z</time>
      </trkpt>
      <trkpt lat="50.730343088507652" lon="13.209727350622416">
        <ele>437</ele>
        <time>2026-08-29T11:24:46Z</time>
      </trkpt>
      <trkpt lat="50.730353314429522" lon="13.209674879908562">
        <ele>437</ele>
        <time>2026-08-29T11:24:47Z</time>
      </trkpt>
      <trkpt lat="50.730358678847551" lon="13.209621738642454">
        <ele>437</ele>
        <time>2026-08-29T11:24:48Z</time>
      </trkpt>
      <trkpt lat="50.730360606685281" lon="13.209557617083192">
        <ele>436</ele>
        <time>2026-08-29T11:24:49Z</time>
      </trkpt>
      <trkpt lat="50.7303527276963" lon="13.209489723667502">
        <ele>436</ele>
        <time>2026-08-29T11:24:50Z</time>
      </trkpt>
      <trkpt lat="50.730349710211158" lon="13.209420489147305">
        <ele>436</ele>
        <time>2026-08-29T11:24:51Z</time>
      </trkpt>
      <trkpt lat="50.730342669412494" lon="13.209334407001734">
        <ele>436</ele>
        <time>2026-08-29T11:24:52Z</time>
      </trkpt>
      <trkpt lat="50.730329090729356" lon="13.209255281835794">
        <ele>437</ele>
        <time>2026-08-29T11:24:53Z</time>
      </trkpt>
      <trkpt lat="50.730320708826184" lon="13.209175067022443">
        <ele>436</ele>
        <time>2026-08-29T11:24:54Z</time>
      </trkpt>
      <trkpt lat="50.730313500389457" lon="13.209081776440144">
        <ele>436</ele>
        <time>2026-08-29T11:24:55Z</time>
      </trkpt>
      <trkpt lat="50.730297407135367" lon="13.208988150581717">
        <ele>437</ele>
        <time>2026-08-29T11:24:56Z</time>
      </trkpt>
      <trkpt lat="50.730277290567756" lon="13.20887541398406">
        <ele>438</ele>
        <time>2026-08-29T11:24:57Z</time>
      </trkpt>
      <trkpt lat="50.730260945856571" lon="13.208773070946336">
        <ele>439</ele>
        <time>2026-08-29T11:24:58Z</time>
      </trkpt>
      <trkpt lat="50.730253821238875" lon="13.208683887496591">
        <ele>439</ele>
        <time>2026-08-29T11:24:59Z</time>
      </trkpt>
      <trkpt lat="50.730244098231196" lon="13.208583556115627">
        <ele>439</ele>
        <time>2026-08-29T11:25:00Z</time>
      </trkpt>
      <trkpt lat="50.730230184271932" lon="13.20849085226655">
        <ele>439</ele>
        <time>2026-08-29T11:25:01Z</time>
      </trkpt>
      <trkpt lat="50.730205709114671" lon="13.208380714058876">
        <ele>438</ele>
        <time>2026-08-29T11:25:02Z</time>
      </trkpt>
      <trkpt lat="50.730192298069596" lon="13.208274347707629">
        <ele>438</ele>
        <time>2026-08-29T11:25:03Z</time>
      </trkpt>
      <trkpt lat="50.73016949929297" lon="13.208182398229837">
        <ele>437</ele>
        <time>2026-08-29T11:25:04Z</time>
      </trkpt>
      <trkpt lat="50.730144018307328" lon="13.208087766543031">
        <ele>437</ele>
        <time>2026-08-29T11:25:05Z</time>
      </trkpt>
      <trkpt lat="50.730114849284291" lon="13.207984417676926">
        <ele>436</ele>
        <time>2026-08-29T11:25:06Z</time>
      </trkpt>
      <trkpt lat="50.730075789615512" lon="13.207872519269586">
        <ele>435</ele>
        <time>2026-08-29T11:25:07Z</time>
      </trkpt>
      <trkpt lat="50.730041759088635" lon="13.20776179432869">
        <ele>434</ele>
        <time>2026-08-29T11:25:08Z</time>
      </trkpt>
      <trkpt lat="50.729997754096985" lon="13.207661546766758">
        <ele>434</ele>
        <time>2026-08-29T11:25:09Z</time>
      </trkpt>
      <trkpt lat="50.729954671114683" lon="13.207569597288966">
        <ele>434</ele>
        <time>2026-08-29T11:25:10Z</time>
      </trkpt>
      <trkpt lat="50.729918545112014" lon="13.207471277564764">
        <ele>433</ele>
        <time>2026-08-29T11:25:11Z</time>
      </trkpt>
      <trkpt lat="50.729892645031214" lon="13.207356948405504">
        <ele>433</ele>
        <time>2026-08-29T11:25:12Z</time>
      </trkpt>
      <trkpt lat="50.729872360825539" lon="13.207256449386477">
        <ele>432</ele>
        <time>2026-08-29T11:25:13Z</time>
      </trkpt>
      <trkpt lat="50.729849059134722" lon="13.207150418311357">
        <ele>432</ele>
        <time>2026-08-29T11:25:14Z</time>
      </trkpt>
      <trkpt lat="50.729823661968112" lon="13.20702494122088">
        <ele>432</ele>
        <time>2026-08-29T11:25:15Z</time>
      </trkpt>
      <trkpt lat="50.7298001088202" lon="13.206893932074308">
        <ele>431</ele>
        <time>2026-08-29T11:25:16Z</time>
      </trkpt>
      <trkpt lat="50.729781752452254" lon="13.206770299002528">
        <ele>431</ele>
        <time>2026-08-29T11:25:17Z</time>
      </trkpt>
      <trkpt lat="50.729778902605176" lon="13.206652617082">
        <ele>430</ele>
        <time>2026-08-29T11:25:18Z</time>
      </trkpt>
      <trkpt lat="50.729774879291654" lon="13.206533594056964">
        <ele>430</ele>
        <time>2026-08-29T11:25:19Z</time>
      </trkpt>
      <trkpt lat="50.729765826836228" lon="13.206413313746452">
        <ele>430</ele>
        <time>2026-08-29T11:25:20Z</time>
      </trkpt>
      <trkpt lat="50.729757528752089" lon="13.206306276842952">
        <ele>430</ele>
        <time>2026-08-29T11:25:21Z</time>
      </trkpt>
      <trkpt lat="50.729754008352757" lon="13.206204017624259">
        <ele>430</ele>
        <time>2026-08-29T11:25:22Z</time>
      </trkpt>
      <trkpt lat="50.729740681126714" lon="13.206100584939122">
        <ele>429</ele>
        <time>2026-08-29T11:25:23Z</time>
      </trkpt>
      <trkpt lat="50.729707237333059" lon="13.206009222194552">
        <ele>427</ele>
        <time>2026-08-29T11:25:24Z</time>
      </trkpt>
      <trkpt lat="50.729663819074631" lon="13.205935209989548">
        <ele>427</ele>
        <time>2026-08-29T11:25:25Z</time>
      </trkpt>
      <trkpt lat="50.729613108560443" lon="13.205875279381871">
        <ele>426</ele>
        <time>2026-08-29T11:25:26Z</time>
      </trkpt>
      <trkpt lat="50.729570863768458" lon="13.205829514190555">
        <ele>425</ele>
        <time>2026-08-29T11:25:27Z</time>
      </trkpt>
      <trkpt lat="50.729551166296005" lon="13.205776456743479">
        <ele>424</ele>
        <time>2026-08-29T11:25:28Z</time>
      </trkpt>
      <trkpt lat="50.729534821584821" lon="13.20570076815784">
        <ele>423</ele>
        <time>2026-08-29T11:25:29Z</time>
      </trkpt>
      <trkpt lat="50.729521661996841" lon="13.205617535859346">
        <ele>421</ele>
        <time>2026-08-29T11:25:30Z</time>
      </trkpt>
      <trkpt lat="50.72950690984726" lon="13.205550061538815">
        <ele>421</ele>
        <time>2026-08-29T11:25:31Z</time>
      </trkpt>
      <trkpt lat="50.729502132162452" lon="13.205481665208936">
        <ele>420</ele>
        <time>2026-08-29T11:25:32Z</time>
      </trkpt>
      <trkpt lat="50.729493498802185" lon="13.205416118726134">
        <ele>419</ele>
        <time>2026-08-29T11:25:33Z</time>
      </trkpt>
      <trkpt lat="50.729494169354439" lon="13.205335065722466">
        <ele>419</ele>
        <time>2026-08-29T11:25:34Z</time>
      </trkpt>
      <trkpt lat="50.729483272880316" lon="13.205272452905774">
        <ele>419</ele>
        <time>2026-08-29T11:25:35Z</time>
      </trkpt>
      <trkpt lat="50.72948151268065" lon="13.20519944652915">
        <ele>418</ele>
        <time>2026-08-29T11:25:36Z</time>
      </trkpt>
      <trkpt lat="50.729474555701017" lon="13.205132056027651">
        <ele>418</ele>
        <time>2026-08-29T11:25:37Z</time>
      </trkpt>
      <trkpt lat="50.729468101635575" lon="13.205072125419974">
        <ele>417</ele>
        <time>2026-08-29T11:25:38Z</time>
      </trkpt>
      <trkpt lat="50.729455780237913" lon="13.205006327480078">
        <ele>417</ele>
        <time>2026-08-29T11:25:39Z</time>
      </trkpt>
      <trkpt lat="50.729450583457947" lon="13.204936841502786">
        <ele>417</ele>
        <time>2026-08-29T11:25:40Z</time>
      </trkpt>
      <trkpt lat="50.729442704468966" lon="13.204862996935844">
        <ele>416</ele>
        <time>2026-08-29T11:25:41Z</time>
      </trkpt>
      <trkpt lat="50.729438010603189" lon="13.204799043014646">
        <ele>416</ele>
        <time>2026-08-29T11:25:42Z</time>
      </trkpt>
      <trkpt lat="50.729432143270969" lon="13.20473282597959">
        <ele>416</ele>
        <time>2026-08-29T11:25:43Z</time>
      </trkpt>
      <trkpt lat="50.729430550709367" lon="13.204675829038024">
        <ele>416</ele>
        <time>2026-08-29T11:25:44Z</time>
      </trkpt>
      <trkpt lat="50.72942677885294" lon="13.204613551497459">
        <ele>416</ele>
        <time>2026-08-29T11:25:45Z</time>
      </trkpt>
      <trkpt lat="50.729421079158783" lon="13.204556470736861">
        <ele>416</ele>
        <time>2026-08-29T11:25:46Z</time>
      </trkpt>
      <trkpt lat="50.72941605001688" lon="13.204501569271088">
        <ele>417</ele>
        <time>2026-08-29T11:25:47Z</time>
      </trkpt>
      <trkpt lat="50.729415128007531" lon="13.204452283680439">
        <ele>417</ele>
        <time>2026-08-29T11:25:48Z</time>
      </trkpt>
      <trkpt lat="50.729419318959117" lon="13.204404842108488">
        <ele>417</ele>
        <time>2026-08-29T11:25:49Z</time>
      </trkpt>
      <trkpt lat="50.729428790509701" lon="13.20436142385006">
        <ele>417</ele>
        <time>2026-08-29T11:25:50Z</time>
      </trkpt>
      <trkpt lat="50.729437172412872" lon="13.204323118552566">
        <ele>417</ele>
        <time>2026-08-29T11:25:51Z</time>
      </trkpt>
      <trkpt lat="50.729443291202188" lon="13.204286154359579">
        <ele>417</ele>
        <time>2026-08-29T11:25:52Z</time>
      </trkpt>
      <trkpt lat="50.729452930390835" lon="13.204253213480115">
        <ele>416</ele>
        <time>2026-08-29T11:25:53Z</time>
      </trkpt>
      <trkpt lat="50.729464832693338" lon="13.204223792999983">
        <ele>416</ele>
        <time>2026-08-29T11:25:54Z</time>
      </trkpt>
      <trkpt lat="50.729472376406193" lon="13.20419822819531">
        <ele>416</ele>
        <time>2026-08-29T11:25:55Z</time>
      </trkpt>
      <trkpt lat="50.729475142434239" lon="13.204172663390636">
        <ele>416</ele>
        <time>2026-08-29T11:25:56Z</time>
      </trkpt>
      <trkpt lat="50.729474639520049" lon="13.204149194061756">
        <ele>416</ele>
        <time>2026-08-29T11:25:57Z</time>
      </trkpt>
      <trkpt lat="50.729467598721385" lon="13.204105440527201">
        <ele>416</ele>
        <time>2026-08-29T11:25:58Z</time>
      </trkpt>
      <trkpt lat="50.72946491651237" lon="13.204064453020692">
        <ele>416</ele>
        <time>2026-08-29T11:25:59Z</time>
      </trkpt>
      <trkpt lat="50.729463491588831" lon="13.204027907922864">
        <ele>416</ele>
        <time>2026-08-29T11:26:00Z</time>
      </trkpt>
      <trkpt lat="50.729464748874307" lon="13.203989434987307">
        <ele>415</ele>
        <time>2026-08-29T11:26:01Z</time>
      </trkpt>
      <trkpt lat="50.729465670883656" lon="13.203946435824037">
        <ele>415</ele>
        <time>2026-08-29T11:26:02Z</time>
      </trkpt>
      <trkpt lat="50.729469861835241" lon="13.203915925696492">
        <ele>415</ele>
        <time>2026-08-29T11:26:03Z</time>
      </trkpt>
      <trkpt lat="50.729468520730734" lon="13.203885750845075">
        <ele>415</ele>
        <time>2026-08-29T11:26:04Z</time>
      </trkpt>
      <trkpt lat="50.72946391068399" lon="13.203855156898499">
        <ele>415</ele>
        <time>2026-08-29T11:26:05Z</time>
      </trkpt>
      <trkpt lat="50.729464329779148" lon="13.203822048380971">
        <ele>415</ele>
        <time>2026-08-29T11:26:06Z</time>
      </trkpt>
      <trkpt lat="50.729466089978814" lon="13.203796315938234">
        <ele>415</ele>
        <time>2026-08-29T11:26:07Z</time>
      </trkpt>
      <trkpt lat="50.729466928169131" lon="13.20376580581069">
        <ele>416</ele>
        <time>2026-08-29T11:26:08Z</time>
      </trkpt>
      <trkpt lat="50.729468520730734" lon="13.203740660101175">
        <ele>416</ele>
        <time>2026-08-29T11:26:09Z</time>
      </trkpt>
      <trkpt lat="50.729471370577812" lon="13.203719202429056">
        <ele>415</ele>
        <time>2026-08-29T11:26:10Z</time>
      </trkpt>
      <trkpt lat="50.729477908462286" lon="13.203701851889491">
        <ele>415</ele>
        <time>2026-08-29T11:26:11Z</time>
      </trkpt>
      <trkpt lat="50.729481428861618" lon="13.203681735321879">
        <ele>415</ele>
        <time>2026-08-29T11:26:12Z</time>
      </trkpt>
      <trkpt lat="50.729482602328062" lon="13.203658517450094">
        <ele>415</ele>
        <time>2026-08-29T11:26:13Z</time>
      </trkpt>
      <trkpt lat="50.729480171576142" lon="13.203641921281815">
        <ele>414</ele>
        <time>2026-08-29T11:26:14Z</time>
      </trkpt>
      <trkpt lat="50.729472460225224" lon="13.203621888533235">
        <ele>414</ele>
        <time>2026-08-29T11:26:15Z</time>
      </trkpt>
      <trkpt lat="50.729471119120717" lon="13.203598754480481">
        <ele>414</ele>
        <time>2026-08-29T11:26:16Z</time>
      </trkpt>
      <trkpt lat="50.729467933997512" lon="13.203592887148261">
        <ele>414</ele>
        <time>2026-08-29T11:26:17Z</time>
      </trkpt>
      <trkpt lat="50.729469358921051" lon="13.203593054786325">
        <ele>413</ele>
        <time>2026-08-29T11:26:18Z</time>
      </trkpt>
      <trkpt lat="50.729469442740083" lon="13.203591546043754">
        <ele>412</ele>
        <time>2026-08-29T11:26:19Z</time>
      </trkpt>
      <trkpt lat="50.729469526559114" lon="13.203601101413369">
        <ele>412</ele>
        <time>2026-08-29T11:26:20Z</time>
      </trkpt>
      <trkpt lat="50.729469526559114" lon="13.203601771965623">
        <ele>412</ele>
        <time>2026-08-29T11:26:21Z</time>
      </trkpt>
      <trkpt lat="50.729469610378146" lon="13.203601771965623">
        <ele>412</ele>
        <time>2026-08-29T11:26:22Z</time>
      </trkpt>
      <trkpt lat="50.729469526559114" lon="13.203604370355606">
        <ele>412</ele>
        <time>2026-08-29T11:26:23Z</time>
      </trkpt>
      <trkpt lat="50.729468185454607" lon="13.203602191060781">
        <ele>413</ele>
        <time>2026-08-29T11:26:24Z</time>
      </trkpt>
      <trkpt lat="50.729472627863288" lon="13.203604454174638">
        <ele>413</ele>
        <time>2026-08-29T11:26:25Z</time>
      </trkpt>
      <trkpt lat="50.72947271168232" lon="13.203604621812701">
        <ele>413</ele>
        <time>2026-08-29T11:26:26Z</time>
      </trkpt>
      <trkpt lat="50.729478411376476" lon="13.203599844127893">
        <ele>413</ele>
        <time>2026-08-29T11:26:27Z</time>
      </trkpt>
      <trkpt lat="50.72947857901454" lon="13.203599257394671">
        <ele>413</ele>
        <time>2026-08-29T11:26:28Z</time>
      </trkpt>
      <trkpt lat="50.729478243738413" lon="13.203598670661449">
        <ele>413</ele>
        <time>2026-08-29T11:26:29Z</time>
      </trkpt>
      <trkpt lat="50.729477992281318" lon="13.203598167747259">
        <ele>413</ele>
        <time>2026-08-29T11:26:30Z</time>
      </trkpt>
      <trkpt lat="50.729477740824223" lon="13.203598000109196">
        <ele>413</ele>
        <time>2026-08-29T11:26:31Z</time>
      </trkpt>
      <trkpt lat="50.72947665117681" lon="13.203596072271466">
        <ele>414</ele>
        <time>2026-08-29T11:26:32Z</time>
      </trkpt>
      <trkpt lat="50.72947665117681" lon="13.203595485538244">
        <ele>414</ele>
        <time>2026-08-29T11:26:33Z</time>
      </trkpt>
      <trkpt lat="50.72947665117681" lon="13.203595485538244">
        <ele>414</ele>
        <time>2026-08-29T11:26:34Z</time>
      </trkpt>
      <trkpt lat="50.729476986452937" lon="13.203594982624054">
        <ele>414</ele>
        <time>2026-08-29T11:26:35Z</time>
      </trkpt>
      <trkpt lat="50.729477070271969" lon="13.203594898805022">
        <ele>414</ele>
        <time>2026-08-29T11:26:36Z</time>
      </trkpt>
      <trkpt lat="50.729477154091001" lon="13.203594731166959">
        <ele>414</ele>
        <time>2026-08-29T11:26:37Z</time>
      </trkpt>
      <trkpt lat="50.729477908462286" lon="13.203597664833069">
        <ele>414</ele>
        <time>2026-08-29T11:26:38Z</time>
      </trkpt>
      <trkpt lat="50.729476399719715" lon="13.203600095584989">
        <ele>414</ele>
        <time>2026-08-29T11:26:39Z</time>
      </trkpt>
      <trkpt lat="50.729474388062954" lon="13.203607304021716">
        <ele>414</ele>
        <time>2026-08-29T11:26:40Z</time>
      </trkpt>
      <trkpt lat="50.729476818814874" lon="13.203615853562951">
        <ele>414</ele>
        <time>2026-08-29T11:26:41Z</time>
      </trkpt>
      <trkpt lat="50.729474807158113" lon="13.203609231859446">
        <ele>415</ele>
        <time>2026-08-29T11:26:42Z</time>
      </trkpt>
      <trkpt lat="50.729475729167461" lon="13.203607304021716">
        <ele>415</ele>
        <time>2026-08-29T11:26:43Z</time>
      </trkpt>
      <trkpt lat="50.729475477710366" lon="13.203599341213703">
        <ele>415</ele>
        <time>2026-08-29T11:26:44Z</time>
      </trkpt>
      <trkpt lat="50.729473130777478" lon="13.203587187454104">
        <ele>415</ele>
        <time>2026-08-29T11:26:45Z</time>
      </trkpt>
      <trkpt lat="50.729478411376476" lon="13.203564388677478">
        <ele>415</ele>
        <time>2026-08-29T11:26:46Z</time>
      </trkpt>
      <trkpt lat="50.729488302022219" lon="13.203541003167629">
        <ele>415</ele>
        <time>2026-08-29T11:26:47Z</time>
      </trkpt>
      <trkpt lat="50.729501629248261" lon="13.203523401170969">
        <ele>414</ele>
        <time>2026-08-29T11:26:48Z</time>
      </trkpt>
      <trkpt lat="50.72951965034008" lon="13.203503116965294">
        <ele>415</ele>
        <time>2026-08-29T11:26:49Z</time>
      </trkpt>
      <trkpt lat="50.729540521278977" lon="13.203473193570971">
        <ele>415</ele>
        <time>2026-08-29T11:26:50Z</time>
      </trkpt>
      <trkpt lat="50.729563990607858" lon="13.203435558825731">
        <ele>415</ele>
        <time>2026-08-29T11:26:51Z</time>
      </trkpt>
      <trkpt lat="50.729593243449926" lon="13.203400690108538">
        <ele>415</ele>
        <time>2026-08-29T11:26:52Z</time>
      </trkpt>
      <trkpt lat="50.729637332260609" lon="13.203368252143264">
        <ele>415</ele>
        <time>2026-08-29T11:26:53Z</time>
      </trkpt>
      <trkpt lat="50.729668261483312" lon="13.203334724530578">
        <ele>415</ele>
        <time>2026-08-29T11:26:54Z</time>
      </trkpt>
      <trkpt lat="50.729706482961774" lon="13.203309075906873">
        <ele>415</ele>
        <time>2026-08-29T11:26:55Z</time>
      </trkpt>
      <trkpt lat="50.729746045544744" lon="13.203288288787007">
        <ele>415</ele>
        <time>2026-08-29T11:26:56Z</time>
      </trkpt>
      <trkpt lat="50.729790721088648" lon="13.203264232724905">
        <ele>415</ele>
        <time>2026-08-29T11:26:57Z</time>
      </trkpt>
      <trkpt lat="50.72983531281352" lon="13.203231962397695">
        <ele>415</ele>
        <time>2026-08-29T11:26:58Z</time>
      </trkpt>
      <trkpt lat="50.729876887053251" lon="13.203193489462137">
        <ele>415</ele>
        <time>2026-08-29T11:26:59Z</time>
      </trkpt>
      <trkpt lat="50.729921646416187" lon="13.203159961849451">
        <ele>415</ele>
        <time>2026-08-29T11:27:00Z</time>
      </trkpt>
      <trkpt lat="50.729962969198823" lon="13.203128110617399">
        <ele>414</ele>
        <time>2026-08-29T11:27:01Z</time>
      </trkpt>
      <trkpt lat="50.730001861229539" lon="13.2030866201967">
        <ele>414</ele>
        <time>2026-08-29T11:27:02Z</time>
      </trkpt>
      <trkpt lat="50.730044692754745" lon="13.203033814206719">
        <ele>414</ele>
        <time>2026-08-29T11:27:03Z</time>
      </trkpt>
      <trkpt lat="50.730086015537381" lon="13.20298939011991">
        <ele>414</ele>
        <time>2026-08-29T11:27:04Z</time>
      </trkpt>
      <trkpt lat="50.730126751586795" lon="13.202948654070497">
        <ele>414</ele>
        <time>2026-08-29T11:27:05Z</time>
      </trkpt>
      <trkpt lat="50.730165475979447" lon="13.202902805060148">
        <ele>414</ele>
        <time>2026-08-29T11:27:06Z</time>
      </trkpt>
      <trkpt lat="50.730206379666924" lon="13.202853938564658">
        <ele>414</ele>
        <time>2026-08-29T11:27:07Z</time>
      </trkpt>
      <trkpt lat="50.730243679136038" lon="13.202800881117582">
        <ele>414</ele>
        <time>2026-08-29T11:27:08Z</time>
      </trkpt>
      <trkpt lat="50.730281062424183" lon="13.202729215845466">
        <ele>414</ele>
        <time>2026-08-29T11:27:09Z</time>
      </trkpt>
      <trkpt lat="50.730325235053897" lon="13.20266199298203">
        <ele>414</ele>
        <time>2026-08-29T11:27:10Z</time>
      </trkpt>
      <trkpt lat="50.730357589200139" lon="13.202604912221432">
        <ele>414</ele>
        <time>2026-08-29T11:27:11Z</time>
      </trkpt>
      <trkpt lat="50.730396145954728" lon="13.20255110040307">
        <ele>414</ele>
        <time>2026-08-29T11:27:12Z</time>
      </trkpt>
      <trkpt lat="50.730430344119668" lon="13.202495193108916">
        <ele>414</ele>
        <time>2026-08-29T11:27:13Z</time>
      </trkpt>
      <trkpt lat="50.730470409616828" lon="13.202437274158001">
        <ele>415</ele>
        <time>2026-08-29T11:27:14Z</time>
      </trkpt>
      <trkpt lat="50.730509469285607" lon="13.202387318015099">
        <ele>414</ele>
        <time>2026-08-29T11:27:15Z</time>
      </trkpt>
      <trkpt lat="50.730545427650213" lon="13.202335182577372">
        <ele>414</ele>
        <time>2026-08-29T11:27:16Z</time>
      </trkpt>
      <trkpt lat="50.730580128729343" lon="13.20228572934866">
        <ele>414</ele>
        <time>2026-08-29T11:27:17Z</time>
      </trkpt>
      <trkpt lat="50.730619858950377" lon="13.20223200134933">
        <ele>415</ele>
        <time>2026-08-29T11:27:18Z</time>
      </trkpt>
      <trkpt lat="50.730658667162061" lon="13.202178524807096">
        <ele>415</ele>
        <time>2026-08-29T11:27:19Z</time>
      </trkpt>
      <trkpt lat="50.730699738487601" lon="13.202132759615779">
        <ele>415</ele>
        <time>2026-08-29T11:27:20Z</time>
      </trkpt>
      <trkpt lat="50.730737373232841" lon="13.202094538137317">
        <ele>416</ele>
        <time>2026-08-29T11:27:21Z</time>
      </trkpt>
      <trkpt lat="50.730780204758048" lon="13.202076349407434">
        <ele>415</ele>
        <time>2026-08-29T11:27:22Z</time>
      </trkpt>
      <trkpt lat="50.730828400701284" lon="13.20207366719842">
        <ele>415</ele>
        <time>2026-08-29T11:27:23Z</time>
      </trkpt>
      <trkpt lat="50.730871483683586" lon="13.202074086293578">
        <ele>416</ele>
        <time>2026-08-29T11:27:24Z</time>
      </trkpt>
      <trkpt lat="50.730905011296272" lon="13.202086240053177">
        <ele>416</ele>
        <time>2026-08-29T11:27:25Z</time>
      </trkpt>
      <trkpt lat="50.730930911377072" lon="13.202106943354011">
        <ele>416</ele>
        <time>2026-08-29T11:27:26Z</time>
      </trkpt>
      <trkpt lat="50.73095521889627" lon="13.202131753787398">
        <ele>416</ele>
        <time>2026-08-29T11:27:27Z</time>
      </trkpt>
      <trkpt lat="50.730975084006786" lon="13.202161928638816">
        <ele>416</ele>
        <time>2026-08-29T11:27:28Z</time>
      </trkpt>
      <trkpt lat="50.730991009622812" lon="13.202192857861519">
        <ele>416</ele>
        <time>2026-08-29T11:27:29Z</time>
      </trkpt>
      <trkpt lat="50.731002828106284" lon="13.202225714921951">
        <ele>416</ele>
        <time>2026-08-29T11:27:30Z</time>
      </trkpt>
      <trkpt lat="50.731016071513295" lon="13.2022715639323">
        <ele>416</ele>
        <time>2026-08-29T11:27:31Z</time>
      </trkpt>
      <trkpt lat="50.731027889996767" lon="13.202306935563684">
        <ele>415</ele>
        <time>2026-08-29T11:27:32Z</time>
      </trkpt>
      <trkpt lat="50.731038618832827" lon="13.202347587794065">
        <ele>415</ele>
        <time>2026-08-29T11:27:33Z</time>
      </trkpt>
      <trkpt lat="50.731049682945013" lon="13.202379858121276">
        <ele>416</ele>
        <time>2026-08-29T11:27:34Z</time>
      </trkpt>
      <trkpt lat="50.731068877503276" lon="13.202403327450156">
        <ele>415</ele>
        <time>2026-08-29T11:27:35Z</time>
      </trkpt>
      <trkpt lat="50.731097711250186" lon="13.202412379905581">
        <ele>415</ele>
        <time>2026-08-29T11:27:36Z</time>
      </trkpt>
      <trkpt lat="50.731135178357363" lon="13.202407602220774">
        <ele>415</ele>
        <time>2026-08-29T11:27:37Z</time>
      </trkpt>
      <trkpt lat="50.731177674606442" lon="13.202398885041475">
        <ele>415</ele>
        <time>2026-08-29T11:27:38Z</time>
      </trkpt>
      <trkpt lat="50.731222433969378" lon="13.202371140941978">
        <ele>415</ele>
        <time>2026-08-29T11:27:39Z</time>
      </trkpt>
      <trkpt lat="50.731274569407105" lon="13.202344821766019">
        <ele>414</ele>
        <time>2026-08-29T11:27:40Z</time>
      </trkpt>
      <trkpt lat="50.731327710673213" lon="13.202307438477874">
        <ele>414</ele>
        <time>2026-08-29T11:27:41Z</time>
      </trkpt>
      <trkpt lat="50.731386719271541" lon="13.20226033218205">
        <ele>413</ele>
        <time>2026-08-29T11:27:42Z</time>
      </trkpt>
      <trkpt lat="50.731447320431471" lon="13.202226050198078">
        <ele>413</ele>
        <time>2026-08-29T11:27:43Z</time>
      </trkpt>
      <trkpt lat="50.731511190533638" lon="13.202197551727295">
        <ele>413</ele>
        <time>2026-08-29T11:27:44Z</time>
      </trkpt>
      <trkpt lat="50.731576066464186" lon="13.202164359390736">
        <ele>413</ele>
        <time>2026-08-29T11:27:45Z</time>
      </trkpt>
      <trkpt lat="50.731642451137304" lon="13.202131753787398">
        <ele>413</ele>
        <time>2026-08-29T11:27:46Z</time>
      </trkpt>
      <trkpt lat="50.731707327067852" lon="13.202103339135647">
        <ele>412</ele>
        <time>2026-08-29T11:27:47Z</time>
      </trkpt>
      <trkpt lat="50.731775220483541" lon="13.202076349407434">
        <ele>412</ele>
        <time>2026-08-29T11:27:48Z</time>
      </trkpt>
      <trkpt lat="50.731846885755658" lon="13.202062770724297">
        <ele>412</ele>
        <time>2026-08-29T11:27:49Z</time>
      </trkpt>
      <trkpt lat="50.731920897960663" lon="13.202052880078554">
        <ele>412</ele>
        <time>2026-08-29T11:27:50Z</time>
      </trkpt>
      <trkpt lat="50.731985438615084" lon="13.20204927586019">
        <ele>412</ele>
        <time>2026-08-29T11:27:51Z</time>
      </trkpt>
      <trkpt lat="50.732055511325598" lon="13.202044414356351">
        <ele>412</ele>
        <time>2026-08-29T11:27:52Z</time>
      </trkpt>
      <trkpt lat="50.732124159112573" lon="13.202043743804097">
        <ele>413</ele>
        <time>2026-08-29T11:27:53Z</time>
      </trkpt>
      <trkpt lat="50.732199931517243" lon="13.20203360170126">
        <ele>413</ele>
        <time>2026-08-29T11:27:54Z</time>
      </trkpt>
      <trkpt lat="50.732276039198041" lon="13.202032512053847">
        <ele>413</ele>
        <time>2026-08-29T11:27:55Z</time>
      </trkpt>
      <trkpt lat="50.732346111908555" lon="13.202034020796418">
        <ele>413</ele>
        <time>2026-08-29T11:27:56Z</time>
      </trkpt>
      <trkpt lat="50.732416855171323" lon="13.202034439891577">
        <ele>414</ele>
        <time>2026-08-29T11:27:57Z</time>
      </trkpt>
      <trkpt lat="50.732490699738264" lon="13.202026896178722">
        <ele>414</ele>
        <time>2026-08-29T11:27:58Z</time>
      </trkpt>
      <trkpt lat="50.73255498893559" lon="13.202030332759023">
        <ele>414</ele>
        <time>2026-08-29T11:27:59Z</time>
      </trkpt>
      <trkpt lat="50.732628162950277" lon="13.202020190656185">
        <ele>414</ele>
        <time>2026-08-29T11:28:00Z</time>
      </trkpt>
      <trkpt lat="50.732695888727903" lon="13.202014323323965">
        <ele>414</ele>
        <time>2026-08-29T11:28:01Z</time>
      </trkpt>
      <trkpt lat="50.732756992802024" lon="13.202016921713948">
        <ele>415</ele>
        <time>2026-08-29T11:28:02Z</time>
      </trkpt>
      <trkpt lat="50.732812732458115" lon="13.202021699398756">
        <ele>415</ele>
        <time>2026-08-29T11:28:03Z</time>
      </trkpt>
      <trkpt lat="50.732868639752269" lon="13.202023208141327">
        <ele>415</ele>
        <time>2026-08-29T11:28:04Z</time>
      </trkpt>
      <trkpt lat="50.732919685542583" lon="13.202021447941661">
        <ele>415</ele>
        <time>2026-08-29T11:28:05Z</time>
      </trkpt>
      <trkpt lat="50.732967462390661" lon="13.202025471255183">
        <ele>415</ele>
        <time>2026-08-29T11:28:06Z</time>
      </trkpt>
      <trkpt lat="50.733006270602345" lon="13.202025638893247">
        <ele>415</ele>
        <time>2026-08-29T11:28:07Z</time>
      </trkpt>
      <trkpt lat="50.733038960024714" lon="13.202021615579724">
        <ele>416</ele>
        <time>2026-08-29T11:28:08Z</time>
      </trkpt>
      <trkpt lat="50.733068715780973" lon="13.20203360170126">
        <ele>416</ele>
        <time>2026-08-29T11:28:09Z</time>
      </trkpt>
      <trkpt lat="50.733096040785313" lon="13.202028824016452">
        <ele>416</ele>
        <time>2026-08-29T11:28:10Z</time>
      </trkpt>
      <trkpt lat="50.733123365789652" lon="13.202021028846502">
        <ele>416</ele>
        <time>2026-08-29T11:28:11Z</time>
      </trkpt>
      <trkpt lat="50.733146080747247" lon="13.202017843723297">
        <ele>416</ele>
        <time>2026-08-29T11:28:12Z</time>
      </trkpt>
      <trkpt lat="50.733169550076127" lon="13.202013317495584">
        <ele>417</ele>
        <time>2026-08-29T11:28:13Z</time>
      </trkpt>
      <trkpt lat="50.73319410905242" lon="13.202012479305267">
        <ele>417</ele>
        <time>2026-08-29T11:28:14Z</time>
      </trkpt>
      <trkpt lat="50.733214812353253" lon="13.202002923935652">
        <ele>417</ele>
        <time>2026-08-29T11:28:15Z</time>
      </trkpt>
      <trkpt lat="50.733237946406007" lon="13.202004600316286">
        <ele>417</ele>
        <time>2026-08-29T11:28:16Z</time>
      </trkpt>
      <trkpt lat="50.733260912820697" lon="13.202017676085234">
        <ele>417</ele>
        <time>2026-08-29T11:28:17Z</time>
      </trkpt>
      <trkpt lat="50.733280191197991" lon="13.202027399092913">
        <ele>417</ele>
        <time>2026-08-29T11:28:18Z</time>
      </trkpt>
      <trkpt lat="50.733302738517523" lon="13.202029913663864">
        <ele>417</ele>
        <time>2026-08-29T11:28:19Z</time>
      </trkpt>
      <trkpt lat="50.733323441818357" lon="13.202032847329974">
        <ele>417</ele>
        <time>2026-08-29T11:28:20Z</time>
      </trkpt>
      <trkpt lat="50.733344731852412" lon="13.202019603922963">
        <ele>416</ele>
        <time>2026-08-29T11:28:21Z</time>
      </trkpt>
      <trkpt lat="50.733361579477787" lon="13.202013149857521">
        <ele>416</ele>
        <time>2026-08-29T11:28:22Z</time>
      </trkpt>
      <trkpt lat="50.733374571427703" lon="13.202004265040159">
        <ele>416</ele>
        <time>2026-08-29T11:28:23Z</time>
      </trkpt>
      <trkpt lat="50.733392592519522" lon="13.202002672478557">
        <ele>417</ele>
        <time>2026-08-29T11:28:24Z</time>
      </trkpt>
      <trkpt lat="50.73340717703104" lon="13.202000660821795">
        <ele>417</ele>
        <time>2026-08-29T11:28:25Z</time>
      </trkpt>
      <trkpt lat="50.733420168980956" lon="13.201990937814116">
        <ele>417</ele>
        <time>2026-08-29T11:28:26Z</time>
      </trkpt>
      <trkpt lat="50.733439279720187" lon="13.201984651386738">
        <ele>416</ele>
        <time>2026-08-29T11:28:27Z</time>
      </trkpt>
      <trkpt lat="50.733450511470437" lon="13.201982388272882">
        <ele>416</ele>
        <time>2026-08-29T11:28:28Z</time>
      </trkpt>
      <trkpt lat="50.733459647744894" lon="13.201982472091913">
        <ele>416</ele>
        <time>2026-08-29T11:28:29Z</time>
      </trkpt>
      <trkpt lat="50.733472220599651" lon="13.201982639729977">
        <ele>417</ele>
        <time>2026-08-29T11:28:30Z</time>
      </trkpt>
      <trkpt lat="50.733483536168933" lon="13.201994374394417">
        <ele>417</ele>
        <time>2026-08-29T11:28:31Z</time>
      </trkpt>
      <trkpt lat="50.733496947214007" lon="13.201998816803098">
        <ele>417</ele>
        <time>2026-08-29T11:28:32Z</time>
      </trkpt>
      <trkpt lat="50.733508011326194" lon="13.201998313888907">
        <ele>418</ele>
        <time>2026-08-29T11:28:33Z</time>
      </trkpt>
      <trkpt lat="50.73351806961" lon="13.201998649165034">
        <ele>418</ele>
        <time>2026-08-29T11:28:34Z</time>
      </trkpt>
      <trkpt lat="50.733525278046727" lon="13.201994625851512">
        <ele>419</ele>
        <time>2026-08-29T11:28:35Z</time>
      </trkpt>
      <trkpt lat="50.733531899750233" lon="13.201984567567706">
        <ele>419</ele>
        <time>2026-08-29T11:28:36Z</time>
      </trkpt>
      <trkpt lat="50.73354204185307" lon="13.201981466263533">
        <ele>420</ele>
        <time>2026-08-29T11:28:37Z</time>
      </trkpt>
      <trkpt lat="50.733551764860749" lon="13.20196864195168">
        <ele>420</ele>
        <time>2026-08-29T11:28:38Z</time>
      </trkpt>
      <trkpt lat="50.73356450535357" lon="13.201956320554018">
        <ele>420</ele>
        <time>2026-08-29T11:28:39Z</time>
      </trkpt>
      <trkpt lat="50.733578586950898" lon="13.2019451726228">
        <ele>420</ele>
        <time>2026-08-29T11:28:40Z</time>
      </trkpt>
      <trkpt lat="50.733588561415672" lon="13.201922792941332">
        <ele>420</ele>
        <time>2026-08-29T11:28:41Z</time>
      </trkpt>
      <trkpt lat="50.733606498688459" lon="13.201903263106942">
        <ele>420</ele>
        <time>2026-08-29T11:28:42Z</time>
      </trkpt>
      <trkpt lat="50.733624268323183" lon="13.201892366632819">
        <ele>421</ele>
        <time>2026-08-29T11:28:43Z</time>
      </trkpt>
      <trkpt lat="50.733641786500812" lon="13.20189580321312">
        <ele>421</ele>
        <time>2026-08-29T11:28:44Z</time>
      </trkpt>
      <trkpt lat="50.733659556135535" lon="13.201889097690582">
        <ele>421</ele>
        <time>2026-08-29T11:28:45Z</time>
      </trkpt>
      <trkpt lat="50.733666429296136" lon="13.201872585341334">
        <ele>422</ele>
        <time>2026-08-29T11:28:46Z</time>
      </trkpt>
      <trkpt lat="50.733677241951227" lon="13.201866382732987">
        <ele>422</ele>
        <time>2026-08-29T11:28:47Z</time>
      </trkpt>
      <trkpt lat="50.733680259436369" lon="13.201853474602103">
        <ele>421</ele>
        <time>2026-08-29T11:28:48Z</time>
      </trkpt>
      <trkpt lat="50.733685959130526" lon="13.201842661947012">
        <ele>422</ele>
        <time>2026-08-29T11:28:49Z</time>
      </trkpt>
      <trkpt lat="50.733697526156902" lon="13.201820952817798">
        <ele>422</ele>
        <time>2026-08-29T11:28:50Z</time>
      </trkpt>
      <trkpt lat="50.733708757907152" lon="13.201815001666546">
        <ele>422</ele>
        <time>2026-08-29T11:28:51Z</time>
      </trkpt>
      <trkpt lat="50.733716553077102" lon="13.201814666390419">
        <ele>423</ele>
        <time>2026-08-29T11:28:52Z</time>
      </trkpt>
      <trkpt lat="50.733722671866417" lon="13.201811732724309">
        <ele>423</ele>
        <time>2026-08-29T11:28:53Z</time>
      </trkpt>
      <trkpt lat="50.733734741806984" lon="13.201819192618132">
        <ele>422</ele>
        <time>2026-08-29T11:28:54Z</time>
      </trkpt>
      <trkpt lat="50.733746560290456" lon="13.201809385791421">
        <ele>423</ele>
        <time>2026-08-29T11:28:55Z</time>
      </trkpt>
      <trkpt lat="50.733759300783277" lon="13.201809385791421">
        <ele>423</ele>
        <time>2026-08-29T11:28:56Z</time>
      </trkpt>
      <trkpt lat="50.733767682686448" lon="13.201807960867882">
        <ele>424</ele>
        <time>2026-08-29T11:28:57Z</time>
      </trkpt>
      <trkpt lat="50.733777154237032" lon="13.201793376356363">
        <ele>424</ele>
        <time>2026-08-29T11:28:58Z</time>
      </trkpt>
      <trkpt lat="50.733785787597299" lon="13.201779797673225">
        <ele>424</ele>
        <time>2026-08-29T11:28:59Z</time>
      </trkpt>
      <trkpt lat="50.7337960973382" lon="13.2017741817981">
        <ele>425</ele>
        <time>2026-08-29T11:29:00Z</time>
      </trkpt>
      <trkpt lat="50.733812358230352" lon="13.201760016381741">
        <ele>425</ele>
        <time>2026-08-29T11:29:01Z</time>
      </trkpt>
      <trkpt lat="50.733828702941537" lon="13.20175314322114">
        <ele>425</ele>
        <time>2026-08-29T11:29:02Z</time>
      </trkpt>
      <trkpt lat="50.733839012682438" lon="13.201745934784412">
        <ele>426</ele>
        <time>2026-08-29T11:29:03Z</time>
      </trkpt>
      <trkpt lat="50.733848232775927" lon="13.201733781024814">
        <ele>426</ele>
        <time>2026-08-29T11:29:04Z</time>
      </trkpt>
      <trkpt lat="50.733859548345208" lon="13.201730428263545">
        <ele>427</ele>
        <time>2026-08-29T11:29:05Z</time>
      </trkpt>
      <trkpt lat="50.733869606629014" lon="13.201729254797101">
        <ele>428</ele>
        <time>2026-08-29T11:29:06Z</time>
      </trkpt>
      <trkpt lat="50.733885951340199" lon="13.201723303645849">
        <ele>428</ele>
        <time>2026-08-29T11:29:07Z</time>
      </trkpt>
      <trkpt lat="50.733894752338529" lon="13.201722130179405">
        <ele>427</ele>
        <time>2026-08-29T11:29:08Z</time>
      </trkpt>
      <trkpt lat="50.733906151726842" lon="13.201706036925316">
        <ele>427</ele>
        <time>2026-08-29T11:29:09Z</time>
      </trkpt>
      <trkpt lat="50.733917467296124" lon="13.201692374423146">
        <ele>427</ele>
        <time>2026-08-29T11:29:10Z</time>
      </trkpt>
      <trkpt lat="50.733929788693786" lon="13.201682735234499">
        <ele>427</ele>
        <time>2026-08-29T11:29:11Z</time>
      </trkpt>
      <trkpt lat="50.733945295214653" lon="13.201674604788423">
        <ele>427</ele>
        <time>2026-08-29T11:29:12Z</time>
      </trkpt>
      <trkpt lat="50.73396029882133" lon="13.201665468513966">
        <ele>427</ele>
        <time>2026-08-29T11:29:13Z</time>
      </trkpt>
      <trkpt lat="50.733971279114485" lon="13.201651303097606">
        <ele>427</ele>
        <time>2026-08-29T11:29:14Z</time>
      </trkpt>
      <trkpt lat="50.733988462015986" lon="13.201640658080578">
        <ele>428</ele>
        <time>2026-08-29T11:29:15Z</time>
      </trkpt>
      <trkpt lat="50.734003633260727" lon="13.201639065518975">
        <ele>428</ele>
        <time>2026-08-29T11:29:16Z</time>
      </trkpt>
      <trkpt lat="50.734023414552212" lon="13.201626492664218">
        <ele>427</ele>
        <time>2026-08-29T11:29:17Z</time>
      </trkpt>
      <trkpt lat="50.734042357653379" lon="13.20162464864552">
        <ele>427</ele>
        <time>2026-08-29T11:29:18Z</time>
      </trkpt>
      <trkpt lat="50.734058702364564" lon="13.20161584764719">
        <ele>427</ele>
        <time>2026-08-29T11:29:19Z</time>
      </trkpt>
      <trkpt lat="50.734076891094446" lon="13.201609896495938">
        <ele>427</ele>
        <time>2026-08-29T11:29:20Z</time>
      </trkpt>
      <trkpt lat="50.734089128673077" lon="13.201603442430496">
        <ele>427</ele>
        <time>2026-08-29T11:29:21Z</time>
      </trkpt>
      <trkpt lat="50.734106814488769" lon="13.201600844040513">
        <ele>427</ele>
        <time>2026-08-29T11:29:22Z</time>
      </trkpt>
      <trkpt lat="50.734121818095446" lon="13.201592210680246">
        <ele>428</ele>
        <time>2026-08-29T11:29:23Z</time>
      </trkpt>
      <trkpt lat="50.734136318787932" lon="13.201579805463552">
        <ele>428</ele>
        <time>2026-08-29T11:29:24Z</time>
      </trkpt>
      <trkpt lat="50.734150819480419" lon="13.201564215123653">
        <ele>429</ele>
        <time>2026-08-29T11:29:25Z</time>
      </trkpt>
      <trkpt lat="50.734169092029333" lon="13.201554240658879">
        <ele>429</ele>
        <time>2026-08-29T11:29:26Z</time>
      </trkpt>
      <trkpt lat="50.734184263274074" lon="13.201539823785424">
        <ele>429</ele>
        <time>2026-08-29T11:29:27Z</time>
      </trkpt>
      <trkpt lat="50.734195411205292" lon="13.201521299779415">
        <ele>429</ele>
        <time>2026-08-29T11:29:28Z</time>
      </trkpt>
      <trkpt lat="50.734207481145859" lon="13.201510906219482">
        <ele>430</ele>
        <time>2026-08-29T11:29:29Z</time>
      </trkpt>
      <trkpt lat="50.734224999323487" lon="13.20150637999177">
        <ele>430</ele>
        <time>2026-08-29T11:29:30Z</time>
      </trkpt>
      <trkpt lat="50.734239332377911" lon="13.201498249545693">
        <ele>430</ele>
        <time>2026-08-29T11:29:31Z</time>
      </trkpt>
      <trkpt lat="50.734257018193603" lon="13.201490538194776">
        <ele>430</ele>
        <time>2026-08-29T11:29:32Z</time>
      </trkpt>
      <trkpt lat="50.734276128932834" lon="13.201486682519317">
        <ele>431</ele>
        <time>2026-08-29T11:29:33Z</time>
      </trkpt>
      <trkpt lat="50.734292138367891" lon="13.201478887349367">
        <ele>431</ele>
        <time>2026-08-29T11:29:34Z</time>
      </trkpt>
      <trkpt lat="50.734306387603283" lon="13.20146095007658">
        <ele>431</ele>
        <time>2026-08-29T11:29:35Z</time>
      </trkpt>
      <trkpt lat="50.734322313219309" lon="13.201447371393442">
        <ele>431</ele>
        <time>2026-08-29T11:29:36Z</time>
      </trkpt>
      <trkpt lat="50.734339160844684" lon="13.201427171006799">
        <ele>431</ele>
        <time>2026-08-29T11:29:37Z</time>
      </trkpt>
      <trkpt lat="50.73435852304101" lon="13.20141744799912">
        <ele>431</ele>
        <time>2026-08-29T11:29:38Z</time>
      </trkpt>
      <trkpt lat="50.734383082017303" lon="13.201411999762058">
        <ele>431</ele>
        <time>2026-08-29T11:29:39Z</time>
      </trkpt>
      <trkpt lat="50.734398756176233" lon="13.201413089409471">
        <ele>431</ele>
        <time>2026-08-29T11:29:40Z</time>
      </trkpt>
      <trkpt lat="50.734417950734496" lon="13.201400600373745">
        <ele>431</ele>
        <time>2026-08-29T11:29:41Z</time>
      </trkpt>
      <trkpt lat="50.734436558559537" lon="13.201381992548704">
        <ele>432</ele>
        <time>2026-08-29T11:29:42Z</time>
      </trkpt>
      <trkpt lat="50.734453992918134" lon="13.201375706121325">
        <ele>432</ele>
        <time>2026-08-29T11:29:43Z</time>
      </trkpt>
      <trkpt lat="50.734470337629318" lon="13.20136371999979">
        <ele>432</ele>
        <time>2026-08-29T11:29:44Z</time>
      </trkpt>
      <trkpt lat="50.734479473903775" lon="13.201357517391443">
        <ele>432</ele>
        <time>2026-08-29T11:29:45Z</time>
      </trkpt>
      <trkpt lat="50.734489280730486" lon="13.201348632574081">
        <ele>432</ele>
        <time>2026-08-29T11:29:46Z</time>
      </trkpt>
      <trkpt lat="50.734502272680402" lon="13.201339915394783">
        <ele>432</ele>
        <time>2026-08-29T11:29:47Z</time>
      </trkpt>
      <trkpt lat="50.734510319307446" lon="13.201336227357388">
        <ele>432</ele>
        <time>2026-08-29T11:29:48Z</time>
      </trkpt>
      <trkpt lat="50.734522473067045" lon="13.20132558234036">
        <ele>431</ele>
        <time>2026-08-29T11:29:49Z</time>
      </trkpt>
      <trkpt lat="50.734536722302437" lon="13.201316446065903">
        <ele>431</ele>
        <time>2026-08-29T11:29:50Z</time>
      </trkpt>
      <trkpt lat="50.734549127519131" lon="13.20131535641849">
        <ele>431</ele>
        <time>2026-08-29T11:29:51Z</time>
      </trkpt>
      <trkpt lat="50.734555078670382" lon="13.201295742765069">
        <ele>431</ele>
        <time>2026-08-29T11:29:52Z</time>
      </trkpt>
      <trkpt lat="50.734565807506442" lon="13.201287277042866">
        <ele>431</ele>
        <time>2026-08-29T11:29:53Z</time>
      </trkpt>
      <trkpt lat="50.734575698152184" lon="13.201273111626506">
        <ele>432</ele>
        <time>2026-08-29T11:29:54Z</time>
      </trkpt>
      <trkpt lat="50.734584918245673" lon="13.201269088312984">
        <ele>432</ele>
        <time>2026-08-29T11:29:55Z</time>
      </trkpt>
      <trkpt lat="50.734592378139496" lon="13.20124888792634">
        <ele>432</ele>
        <time>2026-08-29T11:29:56Z</time>
      </trkpt>
      <trkpt lat="50.734602687880397" lon="13.201236231252551">
        <ele>432</ele>
        <time>2026-08-29T11:29:57Z</time>
      </trkpt>
      <trkpt lat="50.734614841639996" lon="13.201232207939029">
        <ele>431</ele>
        <time>2026-08-29T11:29:58Z</time>
      </trkpt>
      <trkpt lat="50.734620122238994" lon="13.201219383627176">
        <ele>431</ele>
        <time>2026-08-29T11:29:59Z</time>
      </trkpt>
      <trkpt lat="50.734622720628977" lon="13.201200356706977">
        <ele>431</ele>
        <time>2026-08-29T11:30:00Z</time>
      </trkpt>
      <trkpt lat="50.734614171087742" lon="13.201191555708647">
        <ele>430</ele>
        <time>2026-08-29T11:30:01Z</time>
      </trkpt>
      <trkpt lat="50.734605370089412" lon="13.201184179633856">
        <ele>430</ele>
        <time>2026-08-29T11:30:02Z</time>
      </trkpt>
      <trkpt lat="50.734597742557526" lon="13.201199015602469">
        <ele>430</ele>
        <time>2026-08-29T11:30:03Z</time>
      </trkpt>
      <trkpt lat="50.734588438645005" lon="13.201222401112318">
        <ele>431</ele>
        <time>2026-08-29T11:30:04Z</time>
      </trkpt>
      <trkpt lat="50.734581397846341" lon="13.201239751651883">
        <ele>430</ele>
        <time>2026-08-29T11:30:05Z</time>
      </trkpt>
      <trkpt lat="50.734589193016291" lon="13.201254587620497">
        <ele>430</ele>
        <time>2026-08-29T11:30:06Z</time>
      </trkpt>
      <trkpt lat="50.734602520242333" lon="13.201250312849879">
        <ele>431</ele>
        <time>2026-08-29T11:30:07Z</time>
      </trkpt>
      <trkpt lat="50.734602939337492" lon="13.20122835226357">
        <ele>430</ele>
        <time>2026-08-29T11:30:08Z</time>
      </trkpt>
      <trkpt lat="50.734602268785238" lon="13.20121418684721">
        <ele>430</ele>
        <time>2026-08-29T11:30:09Z</time>
      </trkpt>
      <trkpt lat="50.734599167481065" lon="13.201209492981434">
        <ele>430</ele>
        <time>2026-08-29T11:30:10Z</time>
      </trkpt>
      <trkpt lat="50.734592378139496" lon="13.201218042522669">
        <ele>431</ele>
        <time>2026-08-29T11:30:11Z</time>
      </trkpt>
      <trkpt lat="50.734586259350181" lon="13.201235141605139">
        <ele>431</ele>
        <time>2026-08-29T11:30:12Z</time>
      </trkpt>
      <trkpt lat="50.734585421159863" lon="13.201257856562734">
        <ele>431</ele>
        <time>2026-08-29T11:30:13Z</time>
      </trkpt>
      <trkpt lat="50.734595898538828" lon="13.20126255042851">
        <ele>431</ele>
        <time>2026-08-29T11:30:14Z</time>
      </trkpt>
      <trkpt lat="50.734600173309445" lon="13.20124788209796">
        <ele>431</ele>
        <time>2026-08-29T11:30:15Z</time>
      </trkpt>
      <trkpt lat="50.734602604061365" lon="13.201229693368077">
        <ele>431</ele>
        <time>2026-08-29T11:30:16Z</time>
      </trkpt>
      <trkpt lat="50.734592881053686" lon="13.2012146897614">
        <ele>429</ele>
        <time>2026-08-29T11:30:17Z</time>
      </trkpt>
      <trkpt lat="50.734585337340832" lon="13.20121712051332">
        <ele>428</ele>
        <time>2026-08-29T11:30:18Z</time>
      </trkpt>
      <trkpt lat="50.734576787799597" lon="13.201219886541367">
        <ele>428</ele>
        <time>2026-08-29T11:30:19Z</time>
      </trkpt>
      <trkpt lat="50.734575781971216" lon="13.201242014765739">
        <ele>428</ele>
        <time>2026-08-29T11:30:20Z</time>
      </trkpt>
      <trkpt lat="50.734565807506442" lon="13.201249893754721">
        <ele>428</ele>
        <time>2026-08-29T11:30:21Z</time>
      </trkpt>
      <trkpt lat="50.734551977366209" lon="13.201256431639194">
        <ele>429</ele>
        <time>2026-08-29T11:30:22Z</time>
      </trkpt>
      <trkpt lat="50.734543092548847" lon="13.201271099969745">
        <ele>429</ele>
        <time>2026-08-29T11:30:23Z</time>
      </trkpt>
      <trkpt lat="50.734543511644006" lon="13.201290294528008">
        <ele>430</ele>
        <time>2026-08-29T11:30:24Z</time>
      </trkpt>
      <trkpt lat="50.734554911032319" lon="13.201295491307974">
        <ele>430</ele>
        <time>2026-08-29T11:30:25Z</time>
      </trkpt>
      <trkpt lat="50.734574608504772" lon="13.201277470216155">
        <ele>429</ele>
        <time>2026-08-29T11:30:26Z</time>
      </trkpt>
      <trkpt lat="50.734583912417293" lon="13.201262466609478">
        <ele>429</ele>
        <time>2026-08-29T11:30:27Z</time>
      </trkpt>
      <trkpt lat="50.734600089490414" lon="13.201240003108978">
        <ele>429</ele>
        <time>2026-08-29T11:30:28Z</time>
      </trkpt>
      <trkpt lat="50.734614003449678" lon="13.201225586235523">
        <ele>429</ele>
        <time>2026-08-29T11:30:29Z</time>
      </trkpt>
      <trkpt lat="50.734626241028309" lon="13.201196920126677">
        <ele>429</ele>
        <time>2026-08-29T11:30:30Z</time>
      </trkpt>
      <trkpt lat="50.734647279605269" lon="13.201173031702638">
        <ele>429</ele>
        <time>2026-08-29T11:30:31Z</time>
      </trkpt>
      <trkpt lat="50.734667144715786" lon="13.201149981468916">
        <ele>430</ele>
        <time>2026-08-29T11:30:32Z</time>
      </trkpt>
      <trkpt lat="50.734679298475385" lon="13.201123997569084">
        <ele>430</ele>
        <time>2026-08-29T11:30:33Z</time>
      </trkpt>
      <trkpt lat="50.734695475548506" lon="13.201093738898635">
        <ele>431</ele>
        <time>2026-08-29T11:30:34Z</time>
      </trkpt>
      <trkpt lat="50.734714334830642" lon="13.201061217114329">
        <ele>432</ele>
        <time>2026-08-29T11:30:35Z</time>
      </trkpt>
      <trkpt lat="50.734728081151843" lon="13.201026013121009">
        <ele>432</ele>
        <time>2026-08-29T11:30:36Z</time>
      </trkpt>
      <trkpt lat="50.73474652133882" lon="13.200981421396136">
        <ele>432</ele>
        <time>2026-08-29T11:30:37Z</time>
      </trkpt>
      <trkpt lat="50.73477384634316" lon="13.200941691175103">
        <ele>432</ele>
        <time>2026-08-29T11:30:38Z</time>
      </trkpt>
      <trkpt lat="50.734800919890404" lon="13.200900116935372">
        <ele>432</ele>
        <time>2026-08-29T11:30:39Z</time>
      </trkpt>
      <trkpt lat="50.734826233237982" lon="13.200855357572436">
        <ele>432</ele>
        <time>2026-08-29T11:30:40Z</time>
      </trkpt>
      <trkpt lat="50.734848780557513" lon="13.200811687856913">
        <ele>432</ele>
        <time>2026-08-29T11:30:41Z</time>
      </trkpt>
      <trkpt lat="50.734871998429298" lon="13.200766006484628">
        <ele>432</ele>
        <time>2026-08-29T11:30:42Z</time>
      </trkpt>
      <trkpt lat="50.734889600425959" lon="13.20072359405458">
        <ele>432</ele>
        <time>2026-08-29T11:30:43Z</time>
      </trkpt>
      <trkpt lat="50.734909381717443" lon="13.200674140825868">
        <ele>432</ele>
        <time>2026-08-29T11:30:44Z</time>
      </trkpt>
      <trkpt lat="50.734928408637643" lon="13.200630890205503">
        <ele>432</ele>
        <time>2026-08-29T11:30:45Z</time>
      </trkpt>
      <trkpt lat="50.734943998977542" lon="13.200587220489979">
        <ele>432</ele>
        <time>2026-08-29T11:30:46Z</time>
      </trkpt>
      <trkpt lat="50.734962439164519" lon="13.200532319024205">
        <ele>432</ele>
        <time>2026-08-29T11:30:47Z</time>
      </trkpt>
      <trkpt lat="50.734977442771196" lon="13.20047683082521">
        <ele>432</ele>
        <time>2026-08-29T11:30:48Z</time>
      </trkpt>
      <trkpt lat="50.734997140243649" lon="13.200423186644912">
        <ele>432</ele>
        <time>2026-08-29T11:30:49Z</time>
      </trkpt>
      <trkpt lat="50.735016502439976" lon="13.200359484180808">
        <ele>432</ele>
        <time>2026-08-29T11:30:50Z</time>
      </trkpt>
      <trkpt lat="50.735034355893731" lon="13.200292680412531">
        <ele>431</ele>
        <time>2026-08-29T11:30:51Z</time>
      </trkpt>
      <trkpt lat="50.735059250146151" lon="13.200222440063953">
        <ele>431</ele>
        <time>2026-08-29T11:30:52Z</time>
      </trkpt>
      <trkpt lat="50.735079785808921" lon="13.200164856389165">
        <ele>431</ele>
        <time>2026-08-29T11:30:53Z</time>
      </trkpt>
      <trkpt lat="50.735101830214262" lon="13.20010987110436">
        <ele>430</ele>
        <time>2026-08-29T11:30:54Z</time>
      </trkpt>
      <trkpt lat="50.735123623162508" lon="13.200060753151774">
        <ele>429</ele>
        <time>2026-08-29T11:30:55Z</time>
      </trkpt>
      <trkpt lat="50.735145248472691" lon="13.199995625764132">
        <ele>429</ele>
        <time>2026-08-29T11:30:56Z</time>
      </trkpt>
      <trkpt lat="50.735171567648649" lon="13.199931588023901">
        <ele>429</ele>
        <time>2026-08-29T11:30:57Z</time>
      </trkpt>
      <trkpt lat="50.735192773863673" lon="13.199862102046609">
        <ele>429</ele>
        <time>2026-08-29T11:30:58Z</time>
      </trkpt>
      <trkpt lat="50.73521951213479" lon="13.199795549735427">
        <ele>428</ele>
        <time>2026-08-29T11:30:59Z</time>
      </trkpt>
      <trkpt lat="50.735253877937794" lon="13.199722794815898">
        <ele>428</ele>
        <time>2026-08-29T11:31:00Z</time>
      </trkpt>
      <trkpt lat="50.735277347266674" lon="13.199654063209891">
        <ele>428</ele>
        <time>2026-08-29T11:31:01Z</time>
      </trkpt>
      <trkpt lat="50.735304336994886" lon="13.199570663273335">
        <ele>428</ele>
        <time>2026-08-29T11:31:02Z</time>
      </trkpt>
      <trkpt lat="50.735325459390879" lon="13.199485586956143">
        <ele>427</ele>
        <time>2026-08-29T11:31:03Z</time>
      </trkpt>
      <trkpt lat="50.735355718061328" lon="13.199405539780855">
        <ele>427</ele>
        <time>2026-08-29T11:31:04Z</time>
      </trkpt>
      <trkpt lat="50.735388407483697" lon="13.199316188693047">
        <ele>427</ele>
        <time>2026-08-29T11:31:05Z</time>
      </trkpt>
      <trkpt lat="50.735423946753144" lon="13.199231112375855">
        <ele>426</ele>
        <time>2026-08-29T11:31:06Z</time>
      </trkpt>
      <trkpt lat="50.735454792156816" lon="13.199139246717095">
        <ele>425</ele>
        <time>2026-08-29T11:31:07Z</time>
      </trkpt>
      <trkpt lat="50.735486140474677" lon="13.199047045782208">
        <ele>425</ele>
        <time>2026-08-29T11:31:08Z</time>
      </trkpt>
      <trkpt lat="50.735524026677012" lon="13.198950486257672">
        <ele>425</ele>
        <time>2026-08-29T11:31:09Z</time>
      </trkpt>
      <trkpt lat="50.735566690564156" lon="13.198858620598912">
        <ele>424</ele>
        <time>2026-08-29T11:31:10Z</time>
      </trkpt>
      <trkpt lat="50.735609689727426" lon="13.198769437149167">
        <ele>424</ele>
        <time>2026-08-29T11:31:11Z</time>
      </trkpt>
      <trkpt lat="50.735649671405554" lon="13.198674721643329">
        <ele>424</ele>
        <time>2026-08-29T11:31:12Z</time>
      </trkpt>
      <trkpt lat="50.735696610063314" lon="13.198578329756856">
        <ele>424</ele>
        <time>2026-08-29T11:31:13Z</time>
      </trkpt>
      <trkpt lat="50.735744638368487" lon="13.198487889021635">
        <ele>423</ele>
        <time>2026-08-29T11:31:14Z</time>
      </trkpt>
      <trkpt lat="50.735796522349119" lon="13.198389736935496">
        <ele>423</ele>
        <time>2026-08-29T11:31:15Z</time>
      </trkpt>
      <trkpt lat="50.735846729949117" lon="13.198306504637003">
        <ele>422</ele>
        <time>2026-08-29T11:31:16Z</time>
      </trkpt>
      <trkpt lat="50.735893249511719" lon="13.198216315358877">
        <ele>421</ele>
        <time>2026-08-29T11:31:17Z</time>
      </trkpt>
      <trkpt lat="50.735939769074321" lon="13.198130149394274">
        <ele>421</ele>
        <time>2026-08-29T11:31:18Z</time>
      </trkpt>
      <trkpt lat="50.735990982502699" lon="13.198055634275079">
        <ele>420</ele>
        <time>2026-08-29T11:31:19Z</time>
      </trkpt>
      <trkpt lat="50.736043285578489" lon="13.197978269308805">
        <ele>419</ele>
        <time>2026-08-29T11:31:20Z</time>
      </trkpt>
      <trkpt lat="50.736095840111375" lon="13.197906855493784">
        <ele>419</ele>
        <time>2026-08-29T11:31:21Z</time>
      </trkpt>
      <trkpt lat="50.736144371330738" lon="13.197837201878428">
        <ele>418</ele>
        <time>2026-08-29T11:31:22Z</time>
      </trkpt>
      <trkpt lat="50.736190639436245" lon="13.197755562141538">
        <ele>417</ele>
        <time>2026-08-29T11:31:23Z</time>
      </trkpt>
      <trkpt lat="50.736245792359114" lon="13.197685657069087">
        <ele>417</ele>
        <time>2026-08-29T11:31:24Z</time>
      </trkpt>
      <trkpt lat="50.736297257244587" lon="13.197611812502146">
        <ele>416</ele>
        <time>2026-08-29T11:31:25Z</time>
      </trkpt>
      <trkpt lat="50.736352493986487" lon="13.197541488334537">
        <ele>416</ele>
        <time>2026-08-29T11:31:26Z</time>
      </trkpt>
      <trkpt lat="50.73640295304358" lon="13.197474014014006">
        <ele>416</ele>
        <time>2026-08-29T11:31:27Z</time>
      </trkpt>
      <trkpt lat="50.736454920843244" lon="13.197415173053741">
        <ele>417</ele>
        <time>2026-08-29T11:31:28Z</time>
      </trkpt>
      <trkpt lat="50.736509067937732" lon="13.197352224960923">
        <ele>417</ele>
        <time>2026-08-29T11:31:29Z</time>
      </trkpt>
      <trkpt lat="50.73656857945025" lon="13.197297574952245">
        <ele>417</ele>
        <time>2026-08-29T11:31:30Z</time>
      </trkpt>
      <trkpt lat="50.736621301621199" lon="13.197248876094818">
        <ele>416</ele>
        <time>2026-08-29T11:31:31Z</time>
      </trkpt>
      <trkpt lat="50.736668407917023" lon="13.197192214429379">
        <ele>416</ele>
        <time>2026-08-29T11:31:32Z</time>
      </trkpt>
      <trkpt lat="50.736718447878957" lon="13.197139073163271">
        <ele>416</ele>
        <time>2026-08-29T11:31:33Z</time>
      </trkpt>
      <trkpt lat="50.736768152564764" lon="13.197098672389984">
        <ele>416</ele>
        <time>2026-08-29T11:31:34Z</time>
      </trkpt>
      <trkpt lat="50.736817605793476" lon="13.197056762874126">
        <ele>416</ele>
        <time>2026-08-29T11:31:35Z</time>
      </trkpt>
      <trkpt lat="50.736865298822522" lon="13.197021223604679">
        <ele>416</ele>
        <time>2026-08-29T11:31:36Z</time>
      </trkpt>
      <trkpt lat="50.736909806728363" lon="13.196982583031058">
        <ele>416</ele>
        <time>2026-08-29T11:31:37Z</time>
      </trkpt>
      <trkpt lat="50.736953560262918" lon="13.19694260135293">
        <ele>416</ele>
        <time>2026-08-29T11:31:38Z</time>
      </trkpt>
      <trkpt lat="50.736996559426188" lon="13.196916282176971">
        <ele>415</ele>
        <time>2026-08-29T11:31:39Z</time>
      </trkpt>
      <trkpt lat="50.737035870552063" lon="13.196883173659444">
        <ele>415</ele>
        <time>2026-08-29T11:31:40Z</time>
      </trkpt>
      <trkpt lat="50.737076187506318" lon="13.196854507550597">
        <ele>416</ele>
        <time>2026-08-29T11:31:41Z</time>
      </trkpt>
      <trkpt lat="50.737120108678937" lon="13.196829110383987">
        <ele>416</ele>
        <time>2026-08-29T11:31:42Z</time>
      </trkpt>
      <trkpt lat="50.7371617667377" lon="13.196793822571635">
        <ele>415</ele>
        <time>2026-08-29T11:31:43Z</time>
      </trkpt>
      <trkpt lat="50.737202586606145" lon="13.196760546416044">
        <ele>415</ele>
        <time>2026-08-29T11:31:44Z</time>
      </trkpt>
      <trkpt lat="50.737241059541702" lon="13.196724252775311">
        <ele>415</ele>
        <time>2026-08-29T11:31:45Z</time>
      </trkpt>
      <trkpt lat="50.737282801419497" lon="13.196685444563627">
        <ele>415</ele>
        <time>2026-08-29T11:31:46Z</time>
      </trkpt>
      <trkpt lat="50.737320519983768" lon="13.196648396551609">
        <ele>414</ele>
        <time>2026-08-29T11:31:47Z</time>
      </trkpt>
      <trkpt lat="50.737358741462231" lon="13.196612102910876">
        <ele>415</ele>
        <time>2026-08-29T11:31:48Z</time>
      </trkpt>
      <trkpt lat="50.737402830272913" lon="13.196575222536922">
        <ele>415</ele>
        <time>2026-08-29T11:31:49Z</time>
      </trkpt>
      <trkpt lat="50.737449517473578" lon="13.196537923067808">
        <ele>415</ele>
        <time>2026-08-29T11:31:50Z</time>
      </trkpt>
      <trkpt lat="50.737489331513643" lon="13.196506407111883">
        <ele>415</ele>
        <time>2026-08-29T11:31:51Z</time>
      </trkpt>
      <trkpt lat="50.737536270171404" lon="13.196472376585007">
        <ele>414</ele>
        <time>2026-08-29T11:31:52Z</time>
      </trkpt>
      <trkpt lat="50.737585220485926" lon="13.196439519524574">
        <ele>414</ele>
        <time>2026-08-29T11:31:53Z</time>
      </trkpt>
      <trkpt lat="50.737631991505623" lon="13.196404902264476">
        <ele>414</ele>
        <time>2026-08-29T11:31:54Z</time>
      </trkpt>
      <trkpt lat="50.737683540210128" lon="13.19636307656765">
        <ele>414</ele>
        <time>2026-08-29T11:31:55Z</time>
      </trkpt>
      <trkpt lat="50.737738693132997" lon="13.196321921423078">
        <ele>413</ele>
        <time>2026-08-29T11:31:56Z</time>
      </trkpt>
      <trkpt lat="50.737782865762711" lon="13.196281688287854">
        <ele>413</ele>
        <time>2026-08-29T11:31:57Z</time>
      </trkpt>
      <trkpt lat="50.737834330648184" lon="13.19624581374228">
        <ele>413</ele>
        <time>2026-08-29T11:31:58Z</time>
      </trkpt>
      <trkpt lat="50.737884622067213" lon="13.196203568950295">
        <ele>413</ele>
        <time>2026-08-29T11:31:59Z</time>
      </trkpt>
      <trkpt lat="50.737938601523638" lon="13.196169035509229">
        <ele>413</ele>
        <time>2026-08-29T11:32:00Z</time>
      </trkpt>
      <trkpt lat="50.737988222390413" lon="13.196127964183688">
        <ele>413</ele>
        <time>2026-08-29T11:32:01Z</time>
      </trkpt>
      <trkpt lat="50.738036502152681" lon="13.196086222305894">
        <ele>413</ele>
        <time>2026-08-29T11:32:02Z</time>
      </trkpt>
      <trkpt lat="50.738089978694916" lon="13.196053029969335">
        <ele>413</ele>
        <time>2026-08-29T11:32:03Z</time>
      </trkpt>
      <trkpt lat="50.738141611218452" lon="13.196013132110238">
        <ele>413</ele>
        <time>2026-08-29T11:32:04Z</time>
      </trkpt>
      <trkpt lat="50.738193914294243" lon="13.195969043299556">
        <ele>412</ele>
        <time>2026-08-29T11:32:05Z</time>
      </trkpt>
      <trkpt lat="50.738244792446494" lon="13.195930989459157">
        <ele>412</ele>
        <time>2026-08-29T11:32:06Z</time>
      </trkpt>
      <trkpt lat="50.738291731104255" lon="13.19590668193996">
        <ele>412</ele>
        <time>2026-08-29T11:32:07Z</time>
      </trkpt>
      <trkpt lat="50.738340178504586" lon="13.1958734896034">
        <ele>412</ele>
        <time>2026-08-29T11:32:08Z</time>
      </trkpt>
      <trkpt lat="50.738387452438474" lon="13.195833591744304">
        <ele>412</ele>
        <time>2026-08-29T11:32:09Z</time>
      </trkpt>
      <trkpt lat="50.738433301448822" lon="13.195792436599731">
        <ele>412</ele>
        <time>2026-08-29T11:32:10Z</time>
      </trkpt>
      <trkpt lat="50.738482251763344" lon="13.195756059139967">
        <ele>412</ele>
        <time>2026-08-29T11:32:11Z</time>
      </trkpt>
      <trkpt lat="50.738529777154326" lon="13.195721274241805">
        <ele>412</ele>
        <time>2026-08-29T11:32:12Z</time>
      </trkpt>
      <trkpt lat="50.738580822944641" lon="13.195679280906916">
        <ele>412</ele>
        <time>2026-08-29T11:32:13Z</time>
      </trkpt>
      <trkpt lat="50.738632790744305" lon="13.195640053600073">
        <ele>412</ele>
        <time>2026-08-29T11:32:14Z</time>
      </trkpt>
      <trkpt lat="50.738685177639127" lon="13.195601077750325">
        <ele>412</ele>
        <time>2026-08-29T11:32:15Z</time>
      </trkpt>
      <trkpt lat="50.738736810162663" lon="13.195567047223449">
        <ele>412</ele>
        <time>2026-08-29T11:32:16Z</time>
      </trkpt>
      <trkpt lat="50.738785592839122" lon="13.195535279810429">
        <ele>412</ele>
        <time>2026-08-29T11:32:17Z</time>
      </trkpt>
      <trkpt lat="50.738830519840121" lon="13.195496471598744">
        <ele>412</ele>
        <time>2026-08-29T11:32:18Z</time>
      </trkpt>
      <trkpt lat="50.738879553973675" lon="13.195454981178045">
        <ele>412</ele>
        <time>2026-08-29T11:32:19Z</time>
      </trkpt>
      <trkpt lat="50.738934455439448" lon="13.195426650345325">
        <ele>412</ele>
        <time>2026-08-29T11:32:20Z</time>
      </trkpt>
      <trkpt lat="50.738987680524588" lon="13.195404019206762">
        <ele>413</ele>
        <time>2026-08-29T11:32:21Z</time>
      </trkpt>
      <trkpt lat="50.739038391038775" lon="13.195375772193074">
        <ele>413</ele>
        <time>2026-08-29T11:32:22Z</time>
      </trkpt>
      <trkpt lat="50.739090610295534" lon="13.195346938446164">
        <ele>413</ele>
        <time>2026-08-29T11:32:23Z</time>
      </trkpt>
      <trkpt lat="50.739143500104547" lon="13.195325480774045">
        <ele>412</ele>
        <time>2026-08-29T11:32:24Z</time>
      </trkpt>
      <trkpt lat="50.739194042980671" lon="13.195287678390741">
        <ele>412</ele>
        <time>2026-08-29T11:32:25Z</time>
      </trkpt>
      <trkpt lat="50.739236623048782" lon="13.195261862128973">
        <ele>412</ele>
        <time>2026-08-29T11:32:26Z</time>
      </trkpt>
      <trkpt lat="50.739280292764306" lon="13.195235040038824">
        <ele>412</ele>
        <time>2026-08-29T11:32:27Z</time>
      </trkpt>
      <trkpt lat="50.7393185980618" lon="13.195206541568041">
        <ele>412</ele>
        <time>2026-08-29T11:32:28Z</time>
      </trkpt>
      <trkpt lat="50.739359669387341" lon="13.195186173543334">
        <ele>412</ele>
        <time>2026-08-29T11:32:29Z</time>
      </trkpt>
      <trkpt lat="50.739403087645769" lon="13.195162201300263">
        <ele>412</ele>
        <time>2026-08-29T11:32:30Z</time>
      </trkpt>
      <trkpt lat="50.739450613036752" lon="13.195141162723303">
        <ele>412</ele>
        <time>2026-08-29T11:32:31Z</time>
      </trkpt>
      <trkpt lat="50.739502497017384" lon="13.19511316716671">
        <ele>411</ele>
        <time>2026-08-29T11:32:32Z</time>
      </trkpt>
      <trkpt lat="50.739563852548599" lon="13.195095397531986">
        <ele>411</ele>
        <time>2026-08-29T11:32:33Z</time>
      </trkpt>
      <trkpt lat="50.739627052098513" lon="13.195074442774057">
        <ele>411</ele>
        <time>2026-08-29T11:32:34Z</time>
      </trkpt>
      <trkpt lat="50.739679941907525" lon="13.195051560178399">
        <ele>411</ele>
        <time>2026-08-29T11:32:35Z</time>
      </trkpt>
      <trkpt lat="50.739735513925552" lon="13.195026833564043">
        <ele>411</ele>
        <time>2026-08-29T11:32:36Z</time>
      </trkpt>
      <trkpt lat="50.739788319915533" lon="13.195002609863877">
        <ele>411</ele>
        <time>2026-08-29T11:32:37Z</time>
      </trkpt>
      <trkpt lat="50.739837689325213" lon="13.194984002038836">
        <ele>411</ele>
        <time>2026-08-29T11:32:38Z</time>
      </trkpt>
      <trkpt lat="50.739887729287148" lon="13.194966819137335">
        <ele>411</ele>
        <time>2026-08-29T11:32:39Z</time>
      </trkpt>
      <trkpt lat="50.739942295476794" lon="13.194951396435499">
        <ele>411</ele>
        <time>2026-08-29T11:32:40Z</time>
      </trkpt>
      <trkpt lat="50.739992000162601" lon="13.19494066759944">
        <ele>411</ele>
        <time>2026-08-29T11:32:41Z</time>
      </trkpt>
      <trkpt lat="50.740039693191648" lon="13.194921389222145">
        <ele>411</ele>
        <time>2026-08-29T11:32:42Z</time>
      </trkpt>
      <trkpt lat="50.740095349028707" lon="13.194911498576403">
        <ele>410</ele>
        <time>2026-08-29T11:32:43Z</time>
      </trkpt>
      <trkpt lat="50.740151759237051" lon="13.194896411150694">
        <ele>410</ele>
        <time>2026-08-29T11:32:44Z</time>
      </trkpt>
      <trkpt lat="50.740211186930537" lon="13.194889957085252">
        <ele>410</ele>
        <time>2026-08-29T11:32:45Z</time>
      </trkpt>
      <trkpt lat="50.740264998748899" lon="13.194881994277239">
        <ele>409</ele>
        <time>2026-08-29T11:32:46Z</time>
      </trkpt>
      <trkpt lat="50.740321157500148" lon="13.194862883538008">
        <ele>409</ele>
        <time>2026-08-29T11:32:47Z</time>
      </trkpt>
      <trkpt lat="50.740369688719511" lon="13.194844527170062">
        <ele>409</ele>
        <time>2026-08-29T11:32:48Z</time>
      </trkpt>
      <trkpt lat="50.740424925461411" lon="13.194826506078243">
        <ele>409</ele>
        <time>2026-08-29T11:32:49Z</time>
      </trkpt>
      <trkpt lat="50.740477899089456" lon="13.194807227700949">
        <ele>409</ele>
        <time>2026-08-29T11:32:50Z</time>
      </trkpt>
      <trkpt lat="50.740534141659737" lon="13.194787949323654">
        <ele>409</ele>
        <time>2026-08-29T11:32:51Z</time>
      </trkpt>
      <trkpt lat="50.740587869659066" lon="13.194773448631167">
        <ele>409</ele>
        <time>2026-08-29T11:32:52Z</time>
      </trkpt>
      <trkpt lat="50.740635814145207" lon="13.194749308750033">
        <ele>409</ele>
        <time>2026-08-29T11:32:53Z</time>
      </trkpt>
      <trkpt lat="50.740686357021332" lon="13.194722821936011">
        <ele>409</ele>
        <time>2026-08-29T11:32:54Z</time>
      </trkpt>
      <trkpt lat="50.740741426125169" lon="13.19471150636673">
        <ele>409</ele>
        <time>2026-08-29T11:32:55Z</time>
      </trkpt>
      <trkpt lat="50.740799428895116" lon="13.1947027053684">
        <ele>409</ele>
        <time>2026-08-29T11:32:56Z</time>
      </trkpt>
      <trkpt lat="50.740858521312475" lon="13.194684432819486">
        <ele>409</ele>
        <time>2026-08-29T11:32:57Z</time>
      </trkpt>
      <trkpt lat="50.740913506597281" lon="13.194664148613811">
        <ele>409</ele>
        <time>2026-08-29T11:32:58Z</time>
      </trkpt>
      <trkpt lat="50.740973521023989" lon="13.194648558273911">
        <ele>409</ele>
        <time>2026-08-29T11:32:59Z</time>
      </trkpt>
      <trkpt lat="50.741032110527158" lon="13.194629866629839">
        <ele>410</ele>
        <time>2026-08-29T11:33:00Z</time>
      </trkpt>
      <trkpt lat="50.741092879325151" lon="13.194591728970408">
        <ele>410</ele>
        <time>2026-08-29T11:33:01Z</time>
      </trkpt>
      <trkpt lat="50.741156497970223" lon="13.194573372602463">
        <ele>410</ele>
        <time>2026-08-29T11:33:02Z</time>
      </trkpt>
      <trkpt lat="50.741221290081739" lon="13.194548562169075">
        <ele>410</ele>
        <time>2026-08-29T11:33:03Z</time>
      </trkpt>
      <trkpt lat="50.741287088021636" lon="13.194517213851213">
        <ele>409</ele>
        <time>2026-08-29T11:33:04Z</time>
      </trkpt>
      <trkpt lat="50.741347773000598" lon="13.194486787542701">
        <ele>409</ele>
        <time>2026-08-29T11:33:05Z</time>
      </trkpt>
      <trkpt lat="50.741404099389911" lon="13.194459462538362">
        <ele>409</ele>
        <time>2026-08-29T11:33:06Z</time>
      </trkpt>
      <trkpt lat="50.741467215120792" lon="13.194430964067578">
        <ele>409</ele>
        <time>2026-08-29T11:33:07Z</time>
      </trkpt>
      <trkpt lat="50.741530330851674" lon="13.194407159462571">
        <ele>409</ele>
        <time>2026-08-29T11:33:08Z</time>
      </trkpt>
      <trkpt lat="50.741590177640319" lon="13.194381594657898">
        <ele>409</ele>
        <time>2026-08-29T11:33:09Z</time>
      </trkpt>
      <trkpt lat="50.741651365533471" lon="13.194353599101305">
        <ele>408</ele>
        <time>2026-08-29T11:33:10Z</time>
      </trkpt>
      <trkpt lat="50.741711379960179" lon="13.19432845339179">
        <ele>408</ele>
        <time>2026-08-29T11:33:11Z</time>
      </trkpt>
      <trkpt lat="50.741769047454" lon="13.194301296025515">
        <ele>408</ele>
        <time>2026-08-29T11:33:12Z</time>
      </trkpt>
      <trkpt lat="50.741825290024281" lon="13.194268187507987">
        <ele>408</ele>
        <time>2026-08-29T11:33:13Z</time>
      </trkpt>
      <trkpt lat="50.741877509281039" lon="13.194234408438206">
        <ele>407</ele>
        <time>2026-08-29T11:33:14Z</time>
      </trkpt>
      <trkpt lat="50.741929141804576" lon="13.194191912189126">
        <ele>407</ele>
        <time>2026-08-29T11:33:15Z</time>
      </trkpt>
      <trkpt lat="50.741983540356159" lon="13.19415838457644">
        <ele>406</ele>
        <time>2026-08-29T11:33:16Z</time>
      </trkpt>
      <trkpt lat="50.742040034383535" lon="13.194126700982451">
        <ele>406</ele>
        <time>2026-08-29T11:33:17Z</time>
      </trkpt>
      <trkpt lat="50.742094265297055" lon="13.19409535266459">
        <ele>407</ele>
        <time>2026-08-29T11:33:18Z</time>
      </trkpt>
      <trkpt lat="50.742144221439958" lon="13.194066435098648">
        <ele>407</ele>
        <time>2026-08-29T11:33:19Z</time>
      </trkpt>
      <trkpt lat="50.742199458181858" lon="13.194044809788465">
        <ele>407</ele>
        <time>2026-08-29T11:33:20Z</time>
      </trkpt>
      <trkpt lat="50.742249581962824" lon="13.194032069295645">
        <ele>407</ele>
        <time>2026-08-29T11:33:21Z</time>
      </trkpt>
      <trkpt lat="50.74229383841157" lon="13.194033158943057">
        <ele>407</ele>
        <time>2026-08-29T11:33:22Z</time>
      </trkpt>
      <trkpt lat="50.742333820089698" lon="13.194026201963425">
        <ele>407</ele>
        <time>2026-08-29T11:33:23Z</time>
      </trkpt>
      <trkpt lat="50.742367766797543" lon="13.194012371823192">
        <ele>408</ele>
        <time>2026-08-29T11:33:24Z</time>
      </trkpt>
      <trkpt lat="50.742395175620914" lon="13.194001140072942">
        <ele>408</ele>
        <time>2026-08-29T11:33:25Z</time>
      </trkpt>
      <trkpt lat="50.742423087358475" lon="13.193985633552074">
        <ele>407</ele>
        <time>2026-08-29T11:33:26Z</time>
      </trkpt>
      <trkpt lat="50.742448987439275" lon="13.193965433165431">
        <ele>407</ele>
        <time>2026-08-29T11:33:27Z</time>
      </trkpt>
      <trkpt lat="50.742478827014565" lon="13.193952105939388">
        <ele>406</ele>
        <time>2026-08-29T11:33:28Z</time>
      </trkpt>
      <trkpt lat="50.742509504780173" lon="13.193935425952077">
        <ele>406</ele>
        <time>2026-08-29T11:33:29Z</time>
      </trkpt>
      <trkpt lat="50.742538841441274" lon="13.193918159231544">
        <ele>406</ele>
        <time>2026-08-29T11:33:30Z</time>
      </trkpt>
      <trkpt lat="50.742571698501706" lon="13.193905502557755">
        <ele>406</ele>
        <time>2026-08-29T11:33:31Z</time>
      </trkpt>
      <trkpt lat="50.742601621896029" lon="13.193902401253581">
        <ele>406</ele>
        <time>2026-08-29T11:33:32Z</time>
      </trkpt>
      <trkpt lat="50.742631210014224" lon="13.193896114826202">
        <ele>406</ele>
        <time>2026-08-29T11:33:33Z</time>
      </trkpt>
      <trkpt lat="50.742662558332086" lon="13.19389158859849">
        <ele>406</ele>
        <time>2026-08-29T11:33:34Z</time>
      </trkpt>
      <trkpt lat="50.742692062631249" lon="13.193885972723365">
        <ele>406</ele>
        <time>2026-08-29T11:33:35Z</time>
      </trkpt>
      <trkpt lat="50.742724500596523" lon="13.193879434838891">
        <ele>406</ele>
        <time>2026-08-29T11:33:36Z</time>
      </trkpt>
      <trkpt lat="50.742753921076655" lon="13.193876249715686">
        <ele>406</ele>
        <time>2026-08-29T11:33:37Z</time>
      </trkpt>
      <trkpt lat="50.742781078442931" lon="13.193864179775119">
        <ele>407</ele>
        <time>2026-08-29T11:33:38Z</time>
      </trkpt>
      <trkpt lat="50.742810666561127" lon="13.193853031843901">
        <ele>407</ele>
        <time>2026-08-29T11:33:39Z</time>
      </trkpt>
      <trkpt lat="50.742835560813546" lon="13.193834256380796">
        <ele>407</ele>
        <time>2026-08-29T11:33:40Z</time>
      </trkpt>
      <trkpt lat="50.742864059284329" lon="13.193810535594821">
        <ele>407</ele>
        <time>2026-08-29T11:33:41Z</time>
      </trkpt>
      <trkpt lat="50.742894988507032" lon="13.193795196712017">
        <ele>407</ele>
        <time>2026-08-29T11:33:42Z</time>
      </trkpt>
      <trkpt lat="50.742923906072974" lon="13.193769715726376">
        <ele>407</ele>
        <time>2026-08-29T11:33:43Z</time>
      </trkpt>
      <trkpt lat="50.742953410372138" lon="13.193752197548747">
        <ele>407</ele>
        <time>2026-08-29T11:33:44Z</time>
      </trkpt>
      <trkpt lat="50.742980903014541" lon="13.193739373236895">
        <ele>408</ele>
        <time>2026-08-29T11:33:45Z</time>
      </trkpt>
      <trkpt lat="50.743012251332402" lon="13.193731494247913">
        <ele>408</ele>
        <time>2026-08-29T11:33:46Z</time>
      </trkpt>
      <trkpt lat="50.743048042058945" lon="13.193721855059266">
        <ele>408</ele>
        <time>2026-08-29T11:33:47Z</time>
      </trkpt>
      <trkpt lat="50.74308249168098" lon="13.193714562803507">
        <ele>408</ele>
        <time>2026-08-29T11:33:48Z</time>
      </trkpt>
      <trkpt lat="50.743113420903683" lon="13.1936976313591">
        <ele>408</ele>
        <time>2026-08-29T11:33:49Z</time>
      </trkpt>
      <trkpt lat="50.743147619068623" lon="13.193692937493324">
        <ele>409</ele>
        <time>2026-08-29T11:33:50Z</time>
      </trkpt>
      <trkpt lat="50.743179637938738" lon="13.193681035190821">
        <ele>409</ele>
        <time>2026-08-29T11:33:51Z</time>
      </trkpt>
      <trkpt lat="50.743201682344079" lon="13.193660834804177">
        <ele>409</ele>
        <time>2026-08-29T11:33:52Z</time>
      </trkpt>
      <trkpt lat="50.74322858825326" lon="13.193653207272291">
        <ele>409</ele>
        <time>2026-08-29T11:33:53Z</time>
      </trkpt>
      <trkpt lat="50.743254069238901" lon="13.19364340044558">
        <ele>409</ele>
        <time>2026-08-29T11:33:54Z</time>
      </trkpt>
      <trkpt lat="50.743273263797164" lon="13.193633677437901">
        <ele>409</ele>
        <time>2026-08-29T11:33:55Z</time>
      </trkpt>
      <trkpt lat="50.743292961269617" lon="13.193632923066616">
        <ele>409</ele>
        <time>2026-08-29T11:33:56Z</time>
      </trkpt>
      <trkpt lat="50.743311904370785" lon="13.193639125674963">
        <ele>410</ele>
        <time>2026-08-29T11:33:57Z</time>
      </trkpt>
      <trkpt lat="50.743332440033555" lon="13.193629067391157">
        <ele>410</ele>
        <time>2026-08-29T11:33:58Z</time>
      </trkpt>
      <trkpt lat="50.743352891877294" lon="13.193609705194831">
        <ele>410</ele>
        <time>2026-08-29T11:33:59Z</time>
      </trkpt>
      <trkpt lat="50.743375355377793" lon="13.193595288321376">
        <ele>410</ele>
        <time>2026-08-29T11:34:00Z</time>
      </trkpt>
      <trkpt lat="50.74339865706861" lon="13.193584308028221">
        <ele>410</ele>
        <time>2026-08-29T11:34:01Z</time>
      </trkpt>
      <trkpt lat="50.743423886597157" lon="13.193579195067286">
        <ele>410</ele>
        <time>2026-08-29T11:34:02Z</time>
      </trkpt>
      <trkpt lat="50.743444170802832" lon="13.193563353270292">
        <ele>410</ele>
        <time>2026-08-29T11:34:03Z</time>
      </trkpt>
      <trkpt lat="50.743462527170777" lon="13.193544913083315">
        <ele>410</ele>
        <time>2026-08-29T11:34:04Z</time>
      </trkpt>
      <trkpt lat="50.743488594889641" lon="13.193524712696671">
        <ele>410</ele>
        <time>2026-08-29T11:34:05Z</time>
      </trkpt>
      <trkpt lat="50.743510220199823" lon="13.193512056022882">
        <ele>410</ele>
        <time>2026-08-29T11:34:06Z</time>
      </trkpt>
      <trkpt lat="50.74352715164423" lon="13.193492107093334">
        <ele>410</ele>
        <time>2026-08-29T11:34:07Z</time>
      </trkpt>
      <trkpt lat="50.743547938764095" lon="13.193471739068627">
        <ele>410</ele>
        <time>2026-08-29T11:34:08Z</time>
      </trkpt>
      <trkpt lat="50.74357551522553" lon="13.193457406014204">
        <ele>410</ele>
        <time>2026-08-29T11:34:09Z</time>
      </trkpt>
      <trkpt lat="50.743605522438884" lon="13.193446258082986">
        <ele>410</ele>
        <time>2026-08-29T11:34:10Z</time>
      </trkpt>
      <trkpt lat="50.743630081415176" lon="13.193434523418546">
        <ele>411</ele>
        <time>2026-08-29T11:34:11Z</time>
      </trkpt>
      <trkpt lat="50.743650617077947" lon="13.193416250869632">
        <ele>411</ele>
        <time>2026-08-29T11:34:12Z</time>
      </trkpt>
      <trkpt lat="50.743673499673605" lon="13.193399235606194">
        <ele>411</ele>
        <time>2026-08-29T11:34:13Z</time>
      </trkpt>
      <trkpt lat="50.743688251823187" lon="13.19338490255177">
        <ele>411</ele>
        <time>2026-08-29T11:34:14Z</time>
      </trkpt>
      <trkpt lat="50.743704261258245" lon="13.193374341353774">
        <ele>411</ele>
        <time>2026-08-29T11:34:15Z</time>
      </trkpt>
      <trkpt lat="50.743720605969429" lon="13.193359421566129">
        <ele>412</ele>
        <time>2026-08-29T11:34:16Z</time>
      </trkpt>
      <trkpt lat="50.743735609576106" lon="13.193352548405528">
        <ele>411</ele>
        <time>2026-08-29T11:34:17Z</time>
      </trkpt>
      <trkpt lat="50.74375631287694" lon="13.193345256149769">
        <ele>412</ele>
        <time>2026-08-29T11:34:18Z</time>
      </trkpt>
      <trkpt lat="50.743776429444551" lon="13.193345926702023">
        <ele>412</ele>
        <time>2026-08-29T11:34:19Z</time>
      </trkpt>
      <trkpt lat="50.743800401687622" lon="13.193329749628901">
        <ele>412</ele>
        <time>2026-08-29T11:34:20Z</time>
      </trkpt>
      <trkpt lat="50.743819260969758" lon="13.193314326927066">
        <ele>412</ele>
        <time>2026-08-29T11:34:21Z</time>
      </trkpt>
      <trkpt lat="50.743836862966418" lon="13.19329496473074">
        <ele>412</ele>
        <time>2026-08-29T11:34:22Z</time>
      </trkpt>
      <trkpt lat="50.743854967877269" lon="13.193280966952443">
        <ele>412</ele>
        <time>2026-08-29T11:34:23Z</time>
      </trkpt>
      <trkpt lat="50.743875922635198" lon="13.193259844556451">
        <ele>412</ele>
        <time>2026-08-29T11:34:24Z</time>
      </trkpt>
      <trkpt lat="50.743889417499304" lon="13.193246265873313">
        <ele>412</ele>
        <time>2026-08-29T11:34:25Z</time>
      </trkpt>
      <trkpt lat="50.743909198790789" lon="13.193237632513046">
        <ele>412</ele>
        <time>2026-08-29T11:34:26Z</time>
      </trkpt>
      <trkpt lat="50.743932332843542" lon="13.193234279751778">
        <ele>412</ele>
        <time>2026-08-29T11:34:27Z</time>
      </trkpt>
      <trkpt lat="50.743953790515661" lon="13.193223802372813">
        <ele>412</ele>
        <time>2026-08-29T11:34:28Z</time>
      </trkpt>
      <trkpt lat="50.743971476331353" lon="13.193218186497688">
        <ele>412</ele>
        <time>2026-08-29T11:34:29Z</time>
      </trkpt>
      <trkpt lat="50.743990335613489" lon="13.193212067708373">
        <ele>412</ele>
        <time>2026-08-29T11:34:30Z</time>
      </trkpt>
      <trkpt lat="50.744006261229515" lon="13.193206787109375">
        <ele>412</ele>
        <time>2026-08-29T11:34:31Z</time>
      </trkpt>
      <trkpt lat="50.744028137996793" lon="13.193203182891011">
        <ele>412</ele>
        <time>2026-08-29T11:34:32Z</time>
      </trkpt>
      <trkpt lat="50.744049763306975" lon="13.193191699683666">
        <ele>412</ele>
        <time>2026-08-29T11:34:33Z</time>
      </trkpt>
      <trkpt lat="50.744067449122667" lon="13.193179043009877">
        <ele>412</ele>
        <time>2026-08-29T11:34:34Z</time>
      </trkpt>
      <trkpt lat="50.744091924279928" lon="13.193172086030245">
        <ele>412</ele>
        <time>2026-08-29T11:34:35Z</time>
      </trkpt>
      <trkpt lat="50.74411841109395" lon="13.193154819309711">
        <ele>411</ele>
        <time>2026-08-29T11:34:36Z</time>
      </trkpt>
      <trkpt lat="50.744142634794116" lon="13.19313713349402">
        <ele>412</ele>
        <time>2026-08-29T11:34:37Z</time>
      </trkpt>
      <trkpt lat="50.744165852665901" lon="13.193122800439596">
        <ele>412</ele>
        <time>2026-08-29T11:34:38Z</time>
      </trkpt>
      <trkpt lat="50.744190746918321" lon="13.193116430193186">
        <ele>412</ele>
        <time>2026-08-29T11:34:39Z</time>
      </trkpt>
      <trkpt lat="50.744215222075582" lon="13.193106204271317">
        <ele>412</ele>
        <time>2026-08-29T11:34:40Z</time>
      </trkpt>
      <trkpt lat="50.744241457432508" lon="13.193088518455625">
        <ele>412</ele>
        <time>2026-08-29T11:34:41Z</time>
      </trkpt>
      <trkpt lat="50.744271129369736" lon="13.19307460449636">
        <ele>412</ele>
        <time>2026-08-29T11:34:42Z</time>
      </trkpt>
      <trkpt lat="50.744296191260219" lon="13.193066390231252">
        <ele>412</ele>
        <time>2026-08-29T11:34:43Z</time>
      </trkpt>
      <trkpt lat="50.744317816570401" lon="13.193052224814892">
        <ele>412</ele>
        <time>2026-08-29T11:34:44Z</time>
      </trkpt>
      <trkpt lat="50.74434950016439" lon="13.193035796284676">
        <ele>412</ele>
        <time>2026-08-29T11:34:45Z</time>
      </trkpt>
      <trkpt lat="50.7443817704916" lon="13.193018613383174">
        <ele>412</ele>
        <time>2026-08-29T11:34:46Z</time>
      </trkpt>
      <trkpt lat="50.744412951171398" lon="13.192995227873325">
        <ele>412</ele>
        <time>2026-08-29T11:34:47Z</time>
      </trkpt>
      <trkpt lat="50.744446981698275" lon="13.192978380247951">
        <ele>412</ele>
        <time>2026-08-29T11:34:48Z</time>
      </trkpt>
      <trkpt lat="50.744489561766386" lon="13.192948456853628">
        <ele>412</ele>
        <time>2026-08-29T11:34:49Z</time>
      </trkpt>
      <trkpt lat="50.744538344442844" lon="13.192926244810224">
        <ele>412</ele>
        <time>2026-08-29T11:34:50Z</time>
      </trkpt>
      <trkpt lat="50.744570279493928" lon="13.192903697490692">
        <ele>411</ele>
        <time>2026-08-29T11:34:51Z</time>
      </trkpt>
      <trkpt lat="50.744616882875562" lon="13.192876623943448">
        <ele>411</ele>
        <time>2026-08-29T11:34:52Z</time>
      </trkpt>
      <trkpt lat="50.744656780734658" lon="13.192851059138775">
        <ele>411</ele>
        <time>2026-08-29T11:34:53Z</time>
      </trkpt>
      <trkpt lat="50.744700198993087" lon="13.192820465192199">
        <ele>412</ele>
        <time>2026-08-29T11:34:54Z</time>
      </trkpt>
      <trkpt lat="50.744744874536991" lon="13.192793391644955">
        <ele>412</ele>
        <time>2026-08-29T11:34:55Z</time>
      </trkpt>
      <trkpt lat="50.744790891185403" lon="13.192767826840281">
        <ele>412</ele>
        <time>2026-08-29T11:34:56Z</time>
      </trkpt>
      <trkpt lat="50.744833219796419" lon="13.192738238722086">
        <ele>412</ele>
        <time>2026-08-29T11:34:57Z</time>
      </trkpt>
      <trkpt lat="50.744883343577385" lon="13.192705046385527">
        <ele>412</ele>
        <time>2026-08-29T11:34:58Z</time>
      </trkpt>
      <trkpt lat="50.744930868968368" lon="13.192673781886697">
        <ele>412</ele>
        <time>2026-08-29T11:34:59Z</time>
      </trkpt>
      <trkpt lat="50.744973784312606" lon="13.192642014473677">
        <ele>412</ele>
        <time>2026-08-29T11:35:00Z</time>
      </trkpt>
      <trkpt lat="50.745020555332303" lon="13.192607397213578">
        <ele>412</ele>
        <time>2026-08-29T11:35:01Z</time>
      </trkpt>
      <trkpt lat="50.745071768760681" lon="13.192577641457319">
        <ele>412</ele>
        <time>2026-08-29T11:35:02Z</time>
      </trkpt>
      <trkpt lat="50.745119964703918" lon="13.192543862387538">
        <ele>412</ele>
        <time>2026-08-29T11:35:03Z</time>
      </trkpt>
      <trkpt lat="50.745165478438139" lon="13.192504048347473">
        <ele>413</ele>
        <time>2026-08-29T11:35:04Z</time>
      </trkpt>
      <trkpt lat="50.745212249457836" lon="13.192461133003235">
        <ele>413</ele>
        <time>2026-08-29T11:35:05Z</time>
      </trkpt>
      <trkpt lat="50.745259439572692" lon="13.19242081604898">
        <ele>414</ele>
        <time>2026-08-29T11:35:06Z</time>
      </trkpt>
      <trkpt lat="50.74530528858304" lon="13.19238368421793">
        <ele>414</ele>
        <time>2026-08-29T11:35:07Z</time>
      </trkpt>
      <trkpt lat="50.745353819802403" lon="13.192348480224609">
        <ele>414</ele>
        <time>2026-08-29T11:35:08Z</time>
      </trkpt>
      <trkpt lat="50.745407631620765" lon="13.192323502153158">
        <ele>413</ele>
        <time>2026-08-29T11:35:09Z</time>
      </trkpt>
      <trkpt lat="50.745455827564001" lon="13.19228989072144">
        <ele>413</ele>
        <time>2026-08-29T11:35:10Z</time>
      </trkpt>
      <trkpt lat="50.745505448430777" lon="13.192257955670357">
        <ele>414</ele>
        <time>2026-08-29T11:35:11Z</time>
      </trkpt>
      <trkpt lat="50.745557667687535" lon="13.192223254591227">
        <ele>414</ele>
        <time>2026-08-29T11:35:12Z</time>
      </trkpt>
      <trkpt lat="50.745611563324928" lon="13.192190900444984">
        <ele>414</ele>
        <time>2026-08-29T11:35:13Z</time>
      </trkpt>
      <trkpt lat="50.745660848915577" lon="13.192153181880713">
        <ele>414</ele>
        <time>2026-08-29T11:35:14Z</time>
      </trkpt>
      <trkpt lat="50.745707452297211" lon="13.192110182717443">
        <ele>414</ele>
        <time>2026-08-29T11:35:15Z</time>
      </trkpt>
      <trkpt lat="50.745757156983018" lon="13.192077241837978">
        <ele>414</ele>
        <time>2026-08-29T11:35:16Z</time>
      </trkpt>
      <trkpt lat="50.745809627696872" lon="13.19204606115818">
        <ele>413</ele>
        <time>2026-08-29T11:35:17Z</time>
      </trkpt>
      <trkpt lat="50.74586033821106" lon="13.192012030631304">
        <ele>414</ele>
        <time>2026-08-29T11:35:18Z</time>
      </trkpt>
      <trkpt lat="50.745908450335264" lon="13.191983280703425">
        <ele>413</ele>
        <time>2026-08-29T11:35:19Z</time>
      </trkpt>
      <trkpt lat="50.745958741754293" lon="13.19194732233882">
        <ele>413</ele>
        <time>2026-08-29T11:35:20Z</time>
      </trkpt>
      <trkpt lat="50.74600744061172" lon="13.191909268498421">
        <ele>413</ele>
        <time>2026-08-29T11:35:21Z</time>
      </trkpt>
      <trkpt lat="50.74606460519135" lon="13.191863000392914">
        <ele>413</ele>
        <time>2026-08-29T11:35:22Z</time>
      </trkpt>
      <trkpt lat="50.746119422838092" lon="13.191833831369877">
        <ele>413</ele>
        <time>2026-08-29T11:35:23Z</time>
      </trkpt>
      <trkpt lat="50.746175246313214" lon="13.191808853298426">
        <ele>414</ele>
        <time>2026-08-29T11:35:24Z</time>
      </trkpt>
      <trkpt lat="50.746224531903863" lon="13.191782366484404">
        <ele>414</ele>
        <time>2026-08-29T11:35:25Z</time>
      </trkpt>
      <trkpt lat="50.746277924627066" lon="13.191764010116458">
        <ele>414</ele>
        <time>2026-08-29T11:35:26Z</time>
      </trkpt>
      <trkpt lat="50.746324444189668" lon="13.191739451140165">
        <ele>414</ele>
        <time>2026-08-29T11:35:27Z</time>
      </trkpt>
      <trkpt lat="50.746375573799014" lon="13.191716065630317">
        <ele>413</ele>
        <time>2026-08-29T11:35:28Z</time>
      </trkpt>
      <trkpt lat="50.746424859389663" lon="13.191694440320134">
        <ele>413</ele>
        <time>2026-08-29T11:35:29Z</time>
      </trkpt>
      <trkpt lat="50.746472468599677" lon="13.19167222827673">
        <ele>413</ele>
        <time>2026-08-29T11:35:30Z</time>
      </trkpt>
      <trkpt lat="50.746522760018706" lon="13.191661667078733">
        <ele>413</ele>
        <time>2026-08-29T11:35:31Z</time>
      </trkpt>
      <trkpt lat="50.74657866731286" lon="13.191647920757532">
        <ele>413</ele>
        <time>2026-08-29T11:35:32Z</time>
      </trkpt>
      <trkpt lat="50.746631808578968" lon="13.191638700664043">
        <ele>413</ele>
        <time>2026-08-29T11:35:33Z</time>
      </trkpt>
      <trkpt lat="50.746681429445744" lon="13.191629815846682">
        <ele>413</ele>
        <time>2026-08-29T11:35:34Z</time>
      </trkpt>
      <trkpt lat="50.746730379760265" lon="13.191620679572225">
        <ele>412</ele>
        <time>2026-08-29T11:35:35Z</time>
      </trkpt>
      <trkpt lat="50.746780252084136" lon="13.191613052040339">
        <ele>412</ele>
        <time>2026-08-29T11:35:36Z</time>
      </trkpt>
      <trkpt lat="50.746829370036721" lon="13.191617242991924">
        <ele>411</ele>
        <time>2026-08-29T11:35:37Z</time>
      </trkpt>
      <trkpt lat="50.746879242360592" lon="13.191619087010622">
        <ele>411</ele>
        <time>2026-08-29T11:35:38Z</time>
      </trkpt>
      <trkpt lat="50.746923582628369" lon="13.19162629544735">
        <ele>411</ele>
        <time>2026-08-29T11:35:39Z</time>
      </trkpt>
      <trkpt lat="50.746967671439052" lon="13.191640628501773">
        <ele>412</ele>
        <time>2026-08-29T11:35:40Z</time>
      </trkpt>
      <trkpt lat="50.747018046677113" lon="13.191652614623308">
        <ele>412</ele>
        <time>2026-08-29T11:35:41Z</time>
      </trkpt>
      <trkpt lat="50.747072361409664" lon="13.191666109487414">
        <ele>412</ele>
        <time>2026-08-29T11:35:42Z</time>
      </trkpt>
      <trkpt lat="50.747128184884787" lon="13.191684549674392">
        <ele>412</ele>
        <time>2026-08-29T11:35:43Z</time>
      </trkpt>
      <trkpt lat="50.747178392484784" lon="13.191694607958198">
        <ele>412</ele>
        <time>2026-08-29T11:35:44Z</time>
      </trkpt>
      <trkpt lat="50.747240502387285" lon="13.191709611564875">
        <ele>411</ele>
        <time>2026-08-29T11:35:45Z</time>
      </trkpt>
      <trkpt lat="50.747291883453727" lon="13.191704330965877">
        <ele>411</ele>
        <time>2026-08-29T11:35:46Z</time>
      </trkpt>
      <trkpt lat="50.747349970042706" lon="13.191712629050016">
        <ele>411</ele>
        <time>2026-08-29T11:35:47Z</time>
      </trkpt>
      <trkpt lat="50.747405290603638" lon="13.191724782809615">
        <ele>412</ele>
        <time>2026-08-29T11:35:48Z</time>
      </trkpt>
      <trkpt lat="50.747456001117826" lon="13.19173919968307">
        <ele>412</ele>
        <time>2026-08-29T11:35:49Z</time>
      </trkpt>
      <trkpt lat="50.747503442689776" lon="13.191761830821633">
        <ele>412</ele>
        <time>2026-08-29T11:35:50Z</time>
      </trkpt>
      <trkpt lat="50.747551890090108" lon="13.191778678447008">
        <ele>413</ele>
        <time>2026-08-29T11:35:51Z</time>
      </trkpt>
      <trkpt lat="50.747603019699454" lon="13.191800722852349">
        <ele>413</ele>
        <time>2026-08-29T11:35:52Z</time>
      </trkpt>
      <trkpt lat="50.747647862881422" lon="13.191829724237323">
        <ele>414</ele>
        <time>2026-08-29T11:35:53Z</time>
      </trkpt>
      <trkpt lat="50.747693460434675" lon="13.191857887431979">
        <ele>414</ele>
        <time>2026-08-29T11:35:54Z</time>
      </trkpt>
      <trkpt lat="50.747734531760216" lon="13.191884374246001">
        <ele>414</ele>
        <time>2026-08-29T11:35:55Z</time>
      </trkpt>
      <trkpt lat="50.747776692733169" lon="13.19190532900393">
        <ele>414</ele>
        <time>2026-08-29T11:35:56Z</time>
      </trkpt>
      <trkpt lat="50.747819691896439" lon="13.191925948485732">
        <ele>414</ele>
        <time>2026-08-29T11:35:57Z</time>
      </trkpt>
      <trkpt lat="50.747860679402947" lon="13.19194732233882">
        <ele>415</ele>
        <time>2026-08-29T11:35:58Z</time>
      </trkpt>
      <trkpt lat="50.747901080176234" lon="13.191974060609937">
        <ele>415</ele>
        <time>2026-08-29T11:35:59Z</time>
      </trkpt>
      <trkpt lat="50.747940307483077" lon="13.192001050338149">
        <ele>415</ele>
        <time>2026-08-29T11:36:00Z</time>
      </trkpt>
      <trkpt lat="50.747978612780571" lon="13.192035919055343">
        <ele>415</ele>
        <time>2026-08-29T11:36:01Z</time>
      </trkpt>
      <trkpt lat="50.748018343001604" lon="13.192074643447995">
        <ele>414</ele>
        <time>2026-08-29T11:36:02Z</time>
      </trkpt>
      <trkpt lat="50.748057654127479" lon="13.192109763622284">
        <ele>414</ele>
        <time>2026-08-29T11:36:03Z</time>
      </trkpt>
      <trkpt lat="50.748103503137827" lon="13.192144129425287">
        <ele>415</ele>
        <time>2026-08-29T11:36:04Z</time>
      </trkpt>
      <trkpt lat="50.748152704909444" lon="13.192181261256337">
        <ele>415</ele>
        <time>2026-08-29T11:36:05Z</time>
      </trkpt>
      <trkpt lat="50.748197631910443" lon="13.192214453592896">
        <ele>415</ele>
        <time>2026-08-29T11:36:06Z</time>
      </trkpt>
      <trkpt lat="50.748248258605599" lon="13.192248735576868">
        <ele>415</ele>
        <time>2026-08-29T11:36:07Z</time>
      </trkpt>
      <trkpt lat="50.748302405700088" lon="13.192291567102075">
        <ele>414</ele>
        <time>2026-08-29T11:36:08Z</time>
      </trkpt>
      <trkpt lat="50.748361330479383" lon="13.192337080836296">
        <ele>414</ele>
        <time>2026-08-29T11:36:09Z</time>
      </trkpt>
      <trkpt lat="50.748422602191567" lon="13.192377733066678">
        <ele>414</ele>
        <time>2026-08-29T11:36:10Z</time>
      </trkpt>
      <trkpt lat="50.748483957722783" lon="13.192413272336125">
        <ele>413</ele>
        <time>2026-08-29T11:36:11Z</time>
      </trkpt>
      <trkpt lat="50.748547660186887" lon="13.192454092204571">
        <ele>413</ele>
        <time>2026-08-29T11:36:12Z</time>
      </trkpt>
      <trkpt lat="50.748610021546483" lon="13.192507149651647">
        <ele>413</ele>
        <time>2026-08-29T11:36:13Z</time>
      </trkpt>
      <trkpt lat="50.748667772859335" lon="13.192551909014583">
        <ele>414</ele>
        <time>2026-08-29T11:36:14Z</time>
      </trkpt>
      <trkpt lat="50.748721249401569" lon="13.192589292302728">
        <ele>413</ele>
        <time>2026-08-29T11:36:15Z</time>
      </trkpt>
      <trkpt lat="50.748774725943804" lon="13.192627932876348">
        <ele>412</ele>
        <time>2026-08-29T11:36:16Z</time>
      </trkpt>
      <trkpt lat="50.748828370124102" lon="13.19265584461391">
        <ele>412</ele>
        <time>2026-08-29T11:36:17Z</time>
      </trkpt>
      <trkpt lat="50.748876146972179" lon="13.192676045000553">
        <ele>411</ele>
        <time>2026-08-29T11:36:18Z</time>
      </trkpt>
      <trkpt lat="50.748920068144798" lon="13.192703034728765">
        <ele>411</ele>
        <time>2026-08-29T11:36:19Z</time>
      </trkpt>
      <trkpt lat="50.748974969610572" lon="13.192714937031269">
        <ele>411</ele>
        <time>2026-08-29T11:36:20Z</time>
      </trkpt>
      <trkpt lat="50.749024171382189" lon="13.192717367783189">
        <ele>411</ele>
        <time>2026-08-29T11:36:21Z</time>
      </trkpt>
      <trkpt lat="50.749071529135108" lon="13.192717367783189">
        <ele>410</ele>
        <time>2026-08-29T11:36:22Z</time>
      </trkpt>
      <trkpt lat="50.749114779755473" lon="13.192715691402555">
        <ele>410</ele>
        <time>2026-08-29T11:36:23Z</time>
      </trkpt>
      <trkpt lat="50.749159203842282" lon="13.192711835727096">
        <ele>410</ele>
        <time>2026-08-29T11:36:24Z</time>
      </trkpt>
      <trkpt lat="50.749201448634267" lon="13.192717786878347">
        <ele>410</ele>
        <time>2026-08-29T11:36:25Z</time>
      </trkpt>
      <trkpt lat="50.749246878549457" lon="13.192719211801887">
        <ele>410</ele>
        <time>2026-08-29T11:36:26Z</time>
      </trkpt>
      <trkpt lat="50.749290967360139" lon="13.192728264257312">
        <ele>410</ele>
        <time>2026-08-29T11:36:27Z</time>
      </trkpt>
      <trkpt lat="50.749332290142775" lon="13.192733125761151">
        <ele>409</ele>
        <time>2026-08-29T11:36:28Z</time>
      </trkpt>
      <trkpt lat="50.749373026192188" lon="13.192742764949799">
        <ele>409</ele>
        <time>2026-08-29T11:36:29Z</time>
      </trkpt>
      <trkpt lat="50.749414768069983" lon="13.192755673080683">
        <ele>410</ele>
        <time>2026-08-29T11:36:30Z</time>
      </trkpt>
      <trkpt lat="50.749455168843269" lon="13.192764725536108">
        <ele>409</ele>
        <time>2026-08-29T11:36:31Z</time>
      </trkpt>
      <trkpt lat="50.749497581273317" lon="13.192769922316074">
        <ele>409</ele>
        <time>2026-08-29T11:36:32Z</time>
      </trkpt>
      <trkpt lat="50.749537898227572" lon="13.192778890952468">
        <ele>410</ele>
        <time>2026-08-29T11:36:33Z</time>
      </trkpt>
      <trkpt lat="50.74957930482924" lon="13.192792972549796">
        <ele>410</ele>
        <time>2026-08-29T11:36:34Z</time>
      </trkpt>
      <trkpt lat="50.749620292335749" lon="13.192816525697708">
        <ele>410</ele>
        <time>2026-08-29T11:36:35Z</time>
      </trkpt>
      <trkpt lat="50.74966236948967" lon="13.192841336131096">
        <ele>409</ele>
        <time>2026-08-29T11:36:36Z</time>
      </trkpt>
      <trkpt lat="50.749700339511037" lon="13.192855417728424">
        <ele>409</ele>
        <time>2026-08-29T11:36:37Z</time>
      </trkpt>
      <trkpt lat="50.749744679778814" lon="13.192868242040277">
        <ele>410</ele>
        <time>2026-08-29T11:36:38Z</time>
      </trkpt>
      <trkpt lat="50.749789606779814" lon="13.192878551781178">
        <ele>410</ele>
        <time>2026-08-29T11:36:39Z</time>
      </trkpt>
      <trkpt lat="50.749827660620213" lon="13.192886766046286">
        <ele>410</ele>
        <time>2026-08-29T11:36:40Z</time>
      </trkpt>
      <trkpt lat="50.749867977574468" lon="13.192894225940108">
        <ele>410</ele>
        <time>2026-08-29T11:36:41Z</time>
      </trkpt>
      <trkpt lat="50.749906618148088" lon="13.192893052473664">
        <ele>411</ele>
        <time>2026-08-29T11:36:42Z</time>
      </trkpt>
      <trkpt lat="50.749952550977468" lon="13.19288844242692">
        <ele>411</ele>
        <time>2026-08-29T11:36:43Z</time>
      </trkpt>
      <trkpt lat="50.749990856274962" lon="13.192890956997871">
        <ele>411</ele>
        <time>2026-08-29T11:36:44Z</time>
      </trkpt>
      <trkpt lat="50.750042907893658" lon="13.192892884835601">
        <ele>410</ele>
        <time>2026-08-29T11:36:45Z</time>
      </trkpt>
      <trkpt lat="50.750093618407845" lon="13.192891040816903">
        <ele>410</ele>
        <time>2026-08-29T11:36:46Z</time>
      </trkpt>
      <trkpt lat="50.750141814351082" lon="13.192899003624916">
        <ele>411</ele>
        <time>2026-08-29T11:36:47Z</time>
      </trkpt>
      <trkpt lat="50.750196799635887" lon="13.192903865128756">
        <ele>411</ele>
        <time>2026-08-29T11:36:48Z</time>
      </trkpt>
      <trkpt lat="50.750249940901995" lon="13.192910654470325">
        <ele>411</ele>
        <time>2026-08-29T11:36:49Z</time>
      </trkpt>
      <trkpt lat="50.750306686386466" lon="13.192914091050625">
        <ele>411</ele>
        <time>2026-08-29T11:36:50Z</time>
      </trkpt>
      <trkpt lat="50.750361084938049" lon="13.192914174869657">
        <ele>411</ele>
        <time>2026-08-29T11:36:51Z</time>
      </trkpt>
      <trkpt lat="50.75041632167995" lon="13.192914761602879">
        <ele>411</ele>
        <time>2026-08-29T11:36:52Z</time>
      </trkpt>
      <trkpt lat="50.750474743545055" lon="13.192914677783847">
        <ele>411</ele>
        <time>2026-08-29T11:36:53Z</time>
      </trkpt>
      <trkpt lat="50.750534925609827" lon="13.192915180698037">
        <ele>411</ele>
        <time>2026-08-29T11:36:54Z</time>
      </trkpt>
      <trkpt lat="50.75059418566525" lon="13.192916354164481">
        <ele>411</ele>
        <time>2026-08-29T11:36:55Z</time>
      </trkpt>
      <trkpt lat="50.750654451549053" lon="13.192919036373496">
        <ele>411</ele>
        <time>2026-08-29T11:36:56Z</time>
      </trkpt>
      <trkpt lat="50.750717734917998" lon="13.192921886220574">
        <ele>411</ele>
        <time>2026-08-29T11:36:57Z</time>
      </trkpt>
      <trkpt lat="50.750774312764406" lon="13.192921886220574">
        <ele>411</ele>
        <time>2026-08-29T11:36:58Z</time>
      </trkpt>
      <trkpt lat="50.750832399353385" lon="13.192924400791526">
        <ele>411</ele>
        <time>2026-08-29T11:36:59Z</time>
      </trkpt>
      <trkpt lat="50.750887049362063" lon="13.192939320579171">
        <ele>411</ele>
        <time>2026-08-29T11:37:00Z</time>
      </trkpt>
      <trkpt lat="50.750948321074247" lon="13.192947702482343">
        <ele>410</ele>
        <time>2026-08-29T11:37:01Z</time>
      </trkpt>
      <trkpt lat="50.750999618321657" lon="13.192946445196867">
        <ele>411</ele>
        <time>2026-08-29T11:37:02Z</time>
      </trkpt>
      <trkpt lat="50.75105007737875" lon="13.192953150719404">
        <ele>411</ele>
        <time>2026-08-29T11:37:03Z</time>
      </trkpt>
      <trkpt lat="50.751106487587094" lon="13.192964298650622">
        <ele>411</ele>
        <time>2026-08-29T11:37:04Z</time>
      </trkpt>
      <trkpt lat="50.75116298161447" lon="13.19297980517149">
        <ele>410</ele>
        <time>2026-08-29T11:37:05Z</time>
      </trkpt>
      <trkpt lat="50.751216793432832" lon="13.192996820434928">
        <ele>410</ele>
        <time>2026-08-29T11:37:06Z</time>
      </trkpt>
      <trkpt lat="50.751269850879908" lon="13.193022049963474">
        <ele>410</ele>
        <time>2026-08-29T11:37:07Z</time>
      </trkpt>
      <trkpt lat="50.75131444260478" lon="13.193048536777496">
        <ele>410</ele>
        <time>2026-08-29T11:37:08Z</time>
      </trkpt>
      <trkpt lat="50.751365069299936" lon="13.193063205108047">
        <ele>410</ele>
        <time>2026-08-29T11:37:09Z</time>
      </trkpt>
      <trkpt lat="50.751414941623807" lon="13.193075777962804">
        <ele>410</ele>
        <time>2026-08-29T11:37:10Z</time>
      </trkpt>
      <trkpt lat="50.751473698765039" lon="13.193089356645942">
        <ele>410</ele>
        <time>2026-08-29T11:37:11Z</time>
      </trkpt>
      <trkpt lat="50.751532791182399" lon="13.193104695528746">
        <ele>409</ele>
        <time>2026-08-29T11:37:12Z</time>
      </trkpt>
      <trkpt lat="50.751596158370376" lon="13.193111401051283">
        <ele>409</ele>
        <time>2026-08-29T11:37:13Z</time>
      </trkpt>
      <trkpt lat="50.751655334606767" lon="13.193118441849947">
        <ele>409</ele>
        <time>2026-08-29T11:37:14Z</time>
      </trkpt>
      <trkpt lat="50.751705039292574" lon="13.193121124058962">
        <ele>410</ele>
        <time>2026-08-29T11:37:15Z</time>
      </trkpt>
      <trkpt lat="50.751748289912939" lon="13.193127410486341">
        <ele>410</ele>
        <time>2026-08-29T11:37:16Z</time>
      </trkpt>
      <trkpt lat="50.751793049275875" lon="13.193142078816891">
        <ele>410</ele>
        <time>2026-08-29T11:37:17Z</time>
      </trkpt>
      <trkpt lat="50.75183336623013" lon="13.193150460720062">
        <ele>410</ele>
        <time>2026-08-29T11:37:18Z</time>
      </trkpt>
      <trkpt lat="50.751879969611764" lon="13.193162614479661">
        <ele>410</ele>
        <time>2026-08-29T11:37:19Z</time>
      </trkpt>
      <trkpt lat="50.751933781430125" lon="13.193178456276655">
        <ele>410</ele>
        <time>2026-08-29T11:37:20Z</time>
      </trkpt>
      <trkpt lat="50.751981809735298" lon="13.193186670541763">
        <ele>410</ele>
        <time>2026-08-29T11:37:21Z</time>
      </trkpt>
      <trkpt lat="50.75201709754765" lon="13.193190274760127">
        <ele>410</ele>
        <time>2026-08-29T11:37:22Z</time>
      </trkpt>
      <trkpt lat="50.752059342339635" lon="13.193204859271646">
        <ele>410</ele>
        <time>2026-08-29T11:37:23Z</time>
      </trkpt>
      <trkpt lat="50.752103179693222" lon="13.193214330822229">
        <ele>410</ele>
        <time>2026-08-29T11:37:24Z</time>
      </trkpt>
      <trkpt lat="50.752150872722268" lon="13.193224305287004">
        <ele>410</ele>
        <time>2026-08-29T11:37:25Z</time>
      </trkpt>
      <trkpt lat="50.75219445861876" lon="13.193229418247938">
        <ele>410</ele>
        <time>2026-08-29T11:37:26Z</time>
      </trkpt>
      <trkpt lat="50.752237876877189" lon="13.193228244781494">
        <ele>411</ele>
        <time>2026-08-29T11:37:27Z</time>
      </trkpt>
      <trkpt lat="50.752270482480526" lon="13.193232771009207">
        <ele>411</ele>
        <time>2026-08-29T11:37:28Z</time>
      </trkpt>
      <trkpt lat="50.752304261550307" lon="13.193245343863964">
        <ele>412</ele>
        <time>2026-08-29T11:37:29Z</time>
      </trkpt>
      <trkpt lat="50.752342650666833" lon="13.193253977224231">
        <ele>412</ele>
        <time>2026-08-29T11:37:30Z</time>
      </trkpt>
      <trkpt lat="50.752376010641456" lon="13.193261688575149">
        <ele>412</ele>
        <time>2026-08-29T11:37:31Z</time>
      </trkpt>
      <trkpt lat="50.752405682578683" lon="13.193259257823229">
        <ele>412</ele>
        <time>2026-08-29T11:37:32Z</time>
      </trkpt>
      <trkpt lat="50.75242948718369" lon="13.193259174004197">
        <ele>412</ele>
        <time>2026-08-29T11:37:33Z</time>
      </trkpt>
      <trkpt lat="50.75244951993227" lon="13.193263113498688">
        <ele>412</ele>
        <time>2026-08-29T11:37:34Z</time>
      </trkpt>
      <trkpt lat="50.752473240718246" lon="13.193257665261626">
        <ele>411</ele>
        <time>2026-08-29T11:37:35Z</time>
      </trkpt>
      <trkpt lat="50.752501739189029" lon="13.193245679140091">
        <ele>412</ele>
        <time>2026-08-29T11:37:36Z</time>
      </trkpt>
      <trkpt lat="50.752528226003051" lon="13.193225897848606">
        <ele>412</ele>
        <time>2026-08-29T11:37:37Z</time>
      </trkpt>
      <trkpt lat="50.752554628998041" lon="13.193217683583498">
        <ele>412</ele>
        <time>2026-08-29T11:37:38Z</time>
      </trkpt>
      <trkpt lat="50.752581870183349" lon="13.193206619471312">
        <ele>412</ele>
        <time>2026-08-29T11:37:39Z</time>
      </trkpt>
      <trkpt lat="50.75261321850121" lon="13.193196477368474">
        <ele>413</ele>
        <time>2026-08-29T11:37:40Z</time>
      </trkpt>
      <trkpt lat="50.752644902095199" lon="13.193184239789844">
        <ele>413</ele>
        <time>2026-08-29T11:37:41Z</time>
      </trkpt>
      <trkpt lat="50.752678010612726" lon="13.193164709955454">
        <ele>412</ele>
        <time>2026-08-29T11:37:42Z</time>
      </trkpt>
      <trkpt lat="50.75271531008184" lon="13.193145263940096">
        <ele>413</ele>
        <time>2026-08-29T11:37:43Z</time>
      </trkpt>
      <trkpt lat="50.752743640914559" lon="13.193132020533085">
        <ele>413</ele>
        <time>2026-08-29T11:37:44Z</time>
      </trkpt>
      <trkpt lat="50.752761410549283" lon="13.193123387172818">
        <ele>413</ele>
        <time>2026-08-29T11:37:45Z</time>
      </trkpt>
      <trkpt lat="50.752785298973322" lon="13.193115927278996">
        <ele>413</ele>
        <time>2026-08-29T11:37:46Z</time>
      </trkpt>
      <trkpt lat="50.752813378348947" lon="13.193100336939096">
        <ele>413</ele>
        <time>2026-08-29T11:37:47Z</time>
      </trkpt>
      <trkpt lat="50.752836428582668" lon="13.193091955035925">
        <ele>413</ele>
        <time>2026-08-29T11:37:48Z</time>
      </trkpt>
      <trkpt lat="50.752860400825739" lon="13.193076280876994">
        <ele>413</ele>
        <time>2026-08-29T11:37:49Z</time>
      </trkpt>
      <trkpt lat="50.752878170460463" lon="13.193071587011218">
        <ele>413</ele>
        <time>2026-08-29T11:37:50Z</time>
      </trkpt>
      <trkpt lat="50.752910859882832" lon="13.193068066611886">
        <ele>413</ele>
        <time>2026-08-29T11:37:51Z</time>
      </trkpt>
      <trkpt lat="50.752947740256786" lon="13.193051051348448">
        <ele>413</ele>
        <time>2026-08-29T11:37:52Z</time>
      </trkpt>
      <trkpt lat="50.752983279526234" lon="13.19303554482758">
        <ele>413</ele>
        <time>2026-08-29T11:37:53Z</time>
      </trkpt>
      <trkpt lat="50.75301680713892" lon="13.193022469058633">
        <ele>414</ele>
        <time>2026-08-29T11:37:54Z</time>
      </trkpt>
      <trkpt lat="50.75304564088583" lon="13.193011237308383">
        <ele>414</ele>
        <time>2026-08-29T11:37:55Z</time>
      </trkpt>
      <trkpt lat="50.753082521259785" lon="13.192999251186848">
        <ele>414</ele>
        <time>2026-08-29T11:37:56Z</time>
      </trkpt>
      <trkpt lat="50.753119653090835" lon="13.192986007779837">
        <ele>414</ele>
        <time>2026-08-29T11:37:57Z</time>
      </trkpt>
      <trkpt lat="50.75315753929317" lon="13.192974189296365">
        <ele>415</ele>
        <time>2026-08-29T11:37:58Z</time>
      </trkpt>
      <trkpt lat="50.753208501264453" lon="13.192971590906382">
        <ele>415</ele>
        <time>2026-08-29T11:37:59Z</time>
      </trkpt>
      <trkpt lat="50.753252590075135" lon="13.192954743281007">
        <ele>415</ele>
        <time>2026-08-29T11:38:00Z</time>
      </trkpt>
      <trkpt lat="50.753293661400676" lon="13.192944014444947">
        <ele>416</ele>
        <time>2026-08-29T11:38:01Z</time>
      </trkpt>
      <trkpt lat="50.753330793231726" lon="13.192934039980173">
        <ele>416</ele>
        <time>2026-08-29T11:38:02Z</time>
      </trkpt>
      <trkpt lat="50.753368427976966" lon="13.192926915362477">
        <ele>415</ele>
        <time>2026-08-29T11:38:03Z</time>
      </trkpt>
      <trkpt lat="50.753408158197999" lon="13.192921718582511">
        <ele>414</ele>
        <time>2026-08-29T11:38:04Z</time>
      </trkpt>
      <trkpt lat="50.753455432131886" lon="13.192907050251961">
        <ele>415</ele>
        <time>2026-08-29T11:38:05Z</time>
      </trkpt>
      <trkpt lat="50.753501448780298" lon="13.192908810451627">
        <ele>415</ele>
        <time>2026-08-29T11:38:06Z</time>
      </trkpt>
      <trkpt lat="50.753543525934219" lon="13.192904954776168">
        <ele>415</ele>
        <time>2026-08-29T11:38:07Z</time>
      </trkpt>
      <trkpt lat="50.753583423793316" lon="13.1929050385952">
        <ele>414</ele>
        <time>2026-08-29T11:38:08Z</time>
      </trkpt>
      <trkpt lat="50.753627680242062" lon="13.192893639206886">
        <ele>414</ele>
        <time>2026-08-29T11:38:09Z</time>
      </trkpt>
      <trkpt lat="50.753669338300824" lon="13.192878132686019">
        <ele>413</ele>
        <time>2026-08-29T11:38:10Z</time>
      </trkpt>
      <trkpt lat="50.753708817064762" lon="13.192876623943448">
        <ele>413</ele>
        <time>2026-08-29T11:38:11Z</time>
      </trkpt>
      <trkpt lat="50.753747960552573" lon="13.192859692499042">
        <ele>413</ele>
        <time>2026-08-29T11:38:12Z</time>
      </trkpt>
      <trkpt lat="50.75379473157227" lon="13.192852735519409">
        <ele>413</ele>
        <time>2026-08-29T11:38:13Z</time>
      </trkpt>
      <trkpt lat="50.753837060183287" lon="13.192840246483684">
        <ele>414</ele>
        <time>2026-08-29T11:38:14Z</time>
      </trkpt>
      <trkpt lat="50.753881568089128" lon="13.192840414121747">
        <ele>413</ele>
        <time>2026-08-29T11:38:15Z</time>
      </trkpt>
      <trkpt lat="50.753927165642381" lon="13.192835133522749">
        <ele>413</ele>
        <time>2026-08-29T11:38:16Z</time>
      </trkpt>
      <trkpt lat="50.753974607214332" lon="13.192819627001882">
        <ele>413</ele>
        <time>2026-08-29T11:38:17Z</time>
      </trkpt>
      <trkpt lat="50.754021042957902" lon="13.192796409130096">
        <ele>413</ele>
        <time>2026-08-29T11:38:18Z</time>
      </trkpt>
      <trkpt lat="50.754073010757565" lon="13.19275894202292">
        <ele>413</ele>
        <time>2026-08-29T11:38:19Z</time>
      </trkpt>
      <trkpt lat="50.754124643281102" lon="13.192710913717747">
        <ele>413</ele>
        <time>2026-08-29T11:38:20Z</time>
      </trkpt>
      <trkpt lat="50.754170157015324" lon="13.192676128819585">
        <ele>413</ele>
        <time>2026-08-29T11:38:21Z</time>
      </trkpt>
      <trkpt lat="50.754228411242366" lon="13.192640841007233">
        <ele>413</ele>
        <time>2026-08-29T11:38:22Z</time>
      </trkpt>
      <trkpt lat="50.754274344071746" lon="13.192608654499054">
        <ele>412</ele>
        <time>2026-08-29T11:38:23Z</time>
      </trkpt>
      <trkpt lat="50.754321198910475" lon="13.192567583173513">
        <ele>413</ele>
        <time>2026-08-29T11:38:24Z</time>
      </trkpt>
      <trkpt lat="50.75436495244503" lon="13.192538246512413">
        <ele>413</ele>
        <time>2026-08-29T11:38:25Z</time>
      </trkpt>
      <trkpt lat="50.754412310197949" lon="13.192509328946471">
        <ele>412</ele>
        <time>2026-08-29T11:38:26Z</time>
      </trkpt>
      <trkpt lat="50.754462936893106" lon="13.192476639524102">
        <ele>413</ele>
        <time>2026-08-29T11:38:27Z</time>
      </trkpt>
      <trkpt lat="50.754520101472735" lon="13.192457780241966">
        <ele>413</ele>
        <time>2026-08-29T11:38:28Z</time>
      </trkpt>
      <trkpt lat="50.754568632692099" lon="13.192424923181534">
        <ele>414</ele>
        <time>2026-08-29T11:38:29Z</time>
      </trkpt>
      <trkpt lat="50.754620851948857" lon="13.192402040585876">
        <ele>414</ele>
        <time>2026-08-29T11:38:30Z</time>
      </trkpt>
      <trkpt lat="50.754674160853028" lon="13.192374380305409">
        <ele>414</ele>
        <time>2026-08-29T11:38:31Z</time>
      </trkpt>
      <trkpt lat="50.754727134481072" lon="13.192362813279033">
        <ele>413</ele>
        <time>2026-08-29T11:38:32Z</time>
      </trkpt>
      <trkpt lat="50.754776587709785" lon="13.192346720024943">
        <ele>414</ele>
        <time>2026-08-29T11:38:33Z</time>
      </trkpt>
      <trkpt lat="50.754823107272387" lon="13.192325178533792">
        <ele>414</ele>
        <time>2026-08-29T11:38:34Z</time>
      </trkpt>
      <trkpt lat="50.754869962111115" lon="13.192306570708752">
        <ele>414</ele>
        <time>2026-08-29T11:38:35Z</time>
      </trkpt>
      <trkpt lat="50.754915559664369" lon="13.192277401685715">
        <ele>414</ele>
        <time>2026-08-29T11:38:36Z</time>
      </trkpt>
      <trkpt lat="50.754961157217622" lon="13.192255357280374">
        <ele>414</ele>
        <time>2026-08-29T11:38:37Z</time>
      </trkpt>
      <trkpt lat="50.7550089340657" lon="13.192228367552161">
        <ele>414</ele>
        <time>2026-08-29T11:38:38Z</time>
      </trkpt>
      <trkpt lat="50.755063919350505" lon="13.192196013405919">
        <ele>414</ele>
        <time>2026-08-29T11:38:39Z</time>
      </trkpt>
      <trkpt lat="50.755107421427965" lon="13.192178243771195">
        <ele>414</ele>
        <time>2026-08-29T11:38:40Z</time>
      </trkpt>
      <trkpt lat="50.755151426419616" lon="13.192163910716772">
        <ele>413</ele>
        <time>2026-08-29T11:38:41Z</time>
      </trkpt>
      <trkpt lat="50.755193838849664" lon="13.192140692844987">
        <ele>413</ele>
        <time>2026-08-29T11:38:42Z</time>
      </trkpt>
      <trkpt lat="50.755223259329796" lon="13.19212082773447">
        <ele>413</ele>
        <time>2026-08-29T11:38:43Z</time>
      </trkpt>
      <trkpt lat="50.75526692904532" lon="13.192097442224622">
        <ele>412</ele>
        <time>2026-08-29T11:38:44Z</time>
      </trkpt>
      <trkpt lat="50.755312191322446" lon="13.192086461931467">
        <ele>412</ele>
        <time>2026-08-29T11:38:45Z</time>
      </trkpt>
      <trkpt lat="50.755343539640307" lon="13.192073972895741">
        <ele>411</ele>
        <time>2026-08-29T11:38:46Z</time>
      </trkpt>
      <trkpt lat="50.755381174385548" lon="13.192050000652671">
        <ele>411</ele>
        <time>2026-08-29T11:38:47Z</time>
      </trkpt>
      <trkpt lat="50.75541889294982" lon="13.19202309474349">
        <ele>412</ele>
        <time>2026-08-29T11:38:48Z</time>
      </trkpt>
      <trkpt lat="50.755460970103741" lon="13.1919932551682">
        <ele>412</ele>
        <time>2026-08-29T11:38:49Z</time>
      </trkpt>
      <trkpt lat="50.755505058914423" lon="13.191967941820621">
        <ele>412</ele>
        <time>2026-08-29T11:38:50Z</time>
      </trkpt>
      <trkpt lat="50.755556775256991" lon="13.191958973184228">
        <ele>411</ele>
        <time>2026-08-29T11:38:51Z</time>
      </trkpt>
      <trkpt lat="50.755608240142465" lon="13.191956290975213">
        <ele>411</ele>
        <time>2026-08-29T11:38:52Z</time>
      </trkpt>
      <trkpt lat="50.755665823817253" lon="13.191940868273377">
        <ele>411</ele>
        <time>2026-08-29T11:38:53Z</time>
      </trkpt>
      <trkpt lat="50.755717372521758" lon="13.191933240741491">
        <ele>410</ele>
        <time>2026-08-29T11:38:54Z</time>
      </trkpt>
      <trkpt lat="50.755770429968834" lon="13.19192192517221">
        <ele>410</ele>
        <time>2026-08-29T11:38:55Z</time>
      </trkpt>
      <trkpt lat="50.755820386111736" lon="13.191915219649673">
        <ele>410</ele>
        <time>2026-08-29T11:38:56Z</time>
      </trkpt>
      <trkpt lat="50.755871767178178" lon="13.191917734220624">
        <ele>410</ele>
        <time>2026-08-29T11:38:57Z</time>
      </trkpt>
      <trkpt lat="50.755922477692366" lon="13.191911531612277">
        <ele>411</ele>
        <time>2026-08-29T11:38:58Z</time>
      </trkpt>
      <trkpt lat="50.75597302056849" lon="13.191912034526467">
        <ele>411</ele>
        <time>2026-08-29T11:38:59Z</time>
      </trkpt>
      <trkpt lat="50.756023311987519" lon="13.191915387287736">
        <ele>411</ele>
        <time>2026-08-29T11:39:00Z</time>
      </trkpt>
      <trkpt lat="50.756075279787183" lon="13.191918823868036">
        <ele>411</ele>
        <time>2026-08-29T11:39:01Z</time>
      </trkpt>
      <trkpt lat="50.756122972816229" lon="13.191915135830641">
        <ele>411</ele>
        <time>2026-08-29T11:39:02Z</time>
      </trkpt>
      <trkpt lat="50.756175862625241" lon="13.191903820261359">
        <ele>411</ele>
        <time>2026-08-29T11:39:03Z</time>
      </trkpt>
      <trkpt lat="50.756209306418896" lon="13.191886637359858">
        <ele>411</ele>
        <time>2026-08-29T11:39:04Z</time>
      </trkpt>
      <trkpt lat="50.756257586181164" lon="13.191881608217955">
        <ele>411</ele>
        <time>2026-08-29T11:39:05Z</time>
      </trkpt>
      <trkpt lat="50.756307542324066" lon="13.191880350932479">
        <ele>411</ele>
        <time>2026-08-29T11:39:06Z</time>
      </trkpt>
      <trkpt lat="50.756350960582495" lon="13.191886553540826">
        <ele>411</ele>
        <time>2026-08-29T11:39:07Z</time>
      </trkpt>
      <trkpt lat="50.756390439346433" lon="13.191873729228973">
        <ele>410</ele>
        <time>2026-08-29T11:39:08Z</time>
      </trkpt>
      <trkpt lat="50.756422122940421" lon="13.191854283213615">
        <ele>411</ele>
        <time>2026-08-29T11:39:09Z</time>
      </trkpt>
      <trkpt lat="50.756449196487665" lon="13.191838441416621">
        <ele>412</ele>
        <time>2026-08-29T11:39:10Z</time>
      </trkpt>
      <trkpt lat="50.756479371339083" lon="13.191815810278058">
        <ele>411</ele>
        <time>2026-08-29T11:39:11Z</time>
      </trkpt>
      <trkpt lat="50.756512647494674" lon="13.191787982359529">
        <ele>411</ele>
        <time>2026-08-29T11:39:12Z</time>
      </trkpt>
      <trkpt lat="50.756546342745423" lon="13.191760070621967">
        <ele>412</ele>
        <time>2026-08-29T11:39:13Z</time>
      </trkpt>
      <trkpt lat="50.756586659699678" lon="13.19173090159893">
        <ele>412</ele>
        <time>2026-08-29T11:39:14Z</time>
      </trkpt>
      <trkpt lat="50.756627731025219" lon="13.191709108650684">
        <ele>412</ele>
        <time>2026-08-29T11:39:15Z</time>
      </trkpt>
      <trkpt lat="50.756667712703347" lon="13.191680358722806">
        <ele>412</ele>
        <time>2026-08-29T11:39:16Z</time>
      </trkpt>
      <trkpt lat="50.756706688553095" lon="13.191662589088082">
        <ele>411</ele>
        <time>2026-08-29T11:39:17Z</time>
      </trkpt>
      <trkpt lat="50.756749100983143" lon="13.191633503884077">
        <ele>412</ele>
        <time>2026-08-29T11:39:18Z</time>
      </trkpt>
      <trkpt lat="50.756788998842239" lon="13.191602826118469">
        <ele>413</ele>
        <time>2026-08-29T11:39:19Z</time>
      </trkpt>
      <trkpt lat="50.756830992177129" lon="13.191570388153195">
        <ele>413</ele>
        <time>2026-08-29T11:39:20Z</time>
      </trkpt>
      <trkpt lat="50.756867453455925" lon="13.191524958238006">
        <ele>413</ele>
        <time>2026-08-29T11:39:21Z</time>
      </trkpt>
      <trkpt lat="50.756909279152751" lon="13.191479779779911">
        <ele>413</ele>
        <time>2026-08-29T11:39:22Z</time>
      </trkpt>
      <trkpt lat="50.756945069879293" lon="13.19142353720963">
        <ele>413</ele>
        <time>2026-08-29T11:39:23Z</time>
      </trkpt>
      <trkpt lat="50.756979184225202" lon="13.191373245790601">
        <ele>413</ele>
        <time>2026-08-29T11:39:24Z</time>
      </trkpt>
      <trkpt lat="50.757010197266936" lon="13.191308286041021">
        <ele>413</ele>
        <time>2026-08-29T11:39:25Z</time>
      </trkpt>
      <trkpt lat="50.757046407088637" lon="13.191258413717151">
        <ele>412</ele>
        <time>2026-08-29T11:39:26Z</time>
      </trkpt>
      <trkpt lat="50.757083371281624" lon="13.191197225823998">
        <ele>412</ele>
        <time>2026-08-29T11:39:27Z</time>
      </trkpt>
      <trkpt lat="50.757118491455913" lon="13.191126734018326">
        <ele>412</ele>
        <time>2026-08-29T11:39:28Z</time>
      </trkpt>
      <trkpt lat="50.757155958563089" lon="13.191046686843038">
        <ele>412</ele>
        <time>2026-08-29T11:39:29Z</time>
      </trkpt>
      <trkpt lat="50.75719996355474" lon="13.190953563898802">
        <ele>412</ele>
        <time>2026-08-29T11:39:30Z</time>
      </trkpt>
      <trkpt lat="50.757250254973769" lon="13.190872259438038">
        <ele>411</ele>
        <time>2026-08-29T11:39:31Z</time>
      </trkpt>
      <trkpt lat="50.757312448695302" lon="13.190786093473434">
        <ele>411</ele>
        <time>2026-08-29T11:39:32Z</time>
      </trkpt>
      <trkpt lat="50.757382018491626" lon="13.190710991621017">
        <ele>412</ele>
        <time>2026-08-29T11:39:33Z</time>
      </trkpt>
      <trkpt lat="50.757470279932022" lon="13.190633291378617">
        <ele>412</ele>
        <time>2026-08-29T11:39:34Z</time>
      </trkpt>
      <trkpt lat="50.757573461160064" lon="13.190554501488805">
        <ele>411</ele>
        <time>2026-08-29T11:39:35Z</time>
      </trkpt>
      <trkpt lat="50.757669098675251" lon="13.19048635661602">
        <ele>410</ele>
        <time>2026-08-29T11:39:36Z</time>
      </trkpt>
      <trkpt lat="50.757759707048535" lon="13.190421648323536">
        <ele>409</ele>
        <time>2026-08-29T11:39:37Z</time>
      </trkpt>
      <trkpt lat="50.757849812507629" lon="13.190362304449081">
        <ele>410</ele>
        <time>2026-08-29T11:39:38Z</time>
      </trkpt>
      <trkpt lat="50.757944947108626" lon="13.190295584499836">
        <ele>410</ele>
        <time>2026-08-29T11:39:39Z</time>
      </trkpt>
      <trkpt lat="50.758032370358706" lon="13.190224673599005">
        <ele>410</ele>
        <time>2026-08-29T11:39:40Z</time>
      </trkpt>
      <trkpt lat="50.758111411705613" lon="13.190146051347256">
        <ele>410</ele>
        <time>2026-08-29T11:39:41Z</time>
      </trkpt>
      <trkpt lat="50.758181819692254" lon="13.19005636498332">
        <ele>410</ele>
        <time>2026-08-29T11:39:42Z</time>
      </trkpt>
      <trkpt lat="50.758262118324637" lon="13.189970618113875">
        <ele>409</ele>
        <time>2026-08-29T11:39:43Z</time>
      </trkpt>
      <trkpt lat="50.758344177156687" lon="13.189888559281826">
        <ele>410</ele>
        <time>2026-08-29T11:39:44Z</time>
      </trkpt>
      <trkpt lat="50.758430929854512" lon="13.189804740250111">
        <ele>410</ele>
        <time>2026-08-29T11:39:45Z</time>
      </trkpt>
      <trkpt lat="50.75851634144783" lon="13.189741037786007">
        <ele>409</ele>
        <time>2026-08-29T11:39:46Z</time>
      </trkpt>
      <trkpt lat="50.75860477052629" lon="13.189679095521569">
        <ele>410</ele>
        <time>2026-08-29T11:39:47Z</time>
      </trkpt>
      <trkpt lat="50.758680710569024" lon="13.189637521281838">
        <ele>410</ele>
        <time>2026-08-29T11:39:48Z</time>
      </trkpt>
      <trkpt lat="50.758765451610088" lon="13.189607765525579">
        <ele>410</ele>
        <time>2026-08-29T11:39:49Z</time>
      </trkpt>
      <trkpt lat="50.758843487128615" lon="13.189592259004712">
        <ele>409</ele>
        <time>2026-08-29T11:39:50Z</time>
      </trkpt>
      <trkpt lat="50.758910039439797" lon="13.189582284539938">
        <ele>409</ele>
        <time>2026-08-29T11:39:51Z</time>
      </trkpt>
      <trkpt lat="50.758973490446806" lon="13.189573232084513">
        <ele>408</ele>
        <time>2026-08-29T11:39:52Z</time>
      </trkpt>
      <trkpt lat="50.759034343063831" lon="13.189542470499873">
        <ele>408</ele>
        <time>2026-08-29T11:39:53Z</time>
      </trkpt>
      <trkpt lat="50.759096285328269" lon="13.189490335062146">
        <ele>408</ele>
        <time>2026-08-29T11:39:54Z</time>
      </trkpt>
      <trkpt lat="50.759152611717582" lon="13.189446581527591">
        <ele>408</ele>
        <time>2026-08-29T11:39:55Z</time>
      </trkpt>
      <trkpt lat="50.759196700528264" lon="13.189381202682853">
        <ele>408</ele>
        <time>2026-08-29T11:39:56Z</time>
      </trkpt>
      <trkpt lat="50.759231401607394" lon="13.189309369772673">
        <ele>408</ele>
        <time>2026-08-29T11:39:57Z</time>
      </trkpt>
      <trkpt lat="50.759271970018744" lon="13.189241057261825">
        <ele>407</ele>
        <time>2026-08-29T11:39:58Z</time>
      </trkpt>
      <trkpt lat="50.759321758523583" lon="13.189165703952312">
        <ele>406</ele>
        <time>2026-08-29T11:39:59Z</time>
      </trkpt>
      <trkpt lat="50.759364673867822" lon="13.18908154964447">
        <ele>405</ele>
        <time>2026-08-29T11:40:00Z</time>
      </trkpt>
      <trkpt lat="50.759412534534931" lon="13.189001167193055">
        <ele>406</ele>
        <time>2026-08-29T11:40:01Z</time>
      </trkpt>
      <trkpt lat="50.759461065754294" lon="13.188919443637133">
        <ele>406</ele>
        <time>2026-08-29T11:40:02Z</time>
      </trkpt>
      <trkpt lat="50.759517224505544" lon="13.188845096156001">
        <ele>406</ele>
        <time>2026-08-29T11:40:03Z</time>
      </trkpt>
      <trkpt lat="50.759578580036759" lon="13.188781226053834">
        <ele>405</ele>
        <time>2026-08-29T11:40:04Z</time>
      </trkpt>
      <trkpt lat="50.75962208211422" lon="13.188711823895574">
        <ele>405</ele>
        <time>2026-08-29T11:40:05Z</time>
      </trkpt>
      <trkpt lat="50.759663404896855" lon="13.188650300726295">
        <ele>405</ele>
        <time>2026-08-29T11:40:06Z</time>
      </trkpt>
      <trkpt lat="50.759709840640426" lon="13.188605541363358">
        <ele>405</ele>
        <time>2026-08-29T11:40:07Z</time>
      </trkpt>
      <trkpt lat="50.759753929451108" lon="13.188538150861859">
        <ele>404</ele>
        <time>2026-08-29T11:40:08Z</time>
      </trkpt>
      <trkpt lat="50.759792570024729" lon="13.188496576622128">
        <ele>404</ele>
        <time>2026-08-29T11:40:09Z</time>
      </trkpt>
      <trkpt lat="50.759834479540586" lon="13.188438322395086">
        <ele>404</ele>
        <time>2026-08-29T11:40:10Z</time>
      </trkpt>
      <trkpt lat="50.759872868657112" lon="13.188393395394087">
        <ele>404</ele>
        <time>2026-08-29T11:40:11Z</time>
      </trkpt>
      <trkpt lat="50.759910000488162" lon="13.188355509191751">
        <ele>404</ele>
        <time>2026-08-29T11:40:12Z</time>
      </trkpt>
      <trkpt lat="50.759954592213035" lon="13.188316700980067">
        <ele>403</ele>
        <time>2026-08-29T11:40:13Z</time>
      </trkpt>
      <trkpt lat="50.759983509778976" lon="13.188276132568717">
        <ele>403</ele>
        <time>2026-08-29T11:40:14Z</time>
      </trkpt>
      <trkpt lat="50.759993568062782" lon="13.188237072899938">
        <ele>403</ele>
        <time>2026-08-29T11:40:15Z</time>
      </trkpt>
      <trkpt lat="50.759994741529226" lon="13.18821620196104">
        <ele>403</ele>
        <time>2026-08-29T11:40:16Z</time>
      </trkpt>
      <trkpt lat="50.759991304948926" lon="13.188211005181074">
        <ele>403</ele>
        <time>2026-08-29T11:40:17Z</time>
      </trkpt>
      <trkpt lat="50.759991472586989" lon="13.188219973817468">
        <ele>403</ele>
        <time>2026-08-29T11:40:18Z</time>
      </trkpt>
      <trkpt lat="50.759991137310863" lon="13.188237072899938">
        <ele>403</ele>
        <time>2026-08-29T11:40:19Z</time>
      </trkpt>
      <trkpt lat="50.759996837005019" lon="13.188238581642509">
        <ele>403</ele>
        <time>2026-08-29T11:40:20Z</time>
      </trkpt>
      <trkpt lat="50.759992059320211" lon="13.188232462853193">
        <ele>404</ele>
        <time>2026-08-29T11:40:21Z</time>
      </trkpt>
      <trkpt lat="50.759997759014368" lon="13.188228020444512">
        <ele>404</ele>
        <time>2026-08-29T11:40:22Z</time>
      </trkpt>
      <trkpt lat="50.759995328262448" lon="13.188230786472559">
        <ele>405</ele>
        <time>2026-08-29T11:40:23Z</time>
      </trkpt>
      <trkpt lat="50.759995831176639" lon="13.188229613006115">
        <ele>405</ele>
        <time>2026-08-29T11:40:24Z</time>
      </trkpt>
      <trkpt lat="50.759992897510529" lon="13.188236067071557">
        <ele>406</ele>
        <time>2026-08-29T11:40:25Z</time>
      </trkpt>
      <trkpt lat="50.759990131482482" lon="13.188227768987417">
        <ele>405</ele>
        <time>2026-08-29T11:40:26Z</time>
      </trkpt>
      <trkpt lat="50.759989963844419" lon="13.188227685168386">
        <ele>405</ele>
        <time>2026-08-29T11:40:27Z</time>
      </trkpt>
      <trkpt lat="50.759980659931898" lon="13.188233887776732">
        <ele>405</ele>
        <time>2026-08-29T11:40:28Z</time>
      </trkpt>
      <trkpt lat="50.759978899732232" lon="13.188236821442842">
        <ele>405</ele>
        <time>2026-08-29T11:40:29Z</time>
      </trkpt>
      <trkpt lat="50.759978229179978" lon="13.188232211396098">
        <ele>404</ele>
        <time>2026-08-29T11:40:30Z</time>
      </trkpt>
      <trkpt lat="50.759978480637074" lon="13.188231540843844">
        <ele>404</ele>
        <time>2026-08-29T11:40:31Z</time>
      </trkpt>
      <trkpt lat="50.75997831299901" lon="13.188231540843844">
        <ele>404</ele>
        <time>2026-08-29T11:40:32Z</time>
      </trkpt>
      <trkpt lat="50.759978480637074" lon="13.188231373205781">
        <ele>404</ele>
        <time>2026-08-29T11:40:33Z</time>
      </trkpt>
      <trkpt lat="50.759978480637074" lon="13.188231121748686">
        <ele>404</ele>
        <time>2026-08-29T11:40:34Z</time>
      </trkpt>
      <trkpt lat="50.759978899732232" lon="13.188230954110622">
        <ele>404</ele>
        <time>2026-08-29T11:40:35Z</time>
      </trkpt>
      <trkpt lat="50.75998124666512" lon="13.188222488388419">
        <ele>404</ele>
        <time>2026-08-29T11:40:36Z</time>
      </trkpt>
      <trkpt lat="50.759981581941247" lon="13.188222404569387">
        <ele>404</ele>
        <time>2026-08-29T11:40:37Z</time>
      </trkpt>
      <trkpt lat="50.759982084855437" lon="13.188222069293261">
        <ele>404</ele>
        <time>2026-08-29T11:40:38Z</time>
      </trkpt>
      <trkpt lat="50.759982168674469" lon="13.188221817836165">
        <ele>404</ele>
        <time>2026-08-29T11:40:39Z</time>
      </trkpt>
      <trkpt lat="50.759982252493501" lon="13.188221398741007">
        <ele>404</ele>
        <time>2026-08-29T11:40:40Z</time>
      </trkpt>
      <trkpt lat="50.759982168674469" lon="13.18822156637907">
        <ele>404</ele>
        <time>2026-08-29T11:40:41Z</time>
      </trkpt>
      <trkpt lat="50.759982084855437" lon="13.188221398741007">
        <ele>404</ele>
        <time>2026-08-29T11:40:42Z</time>
      </trkpt>
      <trkpt lat="50.759982336312532" lon="13.188221734017134">
        <ele>404</ele>
        <time>2026-08-29T11:40:43Z</time>
      </trkpt>
      <trkpt lat="50.759989712387323" lon="13.188238497823477">
        <ele>405</ele>
        <time>2026-08-29T11:40:44Z</time>
      </trkpt>
      <trkpt lat="50.759990215301514" lon="13.188239084556699">
        <ele>405</ele>
        <time>2026-08-29T11:40:45Z</time>
      </trkpt>
      <trkpt lat="50.759990550577641" lon="13.188239503651857">
        <ele>405</ele>
        <time>2026-08-29T11:40:46Z</time>
      </trkpt>
      <trkpt lat="50.759990885853767" lon="13.188239922747016">
        <ele>405</ele>
        <time>2026-08-29T11:40:47Z</time>
      </trkpt>
      <trkpt lat="50.759991472586989" lon="13.188240425661206">
        <ele>405</ele>
        <time>2026-08-29T11:40:48Z</time>
      </trkpt>
      <trkpt lat="50.759992059320211" lon="13.188240928575397">
        <ele>405</ele>
        <time>2026-08-29T11:40:49Z</time>
      </trkpt>
      <trkpt lat="50.75999247841537" lon="13.188241682946682">
        <ele>405</ele>
        <time>2026-08-29T11:40:50Z</time>
      </trkpt>
      <trkpt lat="50.759997339919209" lon="13.18824989721179">
        <ele>404</ele>
        <time>2026-08-29T11:40:51Z</time>
      </trkpt>
      <trkpt lat="50.759998010471463" lon="13.18825040012598">
        <ele>404</ele>
        <time>2026-08-29T11:40:52Z</time>
      </trkpt>
      <trkpt lat="50.759998010471463" lon="13.188250483945012">
        <ele>404</ele>
        <time>2026-08-29T11:40:53Z</time>
      </trkpt>
      <trkpt lat="50.759997759014368" lon="13.188250986859202">
        <ele>404</ele>
        <time>2026-08-29T11:40:54Z</time>
      </trkpt>
      <trkpt lat="50.759998178109527" lon="13.188251238316298">
        <ele>404</ele>
        <time>2026-08-29T11:40:55Z</time>
      </trkpt>
      <trkpt lat="50.759998513385653" lon="13.188252076506615">
        <ele>404</ele>
        <time>2026-08-29T11:40:56Z</time>
      </trkpt>
      <trkpt lat="50.759998681023717" lon="13.1882528308779">
        <ele>404</ele>
        <time>2026-08-29T11:40:57Z</time>
      </trkpt>
      <trkpt lat="50.75999884866178" lon="13.18825333379209">
        <ele>404</ele>
        <time>2026-08-29T11:40:58Z</time>
      </trkpt>
      <trkpt lat="50.75999884866178" lon="13.188253166154027">
        <ele>404</ele>
        <time>2026-08-29T11:40:59Z</time>
      </trkpt>
      <trkpt lat="50.760001698508859" lon="13.188257357105613">
        <ele>404</ele>
        <time>2026-08-29T11:41:00Z</time>
      </trkpt>
      <trkpt lat="50.760001698508859" lon="13.188259033486247">
        <ele>405</ele>
        <time>2026-08-29T11:41:01Z</time>
      </trkpt>
      <trkpt lat="50.759998178109527" lon="13.188252411782742">
        <ele>405</ele>
        <time>2026-08-29T11:41:02Z</time>
      </trkpt>
      <trkpt lat="50.759998178109527" lon="13.188254171982408">
        <ele>405</ele>
        <time>2026-08-29T11:41:03Z</time>
      </trkpt>
      <trkpt lat="50.75999541208148" lon="13.188246544450521">
        <ele>405</ele>
        <time>2026-08-29T11:41:04Z</time>
      </trkpt>
      <trkpt lat="50.759987030178308" lon="13.188241766765714">
        <ele>405</ele>
        <time>2026-08-29T11:41:05Z</time>
      </trkpt>
      <trkpt lat="50.759979151189327" lon="13.188217040151358">
        <ele>405</ele>
        <time>2026-08-29T11:41:06Z</time>
      </trkpt>
      <trkpt lat="50.759978229179978" lon="13.188172867521644">
        <ele>404</ele>
        <time>2026-08-29T11:41:07Z</time>
      </trkpt>
      <trkpt lat="50.759982001036406" lon="13.188102962449193">
        <ele>405</ele>
        <time>2026-08-29T11:41:08Z</time>
      </trkpt>
      <trkpt lat="50.760013181716204" lon="13.187976563349366">
        <ele>403</ele>
        <time>2026-08-29T11:41:09Z</time>
      </trkpt>
      <trkpt lat="50.760041512548923" lon="13.187865670770407">
        <ele>402</ele>
        <time>2026-08-29T11:41:10Z</time>
      </trkpt>
      <trkpt lat="50.760070094838738" lon="13.18775880150497">
        <ele>400</ele>
        <time>2026-08-29T11:41:11Z</time>
      </trkpt>
      <trkpt lat="50.760099682956934" lon="13.187638018280268">
        <ele>401</ele>
        <time>2026-08-29T11:41:12Z</time>
      </trkpt>
      <trkpt lat="50.76013321056962" lon="13.187498711049557">
        <ele>400</ele>
        <time>2026-08-29T11:41:13Z</time>
      </trkpt>
      <trkpt lat="50.760163133963943" lon="13.18734691478312">
        <ele>400</ele>
        <time>2026-08-29T11:41:14Z</time>
      </trkpt>
      <trkpt lat="50.760193224996328" lon="13.187186401337385">
        <ele>400</ele>
        <time>2026-08-29T11:41:15Z</time>
      </trkpt>
      <trkpt lat="50.760205211117864" lon="13.187034521251917">
        <ele>400</ele>
        <time>2026-08-29T11:41:16Z</time>
      </trkpt>
      <trkpt lat="50.760240666568279" lon="13.186884485185146">
        <ele>399</ele>
        <time>2026-08-29T11:41:17Z</time>
      </trkpt>
      <trkpt lat="50.760290957987309" lon="13.186787087470293">
        <ele>400</ele>
        <time>2026-08-29T11:41:18Z</time>
      </trkpt>
      <trkpt lat="50.760355247184634" lon="13.186704441905022">
        <ele>400</ele>
        <time>2026-08-29T11:41:19Z</time>
      </trkpt>
      <trkpt lat="50.760417692363262" lon="13.1866295915097">
        <ele>400</ele>
        <time>2026-08-29T11:41:20Z</time>
      </trkpt>
      <trkpt lat="50.760481478646398" lon="13.186562871560454">
        <ele>400</ele>
        <time>2026-08-29T11:41:21Z</time>
      </trkpt>
      <trkpt lat="50.760538810864091" lon="13.186484416946769">
        <ele>399</ele>
        <time>2026-08-29T11:41:22Z</time>
      </trkpt>
      <trkpt lat="50.760597819462419" lon="13.18640043027699">
        <ele>400</ele>
        <time>2026-08-29T11:41:23Z</time>
      </trkpt>
      <trkpt lat="50.760647188872099" lon="13.186323316767812">
        <ele>399</ele>
        <time>2026-08-29T11:41:24Z</time>
      </trkpt>
      <trkpt lat="50.760693708434701" lon="13.186232121661305">
        <ele>399</ele>
        <time>2026-08-29T11:41:25Z</time>
      </trkpt>
      <trkpt lat="50.760738886892796" lon="13.186153080314398">
        <ele>399</ele>
        <time>2026-08-29T11:41:26Z</time>
      </trkpt>
      <trkpt lat="50.76078599318862" lon="13.186069848015904">
        <ele>399</ele>
        <time>2026-08-29T11:41:27Z</time>
      </trkpt>
      <trkpt lat="50.76083485968411" lon="13.185991896316409">
        <ele>399</ele>
        <time>2026-08-29T11:41:28Z</time>
      </trkpt>
      <trkpt lat="50.76087542809546" lon="13.185913022607565">
        <ele>399</ele>
        <time>2026-08-29T11:41:29Z</time>
      </trkpt>
      <trkpt lat="50.760912979021668" lon="13.18584437482059">
        <ele>399</ele>
        <time>2026-08-29T11:41:30Z</time>
      </trkpt>
      <trkpt lat="50.760950949043036" lon="13.185782181099057">
        <ele>399</ele>
        <time>2026-08-29T11:41:31Z</time>
      </trkpt>
      <trkpt lat="50.760987745597959" lon="13.1857178080827">
        <ele>399</ele>
        <time>2026-08-29T11:41:32Z</time>
      </trkpt>
      <trkpt lat="50.761023536324501" lon="13.18565720692277">
        <ele>398</ele>
        <time>2026-08-29T11:41:33Z</time>
      </trkpt>
      <trkpt lat="50.761049604043365" lon="13.185585206374526">
        <ele>398</ele>
        <time>2026-08-29T11:41:34Z</time>
      </trkpt>
      <trkpt lat="50.761066786944866" lon="13.185518234968185">
        <ele>398</ele>
        <time>2026-08-29T11:41:35Z</time>
      </trkpt>
      <trkpt lat="50.761079946532845" lon="13.185433242470026">
        <ele>398</ele>
        <time>2026-08-29T11:41:36Z</time>
      </trkpt>
      <trkpt lat="50.761087657883763" lon="13.185351602733135">
        <ele>398</ele>
        <time>2026-08-29T11:41:37Z</time>
      </trkpt>
      <trkpt lat="50.761081958189607" lon="13.18526778370142">
        <ele>397</ele>
        <time>2026-08-29T11:41:38Z</time>
      </trkpt>
      <trkpt lat="50.761076090857387" lon="13.185182875022292">
        <ele>397</ele>
        <time>2026-08-29T11:41:39Z</time>
      </trkpt>
      <trkpt lat="50.76106452383101" lon="13.185114394873381">
        <ele>397</ele>
        <time>2026-08-29T11:41:40Z</time>
      </trkpt>
      <trkpt lat="50.761042227968574" lon="13.185045579448342">
        <ele>397</ele>
        <time>2026-08-29T11:41:41Z</time>
      </trkpt>
      <trkpt lat="50.761003000661731" lon="13.184980284422636">
        <ele>396</ele>
        <time>2026-08-29T11:41:42Z</time>
      </trkpt>
      <trkpt lat="50.760977352038026" lon="13.184910966083407">
        <ele>396</ele>
        <time>2026-08-29T11:41:43Z</time>
      </trkpt>
      <trkpt lat="50.760954217985272" lon="13.184826476499438">
        <ele>396</ele>
        <time>2026-08-29T11:41:44Z</time>
      </trkpt>
      <trkpt lat="50.760925216600299" lon="13.184735449030995">
        <ele>395</ele>
        <time>2026-08-29T11:41:45Z</time>
      </trkpt>
      <trkpt lat="50.76089789159596" lon="13.184677362442017">
        <ele>395</ele>
        <time>2026-08-29T11:41:46Z</time>
      </trkpt>
      <trkpt lat="50.760864028707147" lon="13.184622377157211">
        <ele>396</ele>
        <time>2026-08-29T11:41:47Z</time>
      </trkpt>
      <trkpt lat="50.76082605868578" lon="13.184565464034677">
        <ele>395</ele>
        <time>2026-08-29T11:41:48Z</time>
      </trkpt>
      <trkpt lat="50.760793117806315" lon="13.184511233121157">
        <ele>395</ele>
        <time>2026-08-29T11:41:49Z</time>
      </trkpt>
      <trkpt lat="50.760754141956568" lon="13.184437891468406">
        <ele>395</ele>
        <time>2026-08-29T11:41:50Z</time>
      </trkpt>
      <trkpt lat="50.760703347623348" lon="13.184364465996623">
        <ele>396</ele>
        <time>2026-08-29T11:41:51Z</time>
      </trkpt>
      <trkpt lat="50.760664120316505" lon="13.184299506247044">
        <ele>396</ele>
        <time>2026-08-29T11:41:52Z</time>
      </trkpt>
      <trkpt lat="50.760622378438711" lon="13.184240832924843">
        <ele>396</ele>
        <time>2026-08-29T11:41:53Z</time>
      </trkpt>
      <trkpt lat="50.760577199980617" lon="13.184183668345213">
        <ele>396</ele>
        <time>2026-08-29T11:41:54Z</time>
      </trkpt>
      <trkpt lat="50.76052850112319" lon="13.184137986972928">
        <ele>396</ele>
        <time>2026-08-29T11:41:55Z</time>
      </trkpt>
      <trkpt lat="50.760470749810338" lon="13.184099178761244">
        <ele>395</ele>
        <time>2026-08-29T11:41:56Z</time>
      </trkpt>
      <trkpt lat="50.760415261611342" lon="13.184076715260744">
        <ele>396</ele>
        <time>2026-08-29T11:41:57Z</time>
      </trkpt>
      <trkpt lat="50.760362120345235" lon="13.184025585651398">
        <ele>396</ele>
        <time>2026-08-29T11:41:58Z</time>
      </trkpt>
      <trkpt lat="50.760311158373952" lon="13.18397487513721">
        <ele>396</ele>
        <time>2026-08-29T11:41:59Z</time>
      </trkpt>
      <trkpt lat="50.760245276615024" lon="13.183945873752236">
        <ele>396</ele>
        <time>2026-08-29T11:42:00Z</time>
      </trkpt>
      <trkpt lat="50.760198421776295" lon="13.18391527980566">
        <ele>396</ele>
        <time>2026-08-29T11:42:01Z</time>
      </trkpt>
      <trkpt lat="50.760154249146581" lon="13.183879908174276">
        <ele>396</ele>
        <time>2026-08-29T11:42:02Z</time>
      </trkpt>
      <trkpt lat="50.760106388479471" lon="13.183843614533544">
        <ele>396</ele>
        <time>2026-08-29T11:42:03Z</time>
      </trkpt>
      <trkpt lat="50.760053750127554" lon="13.183810841292143">
        <ele>396</ele>
        <time>2026-08-29T11:42:04Z</time>
      </trkpt>
      <trkpt lat="50.760009828954935" lon="13.183765662834048">
        <ele>396</ele>
        <time>2026-08-29T11:42:05Z</time>
      </trkpt>
      <trkpt lat="50.759967248886824" lon="13.18371738307178">
        <ele>395</ele>
        <time>2026-08-29T11:42:06Z</time>
      </trkpt>
      <trkpt lat="50.759924668818712" lon="13.183686872944236">
        <ele>395</ele>
        <time>2026-08-29T11:42:07Z</time>
      </trkpt>
      <trkpt lat="50.759889045730233" lon="13.1836455501616">
        <ele>395</ele>
        <time>2026-08-29T11:42:08Z</time>
      </trkpt>
      <trkpt lat="50.759855518117547" lon="13.183589894324541">
        <ele>395</ele>
        <time>2026-08-29T11:42:09Z</time>
      </trkpt>
      <trkpt lat="50.759817129001021" lon="13.183518648147583">
        <ele>395</ele>
        <time>2026-08-29T11:42:10Z</time>
      </trkpt>
      <trkpt lat="50.75977454893291" lon="13.183459136635065">
        <ele>395</ele>
        <time>2026-08-29T11:42:11Z</time>
      </trkpt>
      <trkpt lat="50.759726520627737" lon="13.183381268754601">
        <ele>395</ele>
        <time>2026-08-29T11:42:12Z</time>
      </trkpt>
      <trkpt lat="50.759682850912213" lon="13.183335168287158">
        <ele>396</ele>
        <time>2026-08-29T11:42:13Z</time>
      </trkpt>
      <trkpt lat="50.759641695767641" lon="13.18328931927681">
        <ele>396</ele>
        <time>2026-08-29T11:42:14Z</time>
      </trkpt>
      <trkpt lat="50.759592829272151" lon="13.183257384225726">
        <ele>396</ele>
        <time>2026-08-29T11:42:15Z</time>
      </trkpt>
      <trkpt lat="50.759543795138597" lon="13.183225449174643">
        <ele>396</ele>
        <time>2026-08-29T11:42:16Z</time>
      </trkpt>
      <trkpt lat="50.759492246434093" lon="13.183182198554277">
        <ele>396</ele>
        <time>2026-08-29T11:42:17Z</time>
      </trkpt>
      <trkpt lat="50.759447822347283" lon="13.183128470554948">
        <ele>395</ele>
        <time>2026-08-29T11:42:18Z</time>
      </trkpt>
      <trkpt lat="50.759394010528922" lon="13.183097206056118">
        <ele>395</ele>
        <time>2026-08-29T11:42:19Z</time>
      </trkpt>
      <trkpt lat="50.759343216195703" lon="13.183105839416385">
        <ele>395</ele>
        <time>2026-08-29T11:42:20Z</time>
      </trkpt>
      <trkpt lat="50.759294265881181" lon="13.183119250461459">
        <ele>395</ele>
        <time>2026-08-29T11:42:21Z</time>
      </trkpt>
      <trkpt lat="50.759251099079847" lon="13.183151269331574">
        <ele>395</ele>
        <time>2026-08-29T11:42:22Z</time>
      </trkpt>
      <trkpt lat="50.759221091866493" lon="13.183194017037749">
        <ele>395</ele>
        <time>2026-08-29T11:42:23Z</time>
      </trkpt>
      <trkpt lat="50.759187564253807" lon="13.183212876319885">
        <ele>395</ele>
        <time>2026-08-29T11:42:24Z</time>
      </trkpt>
      <trkpt lat="50.759148588404059" lon="13.183207595720887">
        <ele>395</ele>
        <time>2026-08-29T11:42:25Z</time>
      </trkpt>
      <trkpt lat="50.759109444916248" lon="13.183190580457449">
        <ele>395</ele>
        <time>2026-08-29T11:42:26Z</time>
      </trkpt>
      <trkpt lat="50.759065859019756" lon="13.183161411434412">
        <ele>394</ele>
        <time>2026-08-29T11:42:27Z</time>
      </trkpt>
      <trkpt lat="50.759025122970343" lon="13.18312956020236">
        <ele>394</ele>
        <time>2026-08-29T11:42:28Z</time>
      </trkpt>
      <trkpt lat="50.758991008624434" lon="13.183087566867471">
        <ele>393</ele>
        <time>2026-08-29T11:42:29Z</time>
      </trkpt>
      <trkpt lat="50.758953541517258" lon="13.183022188022733">
        <ele>394</ele>
        <time>2026-08-29T11:42:30Z</time>
      </trkpt>
      <trkpt lat="50.758919175714254" lon="13.182972064241767">
        <ele>393</ele>
        <time>2026-08-29T11:42:31Z</time>
      </trkpt>
      <trkpt lat="50.7588857319206" lon="13.182929065078497">
        <ele>393</ele>
        <time>2026-08-29T11:42:32Z</time>
      </trkpt>
      <trkpt lat="50.758854551240802" lon="13.182886568829417">
        <ele>393</ele>
        <time>2026-08-29T11:42:33Z</time>
      </trkpt>
      <trkpt lat="50.758838374167681" lon="13.182841893285513">
        <ele>393</ele>
        <time>2026-08-29T11:42:34Z</time>
      </trkpt>
      <trkpt lat="50.75882219709456" lon="13.182791266590357">
        <ele>393</ele>
        <time>2026-08-29T11:42:35Z</time>
      </trkpt>
      <trkpt lat="50.758817670866847" lon="13.182736029848456">
        <ele>392</ele>
        <time>2026-08-29T11:42:36Z</time>
      </trkpt>
      <trkpt lat="50.758817419409752" lon="13.182681966573">
        <ele>392</ele>
        <time>2026-08-29T11:42:37Z</time>
      </trkpt>
      <trkpt lat="50.758812809363008" lon="13.182631507515907">
        <ele>392</ele>
        <time>2026-08-29T11:42:38Z</time>
      </trkpt>
      <trkpt lat="50.758812138810754" lon="13.182589681819081">
        <ele>392</ele>
        <time>2026-08-29T11:42:39Z</time>
      </trkpt>
      <trkpt lat="50.758817754685879" lon="13.182541653513908">
        <ele>392</ele>
        <time>2026-08-29T11:42:40Z</time>
      </trkpt>
      <trkpt lat="50.758820520713925" lon="13.182492032647133">
        <ele>391</ele>
        <time>2026-08-29T11:42:41Z</time>
      </trkpt>
      <trkpt lat="50.758818928152323" lon="13.182431180030107">
        <ele>391</ele>
        <time>2026-08-29T11:42:42Z</time>
      </trkpt>
      <trkpt lat="50.758814318105578" lon="13.182384241372347">
        <ele>391</ele>
        <time>2026-08-29T11:42:43Z</time>
      </trkpt>
      <trkpt lat="50.75880903750658" lon="13.182337889447808">
        <ele>391</ele>
        <time>2026-08-29T11:42:44Z</time>
      </trkpt>
      <trkpt lat="50.758799985051155" lon="13.18228717893362">
        <ele>391</ele>
        <time>2026-08-29T11:42:45Z</time>
      </trkpt>
      <trkpt lat="50.7587855681777" lon="13.182236971333623">
        <ele>391</ele>
        <time>2026-08-29T11:42:46Z</time>
      </trkpt>
      <trkpt lat="50.758769558742642" lon="13.182192966341972">
        <ele>390</ele>
        <time>2026-08-29T11:42:47Z</time>
      </trkpt>
      <trkpt lat="50.758745670318604" lon="13.182144602760673">
        <ele>390</ele>
        <time>2026-08-29T11:42:48Z</time>
      </trkpt>
      <trkpt lat="50.758722620084882" lon="13.182092970237136">
        <ele>390</ele>
        <time>2026-08-29T11:42:49Z</time>
      </trkpt>
      <trkpt lat="50.758699234575033" lon="13.182046618312597">
        <ele>390</ele>
        <time>2026-08-29T11:42:50Z</time>
      </trkpt>
      <trkpt lat="50.758680878207088" lon="13.181989621371031">
        <ele>391</ele>
        <time>2026-08-29T11:42:51Z</time>
      </trkpt>
      <trkpt lat="50.758662521839142" lon="13.181943437084556">
        <ele>391</ele>
        <time>2026-08-29T11:42:52Z</time>
      </trkpt>
      <trkpt lat="50.75865363702178" lon="13.181901359930634">
        <ele>391</ele>
        <time>2026-08-29T11:42:53Z</time>
      </trkpt>
      <trkpt lat="50.75863997451961" lon="13.181851152330637">
        <ele>391</ele>
        <time>2026-08-29T11:42:54Z</time>
      </trkpt>
      <trkpt lat="50.758632849901915" lon="13.181800944730639">
        <ele>391</ele>
        <time>2026-08-29T11:42:55Z</time>
      </trkpt>
      <trkpt lat="50.758621618151665" lon="13.181753503158689">
        <ele>392</ele>
        <time>2026-08-29T11:42:56Z</time>
      </trkpt>
      <trkpt lat="50.758610302582383" lon="13.181705810129642">
        <ele>391</ele>
        <time>2026-08-29T11:42:57Z</time>
      </trkpt>
      <trkpt lat="50.758594460785389" lon="13.181648226454854">
        <ele>392</ele>
        <time>2026-08-29T11:42:58Z</time>
      </trkpt>
      <trkpt lat="50.758583061397076" lon="13.181595588102937">
        <ele>392</ele>
        <time>2026-08-29T11:42:59Z</time>
      </trkpt>
      <trkpt lat="50.758572248741984" lon="13.181534735485911">
        <ele>392</ele>
        <time>2026-08-29T11:43:00Z</time>
      </trkpt>
      <trkpt lat="50.758568895980716" lon="13.181457119062543">
        <ele>392</ele>
        <time>2026-08-29T11:43:01Z</time>
      </trkpt>
      <trkpt lat="50.758550288155675" lon="13.181395260617137">
        <ele>391</ele>
        <time>2026-08-29T11:43:02Z</time>
      </trkpt>
      <trkpt lat="50.758537380024791" lon="13.181330049410462">
        <ele>391</ele>
        <time>2026-08-29T11:43:03Z</time>
      </trkpt>
      <trkpt lat="50.758523382246494" lon="13.18126835860312">
        <ele>391</ele>
        <time>2026-08-29T11:43:04Z</time>
      </trkpt>
      <trkpt lat="50.758514245972037" lon="13.181220246478915">
        <ele>390</ele>
        <time>2026-08-29T11:43:05Z</time>
      </trkpt>
      <trkpt lat="50.758500834926963" lon="13.181148916482925">
        <ele>391</ele>
        <time>2026-08-29T11:43:06Z</time>
      </trkpt>
      <trkpt lat="50.758494799956679" lon="13.18108563311398">
        <ele>392</ele>
        <time>2026-08-29T11:43:07Z</time>
      </trkpt>
      <trkpt lat="50.758488681167364" lon="13.181022768840194">
        <ele>391</ele>
        <time>2026-08-29T11:43:08Z</time>
      </trkpt>
      <trkpt lat="50.758471749722958" lon="13.180960491299629">
        <ele>391</ele>
        <time>2026-08-29T11:43:09Z</time>
      </trkpt>
      <trkpt lat="50.758468648418784" lon="13.18090139888227">
        <ele>392</ele>
        <time>2026-08-29T11:43:10Z</time>
      </trkpt>
      <trkpt lat="50.758473426103592" lon="13.180842725560069">
        <ele>392</ele>
        <time>2026-08-29T11:43:11Z</time>
      </trkpt>
      <trkpt lat="50.758474180474877" lon="13.180789165198803">
        <ele>392</ele>
        <time>2026-08-29T11:43:12Z</time>
      </trkpt>
      <trkpt lat="50.758476778864861" lon="13.18074163980782">
        <ele>392</ele>
        <time>2026-08-29T11:43:13Z</time>
      </trkpt>
      <trkpt lat="50.758485998958349" lon="13.180687744170427">
        <ele>392</ele>
        <time>2026-08-29T11:43:14Z</time>
      </trkpt>
      <trkpt lat="50.758495470508933" lon="13.180630747228861">
        <ele>392</ele>
        <time>2026-08-29T11:43:15Z</time>
      </trkpt>
      <trkpt lat="50.758504439145327" lon="13.180571487173438">
        <ele>391</ele>
        <time>2026-08-29T11:43:16Z</time>
      </trkpt>
      <trkpt lat="50.758514581248164" lon="13.180518765002489">
        <ele>392</ele>
        <time>2026-08-29T11:43:17Z</time>
      </trkpt>
      <trkpt lat="50.758522460237145" lon="13.180467383936048">
        <ele>392</ele>
        <time>2026-08-29T11:43:18Z</time>
      </trkpt>
      <trkpt lat="50.758526735007763" lon="13.180426144972444">
        <ele>392</ele>
        <time>2026-08-29T11:43:19Z</time>
      </trkpt>
      <trkpt lat="50.758533859625459" lon="13.180387169122696">
        <ele>392</ele>
        <time>2026-08-29T11:43:20Z</time>
      </trkpt>
      <trkpt lat="50.758541151881218" lon="13.180346516892314">
        <ele>392</ele>
        <time>2026-08-29T11:43:21Z</time>
      </trkpt>
      <trkpt lat="50.758554646745324" lon="13.180304439738393">
        <ele>391</ele>
        <time>2026-08-29T11:43:22Z</time>
      </trkpt>
      <trkpt lat="50.758557664230466" lon="13.180258171632886">
        <ele>391</ele>
        <time>2026-08-29T11:43:23Z</time>
      </trkpt>
      <trkpt lat="50.758557412773371" lon="13.180209891870618">
        <ele>391</ele>
        <time>2026-08-29T11:43:24Z</time>
      </trkpt>
      <trkpt lat="50.75855640694499" lon="13.18016555160284">
        <ele>391</ele>
        <time>2026-08-29T11:43:25Z</time>
      </trkpt>
      <trkpt lat="50.75855640694499" lon="13.18011911585927">
        <ele>391</ele>
        <time>2026-08-29T11:43:26Z</time>
      </trkpt>
      <trkpt lat="50.758554898202419" lon="13.180072931572795">
        <ele>391</ele>
        <time>2026-08-29T11:43:27Z</time>
      </trkpt>
      <trkpt lat="50.758551461622119" lon="13.180029178038239">
        <ele>391</ele>
        <time>2026-08-29T11:43:28Z</time>
      </trkpt>
      <trkpt lat="50.75855540111661" lon="13.179982155561447">
        <ele>392</ele>
        <time>2026-08-29T11:43:29Z</time>
      </trkpt>
      <trkpt lat="50.758556490764022" lon="13.179929181933403">
        <ele>391</ele>
        <time>2026-08-29T11:43:30Z</time>
      </trkpt>
      <trkpt lat="50.758553808555007" lon="13.179877465590835">
        <ele>392</ele>
        <time>2026-08-29T11:43:31Z</time>
      </trkpt>
      <trkpt lat="50.758550791069865" lon="13.179822396486998">
        <ele>392</ele>
        <time>2026-08-29T11:43:32Z</time>
      </trkpt>
      <trkpt lat="50.758548611775041" lon="13.179767495021224">
        <ele>392</ele>
        <time>2026-08-29T11:43:33Z</time>
      </trkpt>
      <trkpt lat="50.758548360317945" lon="13.179714940488338">
        <ele>392</ele>
        <time>2026-08-29T11:43:34Z</time>
      </trkpt>
      <trkpt lat="50.758544337004423" lon="13.179669426754117">
        <ele>392</ele>
        <time>2026-08-29T11:43:35Z</time>
      </trkpt>
      <trkpt lat="50.758543079718947" lon="13.179621901363134">
        <ele>392</ele>
        <time>2026-08-29T11:43:36Z</time>
      </trkpt>
      <trkpt lat="50.758537212386727" lon="13.179569346830249">
        <ele>392</ele>
        <time>2026-08-29T11:43:37Z</time>
      </trkpt>
      <trkpt lat="50.758535116910934" lon="13.179511679336429">
        <ele>391</ele>
        <time>2026-08-29T11:43:38Z</time>
      </trkpt>
      <trkpt lat="50.758545091375709" lon="13.179443450644612">
        <ele>392</ele>
        <time>2026-08-29T11:43:39Z</time>
      </trkpt>
      <trkpt lat="50.758546348661184" lon="13.179380083456635">
        <ele>393</ele>
        <time>2026-08-29T11:43:40Z</time>
      </trkpt>
      <trkpt lat="50.758549449965358" lon="13.179308502003551">
        <ele>392</ele>
        <time>2026-08-29T11:43:41Z</time>
      </trkpt>
      <trkpt lat="50.758551377803087" lon="13.179233651608229">
        <ele>392</ele>
        <time>2026-08-29T11:43:42Z</time>
      </trkpt>
      <trkpt lat="50.758558670058846" lon="13.179161148145795">
        <ele>392</ele>
        <time>2026-08-29T11:43:43Z</time>
      </trkpt>
      <trkpt lat="50.758566297590733" lon="13.179090907797217">
        <ele>392</ele>
        <time>2026-08-29T11:43:44Z</time>
      </trkpt>
      <trkpt lat="50.758575098589063" lon="13.179016895592213">
        <ele>391</ele>
        <time>2026-08-29T11:43:45Z</time>
      </trkpt>
      <trkpt lat="50.758579121902585" lon="13.178939530625939">
        <ele>391</ele>
        <time>2026-08-29T11:43:46Z</time>
      </trkpt>
      <trkpt lat="50.758581217378378" lon="13.178853280842304">
        <ele>391</ele>
        <time>2026-08-29T11:43:47Z</time>
      </trkpt>
      <trkpt lat="50.758583229035139" lon="13.178764097392559">
        <ele>391</ele>
        <time>2026-08-29T11:43:48Z</time>
      </trkpt>
      <trkpt lat="50.758586581796408" lon="13.17867323756218">
        <ele>391</ele>
        <time>2026-08-29T11:43:49Z</time>
      </trkpt>
      <trkpt lat="50.758594460785389" lon="13.178589250892401">
        <ele>390</ele>
        <time>2026-08-29T11:43:50Z</time>
      </trkpt>
      <trkpt lat="50.758596640080214" lon="13.178512053564191">
        <ele>390</ele>
        <time>2026-08-29T11:43:51Z</time>
      </trkpt>
      <trkpt lat="50.758607117459178" lon="13.178422199562192">
        <ele>391</ele>
        <time>2026-08-29T11:43:52Z</time>
      </trkpt>
      <trkpt lat="50.758616840466857" lon="13.178350618109107">
        <ele>390</ele>
        <time>2026-08-29T11:43:53Z</time>
      </trkpt>
      <trkpt lat="50.758626647293568" lon="13.17827601917088">
        <ele>390</ele>
        <time>2026-08-29T11:43:54Z</time>
      </trkpt>
      <trkpt lat="50.758631508797407" lon="13.17820368334651">
        <ele>390</ele>
        <time>2026-08-29T11:43:55Z</time>
      </trkpt>
      <trkpt lat="50.758641818538308" lon="13.178126318380237">
        <ele>390</ele>
        <time>2026-08-29T11:43:56Z</time>
      </trkpt>
      <trkpt lat="50.758652212098241" lon="13.178059849888086">
        <ele>390</ele>
        <time>2026-08-29T11:43:57Z</time>
      </trkpt>
      <trkpt lat="50.758670149371028" lon="13.177995728328824">
        <ele>390</ele>
        <time>2026-08-29T11:43:58Z</time>
      </trkpt>
      <trkpt lat="50.758686494082212" lon="13.177949627861381">
        <ele>390</ele>
        <time>2026-08-29T11:43:59Z</time>
      </trkpt>
      <trkpt lat="50.758700491860509" lon="13.177890619263053">
        <ele>390</ele>
        <time>2026-08-29T11:44:00Z</time>
      </trkpt>
      <trkpt lat="50.758718177676201" lon="13.177824737504125">
        <ele>391</ele>
        <time>2026-08-29T11:44:01Z</time>
      </trkpt>
      <trkpt lat="50.758730163797736" lon="13.177762124687433">
        <ele>390</ele>
        <time>2026-08-29T11:44:02Z</time>
      </trkpt>
      <trkpt lat="50.758736869320273" lon="13.177698254585266">
        <ele>391</ele>
        <time>2026-08-29T11:44:03Z</time>
      </trkpt>
      <trkpt lat="50.758745837956667" lon="13.177640335634351">
        <ele>391</ele>
        <time>2026-08-29T11:44:04Z</time>
      </trkpt>
      <trkpt lat="50.75874550268054" lon="13.177576884627342">
        <ele>391</ele>
        <time>2026-08-29T11:44:05Z</time>
      </trkpt>
      <trkpt lat="50.758742820471525" lon="13.177507566288114">
        <ele>390</ele>
        <time>2026-08-29T11:44:06Z</time>
      </trkpt>
      <trkpt lat="50.758731672540307" lon="13.177454844117165">
        <ele>391</ele>
        <time>2026-08-29T11:44:07Z</time>
      </trkpt>
      <trkpt lat="50.758708957582712" lon="13.1773891299963">
        <ele>392</ele>
        <time>2026-08-29T11:44:08Z</time>
      </trkpt>
      <trkpt lat="50.758695881813765" lon="13.177334982901812">
        <ele>392</ele>
        <time>2026-08-29T11:44:09Z</time>
      </trkpt>
      <trkpt lat="50.758676519617438" lon="13.177285110577941">
        <ele>392</ele>
        <time>2026-08-29T11:44:10Z</time>
      </trkpt>
      <trkpt lat="50.758662102743983" lon="13.177236914634705">
        <ele>392</ele>
        <time>2026-08-29T11:44:11Z</time>
      </trkpt>
      <trkpt lat="50.758653553202748" lon="13.177188634872437">
        <ele>392</ele>
        <time>2026-08-29T11:44:12Z</time>
      </trkpt>
      <trkpt lat="50.75864290818572" lon="13.177138175815344">
        <ele>392</ele>
        <time>2026-08-29T11:44:13Z</time>
      </trkpt>
      <trkpt lat="50.758637208491564" lon="13.177087800577283">
        <ele>392</ele>
        <time>2026-08-29T11:44:14Z</time>
      </trkpt>
      <trkpt lat="50.758641231805086" lon="13.177044298499823">
        <ele>392</ele>
        <time>2026-08-29T11:44:15Z</time>
      </trkpt>
      <trkpt lat="50.75866729952395" lon="13.176999790593982">
        <ele>392</ele>
        <time>2026-08-29T11:44:16Z</time>
      </trkpt>
      <trkpt lat="50.758694289252162" lon="13.176944553852081">
        <ele>391</ele>
        <time>2026-08-29T11:44:17Z</time>
      </trkpt>
      <trkpt lat="50.758718848228455" lon="13.176890909671783">
        <ele>391</ele>
        <time>2026-08-29T11:44:18Z</time>
      </trkpt>
      <trkpt lat="50.75874256901443" lon="13.176833661273122">
        <ele>390</ele>
        <time>2026-08-29T11:44:19Z</time>
      </trkpt>
      <trkpt lat="50.758766289800406" lon="13.176766103133559">
        <ele>391</ele>
        <time>2026-08-29T11:44:20Z</time>
      </trkpt>
      <trkpt lat="50.758791351690888" lon="13.176702735945582">
        <ele>390</ele>
        <time>2026-08-29T11:44:21Z</time>
      </trkpt>
      <trkpt lat="50.758819179609418" lon="13.176630986854434">
        <ele>390</ele>
        <time>2026-08-29T11:44:22Z</time>
      </trkpt>
      <trkpt lat="50.758839044719934" lon="13.17656334489584">
        <ele>390</ele>
        <time>2026-08-29T11:44:23Z</time>
      </trkpt>
      <trkpt lat="50.758863855153322" lon="13.176496708765626">
        <ele>390</ele>
        <time>2026-08-29T11:44:24Z</time>
      </trkpt>
      <trkpt lat="50.758886821568012" lon="13.176428647711873">
        <ele>390</ele>
        <time>2026-08-29T11:44:25Z</time>
      </trkpt>
      <trkpt lat="50.758911464363337" lon="13.176358742639422">
        <ele>390</ele>
        <time>2026-08-29T11:44:26Z</time>
      </trkpt>
      <trkpt lat="50.758944405242801" lon="13.176298728212714">
        <ele>390</ele>
        <time>2026-08-29T11:44:27Z</time>
      </trkpt>
      <trkpt lat="50.758982039988041" lon="13.176228068768978">
        <ele>389</ele>
        <time>2026-08-29T11:44:28Z</time>
      </trkpt>
      <trkpt lat="50.75900936499238" lon="13.176168892532587">
        <ele>389</ele>
        <time>2026-08-29T11:44:29Z</time>
      </trkpt>
      <trkpt lat="50.759041216224432" lon="13.176106447353959">
        <ele>389</ele>
        <time>2026-08-29T11:44:30Z</time>
      </trkpt>
      <trkpt lat="50.759066110476851" lon="13.176035033538938">
        <ele>389</ele>
        <time>2026-08-29T11:44:31Z</time>
      </trkpt>
      <trkpt lat="50.759088490158319" lon="13.175968900322914">
        <ele>390</ele>
        <time>2026-08-29T11:44:32Z</time>
      </trkpt>
      <trkpt lat="50.759107852354646" lon="13.175897151231766">
        <ele>390</ele>
        <time>2026-08-29T11:44:33Z</time>
      </trkpt>
      <trkpt lat="50.759126711636782" lon="13.175841495394707">
        <ele>390</ele>
        <time>2026-08-29T11:44:34Z</time>
      </trkpt>
      <trkpt lat="50.759153701364994" lon="13.175784666091204">
        <ele>390</ele>
        <time>2026-08-29T11:44:35Z</time>
      </trkpt>
      <trkpt lat="50.759173901751637" lon="13.175729513168335">
        <ele>390</ele>
        <time>2026-08-29T11:44:36Z</time>
      </trkpt>
      <trkpt lat="50.759197790175676" lon="13.175676371902227">
        <ele>390</ele>
        <time>2026-08-29T11:44:37Z</time>
      </trkpt>
      <trkpt lat="50.759215727448463" lon="13.175625074654818">
        <ele>389</ele>
        <time>2026-08-29T11:44:38Z</time>
      </trkpt>
      <trkpt lat="50.759235927835107" lon="13.175576208159328">
        <ele>389</ele>
        <time>2026-08-29T11:44:39Z</time>
      </trkpt>
      <trkpt lat="50.759254870936275" lon="13.175528347492218">
        <ele>389</ele>
        <time>2026-08-29T11:44:40Z</time>
      </trkpt>
      <trkpt lat="50.759273981675506" lon="13.175477720797062">
        <ele>389</ele>
        <time>2026-08-29T11:44:41Z</time>
      </trkpt>
      <trkpt lat="50.759294349700212" lon="13.175428519025445">
        <ele>389</ele>
        <time>2026-08-29T11:44:42Z</time>
      </trkpt>
      <trkpt lat="50.75931278988719" lon="13.17538283765316">
        <ele>389</ele>
        <time>2026-08-29T11:44:43Z</time>
      </trkpt>
      <trkpt lat="50.759329218417406" lon="13.175333132967353">
        <ele>389</ele>
        <time>2026-08-29T11:44:44Z</time>
      </trkpt>
      <trkpt lat="50.759349251165986" lon="13.175283931195736">
        <ele>389</ele>
        <time>2026-08-29T11:44:45Z</time>
      </trkpt>
      <trkpt lat="50.759363668039441" lon="13.175220899283886">
        <ele>389</ele>
        <time>2026-08-29T11:44:46Z</time>
      </trkpt>
      <trkpt lat="50.759380348026752" lon="13.175169182941318">
        <ele>389</ele>
        <time>2026-08-29T11:44:47Z</time>
      </trkpt>
      <trkpt lat="50.759403817355633" lon="13.175113527104259">
        <ele>389</ele>
        <time>2026-08-29T11:44:48Z</time>
      </trkpt>
      <trkpt lat="50.759426951408386" lon="13.175053177401423">
        <ele>390</ele>
        <time>2026-08-29T11:44:49Z</time>
      </trkpt>
      <trkpt lat="50.759448828175664" lon="13.174992576241493">
        <ele>389</ele>
        <time>2026-08-29T11:44:50Z</time>
      </trkpt>
      <trkpt lat="50.759470956400037" lon="13.174931555986404">
        <ele>389</ele>
        <time>2026-08-29T11:44:51Z</time>
      </trkpt>
      <trkpt lat="50.759489899501204" lon="13.174871625378728">
        <ele>389</ele>
        <time>2026-08-29T11:44:52Z</time>
      </trkpt>
      <trkpt lat="50.759507920593023" lon="13.174797194078565">
        <ele>389</ele>
        <time>2026-08-29T11:44:53Z</time>
      </trkpt>
      <trkpt lat="50.759526360780001" lon="13.174728965386748">
        <ele>388</ele>
        <time>2026-08-29T11:44:54Z</time>
      </trkpt>
      <trkpt lat="50.759545220062137" lon="13.174668531864882">
        <ele>389</ele>
        <time>2026-08-29T11:44:55Z</time>
      </trkpt>
      <trkpt lat="50.759562738239765" lon="13.174608685076237">
        <ele>389</ele>
        <time>2026-08-29T11:44:56Z</time>
      </trkpt>
      <trkpt lat="50.759581932798028" lon="13.174539702013135">
        <ele>388</ele>
        <time>2026-08-29T11:44:57Z</time>
      </trkpt>
      <trkpt lat="50.759599367156625" lon="13.174477592110634">
        <ele>388</ele>
        <time>2026-08-29T11:44:58Z</time>
      </trkpt>
      <trkpt lat="50.759620908647776" lon="13.174413470551372">
        <ele>388</ele>
        <time>2026-08-29T11:44:59Z</time>
      </trkpt>
      <trkpt lat="50.759639935567975" lon="13.174347588792443">
        <ele>388</ele>
        <time>2026-08-29T11:45:00Z</time>
      </trkpt>
      <trkpt lat="50.759655442088842" lon="13.17428489215672">
        <ele>388</ele>
        <time>2026-08-29T11:45:01Z</time>
      </trkpt>
      <trkpt lat="50.759668601676822" lon="13.174216328188777">
        <ele>388</ele>
        <time>2026-08-29T11:45:02Z</time>
      </trkpt>
      <trkpt lat="50.759687796235085" lon="13.174148686230183">
        <ele>388</ele>
        <time>2026-08-29T11:45:03Z</time>
      </trkpt>
      <trkpt lat="50.759705230593681" lon="13.174084480851889">
        <ele>388</ele>
        <time>2026-08-29T11:45:04Z</time>
      </trkpt>
      <trkpt lat="50.759724844247103" lon="13.174016419798136">
        <ele>387</ele>
        <time>2026-08-29T11:45:05Z</time>
      </trkpt>
      <trkpt lat="50.759739931672812" lon="13.173950035125017">
        <ele>388</ele>
        <time>2026-08-29T11:45:06Z</time>
      </trkpt>
      <trkpt lat="50.759755857288837" lon="13.173887254670262">
        <ele>388</ele>
        <time>2026-08-29T11:45:07Z</time>
      </trkpt>
      <trkpt lat="50.759769519791007" lon="13.173823468387127">
        <ele>388</ele>
        <time>2026-08-29T11:45:08Z</time>
      </trkpt>
      <trkpt lat="50.75978578068316" lon="13.173759011551738">
        <ele>387</ele>
        <time>2026-08-29T11:45:09Z</time>
      </trkpt>
      <trkpt lat="50.759811429306865" lon="13.173689693212509">
        <ele>387</ele>
        <time>2026-08-29T11:45:10Z</time>
      </trkpt>
      <trkpt lat="50.759828109294176" lon="13.173635462298989">
        <ele>387</ele>
        <time>2026-08-29T11:45:11Z</time>
      </trkpt>
      <trkpt lat="50.759847555309534" lon="13.173586847260594">
        <ele>387</ele>
        <time>2026-08-29T11:45:12Z</time>
      </trkpt>
      <trkpt lat="50.75986297801137" lon="13.173539908602834">
        <ele>387</ele>
        <time>2026-08-29T11:45:13Z</time>
      </trkpt>
      <trkpt lat="50.759882088750601" lon="13.173482241109014">
        <ele>387</ele>
        <time>2026-08-29T11:45:14Z</time>
      </trkpt>
      <trkpt lat="50.759900528937578" lon="13.173432452604175">
        <ele>387</ele>
        <time>2026-08-29T11:45:15Z</time>
      </trkpt>
      <trkpt lat="50.759925758466125" lon="13.173383669927716">
        <ele>387</ele>
        <time>2026-08-29T11:45:16Z</time>
      </trkpt>
      <trkpt lat="50.759946713224053" lon="13.173332456499338">
        <ele>387</ele>
        <time>2026-08-29T11:45:17Z</time>
      </trkpt>
      <trkpt lat="50.759971020743251" lon="13.17326171323657">
        <ele>387</ele>
        <time>2026-08-29T11:45:18Z</time>
      </trkpt>
      <trkpt lat="50.759985018521547" lon="13.173199184238911">
        <ele>387</ele>
        <time>2026-08-29T11:45:19Z</time>
      </trkpt>
      <trkpt lat="50.760002955794334" lon="13.173148892819881">
        <ele>388</ele>
        <time>2026-08-29T11:45:20Z</time>
      </trkpt>
      <trkpt lat="50.760026928037405" lon="13.173086447641253">
        <ele>388</ele>
        <time>2026-08-29T11:45:21Z</time>
      </trkpt>
      <trkpt lat="50.760045871138573" lon="13.173038838431239">
        <ele>388</ele>
        <time>2026-08-29T11:45:22Z</time>
      </trkpt>
      <trkpt lat="50.760066658258438" lon="13.172978824004531">
        <ele>388</ele>
        <time>2026-08-29T11:45:23Z</time>
      </trkpt>
      <trkpt lat="50.760084008798003" lon="13.172919061034918">
        <ele>388</ele>
        <time>2026-08-29T11:45:24Z</time>
      </trkpt>
      <trkpt lat="50.760100856423378" lon="13.172858795151114">
        <ele>388</ele>
        <time>2026-08-29T11:45:25Z</time>
      </trkpt>
      <trkpt lat="50.760108316317201" lon="13.17279601469636">
        <ele>388</ele>
        <time>2026-08-29T11:45:26Z</time>
      </trkpt>
      <trkpt lat="50.760112758725882" lon="13.172737257555127">
        <ele>388</ele>
        <time>2026-08-29T11:45:27Z</time>
      </trkpt>
      <trkpt lat="50.760117201134562" lon="13.172680763527751">
        <ele>388</ele>
        <time>2026-08-29T11:45:28Z</time>
      </trkpt>
      <trkpt lat="50.760127091780305" lon="13.172614965587854">
        <ele>388</ele>
        <time>2026-08-29T11:45:29Z</time>
      </trkpt>
      <trkpt lat="50.76013513840735" lon="13.172543635591865">
        <ele>388</ele>
        <time>2026-08-29T11:45:30Z</time>
      </trkpt>
      <trkpt lat="50.760144777595997" lon="13.172479933127761">
        <ele>388</ele>
        <time>2026-08-29T11:45:31Z</time>
      </trkpt>
      <trkpt lat="50.760154081508517" lon="13.172414805740118">
        <ele>387</ele>
        <time>2026-08-29T11:45:32Z</time>
      </trkpt>
      <trkpt lat="50.76015911065042" lon="13.172361580654979">
        <ele>387</ele>
        <time>2026-08-29T11:45:33Z</time>
      </trkpt>
      <trkpt lat="50.76017671264708" lon="13.172307098284364">
        <ele>387</ele>
        <time>2026-08-29T11:45:34Z</time>
      </trkpt>
      <trkpt lat="50.760197918862104" lon="13.172259740531445">
        <ele>388</ele>
        <time>2026-08-29T11:45:35Z</time>
      </trkpt>
      <trkpt lat="50.760216191411018" lon="13.172209616750479">
        <ele>388</ele>
        <time>2026-08-29T11:45:36Z</time>
      </trkpt>
      <trkpt lat="50.760227758437395" lon="13.17215932533145">
        <ele>388</ele>
        <time>2026-08-29T11:45:37Z</time>
      </trkpt>
      <trkpt lat="50.760240666568279" lon="13.172108614817262">
        <ele>388</ele>
        <time>2026-08-29T11:45:38Z</time>
      </trkpt>
      <trkpt lat="50.760257430374622" lon="13.172068046405911">
        <ele>388</ele>
        <time>2026-08-29T11:45:39Z</time>
      </trkpt>
      <trkpt lat="50.760276038199663" lon="13.172024795785546">
        <ele>388</ele>
        <time>2026-08-29T11:45:40Z</time>
      </trkpt>
      <trkpt lat="50.760289281606674" lon="13.171979198232293">
        <ele>389</ele>
        <time>2026-08-29T11:45:41Z</time>
      </trkpt>
      <trkpt lat="50.760304788127542" lon="13.171939803287387">
        <ele>389</ele>
        <time>2026-08-29T11:45:42Z</time>
      </trkpt>
      <trkpt lat="50.760319959372282" lon="13.171907952055335">
        <ele>389</ele>
        <time>2026-08-29T11:45:43Z</time>
      </trkpt>
      <trkpt lat="50.760332867503166" lon="13.1718769390136">
        <ele>390</ele>
        <time>2026-08-29T11:45:44Z</time>
      </trkpt>
      <trkpt lat="50.760343931615353" lon="13.171842908486724">
        <ele>390</ele>
        <time>2026-08-29T11:45:45Z</time>
      </trkpt>
      <trkpt lat="50.760353906080127" lon="13.171825474128127">
        <ele>390</ele>
        <time>2026-08-29T11:45:46Z</time>
      </trkpt>
      <trkpt lat="50.760358851402998" lon="13.171797813847661">
        <ele>390</ele>
        <time>2026-08-29T11:45:47Z</time>
      </trkpt>
      <trkpt lat="50.760364215821028" lon="13.171772668138146">
        <ele>390</ele>
        <time>2026-08-29T11:45:48Z</time>
      </trkpt>
      <trkpt lat="50.760379387065768" lon="13.17175573669374">
        <ele>391</ele>
        <time>2026-08-29T11:45:49Z</time>
      </trkpt>
      <trkpt lat="50.76038827188313" lon="13.171729501336813">
        <ele>391</ele>
        <time>2026-08-29T11:45:50Z</time>
      </trkpt>
      <trkpt lat="50.760398162528872" lon="13.171698655933142">
        <ele>391</ele>
        <time>2026-08-29T11:45:51Z</time>
      </trkpt>
      <trkpt lat="50.760413333773613" lon="13.171665798872709">
        <ele>392</ele>
        <time>2026-08-29T11:45:52Z</time>
      </trkpt>
      <trkpt lat="50.760423978790641" lon="13.171649789437652">
        <ele>393</ele>
        <time>2026-08-29T11:45:53Z</time>
      </trkpt>
      <trkpt lat="50.760432947427034" lon="13.171629086136818">
        <ele>393</ele>
        <time>2026-08-29T11:45:54Z</time>
      </trkpt>
      <trkpt lat="50.760445687919855" lon="13.171605952084064">
        <ele>394</ele>
        <time>2026-08-29T11:45:55Z</time>
      </trkpt>
      <trkpt lat="50.760461362078786" lon="13.171583488583565">
        <ele>394</ele>
        <time>2026-08-29T11:45:56Z</time>
      </trkpt>
      <trkpt lat="50.760474940761924" lon="13.171559348702431">
        <ele>394</ele>
        <time>2026-08-29T11:45:57Z</time>
      </trkpt>
      <trkpt lat="50.760492375120521" lon="13.171540070325136">
        <ele>394</ele>
        <time>2026-08-29T11:45:58Z</time>
      </trkpt>
      <trkpt lat="50.76050846837461" lon="13.17150997929275">
        <ele>395</ele>
        <time>2026-08-29T11:45:59Z</time>
      </trkpt>
      <trkpt lat="50.760523220524192" lon="13.171481983736157">
        <ele>395</ele>
        <time>2026-08-29T11:46:00Z</time>
      </trkpt>
      <trkpt lat="50.760536966845393" lon="13.171454491093755">
        <ele>394</ele>
        <time>2026-08-29T11:46:01Z</time>
      </trkpt>
      <trkpt lat="50.76054610311985" lon="13.171424902975559">
        <ele>394</ele>
        <time>2026-08-29T11:46:02Z</time>
      </trkpt>
      <trkpt lat="50.76055683195591" lon="13.171389866620302">
        <ele>394</ele>
        <time>2026-08-29T11:46:03Z</time>
      </trkpt>
      <trkpt lat="50.76056663878262" lon="13.171356925740838">
        <ele>394</ele>
        <time>2026-08-29T11:46:04Z</time>
      </trkpt>
      <trkpt lat="50.760573679581285" lon="13.171329936012626">
        <ele>393</ele>
        <time>2026-08-29T11:46:05Z</time>
      </trkpt>
      <trkpt lat="50.760575691238046" lon="13.171302862465382">
        <ele>394</ele>
        <time>2026-08-29T11:46:06Z</time>
      </trkpt>
      <trkpt lat="50.760579043999314" lon="13.171270843595266">
        <ele>394</ele>
        <time>2026-08-29T11:46:07Z</time>
      </trkpt>
      <trkpt lat="50.760577116161585" lon="13.171244859695435">
        <ele>394</ele>
        <time>2026-08-29T11:46:08Z</time>
      </trkpt>
      <trkpt lat="50.760573847219348" lon="13.171218121424317">
        <ele>394</ele>
        <time>2026-08-29T11:46:09Z</time>
      </trkpt>
      <trkpt lat="50.760573260486126" lon="13.1711913831532">
        <ele>394</ele>
        <time>2026-08-29T11:46:10Z</time>
      </trkpt>
      <trkpt lat="50.760577954351902" lon="13.171161040663719">
        <ele>394</ele>
        <time>2026-08-29T11:46:11Z</time>
      </trkpt>
      <trkpt lat="50.760582899674773" lon="13.171129859983921">
        <ele>394</ele>
        <time>2026-08-29T11:46:12Z</time>
      </trkpt>
      <trkpt lat="50.760589018464088" lon="13.17110882140696">
        <ele>394</ele>
        <time>2026-08-29T11:46:13Z</time>
      </trkpt>
      <trkpt lat="50.760591449216008" lon="13.171083256602287">
        <ele>395</ele>
        <time>2026-08-29T11:46:14Z</time>
      </trkpt>
      <trkpt lat="50.760591449216008" lon="13.171061463654041">
        <ele>395</ele>
        <time>2026-08-29T11:46:15Z</time>
      </trkpt>
      <trkpt lat="50.760591197758913" lon="13.171037239953876">
        <ele>395</ele>
        <time>2026-08-29T11:46:16Z</time>
      </trkpt>
      <trkpt lat="50.760586755350232" lon="13.17100765183568">
        <ele>395</ele>
        <time>2026-08-29T11:46:17Z</time>
      </trkpt>
      <trkpt lat="50.760590443387628" lon="13.170979740098119">
        <ele>395</ele>
        <time>2026-08-29T11:46:18Z</time>
      </trkpt>
      <trkpt lat="50.760585581883788" lon="13.170960210263729">
        <ele>395</ele>
        <time>2026-08-29T11:46:19Z</time>
      </trkpt>
      <trkpt lat="50.760577619075775" lon="13.170941015705466">
        <ele>395</ele>
        <time>2026-08-29T11:46:20Z</time>
      </trkpt>
      <trkpt lat="50.76056513004005" lon="13.170921318233013">
        <ele>395</ele>
        <time>2026-08-29T11:46:21Z</time>
      </trkpt>
      <trkpt lat="50.760550377890468" lon="13.170892987400293">
        <ele>395</ele>
        <time>2026-08-29T11:46:22Z</time>
      </trkpt>
      <trkpt lat="50.760539481416345" lon="13.170869182795286">
        <ele>395</ele>
        <time>2026-08-29T11:46:23Z</time>
      </trkpt>
      <trkpt lat="50.760528836399317" lon="13.170839846134186">
        <ele>395</ele>
        <time>2026-08-29T11:46:24Z</time>
      </trkpt>
      <trkpt lat="50.760514922440052" lon="13.170814029872417">
        <ele>395</ele>
        <time>2026-08-29T11:46:25Z</time>
      </trkpt>
      <trkpt lat="50.760501092299819" lon="13.170799110084772">
        <ele>394</ele>
        <time>2026-08-29T11:46:26Z</time>
      </trkpt>
      <trkpt lat="50.76048550195992" lon="13.170777233317494">
        <ele>394</ele>
        <time>2026-08-29T11:46:27Z</time>
      </trkpt>
      <trkpt lat="50.76046789996326" lon="13.170746555551887">
        <ele>394</ele>
        <time>2026-08-29T11:46:28Z</time>
      </trkpt>
      <trkpt lat="50.760454991832376" lon="13.170722667127848">
        <ele>394</ele>
        <time>2026-08-29T11:46:29Z</time>
      </trkpt>
      <trkpt lat="50.760432193055749" lon="13.170696934685111">
        <ele>394</ele>
        <time>2026-08-29T11:46:30Z</time>
      </trkpt>
      <trkpt lat="50.760400258004665" lon="13.170675057917833">
        <ele>393</ele>
        <time>2026-08-29T11:46:31Z</time>
      </trkpt>
      <trkpt lat="50.76036580838263" lon="13.170651253312826">
        <ele>393</ele>
        <time>2026-08-29T11:46:32Z</time>
      </trkpt>
      <trkpt lat="50.760319540277123" lon="13.170609846711159">
        <ele>393</ele>
        <time>2026-08-29T11:46:33Z</time>
      </trkpt>
      <trkpt lat="50.760269165039063" lon="13.17055712454021">
        <ele>392</ele>
        <time>2026-08-29T11:46:34Z</time>
      </trkpt>
      <trkpt lat="50.760229015722871" lon="13.170489566400647">
        <ele>392</ele>
        <time>2026-08-29T11:46:35Z</time>
      </trkpt>
      <trkpt lat="50.760187776759267" lon="13.170429300516844">
        <ele>392</ele>
        <time>2026-08-29T11:46:36Z</time>
      </trkpt>
      <trkpt lat="50.760151566937566" lon="13.170368280261755">
        <ele>392</ele>
        <time>2026-08-29T11:46:37Z</time>
      </trkpt>
      <trkpt lat="50.760122649371624" lon="13.17031966522336">
        <ele>392</ele>
        <time>2026-08-29T11:46:38Z</time>
      </trkpt>
      <trkpt lat="50.760092725977302" lon="13.17027079872787">
        <ele>392</ele>
        <time>2026-08-29T11:46:39Z</time>
      </trkpt>
      <trkpt lat="50.760060958564281" lon="13.170225284993649">
        <ele>392</ele>
        <time>2026-08-29T11:46:40Z</time>
      </trkpt>
      <trkpt lat="50.760032208636403" lon="13.17018236964941">
        <ele>391</ele>
        <time>2026-08-29T11:46:41Z</time>
      </trkpt>
      <trkpt lat="50.760006308555603" lon="13.170144483447075">
        <ele>392</ele>
        <time>2026-08-29T11:46:42Z</time>
      </trkpt>
      <trkpt lat="50.759983342140913" lon="13.170108189806342">
        <ele>392</ele>
        <time>2026-08-29T11:46:43Z</time>
      </trkpt>
      <trkpt lat="50.759961549192667" lon="13.170065358281136">
        <ele>392</ele>
        <time>2026-08-29T11:46:44Z</time>
      </trkpt>
      <trkpt lat="50.759941767901182" lon="13.170022862032056">
        <ele>391</ele>
        <time>2026-08-29T11:46:45Z</time>
      </trkpt>
      <trkpt lat="50.759923914447427" lon="13.169983802363276">
        <ele>391</ele>
        <time>2026-08-29T11:46:46Z</time>
      </trkpt>
      <trkpt lat="50.759913101792336" lon="13.169936528429389">
        <ele>391</ele>
        <time>2026-08-29T11:46:47Z</time>
      </trkpt>
      <trkpt lat="50.759908491745591" lon="13.169885231181979">
        <ele>391</ele>
        <time>2026-08-29T11:46:48Z</time>
      </trkpt>
      <trkpt lat="50.759908072650433" lon="13.169841477647424">
        <ele>391</ele>
        <time>2026-08-29T11:46:49Z</time>
      </trkpt>
      <trkpt lat="50.759905641898513" lon="13.16980023868382">
        <ele>390</ele>
        <time>2026-08-29T11:46:50Z</time>
      </trkpt>
      <trkpt lat="50.759912179782987" lon="13.16976260393858">
        <ele>390</ele>
        <time>2026-08-29T11:46:51Z</time>
      </trkpt>
      <trkpt lat="50.759922238066792" lon="13.169730082154274">
        <ele>390</ele>
        <time>2026-08-29T11:46:52Z</time>
      </trkpt>
      <trkpt lat="50.759941432625055" lon="13.169707283377647">
        <ele>390</ele>
        <time>2026-08-29T11:46:53Z</time>
      </trkpt>
      <trkpt lat="50.75996020808816" lon="13.169678868725896">
        <ele>390</ele>
        <time>2026-08-29T11:46:54Z</time>
      </trkpt>
      <trkpt lat="50.759978648275137" lon="13.169653220102191">
        <ele>389</ele>
        <time>2026-08-29T11:46:55Z</time>
      </trkpt>
      <trkpt lat="50.760000441223383" lon="13.169632516801357">
        <ele>389</ele>
        <time>2026-08-29T11:46:56Z</time>
      </trkpt>
      <trkpt lat="50.760025000199676" lon="13.169624386355281">
        <ele>389</ele>
        <time>2026-08-29T11:46:57Z</time>
      </trkpt>
      <trkpt lat="50.76004721224308" lon="13.169618938118219">
        <ele>389</ele>
        <time>2026-08-29T11:46:58Z</time>
      </trkpt>
      <trkpt lat="50.760071100667119" lon="13.169605527073145">
        <ele>389</ele>
        <time>2026-08-29T11:46:59Z</time>
      </trkpt>
      <trkpt lat="50.760096916928887" lon="13.169587841257453">
        <ele>389</ele>
        <time>2026-08-29T11:47:00Z</time>
      </trkpt>
      <trkpt lat="50.760116865858436" lon="13.169569736346602">
        <ele>390</ele>
        <time>2026-08-29T11:47:01Z</time>
      </trkpt>
      <trkpt lat="50.760124828666449" lon="13.169564036652446">
        <ele>390</ele>
        <time>2026-08-29T11:47:02Z</time>
      </trkpt>
      <trkpt lat="50.760129019618034" lon="13.169563701376319">
        <ele>390</ele>
        <time>2026-08-29T11:47:03Z</time>
      </trkpt>
      <trkpt lat="50.760129438713193" lon="13.169570993632078">
        <ele>390</ele>
        <time>2026-08-29T11:47:04Z</time>
      </trkpt>
      <trkpt lat="50.760128432884812" lon="13.169581806287169">
        <ele>390</ele>
        <time>2026-08-29T11:47:05Z</time>
      </trkpt>
      <trkpt lat="50.760128013789654" lon="13.169581303372979">
        <ele>390</ele>
        <time>2026-08-29T11:47:06Z</time>
      </trkpt>
      <trkpt lat="50.76012440957129" lon="13.169580968096852">
        <ele>390</ele>
        <time>2026-08-29T11:47:07Z</time>
      </trkpt>
      <trkpt lat="50.760124158114195" lon="13.169580884277821">
        <ele>390</ele>
        <time>2026-08-29T11:47:08Z</time>
      </trkpt>
      <trkpt lat="50.760119548067451" lon="13.16957744769752">
        <ele>389</ele>
        <time>2026-08-29T11:47:09Z</time>
      </trkpt>
      <trkpt lat="50.760119631886482" lon="13.169577531516552">
        <ele>389</ele>
        <time>2026-08-29T11:47:10Z</time>
      </trkpt>
      <trkpt lat="50.760119631886482" lon="13.169577615335584">
        <ele>389</ele>
        <time>2026-08-29T11:47:11Z</time>
      </trkpt>
      <trkpt lat="50.760119799524546" lon="13.169577615335584">
        <ele>389</ele>
        <time>2026-08-29T11:47:12Z</time>
      </trkpt>
      <trkpt lat="50.760119631886482" lon="13.169577363878489">
        <ele>389</ele>
        <time>2026-08-29T11:47:13Z</time>
      </trkpt>
      <trkpt lat="50.760115776211023" lon="13.16957401111722">
        <ele>389</ele>
        <time>2026-08-29T11:47:14Z</time>
      </trkpt>
      <trkpt lat="50.76011267490685" lon="13.169576358050108">
        <ele>388</ele>
        <time>2026-08-29T11:47:15Z</time>
      </trkpt>
      <trkpt lat="50.760110411792994" lon="13.169571748003364">
        <ele>388</ele>
        <time>2026-08-29T11:47:16Z</time>
      </trkpt>
      <trkpt lat="50.76011024415493" lon="13.169571161270142">
        <ele>388</ele>
        <time>2026-08-29T11:47:17Z</time>
      </trkpt>
      <trkpt lat="50.760110160335898" lon="13.169571161270142">
        <ele>388</ele>
        <time>2026-08-29T11:47:18Z</time>
      </trkpt>
      <trkpt lat="50.76011024415493" lon="13.169570909813046">
        <ele>388</ele>
        <time>2026-08-29T11:47:19Z</time>
      </trkpt>
      <trkpt lat="50.76011024415493" lon="13.169570993632078">
        <ele>388</ele>
        <time>2026-08-29T11:47:20Z</time>
      </trkpt>
      <trkpt lat="50.760109992697835" lon="13.169571412727237">
        <ele>388</ele>
        <time>2026-08-29T11:47:21Z</time>
      </trkpt>
      <trkpt lat="50.760110160335898" lon="13.169571664184332">
        <ele>388</ele>
        <time>2026-08-29T11:47:22Z</time>
      </trkpt>
      <trkpt lat="50.76011510565877" lon="13.169577531516552">
        <ele>388</ele>
        <time>2026-08-29T11:47:23Z</time>
      </trkpt>
      <trkpt lat="50.760115189477801" lon="13.169577615335584">
        <ele>388</ele>
        <time>2026-08-29T11:47:24Z</time>
      </trkpt>
      <trkpt lat="50.760113429278135" lon="13.169576777145267">
        <ele>388</ele>
        <time>2026-08-29T11:47:25Z</time>
      </trkpt>
      <trkpt lat="50.760113596916199" lon="13.16957644186914">
        <ele>388</ele>
        <time>2026-08-29T11:47:26Z</time>
      </trkpt>
      <trkpt lat="50.76011368073523" lon="13.169576358050108">
        <ele>388</ele>
        <time>2026-08-29T11:47:27Z</time>
      </trkpt>
      <trkpt lat="50.760113848373294" lon="13.169576274231076">
        <ele>388</ele>
        <time>2026-08-29T11:47:28Z</time>
      </trkpt>
      <trkpt lat="50.760114016011357" lon="13.169576358050108">
        <ele>388</ele>
        <time>2026-08-29T11:47:29Z</time>
      </trkpt>
      <trkpt lat="50.760114099830389" lon="13.169576274231076">
        <ele>388</ele>
        <time>2026-08-29T11:47:30Z</time>
      </trkpt>
      <trkpt lat="50.760114351287484" lon="13.169576106593013">
        <ele>388</ele>
        <time>2026-08-29T11:47:31Z</time>
      </trkpt>
      <trkpt lat="50.760114518925548" lon="13.169575938954949">
        <ele>388</ele>
        <time>2026-08-29T11:47:32Z</time>
      </trkpt>
      <trkpt lat="50.760114602744579" lon="13.169575687497854">
        <ele>388</ele>
        <time>2026-08-29T11:47:33Z</time>
      </trkpt>
      <trkpt lat="50.760114770382643" lon="13.169575436040759">
        <ele>388</ele>
        <time>2026-08-29T11:47:34Z</time>
      </trkpt>
      <trkpt lat="50.76011510565877" lon="13.169574933126569">
        <ele>388</ele>
        <time>2026-08-29T11:47:35Z</time>
      </trkpt>
      <trkpt lat="50.760115357115865" lon="13.169574430212379">
        <ele>388</ele>
        <time>2026-08-29T11:47:36Z</time>
      </trkpt>
      <trkpt lat="50.76011560857296" lon="13.169573759660125">
        <ele>388</ele>
        <time>2026-08-29T11:47:37Z</time>
      </trkpt>
      <trkpt lat="50.760115776211023" lon="13.169573843479156">
        <ele>388</ele>
        <time>2026-08-29T11:47:38Z</time>
      </trkpt>
      <trkpt lat="50.760115860030055" lon="13.169573759660125">
        <ele>388</ele>
        <time>2026-08-29T11:47:39Z</time>
      </trkpt>
      <trkpt lat="50.76011611148715" lon="13.169573843479156">
        <ele>388</ele>
        <time>2026-08-29T11:47:40Z</time>
      </trkpt>
      <trkpt lat="50.76011611148715" lon="13.169573592022061">
        <ele>388</ele>
        <time>2026-08-29T11:47:41Z</time>
      </trkpt>
      <trkpt lat="50.760115860030055" lon="13.169573424383998">
        <ele>388</ele>
        <time>2026-08-29T11:47:42Z</time>
      </trkpt>
      <trkpt lat="50.760115860030055" lon="13.169573340564966">
        <ele>388</ele>
        <time>2026-08-29T11:47:43Z</time>
      </trkpt>
      <trkpt lat="50.760115860030055" lon="13.169579040259123">
        <ele>388</ele>
        <time>2026-08-29T11:47:44Z</time>
      </trkpt>
      <trkpt lat="50.760116530582309" lon="13.16958524286747">
        <ele>388</ele>
        <time>2026-08-29T11:47:45Z</time>
      </trkpt>
      <trkpt lat="50.760112507268786" lon="13.169583063572645">
        <ele>387</ele>
        <time>2026-08-29T11:47:46Z</time>
      </trkpt>
      <trkpt lat="50.760112758725882" lon="13.169582979753613">
        <ele>387</ele>
        <time>2026-08-29T11:47:47Z</time>
      </trkpt>
      <trkpt lat="50.760116362944245" lon="13.169583147391677">
        <ele>387</ele>
        <time>2026-08-29T11:47:48Z</time>
      </trkpt>
      <trkpt lat="50.760117201134562" lon="13.169583734124899">
        <ele>387</ele>
        <time>2026-08-29T11:47:49Z</time>
      </trkpt>
      <trkpt lat="50.760125750675797" lon="13.169587086886168">
        <ele>387</ele>
        <time>2026-08-29T11:47:50Z</time>
      </trkpt>
      <trkpt lat="50.760143352672458" lon="13.169598905369639">
        <ele>387</ele>
        <time>2026-08-29T11:47:51Z</time>
      </trkpt>
      <trkpt lat="50.760170007124543" lon="13.169614328071475">
        <ele>387</ele>
        <time>2026-08-29T11:47:52Z</time>
      </trkpt>
      <trkpt lat="50.76020797714591" lon="13.169630588963628">
        <ele>387</ele>
        <time>2026-08-29T11:47:53Z</time>
      </trkpt>
      <trkpt lat="50.760257849469781" lon="13.169648107141256">
        <ele>387</ele>
        <time>2026-08-29T11:47:54Z</time>
      </trkpt>
      <trkpt lat="50.760304871946573" lon="13.169655231758952">
        <ele>386</ele>
        <time>2026-08-29T11:47:55Z</time>
      </trkpt>
      <trkpt lat="50.76036186888814" lon="13.169652717188001">
        <ele>386</ele>
        <time>2026-08-29T11:47:56Z</time>
      </trkpt>
      <trkpt lat="50.760424062609673" lon="13.169672582298517">
        <ele>386</ele>
        <time>2026-08-29T11:47:57Z</time>
      </trkpt>
      <trkpt lat="50.760475527495146" lon="13.16971960477531">
        <ele>386</ele>
        <time>2026-08-29T11:47:58Z</time>
      </trkpt>
      <trkpt lat="50.760524142533541" lon="13.169801160693169">
        <ele>387</ele>
        <time>2026-08-29T11:47:59Z</time>
      </trkpt>
      <trkpt lat="50.760555909946561" lon="13.16989554092288">
        <ele>387</ele>
        <time>2026-08-29T11:48:00Z</time>
      </trkpt>
      <trkpt lat="50.760583989322186" lon="13.169998722150922">
        <ele>387</ele>
        <time>2026-08-29T11:48:01Z</time>
      </trkpt>
      <trkpt lat="50.760620115324855" lon="13.170099975541234">
        <ele>387</ele>
        <time>2026-08-29T11:48:02Z</time>
      </trkpt>
      <trkpt lat="50.760648781433702" lon="13.170191422104836">
        <ele>387</ele>
        <time>2026-08-29T11:48:03Z</time>
      </trkpt>
      <trkpt lat="50.760685494169593" lon="13.170274822041392">
        <ele>387</ele>
        <time>2026-08-29T11:48:04Z</time>
      </trkpt>
      <trkpt lat="50.760717932134867" lon="13.170357216149569">
        <ele>387</ele>
        <time>2026-08-29T11:48:05Z</time>
      </trkpt>
      <trkpt lat="50.760753639042377" lon="13.170442879199982">
        <ele>386</ele>
        <time>2026-08-29T11:48:06Z</time>
      </trkpt>
      <trkpt lat="50.76078113168478" lon="13.170503564178944">
        <ele>386</ele>
        <time>2026-08-29T11:48:07Z</time>
      </trkpt>
      <trkpt lat="50.760813821107149" lon="13.170558549463749">
        <ele>386</ele>
        <time>2026-08-29T11:48:08Z</time>
      </trkpt>
      <trkpt lat="50.760832261294127" lon="13.170622587203979">
        <ele>386</ele>
        <time>2026-08-29T11:48:09Z</time>
      </trkpt>
      <trkpt lat="50.760864363983274" lon="13.170683942735195">
        <ele>386</ele>
        <time>2026-08-29T11:48:10Z</time>
      </trkpt>
      <trkpt lat="50.760883558541536" lon="13.170733312144876">
        <ele>387</ele>
        <time>2026-08-29T11:48:11Z</time>
      </trkpt>
      <trkpt lat="50.760904597118497" lon="13.17077798768878">
        <ele>387</ele>
        <time>2026-08-29T11:48:12Z</time>
      </trkpt>
      <trkpt lat="50.760928569361567" lon="13.17082341760397">
        <ele>387</ele>
        <time>2026-08-29T11:48:13Z</time>
      </trkpt>
      <trkpt lat="50.760951954871416" lon="13.170870272442698">
        <ele>387</ele>
        <time>2026-08-29T11:48:14Z</time>
      </trkpt>
      <trkpt lat="50.760971149429679" lon="13.170906817540526">
        <ele>387</ele>
        <time>2026-08-29T11:48:15Z</time>
      </trkpt>
      <trkpt lat="50.76098782941699" lon="13.170942021533847">
        <ele>387</ele>
        <time>2026-08-29T11:48:16Z</time>
      </trkpt>
      <trkpt lat="50.76100492849946" lon="13.170979740098119">
        <ele>387</ele>
        <time>2026-08-29T11:48:17Z</time>
      </trkpt>
      <trkpt lat="50.761027308180928" lon="13.171020476147532">
        <ele>387</ele>
        <time>2026-08-29T11:48:18Z</time>
      </trkpt>
      <trkpt lat="50.76104549691081" lon="13.171059703454375">
        <ele>387</ele>
        <time>2026-08-29T11:48:19Z</time>
      </trkpt>
      <trkpt lat="50.761064775288105" lon="13.171103373169899">
        <ele>387</ele>
        <time>2026-08-29T11:48:20Z</time>
      </trkpt>
      <trkpt lat="50.761094279587269" lon="13.171145617961884">
        <ele>388</ele>
        <time>2026-08-29T11:48:21Z</time>
      </trkpt>
      <trkpt lat="50.761125460267067" lon="13.171180989593267">
        <ele>388</ele>
        <time>2026-08-29T11:48:22Z</time>
      </trkpt>
      <trkpt lat="50.761161502450705" lon="13.171209404245019">
        <ele>388</ele>
        <time>2026-08-29T11:48:23Z</time>
      </trkpt>
      <trkpt lat="50.761206429451704" lon="13.171232119202614">
        <ele>388</ele>
        <time>2026-08-29T11:48:24Z</time>
      </trkpt>
      <trkpt lat="50.761255128309131" lon="13.171248296275735">
        <ele>388</ele>
        <time>2026-08-29T11:48:25Z</time>
      </trkpt>
      <trkpt lat="50.761298798024654" lon="13.171277465298772">
        <ele>388</ele>
        <time>2026-08-29T11:48:26Z</time>
      </trkpt>
      <trkpt lat="50.761345820501447" lon="13.171319458633661">
        <ele>388</ele>
        <time>2026-08-29T11:48:27Z</time>
      </trkpt>
      <trkpt lat="50.761381527408957" lon="13.1713658105582">
        <ele>388</ele>
        <time>2026-08-29T11:48:28Z</time>
      </trkpt>
      <trkpt lat="50.761439027264714" lon="13.171428758651018">
        <ele>388</ele>
        <time>2026-08-29T11:48:29Z</time>
      </trkpt>
      <trkpt lat="50.76148965395987" lon="13.171489695087075">
        <ele>388</ele>
        <time>2026-08-29T11:48:30Z</time>
      </trkpt>
      <trkpt lat="50.761530809104443" lon="13.171530431136489">
        <ele>388</ele>
        <time>2026-08-29T11:48:31Z</time>
      </trkpt>
      <trkpt lat="50.761576071381569" lon="13.171564880758524">
        <ele>388</ele>
        <time>2026-08-29T11:48:32Z</time>
      </trkpt>
      <trkpt lat="50.761620830744505" lon="13.171587511897087">
        <ele>388</ele>
        <time>2026-08-29T11:48:33Z</time>
      </trkpt>
      <trkpt lat="50.761652430519462" lon="13.171599917113781">
        <ele>387</ele>
        <time>2026-08-29T11:48:34Z</time>
      </trkpt>
      <trkpt lat="50.761695010587573" lon="13.171604108065367">
        <ele>387</ele>
        <time>2026-08-29T11:48:35Z</time>
      </trkpt>
      <trkpt lat="50.761728957295418" lon="13.171622799709439">
        <ele>387</ele>
        <time>2026-08-29T11:48:36Z</time>
      </trkpt>
      <trkpt lat="50.761760389432311" lon="13.171638725325465">
        <ele>387</ele>
        <time>2026-08-29T11:48:37Z</time>
      </trkpt>
      <trkpt lat="50.761796599254012" lon="13.171650459989905">
        <ele>387</ele>
        <time>2026-08-29T11:48:38Z</time>
      </trkpt>
      <trkpt lat="50.761832389980555" lon="13.171662194654346">
        <ele>387</ele>
        <time>2026-08-29T11:48:39Z</time>
      </trkpt>
      <trkpt lat="50.761874802410603" lon="13.17166730761528">
        <ele>386</ele>
        <time>2026-08-29T11:48:40Z</time>
      </trkpt>
      <trkpt lat="50.76191377826035" lon="13.171660182997584">
        <ele>386</ele>
        <time>2026-08-29T11:48:41Z</time>
      </trkpt>
      <trkpt lat="50.761952921748161" lon="13.171680467203259">
        <ele>386</ele>
        <time>2026-08-29T11:48:42Z</time>
      </trkpt>
      <trkpt lat="50.761994579806924" lon="13.171696560457349">
        <ele>385</ele>
        <time>2026-08-29T11:48:43Z</time>
      </trkpt>
      <trkpt lat="50.762028861790895" lon="13.17170443944633">
        <ele>385</ele>
        <time>2026-08-29T11:48:44Z</time>
      </trkpt>
      <trkpt lat="50.762059204280376" lon="13.171710474416614">
        <ele>386</ele>
        <time>2026-08-29T11:48:45Z</time>
      </trkpt>
      <trkpt lat="50.762082170695066" lon="13.171710558235645">
        <ele>386</ele>
        <time>2026-08-29T11:48:46Z</time>
      </trkpt>
      <trkpt lat="50.762112597003579" lon="13.171711899340153">
        <ele>386</ele>
        <time>2026-08-29T11:48:47Z</time>
      </trkpt>
      <trkpt lat="50.762143610045314" lon="13.171717012301087">
        <ele>386</ele>
        <time>2026-08-29T11:48:48Z</time>
      </trkpt>
      <trkpt lat="50.762166744098067" lon="13.1717181019485">
        <ele>386</ele>
        <time>2026-08-29T11:48:49Z</time>
      </trkpt>
      <trkpt lat="50.762188117951155" lon="13.171718185767531">
        <ele>386</ele>
        <time>2026-08-29T11:48:50Z</time>
      </trkpt>
      <trkpt lat="50.762218125164509" lon="13.171716257929802">
        <ele>385</ele>
        <time>2026-08-29T11:48:51Z</time>
      </trkpt>
      <trkpt lat="50.7622514013201" lon="13.171726064756513">
        <ele>386</ele>
        <time>2026-08-29T11:48:52Z</time>
      </trkpt>
      <trkpt lat="50.762286940589547" lon="13.171736877411604">
        <ele>386</ele>
        <time>2026-08-29T11:48:53Z</time>
      </trkpt>
      <trkpt lat="50.762325413525105" lon="13.171735284850001">
        <ele>385</ele>
        <time>2026-08-29T11:48:54Z</time>
      </trkpt>
      <trkpt lat="50.762364640831947" lon="13.171743834391236">
        <ele>385</ele>
        <time>2026-08-29T11:48:55Z</time>
      </trkpt>
      <trkpt lat="50.762400180101395" lon="13.171735033392906">
        <ele>385</ele>
        <time>2026-08-29T11:48:56Z</time>
      </trkpt>
      <trkpt lat="50.762439994141459" lon="13.171739643439651">
        <ele>385</ele>
        <time>2026-08-29T11:48:57Z</time>
      </trkpt>
      <trkpt lat="50.762482238933444" lon="13.1717474386096">
        <ele>385</ele>
        <time>2026-08-29T11:48:58Z</time>
      </trkpt>
      <trkpt lat="50.762525321915746" lon="13.171752886846662">
        <ele>385</ele>
        <time>2026-08-29T11:48:59Z</time>
      </trkpt>
      <trkpt lat="50.762571338564157" lon="13.171761436387897">
        <ele>385</ele>
        <time>2026-08-29T11:49:00Z</time>
      </trkpt>
      <trkpt lat="50.762603357434273" lon="13.171783983707428">
        <ele>385</ele>
        <time>2026-08-29T11:49:01Z</time>
      </trkpt>
      <trkpt lat="50.76264183036983" lon="13.171790605410933">
        <ele>384</ele>
        <time>2026-08-29T11:49:02Z</time>
      </trkpt>
      <trkpt lat="50.762690864503384" lon="13.171797059476376">
        <ele>383</ele>
        <time>2026-08-29T11:49:03Z</time>
      </trkpt>
      <trkpt lat="50.762739982455969" lon="13.17180116660893">
        <ele>383</ele>
        <time>2026-08-29T11:49:04Z</time>
      </trkpt>
      <trkpt lat="50.762781221419573" lon="13.171805776655674">
        <ele>382</ele>
        <time>2026-08-29T11:49:05Z</time>
      </trkpt>
      <trkpt lat="50.762828998267651" lon="13.171819858253002">
        <ele>382</ele>
        <time>2026-08-29T11:49:06Z</time>
      </trkpt>
      <trkpt lat="50.762875350192189" lon="13.171821618452668">
        <ele>381</ele>
        <time>2026-08-29T11:49:07Z</time>
      </trkpt>
      <trkpt lat="50.76292036101222" lon="13.171824300661683">
        <ele>381</ele>
        <time>2026-08-29T11:49:08Z</time>
      </trkpt>
      <trkpt lat="50.762968892231584" lon="13.171825893223286">
        <ele>381</ele>
        <time>2026-08-29T11:49:09Z</time>
      </trkpt>
      <trkpt lat="50.763016669079661" lon="13.171816086396575">
        <ele>382</ele>
        <time>2026-08-29T11:49:10Z</time>
      </trkpt>
      <trkpt lat="50.763058830052614" lon="13.171808626502752">
        <ele>381</ele>
        <time>2026-08-29T11:49:11Z</time>
      </trkpt>
      <trkpt lat="50.763102332130075" lon="13.171804016456008">
        <ele>381</ele>
        <time>2026-08-29T11:49:12Z</time>
      </trkpt>
      <trkpt lat="50.763166369870305" lon="13.171780463308096">
        <ele>380</ele>
        <time>2026-08-29T11:49:13Z</time>
      </trkpt>
      <trkpt lat="50.763218253850937" lon="13.171757161617279">
        <ele>380</ele>
        <time>2026-08-29T11:49:14Z</time>
      </trkpt>
      <trkpt lat="50.763252703472972" lon="13.171719778329134">
        <ele>380</ele>
        <time>2026-08-29T11:49:15Z</time>
      </trkpt>
      <trkpt lat="50.763300899416208" lon="13.171671750023961">
        <ele>379</ele>
        <time>2026-08-29T11:49:16Z</time>
      </trkpt>
      <trkpt lat="50.763345239683986" lon="13.171632271260023">
        <ele>380</ele>
        <time>2026-08-29T11:49:17Z</time>
      </trkpt>
      <trkpt lat="50.763391088694334" lon="13.171586757525802">
        <ele>380</ele>
        <time>2026-08-29T11:49:18Z</time>
      </trkpt>
      <trkpt lat="50.763434590771794" lon="13.17153831012547">
        <ele>379</ele>
        <time>2026-08-29T11:49:19Z</time>
      </trkpt>
      <trkpt lat="50.76347541064024" lon="13.171489275991917">
        <ele>379</ele>
        <time>2026-08-29T11:49:20Z</time>
      </trkpt>
      <trkpt lat="50.763522265478969" lon="13.17144300788641">
        <ele>379</ele>
        <time>2026-08-29T11:49:21Z</time>
      </trkpt>
      <trkpt lat="50.763560738414526" lon="13.171398919075727">
        <ele>379</ele>
        <time>2026-08-29T11:49:22Z</time>
      </trkpt>
      <trkpt lat="50.763600133359432" lon="13.171338317915797">
        <ele>379</ele>
        <time>2026-08-29T11:49:23Z</time>
      </trkpt>
      <trkpt lat="50.763636259362102" lon="13.171285511925817">
        <ele>379</ele>
        <time>2026-08-29T11:49:24Z</time>
      </trkpt>
      <trkpt lat="50.763669619336724" lon="13.171227006241679">
        <ele>379</ele>
        <time>2026-08-29T11:49:25Z</time>
      </trkpt>
      <trkpt lat="50.763706918805838" lon="13.171169338747859">
        <ele>379</ele>
        <time>2026-08-29T11:49:26Z</time>
      </trkpt>
      <trkpt lat="50.763741787523031" lon="13.171119298785925">
        <ele>379</ele>
        <time>2026-08-29T11:49:27Z</time>
      </trkpt>
      <trkpt lat="50.763775482773781" lon="13.171061631292105">
        <ele>380</ele>
        <time>2026-08-29T11:49:28Z</time>
      </trkpt>
      <trkpt lat="50.763804316520691" lon="13.1710135191679">
        <ele>379</ele>
        <time>2026-08-29T11:49:29Z</time>
      </trkpt>
      <trkpt lat="50.763827953487635" lon="13.170972364023328">
        <ele>379</ele>
        <time>2026-08-29T11:49:30Z</time>
      </trkpt>
      <trkpt lat="50.763847650960088" lon="13.17092701792717">
        <ele>379</ele>
        <time>2026-08-29T11:49:31Z</time>
      </trkpt>
      <trkpt lat="50.763861900195479" lon="13.170873373746872">
        <ele>379</ele>
        <time>2026-08-29T11:49:32Z</time>
      </trkpt>
      <trkpt lat="50.763873551040888" lon="13.170813275501132">
        <ele>379</ele>
        <time>2026-08-29T11:49:33Z</time>
      </trkpt>
      <trkpt lat="50.763889392837882" lon="13.170752171427011">
        <ele>379</ele>
        <time>2026-08-29T11:49:34Z</time>
      </trkpt>
      <trkpt lat="50.763901127502322" lon="13.170690648257732">
        <ele>379</ele>
        <time>2026-08-29T11:49:35Z</time>
      </trkpt>
      <trkpt lat="50.763924345374107" lon="13.170630885288119">
        <ele>379</ele>
        <time>2026-08-29T11:49:36Z</time>
      </trkpt>
      <trkpt lat="50.763940857723355" lon="13.170574475079775">
        <ele>379</ele>
        <time>2026-08-29T11:49:37Z</time>
      </trkpt>
      <trkpt lat="50.76396013610065" lon="13.170514460653067">
        <ele>379</ele>
        <time>2026-08-29T11:49:38Z</time>
      </trkpt>
      <trkpt lat="50.763971619307995" lon="13.17045503295958">
        <ele>379</ele>
        <time>2026-08-29T11:49:39Z</time>
      </trkpt>
      <trkpt lat="50.763983018696308" lon="13.170382445678115">
        <ele>379</ele>
        <time>2026-08-29T11:49:40Z</time>
      </trkpt>
      <trkpt lat="50.76399777084589" lon="13.170301476493478">
        <ele>380</ele>
        <time>2026-08-29T11:49:41Z</time>
      </trkpt>
      <trkpt lat="50.764005649834871" lon="13.17022000439465">
        <ele>380</ele>
        <time>2026-08-29T11:49:42Z</time>
      </trkpt>
      <trkpt lat="50.764006320387125" lon="13.170142723247409">
        <ele>380</ele>
        <time>2026-08-29T11:49:43Z</time>
      </trkpt>
      <trkpt lat="50.764006655663252" lon="13.170070555061102">
        <ele>381</ele>
        <time>2026-08-29T11:49:44Z</time>
      </trkpt>
      <trkpt lat="50.764004644006491" lon="13.170001404359937">
        <ele>381</ele>
        <time>2026-08-29T11:49:45Z</time>
      </trkpt>
      <trkpt lat="50.764002380892634" lon="13.169923201203346">
        <ele>381</ele>
        <time>2026-08-29T11:49:46Z</time>
      </trkpt>
      <trkpt lat="50.763997687026858" lon="13.169847680255771">
        <ele>381</ele>
        <time>2026-08-29T11:49:47Z</time>
      </trkpt>
      <trkpt lat="50.763987712562084" lon="13.169761933386326">
        <ele>381</ele>
        <time>2026-08-29T11:49:48Z</time>
      </trkpt>
      <trkpt lat="50.763983353972435" lon="13.169682221487164">
        <ele>381</ele>
        <time>2026-08-29T11:49:49Z</time>
      </trkpt>
      <trkpt lat="50.763979582116008" lon="13.169596306979656">
        <ele>381</ele>
        <time>2026-08-29T11:49:50Z</time>
      </trkpt>
      <trkpt lat="50.763983270153403" lon="13.16950460895896">
        <ele>381</ele>
        <time>2026-08-29T11:49:51Z</time>
      </trkpt>
      <trkpt lat="50.763984359800816" lon="13.169413832947612">
        <ele>381</ele>
        <time>2026-08-29T11:49:52Z</time>
      </trkpt>
      <trkpt lat="50.763988718390465" lon="13.169328337535262">
        <ele>381</ele>
        <time>2026-08-29T11:49:53Z</time>
      </trkpt>
      <trkpt lat="50.763988047838211" lon="13.169243931770325">
        <ele>382</ele>
        <time>2026-08-29T11:49:54Z</time>
      </trkpt>
      <trkpt lat="50.763993747532368" lon="13.169163046404719">
        <ele>382</ele>
        <time>2026-08-29T11:49:55Z</time>
      </trkpt>
      <trkpt lat="50.76399483717978" lon="13.16907612606883">
        <ele>382</ele>
        <time>2026-08-29T11:49:56Z</time>
      </trkpt>
      <trkpt lat="50.764000369235873" lon="13.169002113863826">
        <ele>382</ele>
        <time>2026-08-29T11:49:57Z</time>
      </trkpt>
      <trkpt lat="50.764020318165421" lon="13.168913600966334">
        <ele>381</ele>
        <time>2026-08-29T11:49:58Z</time>
      </trkpt>
      <trkpt lat="50.764045715332031" lon="13.168834475800395">
        <ele>381</ele>
        <time>2026-08-29T11:49:59Z</time>
      </trkpt>
      <trkpt lat="50.764064490795135" lon="13.16876482218504">
        <ele>381</ele>
        <time>2026-08-29T11:50:00Z</time>
      </trkpt>
      <trkpt lat="50.764074632897973" lon="13.168696844950318">
        <ele>381</ele>
        <time>2026-08-29T11:50:01Z</time>
      </trkpt>
      <trkpt lat="50.764087457209826" lon="13.168632807210088">
        <ele>380</ele>
        <time>2026-08-29T11:50:02Z</time>
      </trkpt>
      <trkpt lat="50.764100449159741" lon="13.168579917401075">
        <ele>380</ele>
        <time>2026-08-29T11:50:03Z</time>
      </trkpt>
      <trkpt lat="50.764115285128355" lon="13.168535409495234">
        <ele>380</ele>
        <time>2026-08-29T11:50:04Z</time>
      </trkpt>
      <trkpt lat="50.764123080298305" lon="13.168494421988726">
        <ele>380</ele>
        <time>2026-08-29T11:50:05Z</time>
      </trkpt>
      <trkpt lat="50.764125930145383" lon="13.168452512472868">
        <ele>380</ele>
        <time>2026-08-29T11:50:06Z</time>
      </trkpt>
      <trkpt lat="50.764120481908321" lon="13.168407334014773">
        <ele>380</ele>
        <time>2026-08-29T11:50:07Z</time>
      </trkpt>
      <trkpt lat="50.76410380192101" lon="13.168366011232138">
        <ele>380</ele>
        <time>2026-08-29T11:50:08Z</time>
      </trkpt>
      <trkpt lat="50.764084691181779" lon="13.168331142514944">
        <ele>380</ele>
        <time>2026-08-29T11:50:09Z</time>
      </trkpt>
      <trkpt lat="50.764063820242882" lon="13.168293675407767">
        <ele>380</ele>
        <time>2026-08-29T11:50:10Z</time>
      </trkpt>
      <trkpt lat="50.764043787494302" lon="13.1682522688061">
        <ele>380</ele>
        <time>2026-08-29T11:50:11Z</time>
      </trkpt>
      <trkpt lat="50.764027023687959" lon="13.168200301006436">
        <ele>380</ele>
        <time>2026-08-29T11:50:12Z</time>
      </trkpt>
      <trkpt lat="50.76402559876442" lon="13.168141711503267">
        <ele>380</ele>
        <time>2026-08-29T11:50:13Z</time>
      </trkpt>
      <trkpt lat="50.764028364792466" lon="13.168087312951684">
        <ele>380</ele>
        <time>2026-08-29T11:50:14Z</time>
      </trkpt>
      <trkpt lat="50.764040602371097" lon="13.168004835024476">
        <ele>380</ele>
        <time>2026-08-29T11:50:15Z</time>
      </trkpt>
      <trkpt lat="50.764059461653233" lon="13.167932666838169">
        <ele>380</ele>
        <time>2026-08-29T11:50:16Z</time>
      </trkpt>
      <trkpt lat="50.76407739892602" lon="13.167860582470894">
        <ele>380</ele>
        <time>2026-08-29T11:50:17Z</time>
      </trkpt>
      <trkpt lat="50.764097766950727" lon="13.167781960219145">
        <ele>380</ele>
        <time>2026-08-29T11:50:18Z</time>
      </trkpt>
      <trkpt lat="50.764118134975433" lon="13.167704259976745">
        <ele>380</ele>
        <time>2026-08-29T11:50:19Z</time>
      </trkpt>
      <trkpt lat="50.764136491343379" lon="13.167636366561055">
        <ele>380</ele>
        <time>2026-08-29T11:50:20Z</time>
      </trkpt>
      <trkpt lat="50.76415317133069" lon="13.16755648702383">
        <ele>380</ele>
        <time>2026-08-29T11:50:21Z</time>
      </trkpt>
      <trkpt lat="50.764175970107317" lon="13.167474679648876">
        <ele>380</ele>
        <time>2026-08-29T11:50:22Z</time>
      </trkpt>
      <trkpt lat="50.764199942350388" lon="13.167400918900967">
        <ele>380</ele>
        <time>2026-08-29T11:50:23Z</time>
      </trkpt>
      <trkpt lat="50.764223327860236" lon="13.167317351326346">
        <ele>380</ele>
        <time>2026-08-29T11:50:24Z</time>
      </trkpt>
      <trkpt lat="50.764242522418499" lon="13.167248954996467">
        <ele>380</ele>
        <time>2026-08-29T11:50:25Z</time>
      </trkpt>
      <trkpt lat="50.764269009232521" lon="13.167192796245217">
        <ele>379</ele>
        <time>2026-08-29T11:50:26Z</time>
      </trkpt>
      <trkpt lat="50.764298010617495" lon="13.167121633887291">
        <ele>379</ele>
        <time>2026-08-29T11:50:27Z</time>
      </trkpt>
      <trkpt lat="50.764331789687276" lon="13.167058769613504">
        <ele>380</ele>
        <time>2026-08-29T11:50:28Z</time>
      </trkpt>
      <trkpt lat="50.764354672282934" lon="13.166979476809502">
        <ele>379</ele>
        <time>2026-08-29T11:50:29Z</time>
      </trkpt>
      <trkpt lat="50.764386691153049" lon="13.166915271431208">
        <ele>380</ele>
        <time>2026-08-29T11:50:30Z</time>
      </trkpt>
      <trkpt lat="50.76442189514637" lon="13.166847797110677">
        <ele>381</ele>
        <time>2026-08-29T11:50:31Z</time>
      </trkpt>
      <trkpt lat="50.76446145772934" lon="13.166789291426539">
        <ele>380</ele>
        <time>2026-08-29T11:50:32Z</time>
      </trkpt>
      <trkpt lat="50.764495739713311" lon="13.166723325848579">
        <ele>381</ele>
        <time>2026-08-29T11:50:33Z</time>
      </trkpt>
      <trkpt lat="50.764529770240188" lon="13.166647385805845">
        <ele>381</ele>
        <time>2026-08-29T11:50:34Z</time>
      </trkpt>
      <trkpt lat="50.764567069709301" lon="13.166580246761441">
        <ele>381</ele>
        <time>2026-08-29T11:50:35Z</time>
      </trkpt>
      <trkpt lat="50.764606716111302" lon="13.166521908715367">
        <ele>381</ele>
        <time>2026-08-29T11:50:36Z</time>
      </trkpt>
      <trkpt lat="50.764635549858212" lon="13.166463151574135">
        <ele>380</ele>
        <time>2026-08-29T11:50:37Z</time>
      </trkpt>
      <trkpt lat="50.764667317271233" lon="13.166405232623219">
        <ele>380</ele>
        <time>2026-08-29T11:50:38Z</time>
      </trkpt>
      <trkpt lat="50.764700258150697" lon="13.166342619806528">
        <ele>380</ele>
        <time>2026-08-29T11:50:39Z</time>
      </trkpt>
      <trkpt lat="50.764736132696271" lon="13.166282437741756">
        <ele>380</ele>
        <time>2026-08-29T11:50:40Z</time>
      </trkpt>
      <trkpt lat="50.764767229557037" lon="13.166223596781492">
        <ele>380</ele>
        <time>2026-08-29T11:50:41Z</time>
      </trkpt>
      <trkpt lat="50.764803355559707" lon="13.166168862953782">
        <ele>379</ele>
        <time>2026-08-29T11:50:42Z</time>
      </trkpt>
      <trkpt lat="50.764846103265882" lon="13.16610423848033">
        <ele>380</ele>
        <time>2026-08-29T11:50:43Z</time>
      </trkpt>
      <trkpt lat="50.764892622828484" lon="13.16604120656848">
        <ele>380</ele>
        <time>2026-08-29T11:50:44Z</time>
      </trkpt>
      <trkpt lat="50.764946350827813" lon="13.165984377264977">
        <ele>380</ele>
        <time>2026-08-29T11:50:45Z</time>
      </trkpt>
      <trkpt lat="50.764995468780398" lon="13.165929894894361">
        <ele>381</ele>
        <time>2026-08-29T11:50:46Z</time>
      </trkpt>
      <trkpt lat="50.765040311962366" lon="13.165889577940106">
        <ele>380</ele>
        <time>2026-08-29T11:50:47Z</time>
      </trkpt>
      <trkpt lat="50.765076521784067" lon="13.165842639282346">
        <ele>381</ele>
        <time>2026-08-29T11:50:48Z</time>
      </trkpt>
      <trkpt lat="50.765113737434149" lon="13.165801232680678">
        <ele>381</ele>
        <time>2026-08-29T11:50:49Z</time>
      </trkpt>
      <trkpt lat="50.765162771567702" lon="13.165757562965155">
        <ele>381</ele>
        <time>2026-08-29T11:50:50Z</time>
      </trkpt>
      <trkpt lat="50.765201663598418" lon="13.165696291252971">
        <ele>381</ele>
        <time>2026-08-29T11:50:51Z</time>
      </trkpt>
      <trkpt lat="50.765242567285895" lon="13.16564591601491">
        <ele>380</ele>
        <time>2026-08-29T11:50:52Z</time>
      </trkpt>
      <trkpt lat="50.765289338305593" lon="13.165598642081022">
        <ele>380</ele>
        <time>2026-08-29T11:50:53Z</time>
      </trkpt>
      <trkpt lat="50.765318674966693" lon="13.16554575227201">
        <ele>379</ele>
        <time>2026-08-29T11:50:54Z</time>
      </trkpt>
      <trkpt lat="50.765352956950665" lon="13.165496382862329">
        <ele>380</ele>
        <time>2026-08-29T11:50:55Z</time>
      </trkpt>
      <trkpt lat="50.765392770990729" lon="13.165454305708408">
        <ele>379</ele>
        <time>2026-08-29T11:50:56Z</time>
      </trkpt>
      <trkpt lat="50.765433255583048" lon="13.165405103936791">
        <ele>379</ele>
        <time>2026-08-29T11:50:57Z</time>
      </trkpt>
      <trkpt lat="50.765468878671527" lon="13.165361685678363">
        <ele>379</ele>
        <time>2026-08-29T11:50:58Z</time>
      </trkpt>
      <trkpt lat="50.76551497913897" lon="13.165312400087714">
        <ele>380</ele>
        <time>2026-08-29T11:50:59Z</time>
      </trkpt>
      <trkpt lat="50.765557307749987" lon="13.165271496400237">
        <ele>380</ele>
        <time>2026-08-29T11:51:00Z</time>
      </trkpt>
      <trkpt lat="50.765599887818098" lon="13.16522522829473">
        <ele>380</ele>
        <time>2026-08-29T11:51:01Z</time>
      </trkpt>
      <trkpt lat="50.765636516734958" lon="13.165178038179874">
        <ele>380</ele>
        <time>2026-08-29T11:51:02Z</time>
      </trkpt>
      <trkpt lat="50.765666021034122" lon="13.165139649063349">
        <ele>381</ele>
        <time>2026-08-29T11:51:03Z</time>
      </trkpt>
      <trkpt lat="50.765707343816757" lon="13.165102684870362">
        <ele>381</ele>
        <time>2026-08-29T11:51:04Z</time>
      </trkpt>
      <trkpt lat="50.765753863379359" lon="13.165064882487059">
        <ele>381</ele>
        <time>2026-08-29T11:51:05Z</time>
      </trkpt>
      <trkpt lat="50.765786720439792" lon="13.165034288540483">
        <ele>382</ele>
        <time>2026-08-29T11:51:06Z</time>
      </trkpt>
      <trkpt lat="50.765814799815416" lon="13.164995815604925">
        <ele>382</ele>
        <time>2026-08-29T11:51:07Z</time>
      </trkpt>
      <trkpt lat="50.765854446217418" lon="13.164962623268366">
        <ele>382</ele>
        <time>2026-08-29T11:51:08Z</time>
      </trkpt>
      <trkpt lat="50.76588780619204" lon="13.164930855855346">
        <ele>382</ele>
        <time>2026-08-29T11:51:09Z</time>
      </trkpt>
      <trkpt lat="50.765919238328934" lon="13.164898920804262">
        <ele>382</ele>
        <time>2026-08-29T11:51:10Z</time>
      </trkpt>
      <trkpt lat="50.765965087339282" lon="13.164865812286735">
        <ele>382</ele>
        <time>2026-08-29T11:51:11Z</time>
      </trkpt>
      <trkpt lat="50.766006577759981" lon="13.16482842899859">
        <ele>382</ele>
        <time>2026-08-29T11:51:12Z</time>
      </trkpt>
      <trkpt lat="50.766055108979344" lon="13.164806133136153">
        <ele>382</ele>
        <time>2026-08-29T11:51:13Z</time>
      </trkpt>
      <trkpt lat="50.766095677390695" lon="13.164789117872715">
        <ele>381</ele>
        <time>2026-08-29T11:51:14Z</time>
      </trkpt>
      <trkpt lat="50.766140101477504" lon="13.164761457592249">
        <ele>380</ele>
        <time>2026-08-29T11:51:15Z</time>
      </trkpt>
      <trkpt lat="50.766181843355298" lon="13.164731366559863">
        <ele>380</ele>
        <time>2026-08-29T11:51:16Z</time>
      </trkpt>
      <trkpt lat="50.766224423423409" lon="13.164697671309114">
        <ele>380</ele>
        <time>2026-08-29T11:51:17Z</time>
      </trkpt>
      <trkpt lat="50.766269350424409" lon="13.164664311334491">
        <ele>380</ele>
        <time>2026-08-29T11:51:18Z</time>
      </trkpt>
      <trkpt lat="50.766315450891852" lon="13.164632711559534">
        <ele>379</ele>
        <time>2026-08-29T11:51:19Z</time>
      </trkpt>
      <trkpt lat="50.766356689855456" lon="13.164607984945178">
        <ele>379</ele>
        <time>2026-08-29T11:51:20Z</time>
      </trkpt>
      <trkpt lat="50.766401952132583" lon="13.164583342149854">
        <ele>379</ele>
        <time>2026-08-29T11:51:21Z</time>
      </trkpt>
      <trkpt lat="50.766450650990009" lon="13.164573116227984">
        <ele>378</ele>
        <time>2026-08-29T11:51:22Z</time>
      </trkpt>
      <trkpt lat="50.766487531363964" lon="13.164538247510791">
        <ele>378</ele>
        <time>2026-08-29T11:51:23Z</time>
      </trkpt>
      <trkpt lat="50.76652985997498" lon="13.164515951648355">
        <ele>378</ele>
        <time>2026-08-29T11:51:24Z</time>
      </trkpt>
      <trkpt lat="50.766579899936914" lon="13.164489297196269">
        <ele>379</ele>
        <time>2026-08-29T11:51:25Z</time>
      </trkpt>
      <trkpt lat="50.766619881615043" lon="13.164458116516471">
        <ele>378</ele>
        <time>2026-08-29T11:51:26Z</time>
      </trkpt>
      <trkpt lat="50.766658019274473" lon="13.164432803168893">
        <ele>378</ele>
        <time>2026-08-29T11:51:27Z</time>
      </trkpt>
      <trkpt lat="50.766700766980648" lon="13.164403215050697">
        <ele>379</ele>
        <time>2026-08-29T11:51:28Z</time>
      </trkpt>
      <trkpt lat="50.766750387847424" lon="13.164375219494104">
        <ele>378</ele>
        <time>2026-08-29T11:51:29Z</time>
      </trkpt>
      <trkpt lat="50.766794811934233" lon="13.164353258907795">
        <ele>378</ele>
        <time>2026-08-29T11:51:30Z</time>
      </trkpt>
      <trkpt lat="50.766835464164615" lon="13.164321994408965">
        <ele>378</ele>
        <time>2026-08-29T11:51:31Z</time>
      </trkpt>
      <trkpt lat="50.766874020919204" lon="13.164288718253374">
        <ele>378</ele>
        <time>2026-08-29T11:51:32Z</time>
      </trkpt>
      <trkpt lat="50.766915259882808" lon="13.164259046316147">
        <ele>378</ele>
        <time>2026-08-29T11:51:33Z</time>
      </trkpt>
      <trkpt lat="50.766958678141236" lon="13.164232475683093">
        <ele>378</ele>
        <time>2026-08-29T11:51:34Z</time>
      </trkpt>
      <trkpt lat="50.766999246552587" lon="13.164213532581925">
        <ele>378</ele>
        <time>2026-08-29T11:51:35Z</time>
      </trkpt>
      <trkpt lat="50.767041239887476" lon="13.164181765168905">
        <ele>378</ele>
        <time>2026-08-29T11:51:36Z</time>
      </trkpt>
      <trkpt lat="50.767090274021029" lon="13.164170365780592">
        <ele>378</ele>
        <time>2026-08-29T11:51:37Z</time>
      </trkpt>
      <trkpt lat="50.767130590975285" lon="13.164152847602963">
        <ele>378</ele>
        <time>2026-08-29T11:51:38Z</time>
      </trkpt>
      <trkpt lat="50.767174679785967" lon="13.164140777662396">
        <ele>378</ele>
        <time>2026-08-29T11:51:39Z</time>
      </trkpt>
      <trkpt lat="50.767213739454746" lon="13.164130300283432">
        <ele>377</ele>
        <time>2026-08-29T11:51:40Z</time>
      </trkpt>
      <trkpt lat="50.767255229875445" lon="13.164116721600294">
        <ele>377</ele>
        <time>2026-08-29T11:51:41Z</time>
      </trkpt>
      <trkpt lat="50.767293870449066" lon="13.16409601829946">
        <ele>378</ele>
        <time>2026-08-29T11:51:42Z</time>
      </trkpt>
      <trkpt lat="50.767332511022687" lon="13.164068525657058">
        <ele>378</ele>
        <time>2026-08-29T11:51:43Z</time>
      </trkpt>
      <trkpt lat="50.767380790784955" lon="13.164043296128511">
        <ele>378</ele>
        <time>2026-08-29T11:51:44Z</time>
      </trkpt>
      <trkpt lat="50.7674216106534" lon="13.164026029407978">
        <ele>377</ele>
        <time>2026-08-29T11:51:45Z</time>
      </trkpt>
      <trkpt lat="50.767470393329859" lon="13.16401831805706">
        <ele>377</ele>
        <time>2026-08-29T11:51:46Z</time>
      </trkpt>
      <trkpt lat="50.767519678920507" lon="13.164001470431685">
        <ele>376</ele>
        <time>2026-08-29T11:51:47Z</time>
      </trkpt>
      <trkpt lat="50.767565779387951" lon="13.16398018039763">
        <ele>377</ele>
        <time>2026-08-29T11:51:48Z</time>
      </trkpt>
      <trkpt lat="50.767612047493458" lon="13.163962997496128">
        <ele>376</ele>
        <time>2026-08-29T11:51:49Z</time>
      </trkpt>
      <trkpt lat="50.767658147960901" lon="13.163932571187615">
        <ele>376</ele>
        <time>2026-08-29T11:51:50Z</time>
      </trkpt>
      <trkpt lat="50.767703494057059" lon="13.16391128115356">
        <ele>375</ele>
        <time>2026-08-29T11:51:51Z</time>
      </trkpt>
      <trkpt lat="50.767740625888109" lon="13.163882028311491">
        <ele>376</ele>
        <time>2026-08-29T11:51:52Z</time>
      </trkpt>
      <trkpt lat="50.767778847366571" lon="13.163856128230691">
        <ele>377</ele>
        <time>2026-08-29T11:51:53Z</time>
      </trkpt>
      <trkpt lat="50.767818158492446" lon="13.163829892873764">
        <ele>377</ele>
        <time>2026-08-29T11:51:54Z</time>
      </trkpt>
      <trkpt lat="50.767862917855382" lon="13.163810698315501">
        <ele>376</ele>
        <time>2026-08-29T11:51:55Z</time>
      </trkpt>
      <trkpt lat="50.767910191789269" lon="13.163784211501479">
        <ele>376</ele>
        <time>2026-08-29T11:51:56Z</time>
      </trkpt>
      <trkpt lat="50.767961489036679" lon="13.163751605898142">
        <ele>376</ele>
        <time>2026-08-29T11:51:57Z</time>
      </trkpt>
      <trkpt lat="50.76801965944469" lon="13.163729142397642">
        <ele>376</ele>
        <time>2026-08-29T11:51:58Z</time>
      </trkpt>
      <trkpt lat="50.76808076351881" lon="13.163696452975273">
        <ele>376</ele>
        <time>2026-08-29T11:51:59Z</time>
      </trkpt>
      <trkpt lat="50.768141699954867" lon="13.163659907877445">
        <ele>376</ele>
        <time>2026-08-29T11:52:00Z</time>
      </trkpt>
      <trkpt lat="50.76820339076221" lon="13.16364306025207">
        <ele>376</ele>
        <time>2026-08-29T11:52:01Z</time>
      </trkpt>
      <trkpt lat="50.768270948901772" lon="13.16361665725708">
        <ele>375</ele>
        <time>2026-08-29T11:52:02Z</time>
      </trkpt>
      <trkpt lat="50.768343452364206" lon="13.163607688620687">
        <ele>374</ele>
        <time>2026-08-29T11:52:03Z</time>
      </trkpt>
      <trkpt lat="50.768400030210614" lon="13.163573825731874">
        <ele>374</ele>
        <time>2026-08-29T11:52:04Z</time>
      </trkpt>
      <trkpt lat="50.768437497317791" lon="13.163520935922861">
        <ele>374</ele>
        <time>2026-08-29T11:52:05Z</time>
      </trkpt>
      <trkpt lat="50.768466498702765" lon="13.16344709135592">
        <ele>374</ele>
        <time>2026-08-29T11:52:06Z</time>
      </trkpt>
      <trkpt lat="50.768476137891412" lon="13.163353716954589">
        <ele>373</ele>
        <time>2026-08-29T11:52:07Z</time>
      </trkpt>
      <trkpt lat="50.768479658290744" lon="13.163282219320536">
        <ele>374</ele>
        <time>2026-08-29T11:52:08Z</time>
      </trkpt>
      <trkpt lat="50.768489381298423" lon="13.163207788020372">
        <ele>374</ele>
        <time>2026-08-29T11:52:09Z</time>
      </trkpt>
      <trkpt lat="50.768485860899091" lon="13.163135200738907">
        <ele>374</ele>
        <time>2026-08-29T11:52:10Z</time>
      </trkpt>
      <trkpt lat="50.768489129841328" lon="13.163064708933234">
        <ele>373</ele>
        <time>2026-08-29T11:52:11Z</time>
      </trkpt>
      <trkpt lat="50.768493739888072" lon="13.162979716435075">
        <ele>374</ele>
        <time>2026-08-29T11:52:12Z</time>
      </trkpt>
      <trkpt lat="50.768493404611945" lon="13.162897657603025">
        <ele>374</ele>
        <time>2026-08-29T11:52:13Z</time>
      </trkpt>
      <trkpt lat="50.768495164811611" lon="13.162819370627403">
        <ele>375</ele>
        <time>2026-08-29T11:52:14Z</time>
      </trkpt>
      <trkpt lat="50.768489297479391" lon="13.162736473605037">
        <ele>375</ele>
        <time>2026-08-29T11:52:15Z</time>
      </trkpt>
      <trkpt lat="50.768491392955184" lon="13.162648295983672">
        <ele>375</ele>
        <time>2026-08-29T11:52:16Z</time>
      </trkpt>
      <trkpt lat="50.768512096256018" lon="13.162592388689518">
        <ele>375</ele>
        <time>2026-08-29T11:52:17Z</time>
      </trkpt>
      <trkpt lat="50.768540510907769" lon="13.162548970431089">
        <ele>375</ele>
        <time>2026-08-29T11:52:18Z</time>
      </trkpt>
      <trkpt lat="50.768588623031974" lon="13.162560453638434">
        <ele>375</ele>
        <time>2026-08-29T11:52:19Z</time>
      </trkpt>
      <trkpt lat="50.76863438822329" lon="13.162581576034427">
        <ele>375</ele>
        <time>2026-08-29T11:52:20Z</time>
      </trkpt>
      <trkpt lat="50.768690211698413" lon="13.162606302648783">
        <ele>375</ele>
        <time>2026-08-29T11:52:21Z</time>
      </trkpt>
      <trkpt lat="50.768750561401248" lon="13.162619294598699">
        <ele>376</ele>
        <time>2026-08-29T11:52:22Z</time>
      </trkpt>
      <trkpt lat="50.768801439553499" lon="13.162610325962305">
        <ele>376</ele>
        <time>2026-08-29T11:52:23Z</time>
      </trkpt>
      <trkpt lat="50.768845025449991" lon="13.162618121132255">
        <ele>377</ele>
        <time>2026-08-29T11:52:24Z</time>
      </trkpt>
      <trkpt lat="50.768884168937802" lon="13.162630861625075">
        <ele>377</ele>
        <time>2026-08-29T11:52:25Z</time>
      </trkpt>
      <trkpt lat="50.768941836431623" lon="13.162647960707545">
        <ele>377</ele>
        <time>2026-08-29T11:52:26Z</time>
      </trkpt>
      <trkpt lat="50.768996067345142" lon="13.162651732563972">
        <ele>377</ele>
        <time>2026-08-29T11:52:27Z</time>
      </trkpt>
      <trkpt lat="50.769050801172853" lon="13.162655755877495">
        <ele>377</ele>
        <time>2026-08-29T11:52:28Z</time>
      </trkpt>
      <trkpt lat="50.769101679325104" lon="13.162661958485842">
        <ele>377</ele>
        <time>2026-08-29T11:52:29Z</time>
      </trkpt>
      <trkpt lat="50.769156161695719" lon="13.162671430036426">
        <ele>378</ele>
        <time>2026-08-29T11:52:30Z</time>
      </trkpt>
      <trkpt lat="50.769214415922761" lon="13.162684757262468">
        <ele>378</ele>
        <time>2026-08-29T11:52:31Z</time>
      </trkpt>
      <trkpt lat="50.769268311560154" lon="13.162704957649112">
        <ele>378</ele>
        <time>2026-08-29T11:52:32Z</time>
      </trkpt>
      <trkpt lat="50.769315166398883" lon="13.162716357037425">
        <ele>377</ele>
        <time>2026-08-29T11:52:33Z</time>
      </trkpt>
      <trkpt lat="50.769362859427929" lon="13.162732282653451">
        <ele>376</ele>
        <time>2026-08-29T11:52:34Z</time>
      </trkpt>
      <trkpt lat="50.769407618790865" lon="13.16275717690587">
        <ele>376</ele>
        <time>2026-08-29T11:52:35Z</time>
      </trkpt>
      <trkpt lat="50.769451623782516" lon="13.16277913749218">
        <ele>376</ele>
        <time>2026-08-29T11:52:36Z</time>
      </trkpt>
      <trkpt lat="50.769493700936437" lon="13.162793051451445">
        <ele>377</ele>
        <time>2026-08-29T11:52:37Z</time>
      </trkpt>
      <trkpt lat="50.769526222720742" lon="13.162812581285834">
        <ele>377</ele>
        <time>2026-08-29T11:52:38Z</time>
      </trkpt>
      <trkpt lat="50.769565617665648" lon="13.162838229909539">
        <ele>376</ele>
        <time>2026-08-29T11:52:39Z</time>
      </trkpt>
      <trkpt lat="50.769607359543443" lon="13.162859352305532">
        <ele>376</ele>
        <time>2026-08-29T11:52:40Z</time>
      </trkpt>
      <trkpt lat="50.769649436697364" lon="13.162878127768636">
        <ele>376</ele>
        <time>2026-08-29T11:52:41Z</time>
      </trkpt>
      <trkpt lat="50.769690508022904" lon="13.162900423631072">
        <ele>376</ele>
        <time>2026-08-29T11:52:42Z</time>
      </trkpt>
      <trkpt lat="50.769729316234589" lon="13.162931017577648">
        <ele>375</ele>
        <time>2026-08-29T11:52:43Z</time>
      </trkpt>
      <trkpt lat="50.7697718963027" lon="13.162943758070469">
        <ele>374</ele>
        <time>2026-08-29T11:52:44Z</time>
      </trkpt>
      <trkpt lat="50.769809614866972" lon="13.162965634837747">
        <ele>375</ele>
        <time>2026-08-29T11:52:45Z</time>
      </trkpt>
      <trkpt lat="50.769848339259624" lon="13.162984913215041">
        <ele>375</ele>
        <time>2026-08-29T11:52:46Z</time>
      </trkpt>
      <trkpt lat="50.769890248775482" lon="13.163004275411367">
        <ele>375</ele>
        <time>2026-08-29T11:52:47Z</time>
      </trkpt>
      <trkpt lat="50.769933080300689" lon="13.163034450262785">
        <ele>375</ele>
        <time>2026-08-29T11:52:48Z</time>
      </trkpt>
      <trkpt lat="50.769972307607532" lon="13.163072504103184">
        <ele>375</ele>
        <time>2026-08-29T11:52:49Z</time>
      </trkpt>
      <trkpt lat="50.770007176324725" lon="13.163103768602014">
        <ele>375</ele>
        <time>2026-08-29T11:52:50Z</time>
      </trkpt>
      <trkpt lat="50.770042967051268" lon="13.163143247365952">
        <ele>376</ele>
        <time>2026-08-29T11:52:51Z</time>
      </trkpt>
      <trkpt lat="50.77008118852973" lon="13.163209045305848">
        <ele>376</ele>
        <time>2026-08-29T11:52:52Z</time>
      </trkpt>
      <trkpt lat="50.77011639252305" lon="13.163269143551588">
        <ele>376</ele>
        <time>2026-08-29T11:52:53Z</time>
      </trkpt>
      <trkpt lat="50.770154530182481" lon="13.163310131058097">
        <ele>376</ele>
        <time>2026-08-29T11:52:54Z</time>
      </trkpt>
      <trkpt lat="50.770190740004182" lon="13.163353046402335">
        <ele>376</ele>
        <time>2026-08-29T11:52:55Z</time>
      </trkpt>
      <trkpt lat="50.77022829093039" lon="13.163397638127208">
        <ele>376</ele>
        <time>2026-08-29T11:52:56Z</time>
      </trkpt>
      <trkpt lat="50.77026542276144" lon="13.163432842120528">
        <ele>375</ele>
        <time>2026-08-29T11:52:57Z</time>
      </trkpt>
      <trkpt lat="50.770306829363108" lon="13.163456730544567">
        <ele>375</ele>
        <time>2026-08-29T11:52:58Z</time>
      </trkpt>
      <trkpt lat="50.770342368632555" lon="13.1634930241853">
        <ele>375</ele>
        <time>2026-08-29T11:52:59Z</time>
      </trkpt>
      <trkpt lat="50.770377907902002" lon="13.163531748577952">
        <ele>376</ele>
        <time>2026-08-29T11:53:00Z</time>
      </trkpt>
      <trkpt lat="50.770418895408511" lon="13.163573490455747">
        <ele>376</ele>
        <time>2026-08-29T11:53:01Z</time>
      </trkpt>
      <trkpt lat="50.770455943420529" lon="13.163611460477114">
        <ele>376</ele>
        <time>2026-08-29T11:53:02Z</time>
      </trkpt>
      <trkpt lat="50.770493410527706" lon="13.163656555116177">
        <ele>375</ele>
        <time>2026-08-29T11:53:03Z</time>
      </trkpt>
      <trkpt lat="50.770537750795484" lon="13.163691004738212">
        <ele>374</ele>
        <time>2026-08-29T11:53:04Z</time>
      </trkpt>
      <trkpt lat="50.770576223731041" lon="13.163715898990631">
        <ele>374</ele>
        <time>2026-08-29T11:53:05Z</time>
      </trkpt>
      <trkpt lat="50.770622827112675" lon="13.163738865405321">
        <ele>374</ele>
        <time>2026-08-29T11:53:06Z</time>
      </trkpt>
      <trkpt lat="50.770664736628532" lon="13.163761915639043">
        <ele>374</ele>
        <time>2026-08-29T11:53:07Z</time>
      </trkpt>
      <trkpt lat="50.770696001127362" lon="13.163775661960244">
        <ele>374</ele>
        <time>2026-08-29T11:53:08Z</time>
      </trkpt>
      <trkpt lat="50.770730869844556" lon="13.163802986964583">
        <ele>374</ele>
        <time>2026-08-29T11:53:09Z</time>
      </trkpt>
      <trkpt lat="50.770769091323018" lon="13.16383995115757">
        <ele>374</ele>
        <time>2026-08-29T11:53:10Z</time>
      </trkpt>
      <trkpt lat="50.770819550380111" lon="13.163869203999639">
        <ele>374</ele>
        <time>2026-08-29T11:53:11Z</time>
      </trkpt>
      <trkpt lat="50.770865986123681" lon="13.163908012211323">
        <ele>374</ele>
        <time>2026-08-29T11:53:12Z</time>
      </trkpt>
      <trkpt lat="50.770907225087285" lon="13.163932906463742">
        <ele>374</ele>
        <time>2026-08-29T11:53:13Z</time>
      </trkpt>
      <trkpt lat="50.770943770185113" lon="13.163959225639701">
        <ele>374</ele>
        <time>2026-08-29T11:53:14Z</time>
      </trkpt>
      <trkpt lat="50.770978135988116" lon="13.163984790444374">
        <ele>374</ele>
        <time>2026-08-29T11:53:15Z</time>
      </trkpt>
      <trkpt lat="50.771010657772422" lon="13.164008846506476">
        <ele>373</ele>
        <time>2026-08-29T11:53:16Z</time>
      </trkpt>
      <trkpt lat="50.77104820869863" lon="13.164027957245708">
        <ele>373</ele>
        <time>2026-08-29T11:53:17Z</time>
      </trkpt>
      <trkpt lat="50.771092800423503" lon="13.164038183167577">
        <ele>373</ele>
        <time>2026-08-29T11:53:18Z</time>
      </trkpt>
      <trkpt lat="50.77112733386457" lon="13.164057545363903">
        <ele>372</ele>
        <time>2026-08-29T11:53:19Z</time>
      </trkpt>
      <trkpt lat="50.771155329421163" lon="13.164083361625671">
        <ele>373</ele>
        <time>2026-08-29T11:53:20Z</time>
      </trkpt>
      <trkpt lat="50.771191120147705" lon="13.164105238392949">
        <ele>373</ele>
        <time>2026-08-29T11:53:21Z</time>
      </trkpt>
      <trkpt lat="50.77122749760747" lon="13.164117895066738">
        <ele>373</ele>
        <time>2026-08-29T11:53:22Z</time>
      </trkpt>
      <trkpt lat="50.771273681893945" lon="13.164134323596954">
        <ele>372</ele>
        <time>2026-08-29T11:53:23Z</time>
      </trkpt>
      <trkpt lat="50.771313915029168" lon="13.164149159565568">
        <ele>372</ele>
        <time>2026-08-29T11:53:24Z</time>
      </trkpt>
      <trkpt lat="50.77135113067925" lon="13.164161900058389">
        <ele>372</ele>
        <time>2026-08-29T11:53:25Z</time>
      </trkpt>
      <trkpt lat="50.771381556987762" lon="13.164169946685433">
        <ele>372</ele>
        <time>2026-08-29T11:53:26Z</time>
      </trkpt>
      <trkpt lat="50.771411983296275" lon="13.164175562560558">
        <ele>372</ele>
        <time>2026-08-29T11:53:27Z</time>
      </trkpt>
      <trkpt lat="50.771445510908961" lon="13.16418930888176">
        <ele>372</ele>
        <time>2026-08-29T11:53:28Z</time>
      </trkpt>
      <trkpt lat="50.77148012816906" lon="13.164197187870741">
        <ele>372</ele>
        <time>2026-08-29T11:53:29Z</time>
      </trkpt>
      <trkpt lat="50.771517679095268" lon="13.1642079167068">
        <ele>372</ele>
        <time>2026-08-29T11:53:30Z</time>
      </trkpt>
      <trkpt lat="50.771555984392762" lon="13.164215125143528">
        <ele>371</ele>
        <time>2026-08-29T11:53:31Z</time>
      </trkpt>
      <trkpt lat="50.77159252949059" lon="13.164225853979588">
        <ele>371</ele>
        <time>2026-08-29T11:53:32Z</time>
      </trkpt>
      <trkpt lat="50.771634941920638" lon="13.164239767938852">
        <ele>372</ele>
        <time>2026-08-29T11:53:33Z</time>
      </trkpt>
      <trkpt lat="50.771684814244509" lon="13.164246724918485">
        <ele>371</ele>
        <time>2026-08-29T11:53:34Z</time>
      </trkpt>
      <trkpt lat="50.771729741245508" lon="13.164248317480087">
        <ele>371</ele>
        <time>2026-08-29T11:53:35Z</time>
      </trkpt>
      <trkpt lat="50.771778607740998" lon="13.164265416562557">
        <ele>371</ele>
        <time>2026-08-29T11:53:36Z</time>
      </trkpt>
      <trkpt lat="50.771820601075888" lon="13.164283186197281">
        <ele>371</ele>
        <time>2026-08-29T11:53:37Z</time>
      </trkpt>
      <trkpt lat="50.771859241649508" lon="13.164299195632339">
        <ele>371</ele>
        <time>2026-08-29T11:53:38Z</time>
      </trkpt>
      <trkpt lat="50.771894864737988" lon="13.164306152611971">
        <ele>370</ele>
        <time>2026-08-29T11:53:39Z</time>
      </trkpt>
      <trkpt lat="50.771948592737317" lon="13.16429533995688">
        <ele>370</ele>
        <time>2026-08-29T11:53:40Z</time>
      </trkpt>
      <trkpt lat="50.772007182240486" lon="13.164293663576245">
        <ele>369</ele>
        <time>2026-08-29T11:53:41Z</time>
      </trkpt>
      <trkpt lat="50.772064849734306" lon="13.164305733516812">
        <ele>369</ele>
        <time>2026-08-29T11:53:42Z</time>
      </trkpt>
      <trkpt lat="50.77211732044816" lon="13.164299782365561">
        <ele>369</ele>
        <time>2026-08-29T11:53:43Z</time>
      </trkpt>
      <trkpt lat="50.772170629352331" lon="13.164292993023992">
        <ele>369</ele>
        <time>2026-08-29T11:53:44Z</time>
      </trkpt>
      <trkpt lat="50.772233577445149" lon="13.164282934740186">
        <ele>369</ele>
        <time>2026-08-29T11:53:45Z</time>
      </trkpt>
      <trkpt lat="50.772295938804746" lon="13.164285533130169">
        <ele>369</ele>
        <time>2026-08-29T11:53:46Z</time>
      </trkpt>
      <trkpt lat="50.772349331527948" lon="13.164280336350203">
        <ele>369</ele>
        <time>2026-08-29T11:53:47Z</time>
      </trkpt>
      <trkpt lat="50.772410267964005" lon="13.164283940568566">
        <ele>369</ele>
        <time>2026-08-29T11:53:48Z</time>
      </trkpt>
      <trkpt lat="50.772466259077191" lon="13.164276480674744">
        <ele>370</ele>
        <time>2026-08-29T11:53:49Z</time>
      </trkpt>
      <trkpt lat="50.772518310695887" lon="13.164263991639018">
        <ele>370</ele>
        <time>2026-08-29T11:53:50Z</time>
      </trkpt>
      <trkpt lat="50.772569607943296" lon="13.164247311651707">
        <ele>370</ele>
        <time>2026-08-29T11:53:51Z</time>
      </trkpt>
      <trkpt lat="50.772628532722592" lon="13.164237672463059">
        <ele>370</ele>
        <time>2026-08-29T11:53:52Z</time>
      </trkpt>
      <trkpt lat="50.772687625139952" lon="13.164219735190272">
        <ele>370</ele>
        <time>2026-08-29T11:53:53Z</time>
      </trkpt>
      <trkpt lat="50.772740431129932" lon="13.164217555895448">
        <ele>370</ele>
        <time>2026-08-29T11:53:54Z</time>
      </trkpt>
      <trkpt lat="50.772797679528594" lon="13.164203893393278">
        <ele>370</ele>
        <time>2026-08-29T11:53:55Z</time>
      </trkpt>
      <trkpt lat="50.772857191041112" lon="13.164194505661726">
        <ele>370</ele>
        <time>2026-08-29T11:53:56Z</time>
      </trkpt>
      <trkpt lat="50.772910919040442" lon="13.164173467084765">
        <ele>370</ele>
        <time>2026-08-29T11:53:57Z</time>
      </trkpt>
      <trkpt lat="50.772964563220739" lon="13.164147064089775">
        <ele>370</ele>
        <time>2026-08-29T11:53:58Z</time>
      </trkpt>
      <trkpt lat="50.773016698658466" lon="13.164117895066738">
        <ele>370</ele>
        <time>2026-08-29T11:53:59Z</time>
      </trkpt>
      <trkpt lat="50.773067157715559" lon="13.164098868146539">
        <ele>369</ele>
        <time>2026-08-29T11:54:00Z</time>
      </trkpt>
      <trkpt lat="50.773108648136258" lon="13.16408134996891">
        <ele>370</ele>
        <time>2026-08-29T11:54:01Z</time>
      </trkpt>
      <trkpt lat="50.773150641471148" lon="13.164064921438694">
        <ele>370</ele>
        <time>2026-08-29T11:54:02Z</time>
      </trkpt>
      <trkpt lat="50.773194478824735" lon="13.164037764072418">
        <ele>370</ele>
        <time>2026-08-29T11:54:03Z</time>
      </trkpt>
      <trkpt lat="50.773240830749273" lon="13.164006248116493">
        <ele>369</ele>
        <time>2026-08-29T11:54:04Z</time>
      </trkpt>
      <trkpt lat="50.773291122168303" lon="13.163978420197964">
        <ele>370</ele>
        <time>2026-08-29T11:54:05Z</time>
      </trkpt>
      <trkpt lat="50.77334770001471" lon="13.163947071880102">
        <ele>370</ele>
        <time>2026-08-29T11:54:06Z</time>
      </trkpt>
      <trkpt lat="50.773395644500852" lon="13.163911951705813">
        <ele>371</ele>
        <time>2026-08-29T11:54:07Z</time>
      </trkpt>
      <trkpt lat="50.773447696119547" lon="13.163884207606316">
        <ele>371</ele>
        <time>2026-08-29T11:54:08Z</time>
      </trkpt>
      <trkpt lat="50.773493628948927" lon="13.163853865116835">
        <ele>371</ele>
        <time>2026-08-29T11:54:09Z</time>
      </trkpt>
      <trkpt lat="50.773538807407022" lon="13.163831066340208">
        <ele>371</ele>
        <time>2026-08-29T11:54:10Z</time>
      </trkpt>
      <trkpt lat="50.773584907874465" lon="13.163805836811662">
        <ele>371</ele>
        <time>2026-08-29T11:54:11Z</time>
      </trkpt>
      <trkpt lat="50.773628577589989" lon="13.163789827376604">
        <ele>372</ele>
        <time>2026-08-29T11:54:12Z</time>
      </trkpt>
      <trkpt lat="50.773668559268117" lon="13.163771135732532">
        <ele>372</ele>
        <time>2026-08-29T11:54:13Z</time>
      </trkpt>
      <trkpt lat="50.773707032203674" lon="13.163753701373935">
        <ele>373</ele>
        <time>2026-08-29T11:54:14Z</time>
      </trkpt>
      <trkpt lat="50.773744750767946" lon="13.163737608119845">
        <ele>373</ele>
        <time>2026-08-29T11:54:15Z</time>
      </trkpt>
      <trkpt lat="50.773783391341567" lon="13.16371095366776">
        <ele>373</ele>
        <time>2026-08-29T11:54:16Z</time>
      </trkpt>
      <trkpt lat="50.773824462667108" lon="13.163692178204656">
        <ele>374</ele>
        <time>2026-08-29T11:54:17Z</time>
      </trkpt>
      <trkpt lat="50.77386268414557" lon="13.163673654198647">
        <ele>373</ele>
        <time>2026-08-29T11:54:18Z</time>
      </trkpt>
      <trkpt lat="50.773903671652079" lon="13.163662003353238">
        <ele>374</ele>
        <time>2026-08-29T11:54:19Z</time>
      </trkpt>
      <trkpt lat="50.773936277255416" lon="13.163662422448397">
        <ele>374</ele>
        <time>2026-08-29T11:54:20Z</time>
      </trkpt>
      <trkpt lat="50.77396578155458" lon="13.163656303659081">
        <ele>374</ele>
        <time>2026-08-29T11:54:21Z</time>
      </trkpt>
      <trkpt lat="50.77399168163538" lon="13.163651190698147">
        <ele>374</ele>
        <time>2026-08-29T11:54:22Z</time>
      </trkpt>
      <trkpt lat="50.774012887850404" lon="13.163646077737212">
        <ele>374</ele>
        <time>2026-08-29T11:54:23Z</time>
      </trkpt>
      <trkpt lat="50.774029400199652" lon="13.163641216233373">
        <ele>374</ele>
        <time>2026-08-29T11:54:24Z</time>
      </trkpt>
      <trkpt lat="50.774032585322857" lon="13.163639875128865">
        <ele>373</ele>
        <time>2026-08-29T11:54:25Z</time>
      </trkpt>
      <trkpt lat="50.774031411856413" lon="13.163641467690468">
        <ele>372</ele>
        <time>2026-08-29T11:54:26Z</time>
      </trkpt>
      <trkpt lat="50.774031160399318" lon="13.163641886785626">
        <ele>372</ele>
        <time>2026-08-29T11:54:27Z</time>
      </trkpt>
      <trkpt lat="50.774030741304159" lon="13.16364205442369">
        <ele>372</ele>
        <time>2026-08-29T11:54:28Z</time>
      </trkpt>
      <trkpt lat="50.774030657485127" lon="13.163642138242722">
        <ele>372</ele>
        <time>2026-08-29T11:54:29Z</time>
      </trkpt>
      <trkpt lat="50.774021940305829" lon="13.163644066080451">
        <ele>372</ele>
        <time>2026-08-29T11:54:30Z</time>
      </trkpt>
      <trkpt lat="50.774015570059419" lon="13.163643227890134">
        <ele>371</ele>
        <time>2026-08-29T11:54:31Z</time>
      </trkpt>
      <trkpt lat="50.774008696898818" lon="13.163641886785626">
        <ele>371</ele>
        <time>2026-08-29T11:54:32Z</time>
      </trkpt>
      <trkpt lat="50.774008110165596" lon="13.163642138242722">
        <ele>371</ele>
        <time>2026-08-29T11:54:33Z</time>
      </trkpt>
      <trkpt lat="50.774007858708501" lon="13.163642389699817">
        <ele>371</ele>
        <time>2026-08-29T11:54:34Z</time>
      </trkpt>
      <trkpt lat="50.774007942527533" lon="13.163644317537546">
        <ele>372</ele>
        <time>2026-08-29T11:54:35Z</time>
      </trkpt>
      <trkpt lat="50.774003500118852" lon="13.163637025281787">
        <ele>372</ele>
        <time>2026-08-29T11:54:36Z</time>
      </trkpt>
      <trkpt lat="50.774002326652408" lon="13.163650687783957">
        <ele>373</ele>
        <time>2026-08-29T11:54:37Z</time>
      </trkpt>
      <trkpt lat="50.774002159014344" lon="13.163650184869766">
        <ele>373</ele>
        <time>2026-08-29T11:54:38Z</time>
      </trkpt>
      <trkpt lat="50.774002159014344" lon="13.16365085542202">
        <ele>373</ele>
        <time>2026-08-29T11:54:39Z</time>
      </trkpt>
      <trkpt lat="50.774002159014344" lon="13.163651190698147">
        <ele>373</ele>
        <time>2026-08-29T11:54:40Z</time>
      </trkpt>
      <trkpt lat="50.774001991376281" lon="13.163651777431369">
        <ele>373</ele>
        <time>2026-08-29T11:54:41Z</time>
      </trkpt>
      <trkpt lat="50.774001739919186" lon="13.163652280345559">
        <ele>373</ele>
        <time>2026-08-29T11:54:42Z</time>
      </trkpt>
      <trkpt lat="50.774001739919186" lon="13.163652783259749">
        <ele>373</ele>
        <time>2026-08-29T11:54:43Z</time>
      </trkpt>
      <trkpt lat="50.774001572281122" lon="13.163653453812003">
        <ele>373</ele>
        <time>2026-08-29T11:54:44Z</time>
      </trkpt>
      <trkpt lat="50.774001739919186" lon="13.163653872907162">
        <ele>373</ele>
        <time>2026-08-29T11:54:45Z</time>
      </trkpt>
      <trkpt lat="50.774001907557249" lon="13.163654627278447">
        <ele>373</ele>
        <time>2026-08-29T11:54:46Z</time>
      </trkpt>
      <trkpt lat="50.774001907557249" lon="13.163655381649733">
        <ele>373</ele>
        <time>2026-08-29T11:54:47Z</time>
      </trkpt>
      <trkpt lat="50.774001823738217" lon="13.163655800744891">
        <ele>373</ele>
        <time>2026-08-29T11:54:48Z</time>
      </trkpt>
      <trkpt lat="50.77400148846209" lon="13.163655716925859">
        <ele>373</ele>
        <time>2026-08-29T11:54:49Z</time>
      </trkpt>
      <trkpt lat="50.77400148846209" lon="13.163656052201986">
        <ele>373</ele>
        <time>2026-08-29T11:54:50Z</time>
      </trkpt>
      <trkpt lat="50.774001572281122" lon="13.163656471297145">
        <ele>373</ele>
        <time>2026-08-29T11:54:51Z</time>
      </trkpt>
      <trkpt lat="50.77400148846209" lon="13.16365722566843">
        <ele>373</ele>
        <time>2026-08-29T11:54:52Z</time>
      </trkpt>
      <trkpt lat="50.774001656100154" lon="13.163658063858747">
        <ele>373</ele>
        <time>2026-08-29T11:54:53Z</time>
      </trkpt>
      <trkpt lat="50.774001739919186" lon="13.16365965642035">
        <ele>373</ele>
        <time>2026-08-29T11:54:54Z</time>
      </trkpt>
      <trkpt lat="50.774001991376281" lon="13.163660746067762">
        <ele>373</ele>
        <time>2026-08-29T11:54:55Z</time>
      </trkpt>
      <trkpt lat="50.774001991376281" lon="13.163661919534206">
        <ele>373</ele>
        <time>2026-08-29T11:54:56Z</time>
      </trkpt>
      <trkpt lat="50.774002159014344" lon="13.163662925362587">
        <ele>373</ele>
        <time>2026-08-29T11:54:57Z</time>
      </trkpt>
      <trkpt lat="50.774002578109503" lon="13.163663931190968">
        <ele>373</ele>
        <time>2026-08-29T11:54:58Z</time>
      </trkpt>
      <trkpt lat="50.774002829566598" lon="13.163664853200316">
        <ele>373</ele>
        <time>2026-08-29T11:54:59Z</time>
      </trkpt>
      <trkpt lat="50.774002997204661" lon="13.163665439933538">
        <ele>373</ele>
        <time>2026-08-29T11:55:00Z</time>
      </trkpt>
      <trkpt lat="50.774002997204661" lon="13.163665942847729">
        <ele>373</ele>
        <time>2026-08-29T11:55:01Z</time>
      </trkpt>
      <trkpt lat="50.774003332480788" lon="13.163666361942887">
        <ele>373</ele>
        <time>2026-08-29T11:55:02Z</time>
      </trkpt>
      <trkpt lat="50.774003248661757" lon="13.163666864857078">
        <ele>374</ele>
        <time>2026-08-29T11:55:03Z</time>
      </trkpt>
      <trkpt lat="50.774003081023693" lon="13.163667283952236">
        <ele>374</ele>
        <time>2026-08-29T11:55:04Z</time>
      </trkpt>
      <trkpt lat="50.774002745747566" lon="13.163667619228363">
        <ele>374</ele>
        <time>2026-08-29T11:55:05Z</time>
      </trkpt>
      <trkpt lat="50.774002410471439" lon="13.163668122142553">
        <ele>374</ele>
        <time>2026-08-29T11:55:06Z</time>
      </trkpt>
      <trkpt lat="50.774002075195313" lon="13.163668708875775">
        <ele>374</ele>
        <time>2026-08-29T11:55:07Z</time>
      </trkpt>
      <trkpt lat="50.774001739919186" lon="13.163669295608997">
        <ele>374</ele>
        <time>2026-08-29T11:55:08Z</time>
      </trkpt>
      <trkpt lat="50.774001320824027" lon="13.163669714704156">
        <ele>374</ele>
        <time>2026-08-29T11:55:09Z</time>
      </trkpt>
      <trkpt lat="50.774001237004995" lon="13.163669882342219">
        <ele>374</ele>
        <time>2026-08-29T11:55:10Z</time>
      </trkpt>
      <trkpt lat="50.774001069366932" lon="13.163670469075441">
        <ele>374</ele>
        <time>2026-08-29T11:55:11Z</time>
      </trkpt>
      <trkpt lat="50.774000817909837" lon="13.163670720532537">
        <ele>374</ele>
        <time>2026-08-29T11:55:12Z</time>
      </trkpt>
      <trkpt lat="50.774000901728868" lon="13.1636708881706">
        <ele>374</ele>
        <time>2026-08-29T11:55:13Z</time>
      </trkpt>
      <trkpt lat="50.774000650271773" lon="13.163671139627695">
        <ele>374</ele>
        <time>2026-08-29T11:55:14Z</time>
      </trkpt>
      <trkpt lat="50.77400048263371" lon="13.163671558722854">
        <ele>374</ele>
        <time>2026-08-29T11:55:15Z</time>
      </trkpt>
      <trkpt lat="50.774000314995646" lon="13.163672061637044">
        <ele>374</ele>
        <time>2026-08-29T11:55:16Z</time>
      </trkpt>
      <trkpt lat="50.773999728262424" lon="13.163672564551234">
        <ele>374</ele>
        <time>2026-08-29T11:55:17Z</time>
      </trkpt>
      <trkpt lat="50.773999392986298" lon="13.163672983646393">
        <ele>374</ele>
        <time>2026-08-29T11:55:18Z</time>
      </trkpt>
      <trkpt lat="50.773999141529202" lon="13.163673570379615">
        <ele>374</ele>
        <time>2026-08-29T11:55:19Z</time>
      </trkpt>
      <trkpt lat="50.773999225348234" lon="13.163674240931869">
        <ele>374</ele>
        <time>2026-08-29T11:55:20Z</time>
      </trkpt>
      <trkpt lat="50.773999309167266" lon="13.163674911484122">
        <ele>374</ele>
        <time>2026-08-29T11:55:21Z</time>
      </trkpt>
      <trkpt lat="50.774001739919186" lon="13.163677174597979">
        <ele>374</ele>
        <time>2026-08-29T11:55:22Z</time>
      </trkpt>
      <trkpt lat="50.77400391921401" lon="13.163683293387294">
        <ele>374</ele>
        <time>2026-08-29T11:55:23Z</time>
      </trkpt>
      <trkpt lat="50.774009367451072" lon="13.163686562329531">
        <ele>374</ele>
        <time>2026-08-29T11:55:24Z</time>
      </trkpt>
      <trkpt lat="50.774013306945562" lon="13.163689328357577">
        <ele>373</ele>
        <time>2026-08-29T11:55:25Z</time>
      </trkpt>
      <trkpt lat="50.774013558402658" lon="13.163689579814672">
        <ele>373</ele>
        <time>2026-08-29T11:55:26Z</time>
      </trkpt>
      <trkpt lat="50.774010289460421" lon="13.163692178204656">
        <ele>373</ele>
        <time>2026-08-29T11:55:27Z</time>
      </trkpt>
      <trkpt lat="50.774009115993977" lon="13.163689747452736">
        <ele>374</ele>
        <time>2026-08-29T11:55:28Z</time>
      </trkpt>
      <trkpt lat="50.77401272021234" lon="13.163689160719514">
        <ele>374</ele>
        <time>2026-08-29T11:55:29Z</time>
      </trkpt>
      <trkpt lat="50.774012301117182" lon="13.163692010566592">
        <ele>374</ele>
        <time>2026-08-29T11:55:30Z</time>
      </trkpt>
      <trkpt lat="50.774015402421355" lon="13.163686729967594">
        <ele>375</ele>
        <time>2026-08-29T11:55:31Z</time>
      </trkpt>
      <trkpt lat="50.774015570059419" lon="13.163686981424689">
        <ele>375</ele>
        <time>2026-08-29T11:55:32Z</time>
      </trkpt>
      <trkpt lat="50.774015570059419" lon="13.163686562329531">
        <ele>375</ele>
        <time>2026-08-29T11:55:33Z</time>
      </trkpt>
      <trkpt lat="50.774021940305829" lon="13.163689076900482">
        <ele>375</ele>
        <time>2026-08-29T11:55:34Z</time>
      </trkpt>
      <trkpt lat="50.774024790152907" lon="13.163691340014338">
        <ele>375</ele>
        <time>2026-08-29T11:55:35Z</time>
      </trkpt>
      <trkpt lat="50.77402152121067" lon="13.163693603128195">
        <ele>375</ele>
        <time>2026-08-29T11:55:36Z</time>
      </trkpt>
      <trkpt lat="50.774022275581956" lon="13.163692681118846">
        <ele>375</ele>
        <time>2026-08-29T11:55:37Z</time>
      </trkpt>
      <trkpt lat="50.774027137085795" lon="13.163682539016008">
        <ele>375</ele>
        <time>2026-08-29T11:55:38Z</time>
      </trkpt>
      <trkpt lat="50.77403468079865" lon="13.163677509874105">
        <ele>375</ele>
        <time>2026-08-29T11:55:39Z</time>
      </trkpt>
      <trkpt lat="50.774047756567597" lon="13.163655130192637">
        <ele>375</ele>
        <time>2026-08-29T11:55:40Z</time>
      </trkpt>
      <trkpt lat="50.774063179269433" lon="13.163629649206996">
        <ele>375</ele>
        <time>2026-08-29T11:55:41Z</time>
      </trkpt>
      <trkpt lat="50.774074578657746" lon="13.163597462698817">
        <ele>374</ele>
        <time>2026-08-29T11:55:42Z</time>
      </trkpt>
      <trkpt lat="50.77408455312252" lon="13.163566030561924">
        <ele>374</ele>
        <time>2026-08-29T11:55:43Z</time>
      </trkpt>
      <trkpt lat="50.774086648598313" lon="13.163527138531208">
        <ele>374</ele>
        <time>2026-08-29T11:55:44Z</time>
      </trkpt>
      <trkpt lat="50.77408648096025" lon="13.163486570119858">
        <ele>374</ele>
        <time>2026-08-29T11:55:45Z</time>
      </trkpt>
      <trkpt lat="50.774087570607662" lon="13.163444409146905">
        <ele>373</ele>
        <time>2026-08-29T11:55:46Z</time>
      </trkpt>
      <trkpt lat="50.774096874520183" lon="13.163403421640396">
        <ele>373</ele>
        <time>2026-08-29T11:55:47Z</time>
      </trkpt>
      <trkpt lat="50.774114476516843" lon="13.16337869502604">
        <ele>373</ele>
        <time>2026-08-29T11:55:48Z</time>
      </trkpt>
      <trkpt lat="50.774142052978277" lon="13.16335572861135">
        <ele>374</ele>
        <time>2026-08-29T11:55:49Z</time>
      </trkpt>
      <trkpt lat="50.774174071848392" lon="13.163348101079464">
        <ele>374</ele>
        <time>2026-08-29T11:55:50Z</time>
      </trkpt>
      <trkpt lat="50.774215562269092" lon="13.16334986127913">
        <ele>374</ele>
        <time>2026-08-29T11:55:51Z</time>
      </trkpt>
      <trkpt lat="50.77426677569747" lon="13.16334935836494">
        <ele>374</ele>
        <time>2026-08-29T11:55:52Z</time>
      </trkpt>
      <trkpt lat="50.774305332452059" lon="13.163354471325874">
        <ele>373</ele>
        <time>2026-08-29T11:55:53Z</time>
      </trkpt>
      <trkpt lat="50.774346319958568" lon="13.163345586508512">
        <ele>372</ele>
        <time>2026-08-29T11:55:54Z</time>
      </trkpt>
      <trkpt lat="50.774392504245043" lon="13.163331756368279">
        <ele>373</ele>
        <time>2026-08-29T11:55:55Z</time>
      </trkpt>
      <trkpt lat="50.774438269436359" lon="13.16330200061202">
        <ele>373</ele>
        <time>2026-08-29T11:55:56Z</time>
      </trkpt>
      <trkpt lat="50.774475820362568" lon="13.16324869170785">
        <ele>373</ele>
        <time>2026-08-29T11:55:57Z</time>
      </trkpt>
      <trkpt lat="50.774503396824002" lon="13.163183899596334">
        <ele>373</ele>
        <time>2026-08-29T11:55:58Z</time>
      </trkpt>
      <trkpt lat="50.77452871017158" lon="13.163126902654767">
        <ele>373</ele>
        <time>2026-08-29T11:55:59Z</time>
      </trkpt>
      <trkpt lat="50.774566931650043" lon="13.163095135241747">
        <ele>373</ele>
        <time>2026-08-29T11:56:00Z</time>
      </trkpt>
      <trkpt lat="50.774607080966234" lon="13.163069738075137">
        <ele>374</ele>
        <time>2026-08-29T11:56:01Z</time>
      </trkpt>
      <trkpt lat="50.77464060857892" lon="13.163051046431065">
        <ele>374</ele>
        <time>2026-08-29T11:56:02Z</time>
      </trkpt>
      <trkpt lat="50.77468360774219" lon="13.163030259311199">
        <ele>374</ele>
        <time>2026-08-29T11:56:03Z</time>
      </trkpt>
      <trkpt lat="50.774722415953875" lon="13.162999413907528">
        <ele>374</ele>
        <time>2026-08-29T11:56:04Z</time>
      </trkpt>
      <trkpt lat="50.774775641039014" lon="13.162975274026394">
        <ele>374</ele>
        <time>2026-08-29T11:56:05Z</time>
      </trkpt>
      <trkpt lat="50.774832051247358" lon="13.162981895729899">
        <ele>374</ele>
        <time>2026-08-29T11:56:06Z</time>
      </trkpt>
      <trkpt lat="50.774880247190595" lon="13.162985499948263">
        <ele>374</ele>
        <time>2026-08-29T11:56:07Z</time>
      </trkpt>
      <trkpt lat="50.774927940219641" lon="13.162975441664457">
        <ele>374</ele>
        <time>2026-08-29T11:56:08Z</time>
      </trkpt>
      <trkpt lat="50.774983176961541" lon="13.162985499948263">
        <ele>374</ele>
        <time>2026-08-29T11:56:09Z</time>
      </trkpt>
      <trkpt lat="50.775044281035662" lon="13.163005784153938">
        <ele>374</ele>
        <time>2026-08-29T11:56:10Z</time>
      </trkpt>
      <trkpt lat="50.775100272148848" lon="13.163011316210032">
        <ele>374</ele>
        <time>2026-08-29T11:56:11Z</time>
      </trkpt>
      <trkpt lat="50.775151820853353" lon="13.163017015904188">
        <ele>374</ele>
        <time>2026-08-29T11:56:12Z</time>
      </trkpt>
      <trkpt lat="50.775205548852682" lon="13.163026068359613">
        <ele>374</ele>
        <time>2026-08-29T11:56:13Z</time>
      </trkpt>
      <trkpt lat="50.775245111435652" lon="13.163034953176975">
        <ele>374</ele>
        <time>2026-08-29T11:56:14Z</time>
      </trkpt>
      <trkpt lat="50.775284087285399" lon="13.163048950955272">
        <ele>374</ele>
        <time>2026-08-29T11:56:15Z</time>
      </trkpt>
      <trkpt lat="50.775336809456348" lon="13.163058338686824">
        <ele>373</ele>
        <time>2026-08-29T11:56:16Z</time>
      </trkpt>
      <trkpt lat="50.775392800569534" lon="13.16307669505477">
        <ele>372</ele>
        <time>2026-08-29T11:56:17Z</time>
      </trkpt>
      <trkpt lat="50.775444181635976" lon="13.163083652034402">
        <ele>372</ele>
        <time>2026-08-29T11:56:18Z</time>
      </trkpt>
      <trkpt lat="50.775499502196908" lon="13.163095973432064">
        <ele>372</ele>
        <time>2026-08-29T11:56:19Z</time>
      </trkpt>
      <trkpt lat="50.77555381692946" lon="13.163114497438073">
        <ele>371</ele>
        <time>2026-08-29T11:56:20Z</time>
      </trkpt>
      <trkpt lat="50.775604862719774" lon="13.163127908483148">
        <ele>372</ele>
        <time>2026-08-29T11:56:21Z</time>
      </trkpt>
      <trkpt lat="50.775661021471024" lon="13.163130674511194">
        <ele>372</ele>
        <time>2026-08-29T11:56:22Z</time>
      </trkpt>
      <trkpt lat="50.775716425850987" lon="13.163127740845084">
        <ele>372</ele>
        <time>2026-08-29T11:56:23Z</time>
      </trkpt>
      <trkpt lat="50.775770237669349" lon="13.163121538236737">
        <ele>373</ele>
        <time>2026-08-29T11:56:24Z</time>
      </trkpt>
      <trkpt lat="50.775826312601566" lon="13.163118520751595">
        <ele>372</ele>
        <time>2026-08-29T11:56:25Z</time>
      </trkpt>
      <trkpt lat="50.775885656476021" lon="13.163111479952931">
        <ele>372</ele>
        <time>2026-08-29T11:56:26Z</time>
      </trkpt>
      <trkpt lat="50.775946089997888" lon="13.163104774430394">
        <ele>373</ele>
        <time>2026-08-29T11:56:27Z</time>
      </trkpt>
      <trkpt lat="50.776004260405898" lon="13.163095889613032">
        <ele>373</ele>
        <time>2026-08-29T11:56:28Z</time>
      </trkpt>
      <trkpt lat="50.776056898757815" lon="13.163078371435404">
        <ele>372</ele>
        <time>2026-08-29T11:56:29Z</time>
      </trkpt>
      <trkpt lat="50.776106854900718" lon="13.163056075572968">
        <ele>372</ele>
        <time>2026-08-29T11:56:30Z</time>
      </trkpt>
      <trkpt lat="50.7761543802917" lon="13.163038305938244">
        <ele>372</ele>
        <time>2026-08-29T11:56:31Z</time>
      </trkpt>
      <trkpt lat="50.776208527386189" lon="13.163027828559279">
        <ele>372</ele>
        <time>2026-08-29T11:56:32Z</time>
      </trkpt>
      <trkpt lat="50.776261668652296" lon="13.163007376715541">
        <ele>373</ele>
        <time>2026-08-29T11:56:33Z</time>
      </trkpt>
      <trkpt lat="50.776313468813896" lon="13.162975190207362">
        <ele>373</ele>
        <time>2026-08-29T11:56:34Z</time>
      </trkpt>
      <trkpt lat="50.776363760232925" lon="13.162950128316879">
        <ele>373</ele>
        <time>2026-08-29T11:56:35Z</time>
      </trkpt>
      <trkpt lat="50.776414386928082" lon="13.162927497178316">
        <ele>373</ele>
        <time>2026-08-29T11:56:36Z</time>
      </trkpt>
      <trkpt lat="50.776463421061635" lon="13.16291207447648">
        <ele>374</ele>
        <time>2026-08-29T11:56:37Z</time>
      </trkpt>
      <trkpt lat="50.776512119919062" lon="13.162884917110205">
        <ele>374</ele>
        <time>2026-08-29T11:56:38Z</time>
      </trkpt>
      <trkpt lat="50.776555957272649" lon="13.162852060049772">
        <ele>374</ele>
        <time>2026-08-29T11:56:39Z</time>
      </trkpt>
      <trkpt lat="50.776601051911712" lon="13.162815682590008">
        <ele>374</ele>
        <time>2026-08-29T11:56:40Z</time>
      </trkpt>
      <trkpt lat="50.776645727455616" lon="13.162770085036755">
        <ele>373</ele>
        <time>2026-08-29T11:56:41Z</time>
      </trkpt>
      <trkpt lat="50.776697192341089" lon="13.162728846073151">
        <ele>373</ele>
        <time>2026-08-29T11:56:42Z</time>
      </trkpt>
      <trkpt lat="50.776749076321721" lon="13.162689870223403">
        <ele>373</ele>
        <time>2026-08-29T11:56:43Z</time>
      </trkpt>
      <trkpt lat="50.776790147647262" lon="13.162657013162971">
        <ele>373</ele>
        <time>2026-08-29T11:56:44Z</time>
      </trkpt>
      <trkpt lat="50.7768330629915" lon="13.162602949887514">
        <ele>373</ele>
        <time>2026-08-29T11:56:45Z</time>
      </trkpt>
      <trkpt lat="50.776872793212533" lon="13.162557352334261">
        <ele>373</ele>
        <time>2026-08-29T11:56:46Z</time>
      </trkpt>
      <trkpt lat="50.776914367452264" lon="13.162510162219405">
        <ele>373</ele>
        <time>2026-08-29T11:56:47Z</time>
      </trkpt>
      <trkpt lat="50.776948817074299" lon="13.162474120035768">
        <ele>373</ele>
        <time>2026-08-29T11:56:48Z</time>
      </trkpt>
      <trkpt lat="50.77698552981019" lon="13.162425085902214">
        <ele>373</ele>
        <time>2026-08-29T11:56:49Z</time>
      </trkpt>
      <trkpt lat="50.77701972797513" lon="13.162383930757642">
        <ele>372</ele>
        <time>2026-08-29T11:56:50Z</time>
      </trkpt>
      <trkpt lat="50.777051243931055" lon="13.162333974614739">
        <ele>372</ele>
        <time>2026-08-29T11:56:51Z</time>
      </trkpt>
      <trkpt lat="50.777086280286312" lon="13.162284018471837">
        <ele>372</ele>
        <time>2026-08-29T11:56:52Z</time>
      </trkpt>
      <trkpt lat="50.777119472622871" lon="13.162233391776681">
        <ele>372</ele>
        <time>2026-08-29T11:56:53Z</time>
      </trkpt>
      <trkpt lat="50.777149815112352" lon="13.162179999053478">
        <ele>372</ele>
        <time>2026-08-29T11:56:54Z</time>
      </trkpt>
      <trkpt lat="50.777186108753085" lon="13.162127025425434">
        <ele>372</ele>
        <time>2026-08-29T11:56:55Z</time>
      </trkpt>
      <trkpt lat="50.777213266119361" lon="13.162064664065838">
        <ele>373</ele>
        <time>2026-08-29T11:56:56Z</time>
      </trkpt>
      <trkpt lat="50.777242267504334" lon="13.162009762600064">
        <ele>373</ele>
        <time>2026-08-29T11:56:57Z</time>
      </trkpt>
      <trkpt lat="50.77726598829031" lon="13.161948239430785">
        <ele>373</ele>
        <time>2026-08-29T11:56:58Z</time>
      </trkpt>
      <trkpt lat="50.777290882542729" lon="13.161884536966681">
        <ele>374</ele>
        <time>2026-08-29T11:56:59Z</time>
      </trkpt>
      <trkpt lat="50.777311837300658" lon="13.161819828674197">
        <ele>374</ele>
        <time>2026-08-29T11:57:00Z</time>
      </trkpt>
      <trkpt lat="50.777338072657585" lon="13.161754533648491">
        <ele>374</ele>
        <time>2026-08-29T11:57:01Z</time>
      </trkpt>
      <trkpt lat="50.777365984395146" lon="13.161692842841148">
        <ele>374</ele>
        <time>2026-08-29T11:57:02Z</time>
      </trkpt>
      <trkpt lat="50.777399176731706" lon="13.161631571128964">
        <ele>374</ele>
        <time>2026-08-29T11:57:03Z</time>
      </trkpt>
      <trkpt lat="50.777424657717347" lon="13.16156736575067">
        <ele>375</ele>
        <time>2026-08-29T11:57:04Z</time>
      </trkpt>
      <trkpt lat="50.777458688244224" lon="13.161499220877886">
        <ele>375</ele>
        <time>2026-08-29T11:57:05Z</time>
      </trkpt>
      <trkpt lat="50.77749028801918" lon="13.161438284441829">
        <ele>375</ele>
        <time>2026-08-29T11:57:06Z</time>
      </trkpt>
      <trkpt lat="50.777517529204488" lon="13.161376006901264">
        <ele>375</ele>
        <time>2026-08-29T11:57:07Z</time>
      </trkpt>
      <trkpt lat="50.777548458427191" lon="13.161305682733655">
        <ele>375</ele>
        <time>2026-08-29T11:57:08Z</time>
      </trkpt>
      <trkpt lat="50.777568323537707" lon="13.161238292232156">
        <ele>375</ele>
        <time>2026-08-29T11:57:09Z</time>
      </trkpt>
      <trkpt lat="50.777594391256571" lon="13.161163441836834">
        <ele>375</ele>
        <time>2026-08-29T11:57:10Z</time>
      </trkpt>
      <trkpt lat="50.777616938576102" lon="13.161083394661546">
        <ele>375</ele>
        <time>2026-08-29T11:57:11Z</time>
      </trkpt>
      <trkpt lat="50.777636803686619" lon="13.161011477932334">
        <ele>375</ele>
        <time>2026-08-29T11:57:12Z</time>
      </trkpt>
      <trkpt lat="50.77765692025423" lon="13.16094190813601">
        <ele>375</ele>
        <time>2026-08-29T11:57:13Z</time>
      </trkpt>
      <trkpt lat="50.777679048478603" lon="13.160874014720321">
        <ele>375</ele>
        <time>2026-08-29T11:57:14Z</time>
      </trkpt>
      <trkpt lat="50.77770235016942" lon="13.160801343619823">
        <ele>376</ele>
        <time>2026-08-29T11:57:15Z</time>
      </trkpt>
      <trkpt lat="50.777727160602808" lon="13.160730600357056">
        <ele>376</ele>
        <time>2026-08-29T11:57:16Z</time>
      </trkpt>
      <trkpt lat="50.777744427323341" lon="13.160665724426508">
        <ele>376</ele>
        <time>2026-08-29T11:57:17Z</time>
      </trkpt>
      <trkpt lat="50.77776144258678" lon="13.160600597038865">
        <ele>376</ele>
        <time>2026-08-29T11:57:18Z</time>
      </trkpt>
      <trkpt lat="50.777780469506979" lon="13.160532787442207">
        <ele>376</ele>
        <time>2026-08-29T11:57:19Z</time>
      </trkpt>
      <trkpt lat="50.777802933007479" lon="13.160454584285617">
        <ele>376</ele>
        <time>2026-08-29T11:57:20Z</time>
      </trkpt>
      <trkpt lat="50.777824642136693" lon="13.160371016710997">
        <ele>376</ele>
        <time>2026-08-29T11:57:21Z</time>
      </trkpt>
      <trkpt lat="50.777844758704305" lon="13.160298261791468">
        <ele>376</ele>
        <time>2026-08-29T11:57:22Z</time>
      </trkpt>
      <trkpt lat="50.77786453999579" lon="13.160229194909334">
        <ele>376</ele>
        <time>2026-08-29T11:57:23Z</time>
      </trkpt>
      <trkpt lat="50.777891362085938" lon="13.160155266523361">
        <ele>376</ele>
        <time>2026-08-29T11:57:24Z</time>
      </trkpt>
      <trkpt lat="50.777910808101296" lon="13.160088378936052">
        <ele>376</ele>
        <time>2026-08-29T11:57:25Z</time>
      </trkpt>
      <trkpt lat="50.777934109792113" lon="13.160022832453251">
        <ele>376</ele>
        <time>2026-08-29T11:57:26Z</time>
      </trkpt>
      <trkpt lat="50.777956740930676" lon="13.159964326769114">
        <ele>376</ele>
        <time>2026-08-29T11:57:27Z</time>
      </trkpt>
      <trkpt lat="50.777982724830508" lon="13.159904144704342">
        <ele>376</ele>
        <time>2026-08-29T11:57:28Z</time>
      </trkpt>
      <trkpt lat="50.777999153360724" lon="13.159850249066949">
        <ele>375</ele>
        <time>2026-08-29T11:57:29Z</time>
      </trkpt>
      <trkpt lat="50.7780194375664" lon="13.159792749211192">
        <ele>375</ele>
        <time>2026-08-29T11:57:30Z</time>
      </trkpt>
      <trkpt lat="50.778046511113644" lon="13.159728208556771">
        <ele>375</ele>
        <time>2026-08-29T11:57:31Z</time>
      </trkpt>
      <trkpt lat="50.778075428679585" lon="13.159668780863285">
        <ele>375</ele>
        <time>2026-08-29T11:57:32Z</time>
      </trkpt>
      <trkpt lat="50.778105184435844" lon="13.159615304321051">
        <ele>375</ele>
        <time>2026-08-29T11:57:33Z</time>
      </trkpt>
      <trkpt lat="50.778133012354374" lon="13.159569874405861">
        <ele>375</ele>
        <time>2026-08-29T11:57:34Z</time>
      </trkpt>
      <trkpt lat="50.778160756453872" lon="13.159524109214544">
        <ele>375</ele>
        <time>2026-08-29T11:57:35Z</time>
      </trkpt>
      <trkpt lat="50.77817777171731" lon="13.159475326538086">
        <ele>375</ele>
        <time>2026-08-29T11:57:36Z</time>
      </trkpt>
      <trkpt lat="50.778204509988427" lon="13.159423777833581">
        <ele>376</ele>
        <time>2026-08-29T11:57:37Z</time>
      </trkpt>
      <trkpt lat="50.778228817507625" lon="13.159381113946438">
        <ele>377</ele>
        <time>2026-08-29T11:57:38Z</time>
      </trkpt>
      <trkpt lat="50.778252203017473" lon="13.159331325441599">
        <ele>376</ele>
        <time>2026-08-29T11:57:39Z</time>
      </trkpt>
      <trkpt lat="50.778275839984417" lon="13.159270556643605">
        <ele>376</ele>
        <time>2026-08-29T11:57:40Z</time>
      </trkpt>
      <trkpt lat="50.77828380279243" lon="13.159227389842272">
        <ele>376</ele>
        <time>2026-08-29T11:57:41Z</time>
      </trkpt>
      <trkpt lat="50.778285898268223" lon="13.159175254404545">
        <ele>377</ele>
        <time>2026-08-29T11:57:42Z</time>
      </trkpt>
      <trkpt lat="50.778288412839174" lon="13.159120855852962">
        <ele>377</ele>
        <time>2026-08-29T11:57:43Z</time>
      </trkpt>
      <trkpt lat="50.778297130018473" lon="13.159055141732097">
        <ele>377</ele>
        <time>2026-08-29T11:57:44Z</time>
      </trkpt>
      <trkpt lat="50.778307020664215" lon="13.159005604684353">
        <ele>377</ele>
        <time>2026-08-29T11:57:45Z</time>
      </trkpt>
      <trkpt lat="50.778317665681243" lon="13.158959755674005">
        <ele>377</ele>
        <time>2026-08-29T11:57:46Z</time>
      </trkpt>
      <trkpt lat="50.778325041756034" lon="13.158910721540451">
        <ele>377</ele>
        <time>2026-08-29T11:57:47Z</time>
      </trkpt>
      <trkpt lat="50.778329987078905" lon="13.158871242776513">
        <ele>377</ele>
        <time>2026-08-29T11:57:48Z</time>
      </trkpt>
      <trkpt lat="50.778336441144347" lon="13.158824387937784">
        <ele>377</ele>
        <time>2026-08-29T11:57:49Z</time>
      </trkpt>
      <trkpt lat="50.77834633179009" lon="13.158774180337787">
        <ele>377</ele>
        <time>2026-08-29T11:57:50Z</time>
      </trkpt>
      <trkpt lat="50.778355048969388" lon="13.158735455945134">
        <ele>377</ele>
        <time>2026-08-29T11:57:51Z</time>
      </trkpt>
      <trkpt lat="50.778370471671224" lon="13.158701676875353">
        <ele>377</ele>
        <time>2026-08-29T11:57:52Z</time>
      </trkpt>
      <trkpt lat="50.778382122516632" lon="13.158665047958493">
        <ele>377</ele>
        <time>2026-08-29T11:57:53Z</time>
      </trkpt>
      <trkpt lat="50.778395030647516" lon="13.15863654948771">
        <ele>377</ele>
        <time>2026-08-29T11:57:54Z</time>
      </trkpt>
      <trkpt lat="50.778409028425813" lon="13.158603608608246">
        <ele>378</ele>
        <time>2026-08-29T11:57:55Z</time>
      </trkpt>
      <trkpt lat="50.778425373136997" lon="13.158564968034625">
        <ele>378</ele>
        <time>2026-08-29T11:57:56Z</time>
      </trkpt>
      <trkpt lat="50.778440209105611" lon="13.158535044640303">
        <ele>378</ele>
        <time>2026-08-29T11:57:57Z</time>
      </trkpt>
      <trkpt lat="50.778455631807446" lon="13.158500930294394">
        <ele>379</ele>
        <time>2026-08-29T11:57:58Z</time>
      </trkpt>
      <trkpt lat="50.778469881042838" lon="13.15847092308104">
        <ele>379</ele>
        <time>2026-08-29T11:57:59Z</time>
      </trkpt>
      <trkpt lat="50.778486812487245" lon="13.158440496772528">
        <ele>379</ele>
        <time>2026-08-29T11:58:00Z</time>
      </trkpt>
      <trkpt lat="50.778502738103271" lon="13.158405460417271">
        <ele>379</ele>
        <time>2026-08-29T11:58:01Z</time>
      </trkpt>
      <trkpt lat="50.778517657890916" lon="13.158370340242982">
        <ele>380</ele>
        <time>2026-08-29T11:58:02Z</time>
      </trkpt>
      <trkpt lat="50.778534170240164" lon="13.158330526202917">
        <ele>380</ele>
        <time>2026-08-29T11:58:03Z</time>
      </trkpt>
      <trkpt lat="50.778548838570714" lon="13.15830085426569">
        <ele>380</ele>
        <time>2026-08-29T11:58:04Z</time>
      </trkpt>
      <trkpt lat="50.778567111119628" lon="13.158267494291067">
        <ele>380</ele>
        <time>2026-08-29T11:58:05Z</time>
      </trkpt>
      <trkpt lat="50.778587143868208" lon="13.158241426572204">
        <ele>380</ele>
        <time>2026-08-29T11:58:06Z</time>
      </trkpt>
      <trkpt lat="50.778604578226805" lon="13.158204797655344">
        <ele>379</ele>
        <time>2026-08-29T11:58:07Z</time>
      </trkpt>
      <trkpt lat="50.778625281527638" lon="13.158178310841322">
        <ele>379</ele>
        <time>2026-08-29T11:58:08Z</time>
      </trkpt>
      <trkpt lat="50.778645984828472" lon="13.158144112676382">
        <ele>380</ele>
        <time>2026-08-29T11:58:09Z</time>
      </trkpt>
      <trkpt lat="50.778664089739323" lon="13.158110333606601">
        <ele>380</ele>
        <time>2026-08-29T11:58:10Z</time>
      </trkpt>
      <trkpt lat="50.778687475249171" lon="13.158065155148506">
        <ele>380</ele>
        <time>2026-08-29T11:58:11Z</time>
      </trkpt>
      <trkpt lat="50.7787084300071" lon="13.158021653071046">
        <ele>380</ele>
        <time>2026-08-29T11:58:12Z</time>
      </trkpt>
      <trkpt lat="50.778731731697917" lon="13.157987119629979">
        <ele>380</ele>
        <time>2026-08-29T11:58:13Z</time>
      </trkpt>
      <trkpt lat="50.778749668970704" lon="13.157938085496426">
        <ele>380</ele>
        <time>2026-08-29T11:58:14Z</time>
      </trkpt>
      <trkpt lat="50.778768779709935" lon="13.157897181808949">
        <ele>381</ele>
        <time>2026-08-29T11:58:15Z</time>
      </trkpt>
      <trkpt lat="50.778789902105927" lon="13.157859798520803">
        <ele>381</ele>
        <time>2026-08-29T11:58:16Z</time>
      </trkpt>
      <trkpt lat="50.778813371434808" lon="13.157810848206282">
        <ele>381</ele>
        <time>2026-08-29T11:58:17Z</time>
      </trkpt>
      <trkpt lat="50.778834912925959" lon="13.15775359980762">
        <ele>381</ele>
        <time>2026-08-29T11:58:18Z</time>
      </trkpt>
      <trkpt lat="50.778862405568361" lon="13.157705739140511">
        <ele>381</ele>
        <time>2026-08-29T11:58:19Z</time>
      </trkpt>
      <trkpt lat="50.778883947059512" lon="13.157637426629663">
        <ele>381</ele>
        <time>2026-08-29T11:58:20Z</time>
      </trkpt>
      <trkpt lat="50.778905656188726" lon="13.157559977844357">
        <ele>381</ele>
        <time>2026-08-29T11:58:21Z</time>
      </trkpt>
      <trkpt lat="50.778923342004418" lon="13.157480517402291">
        <ele>381</ele>
        <time>2026-08-29T11:58:22Z</time>
      </trkpt>
      <trkpt lat="50.778937172144651" lon="13.157383538782597">
        <ele>381</ele>
        <time>2026-08-29T11:58:23Z</time>
      </trkpt>
      <trkpt lat="50.778950331732631" lon="13.157281614840031">
        <ele>381</ele>
        <time>2026-08-29T11:58:24Z</time>
      </trkpt>
      <trkpt lat="50.778956869617105" lon="13.157176673412323">
        <ele>380</ele>
        <time>2026-08-29T11:58:25Z</time>
      </trkpt>
      <trkpt lat="50.778953181579709" lon="13.157066535204649">
        <ele>380</ele>
        <time>2026-08-29T11:58:26Z</time>
      </trkpt>
      <trkpt lat="50.778947398066521" lon="13.156959917396307">
        <ele>380</ele>
        <time>2026-08-29T11:58:27Z</time>
      </trkpt>
      <trkpt lat="50.778954941779375" lon="13.15684818662703">
        <ele>380</ele>
        <time>2026-08-29T11:58:28Z</time>
      </trkpt>
      <trkpt lat="50.778983188793063" lon="13.156752213835716">
        <ele>380</ele>
        <time>2026-08-29T11:58:29Z</time>
      </trkpt>
      <trkpt lat="50.779029373079538" lon="13.15667032264173">
        <ele>380</ele>
        <time>2026-08-29T11:58:30Z</time>
      </trkpt>
      <trkpt lat="50.779090309515595" lon="13.156616175547242">
        <ele>380</ele>
        <time>2026-08-29T11:58:31Z</time>
      </trkpt>
      <trkpt lat="50.779148479923606" lon="13.156556831672788">
        <ele>380</ele>
        <time>2026-08-29T11:58:32Z</time>
      </trkpt>
      <trkpt lat="50.779202878475189" lon="13.156500589102507">
        <ele>380</ele>
        <time>2026-08-29T11:58:33Z</time>
      </trkpt>
      <trkpt lat="50.779262222349644" lon="13.156502600759268">
        <ele>379</ele>
        <time>2026-08-29T11:58:34Z</time>
      </trkpt>
      <trkpt lat="50.779308909550309" lon="13.156536044552922">
        <ele>379</ele>
        <time>2026-08-29T11:58:35Z</time>
      </trkpt>
      <trkpt lat="50.779348304495215" lon="13.156573679298162">
        <ele>379</ele>
        <time>2026-08-29T11:58:36Z</time>
      </trkpt>
      <trkpt lat="50.779386358335614" lon="13.156592706218362">
        <ele>379</ele>
        <time>2026-08-29T11:58:37Z</time>
      </trkpt>
      <trkpt lat="50.779412258416414" lon="13.156611733138561">
        <ele>379</ele>
        <time>2026-08-29T11:58:38Z</time>
      </trkpt>
      <trkpt lat="50.779429189860821" lon="13.156632101163268">
        <ele>379</ele>
        <time>2026-08-29T11:58:39Z</time>
      </trkpt>
      <trkpt lat="50.779439667239785" lon="13.156646518036723">
        <ele>379</ele>
        <time>2026-08-29T11:58:40Z</time>
      </trkpt>
      <trkpt lat="50.779444361105561" lon="13.156662862747908">
        <ele>378</ele>
        <time>2026-08-29T11:58:41Z</time>
      </trkpt>
      <trkpt lat="50.77944821678102" lon="13.156664371490479">
        <ele>378</ele>
        <time>2026-08-29T11:58:42Z</time>
      </trkpt>
      <trkpt lat="50.779451569542289" lon="13.156676776707172">
        <ele>378</ele>
        <time>2026-08-29T11:58:43Z</time>
      </trkpt>
      <trkpt lat="50.779455928131938" lon="13.156688008457422">
        <ele>377</ele>
        <time>2026-08-29T11:58:44Z</time>
      </trkpt>
      <trkpt lat="50.779455928131938" lon="13.156698485836387">
        <ele>376</ele>
        <time>2026-08-29T11:58:45Z</time>
      </trkpt>
      <trkpt lat="50.779461208730936" lon="13.156716339290142">
        <ele>376</ele>
        <time>2026-08-29T11:58:46Z</time>
      </trkpt>
      <trkpt lat="50.779456850141287" lon="13.156728325411677">
        <ele>375</ele>
        <time>2026-08-29T11:58:47Z</time>
      </trkpt>
      <trkpt lat="50.779450060799718" lon="13.156743245199323">
        <ele>375</ele>
        <time>2026-08-29T11:58:48Z</time>
      </trkpt>
      <trkpt lat="50.779439499601722" lon="13.156741317361593">
        <ele>375</ele>
        <time>2026-08-29T11:58:49Z</time>
      </trkpt>
      <trkpt lat="50.779427429661155" lon="13.156730504706502">
        <ele>375</ele>
        <time>2026-08-29T11:58:50Z</time>
      </trkpt>
      <trkpt lat="50.779421478509903" lon="13.156721536070108">
        <ele>375</ele>
        <time>2026-08-29T11:58:51Z</time>
      </trkpt>
      <trkpt lat="50.779420891776681" lon="13.156714914366603">
        <ele>374</ele>
        <time>2026-08-29T11:58:52Z</time>
      </trkpt>
      <trkpt lat="50.77942717820406" lon="13.156718434765935">
        <ele>374</ele>
        <time>2026-08-29T11:58:53Z</time>
      </trkpt>
      <trkpt lat="50.779442600905895" lon="13.156725559383631">
        <ele>374</ele>
        <time>2026-08-29T11:58:54Z</time>
      </trkpt>
      <trkpt lat="50.77946581877768" lon="13.1567357853055">
        <ele>373</ele>
        <time>2026-08-29T11:58:55Z</time>
      </trkpt>
      <trkpt lat="50.779493395239115" lon="13.156744921579957">
        <ele>373</ele>
        <time>2026-08-29T11:58:56Z</time>
      </trkpt>
      <trkpt lat="50.779518205672503" lon="13.156766127794981">
        <ele>373</ele>
        <time>2026-08-29T11:58:57Z</time>
      </trkpt>
      <trkpt lat="50.779543938115239" lon="13.156795296818018">
        <ele>373</ele>
        <time>2026-08-29T11:58:58Z</time>
      </trkpt>
      <trkpt lat="50.779558522626758" lon="13.156847348436713">
        <ele>373</ele>
        <time>2026-08-29T11:58:59Z</time>
      </trkpt>
      <trkpt lat="50.77957327477634" lon="13.156891269609332">
        <ele>373</ele>
        <time>2026-08-29T11:59:00Z</time>
      </trkpt>
      <trkpt lat="50.779598839581013" lon="13.156944997608662">
        <ele>373</ele>
        <time>2026-08-29T11:59:01Z</time>
      </trkpt>
      <trkpt lat="50.779613172635436" lon="13.156998557969928">
        <ele>373</ele>
        <time>2026-08-29T11:59:02Z</time>
      </trkpt>
      <trkpt lat="50.779735632240772" lon="13.157157646492124">
        <ele>372</ele>
        <time>2026-08-29T11:59:06Z</time>
      </trkpt>
      <trkpt lat="50.779740326106548" lon="13.15720533952117">
        <ele>372</ele>
        <time>2026-08-29T11:59:07Z</time>
      </trkpt>
      <trkpt lat="50.779745439067483" lon="13.157248003408313">
        <ele>371</ele>
        <time>2026-08-29T11:59:08Z</time>
      </trkpt>
      <trkpt lat="50.779734374955297" lon="13.157290918752551">
        <ele>371</ele>
        <time>2026-08-29T11:59:09Z</time>
      </trkpt>
      <trkpt lat="50.779739571735263" lon="13.157318327575922">
        <ele>371</ele>
        <time>2026-08-29T11:59:10Z</time>
      </trkpt>
      <trkpt lat="50.779742253944278" lon="13.157333163544536">
        <ele>371</ele>
        <time>2026-08-29T11:59:11Z</time>
      </trkpt>
      <trkpt lat="50.779748121276498" lon="13.157366188243032">
        <ele>371</ele>
        <time>2026-08-29T11:59:12Z</time>
      </trkpt>
      <trkpt lat="50.7797687407583" lon="13.157398458570242">
        <ele>372</ele>
        <time>2026-08-29T11:59:13Z</time>
      </trkpt>
      <trkpt lat="50.779769578948617" lon="13.157409941777587">
        <ele>372</ele>
        <time>2026-08-29T11:59:14Z</time>
      </trkpt>
      <trkpt lat="50.779765052720904" lon="13.15741497091949">
        <ele>371</ele>
        <time>2026-08-29T11:59:15Z</time>
      </trkpt>
      <trkpt lat="50.779761951416731" lon="13.15740424208343">
        <ele>372</ele>
        <time>2026-08-29T11:59:16Z</time>
      </trkpt>
      <trkpt lat="50.779760191217065" lon="13.157410696148872">
        <ele>372</ele>
        <time>2026-08-29T11:59:17Z</time>
      </trkpt>
      <trkpt lat="50.779764549806714" lon="13.157417988404632">
        <ele>372</ele>
        <time>2026-08-29T11:59:18Z</time>
      </trkpt>
      <trkpt lat="50.779772009700537" lon="13.157430896535516">
        <ele>373</ele>
        <time>2026-08-29T11:59:19Z</time>
      </trkpt>
      <trkpt lat="50.779766980558634" lon="13.157436260953546">
        <ele>374</ele>
        <time>2026-08-29T11:59:20Z</time>
      </trkpt>
      <trkpt lat="50.779756670817733" lon="13.157431902363896">
        <ele>373</ele>
        <time>2026-08-29T11:59:21Z</time>
      </trkpt>
      <trkpt lat="50.779750468209386" lon="13.157424023374915">
        <ele>372</ele>
        <time>2026-08-29T11:59:22Z</time>
      </trkpt>
      <trkpt lat="50.779754491522908" lon="13.157422346994281">
        <ele>373</ele>
        <time>2026-08-29T11:59:23Z</time>
      </trkpt>
      <trkpt lat="50.779754742980003" lon="13.157421927899122">
        <ele>373</ele>
        <time>2026-08-29T11:59:24Z</time>
      </trkpt>
      <trkpt lat="50.779757844284177" lon="13.157427459955215">
        <ele>373</ele>
        <time>2026-08-29T11:59:25Z</time>
      </trkpt>
      <trkpt lat="50.779753988608718" lon="13.157433997839689">
        <ele>372</ele>
        <time>2026-08-29T11:59:26Z</time>
      </trkpt>
      <trkpt lat="50.779761280864477" lon="13.157444978132844">
        <ele>372</ele>
        <time>2026-08-29T11:59:27Z</time>
      </trkpt>
      <trkpt lat="50.779758766293526" lon="13.15745797008276">
        <ele>372</ele>
        <time>2026-08-29T11:59:28Z</time>
      </trkpt>
      <trkpt lat="50.779761699959636" lon="13.157465681433678">
        <ele>372</ele>
        <time>2026-08-29T11:59:29Z</time>
      </trkpt>
      <trkpt lat="50.779760358855128" lon="13.15745503641665">
        <ele>372</ele>
        <time>2026-08-29T11:59:30Z</time>
      </trkpt>
      <trkpt lat="50.779760694131255" lon="13.157453443855047">
        <ele>372</ele>
        <time>2026-08-29T11:59:31Z</time>
      </trkpt>
      <trkpt lat="50.779761280864477" lon="13.157456712797284">
        <ele>371</ele>
        <time>2026-08-29T11:59:32Z</time>
      </trkpt>
      <trkpt lat="50.779764549806714" lon="13.157455706968904">
        <ele>371</ele>
        <time>2026-08-29T11:59:33Z</time>
      </trkpt>
      <trkpt lat="50.779771590605378" lon="13.157465597614646">
        <ele>372</ele>
        <time>2026-08-29T11:59:34Z</time>
      </trkpt>
      <trkpt lat="50.779777709394693" lon="13.157462831586599">
        <ele>372</ele>
        <time>2026-08-29T11:59:35Z</time>
      </trkpt>
      <trkpt lat="50.779785169288516" lon="13.157471716403961">
        <ele>371</ele>
        <time>2026-08-29T11:59:36Z</time>
      </trkpt>
      <trkpt lat="50.779788522049785" lon="13.157476913183928">
        <ele>371</ele>
        <time>2026-08-29T11:59:37Z</time>
      </trkpt>
      <trkpt lat="50.77979564666748" lon="13.157490659505129">
        <ele>371</ele>
        <time>2026-08-29T11:59:38Z</time>
      </trkpt>
      <trkpt lat="50.779798999428749" lon="13.157496275380254">
        <ele>371</ele>
        <time>2026-08-29T11:59:39Z</time>
      </trkpt>
      <trkpt lat="50.779801849275827" lon="13.157495688647032">
        <ele>371</ele>
        <time>2026-08-29T11:59:40Z</time>
      </trkpt>
      <trkpt lat="50.77980050817132" lon="13.157505160197616">
        <ele>372</ele>
        <time>2026-08-29T11:59:41Z</time>
      </trkpt>
      <trkpt lat="50.779803274199367" lon="13.15750440582633">
        <ele>372</ele>
        <time>2026-08-29T11:59:42Z</time>
      </trkpt>
      <trkpt lat="50.779803190380335" lon="13.157504657283425">
        <ele>372</ele>
        <time>2026-08-29T11:59:43Z</time>
      </trkpt>
      <trkpt lat="50.779803190380335" lon="13.157505160197616">
        <ele>372</ele>
        <time>2026-08-29T11:59:44Z</time>
      </trkpt>
      <trkpt lat="50.779805537313223" lon="13.15749803557992">
        <ele>372</ele>
        <time>2026-08-29T11:59:45Z</time>
      </trkpt>
      <trkpt lat="50.779804699122906" lon="13.157485965639353">
        <ele>371</ele>
        <time>2026-08-29T11:59:46Z</time>
      </trkpt>
      <trkpt lat="50.779809392988682" lon="13.157484708353877">
        <ele>371</ele>
        <time>2026-08-29T11:59:47Z</time>
      </trkpt>
      <trkpt lat="50.779807800427079" lon="13.157503316178918">
        <ele>370</ele>
        <time>2026-08-29T11:59:48Z</time>
      </trkpt>
      <trkpt lat="50.779809141531587" lon="13.157508010044694">
        <ele>370</ele>
        <time>2026-08-29T11:59:49Z</time>
      </trkpt>
      <trkpt lat="50.779809560626745" lon="13.157507088035345">
        <ele>371</ele>
        <time>2026-08-29T11:59:50Z</time>
      </trkpt>
      <trkpt lat="50.779804615303874" lon="13.157511865720153">
        <ele>370</ele>
        <time>2026-08-29T11:59:51Z</time>
      </trkpt>
      <trkpt lat="50.779801849275827" lon="13.157514547929168">
        <ele>370</ele>
        <time>2026-08-29T11:59:52Z</time>
      </trkpt>
      <trkpt lat="50.779799837619066" lon="13.157517984509468">
        <ele>371</ele>
        <time>2026-08-29T11:59:53Z</time>
      </trkpt>
      <trkpt lat="50.779799250885844" lon="13.157519493252039">
        <ele>371</ele>
        <time>2026-08-29T11:59:54Z</time>
      </trkpt>
      <trkpt lat="50.779799502342939" lon="13.157519493252039">
        <ele>371</ele>
        <time>2026-08-29T11:59:55Z</time>
      </trkpt>
      <trkpt lat="50.779799083247781" lon="13.157519493252039">
        <ele>371</ele>
        <time>2026-08-29T11:59:56Z</time>
      </trkpt>
      <trkpt lat="50.779804531484842" lon="13.157519493252039">
        <ele>371</ele>
        <time>2026-08-29T11:59:57Z</time>
      </trkpt>
      <trkpt lat="50.779805369675159" lon="13.157523348927498">
        <ele>371</ele>
        <time>2026-08-29T11:59:58Z</time>
      </trkpt>
      <trkpt lat="50.779801933094859" lon="13.157537011429667">
        <ele>371</ele>
        <time>2026-08-29T11:59:59Z</time>
      </trkpt>
      <trkpt lat="50.779798580333591" lon="13.157544387504458">
        <ele>370</ele>
        <time>2026-08-29T12:00:00Z</time>
      </trkpt>
      <trkpt lat="50.779790701344609" lon="13.157551428303123">
        <ele>370</ele>
        <time>2026-08-29T12:00:01Z</time>
      </trkpt>
      <trkpt lat="50.779775530099869" lon="13.157548997551203">
        <ele>370</ele>
        <time>2026-08-29T12:00:02Z</time>
      </trkpt>
      <trkpt lat="50.779760861769319" lon="13.15753617323935">
        <ele>370</ele>
        <time>2026-08-29T12:00:03Z</time>
      </trkpt>
      <trkpt lat="50.779743930324912" lon="13.157516391947865">
        <ele>370</ele>
        <time>2026-08-29T12:00:04Z</time>
      </trkpt>
      <trkpt lat="50.779749630019069" lon="13.157489569857717">
        <ele>370</ele>
        <time>2026-08-29T12:00:05Z</time>
      </trkpt>
      <trkpt lat="50.779767902567983" lon="13.157471045851707">
        <ele>370</ele>
        <time>2026-08-29T12:00:06Z</time>
      </trkpt>
      <trkpt lat="50.779793718829751" lon="13.157436177134514">
        <ele>370</ele>
        <time>2026-08-29T12:00:07Z</time>
      </trkpt>
      <trkpt lat="50.779822217300534" lon="13.157398123294115">
        <ele>370</ele>
        <time>2026-08-29T12:00:08Z</time>
      </trkpt>
      <trkpt lat="50.77985281124711" lon="13.157347496598959">
        <ele>369</ele>
        <time>2026-08-29T12:00:09Z</time>
      </trkpt>
      <trkpt lat="50.779868988320231" lon="13.157277423888445">
        <ele>369</ele>
        <time>2026-08-29T12:00:10Z</time>
      </trkpt>
      <trkpt lat="50.779894217848778" lon="13.157223779708147">
        <ele>370</ele>
        <time>2026-08-29T12:00:11Z</time>
      </trkpt>
      <trkpt lat="50.779926488175988" lon="13.157174661755562">
        <ele>369</ele>
        <time>2026-08-29T12:00:12Z</time>
      </trkpt>
      <trkpt lat="50.779952388256788" lon="13.157127387821674">
        <ele>369</ele>
        <time>2026-08-29T12:00:13Z</time>
      </trkpt>
      <trkpt lat="50.779983820393682" lon="13.157075168564916">
        <ele>368</ele>
        <time>2026-08-29T12:00:14Z</time>
      </trkpt>
      <trkpt lat="50.780016090720892" lon="13.157027726992965">
        <ele>368</ele>
        <time>2026-08-29T12:00:15Z</time>
      </trkpt>
      <trkpt lat="50.78005607239902" lon="13.156971400603652">
        <ele>368</ele>
        <time>2026-08-29T12:00:16Z</time>
      </trkpt>
      <trkpt lat="50.780091946944594" lon="13.156929742544889">
        <ele>368</ele>
        <time>2026-08-29T12:00:17Z</time>
      </trkpt>
      <trkpt lat="50.780137879773974" lon="13.156875427812338">
        <ele>368</ele>
        <time>2026-08-29T12:00:18Z</time>
      </trkpt>
      <trkpt lat="50.780185740441084" lon="13.156836032867432">
        <ele>367</ele>
        <time>2026-08-29T12:00:19Z</time>
      </trkpt>
      <trkpt lat="50.780234271660447" lon="13.156796554103494">
        <ele>367</ele>
        <time>2026-08-29T12:00:20Z</time>
      </trkpt>
      <trkpt lat="50.780290849506855" lon="13.156757410615683">
        <ele>367</ele>
        <time>2026-08-29T12:00:21Z</time>
      </trkpt>
      <trkpt lat="50.78034776262939" lon="13.156717596575618">
        <ele>367</ele>
        <time>2026-08-29T12:00:22Z</time>
      </trkpt>
      <trkpt lat="50.78040543012321" lon="13.156677447259426">
        <ele>367</ele>
        <time>2026-08-29T12:00:23Z</time>
      </trkpt>
      <trkpt lat="50.780461588874459" lon="13.15665221773088">
        <ele>367</ele>
        <time>2026-08-29T12:00:24Z</time>
      </trkpt>
      <trkpt lat="50.780519340187311" lon="13.156631011515856">
        <ele>368</ele>
        <time>2026-08-29T12:00:25Z</time>
      </trkpt>
      <trkpt lat="50.780576672405005" lon="13.156610811129212">
        <ele>367</ele>
        <time>2026-08-29T12:00:26Z</time>
      </trkpt>
      <trkpt lat="50.780635848641396" lon="13.15658968873322">
        <ele>367</ele>
        <time>2026-08-29T12:00:27Z</time>
      </trkpt>
      <trkpt lat="50.780691169202328" lon="13.156572422012687">
        <ele>367</ele>
        <time>2026-08-29T12:00:28Z</time>
      </trkpt>
      <trkpt lat="50.780760990455747" lon="13.15656085498631">
        <ele>367</ele>
        <time>2026-08-29T12:00:29Z</time>
      </trkpt>
      <trkpt lat="50.780830727890134" lon="13.156541660428047">
        <ele>367</ele>
        <time>2026-08-29T12:00:30Z</time>
      </trkpt>
      <trkpt lat="50.780896106734872" lon="13.156523136422038">
        <ele>367</ele>
        <time>2026-08-29T12:00:31Z</time>
      </trkpt>
      <trkpt lat="50.780951930209994" lon="13.15652565099299">
        <ele>367</ele>
        <time>2026-08-29T12:00:32Z</time>
      </trkpt>
      <trkpt lat="50.781016051769257" lon="13.156529506668448">
        <ele>367</ele>
        <time>2026-08-29T12:00:33Z</time>
      </trkpt>
      <trkpt lat="50.781079418957233" lon="13.156537553295493">
        <ele>367</ele>
        <time>2026-08-29T12:00:34Z</time>
      </trkpt>
      <trkpt lat="50.781143372878432" lon="13.156530847772956">
        <ele>367</ele>
        <time>2026-08-29T12:00:35Z</time>
      </trkpt>
      <trkpt lat="50.781214870512486" lon="13.156527746468782">
        <ele>367</ele>
        <time>2026-08-29T12:00:36Z</time>
      </trkpt>
      <trkpt lat="50.781285110861063" lon="13.156517688184977">
        <ele>367</ele>
        <time>2026-08-29T12:00:37Z</time>
      </trkpt>
      <trkpt lat="50.781351998448372" lon="13.15652129240334">
        <ele>367</ele>
        <time>2026-08-29T12:00:38Z</time>
      </trkpt>
      <trkpt lat="50.781423076987267" lon="13.15654618665576">
        <ele>367</ele>
        <time>2026-08-29T12:00:39Z</time>
      </trkpt>
      <trkpt lat="50.781490551307797" lon="13.156571751460433">
        <ele>366</ele>
        <time>2026-08-29T12:00:40Z</time>
      </trkpt>
      <trkpt lat="50.781562719494104" lon="13.156582396477461">
        <ele>366</ele>
        <time>2026-08-29T12:00:41Z</time>
      </trkpt>
      <trkpt lat="50.781641509383917" lon="13.1566062849015">
        <ele>366</ele>
        <time>2026-08-29T12:00:42Z</time>
      </trkpt>
      <trkpt lat="50.781707558780909" lon="13.156639896333218">
        <ele>366</ele>
        <time>2026-08-29T12:00:43Z</time>
      </trkpt>
      <trkpt lat="50.781767154112458" lon="13.156671915203333">
        <ele>365</ele>
        <time>2026-08-29T12:00:44Z</time>
      </trkpt>
      <trkpt lat="50.781833622604609" lon="13.156706197187304">
        <ele>366</ele>
        <time>2026-08-29T12:00:45Z</time>
      </trkpt>
      <trkpt lat="50.781900342553854" lon="13.156741820275784">
        <ele>366</ele>
        <time>2026-08-29T12:00:46Z</time>
      </trkpt>
      <trkpt lat="50.781966140493751" lon="13.156786160543561">
        <ele>365</ele>
        <time>2026-08-29T12:00:47Z</time>
      </trkpt>
      <trkpt lat="50.782024059444666" lon="13.156832680106163">
        <ele>365</ele>
        <time>2026-08-29T12:00:48Z</time>
      </trkpt>
      <trkpt lat="50.782087510451674" lon="13.156876852735877">
        <ele>365</ele>
        <time>2026-08-29T12:00:49Z</time>
      </trkpt>
      <trkpt lat="50.782146099954844" lon="13.156945668160915">
        <ele>365</ele>
        <time>2026-08-29T12:00:50Z</time>
      </trkpt>
      <trkpt lat="50.78220846131444" lon="13.157013980671763">
        <ele>365</ele>
        <time>2026-08-29T12:00:51Z</time>
      </trkpt>
      <trkpt lat="50.782255316153169" lon="13.157069971784949">
        <ele>365</ele>
        <time>2026-08-29T12:00:52Z</time>
      </trkpt>
      <trkpt lat="50.782278617843986" lon="13.157112635672092">
        <ele>364</ele>
        <time>2026-08-29T12:00:53Z</time>
      </trkpt>
      <trkpt lat="50.782291609793901" lon="13.157138451933861">
        <ele>365</ele>
        <time>2026-08-29T12:00:54Z</time>
      </trkpt>
      <trkpt lat="50.782293621450663" lon="13.157143229618669">
        <ele>364</ele>
        <time>2026-08-29T12:00:55Z</time>
      </trkpt>
      <trkpt lat="50.782293202355504" lon="13.157145408913493">
        <ele>363</ele>
        <time>2026-08-29T12:00:56Z</time>
      </trkpt>
      <trkpt lat="50.782289011403918" lon="13.157153036445379">
        <ele>363</ele>
        <time>2026-08-29T12:00:57Z</time>
      </trkpt>
      <trkpt lat="50.782288927584887" lon="13.157153623178601">
        <ele>363</ele>
        <time>2026-08-29T12:00:58Z</time>
      </trkpt>
      <trkpt lat="50.782282808795571" lon="13.157163932919502">
        <ele>363</ele>
        <time>2026-08-29T12:00:59Z</time>
      </trkpt>
      <trkpt lat="50.782285071909428" lon="13.157179858535528">
        <ele>364</ele>
        <time>2026-08-29T12:01:00Z</time>
      </trkpt>
      <trkpt lat="50.78228959813714" lon="13.157176673412323">
        <ele>364</ele>
        <time>2026-08-29T12:01:01Z</time>
      </trkpt>
      <trkpt lat="50.782292280346155" lon="13.157188659533858">
        <ele>364</ele>
        <time>2026-08-29T12:01:02Z</time>
      </trkpt>
      <trkpt lat="50.782280378043652" lon="13.157187318429351">
        <ele>364</ele>
        <time>2026-08-29T12:01:03Z</time>
      </trkpt>
      <trkpt lat="50.782279539853334" lon="13.157179187983274">
        <ele>364</ele>
        <time>2026-08-29T12:01:04Z</time>
      </trkpt>
      <trkpt lat="50.782282389700413" lon="13.157186899334192">
        <ele>363</ele>
        <time>2026-08-29T12:01:05Z</time>
      </trkpt>
      <trkpt lat="50.78228373080492" lon="13.15718580968678">
        <ele>363</ele>
        <time>2026-08-29T12:01:06Z</time>
      </trkpt>
      <trkpt lat="50.782284401357174" lon="13.157185390591621">
        <ele>363</ele>
        <time>2026-08-29T12:01:07Z</time>
      </trkpt>
      <trkpt lat="50.78229445964098" lon="13.157196287065744">
        <ele>364</ele>
        <time>2026-08-29T12:01:08Z</time>
      </trkpt>
      <trkpt lat="50.7822968903929" lon="13.157192682847381">
        <ele>364</ele>
        <time>2026-08-29T12:01:09Z</time>
      </trkpt>
      <trkpt lat="50.782306529581547" lon="13.157190335914493">
        <ele>364</ele>
        <time>2026-08-29T12:01:10Z</time>
      </trkpt>
      <trkpt lat="50.782318767160177" lon="13.157193688675761">
        <ele>364</ele>
        <time>2026-08-29T12:01:11Z</time>
      </trkpt>
      <trkpt lat="50.782329412177205" lon="13.157196873798966">
        <ele>365</ele>
        <time>2026-08-29T12:01:12Z</time>
      </trkpt>
      <trkpt lat="50.782342236489058" lon="13.15720634534955">
        <ele>365</ele>
        <time>2026-08-29T12:01:13Z</time>
      </trkpt>
      <trkpt lat="50.782353300601244" lon="13.157229982316494">
        <ele>364</ele>
        <time>2026-08-29T12:01:14Z</time>
      </trkpt>
      <trkpt lat="50.78236092813313" lon="13.157242722809315">
        <ele>365</ele>
        <time>2026-08-29T12:01:15Z</time>
      </trkpt>
      <trkpt lat="50.782357910647988" lon="13.15725127235055">
        <ele>365</ele>
        <time>2026-08-29T12:01:16Z</time>
      </trkpt>
      <trkpt lat="50.782350618392229" lon="13.157241716980934">
        <ele>365</ele>
        <time>2026-08-29T12:01:17Z</time>
      </trkpt>
      <trkpt lat="50.782347684726119" lon="13.157239872962236">
        <ele>365</ele>
        <time>2026-08-29T12:01:18Z</time>
      </trkpt>
      <trkpt lat="50.782347517088056" lon="13.1572400406003">
        <ele>365</ele>
        <time>2026-08-29T12:01:19Z</time>
      </trkpt>
      <trkpt lat="50.782347181811929" lon="13.1572400406003">
        <ele>365</ele>
        <time>2026-08-29T12:01:20Z</time>
      </trkpt>
      <trkpt lat="50.78234676271677" lon="13.157239956781268">
        <ele>365</ele>
        <time>2026-08-29T12:01:21Z</time>
      </trkpt>
      <trkpt lat="50.782346427440643" lon="13.1572400406003">
        <ele>365</ele>
        <time>2026-08-29T12:01:22Z</time>
      </trkpt>
      <trkpt lat="50.782346008345485" lon="13.157240208238363">
        <ele>365</ele>
        <time>2026-08-29T12:01:23Z</time>
      </trkpt>
      <trkpt lat="50.782345421612263" lon="13.157240459695458">
        <ele>365</ele>
        <time>2026-08-29T12:01:24Z</time>
      </trkpt>
      <trkpt lat="50.782345170155168" lon="13.157240878790617">
        <ele>365</ele>
        <time>2026-08-29T12:01:25Z</time>
      </trkpt>
      <trkpt lat="50.782340476289392" lon="13.157243309542537">
        <ele>365</ele>
        <time>2026-08-29T12:01:26Z</time>
      </trkpt>
      <trkpt lat="50.782334357500076" lon="13.157248003408313">
        <ele>366</ele>
        <time>2026-08-29T12:01:27Z</time>
      </trkpt>
      <trkpt lat="50.782342404127121" lon="13.157256469130516">
        <ele>366</ele>
        <time>2026-08-29T12:01:28Z</time>
      </trkpt>
      <trkpt lat="50.782347349449992" lon="13.157252948731184">
        <ele>366</ele>
        <time>2026-08-29T12:01:29Z</time>
      </trkpt>
      <trkpt lat="50.782353049144149" lon="13.157255798578262">
        <ele>365</ele>
        <time>2026-08-29T12:01:30Z</time>
      </trkpt>
      <trkpt lat="50.782345086336136" lon="13.15724884159863">
        <ele>365</ele>
        <time>2026-08-29T12:01:31Z</time>
      </trkpt>
      <trkpt lat="50.782345421612263" lon="13.157241381704807">
        <ele>365</ele>
        <time>2026-08-29T12:01:32Z</time>
      </trkpt>
      <trkpt lat="50.782346678897738" lon="13.157234760001302">
        <ele>365</ele>
        <time>2026-08-29T12:01:33Z</time>
      </trkpt>
      <trkpt lat="50.782353468239307" lon="13.157230485230684">
        <ele>365</ele>
        <time>2026-08-29T12:01:34Z</time>
      </trkpt>
      <trkpt lat="50.782358581200242" lon="13.157224953174591">
        <ele>365</ele>
        <time>2026-08-29T12:01:35Z</time>
      </trkpt>
      <trkpt lat="50.782356150448322" lon="13.15722931176424">
        <ele>365</ele>
        <time>2026-08-29T12:01:36Z</time>
      </trkpt>
      <trkpt lat="50.78236143104732" lon="13.157238783314824">
        <ele>365</ele>
        <time>2026-08-29T12:01:37Z</time>
      </trkpt>
      <trkpt lat="50.782356988638639" lon="13.157253032550216">
        <ele>365</ele>
        <time>2026-08-29T12:01:38Z</time>
      </trkpt>
      <trkpt lat="50.782353300601244" lon="13.157273568212986">
        <ele>365</ele>
        <time>2026-08-29T12:01:39Z</time>
      </trkpt>
      <trkpt lat="50.782354809343815" lon="13.157291756942868">
        <ele>365</ele>
        <time>2026-08-29T12:01:40Z</time>
      </trkpt>
      <trkpt lat="50.782354641705751" lon="13.157297288998961">
        <ele>365</ele>
        <time>2026-08-29T12:01:41Z</time>
      </trkpt>
      <trkpt lat="50.782379871234298" lon="13.157345736399293">
        <ele>364</ele>
        <time>2026-08-29T12:01:42Z</time>
      </trkpt>
      <trkpt lat="50.782407280057669" lon="13.157379180192947">
        <ele>365</ele>
        <time>2026-08-29T12:01:43Z</time>
      </trkpt>
      <trkpt lat="50.782434772700071" lon="13.157412288710475">
        <ele>365</ele>
        <time>2026-08-29T12:01:44Z</time>
      </trkpt>
      <trkpt lat="50.782467545941472" lon="13.157456461340189">
        <ele>364</ele>
        <time>2026-08-29T12:01:45Z</time>
      </trkpt>
      <trkpt lat="50.782493948936462" lon="13.157503735274076">
        <ele>364</ele>
        <time>2026-08-29T12:01:46Z</time>
      </trkpt>
      <trkpt lat="50.78252705745399" lon="13.157549751922488">
        <ele>365</ele>
        <time>2026-08-29T12:01:47Z</time>
      </trkpt>
      <trkpt lat="50.782573912292719" lon="13.157626613974571">
        <ele>364</ele>
        <time>2026-08-29T12:01:48Z</time>
      </trkpt>
      <trkpt lat="50.78263551928103" lon="13.157690903171897">
        <ele>363</ele>
        <time>2026-08-29T12:01:49Z</time>
      </trkpt>
      <trkpt lat="50.782686481252313" lon="13.15775896422565">
        <ele>363</ele>
        <time>2026-08-29T12:01:50Z</time>
      </trkpt>
      <trkpt lat="50.782729899510741" lon="13.157834904268384">
        <ele>363</ele>
        <time>2026-08-29T12:01:51Z</time>
      </trkpt>
      <trkpt lat="50.782781699672341" lon="13.157904390245676">
        <ele>363</ele>
        <time>2026-08-29T12:01:52Z</time>
      </trkpt>
      <trkpt lat="50.782826878130436" lon="13.157979659736156">
        <ele>364</ele>
        <time>2026-08-29T12:01:53Z</time>
      </trkpt>
      <trkpt lat="50.782865015789866" lon="13.158035902306437">
        <ele>364</ele>
        <time>2026-08-29T12:01:54Z</time>
      </trkpt>
      <trkpt lat="50.782910278066993" lon="13.158108573406935">
        <ele>364</ele>
        <time>2026-08-29T12:01:55Z</time>
      </trkpt>
      <trkpt lat="50.782962748780847" lon="13.158163223415613">
        <ele>365</ele>
        <time>2026-08-29T12:01:56Z</time>
      </trkpt>
      <trkpt lat="50.783004909753799" lon="13.158220136538148">
        <ele>365</ele>
        <time>2026-08-29T12:01:57Z</time>
      </trkpt>
      <trkpt lat="50.783041957765818" lon="13.158277301117778">
        <ele>365</ele>
        <time>2026-08-29T12:01:58Z</time>
      </trkpt>
      <trkpt lat="50.783089650794864" lon="13.158336225897074">
        <ele>366</ele>
        <time>2026-08-29T12:01:59Z</time>
      </trkpt>
      <trkpt lat="50.783143127337098" lon="13.158390875905752">
        <ele>366</ele>
        <time>2026-08-29T12:02:00Z</time>
      </trkpt>
      <trkpt lat="50.783182438462973" lon="13.158443178981543">
        <ele>366</ele>
        <time>2026-08-29T12:02:01Z</time>
      </trkpt>
      <trkpt lat="50.783230299130082" lon="13.158494140952826">
        <ele>367</ele>
        <time>2026-08-29T12:02:02Z</time>
      </trkpt>
      <trkpt lat="50.783284110948443" lon="13.158544348552823">
        <ele>366</ele>
        <time>2026-08-29T12:02:03Z</time>
      </trkpt>
      <trkpt lat="50.783328786492348" lon="13.158602016046643">
        <ele>366</ele>
        <time>2026-08-29T12:02:04Z</time>
      </trkpt>
      <trkpt lat="50.783378910273314" lon="13.158664545044303">
        <ele>366</ele>
        <time>2026-08-29T12:02:05Z</time>
      </trkpt>
      <trkpt lat="50.783434398472309" lon="13.158728582784534">
        <ele>366</ele>
        <time>2026-08-29T12:02:06Z</time>
      </trkpt>
      <trkpt lat="50.783485611900687" lon="13.158778706565499">
        <ele>365</ele>
        <time>2026-08-29T12:02:07Z</time>
      </trkpt>
      <trkpt lat="50.783536154776812" lon="13.158829836174846">
        <ele>365</ele>
        <time>2026-08-29T12:02:08Z</time>
      </trkpt>
      <trkpt lat="50.783584853634238" lon="13.158877696841955">
        <ele>366</ele>
        <time>2026-08-29T12:02:09Z</time>
      </trkpt>
      <trkpt lat="50.783648807555437" lon="13.158933520317078">
        <ele>366</ele>
        <time>2026-08-29T12:02:10Z</time>
      </trkpt>
      <trkpt lat="50.783688873052597" lon="13.158994456753135">
        <ele>365</ele>
        <time>2026-08-29T12:02:11Z</time>
      </trkpt>
      <trkpt lat="50.783727429807186" lon="13.159047933295369">
        <ele>365</ele>
        <time>2026-08-29T12:02:12Z</time>
      </trkpt>
      <trkpt lat="50.783776296302676" lon="13.159105181694031">
        <ele>365</ele>
        <time>2026-08-29T12:02:13Z</time>
      </trkpt>
      <trkpt lat="50.783822229132056" lon="13.159161675721407">
        <ele>365</ele>
        <time>2026-08-29T12:02:14Z</time>
      </trkpt>
      <trkpt lat="50.78386296518147" lon="13.1592190079391">
        <ele>366</ele>
        <time>2026-08-29T12:02:15Z</time>
      </trkpt>
      <trkpt lat="50.783902779221535" lon="13.159260330721736">
        <ele>366</ele>
        <time>2026-08-29T12:02:16Z</time>
      </trkpt>
      <trkpt lat="50.783950472250581" lon="13.159318501129746">
        <ele>365</ele>
        <time>2026-08-29T12:02:17Z</time>
      </trkpt>
      <trkpt lat="50.783999925479293" lon="13.159382538869977">
        <ele>365</ele>
        <time>2026-08-29T12:02:18Z</time>
      </trkpt>
      <trkpt lat="50.784061197191477" lon="13.159416234120727">
        <ele>365</ele>
        <time>2026-08-29T12:02:19Z</time>
      </trkpt>
      <trkpt lat="50.784124732017517" lon="13.159420760348439">
        <ele>366</ele>
        <time>2026-08-29T12:02:20Z</time>
      </trkpt>
      <trkpt lat="50.784187596291304" lon="13.15941346809268">
        <ele>365</ele>
        <time>2026-08-29T12:02:21Z</time>
      </trkpt>
      <trkpt lat="50.784242916852236" lon="13.159401901066303">
        <ele>366</ele>
        <time>2026-08-29T12:02:22Z</time>
      </trkpt>
      <trkpt lat="50.784304020926356" lon="13.159393602982163">
        <ele>366</ele>
        <time>2026-08-29T12:02:23Z</time>
      </trkpt>
      <trkpt lat="50.784366298466921" lon="13.159391926601529">
        <ele>366</ele>
        <time>2026-08-29T12:02:24Z</time>
      </trkpt>
      <trkpt lat="50.784436287358403" lon="13.159390753135085">
        <ele>366</ele>
        <time>2026-08-29T12:02:25Z</time>
      </trkpt>
      <trkpt lat="50.784504599869251" lon="13.15939393825829">
        <ele>367</ele>
        <time>2026-08-29T12:02:26Z</time>
      </trkpt>
      <trkpt lat="50.784574840217829" lon="13.159407433122396">
        <ele>366</ele>
        <time>2026-08-29T12:02:27Z</time>
      </trkpt>
      <trkpt lat="50.784652372822165" lon="13.159409277141094">
        <ele>367</ele>
        <time>2026-08-29T12:02:28Z</time>
      </trkpt>
      <trkpt lat="50.784711884334683" lon="13.159436853602529">
        <ele>367</ele>
        <time>2026-08-29T12:02:29Z</time>
      </trkpt>
      <trkpt lat="50.784777933731675" lon="13.159444984048605">
        <ele>367</ele>
        <time>2026-08-29T12:02:30Z</time>
      </trkpt>
      <trkpt lat="50.784840378910303" lon="13.159432578831911">
        <ele>367</ele>
        <time>2026-08-29T12:02:31Z</time>
      </trkpt>
      <trkpt lat="50.784898549318314" lon="13.159408355131745">
        <ele>367</ele>
        <time>2026-08-29T12:02:32Z</time>
      </trkpt>
      <trkpt lat="50.784956971183419" lon="13.159358147531748">
        <ele>367</ele>
        <time>2026-08-29T12:02:33Z</time>
      </trkpt>
      <trkpt lat="50.785019835457206" lon="13.159308023750782">
        <ele>367</ele>
        <time>2026-08-29T12:02:34Z</time>
      </trkpt>
      <trkpt lat="50.785072222352028" lon="13.159246165305376">
        <ele>367</ele>
        <time>2026-08-29T12:02:35Z</time>
      </trkpt>
      <trkpt lat="50.785128129646182" lon="13.159160502254963">
        <ele>367</ele>
        <time>2026-08-29T12:02:36Z</time>
      </trkpt>
      <trkpt lat="50.785168949514627" lon="13.159080035984516">
        <ele>367</ele>
        <time>2026-08-29T12:02:37Z</time>
      </trkpt>
      <trkpt lat="50.785201387479901" lon="13.158986577764153">
        <ele>367</ele>
        <time>2026-08-29T12:02:38Z</time>
      </trkpt>
      <trkpt lat="50.785207422450185" lon="13.158877529203892">
        <ele>367</ele>
        <time>2026-08-29T12:02:39Z</time>
      </trkpt>
      <trkpt lat="50.78522477298975" lon="13.158776946365833">
        <ele>367</ele>
        <time>2026-08-29T12:02:40Z</time>
      </trkpt>
      <trkpt lat="50.785226030275226" lon="13.158687930554152">
        <ele>367</ele>
        <time>2026-08-29T12:02:41Z</time>
      </trkpt>
      <trkpt lat="50.785195603966713" lon="13.158578043803573">
        <ele>367</ele>
        <time>2026-08-29T12:02:42Z</time>
      </trkpt>
      <trkpt lat="50.785169871523976" lon="13.158465642482042">
        <ele>368</ele>
        <time>2026-08-29T12:02:43Z</time>
      </trkpt>
      <trkpt lat="50.785150257870555" lon="13.158366568386555">
        <ele>368</ele>
        <time>2026-08-29T12:02:44Z</time>
      </trkpt>
      <trkpt lat="50.785130392760038" lon="13.1582588609308">
        <ele>368</ele>
        <time>2026-08-29T12:02:45Z</time>
      </trkpt>
      <trkpt lat="50.785136679187417" lon="13.158153835684061">
        <ele>368</ele>
        <time>2026-08-29T12:02:46Z</time>
      </trkpt>
      <trkpt lat="50.785147659480572" lon="13.15805115737021">
        <ele>369</ele>
        <time>2026-08-29T12:02:47Z</time>
      </trkpt>
      <trkpt lat="50.785164339467883" lon="13.157960632815957">
        <ele>369</ele>
        <time>2026-08-29T12:02:48Z</time>
      </trkpt>
      <trkpt lat="50.785189904272556" lon="13.157865246757865">
        <ele>369</ele>
        <time>2026-08-29T12:02:49Z</time>
      </trkpt>
      <trkpt lat="50.785212619230151" lon="13.157768016681075">
        <ele>367</ele>
        <time>2026-08-29T12:02:50Z</time>
      </trkpt>
      <trkpt lat="50.785228712484241" lon="13.157669613137841">
        <ele>367</ele>
        <time>2026-08-29T12:02:51Z</time>
      </trkpt>
      <trkpt lat="50.785235166549683" lon="13.157572131603956">
        <ele>366</ele>
        <time>2026-08-29T12:02:52Z</time>
      </trkpt>
      <trkpt lat="50.785236088559031" lon="13.157471045851707">
        <ele>365</ele>
        <time>2026-08-29T12:02:53Z</time>
      </trkpt>
      <trkpt lat="50.78522527590394" lon="13.157385801896453">
        <ele>365</ele>
        <time>2026-08-29T12:02:54Z</time>
      </trkpt>
      <trkpt lat="50.785210691392422" lon="13.1572952773422">
        <ele>365</ele>
        <time>2026-08-29T12:02:55Z</time>
      </trkpt>
      <trkpt lat="50.785170122981071" lon="13.157208021730185">
        <ele>365</ele>
        <time>2026-08-29T12:02:56Z</time>
      </trkpt>
      <trkpt lat="50.785125279799104" lon="13.157126298174262">
        <ele>365</ele>
        <time>2026-08-29T12:02:57Z</time>
      </trkpt>
      <trkpt lat="50.785081861540675" lon="13.157050693407655">
        <ele>365</ele>
        <time>2026-08-29T12:02:58Z</time>
      </trkpt>
      <trkpt lat="50.785032659769058" lon="13.156965784728527">
        <ele>364</ele>
        <time>2026-08-29T12:02:59Z</time>
      </trkpt>
      <trkpt lat="50.784988570958376" lon="13.156845001503825">
        <ele>364</ele>
        <time>2026-08-29T12:03:00Z</time>
      </trkpt>
      <trkpt lat="50.784954624250531" lon="13.156739808619022">
        <ele>365</ele>
        <time>2026-08-29T12:03:01Z</time>
      </trkpt>
      <trkpt lat="50.784927718341351" lon="13.156629418954253">
        <ele>365</ele>
        <time>2026-08-29T12:03:02Z</time>
      </trkpt>
      <trkpt lat="50.784905338659883" lon="13.156523806974292">
        <ele>365</ele>
        <time>2026-08-29T12:03:03Z</time>
      </trkpt>
      <trkpt lat="50.784891257062554" lon="13.156399419531226">
        <ele>364</ele>
        <time>2026-08-29T12:03:04Z</time>
      </trkpt>
      <trkpt lat="50.784894777461886" lon="13.156278301030397">
        <ele>363</ele>
        <time>2026-08-29T12:03:05Z</time>
      </trkpt>
      <trkpt lat="50.784895112738013" lon="13.156143268570304">
        <ele>363</ele>
        <time>2026-08-29T12:03:06Z</time>
      </trkpt>
      <trkpt lat="50.784902488812804" lon="13.156034387648106">
        <ele>363</ele>
        <time>2026-08-29T12:03:07Z</time>
      </trkpt>
      <trkpt lat="50.784915816038847" lon="13.155913101509213">
        <ele>363</ele>
        <time>2026-08-29T12:03:08Z</time>
      </trkpt>
      <trkpt lat="50.784935848787427" lon="13.155808579176664">
        <ele>362</ele>
        <time>2026-08-29T12:03:09Z</time>
      </trkpt>
      <trkpt lat="50.78496091067791" lon="13.155702212825418">
        <ele>362</ele>
        <time>2026-08-29T12:03:10Z</time>
      </trkpt>
      <trkpt lat="50.784989660605788" lon="13.155599283054471">
        <ele>361</ele>
        <time>2026-08-29T12:03:11Z</time>
      </trkpt>
      <trkpt lat="50.785028971731663" lon="13.155501466244459">
        <ele>361</ele>
        <time>2026-08-29T12:03:12Z</time>
      </trkpt>
      <trkpt lat="50.785057805478573" lon="13.15541697666049">
        <ele>361</ele>
        <time>2026-08-29T12:03:13Z</time>
      </trkpt>
      <trkpt lat="50.785099128261209" lon="13.155347071588039">
        <ele>361</ele>
        <time>2026-08-29T12:03:14Z</time>
      </trkpt>
      <trkpt lat="50.785145564004779" lon="13.155273394659162">
        <ele>361</ele>
        <time>2026-08-29T12:03:15Z</time>
      </trkpt>
      <trkpt lat="50.785198202356696" lon="13.155205165967345">
        <ele>362</ele>
        <time>2026-08-29T12:03:16Z</time>
      </trkpt>
      <trkpt lat="50.785253020003438" lon="13.155140541493893">
        <ele>362</ele>
        <time>2026-08-29T12:03:17Z</time>
      </trkpt>
      <trkpt lat="50.78530884347856" lon="13.155059237033129">
        <ele>362</ele>
        <time>2026-08-29T12:03:18Z</time>
      </trkpt>
      <trkpt lat="50.785373048856854" lon="13.154991343617439">
        <ele>363</ele>
        <time>2026-08-29T12:03:19Z</time>
      </trkpt>
      <trkpt lat="50.785448150709271" lon="13.154929568991065">
        <ele>363</ele>
        <time>2026-08-29T12:03:20Z</time>
      </trkpt>
      <trkpt lat="50.785529287531972" lon="13.154876763001084">
        <ele>363</ele>
        <time>2026-08-29T12:03:21Z</time>
      </trkpt>
      <trkpt lat="50.78560589812696" lon="13.154844827950001">
        <ele>363</ele>
        <time>2026-08-29T12:03:22Z</time>
      </trkpt>
      <trkpt lat="50.785698182880878" lon="13.154824795201421">
        <ele>363</ele>
        <time>2026-08-29T12:03:23Z</time>
      </trkpt>
      <trkpt lat="50.785792395472527" lon="13.154819430783391">
        <ele>363</ele>
        <time>2026-08-29T12:03:24Z</time>
      </trkpt>
      <trkpt lat="50.785884261131287" lon="13.154818676412106">
        <ele>363</ele>
        <time>2026-08-29T12:03:25Z</time>
      </trkpt>
      <trkpt lat="50.785972187295556" lon="13.154808199033141">
        <ele>363</ele>
        <time>2026-08-29T12:03:26Z</time>
      </trkpt>
      <trkpt lat="50.786053072661161" lon="13.154796799644828">
        <ele>363</ele>
        <time>2026-08-29T12:03:27Z</time>
      </trkpt>
      <trkpt lat="50.786129096522927" lon="13.154812641441822">
        <ele>363</ele>
        <time>2026-08-29T12:03:28Z</time>
      </trkpt>
      <trkpt lat="50.786209981888533" lon="13.154822615906596">
        <ele>363</ele>
        <time>2026-08-29T12:03:29Z</time>
      </trkpt>
      <trkpt lat="50.786280808970332" lon="13.154827812686563">
        <ele>363</ele>
        <time>2026-08-29T12:03:30Z</time>
      </trkpt>
      <trkpt lat="50.7863549888134" lon="13.154839044436812">
        <ele>362</ele>
        <time>2026-08-29T12:03:31Z</time>
      </trkpt>
      <trkpt lat="50.786420702934265" lon="13.154846839606762">
        <ele>361</ele>
        <time>2026-08-29T12:03:32Z</time>
      </trkpt>
      <trkpt lat="50.786489518359303" lon="13.154868381097913">
        <ele>361</ele>
        <time>2026-08-29T12:03:33Z</time>
      </trkpt>
      <trkpt lat="50.786554478108883" lon="13.154883300885558">
        <ele>361</ele>
        <time>2026-08-29T12:03:34Z</time>
      </trkpt>
      <trkpt lat="50.786632597446442" lon="13.15490291453898">
        <ele>360</ele>
        <time>2026-08-29T12:03:35Z</time>
      </trkpt>
      <trkpt lat="50.786714069545269" lon="13.154942560940981">
        <ele>360</ele>
        <time>2026-08-29T12:03:36Z</time>
      </trkpt>
      <trkpt lat="50.786777436733246" lon="13.154987404122949">
        <ele>359</ele>
        <time>2026-08-29T12:03:37Z</time>
      </trkpt>
      <trkpt lat="50.78686410561204" lon="13.155031409114599">
        <ele>359</ele>
        <time>2026-08-29T12:03:38Z</time>
      </trkpt>
      <trkpt lat="50.786924455314875" lon="13.15509301610291">
        <ele>359</ele>
        <time>2026-08-29T12:03:39Z</time>
      </trkpt>
      <trkpt lat="50.78699016943574" lon="13.155148671939969">
        <ele>358</ele>
        <time>2026-08-29T12:03:40Z</time>
      </trkpt>
      <trkpt lat="50.787064014002681" lon="13.155202735215425">
        <ele>358</ele>
        <time>2026-08-29T12:03:41Z</time>
      </trkpt>
      <trkpt lat="50.787126794457436" lon="13.155255541205406">
        <ele>359</ele>
        <time>2026-08-29T12:03:42Z</time>
      </trkpt>
      <trkpt lat="50.787202483043075" lon="13.155300803482533">
        <ele>359</ele>
        <time>2026-08-29T12:03:43Z</time>
      </trkpt>
      <trkpt lat="50.787266604602337" lon="13.155336007475853">
        <ele>358</ele>
        <time>2026-08-29T12:03:44Z</time>
      </trkpt>
      <trkpt lat="50.787337515503168" lon="13.155380263924599">
        <ele>358</ele>
        <time>2026-08-29T12:03:45Z</time>
      </trkpt>
      <trkpt lat="50.787412198260427" lon="13.155430890619755">
        <ele>358</ele>
        <time>2026-08-29T12:03:46Z</time>
      </trkpt>
      <trkpt lat="50.787497023120522" lon="13.155480343848467">
        <ele>357</ele>
        <time>2026-08-29T12:03:47Z</time>
      </trkpt>
      <trkpt lat="50.787562150508165" lon="13.155528120696545">
        <ele>357</ele>
        <time>2026-08-29T12:03:48Z</time>
      </trkpt>
      <trkpt lat="50.787626439705491" lon="13.155581513419747">
        <ele>357</ele>
        <time>2026-08-29T12:03:49Z</time>
      </trkpt>
      <trkpt lat="50.787686035037041" lon="13.155625434592366">
        <ele>357</ele>
        <time>2026-08-29T12:03:50Z</time>
      </trkpt>
      <trkpt lat="50.787756023928523" lon="13.155665080994368">
        <ele>357</ele>
        <time>2026-08-29T12:03:51Z</time>
      </trkpt>
      <trkpt lat="50.78781109303236" lon="13.155709085986018">
        <ele>357</ele>
        <time>2026-08-29T12:03:52Z</time>
      </trkpt>
      <trkpt lat="50.787867000326514" lon="13.155741523951292">
        <ele>357</ele>
        <time>2026-08-29T12:03:53Z</time>
      </trkpt>
      <trkpt lat="50.787925338372588" lon="13.155763149261475">
        <ele>357</ele>
        <time>2026-08-29T12:03:54Z</time>
      </trkpt>
      <trkpt lat="50.787978898733854" lon="13.155785780400038">
        <ele>358</ele>
        <time>2026-08-29T12:03:55Z</time>
      </trkpt>
      <trkpt lat="50.788038158789277" lon="13.155808914452791">
        <ele>357</ele>
        <time>2026-08-29T12:03:56Z</time>
      </trkpt>
      <trkpt lat="50.788089372217655" lon="13.155839005485177">
        <ele>356</ele>
        <time>2026-08-29T12:03:57Z</time>
      </trkpt>
      <trkpt lat="50.788136059418321" lon="13.155845543369651">
        <ele>356</ele>
        <time>2026-08-29T12:03:58Z</time>
      </trkpt>
      <trkpt lat="50.788172101601958" lon="13.155877059325576">
        <ele>355</ele>
        <time>2026-08-29T12:03:59Z</time>
      </trkpt>
      <trkpt lat="50.788231277838349" lon="13.155921315774322">
        <ele>355</ele>
        <time>2026-08-29T12:04:00Z</time>
      </trkpt>
      <trkpt lat="50.788273857906461" lon="13.155960375443101">
        <ele>355</ele>
        <time>2026-08-29T12:04:01Z</time>
      </trkpt>
      <trkpt lat="50.788309564813972" lon="13.156002620235085">
        <ele>355</ele>
        <time>2026-08-29T12:04:02Z</time>
      </trkpt>
      <trkpt lat="50.788352061063051" lon="13.156033968552947">
        <ele>355</ele>
        <time>2026-08-29T12:04:03Z</time>
      </trkpt>
      <trkpt lat="50.78839547932148" lon="13.156051402911544">
        <ele>355</ele>
        <time>2026-08-29T12:04:04Z</time>
      </trkpt>
      <trkpt lat="50.788435880094767" lon="13.156070848926902">
        <ele>355</ele>
        <time>2026-08-29T12:04:05Z</time>
      </trkpt>
      <trkpt lat="50.788476699963212" lon="13.156081745401025">
        <ele>354</ele>
        <time>2026-08-29T12:04:06Z</time>
      </trkpt>
      <trkpt lat="50.788521375507116" lon="13.156098509207368">
        <ele>354</ele>
        <time>2026-08-29T12:04:07Z</time>
      </trkpt>
      <trkpt lat="50.788560770452023" lon="13.156122649088502">
        <ele>354</ele>
        <time>2026-08-29T12:04:08Z</time>
      </trkpt>
      <trkpt lat="50.788592202588916" lon="13.156154081225395">
        <ele>354</ele>
        <time>2026-08-29T12:04:09Z</time>
      </trkpt>
      <trkpt lat="50.788639979436994" lon="13.156171347945929">
        <ele>354</ele>
        <time>2026-08-29T12:04:10Z</time>
      </trkpt>
      <trkpt lat="50.788670908659697" lon="13.156183334067464">
        <ele>354</ele>
        <time>2026-08-29T12:04:11Z</time>
      </trkpt>
      <trkpt lat="50.788699826225638" lon="13.156179478392005">
        <ele>354</ele>
        <time>2026-08-29T12:04:12Z</time>
      </trkpt>
      <trkpt lat="50.788714410737157" lon="13.156187273561954">
        <ele>354</ele>
        <time>2026-08-29T12:04:13Z</time>
      </trkpt>
      <trkpt lat="50.788739053532481" lon="13.156192721799016">
        <ele>355</ele>
        <time>2026-08-29T12:04:14Z</time>
      </trkpt>
      <trkpt lat="50.788761852309108" lon="13.15619439817965">
        <ele>355</ele>
        <time>2026-08-29T12:04:15Z</time>
      </trkpt>
      <trkpt lat="50.788783729076385" lon="13.156190123409033">
        <ele>354</ele>
        <time>2026-08-29T12:04:16Z</time>
      </trkpt>
      <trkpt lat="50.788805773481727" lon="13.156195906922221">
        <ele>354</ele>
        <time>2026-08-29T12:04:17Z</time>
      </trkpt>
      <trkpt lat="50.788819268345833" lon="13.156204205006361">
        <ele>354</ele>
        <time>2026-08-29T12:04:18Z</time>
      </trkpt>
      <trkpt lat="50.788843240588903" lon="13.156211245805025">
        <ele>355</ele>
        <time>2026-08-29T12:04:19Z</time>
      </trkpt>
      <trkpt lat="50.788867212831974" lon="13.156219879165292">
        <ele>355</ele>
        <time>2026-08-29T12:04:20Z</time>
      </trkpt>
      <trkpt lat="50.78890074044466" lon="13.156233709305525">
        <ele>355</ele>
        <time>2026-08-29T12:04:21Z</time>
      </trkpt>
      <trkpt lat="50.788961509242654" lon="13.15625449642539">
        <ele>356</ele>
        <time>2026-08-29T12:04:22Z</time>
      </trkpt>
      <trkpt lat="50.788996629416943" lon="13.156255837529898">
        <ele>356</ele>
        <time>2026-08-29T12:04:23Z</time>
      </trkpt>
      <trkpt lat="50.789040382951498" lon="13.156245443969965">
        <ele>357</ele>
        <time>2026-08-29T12:04:24Z</time>
      </trkpt>
      <trkpt lat="50.789092602208257" lon="13.156228931620717">
        <ele>357</ele>
        <time>2026-08-29T12:04:25Z</time>
      </trkpt>
      <trkpt lat="50.789121687412262" lon="13.156221220269799">
        <ele>357</ele>
        <time>2026-08-29T12:04:26Z</time>
      </trkpt>
      <trkpt lat="50.789151694625616" lon="13.156204372644424">
        <ele>357</ele>
        <time>2026-08-29T12:04:27Z</time>
      </trkpt>
      <trkpt lat="50.789185389876366" lon="13.156183836981654">
        <ele>357</ele>
        <time>2026-08-29T12:04:28Z</time>
      </trkpt>
      <trkpt lat="50.789220677688718" lon="13.156149135902524">
        <ele>357</ele>
        <time>2026-08-29T12:04:29Z</time>
      </trkpt>
      <trkpt lat="50.789265520870686" lon="13.156119883060455">
        <ele>357</ele>
        <time>2026-08-29T12:04:30Z</time>
      </trkpt>
      <trkpt lat="50.789335425943136" lon="13.156102867797017">
        <ele>357</ele>
        <time>2026-08-29T12:04:31Z</time>
      </trkpt>
      <trkpt lat="50.78937130048871" lon="13.156060287728906">
        <ele>357</ele>
        <time>2026-08-29T12:04:32Z</time>
      </trkpt>
      <trkpt lat="50.78937716782093" lon="13.156006308272481">
        <ele>358</ele>
        <time>2026-08-29T12:04:33Z</time>
      </trkpt>
      <trkpt lat="50.78939569182694" lon="13.15595543012023">
        <ele>358</ele>
        <time>2026-08-29T12:04:34Z</time>
      </trkpt>
      <trkpt lat="50.789423435926437" lon="13.155906647443771">
        <ele>358</ele>
        <time>2026-08-29T12:04:35Z</time>
      </trkpt>
      <trkpt lat="50.789450593292713" lon="13.155849650502205">
        <ele>359</ele>
        <time>2026-08-29T12:04:36Z</time>
      </trkpt>
      <trkpt lat="50.789510440081358" lon="13.155814446508884">
        <ele>360</ele>
        <time>2026-08-29T12:04:37Z</time>
      </trkpt>
      <trkpt lat="50.789580512791872" lon="13.155775219202042">
        <ele>361</ele>
        <time>2026-08-29T12:04:38Z</time>
      </trkpt>
      <trkpt lat="50.78962585888803" lon="13.155730459839106">
        <ele>361</ele>
        <time>2026-08-29T12:04:39Z</time>
      </trkpt>
      <trkpt lat="50.789669109508395" lon="13.155685951933265">
        <ele>361</ele>
        <time>2026-08-29T12:04:40Z</time>
      </trkpt>
      <trkpt lat="50.78970942646265" lon="13.155648149549961">
        <ele>361</ele>
        <time>2026-08-29T12:04:41Z</time>
      </trkpt>
      <trkpt lat="50.78975728712976" lon="13.155595259740949">
        <ele>361</ele>
        <time>2026-08-29T12:04:42Z</time>
      </trkpt>
      <trkpt lat="50.789786959066987" lon="13.155540525913239">
        <ele>361</ele>
        <time>2026-08-29T12:04:43Z</time>
      </trkpt>
      <trkpt lat="50.789825599640608" lon="13.155482355505228">
        <ele>362</ele>
        <time>2026-08-29T12:04:44Z</time>
      </trkpt>
      <trkpt lat="50.789861138910055" lon="13.155432567000389">
        <ele>362</ele>
        <time>2026-08-29T12:04:45Z</time>
      </trkpt>
      <trkpt lat="50.789888128638268" lon="13.155380431562662">
        <ele>361</ele>
        <time>2026-08-29T12:04:46Z</time>
      </trkpt>
      <trkpt lat="50.789913777261972" lon="13.155317148193717">
        <ele>362</ele>
        <time>2026-08-29T12:04:47Z</time>
      </trkpt>
      <trkpt lat="50.789949148893356" lon="13.155256882309914">
        <ele>363</ele>
        <time>2026-08-29T12:04:48Z</time>
      </trkpt>
      <trkpt lat="50.789985107257962" lon="13.155207261443138">
        <ele>363</ele>
        <time>2026-08-29T12:04:49Z</time>
      </trkpt>
      <trkpt lat="50.790018551051617" lon="13.155152695253491">
        <ele>363</ele>
        <time>2026-08-29T12:04:50Z</time>
      </trkpt>
      <trkpt lat="50.790048390626907" lon="13.15509544685483">
        <ele>363</ele>
        <time>2026-08-29T12:04:51Z</time>
      </trkpt>
      <trkpt lat="50.79008225351572" lon="13.155038617551327">
        <ele>364</ele>
        <time>2026-08-29T12:04:52Z</time>
      </trkpt>
      <trkpt lat="50.790119217708707" lon="13.154991343617439">
        <ele>364</ele>
        <time>2026-08-29T12:04:53Z</time>
      </trkpt>
      <trkpt lat="50.79015115275979" lon="13.154944572597742">
        <ele>364</ele>
        <time>2026-08-29T12:04:54Z</time>
      </trkpt>
      <trkpt lat="50.790188871324062" lon="13.154902411624789">
        <ele>364</ele>
        <time>2026-08-29T12:04:55Z</time>
      </trkpt>
      <trkpt lat="50.790226841345429" lon="13.154838541522622">
        <ele>364</ele>
        <time>2026-08-29T12:04:56Z</time>
      </trkpt>
      <trkpt lat="50.790240587666631" lon="13.154768804088235">
        <ele>365</ele>
        <time>2026-08-29T12:04:57Z</time>
      </trkpt>
      <trkpt lat="50.790260704234242" lon="13.154712058603764">
        <ele>365</ele>
        <time>2026-08-29T12:04:58Z</time>
      </trkpt>
      <trkpt lat="50.790278976783156" lon="13.154651708900928">
        <ele>365</ele>
        <time>2026-08-29T12:04:59Z</time>
      </trkpt>
      <trkpt lat="50.790307559072971" lon="13.154580043628812">
        <ele>364</ele>
        <time>2026-08-29T12:05:00Z</time>
      </trkpt>
      <trkpt lat="50.790336476638913" lon="13.154510641470551">
        <ele>364</ele>
        <time>2026-08-29T12:05:01Z</time>
      </trkpt>
      <trkpt lat="50.790364891290665" lon="13.154423050582409">
        <ele>364</ele>
        <time>2026-08-29T12:05:02Z</time>
      </trkpt>
      <trkpt lat="50.79037981107831" lon="13.154355492442846">
        <ele>364</ele>
        <time>2026-08-29T12:05:03Z</time>
      </trkpt>
      <trkpt lat="50.790401436388493" lon="13.154284246265888">
        <ele>363</ele>
        <time>2026-08-29T12:05:04Z</time>
      </trkpt>
      <trkpt lat="50.790420211851597" lon="13.15421199426055">
        <ele>363</ele>
        <time>2026-08-29T12:05:05Z</time>
      </trkpt>
      <trkpt lat="50.790438400581479" lon="13.154145022854209">
        <ele>363</ele>
        <time>2026-08-29T12:05:06Z</time>
      </trkpt>
      <trkpt lat="50.790457176044583" lon="13.154075033962727">
        <ele>364</ele>
        <time>2026-08-29T12:05:07Z</time>
      </trkpt>
      <trkpt lat="50.790467569604516" lon="13.153997668996453">
        <ele>364</ele>
        <time>2026-08-29T12:05:08Z</time>
      </trkpt>
      <trkpt lat="50.790486093610525" lon="13.153927931562066">
        <ele>364</ele>
        <time>2026-08-29T12:05:09Z</time>
      </trkpt>
      <trkpt lat="50.790500594303012" lon="13.153862468898296">
        <ele>365</ele>
        <time>2026-08-29T12:05:10Z</time>
      </trkpt>
      <trkpt lat="50.790516100823879" lon="13.153791390359402">
        <ele>365</ele>
        <time>2026-08-29T12:05:11Z</time>
      </trkpt>
      <trkpt lat="50.790539486333728" lon="13.15373464487493">
        <ele>365</ele>
        <time>2026-08-29T12:05:12Z</time>
      </trkpt>
      <trkpt lat="50.79055960290134" lon="13.153672786429524">
        <ele>365</ele>
        <time>2026-08-29T12:05:13Z</time>
      </trkpt>
      <trkpt lat="50.790573349222541" lon="13.153602881357074">
        <ele>365</ele>
        <time>2026-08-29T12:05:14Z</time>
      </trkpt>
      <trkpt lat="50.790590029209852" lon="13.153549823909998">
        <ele>364</ele>
        <time>2026-08-29T12:05:15Z</time>
      </trkpt>
      <trkpt lat="50.790606960654259" lon="13.15349810756743">
        <ele>364</ele>
        <time>2026-08-29T12:05:16Z</time>
      </trkpt>
      <trkpt lat="50.790629340335727" lon="13.153449241071939">
        <ele>365</ele>
        <time>2026-08-29T12:05:17Z</time>
      </trkpt>
      <trkpt lat="50.790656749159098" lon="13.153404146432877">
        <ele>364</ele>
        <time>2026-08-29T12:05:18Z</time>
      </trkpt>
      <trkpt lat="50.790689690038562" lon="13.15334471873939">
        <ele>364</ele>
        <time>2026-08-29T12:05:19Z</time>
      </trkpt>
      <trkpt lat="50.790720116347075" lon="13.153296774253249">
        <ele>364</ele>
        <time>2026-08-29T12:05:20Z</time>
      </trkpt>
      <trkpt lat="50.790752051398158" lon="13.153229467570782">
        <ele>363</ele>
        <time>2026-08-29T12:05:21Z</time>
      </trkpt>
      <trkpt lat="50.790779627859592" lon="13.153149504214525">
        <ele>363</ele>
        <time>2026-08-29T12:05:22Z</time>
      </trkpt>
      <trkpt lat="50.790806952863932" lon="13.15309158526361">
        <ele>363</ele>
        <time>2026-08-29T12:05:23Z</time>
      </trkpt>
      <trkpt lat="50.790834194049239" lon="13.153024194762111">
        <ele>362</ele>
        <time>2026-08-29T12:05:24Z</time>
      </trkpt>
      <trkpt lat="50.790857998654246" lon="13.152954205870628">
        <ele>362</ele>
        <time>2026-08-29T12:05:25Z</time>
      </trkpt>
      <trkpt lat="50.79088993370533" lon="13.15287172794342">
        <ele>362</ele>
        <time>2026-08-29T12:05:26Z</time>
      </trkpt>
      <trkpt lat="50.790928322821856" lon="13.152772737666965">
        <ele>362</ele>
        <time>2026-08-29T12:05:27Z</time>
      </trkpt>
      <trkpt lat="50.790968723595142" lon="13.152672490105033">
        <ele>362</ele>
        <time>2026-08-29T12:05:28Z</time>
      </trkpt>
      <trkpt lat="50.791004430502653" lon="13.152579450979829">
        <ele>362</ele>
        <time>2026-08-29T12:05:29Z</time>
      </trkpt>
      <trkpt lat="50.791050028055906" lon="13.152471324428916">
        <ele>362</ele>
        <time>2026-08-29T12:05:30Z</time>
      </trkpt>
      <trkpt lat="50.791072240099311" lon="13.152388846501708">
        <ele>362</ele>
        <time>2026-08-29T12:05:31Z</time>
      </trkpt>
      <trkpt lat="50.791086237877607" lon="13.152310391888022">
        <ele>362</ele>
        <time>2026-08-29T12:05:32Z</time>
      </trkpt>
      <trkpt lat="50.791117921471596" lon="13.152238475158811">
        <ele>362</ele>
        <time>2026-08-29T12:05:33Z</time>
      </trkpt>
      <trkpt lat="50.791137451305985" lon="13.152162451297045">
        <ele>362</ele>
        <time>2026-08-29T12:05:34Z</time>
      </trkpt>
      <trkpt lat="50.791167626157403" lon="13.152064047753811">
        <ele>362</ele>
        <time>2026-08-29T12:05:35Z</time>
      </trkpt>
      <trkpt lat="50.791184641420841" lon="13.15197897143662">
        <ele>362</ele>
        <time>2026-08-29T12:05:36Z</time>
      </trkpt>
      <trkpt lat="50.791199896484613" lon="13.151928763836622">
        <ele>362</ele>
        <time>2026-08-29T12:05:37Z</time>
      </trkpt>
      <trkpt lat="50.791215403005481" lon="13.151867156848311">
        <ele>362</ele>
        <time>2026-08-29T12:05:38Z</time>
      </trkpt>
      <trkpt lat="50.791235268115997" lon="13.151811249554157">
        <ele>361</ele>
        <time>2026-08-29T12:05:39Z</time>
      </trkpt>
      <trkpt lat="50.791250942274928" lon="13.151745451614261">
        <ele>361</ele>
        <time>2026-08-29T12:05:40Z</time>
      </trkpt>
      <trkpt lat="50.791270053014159" lon="13.1516726128757">
        <ele>360</ele>
        <time>2026-08-29T12:05:41Z</time>
      </trkpt>
      <trkpt lat="50.791299808770418" lon="13.151597762480378">
        <ele>360</ele>
        <time>2026-08-29T12:05:42Z</time>
      </trkpt>
      <trkpt lat="50.791330821812153" lon="13.151509752497077">
        <ele>360</ele>
        <time>2026-08-29T12:05:43Z</time>
      </trkpt>
      <trkpt lat="50.79136393032968" lon="13.151438171043992">
        <ele>359</ele>
        <time>2026-08-29T12:05:44Z</time>
      </trkpt>
      <trkpt lat="50.791383879259229" lon="13.151356698945165">
        <ele>359</ele>
        <time>2026-08-29T12:05:45Z</time>
      </trkpt>
      <trkpt lat="50.791403912007809" lon="13.151272293180227">
        <ele>358</ele>
        <time>2026-08-29T12:05:46Z</time>
      </trkpt>
      <trkpt lat="50.791425621137023" lon="13.151196101680398">
        <ele>357</ele>
        <time>2026-08-29T12:05:47Z</time>
      </trkpt>
      <trkpt lat="50.791457891464233" lon="13.151116725057364">
        <ele>357</ele>
        <time>2026-08-29T12:05:48Z</time>
      </trkpt>
      <trkpt lat="50.791485551744699" lon="13.151042712852359">
        <ele>357</ele>
        <time>2026-08-29T12:05:49Z</time>
      </trkpt>
      <trkpt lat="50.79151195473969" lon="13.150963587686419">
        <ele>356</ele>
        <time>2026-08-29T12:05:50Z</time>
      </trkpt>
      <trkpt lat="50.791545649990439" lon="13.150906590744853">
        <ele>356</ele>
        <time>2026-08-29T12:05:51Z</time>
      </trkpt>
      <trkpt lat="50.79157548956573" lon="13.150837942957878">
        <ele>356</ele>
        <time>2026-08-29T12:05:52Z</time>
      </trkpt>
      <trkpt lat="50.791606670245528" lon="13.150765774771571">
        <ele>357</ele>
        <time>2026-08-29T12:05:53Z</time>
      </trkpt>
      <trkpt lat="50.791633659973741" lon="13.150688661262393">
        <ele>357</ele>
        <time>2026-08-29T12:05:54Z</time>
      </trkpt>
      <trkpt lat="50.791669115424156" lon="13.150613894686103">
        <ele>356</ele>
        <time>2026-08-29T12:05:55Z</time>
      </trkpt>
      <trkpt lat="50.791708258911967" lon="13.150542732328176">
        <ele>356</ele>
        <time>2026-08-29T12:05:56Z</time>
      </trkpt>
      <trkpt lat="50.791759388521314" lon="13.150482550263405">
        <ele>356</ele>
        <time>2026-08-29T12:05:57Z</time>
      </trkpt>
      <trkpt lat="50.791800040751696" lon="13.150416165590286">
        <ele>356</ele>
        <time>2026-08-29T12:05:58Z</time>
      </trkpt>
      <trkpt lat="50.791838681325316" lon="13.150336369872093">
        <ele>356</ele>
        <time>2026-08-29T12:05:59Z</time>
      </trkpt>
      <trkpt lat="50.791868101805449" lon="13.150269985198975">
        <ele>356</ele>
        <time>2026-08-29T12:06:00Z</time>
      </trkpt>
      <trkpt lat="50.79188821837306" lon="13.150202007964253">
        <ele>355</ele>
        <time>2026-08-29T12:06:01Z</time>
      </trkpt>
      <trkpt lat="50.791931301355362" lon="13.150131264701486">
        <ele>355</ele>
        <time>2026-08-29T12:06:02Z</time>
      </trkpt>
      <trkpt lat="50.791959632188082" lon="13.150054905563593">
        <ele>355</ele>
        <time>2026-08-29T12:06:03Z</time>
      </trkpt>
      <trkpt lat="50.791984610259533" lon="13.14998634159565">
        <ele>355</ele>
        <time>2026-08-29T12:06:04Z</time>
      </trkpt>
      <trkpt lat="50.792014030739665" lon="13.149930015206337">
        <ele>355</ele>
        <time>2026-08-29T12:06:05Z</time>
      </trkpt>
      <trkpt lat="50.792033057659864" lon="13.149866899475455">
        <ele>355</ele>
        <time>2026-08-29T12:06:06Z</time>
      </trkpt>
      <trkpt lat="50.792055688798428" lon="13.149798754602671">
        <ele>354</ele>
        <time>2026-08-29T12:06:07Z</time>
      </trkpt>
      <trkpt lat="50.792099945247173" lon="13.14972055144608">
        <ele>354</ele>
        <time>2026-08-29T12:06:08Z</time>
      </trkpt>
      <trkpt lat="50.792123917490244" lon="13.149641342461109">
        <ele>354</ele>
        <time>2026-08-29T12:06:09Z</time>
      </trkpt>
      <trkpt lat="50.792145291343331" lon="13.149572359398007">
        <ele>354</ele>
        <time>2026-08-29T12:06:10Z</time>
      </trkpt>
      <trkpt lat="50.792166581377387" lon="13.149486444890499">
        <ele>354</ele>
        <time>2026-08-29T12:06:11Z</time>
      </trkpt>
      <trkpt lat="50.792184602469206" lon="13.149394914507866">
        <ele>355</ele>
        <time>2026-08-29T12:06:12Z</time>
      </trkpt>
      <trkpt lat="50.792206730693579" lon="13.149309251457453">
        <ele>354</ele>
        <time>2026-08-29T12:06:13Z</time>
      </trkpt>
      <trkpt lat="50.79222341068089" lon="13.14922358840704">
        <ele>354</ele>
        <time>2026-08-29T12:06:14Z</time>
      </trkpt>
      <trkpt lat="50.792243359610438" lon="13.149135578423738">
        <ele>354</ele>
        <time>2026-08-29T12:06:15Z</time>
      </trkpt>
      <trkpt lat="50.792260626330972" lon="13.149051843211055">
        <ele>354</ele>
        <time>2026-08-29T12:06:16Z</time>
      </trkpt>
      <trkpt lat="50.792278312146664" lon="13.148960648104548">
        <ele>354</ele>
        <time>2026-08-29T12:06:17Z</time>
      </trkpt>
      <trkpt lat="50.792300188913941" lon="13.148874985054135">
        <ele>354</ele>
        <time>2026-08-29T12:06:18Z</time>
      </trkpt>
      <trkpt lat="50.792317539453506" lon="13.148785717785358">
        <ele>353</ele>
        <time>2026-08-29T12:06:19Z</time>
      </trkpt>
      <trkpt lat="50.792335141450167" lon="13.148695947602391">
        <ele>353</ele>
        <time>2026-08-29T12:06:20Z</time>
      </trkpt>
      <trkpt lat="50.792353665456176" lon="13.148594358935952">
        <ele>353</ele>
        <time>2026-08-29T12:06:21Z</time>
      </trkpt>
      <trkpt lat="50.792368669062853" lon="13.148497715592384">
        <ele>353</ele>
        <time>2026-08-29T12:06:22Z</time>
      </trkpt>
      <trkpt lat="50.792383588850498" lon="13.14841247163713">
        <ele>353</ele>
        <time>2026-08-29T12:06:23Z</time>
      </trkpt>
      <trkpt lat="50.792398927733302" lon="13.148321192711592">
        <ele>353</ele>
        <time>2026-08-29T12:06:24Z</time>
      </trkpt>
      <trkpt lat="50.792420217767358" lon="13.148222789168358">
        <ele>353</ele>
        <time>2026-08-29T12:06:25Z</time>
      </trkpt>
      <trkpt lat="50.792437568306923" lon="13.148131342604756">
        <ele>353</ele>
        <time>2026-08-29T12:06:26Z</time>
      </trkpt>
      <trkpt lat="50.792456679046154" lon="13.148038219660521">
        <ele>352</ele>
        <time>2026-08-29T12:06:27Z</time>
      </trkpt>
      <trkpt lat="50.792470509186387" lon="13.147949287667871">
        <ele>352</ele>
        <time>2026-08-29T12:06:28Z</time>
      </trkpt>
      <trkpt lat="50.792481573298573" lon="13.147870749235153">
        <ele>352</ele>
        <time>2026-08-29T12:06:29Z</time>
      </trkpt>
      <trkpt lat="50.792488362640142" lon="13.147806627675891">
        <ele>352</ele>
        <time>2026-08-29T12:06:30Z</time>
      </trkpt>
      <trkpt lat="50.792500097304583" lon="13.147736052051187">
        <ele>352</ele>
        <time>2026-08-29T12:06:31Z</time>
      </trkpt>
      <trkpt lat="50.79250923357904" lon="13.147658100351691">
        <ele>352</ele>
        <time>2026-08-29T12:06:32Z</time>
      </trkpt>
      <trkpt lat="50.792518369853497" lon="13.147583920508623">
        <ele>352</ele>
        <time>2026-08-29T12:06:33Z</time>
      </trkpt>
      <trkpt lat="50.792535049840808" lon="13.147513177245855">
        <ele>353</ele>
        <time>2026-08-29T12:06:34Z</time>
      </trkpt>
      <trkpt lat="50.792544856667519" lon="13.147441847249866">
        <ele>353</ele>
        <time>2026-08-29T12:06:35Z</time>
      </trkpt>
      <trkpt lat="50.792556758970022" lon="13.147380407899618">
        <ele>353</ele>
        <time>2026-08-29T12:06:36Z</time>
      </trkpt>
      <trkpt lat="50.792568158358335" lon="13.147299103438854">
        <ele>353</ele>
        <time>2026-08-29T12:06:37Z</time>
      </trkpt>
      <trkpt lat="50.792573438957334" lon="13.147200616076589">
        <ele>354</ele>
        <time>2026-08-29T12:06:38Z</time>
      </trkpt>
      <trkpt lat="50.792582491412759" lon="13.147127609699965">
        <ele>354</ele>
        <time>2026-08-29T12:06:39Z</time>
      </trkpt>
      <trkpt lat="50.792595148086548" lon="13.147052088752389">
        <ele>354</ele>
        <time>2026-08-29T12:06:40Z</time>
      </trkpt>
      <trkpt lat="50.79261819832027" lon="13.146967012435198">
        <ele>354</ele>
        <time>2026-08-29T12:06:41Z</time>
      </trkpt>
      <trkpt lat="50.792632112279534" lon="13.146903477609158">
        <ele>354</ele>
        <time>2026-08-29T12:06:42Z</time>
      </trkpt>
      <trkpt lat="50.792641583830118" lon="13.146828208118677">
        <ele>353</ele>
        <time>2026-08-29T12:06:43Z</time>
      </trkpt>
      <trkpt lat="50.792634291574359" lon="13.146759895607829">
        <ele>353</ele>
        <time>2026-08-29T12:06:44Z</time>
      </trkpt>
      <trkpt lat="50.792655749246478" lon="13.146696444600821">
        <ele>352</ele>
        <time>2026-08-29T12:06:45Z</time>
      </trkpt>
      <trkpt lat="50.792652480304241" lon="13.146633664146066">
        <ele>351</ele>
        <time>2026-08-29T12:06:46Z</time>
      </trkpt>
      <trkpt lat="50.79266170039773" lon="13.146568955853581">
        <ele>350</ele>
        <time>2026-08-29T12:06:47Z</time>
      </trkpt>
      <trkpt lat="50.792676704004407" lon="13.146503493189812">
        <ele>350</ele>
        <time>2026-08-29T12:06:48Z</time>
      </trkpt>
      <trkpt lat="50.792689612135291" lon="13.14643694087863">
        <ele>350</ele>
        <time>2026-08-29T12:06:49Z</time>
      </trkpt>
      <trkpt lat="50.79270277172327" lon="13.146379189565778">
        <ele>349</ele>
        <time>2026-08-29T12:06:50Z</time>
      </trkpt>
      <trkpt lat="50.792724564671516" lon="13.146306183189154">
        <ele>349</ele>
        <time>2026-08-29T12:06:51Z</time>
      </trkpt>
      <trkpt lat="50.792743004858494" lon="13.146239295601845">
        <ele>349</ele>
        <time>2026-08-29T12:06:52Z</time>
      </trkpt>
      <trkpt lat="50.792761109769344" lon="13.146166959777474">
        <ele>349</ele>
        <time>2026-08-29T12:06:53Z</time>
      </trkpt>
      <trkpt lat="50.792782651260495" lon="13.146100575104356">
        <ele>349</ele>
        <time>2026-08-29T12:06:54Z</time>
      </trkpt>
      <trkpt lat="50.792802348732948" lon="13.146019354462624">
        <ele>350</ele>
        <time>2026-08-29T12:06:55Z</time>
      </trkpt>
      <trkpt lat="50.792803857475519" lon="13.145949533209205">
        <ele>349</ele>
        <time>2026-08-29T12:06:56Z</time>
      </trkpt>
      <trkpt lat="50.792816011235118" lon="13.145874766632915">
        <ele>350</ele>
        <time>2026-08-29T12:06:57Z</time>
      </trkpt>
      <trkpt lat="50.792830009013414" lon="13.145788600668311">
        <ele>350</ele>
        <time>2026-08-29T12:06:58Z</time>
      </trkpt>
      <trkpt lat="50.792839899659157" lon="13.145703859627247">
        <ele>350</ele>
        <time>2026-08-29T12:06:59Z</time>
      </trkpt>
      <trkpt lat="50.792858507484198" lon="13.1456199567765">
        <ele>349</ele>
        <time>2026-08-29T12:07:00Z</time>
      </trkpt>
      <trkpt lat="50.792883820831776" lon="13.14553638920188">
        <ele>349</ele>
        <time>2026-08-29T12:07:01Z</time>
      </trkpt>
      <trkpt lat="50.792904272675514" lon="13.14545776695013">
        <ele>349</ele>
        <time>2026-08-29T12:07:02Z</time>
      </trkpt>
      <trkpt lat="50.792928412556648" lon="13.145375791937113">
        <ele>349</ele>
        <time>2026-08-29T12:07:03Z</time>
      </trkpt>
      <trkpt lat="50.79295196570456" lon="13.145290464162827">
        <ele>349</ele>
        <time>2026-08-29T12:07:04Z</time>
      </trkpt>
      <trkpt lat="50.792982978746295" lon="13.145200023427606">
        <ele>349</ele>
        <time>2026-08-29T12:07:05Z</time>
      </trkpt>
      <trkpt lat="50.79301449470222" lon="13.145119892433286">
        <ele>350</ele>
        <time>2026-08-29T12:07:06Z</time>
      </trkpt>
      <trkpt lat="50.79304626211524" lon="13.145034983754158">
        <ele>350</ele>
        <time>2026-08-29T12:07:07Z</time>
      </trkpt>
      <trkpt lat="50.793088590726256" lon="13.144945297390223">
        <ele>351</ele>
        <time>2026-08-29T12:07:08Z</time>
      </trkpt>
      <trkpt lat="50.793118681758642" lon="13.144859215244651">
        <ele>351</ele>
        <time>2026-08-29T12:07:09Z</time>
      </trkpt>
      <trkpt lat="50.793148437514901" lon="13.144780341535807">
        <ele>351</ele>
        <time>2026-08-29T12:07:10Z</time>
      </trkpt>
      <trkpt lat="50.793176768347621" lon="13.144700294360518">
        <ele>350</ele>
        <time>2026-08-29T12:07:11Z</time>
      </trkpt>
      <trkpt lat="50.793200237676501" lon="13.144624605774879">
        <ele>350</ele>
        <time>2026-08-29T12:07:12Z</time>
      </trkpt>
      <trkpt lat="50.793225551024079" lon="13.144548078998923">
        <ele>351</ele>
        <time>2026-08-29T12:07:13Z</time>
      </trkpt>
      <trkpt lat="50.793254049494863" lon="13.144472390413284">
        <ele>350</ele>
        <time>2026-08-29T12:07:14Z</time>
      </trkpt>
      <trkpt lat="50.793280871585011" lon="13.144439617171884">
        <ele>350</ele>
        <time>2026-08-29T12:07:15Z</time>
      </trkpt>
      <trkpt lat="50.793304592370987" lon="13.144401647150517">
        <ele>350</ele>
        <time>2026-08-29T12:07:16Z</time>
      </trkpt>
      <trkpt lat="50.793322613462806" lon="13.144365269690752">
        <ele>350</ele>
        <time>2026-08-29T12:07:17Z</time>
      </trkpt>
      <trkpt lat="50.793340550735593" lon="13.144338866695762">
        <ele>350</ele>
        <time>2026-08-29T12:07:18Z</time>
      </trkpt>
      <trkpt lat="50.793359410017729" lon="13.144307769834995">
        <ele>350</ele>
        <time>2026-08-29T12:07:19Z</time>
      </trkpt>
      <trkpt lat="50.793383214622736" lon="13.144283965229988">
        <ele>351</ele>
        <time>2026-08-29T12:07:20Z</time>
      </trkpt>
      <trkpt lat="50.793402241542935" lon="13.144258819520473">
        <ele>351</ele>
        <time>2026-08-29T12:07:21Z</time>
      </trkpt>
      <trkpt lat="50.79341514967382" lon="13.144234344363213">
        <ele>351</ele>
        <time>2026-08-29T12:07:22Z</time>
      </trkpt>
      <trkpt lat="50.793432332575321" lon="13.144208444282413">
        <ele>351</ele>
        <time>2026-08-29T12:07:23Z</time>
      </trkpt>
      <trkpt lat="50.793446665629745" lon="13.144178353250027">
        <ele>351</ele>
        <time>2026-08-29T12:07:24Z</time>
      </trkpt>
      <trkpt lat="50.793460579589009" lon="13.144145077094436">
        <ele>351</ele>
        <time>2026-08-29T12:07:25Z</time>
      </trkpt>
      <trkpt lat="50.79347332008183" lon="13.144116578623652">
        <ele>350</ele>
        <time>2026-08-29T12:07:26Z</time>
      </trkpt>
      <trkpt lat="50.79349335283041" lon="13.144084643572569">
        <ele>350</ele>
        <time>2026-08-29T12:07:27Z</time>
      </trkpt>
      <trkpt lat="50.793508104979992" lon="13.144064694643021">
        <ele>350</ele>
        <time>2026-08-29T12:07:28Z</time>
      </trkpt>
      <trkpt lat="50.793520342558622" lon="13.144044661894441">
        <ele>350</ele>
        <time>2026-08-29T12:07:29Z</time>
      </trkpt>
      <trkpt lat="50.793540542945266" lon="13.14401775598526">
        <ele>350</ele>
        <time>2026-08-29T12:07:30Z</time>
      </trkpt>
      <trkpt lat="50.793559737503529" lon="13.143996717408299">
        <ele>350</ele>
        <time>2026-08-29T12:07:31Z</time>
      </trkpt>
      <trkpt lat="50.793583961203694" lon="13.143966626375914">
        <ele>350</ele>
        <time>2026-08-29T12:07:32Z</time>
      </trkpt>
      <trkpt lat="50.793608939275146" lon="13.143937541171908">
        <ele>350</ele>
        <time>2026-08-29T12:07:33Z</time>
      </trkpt>
      <trkpt lat="50.793638611212373" lon="13.143908707424998">
        <ele>350</ele>
        <time>2026-08-29T12:07:34Z</time>
      </trkpt>
      <trkpt lat="50.793662667274475" lon="13.143881130963564">
        <ele>349</ele>
        <time>2026-08-29T12:07:35Z</time>
      </trkpt>
      <trkpt lat="50.793681610375643" lon="13.143858332186937">
        <ele>349</ele>
        <time>2026-08-29T12:07:36Z</time>
      </trkpt>
      <trkpt lat="50.793706169351935" lon="13.143828492611647">
        <ele>348</ele>
        <time>2026-08-29T12:07:37Z</time>
      </trkpt>
      <trkpt lat="50.79373667947948" lon="13.143804604187608">
        <ele>348</ele>
        <time>2026-08-29T12:07:38Z</time>
      </trkpt>
      <trkpt lat="50.793766267597675" lon="13.14377686008811">
        <ele>348</ele>
        <time>2026-08-29T12:07:39Z</time>
      </trkpt>
      <trkpt lat="50.793800884857774" lon="13.143754564225674">
        <ele>348</ele>
        <time>2026-08-29T12:07:40Z</time>
      </trkpt>
      <trkpt lat="50.793839190155268" lon="13.143742242828012">
        <ele>349</ele>
        <time>2026-08-29T12:07:41Z</time>
      </trkpt>
      <trkpt lat="50.793864000588655" lon="13.143714834004641">
        <ele>349</ele>
        <time>2026-08-29T12:07:42Z</time>
      </trkpt>
      <trkpt lat="50.793888559564948" lon="13.14368256367743">
        <ele>349</ele>
        <time>2026-08-29T12:07:43Z</time>
      </trkpt>
      <trkpt lat="50.793921500444412" lon="13.143657501786947">
        <ele>349</ele>
        <time>2026-08-29T12:07:44Z</time>
      </trkpt>
      <trkpt lat="50.793950082734227" lon="13.143628751859069">
        <ele>349</ele>
        <time>2026-08-29T12:07:45Z</time>
      </trkpt>
      <trkpt lat="50.793974222615361" lon="13.143602851778269">
        <ele>349</ele>
        <time>2026-08-29T12:07:46Z</time>
      </trkpt>
      <trkpt lat="50.794001379981637" lon="13.143580807372928">
        <ele>350</ele>
        <time>2026-08-29T12:07:47Z</time>
      </trkpt>
      <trkpt lat="50.794031387194991" lon="13.143555242568254">
        <ele>350</ele>
        <time>2026-08-29T12:07:48Z</time>
      </trkpt>
      <trkpt lat="50.794053431600332" lon="13.143529342487454">
        <ele>351</ele>
        <time>2026-08-29T12:07:49Z</time>
      </trkpt>
      <trkpt lat="50.794076230376959" lon="13.143507381901145">
        <ele>351</ele>
        <time>2026-08-29T12:07:50Z</time>
      </trkpt>
      <trkpt lat="50.794101376086473" lon="13.143482320010662">
        <ele>351</ele>
        <time>2026-08-29T12:07:51Z</time>
      </trkpt>
      <trkpt lat="50.794126018881798" lon="13.143462873995304">
        <ele>351</ele>
        <time>2026-08-29T12:07:52Z</time>
      </trkpt>
      <trkpt lat="50.794146806001663" lon="13.143448876217008">
        <ele>351</ele>
        <time>2026-08-29T12:07:53Z</time>
      </trkpt>
      <trkpt lat="50.794172789901495" lon="13.143422892317176">
        <ele>351</ele>
        <time>2026-08-29T12:07:54Z</time>
      </trkpt>
      <trkpt lat="50.794193241745234" lon="13.143398417159915">
        <ele>352</ele>
        <time>2026-08-29T12:07:55Z</time>
      </trkpt>
      <trkpt lat="50.794213274493814" lon="13.143369918689132">
        <ele>352</ele>
        <time>2026-08-29T12:07:56Z</time>
      </trkpt>
      <trkpt lat="50.794234648346901" lon="13.143338151276112">
        <ele>352</ele>
        <time>2026-08-29T12:07:57Z</time>
      </trkpt>
      <trkpt lat="50.794254681095481" lon="13.143301773816347">
        <ele>353</ele>
        <time>2026-08-29T12:07:58Z</time>
      </trkpt>
      <trkpt lat="50.794278150424361" lon="13.143272018060088">
        <ele>352</ele>
        <time>2026-08-29T12:07:59Z</time>
      </trkpt>
      <trkpt lat="50.794290639460087" lon="13.143239077180624">
        <ele>353</ele>
        <time>2026-08-29T12:08:00Z</time>
      </trkpt>
      <trkpt lat="50.794300781562924" lon="13.143212758004665">
        <ele>353</ele>
        <time>2026-08-29T12:08:01Z</time>
      </trkpt>
      <trkpt lat="50.794315868988633" lon="13.143177218735218">
        <ele>354</ele>
        <time>2026-08-29T12:08:02Z</time>
      </trkpt>
      <trkpt lat="50.794333722442389" lon="13.143142517656088">
        <ele>354</ele>
        <time>2026-08-29T12:08:03Z</time>
      </trkpt>
      <trkpt lat="50.794343948364258" lon="13.143101865425706">
        <ele>355</ele>
        <time>2026-08-29T12:08:04Z</time>
      </trkpt>
      <trkpt lat="50.794352917000651" lon="13.1430693436414">
        <ele>355</ele>
        <time>2026-08-29T12:08:05Z</time>
      </trkpt>
      <trkpt lat="50.794366411864758" lon="13.143033552914858">
        <ele>356</ele>
        <time>2026-08-29T12:08:06Z</time>
      </trkpt>
      <trkpt lat="50.794372614473104" lon="13.142998181283474">
        <ele>356</ele>
        <time>2026-08-29T12:08:07Z</time>
      </trkpt>
      <trkpt lat="50.794385438784957" lon="13.142962558194995">
        <ele>356</ele>
        <time>2026-08-29T12:08:08Z</time>
      </trkpt>
      <trkpt lat="50.794397844001651" lon="13.142929533496499">
        <ele>357</ele>
        <time>2026-08-29T12:08:09Z</time>
      </trkpt>
      <trkpt lat="50.794408153742552" lon="13.142899023368955">
        <ele>357</ele>
        <time>2026-08-29T12:08:10Z</time>
      </trkpt>
      <trkpt lat="50.794420810416341" lon="13.142869435250759">
        <ele>357</ele>
        <time>2026-08-29T12:08:11Z</time>
      </trkpt>
      <trkpt lat="50.794429779052734" lon="13.142842277884483">
        <ele>357</ele>
        <time>2026-08-29T12:08:12Z</time>
      </trkpt>
      <trkpt lat="50.794442184269428" lon="13.142806654796004">
        <ele>357</ele>
        <time>2026-08-29T12:08:13Z</time>
      </trkpt>
      <trkpt lat="50.794449560344219" lon="13.142781089991331">
        <ele>358</ele>
        <time>2026-08-29T12:08:14Z</time>
      </trkpt>
      <trkpt lat="50.794456349685788" lon="13.142760135233402">
        <ele>358</ele>
        <time>2026-08-29T12:08:15Z</time>
      </trkpt>
      <trkpt lat="50.79446573741734" lon="13.142739180475473">
        <ele>358</ele>
        <time>2026-08-29T12:08:16Z</time>
      </trkpt>
      <trkpt lat="50.794478729367256" lon="13.142715208232403">
        <ele>359</ele>
        <time>2026-08-29T12:08:17Z</time>
      </trkpt>
      <trkpt lat="50.794483590871096" lon="13.142691738903522">
        <ele>359</ele>
        <time>2026-08-29T12:08:18Z</time>
      </trkpt>
      <trkpt lat="50.794492391869426" lon="13.142668856307864">
        <ele>360</ele>
        <time>2026-08-29T12:08:19Z</time>
      </trkpt>
      <trkpt lat="50.7945058029145" lon="13.14265251159668">
        <ele>360</ele>
        <time>2026-08-29T12:08:20Z</time>
      </trkpt>
      <trkpt lat="50.794515609741211" lon="13.142638262361288">
        <ele>360</ele>
        <time>2026-08-29T12:08:21Z</time>
      </trkpt>
      <trkpt lat="50.794527679681778" lon="13.14262225292623">
        <ele>360</ele>
        <time>2026-08-29T12:08:22Z</time>
      </trkpt>
      <trkpt lat="50.794543018564582" lon="13.142595514655113">
        <ele>360</ele>
        <time>2026-08-29T12:08:23Z</time>
      </trkpt>
      <trkpt lat="50.794554417952895" lon="13.142580008134246">
        <ele>360</ele>
        <time>2026-08-29T12:08:24Z</time>
      </trkpt>
      <trkpt lat="50.794563302770257" lon="13.142581433057785">
        <ele>360</ele>
        <time>2026-08-29T12:08:25Z</time>
      </trkpt>
      <trkpt lat="50.794566152617335" lon="13.142568944022059">
        <ele>360</ele>
        <time>2026-08-29T12:08:26Z</time>
      </trkpt>
      <trkpt lat="50.794579647481441" lon="13.142561316490173">
        <ele>360</ele>
        <time>2026-08-29T12:08:27Z</time>
      </trkpt>
      <trkpt lat="50.794595992192626" lon="13.142554443329573">
        <ele>361</ele>
        <time>2026-08-29T12:08:28Z</time>
      </trkpt>
      <trkpt lat="50.794615270569921" lon="13.142537260428071">
        <ele>361</ele>
        <time>2026-08-29T12:08:29Z</time>
      </trkpt>
      <trkpt lat="50.794628262519836" lon="13.142524268478155">
        <ele>361</ele>
        <time>2026-08-29T12:08:30Z</time>
      </trkpt>
      <trkpt lat="50.794651228934526" lon="13.142500799149275">
        <ele>361</ele>
        <time>2026-08-29T12:08:31Z</time>
      </trkpt>
      <trkpt lat="50.794678889214993" lon="13.142483197152615">
        <ele>361</ele>
        <time>2026-08-29T12:08:32Z</time>
      </trkpt>
      <trkpt lat="50.794707387685776" lon="13.142465595155954">
        <ele>362</ele>
        <time>2026-08-29T12:08:33Z</time>
      </trkpt>
      <trkpt lat="50.794729515910149" lon="13.142457883805037">
        <ele>362</ele>
        <time>2026-08-29T12:08:34Z</time>
      </trkpt>
      <trkpt lat="50.794747788459063" lon="13.142454279586673">
        <ele>363</ele>
        <time>2026-08-29T12:08:35Z</time>
      </trkpt>
      <trkpt lat="50.794771257787943" lon="13.142439443618059">
        <ele>363</ele>
        <time>2026-08-29T12:08:36Z</time>
      </trkpt>
      <trkpt lat="50.794792799279094" lon="13.142424691468477">
        <ele>363</ele>
        <time>2026-08-29T12:08:37Z</time>
      </trkpt>
      <trkpt lat="50.794815681874752" lon="13.142414633184671">
        <ele>363</ele>
        <time>2026-08-29T12:08:38Z</time>
      </trkpt>
      <trkpt lat="50.794841246679425" lon="13.14239795319736">
        <ele>363</ele>
        <time>2026-08-29T12:08:39Z</time>
      </trkpt>
      <trkpt lat="50.794858764857054" lon="13.142389822751284">
        <ele>363</ele>
        <time>2026-08-29T12:08:40Z</time>
      </trkpt>
      <trkpt lat="50.794882318004966" lon="13.142379093915224">
        <ele>363</ele>
        <time>2026-08-29T12:08:41Z</time>
      </trkpt>
      <trkpt lat="50.794908972457051" lon="13.142355708405375">
        <ele>363</ele>
        <time>2026-08-29T12:08:42Z</time>
      </trkpt>
      <trkpt lat="50.794924898073077" lon="13.142346404492855">
        <ele>364</ele>
        <time>2026-08-29T12:08:43Z</time>
      </trkpt>
      <trkpt lat="50.79494166187942" lon="13.142331065610051">
        <ele>364</ele>
        <time>2026-08-29T12:08:44Z</time>
      </trkpt>
      <trkpt lat="50.794950714334846" lon="13.142319498583674">
        <ele>364</ele>
        <time>2026-08-29T12:08:45Z</time>
      </trkpt>
      <trkpt lat="50.794963287189603" lon="13.142311703413725">
        <ele>364</ele>
        <time>2026-08-29T12:08:46Z</time>
      </trkpt>
      <trkpt lat="50.79497342929244" lon="13.142301812767982">
        <ele>364</ele>
        <time>2026-08-29T12:08:47Z</time>
      </trkpt>
      <trkpt lat="50.794981811195612" lon="13.142296615988016">
        <ele>363</ele>
        <time>2026-08-29T12:08:48Z</time>
      </trkpt>
      <trkpt lat="50.794987929984927" lon="13.142290413379669">
        <ele>363</ele>
        <time>2026-08-29T12:08:49Z</time>
      </trkpt>
      <trkpt lat="50.795006789267063" lon="13.142282031476498">
        <ele>363</ele>
        <time>2026-08-29T12:08:50Z</time>
      </trkpt>
      <trkpt lat="50.795016093179584" lon="13.14226652495563">
        <ele>362</ele>
        <time>2026-08-29T12:08:51Z</time>
      </trkpt>
      <trkpt lat="50.795028330758214" lon="13.142253700643778">
        <ele>362</ele>
        <time>2026-08-29T12:08:52Z</time>
      </trkpt>
      <trkpt lat="50.795045932754874" lon="13.142228303477168">
        <ele>363</ele>
        <time>2026-08-29T12:08:53Z</time>
      </trkpt>
      <trkpt lat="50.795058170333505" lon="13.142201649025083">
        <ele>362</ele>
        <time>2026-08-29T12:08:54Z</time>
      </trkpt>
      <trkpt lat="50.795084070414305" lon="13.142163846641779">
        <ele>362</ele>
        <time>2026-08-29T12:08:55Z</time>
      </trkpt>
      <trkpt lat="50.795106869190931" lon="13.142127217724919">
        <ele>362</ele>
        <time>2026-08-29T12:08:56Z</time>
      </trkpt>
      <trkpt lat="50.795131009072065" lon="13.142095115035772">
        <ele>362</ele>
        <time>2026-08-29T12:08:57Z</time>
      </trkpt>
      <trkpt lat="50.795152131468058" lon="13.14206569455564">
        <ele>362</ele>
        <time>2026-08-29T12:08:58Z</time>
      </trkpt>
      <trkpt lat="50.79517275094986" lon="13.142039878293872">
        <ele>362</ele>
        <time>2026-08-29T12:08:59Z</time>
      </trkpt>
      <trkpt lat="50.795195968821645" lon="13.142012720927596">
        <ele>363</ele>
        <time>2026-08-29T12:09:00Z</time>
      </trkpt>
      <trkpt lat="50.795211978256702" lon="13.141992771998048">
        <ele>362</ele>
        <time>2026-08-29T12:09:01Z</time>
      </trkpt>
      <trkpt lat="50.795233687385917" lon="13.141969302669168">
        <ele>362</ele>
        <time>2026-08-29T12:09:02Z</time>
      </trkpt>
      <trkpt lat="50.795256150886416" lon="13.141944659873843">
        <ele>363</ele>
        <time>2026-08-29T12:09:03Z</time>
      </trkpt>
      <trkpt lat="50.795277860015631" lon="13.141922615468502">
        <ele>363</ele>
        <time>2026-08-29T12:09:04Z</time>
      </trkpt>
      <trkpt lat="50.795295462012291" lon="13.141908030956984">
        <ele>364</ele>
        <time>2026-08-29T12:09:05Z</time>
      </trkpt>
      <trkpt lat="50.795309292152524" lon="13.141900319606066">
        <ele>364</ele>
        <time>2026-08-29T12:09:06Z</time>
      </trkpt>
      <trkpt lat="50.795323541387916" lon="13.14189126715064">
        <ele>364</ele>
        <time>2026-08-29T12:09:07Z</time>
      </trkpt>
      <trkpt lat="50.795344579964876" lon="13.141880873590708">
        <ele>364</ele>
        <time>2026-08-29T12:09:08Z</time>
      </trkpt>
      <trkpt lat="50.795365367084742" lon="13.14186830073595">
        <ele>364</ele>
        <time>2026-08-29T12:09:09Z</time>
      </trkpt>
      <trkpt lat="50.795392440631986" lon="13.141860505566001">
        <ele>364</ele>
        <time>2026-08-29T12:09:10Z</time>
      </trkpt>
      <trkpt lat="50.795419430360198" lon="13.141854386776686">
        <ele>364</ele>
        <time>2026-08-29T12:09:11Z</time>
      </trkpt>
      <trkpt lat="50.795441558584571" lon="13.141845501959324">
        <ele>365</ele>
        <time>2026-08-29T12:09:12Z</time>
      </trkpt>
      <trkpt lat="50.795454131439328" lon="13.141842065379024">
        <ele>364</ele>
        <time>2026-08-29T12:09:13Z</time>
      </trkpt>
      <trkpt lat="50.795475924387574" lon="13.141828654333949">
        <ele>365</ele>
        <time>2026-08-29T12:09:14Z</time>
      </trkpt>
      <trkpt lat="50.795496040955186" lon="13.141822284087539">
        <ele>365</ele>
        <time>2026-08-29T12:09:15Z</time>
      </trkpt>
      <trkpt lat="50.795526299625635" lon="13.141809459775686">
        <ele>364</ele>
        <time>2026-08-29T12:09:16Z</time>
      </trkpt>
      <trkpt lat="50.795553624629974" lon="13.141803340986371">
        <ele>365</ele>
        <time>2026-08-29T12:09:17Z</time>
      </trkpt>
      <trkpt lat="50.795586481690407" lon="13.141784062609076">
        <ele>365</ele>
        <time>2026-08-29T12:09:18Z</time>
      </trkpt>
      <trkpt lat="50.795614728704095" lon="13.141771657392383">
        <ele>365</ele>
        <time>2026-08-29T12:09:19Z</time>
      </trkpt>
      <trkpt lat="50.79564968124032" lon="13.141758413985372">
        <ele>365</ele>
        <time>2026-08-29T12:09:20Z</time>
      </trkpt>
      <trkpt lat="50.795700810849667" lon="13.141737459227443">
        <ele>365</ele>
        <time>2026-08-29T12:09:21Z</time>
      </trkpt>
      <trkpt lat="50.795755544677377" lon="13.14173343591392">
        <ele>365</ele>
        <time>2026-08-29T12:09:22Z</time>
      </trkpt>
      <trkpt lat="50.795810949057341" lon="13.141709212213755">
        <ele>365</ele>
        <time>2026-08-29T12:09:23Z</time>
      </trkpt>
      <trkpt lat="50.795868868008256" lon="13.141680210828781">
        <ele>365</ele>
        <time>2026-08-29T12:09:24Z</time>
      </trkpt>
      <trkpt lat="50.795920416712761" lon="13.141646264120936">
        <ele>366</ele>
        <time>2026-08-29T12:09:25Z</time>
      </trkpt>
      <trkpt lat="50.795969869941473" lon="13.141611898317933">
        <ele>366</ele>
        <time>2026-08-29T12:09:26Z</time>
      </trkpt>
      <trkpt lat="50.796020412817597" lon="13.141570743173361">
        <ele>366</ele>
        <time>2026-08-29T12:09:27Z</time>
      </trkpt>
      <trkpt lat="50.796064082533121" lon="13.141527241095901">
        <ele>366</ele>
        <time>2026-08-29T12:09:28Z</time>
      </trkpt>
      <trkpt lat="50.796107668429613" lon="13.141481140628457">
        <ele>366</ele>
        <time>2026-08-29T12:09:29Z</time>
      </trkpt>
      <trkpt lat="50.796145722270012" lon="13.14143973402679">
        <ele>365</ele>
        <time>2026-08-29T12:09:30Z</time>
      </trkpt>
      <trkpt lat="50.796190900728106" lon="13.141422970220447">
        <ele>365</ele>
        <time>2026-08-29T12:09:31Z</time>
      </trkpt>
      <trkpt lat="50.796223925426602" lon="13.141393885016441">
        <ele>365</ele>
        <time>2026-08-29T12:09:32Z</time>
      </trkpt>
      <trkpt lat="50.796258291229606" lon="13.141375612467527">
        <ele>365</ele>
        <time>2026-08-29T12:09:33Z</time>
      </trkpt>
      <trkpt lat="50.796289891004562" lon="13.141353819519281">
        <ele>365</ele>
        <time>2026-08-29T12:09:34Z</time>
      </trkpt>
      <trkpt lat="50.796323167160153" lon="13.14133177511394">
        <ele>365</ele>
        <time>2026-08-29T12:09:35Z</time>
      </trkpt>
      <trkpt lat="50.796355856582522" lon="13.141312748193741">
        <ele>364</ele>
        <time>2026-08-29T12:09:36Z</time>
      </trkpt>
      <trkpt lat="50.796384857967496" lon="13.141299169510603">
        <ele>364</ele>
        <time>2026-08-29T12:09:37Z</time>
      </trkpt>
      <trkpt lat="50.796418804675341" lon="13.141282489523292">
        <ele>365</ele>
        <time>2026-08-29T12:09:38Z</time>
      </trkpt>
      <trkpt lat="50.796449650079012" lon="13.1412648037076">
        <ele>365</ele>
        <time>2026-08-29T12:09:39Z</time>
      </trkpt>
      <trkpt lat="50.796478651463985" lon="13.141244938597083">
        <ele>365</ele>
        <time>2026-08-29T12:09:40Z</time>
      </trkpt>
      <trkpt lat="50.796511927619576" lon="13.141230018809438">
        <ele>366</ele>
        <time>2026-08-29T12:09:41Z</time>
      </trkpt>
      <trkpt lat="50.796543611213565" lon="13.141210656613111">
        <ele>365</ele>
        <time>2026-08-29T12:09:42Z</time>
      </trkpt>
      <trkpt lat="50.796576803550124" lon="13.141198586672544">
        <ele>366</ele>
        <time>2026-08-29T12:09:43Z</time>
      </trkpt>
      <trkpt lat="50.796605888754129" lon="13.141185343265533">
        <ele>366</ele>
        <time>2026-08-29T12:09:44Z</time>
      </trkpt>
      <trkpt lat="50.796638997271657" lon="13.141172770410776">
        <ele>366</ele>
        <time>2026-08-29T12:09:45Z</time>
      </trkpt>
      <trkpt lat="50.796669339761138" lon="13.141148714348674">
        <ele>365</ele>
        <time>2026-08-29T12:09:46Z</time>
      </trkpt>
      <trkpt lat="50.796694150194526" lon="13.141129435971379">
        <ele>365</ele>
        <time>2026-08-29T12:09:47Z</time>
      </trkpt>
      <trkpt lat="50.796725749969482" lon="13.141107559204102">
        <ele>365</ele>
        <time>2026-08-29T12:09:48Z</time>
      </trkpt>
      <trkpt lat="50.796760451048613" lon="13.141091298311949">
        <ele>365</ele>
        <time>2026-08-29T12:09:49Z</time>
      </trkpt>
      <trkpt lat="50.796791631728411" lon="13.141072019934654">
        <ele>365</ele>
        <time>2026-08-29T12:09:50Z</time>
      </trkpt>
      <trkpt lat="50.796819208189845" lon="13.141067074611783">
        <ele>365</ele>
        <time>2026-08-29T12:09:51Z</time>
      </trkpt>
      <trkpt lat="50.79685315489769" lon="13.141051903367043">
        <ele>365</ele>
        <time>2026-08-29T12:09:52Z</time>
      </trkpt>
      <trkpt lat="50.796890538185835" lon="13.141038743779063">
        <ele>365</ele>
        <time>2026-08-29T12:09:53Z</time>
      </trkpt>
      <trkpt lat="50.796927167102695" lon="13.141031283885241">
        <ele>364</ele>
        <time>2026-08-29T12:09:54Z</time>
      </trkpt>
      <trkpt lat="50.796957844868302" lon="13.141015693545341">
        <ele>364</ele>
        <time>2026-08-29T12:09:55Z</time>
      </trkpt>
      <trkpt lat="50.79699145630002" lon="13.140995828434825">
        <ele>363</ele>
        <time>2026-08-29T12:09:56Z</time>
      </trkpt>
      <trkpt lat="50.797021128237247" lon="13.140983004122972">
        <ele>363</ele>
        <time>2026-08-29T12:09:57Z</time>
      </trkpt>
      <trkpt lat="50.797050297260284" lon="13.140972107648849">
        <ele>363</ele>
        <time>2026-08-29T12:09:58Z</time>
      </trkpt>
      <trkpt lat="50.79708524979651" lon="13.140960624441504">
        <ele>363</ele>
        <time>2026-08-29T12:09:59Z</time>
      </trkpt>
      <trkpt lat="50.797112490981817" lon="13.140944950282574">
        <ele>363</ele>
        <time>2026-08-29T12:10:00Z</time>
      </trkpt>
      <trkpt lat="50.797147192060947" lon="13.140928605571389">
        <ele>363</ele>
        <time>2026-08-29T12:10:01Z</time>
      </trkpt>
      <trkpt lat="50.797185078263283" lon="13.140910416841507">
        <ele>363</ele>
        <time>2026-08-29T12:10:02Z</time>
      </trkpt>
      <trkpt lat="50.797219360247254" lon="13.140892060473561">
        <ele>363</ele>
        <time>2026-08-29T12:10:03Z</time>
      </trkpt>
      <trkpt lat="50.797257078811526" lon="13.140876302495599">
        <ele>363</ele>
        <time>2026-08-29T12:10:04Z</time>
      </trkpt>
      <trkpt lat="50.797286331653595" lon="13.140864484012127">
        <ele>363</ele>
        <time>2026-08-29T12:10:05Z</time>
      </trkpt>
      <trkpt lat="50.797318182885647" lon="13.140847301110625">
        <ele>362</ele>
        <time>2026-08-29T12:10:06Z</time>
      </trkpt>
      <trkpt lat="50.797365624457598" lon="13.140837410464883">
        <ele>362</ele>
        <time>2026-08-29T12:10:07Z</time>
      </trkpt>
      <trkpt lat="50.797405606135726" lon="13.140822825953364">
        <ele>362</ele>
        <time>2026-08-29T12:10:08Z</time>
      </trkpt>
      <trkpt lat="50.797463608905673" lon="13.140802038833499">
        <ele>362</ele>
        <time>2026-08-29T12:10:09Z</time>
      </trkpt>
      <trkpt lat="50.797526137903333" lon="13.140781335532665">
        <ele>362</ele>
        <time>2026-08-29T12:10:10Z</time>
      </trkpt>
      <trkpt lat="50.797583051025867" lon="13.140758536756039">
        <ele>362</ele>
        <time>2026-08-29T12:10:11Z</time>
      </trkpt>
      <trkpt lat="50.797645412385464" lon="13.140737917274237">
        <ele>362</ele>
        <time>2026-08-29T12:10:12Z</time>
      </trkpt>
      <trkpt lat="50.797708947211504" lon="13.140719225630164">
        <ele>362</ele>
        <time>2026-08-29T12:10:13Z</time>
      </trkpt>
      <trkpt lat="50.797764770686626" lon="13.140699528157711">
        <ele>362</ele>
        <time>2026-08-29T12:10:14Z</time>
      </trkpt>
      <trkpt lat="50.797821851447225" lon="13.140695504844189">
        <ele>361</ele>
        <time>2026-08-29T12:10:15Z</time>
      </trkpt>
      <trkpt lat="50.797884128987789" lon="13.140682009980083">
        <ele>360</ele>
        <time>2026-08-29T12:10:16Z</time>
      </trkpt>
      <trkpt lat="50.797938108444214" lon="13.140666587278247">
        <ele>360</ele>
        <time>2026-08-29T12:10:17Z</time>
      </trkpt>
      <trkpt lat="50.798000134527683" lon="13.140652840957046">
        <ele>359</ele>
        <time>2026-08-29T12:10:18Z</time>
      </trkpt>
      <trkpt lat="50.798070458695292" lon="13.140637166798115">
        <ele>359</ele>
        <time>2026-08-29T12:10:19Z</time>
      </trkpt>
      <trkpt lat="50.798134412616491" lon="13.140613278374076">
        <ele>358</ele>
        <time>2026-08-29T12:10:20Z</time>
      </trkpt>
      <trkpt lat="50.798200713470578" lon="13.140602800995111">
        <ele>359</ele>
        <time>2026-08-29T12:10:21Z</time>
      </trkpt>
      <trkpt lat="50.798280341550708" lon="13.140591150149703">
        <ele>358</ele>
        <time>2026-08-29T12:10:22Z</time>
      </trkpt>
      <trkpt lat="50.798352677375078" lon="13.140562986955047">
        <ele>358</ele>
        <time>2026-08-29T12:10:23Z</time>
      </trkpt>
      <trkpt lat="50.798423336818814" lon="13.140536081045866">
        <ele>359</ele>
        <time>2026-08-29T12:10:24Z</time>
      </trkpt>
      <trkpt lat="50.79849349334836" lon="13.140524597838521">
        <ele>358</ele>
        <time>2026-08-29T12:10:25Z</time>
      </trkpt>
      <trkpt lat="50.798576390370727" lon="13.140499452129006">
        <ele>357</ele>
        <time>2026-08-29T12:10:26Z</time>
      </trkpt>
      <trkpt lat="50.798652330413461" lon="13.140470953658223">
        <ele>356</ele>
        <time>2026-08-29T12:10:27Z</time>
      </trkpt>
      <trkpt lat="50.798728438094258" lon="13.140445975586772">
        <ele>356</ele>
        <time>2026-08-29T12:10:28Z</time>
      </trkpt>
      <trkpt lat="50.798807395622134" lon="13.140410520136356">
        <ele>356</ele>
        <time>2026-08-29T12:10:29Z</time>
      </trkpt>
      <trkpt lat="50.798886688426137" lon="13.140395013615489">
        <ele>355</ele>
        <time>2026-08-29T12:10:30Z</time>
      </trkpt>
      <trkpt lat="50.798968747258186" lon="13.140378752723336">
        <ele>355</ele>
        <time>2026-08-29T12:10:31Z</time>
      </trkpt>
      <trkpt lat="50.799052063375711" lon="13.140355618670583">
        <ele>355</ele>
        <time>2026-08-29T12:10:32Z</time>
      </trkpt>
      <trkpt lat="50.799129595980048" lon="13.140329802408814">
        <ele>355</ele>
        <time>2026-08-29T12:10:33Z</time>
      </trkpt>
      <trkpt lat="50.799214420840144" lon="13.140314128249884">
        <ele>355</ele>
        <time>2026-08-29T12:10:34Z</time>
      </trkpt>
      <trkpt lat="50.799297569319606" lon="13.140290156006813">
        <ele>354</ele>
        <time>2026-08-29T12:10:35Z</time>
      </trkpt>
      <trkpt lat="50.79938180744648" lon="13.140280181542039">
        <ele>355</ele>
        <time>2026-08-29T12:10:36Z</time>
      </trkpt>
      <trkpt lat="50.799465207383037" lon="13.140266267582774">
        <ele>354</ele>
        <time>2026-08-29T12:10:37Z</time>
      </trkpt>
      <trkpt lat="50.7995396386832" lon="13.140252353623509">
        <ele>354</ele>
        <time>2026-08-29T12:10:38Z</time>
      </trkpt>
      <trkpt lat="50.799617422744632" lon="13.140251934528351">
        <ele>354</ele>
        <time>2026-08-29T12:10:39Z</time>
      </trkpt>
      <trkpt lat="50.799691267311573" lon="13.14024698920548">
        <ele>354</ele>
        <time>2026-08-29T12:10:40Z</time>
      </trkpt>
      <trkpt lat="50.799760585650802" lon="13.140249252319336">
        <ele>353</ele>
        <time>2026-08-29T12:10:41Z</time>
      </trkpt>
      <trkpt lat="50.799834262579679" lon="13.140247743576765">
        <ele>353</ele>
        <time>2026-08-29T12:10:42Z</time>
      </trkpt>
      <trkpt lat="50.799898216500878" lon="13.140249000862241">
        <ele>352</ele>
        <time>2026-08-29T12:10:43Z</time>
      </trkpt>
      <trkpt lat="50.799966529011726" lon="13.140243468806148">
        <ele>352</ele>
        <time>2026-08-29T12:10:44Z</time>
      </trkpt>
      <trkpt lat="50.800038110464811" lon="13.140236176550388">
        <ele>352</ele>
        <time>2026-08-29T12:10:45Z</time>
      </trkpt>
      <trkpt lat="50.800109021365643" lon="13.140235841274261">
        <ele>353</ele>
        <time>2026-08-29T12:10:46Z</time>
      </trkpt>
      <trkpt lat="50.800173478201032" lon="13.140233075246215">
        <ele>353</ele>
        <time>2026-08-29T12:10:47Z</time>
      </trkpt>
      <trkpt lat="50.800241120159626" lon="13.140228046104312">
        <ele>353</ele>
        <time>2026-08-29T12:10:48Z</time>
      </trkpt>
      <trkpt lat="50.800302978605032" lon="13.140229303389788">
        <ele>353</ele>
        <time>2026-08-29T12:10:49Z</time>
      </trkpt>
      <trkpt lat="50.800359304994345" lon="13.14022402279079">
        <ele>353</ele>
        <time>2026-08-29T12:10:50Z</time>
      </trkpt>
      <trkpt lat="50.800423426553607" lon="13.14021865837276">
        <ele>353</ele>
        <time>2026-08-29T12:10:51Z</time>
      </trkpt>
      <trkpt lat="50.80048805102706" lon="13.140204073861241">
        <ele>353</ele>
        <time>2026-08-29T12:10:52Z</time>
      </trkpt>
      <trkpt lat="50.800556112080812" lon="13.140183286741376">
        <ele>353</ele>
        <time>2026-08-29T12:10:53Z</time>
      </trkpt>
      <trkpt lat="50.80061461776495" lon="13.140154452994466">
        <ele>352</ele>
        <time>2026-08-29T12:10:54Z</time>
      </trkpt>
      <trkpt lat="50.800669770687819" lon="13.140114722773433">
        <ele>352</ele>
        <time>2026-08-29T12:10:55Z</time>
      </trkpt>
      <trkpt lat="50.800727354362607" lon="13.140081698074937">
        <ele>352</ele>
        <time>2026-08-29T12:10:56Z</time>
      </trkpt>
      <trkpt lat="50.800780998542905" lon="13.140047080814838">
        <ele>352</ele>
        <time>2026-08-29T12:10:57Z</time>
      </trkpt>
      <trkpt lat="50.800838498398662" lon="13.140004081651568">
        <ele>352</ele>
        <time>2026-08-29T12:10:58Z</time>
      </trkpt>
      <trkpt lat="50.800894657149911" lon="13.139960579574108">
        <ele>351</ele>
        <time>2026-08-29T12:10:59Z</time>
      </trkpt>
      <trkpt lat="50.800944864749908" lon="13.139920346438885">
        <ele>351</ele>
        <time>2026-08-29T12:11:00Z</time>
      </trkpt>
      <trkpt lat="50.800999011844397" lon="13.139883130788803">
        <ele>352</ele>
        <time>2026-08-29T12:11:01Z</time>
      </trkpt>
      <trkpt lat="50.801049889996648" lon="13.139855302870274">
        <ele>352</ele>
        <time>2026-08-29T12:11:02Z</time>
      </trkpt>
      <trkpt lat="50.801097331568599" lon="13.139823703095317">
        <ele>352</ele>
        <time>2026-08-29T12:11:03Z</time>
      </trkpt>
      <trkpt lat="50.801142929121852" lon="13.139792270958424">
        <ele>352</ele>
        <time>2026-08-29T12:11:04Z</time>
      </trkpt>
      <trkpt lat="50.801184587180614" lon="13.139758240431547">
        <ele>352</ele>
        <time>2026-08-29T12:11:05Z</time>
      </trkpt>
      <trkpt lat="50.801225239410996" lon="13.139731083065271">
        <ele>352</ele>
        <time>2026-08-29T12:11:06Z</time>
      </trkpt>
      <trkpt lat="50.801265807822347" lon="13.1397002376616">
        <ele>352</ele>
        <time>2026-08-29T12:11:07Z</time>
      </trkpt>
      <trkpt lat="50.801300592720509" lon="13.139675175771117">
        <ele>351</ele>
        <time>2026-08-29T12:11:08Z</time>
      </trkpt>
      <trkpt lat="50.801340071484447" lon="13.13964307308197">
        <ele>351</ele>
        <time>2026-08-29T12:11:09Z</time>
      </trkpt>
      <trkpt lat="50.801378879696131" lon="13.139615328982472">
        <ele>351</ele>
        <time>2026-08-29T12:11:10Z</time>
      </trkpt>
      <trkpt lat="50.801415927708149" lon="13.139588087797165">
        <ele>352</ele>
        <time>2026-08-29T12:11:11Z</time>
      </trkpt>
      <trkpt lat="50.80145456828177" lon="13.139560343697667">
        <ele>351</ele>
        <time>2026-08-29T12:11:12Z</time>
      </trkpt>
      <trkpt lat="50.80149170011282" lon="13.139528324827552">
        <ele>351</ele>
        <time>2026-08-29T12:11:13Z</time>
      </trkpt>
      <trkpt lat="50.80152740702033" lon="13.139506448060274">
        <ele>351</ele>
        <time>2026-08-29T12:11:14Z</time>
      </trkpt>
      <trkpt lat="50.801563868299127" lon="13.139479039236903">
        <ele>351</ele>
        <time>2026-08-29T12:11:15Z</time>
      </trkpt>
      <trkpt lat="50.801594546064734" lon="13.139452720060945">
        <ele>351</ele>
        <time>2026-08-29T12:11:16Z</time>
      </trkpt>
      <trkpt lat="50.801623547449708" lon="13.139429921284318">
        <ele>351</ele>
        <time>2026-08-29T12:11:17Z</time>
      </trkpt>
      <trkpt lat="50.801650620996952" lon="13.139412570744753">
        <ele>351</ele>
        <time>2026-08-29T12:11:18Z</time>
      </trkpt>
      <trkpt lat="50.801675179973245" lon="13.139390191063285">
        <ele>351</ele>
        <time>2026-08-29T12:11:19Z</time>
      </trkpt>
      <trkpt lat="50.801700158044696" lon="13.139373594895005">
        <ele>351</ele>
        <time>2026-08-29T12:11:20Z</time>
      </trkpt>
      <trkpt lat="50.801728153601289" lon="13.139360519126058">
        <ele>351</ele>
        <time>2026-08-29T12:11:21Z</time>
      </trkpt>
      <trkpt lat="50.801754891872406" lon="13.13935230486095">
        <ele>352</ele>
        <time>2026-08-29T12:11:22Z</time>
      </trkpt>
      <trkpt lat="50.801783055067062" lon="13.139353226870298">
        <ele>351</ele>
        <time>2026-08-29T12:11:23Z</time>
      </trkpt>
      <trkpt lat="50.801814654842019" lon="13.13934501260519">
        <ele>351</ele>
        <time>2026-08-29T12:11:24Z</time>
      </trkpt>
      <trkpt lat="50.801844159141183" lon="13.139337049797177">
        <ele>350</ele>
        <time>2026-08-29T12:11:25Z</time>
      </trkpt>
      <trkpt lat="50.801874501630664" lon="13.139313496649265">
        <ele>350</ele>
        <time>2026-08-29T12:11:26Z</time>
      </trkpt>
      <trkpt lat="50.801903167739511" lon="13.139284076169133">
        <ele>350</ele>
        <time>2026-08-29T12:11:27Z</time>
      </trkpt>
      <trkpt lat="50.801930828019977" lon="13.139255912974477">
        <ele>350</ele>
        <time>2026-08-29T12:11:28Z</time>
      </trkpt>
      <trkpt lat="50.801954045891762" lon="13.139219535514712">
        <ele>350</ele>
        <time>2026-08-29T12:11:29Z</time>
      </trkpt>
      <trkpt lat="50.801982209086418" lon="13.139182152226567">
        <ele>350</ele>
        <time>2026-08-29T12:11:30Z</time>
      </trkpt>
      <trkpt lat="50.802007438614964" lon="13.139155749231577">
        <ele>350</ele>
        <time>2026-08-29T12:11:31Z</time>
      </trkpt>
      <trkpt lat="50.802034931257367" lon="13.139125825837255">
        <ele>350</ele>
        <time>2026-08-29T12:11:32Z</time>
      </trkpt>
      <trkpt lat="50.80205949023366" lon="13.139099422842264">
        <ele>349</ele>
        <time>2026-08-29T12:11:33Z</time>
      </trkpt>
      <trkpt lat="50.802090251818299" lon="13.139077378436923">
        <ele>349</ele>
        <time>2026-08-29T12:11:34Z</time>
      </trkpt>
      <trkpt lat="50.802126796916127" lon="13.139048712328076">
        <ele>348</ele>
        <time>2026-08-29T12:11:35Z</time>
      </trkpt>
      <trkpt lat="50.802161414176226" lon="13.139010993763804">
        <ele>348</ele>
        <time>2026-08-29T12:11:36Z</time>
      </trkpt>
      <trkpt lat="50.802188739180565" lon="13.138975957408547">
        <ele>348</ele>
        <time>2026-08-29T12:11:37Z</time>
      </trkpt>
      <trkpt lat="50.802215728908777" lon="13.138932036235929">
        <ele>348</ele>
        <time>2026-08-29T12:11:38Z</time>
      </trkpt>
      <trkpt lat="50.80224129371345" lon="13.138888785615563">
        <ele>348</ele>
        <time>2026-08-29T12:11:39Z</time>
      </trkpt>
      <trkpt lat="50.802270378917456" lon="13.138842601329088">
        <ele>348</ele>
        <time>2026-08-29T12:11:40Z</time>
      </trkpt>
      <trkpt lat="50.802296530455351" lon="13.138799853622913">
        <ele>348</ele>
        <time>2026-08-29T12:11:41Z</time>
      </trkpt>
      <trkpt lat="50.80232041887939" lon="13.138760458678007">
        <ele>349</ele>
        <time>2026-08-29T12:11:42Z</time>
      </trkpt>
      <trkpt lat="50.802344558760524" lon="13.138725506141782">
        <ele>348</ele>
        <time>2026-08-29T12:11:43Z</time>
      </trkpt>
      <trkpt lat="50.802372302860022" lon="13.138690134510398">
        <ele>348</ele>
        <time>2026-08-29T12:11:44Z</time>
      </trkpt>
      <trkpt lat="50.802400046959519" lon="13.138653421774507">
        <ele>348</ele>
        <time>2026-08-29T12:11:45Z</time>
      </trkpt>
      <trkpt lat="50.802425108850002" lon="13.138617463409901">
        <ele>348</ele>
        <time>2026-08-29T12:11:46Z</time>
      </trkpt>
      <trkpt lat="50.802452769130468" lon="13.138588629662991">
        <ele>348</ele>
        <time>2026-08-29T12:11:47Z</time>
      </trkpt>
      <trkpt lat="50.80248068086803" lon="13.138560382649302">
        <ele>348</ele>
        <time>2026-08-29T12:11:48Z</time>
      </trkpt>
      <trkpt lat="50.802512699738145" lon="13.138537751510739">
        <ele>348</ele>
        <time>2026-08-29T12:11:49Z</time>
      </trkpt>
      <trkpt lat="50.802540611475706" lon="13.138505648821592">
        <ele>348</ele>
        <time>2026-08-29T12:11:50Z</time>
      </trkpt>
      <trkpt lat="50.802567265927792" lon="13.138475809246302">
        <ele>347</ele>
        <time>2026-08-29T12:11:51Z</time>
      </trkpt>
      <trkpt lat="50.802596770226955" lon="13.138449154794216">
        <ele>347</ele>
        <time>2026-08-29T12:11:52Z</time>
      </trkpt>
      <trkpt lat="50.802624681964517" lon="13.138425266370177">
        <ele>348</ele>
        <time>2026-08-29T12:11:53Z</time>
      </trkpt>
      <trkpt lat="50.802652509883046" lon="13.138394253328443">
        <ele>348</ele>
        <time>2026-08-29T12:11:54Z</time>
      </trkpt>
      <trkpt lat="50.802678326144814" lon="13.138358043506742">
        <ele>348</ele>
        <time>2026-08-29T12:11:55Z</time>
      </trkpt>
      <trkpt lat="50.802703220397234" lon="13.138316050171852">
        <ele>347</ele>
        <time>2026-08-29T12:11:56Z</time>
      </trkpt>
      <trkpt lat="50.802730126306415" lon="13.138277996331453">
        <ele>347</ele>
        <time>2026-08-29T12:11:57Z</time>
      </trkpt>
      <trkpt lat="50.802753008902073" lon="13.138242540881038">
        <ele>347</ele>
        <time>2026-08-29T12:11:58Z</time>
      </trkpt>
      <trkpt lat="50.802784357219934" lon="13.138207085430622">
        <ele>348</ele>
        <time>2026-08-29T12:11:59Z</time>
      </trkpt>
      <trkpt lat="50.802816711366177" lon="13.138178084045649">
        <ele>348</ele>
        <time>2026-08-29T12:12:00Z</time>
      </trkpt>
      <trkpt lat="50.802851747721434" lon="13.138152519240975">
        <ele>348</ele>
        <time>2026-08-29T12:12:01Z</time>
      </trkpt>
      <trkpt lat="50.802896758541465" lon="13.138124356046319">
        <ele>348</ele>
        <time>2026-08-29T12:12:02Z</time>
      </trkpt>
      <trkpt lat="50.802942188456655" lon="13.138091750442982">
        <ele>347</ele>
        <time>2026-08-29T12:12:03Z</time>
      </trkpt>
      <trkpt lat="50.802991222590208" lon="13.138041291385889">
        <ele>348</ele>
        <time>2026-08-29T12:12:04Z</time>
      </trkpt>
      <trkpt lat="50.803026258945465" lon="13.137993179261684">
        <ele>348</ele>
        <time>2026-08-29T12:12:05Z</time>
      </trkpt>
      <trkpt lat="50.803056601434946" lon="13.137941295281053">
        <ele>348</ele>
        <time>2026-08-29T12:12:06Z</time>
      </trkpt>
      <trkpt lat="50.803090464323759" lon="13.137881616130471">
        <ele>348</ele>
        <time>2026-08-29T12:12:07Z</time>
      </trkpt>
      <trkpt lat="50.803128350526094" lon="13.137837946414948">
        <ele>348</ele>
        <time>2026-08-29T12:12:08Z</time>
      </trkpt>
      <trkpt lat="50.803165147081017" lon="13.137790923938155">
        <ele>348</ele>
        <time>2026-08-29T12:12:09Z</time>
      </trkpt>
      <trkpt lat="50.80319850705564" lon="13.137742979452014">
        <ele>348</ele>
        <time>2026-08-29T12:12:10Z</time>
      </trkpt>
      <trkpt lat="50.803229017183185" lon="13.13769243657589">
        <ele>348</ele>
        <time>2026-08-29T12:12:11Z</time>
      </trkpt>
      <trkpt lat="50.803257431834936" lon="13.137639379128814">
        <ele>348</ele>
        <time>2026-08-29T12:12:12Z</time>
      </trkpt>
      <trkpt lat="50.803289450705051" lon="13.137585232034326">
        <ele>348</ele>
        <time>2026-08-29T12:12:13Z</time>
      </trkpt>
      <trkpt lat="50.803311076015234" lon="13.137533934786916">
        <ele>348</ele>
        <time>2026-08-29T12:12:14Z</time>
      </trkpt>
      <trkpt lat="50.803334629163146" lon="13.137474842369556">
        <ele>348</ele>
        <time>2026-08-29T12:12:15Z</time>
      </trkpt>
      <trkpt lat="50.803357763215899" lon="13.137426730245352">
        <ele>349</ele>
        <time>2026-08-29T12:12:16Z</time>
      </trkpt>
      <trkpt lat="50.803384501487017" lon="13.137370571494102">
        <ele>349</ele>
        <time>2026-08-29T12:12:17Z</time>
      </trkpt>
      <trkpt lat="50.803413167595863" lon="13.13732547685504">
        <ele>349</ele>
        <time>2026-08-29T12:12:18Z</time>
      </trkpt>
      <trkpt lat="50.803426159545779" lon="13.13728935085237">
        <ele>349</ele>
        <time>2026-08-29T12:12:19Z</time>
      </trkpt>
      <trkpt lat="50.803434709087014" lon="13.137261187657714">
        <ele>349</ele>
        <time>2026-08-29T12:12:20Z</time>
      </trkpt>
      <trkpt lat="50.803432194516063" lon="13.137251380831003">
        <ele>349</ele>
        <time>2026-08-29T12:12:21Z</time>
      </trkpt>
      <trkpt lat="50.803428841754794" lon="13.137248866260052">
        <ele>349</ele>
        <time>2026-08-29T12:12:22Z</time>
      </trkpt>
      <trkpt lat="50.803429679945111" lon="13.137243166565895">
        <ele>349</ele>
        <time>2026-08-29T12:12:23Z</time>
      </trkpt>
      <trkpt lat="50.803435714915395" lon="13.137244423851371">
        <ele>349</ele>
        <time>2026-08-29T12:12:24Z</time>
      </trkpt>
      <trkpt lat="50.803435631096363" lon="13.137245094403625">
        <ele>349</ele>
        <time>2026-08-29T12:12:25Z</time>
      </trkpt>
      <trkpt lat="50.803435714915395" lon="13.137245597317815">
        <ele>349</ele>
        <time>2026-08-29T12:12:26Z</time>
      </trkpt>
      <trkpt lat="50.803435798734426" lon="13.137245764955878">
        <ele>349</ele>
        <time>2026-08-29T12:12:27Z</time>
      </trkpt>
      <trkpt lat="50.803435882553458" lon="13.137246100232005">
        <ele>349</ele>
        <time>2026-08-29T12:12:28Z</time>
      </trkpt>
      <trkpt lat="50.803436050191522" lon="13.137246519327164">
        <ele>350</ele>
        <time>2026-08-29T12:12:29Z</time>
      </trkpt>
      <trkpt lat="50.803437642753124" lon="13.137242663651705">
        <ele>350</ele>
        <time>2026-08-29T12:12:30Z</time>
      </trkpt>
      <trkpt lat="50.803440157324076" lon="13.137243501842022">
        <ele>350</ele>
        <time>2026-08-29T12:12:31Z</time>
      </trkpt>
      <trkpt lat="50.803440157324076" lon="13.137243753299117">
        <ele>350</ele>
        <time>2026-08-29T12:12:32Z</time>
      </trkpt>
      <trkpt lat="50.803432362154126" lon="13.137242747470737">
        <ele>349</ele>
        <time>2026-08-29T12:12:33Z</time>
      </trkpt>
      <trkpt lat="50.803429260849953" lon="13.137240400537848">
        <ele>349</ele>
        <time>2026-08-29T12:12:34Z</time>
      </trkpt>
      <trkpt lat="50.803430182859302" lon="13.13724341802299">
        <ele>349</ele>
        <time>2026-08-29T12:12:35Z</time>
      </trkpt>
      <trkpt lat="50.803430518135428" lon="13.137243585661054">
        <ele>349</ele>
        <time>2026-08-29T12:12:36Z</time>
      </trkpt>
      <trkpt lat="50.80343009904027" lon="13.137244088575244">
        <ele>349</ele>
        <time>2026-08-29T12:12:37Z</time>
      </trkpt>
      <trkpt lat="50.803430015221238" lon="13.137244172394276">
        <ele>349</ele>
        <time>2026-08-29T12:12:38Z</time>
      </trkpt>
      <trkpt lat="50.803429428488016" lon="13.137244759127498">
        <ele>349</ele>
        <time>2026-08-29T12:12:39Z</time>
      </trkpt>
      <trkpt lat="50.803429177030921" lon="13.137244926765561">
        <ele>349</ele>
        <time>2026-08-29T12:12:40Z</time>
      </trkpt>
      <trkpt lat="50.803428925573826" lon="13.137244591489434">
        <ele>349</ele>
        <time>2026-08-29T12:12:41Z</time>
      </trkpt>
      <trkpt lat="50.803428590297699" lon="13.137244591489434">
        <ele>349</ele>
        <time>2026-08-29T12:12:42Z</time>
      </trkpt>
      <trkpt lat="50.803428338840604" lon="13.137244842946529">
        <ele>349</ele>
        <time>2026-08-29T12:12:43Z</time>
      </trkpt>
      <trkpt lat="50.803428506478667" lon="13.137245178222656">
        <ele>349</ele>
        <time>2026-08-29T12:12:44Z</time>
      </trkpt>
      <trkpt lat="50.803428422659636" lon="13.137245681136847">
        <ele>349</ele>
        <time>2026-08-29T12:12:45Z</time>
      </trkpt>
      <trkpt lat="50.803432110697031" lon="13.137239227071404">
        <ele>350</ele>
        <time>2026-08-29T12:12:46Z</time>
      </trkpt>
      <trkpt lat="50.803433870896697" lon="13.137233527377248">
        <ele>350</ele>
        <time>2026-08-29T12:12:47Z</time>
      </trkpt>
      <trkpt lat="50.803434541448951" lon="13.137232940644026">
        <ele>350</ele>
        <time>2026-08-29T12:12:48Z</time>
      </trkpt>
      <trkpt lat="50.803434709087014" lon="13.137232773005962">
        <ele>350</ele>
        <time>2026-08-29T12:12:49Z</time>
      </trkpt>
      <trkpt lat="50.803435044363141" lon="13.137233527377248">
        <ele>350</ele>
        <time>2026-08-29T12:12:50Z</time>
      </trkpt>
      <trkpt lat="50.803435295820236" lon="13.137234365567565">
        <ele>350</ele>
        <time>2026-08-29T12:12:51Z</time>
      </trkpt>
      <trkpt lat="50.803435379639268" lon="13.137235287576914">
        <ele>350</ele>
        <time>2026-08-29T12:12:52Z</time>
      </trkpt>
      <trkpt lat="50.803435547277331" lon="13.137235371395946">
        <ele>350</ele>
        <time>2026-08-29T12:12:53Z</time>
      </trkpt>
      <trkpt lat="50.803435631096363" lon="13.137235455214977">
        <ele>350</ele>
        <time>2026-08-29T12:12:54Z</time>
      </trkpt>
      <trkpt lat="50.803435798734426" lon="13.137235371395946">
        <ele>350</ele>
        <time>2026-08-29T12:12:55Z</time>
      </trkpt>
      <trkpt lat="50.803435798734426" lon="13.137235371395946">
        <ele>350</ele>
        <time>2026-08-29T12:12:56Z</time>
      </trkpt>
      <trkpt lat="50.803437810391188" lon="13.137235622853041">
        <ele>351</ele>
        <time>2026-08-29T12:12:57Z</time>
      </trkpt>
      <trkpt lat="50.803437978029251" lon="13.137235622853041">
        <ele>351</ele>
        <time>2026-08-29T12:12:58Z</time>
      </trkpt>
      <trkpt lat="50.803437810391188" lon="13.137235958129168">
        <ele>351</ele>
        <time>2026-08-29T12:12:59Z</time>
      </trkpt>
      <trkpt lat="50.8034423366189" lon="13.137239059433341">
        <ele>351</ele>
        <time>2026-08-29T12:13:00Z</time>
      </trkpt>
      <trkpt lat="50.803442168980837" lon="13.137239143252373">
        <ele>351</ele>
        <time>2026-08-29T12:13:01Z</time>
      </trkpt>
      <trkpt lat="50.803442252799869" lon="13.137239059433341">
        <ele>351</ele>
        <time>2026-08-29T12:13:02Z</time>
      </trkpt>
      <trkpt lat="50.803442001342773" lon="13.137239059433341">
        <ele>351</ele>
        <time>2026-08-29T12:13:03Z</time>
      </trkpt>
      <trkpt lat="50.803440576419234" lon="13.137238640338182">
        <ele>351</ele>
        <time>2026-08-29T12:13:04Z</time>
      </trkpt>
      <trkpt lat="50.803439319133759" lon="13.137242328375578">
        <ele>351</ele>
        <time>2026-08-29T12:13:05Z</time>
      </trkpt>
      <trkpt lat="50.803440408781171" lon="13.137237466871738">
        <ele>351</ele>
        <time>2026-08-29T12:13:06Z</time>
      </trkpt>
      <trkpt lat="50.803441246971488" lon="13.137233108282089">
        <ele>352</ele>
        <time>2026-08-29T12:13:07Z</time>
      </trkpt>
      <trkpt lat="50.803441582247615" lon="13.13723218627274">
        <ele>352</ele>
        <time>2026-08-29T12:13:08Z</time>
      </trkpt>
      <trkpt lat="50.803441582247615" lon="13.137232270091772">
        <ele>352</ele>
        <time>2026-08-29T12:13:09Z</time>
      </trkpt>
      <trkpt lat="50.803442755714059" lon="13.13722874969244">
        <ele>352</ele>
        <time>2026-08-29T12:13:10Z</time>
      </trkpt>
      <trkpt lat="50.803440241143107" lon="13.137222798541188">
        <ele>352</ele>
        <time>2026-08-29T12:13:11Z</time>
      </trkpt>
      <trkpt lat="50.803444012999535" lon="13.137210058048368">
        <ele>352</ele>
        <time>2026-08-29T12:13:12Z</time>
      </trkpt>
      <trkpt lat="50.803444432094693" lon="13.13718524761498">
        <ele>352</ele>
        <time>2026-08-29T12:13:13Z</time>
      </trkpt>
      <trkpt lat="50.803443677723408" lon="13.137160856276751">
        <ele>352</ele>
        <time>2026-08-29T12:13:14Z</time>
      </trkpt>
      <trkpt lat="50.803434122353792" lon="13.137128837406635">
        <ele>352</ele>
        <time>2026-08-29T12:13:15Z</time>
      </trkpt>
      <trkpt lat="50.803409479558468" lon="13.137097740545869">
        <ele>352</ele>
        <time>2026-08-29T12:13:16Z</time>
      </trkpt>
      <trkpt lat="50.803368659690022" lon="13.137068655341864">
        <ele>353</ele>
        <time>2026-08-29T12:13:17Z</time>
      </trkpt>
      <trkpt lat="50.803336724638939" lon="13.137027751654387">
        <ele>353</ele>
        <time>2026-08-29T12:13:18Z</time>
      </trkpt>
      <trkpt lat="50.803303867578506" lon="13.136996068060398">
        <ele>354</ele>
        <time>2026-08-29T12:13:19Z</time>
      </trkpt>
      <trkpt lat="50.803269669413567" lon="13.136943262070417">
        <ele>354</ele>
        <time>2026-08-29T12:13:20Z</time>
      </trkpt>
      <trkpt lat="50.803239159286022" lon="13.136893808841705">
        <ele>355</ele>
        <time>2026-08-29T12:13:21Z</time>
      </trkpt>
      <trkpt lat="50.803212672472" lon="13.136849049478769">
        <ele>355</ele>
        <time>2026-08-29T12:13:22Z</time>
      </trkpt>
      <trkpt lat="50.80319507047534" lon="13.136791633442044">
        <ele>355</ele>
        <time>2026-08-29T12:13:23Z</time>
      </trkpt>
      <trkpt lat="50.803188113495708" lon="13.136730864644051">
        <ele>355</ele>
        <time>2026-08-29T12:13:24Z</time>
      </trkpt>
      <trkpt lat="50.803180569782853" lon="13.136671101674438">
        <ele>355</ele>
        <time>2026-08-29T12:13:25Z</time>
      </trkpt>
      <trkpt lat="50.803191969171166" lon="13.136604046449065">
        <ele>355</ele>
        <time>2026-08-29T12:13:26Z</time>
      </trkpt>
      <trkpt lat="50.803210912272334" lon="13.136535063385963">
        <ele>355</ele>
        <time>2026-08-29T12:13:27Z</time>
      </trkpt>
      <trkpt lat="50.803227759897709" lon="13.136478988453746">
        <ele>354</ele>
        <time>2026-08-29T12:13:28Z</time>
      </trkpt>
      <trkpt lat="50.80324687063694" lon="13.136421991512179">
        <ele>354</ele>
        <time>2026-08-29T12:13:29Z</time>
      </trkpt>
      <trkpt lat="50.803277464583516" lon="13.136369101703167">
        <ele>354</ele>
        <time>2026-08-29T12:13:30Z</time>
      </trkpt>
      <trkpt lat="50.803306130692363" lon="13.136322917416692">
        <ele>354</ele>
        <time>2026-08-29T12:13:31Z</time>
      </trkpt>
      <trkpt lat="50.803332952782512" lon="13.136272290721536">
        <ele>354</ele>
        <time>2026-08-29T12:13:32Z</time>
      </trkpt>
      <trkpt lat="50.803353572264314" lon="13.136219820007682">
        <ele>354</ele>
        <time>2026-08-29T12:13:33Z</time>
      </trkpt>
      <trkpt lat="50.803380478173494" lon="13.136170785874128">
        <ele>354</ele>
        <time>2026-08-29T12:13:34Z</time>
      </trkpt>
      <trkpt lat="50.803404869511724" lon="13.136124601587653">
        <ele>354</ele>
        <time>2026-08-29T12:13:35Z</time>
      </trkpt>
      <trkpt lat="50.803427752107382" lon="13.136084787547588">
        <ele>355</ele>
        <time>2026-08-29T12:13:36Z</time>
      </trkpt>
      <trkpt lat="50.803448958322406" lon="13.136047823354602">
        <ele>355</ele>
        <time>2026-08-29T12:13:37Z</time>
      </trkpt>
      <trkpt lat="50.803471673280001" lon="13.136010523885489">
        <ele>354</ele>
        <time>2026-08-29T12:13:38Z</time>
      </trkpt>
      <trkpt lat="50.803487347438931" lon="13.135968614369631">
        <ele>354</ele>
        <time>2026-08-29T12:13:39Z</time>
      </trkpt>
      <trkpt lat="50.80350486561656" lon="13.135932153090835">
        <ele>354</ele>
        <time>2026-08-29T12:13:40Z</time>
      </trkpt>
      <trkpt lat="50.803519953042269" lon="13.135884795337915">
        <ele>354</ele>
        <time>2026-08-29T12:13:41Z</time>
      </trkpt>
      <trkpt lat="50.803531100973487" lon="13.13583861105144">
        <ele>354</ele>
        <time>2026-08-29T12:13:42Z</time>
      </trkpt>
      <trkpt lat="50.803542416542768" lon="13.135792091488838">
        <ele>354</ele>
        <time>2026-08-29T12:13:43Z</time>
      </trkpt>
      <trkpt lat="50.803547948598862" lon="13.135751523077488">
        <ele>355</ele>
        <time>2026-08-29T12:13:44Z</time>
      </trkpt>
      <trkpt lat="50.803550714626908" lon="13.135707015171647">
        <ele>355</ele>
        <time>2026-08-29T12:13:45Z</time>
      </trkpt>
      <trkpt lat="50.803555240854621" lon="13.135666362941265">
        <ele>355</ele>
        <time>2026-08-29T12:13:46Z</time>
      </trkpt>
      <trkpt lat="50.803561862558126" lon="13.135624453425407">
        <ele>355</ele>
        <time>2026-08-29T12:13:47Z</time>
      </trkpt>
      <trkpt lat="50.803568148985505" lon="13.135576844215393">
        <ele>354</ele>
        <time>2026-08-29T12:13:48Z</time>
      </trkpt>
      <trkpt lat="50.803569993004203" lon="13.135532503947616">
        <ele>354</ele>
        <time>2026-08-29T12:13:49Z</time>
      </trkpt>
      <trkpt lat="50.803572759032249" lon="13.135489085689187">
        <ele>354</ele>
        <time>2026-08-29T12:13:50Z</time>
      </trkpt>
      <trkpt lat="50.803573848679662" lon="13.135445164516568">
        <ele>353</ele>
        <time>2026-08-29T12:13:51Z</time>
      </trkpt>
      <trkpt lat="50.803577871993184" lon="13.135399483144283">
        <ele>353</ele>
        <time>2026-08-29T12:13:52Z</time>
      </trkpt>
      <trkpt lat="50.803586924448609" lon="13.135351622477174">
        <ele>353</ele>
        <time>2026-08-29T12:13:53Z</time>
      </trkpt>
      <trkpt lat="50.803587511181831" lon="13.135307701304555">
        <ele>353</ele>
        <time>2026-08-29T12:13:54Z</time>
      </trkpt>
      <trkpt lat="50.803588768467307" lon="13.135260595008731">
        <ele>354</ele>
        <time>2026-08-29T12:13:55Z</time>
      </trkpt>
      <trkpt lat="50.803590780124068" lon="13.135212231427431">
        <ele>354</ele>
        <time>2026-08-29T12:13:56Z</time>
      </trkpt>
      <trkpt lat="50.803590444847941" lon="13.135170573368669">
        <ele>354</ele>
        <time>2026-08-29T12:13:57Z</time>
      </trkpt>
      <trkpt lat="50.803587678819895" lon="13.135124472901225">
        <ele>354</ele>
        <time>2026-08-29T12:13:58Z</time>
      </trkpt>
      <trkpt lat="50.803587511181831" lon="13.135085664689541">
        <ele>353</ele>
        <time>2026-08-29T12:13:59Z</time>
      </trkpt>
      <trkpt lat="50.803587762638927" lon="13.135048113763332">
        <ele>353</ele>
        <time>2026-08-29T12:14:00Z</time>
      </trkpt>
      <trkpt lat="50.803587343543768" lon="13.135004695504904">
        <ele>353</ele>
        <time>2026-08-29T12:14:01Z</time>
      </trkpt>
      <trkpt lat="50.803584074601531" lon="13.134968988597393">
        <ele>353</ele>
        <time>2026-08-29T12:14:02Z</time>
      </trkpt>
      <trkpt lat="50.803580721840262" lon="13.134924648329616">
        <ele>354</ele>
        <time>2026-08-29T12:14:03Z</time>
      </trkpt>
      <trkpt lat="50.803573178127408" lon="13.134888522326946">
        <ele>354</ele>
        <time>2026-08-29T12:14:04Z</time>
      </trkpt>
      <trkpt lat="50.80357032828033" lon="13.134848875924945">
        <ele>353</ele>
        <time>2026-08-29T12:14:05Z</time>
      </trkpt>
      <trkpt lat="50.803569070994854" lon="13.134801434352994">
        <ele>354</ele>
        <time>2026-08-29T12:14:06Z</time>
      </trkpt>
      <trkpt lat="50.803566640242934" lon="13.134760027751327">
        <ele>354</ele>
        <time>2026-08-29T12:14:07Z</time>
      </trkpt>
      <trkpt lat="50.803560940548778" lon="13.134718537330627">
        <ele>354</ele>
        <time>2026-08-29T12:14:08Z</time>
      </trkpt>
      <trkpt lat="50.803555911406875" lon="13.134680483490229">
        <ele>354</ele>
        <time>2026-08-29T12:14:09Z</time>
      </trkpt>
      <trkpt lat="50.803558090701699" lon="13.134645028039813">
        <ele>354</ele>
        <time>2026-08-29T12:14:10Z</time>
      </trkpt>
      <trkpt lat="50.803560689091682" lon="13.134608399122953">
        <ele>354</ele>
        <time>2026-08-29T12:14:11Z</time>
      </trkpt>
      <trkpt lat="50.803553564473987" lon="13.134573446586728">
        <ele>354</ele>
        <time>2026-08-29T12:14:12Z</time>
      </trkpt>
      <trkpt lat="50.803553648293018" lon="13.134538410231471">
        <ele>354</ele>
        <time>2026-08-29T12:14:13Z</time>
      </trkpt>
      <trkpt lat="50.803548870608211" lon="13.134503206238151">
        <ele>355</ele>
        <time>2026-08-29T12:14:14Z</time>
      </trkpt>
      <trkpt lat="50.803550966084003" lon="13.134470852091908">
        <ele>355</ele>
        <time>2026-08-29T12:14:15Z</time>
      </trkpt>
      <trkpt lat="50.803548200055957" lon="13.134439755231142">
        <ele>355</ele>
        <time>2026-08-29T12:14:16Z</time>
      </trkpt>
      <trkpt lat="50.803544260561466" lon="13.134407233446836">
        <ele>355</ele>
        <time>2026-08-29T12:14:17Z</time>
      </trkpt>
      <trkpt lat="50.803539901971817" lon="13.134377226233482">
        <ele>356</ele>
        <time>2026-08-29T12:14:18Z</time>
      </trkpt>
      <trkpt lat="50.803538309410214" lon="13.134349230676889">
        <ele>356</ele>
        <time>2026-08-29T12:14:19Z</time>
      </trkpt>
      <trkpt lat="50.803535711020231" lon="13.134321235120296">
        <ele>357</ele>
        <time>2026-08-29T12:14:20Z</time>
      </trkpt>
      <trkpt lat="50.80353076569736" lon="13.134291311725974">
        <ele>357</ele>
        <time>2026-08-29T12:14:21Z</time>
      </trkpt>
      <trkpt lat="50.80352732911706" lon="13.134265998378396">
        <ele>357</ele>
        <time>2026-08-29T12:14:22Z</time>
      </trkpt>
      <trkpt lat="50.803520791232586" lon="13.134240852668881">
        <ele>357</ele>
        <time>2026-08-29T12:14:23Z</time>
      </trkpt>
      <trkpt lat="50.803515929728746" lon="13.134209671989083">
        <ele>357</ele>
        <time>2026-08-29T12:14:24Z</time>
      </trkpt>
      <trkpt lat="50.803519953042269" lon="13.134184777736664">
        <ele>357</ele>
        <time>2026-08-29T12:14:25Z</time>
      </trkpt>
      <trkpt lat="50.803527999669313" lon="13.134152004495263">
        <ele>358</ele>
        <time>2026-08-29T12:14:26Z</time>
      </trkpt>
      <trkpt lat="50.803536381572485" lon="13.134130798280239">
        <ele>358</ele>
        <time>2026-08-29T12:14:27Z</time>
      </trkpt>
      <trkpt lat="50.80354736186564" lon="13.134115878492594">
        <ele>358</ele>
        <time>2026-08-29T12:14:28Z</time>
      </trkpt>
      <trkpt lat="50.803558258339763" lon="13.134099701419473">
        <ele>358</ele>
        <time>2026-08-29T12:14:29Z</time>
      </trkpt>
      <trkpt lat="50.803567310795188" lon="13.134086458012462">
        <ele>358</ele>
        <time>2026-08-29T12:14:30Z</time>
      </trkpt>
      <trkpt lat="50.803576782345772" lon="13.134068604558706">
        <ele>358</ele>
        <time>2026-08-29T12:14:31Z</time>
      </trkpt>
      <trkpt lat="50.803590025752783" lon="13.134048823267221">
        <ele>358</ele>
        <time>2026-08-29T12:14:32Z</time>
      </trkpt>
      <trkpt lat="50.803605448454618" lon="13.134028958156705">
        <ele>358</ele>
        <time>2026-08-29T12:14:33Z</time>
      </trkpt>
      <trkpt lat="50.803621122613549" lon="13.134003309533">
        <ele>358</ele>
        <time>2026-08-29T12:14:34Z</time>
      </trkpt>
      <trkpt lat="50.803633611649275" lon="13.133989563211799">
        <ele>357</ele>
        <time>2026-08-29T12:14:35Z</time>
      </trkpt>
      <trkpt lat="50.803649621084332" lon="13.133970033377409">
        <ele>357</ele>
        <time>2026-08-29T12:14:36Z</time>
      </trkpt>
      <trkpt lat="50.803664708510041" lon="13.133949330076575">
        <ele>356</ele>
        <time>2026-08-29T12:14:37Z</time>
      </trkpt>
      <trkpt lat="50.803684741258621" lon="13.133925441652536">
        <ele>356</ele>
        <time>2026-08-29T12:14:38Z</time>
      </trkpt>
      <trkpt lat="50.803706953302026" lon="13.133902726694942">
        <ele>355</ele>
        <time>2026-08-29T12:14:39Z</time>
      </trkpt>
      <trkpt lat="50.803733104839921" lon="13.133878167718649">
        <ele>355</ele>
        <time>2026-08-29T12:14:40Z</time>
      </trkpt>
      <trkpt lat="50.803755149245262" lon="13.133855788037181">
        <ele>354</ele>
        <time>2026-08-29T12:14:41Z</time>
      </trkpt>
      <trkpt lat="50.803780546411872" lon="13.133828798308969">
        <ele>354</ele>
        <time>2026-08-29T12:14:42Z</time>
      </trkpt>
      <trkpt lat="50.803810302168131" lon="13.133800802752376">
        <ele>354</ele>
        <time>2026-08-29T12:14:43Z</time>
      </trkpt>
      <trkpt lat="50.803842740133405" lon="13.133776327595115">
        <ele>354</ele>
        <time>2026-08-29T12:14:44Z</time>
      </trkpt>
      <trkpt lat="50.803875429555774" lon="13.133744560182095">
        <ele>354</ele>
        <time>2026-08-29T12:14:45Z</time>
      </trkpt>
      <trkpt lat="50.803904430940747" lon="13.133715726435184">
        <ele>354</ele>
        <time>2026-08-29T12:14:46Z</time>
      </trkpt>
      <trkpt lat="50.80393485724926" lon="13.133693179115653">
        <ele>354</ele>
        <time>2026-08-29T12:14:47Z</time>
      </trkpt>
      <trkpt lat="50.803967798128724" lon="13.133672308176756">
        <ele>353</ele>
        <time>2026-08-29T12:14:48Z</time>
      </trkpt>
      <trkpt lat="50.804004510864615" lon="13.133644480258226">
        <ele>354</ele>
        <time>2026-08-29T12:14:49Z</time>
      </trkpt>
      <trkpt lat="50.80403602682054" lon="13.133619334548712">
        <ele>354</ele>
        <time>2026-08-29T12:14:50Z</time>
      </trkpt>
      <trkpt lat="50.804066872224212" lon="13.133611790835857">
        <ele>354</ele>
        <time>2026-08-29T12:14:51Z</time>
      </trkpt>
      <trkpt lat="50.804092269390821" lon="13.133608102798462">
        <ele>354</ele>
        <time>2026-08-29T12:14:52Z</time>
      </trkpt>
      <trkpt lat="50.804114649072289" lon="13.133611371740699">
        <ele>353</ele>
        <time>2026-08-29T12:14:53Z</time>
      </trkpt>
      <trkpt lat="50.804134430363774" lon="13.133611204102635">
        <ele>353</ele>
        <time>2026-08-29T12:14:54Z</time>
      </trkpt>
      <trkpt lat="50.804155888035893" lon="13.133608186617494">
        <ele>353</ele>
        <time>2026-08-29T12:14:55Z</time>
      </trkpt>
      <trkpt lat="50.804180614650249" lon="13.133594021201134">
        <ele>352</ele>
        <time>2026-08-29T12:14:56Z</time>
      </trkpt>
      <trkpt lat="50.804203497245908" lon="13.133583040907979">
        <ele>353</ele>
        <time>2026-08-29T12:14:57Z</time>
      </trkpt>
      <trkpt lat="50.804227301850915" lon="13.133578766137362">
        <ele>353</ele>
        <time>2026-08-29T12:14:58Z</time>
      </trkpt>
      <trkpt lat="50.8042505197227" lon="13.133577173575759">
        <ele>353</ele>
        <time>2026-08-29T12:14:59Z</time>
      </trkpt>
      <trkpt lat="50.804265607148409" lon="13.133576838299632">
        <ele>353</ele>
        <time>2026-08-29T12:15:00Z</time>
      </trkpt>
      <trkpt lat="50.804279018193483" lon="13.133579771965742">
        <ele>352</ele>
        <time>2026-08-29T12:15:01Z</time>
      </trkpt>
      <trkpt lat="50.804289830848575" lon="13.133582035079598">
        <ele>352</ele>
        <time>2026-08-29T12:15:02Z</time>
      </trkpt>
      <trkpt lat="50.804289411753416" lon="13.133585890755057">
        <ele>353</ele>
        <time>2026-08-29T12:15:03Z</time>
      </trkpt>
      <trkpt lat="50.804289327934384" lon="13.133585806936026">
        <ele>353</ele>
        <time>2026-08-29T12:15:04Z</time>
      </trkpt>
      <trkpt lat="50.804289327934384" lon="13.133586142212152">
        <ele>353</ele>
        <time>2026-08-29T12:15:05Z</time>
      </trkpt>
      <trkpt lat="50.804289160296321" lon="13.133586393669248">
        <ele>353</ele>
        <time>2026-08-29T12:15:06Z</time>
      </trkpt>
      <trkpt lat="50.804289076477289" lon="13.133586645126343">
        <ele>353</ele>
        <time>2026-08-29T12:15:07Z</time>
      </trkpt>
      <trkpt lat="50.804289160296321" lon="13.133586812764406">
        <ele>353</ele>
        <time>2026-08-29T12:15:08Z</time>
      </trkpt>
      <trkpt lat="50.804289160296321" lon="13.13358698040247">
        <ele>353</ele>
        <time>2026-08-29T12:15:09Z</time>
      </trkpt>
      <trkpt lat="50.804288992658257" lon="13.133587148040533">
        <ele>353</ele>
        <time>2026-08-29T12:15:10Z</time>
      </trkpt>
      <trkpt lat="50.804289160296321" lon="13.133586812764406">
        <ele>353</ele>
        <time>2026-08-29T12:15:11Z</time>
      </trkpt>
      <trkpt lat="50.804289160296321" lon="13.133586645126343">
        <ele>353</ele>
        <time>2026-08-29T12:15:12Z</time>
      </trkpt>
      <trkpt lat="50.804289160296321" lon="13.133586393669248">
        <ele>353</ele>
        <time>2026-08-29T12:15:13Z</time>
      </trkpt>
      <trkpt lat="50.804289160296321" lon="13.133586309850216">
        <ele>353</ele>
        <time>2026-08-29T12:15:14Z</time>
      </trkpt>
      <trkpt lat="50.804289160296321" lon="13.133586226031184">
        <ele>353</ele>
        <time>2026-08-29T12:15:15Z</time>
      </trkpt>
      <trkpt lat="50.804289076477289" lon="13.133586058393121">
        <ele>353</ele>
        <time>2026-08-29T12:15:16Z</time>
      </trkpt>
      <trkpt lat="50.804289160296321" lon="13.133585387840867">
        <ele>353</ele>
        <time>2026-08-29T12:15:17Z</time>
      </trkpt>
      <trkpt lat="50.804289327934384" lon="13.13358505256474">
        <ele>353</ele>
        <time>2026-08-29T12:15:18Z</time>
      </trkpt>
      <trkpt lat="50.804289663210511" lon="13.133583208546042">
        <ele>353</ele>
        <time>2026-08-29T12:15:19Z</time>
      </trkpt>
      <trkpt lat="50.804290669038892" lon="13.133583627641201">
        <ele>354</ele>
        <time>2026-08-29T12:15:20Z</time>
      </trkpt>
      <trkpt lat="50.80429251305759" lon="13.133581783622503">
        <ele>354</ele>
        <time>2026-08-29T12:15:21Z</time>
      </trkpt>
      <trkpt lat="50.804292261600494" lon="13.13358454965055">
        <ele>354</ele>
        <time>2026-08-29T12:15:22Z</time>
      </trkpt>
      <trkpt lat="50.804291171953082" lon="13.133589746430516">
        <ele>354</ele>
        <time>2026-08-29T12:15:23Z</time>
      </trkpt>
      <trkpt lat="50.804290501400828" lon="13.133591087535024">
        <ele>353</ele>
        <time>2026-08-29T12:15:24Z</time>
      </trkpt>
      <trkpt lat="50.8043023198843" lon="13.133585974574089">
        <ele>354</ele>
        <time>2026-08-29T12:15:25Z</time>
      </trkpt>
      <trkpt lat="50.804317239671946" lon="13.133578514680266">
        <ele>354</ele>
        <time>2026-08-29T12:15:26Z</time>
      </trkpt>
      <trkpt lat="50.804322520270944" lon="13.133574994280934">
        <ele>354</ele>
        <time>2026-08-29T12:15:27Z</time>
      </trkpt>
      <trkpt lat="50.804331572726369" lon="13.133584298193455">
        <ele>354</ele>
        <time>2026-08-29T12:15:28Z</time>
      </trkpt>
      <trkpt lat="50.804345235228539" lon="13.133595027029514">
        <ele>355</ele>
        <time>2026-08-29T12:15:29Z</time>
      </trkpt>
      <trkpt lat="50.804345486685634" lon="13.133595949038863">
        <ele>355</ele>
        <time>2026-08-29T12:15:30Z</time>
      </trkpt>
      <trkpt lat="50.804343139752746" lon="13.133602486923337">
        <ele>355</ele>
        <time>2026-08-29T12:15:31Z</time>
      </trkpt>
      <trkpt lat="50.80434288829565" lon="13.133596619591117">
        <ele>355</ele>
        <time>2026-08-29T12:15:32Z</time>
      </trkpt>
      <trkpt lat="50.804344899952412" lon="13.133596451953053">
        <ele>355</ele>
        <time>2026-08-29T12:15:33Z</time>
      </trkpt>
      <trkpt lat="50.804340541362762" lon="13.133602486923337">
        <ele>355</ele>
        <time>2026-08-29T12:15:34Z</time>
      </trkpt>
      <trkpt lat="50.804338362067938" lon="13.133598044514656">
        <ele>355</ele>
        <time>2026-08-29T12:15:35Z</time>
      </trkpt>
      <trkpt lat="50.804338362067938" lon="13.133598044514656">
        <ele>355</ele>
        <time>2026-08-29T12:15:36Z</time>
      </trkpt>
      <trkpt lat="50.804338110610843" lon="13.133598044514656">
        <ele>355</ele>
        <time>2026-08-29T12:15:37Z</time>
      </trkpt>
      <trkpt lat="50.804337859153748" lon="13.133597960695624">
        <ele>355</ele>
        <time>2026-08-29T12:15:38Z</time>
      </trkpt>
      <trkpt lat="50.804338026791811" lon="13.133597709238529">
        <ele>355</ele>
        <time>2026-08-29T12:15:39Z</time>
      </trkpt>
      <trkpt lat="50.804335344582796" lon="13.133586226031184">
        <ele>355</ele>
        <time>2026-08-29T12:15:40Z</time>
      </trkpt>
      <trkpt lat="50.804332830011845" lon="13.133583376184106">
        <ele>355</ele>
        <time>2026-08-29T12:15:41Z</time>
      </trkpt>
      <trkpt lat="50.804331069812179" lon="13.13358404673636">
        <ele>355</ele>
        <time>2026-08-29T12:15:42Z</time>
      </trkpt>
      <trkpt lat="50.804329561069608" lon="13.133585220202804">
        <ele>355</ele>
        <time>2026-08-29T12:15:43Z</time>
      </trkpt>
      <trkpt lat="50.804327800869942" lon="13.133593685925007">
        <ele>355</ele>
        <time>2026-08-29T12:15:44Z</time>
      </trkpt>
      <trkpt lat="50.80432771705091" lon="13.133593769744039">
        <ele>355</ele>
        <time>2026-08-29T12:15:45Z</time>
      </trkpt>
      <trkpt lat="50.804327549412847" lon="13.133593769744039">
        <ele>355</ele>
        <time>2026-08-29T12:15:46Z</time>
      </trkpt>
      <trkpt lat="50.804327549412847" lon="13.13359385356307">
        <ele>355</ele>
        <time>2026-08-29T12:15:47Z</time>
      </trkpt>
      <trkpt lat="50.804327465593815" lon="13.133594021201134">
        <ele>355</ele>
        <time>2026-08-29T12:15:48Z</time>
      </trkpt>
      <trkpt lat="50.804328471422195" lon="13.13358748331666">
        <ele>355</ele>
        <time>2026-08-29T12:15:49Z</time>
      </trkpt>
      <trkpt lat="50.804329141974449" lon="13.133586561307311">
        <ele>355</ele>
        <time>2026-08-29T12:15:50Z</time>
      </trkpt>
      <trkpt lat="50.804324615746737" lon="13.133593015372753">
        <ele>355</ele>
        <time>2026-08-29T12:15:51Z</time>
      </trkpt>
      <trkpt lat="50.80431992188096" lon="13.13358798623085">
        <ele>355</ele>
        <time>2026-08-29T12:15:52Z</time>
      </trkpt>
      <trkpt lat="50.804317910224199" lon="13.133588489145041">
        <ele>354</ele>
        <time>2026-08-29T12:15:53Z</time>
      </trkpt>
      <trkpt lat="50.804317491129041" lon="13.133588489145041">
        <ele>354</ele>
        <time>2026-08-29T12:15:54Z</time>
      </trkpt>
      <trkpt lat="50.804311288520694" lon="13.13358505256474">
        <ele>355</ele>
        <time>2026-08-29T12:15:55Z</time>
      </trkpt>
      <trkpt lat="50.804311288520694" lon="13.133584884926677">
        <ele>355</ele>
        <time>2026-08-29T12:15:56Z</time>
      </trkpt>
      <trkpt lat="50.804311037063599" lon="13.133584884926677">
        <ele>355</ele>
        <time>2026-08-29T12:15:57Z</time>
      </trkpt>
      <trkpt lat="50.804303577169776" lon="13.13357868231833">
        <ele>355</ele>
        <time>2026-08-29T12:15:58Z</time>
      </trkpt>
      <trkpt lat="50.804303577169776" lon="13.13357817940414">
        <ele>355</ele>
        <time>2026-08-29T12:15:59Z</time>
      </trkpt>
      <trkpt lat="50.804303409531713" lon="13.133577844128013">
        <ele>355</ele>
        <time>2026-08-29T12:16:00Z</time>
      </trkpt>
      <trkpt lat="50.804303158074617" lon="13.133577257394791">
        <ele>355</ele>
        <time>2026-08-29T12:16:01Z</time>
      </trkpt>
      <trkpt lat="50.804305421188474" lon="13.13357088714838">
        <ele>355</ele>
        <time>2026-08-29T12:16:02Z</time>
      </trkpt>
      <trkpt lat="50.804305085912347" lon="13.133570719510317">
        <ele>355</ele>
        <time>2026-08-29T12:16:03Z</time>
      </trkpt>
      <trkpt lat="50.804304918274283" lon="13.133570551872253">
        <ele>355</ele>
        <time>2026-08-29T12:16:04Z</time>
      </trkpt>
      <trkpt lat="50.80430475063622" lon="13.13357038423419">
        <ele>355</ele>
        <time>2026-08-29T12:16:05Z</time>
      </trkpt>
      <trkpt lat="50.804304582998157" lon="13.133570300415158">
        <ele>355</ele>
        <time>2026-08-29T12:16:06Z</time>
      </trkpt>
      <trkpt lat="50.804304666817188" lon="13.133570216596127">
        <ele>355</ele>
        <time>2026-08-29T12:16:07Z</time>
      </trkpt>
      <trkpt lat="50.804304582998157" lon="13.133570048958063">
        <ele>355</ele>
        <time>2026-08-29T12:16:08Z</time>
      </trkpt>
      <trkpt lat="50.804304499179125" lon="13.133569965139031">
        <ele>355</ele>
        <time>2026-08-29T12:16:09Z</time>
      </trkpt>
      <trkpt lat="50.804304499179125" lon="13.13356988132">
        <ele>355</ele>
        <time>2026-08-29T12:16:10Z</time>
      </trkpt>
      <trkpt lat="50.804304666817188" lon="13.133569378405809">
        <ele>355</ele>
        <time>2026-08-29T12:16:11Z</time>
      </trkpt>
      <trkpt lat="50.804304080083966" lon="13.133560577407479">
        <ele>354</ele>
        <time>2026-08-29T12:16:12Z</time>
      </trkpt>
      <trkpt lat="50.804304080083966" lon="13.133564181625843">
        <ele>354</ele>
        <time>2026-08-29T12:16:13Z</time>
      </trkpt>
      <trkpt lat="50.80430818721652" lon="13.133567199110985">
        <ele>354</ele>
        <time>2026-08-29T12:16:14Z</time>
      </trkpt>
      <trkpt lat="50.804318161681294" lon="13.133565355092287">
        <ele>354</ele>
        <time>2026-08-29T12:16:15Z</time>
      </trkpt>
      <trkpt lat="50.804319502785802" lon="13.133560745045543">
        <ele>354</ele>
        <time>2026-08-29T12:16:16Z</time>
      </trkpt>
      <trkpt lat="50.804320005699992" lon="13.133549680933356">
        <ele>354</ele>
        <time>2026-08-29T12:16:17Z</time>
      </trkpt>
      <trkpt lat="50.804315647110343" lon="13.133536269888282">
        <ele>354</ele>
        <time>2026-08-29T12:16:18Z</time>
      </trkpt>
      <trkpt lat="50.804304582998157" lon="13.13352738507092">
        <ele>354</ele>
        <time>2026-08-29T12:16:19Z</time>
      </trkpt>
      <trkpt lat="50.804291004315019" lon="13.133519757539034">
        <ele>354</ele>
        <time>2026-08-29T12:16:20Z</time>
      </trkpt>
      <trkpt lat="50.80427541397512" lon="13.133520763367414">
        <ele>353</ele>
        <time>2026-08-29T12:16:21Z</time>
      </trkpt>
      <trkpt lat="50.804265271872282" lon="13.133508106693625">
        <ele>353</ele>
        <time>2026-08-29T12:16:22Z</time>
      </trkpt>
      <trkpt lat="50.804265271872282" lon="13.133492264896631">
        <ele>353</ele>
        <time>2026-08-29T12:16:23Z</time>
      </trkpt>
      <trkpt lat="50.804270720109344" lon="13.133469047024846">
        <ele>353</ele>
        <time>2026-08-29T12:16:24Z</time>
      </trkpt>
      <trkpt lat="50.804279018193483" lon="13.133443649858236">
        <ele>353</ele>
        <time>2026-08-29T12:16:25Z</time>
      </trkpt>
      <trkpt lat="50.804296117275953" lon="13.133415235206485">
        <ele>353</ele>
        <time>2026-08-29T12:16:26Z</time>
      </trkpt>
      <trkpt lat="50.804314389824867" lon="13.133379193022847">
        <ele>353</ele>
        <time>2026-08-29T12:16:27Z</time>
      </trkpt>
      <trkpt lat="50.804333668202162" lon="13.133339714258909">
        <ele>353</ele>
        <time>2026-08-29T12:16:28Z</time>
      </trkpt>
      <trkpt lat="50.804351018741727" lon="13.133293865248561">
        <ele>353</ele>
        <time>2026-08-29T12:16:29Z</time>
      </trkpt>
      <trkpt lat="50.804368201643229" lon="13.13325279392302">
        <ele>353</ele>
        <time>2026-08-29T12:16:30Z</time>
      </trkpt>
      <trkpt lat="50.804383959621191" lon="13.133216081187129">
        <ele>353</ele>
        <time>2026-08-29T12:16:31Z</time>
      </trkpt>
      <trkpt lat="50.804399801418185" lon="13.133177105337381">
        <ele>353</ele>
        <time>2026-08-29T12:16:32Z</time>
      </trkpt>
      <trkpt lat="50.804418828338385" lon="13.133141063153744">
        <ele>354</ele>
        <time>2026-08-29T12:16:33Z</time>
      </trkpt>
      <trkpt lat="50.804431820288301" lon="13.133106026798487">
        <ele>354</ele>
        <time>2026-08-29T12:16:34Z</time>
      </trkpt>
      <trkpt lat="50.804446320980787" lon="13.133072080090642">
        <ele>355</ele>
        <time>2026-08-29T12:16:35Z</time>
      </trkpt>
      <trkpt lat="50.804464761167765" lon="13.133036373183131">
        <ele>355</ele>
        <time>2026-08-29T12:16:36Z</time>
      </trkpt>
      <trkpt lat="50.804477501660585" lon="13.133006952702999">
        <ele>355</ele>
        <time>2026-08-29T12:16:37Z</time>
      </trkpt>
      <trkpt lat="50.804492589086294" lon="13.132969653233886">
        <ele>355</ele>
        <time>2026-08-29T12:16:38Z</time>
      </trkpt>
      <trkpt lat="50.804507341235876" lon="13.132933443412185">
        <ele>355</ele>
        <time>2026-08-29T12:16:39Z</time>
      </trkpt>
      <trkpt lat="50.804524859413505" lon="13.132899748161435">
        <ele>355</ele>
        <time>2026-08-29T12:16:40Z</time>
      </trkpt>
      <trkpt lat="50.804537767544389" lon="13.132875692099333">
        <ele>355</ele>
        <time>2026-08-29T12:16:41Z</time>
      </trkpt>
      <trkpt lat="50.804549586027861" lon="13.132846858352423">
        <ele>356</ele>
        <time>2026-08-29T12:16:42Z</time>
      </trkpt>
      <trkpt lat="50.80455930903554" lon="13.132813414558768">
        <ele>356</ele>
        <time>2026-08-29T12:16:43Z</time>
      </trkpt>
      <trkpt lat="50.804575653746724" lon="13.13278567045927">
        <ele>356</ele>
        <time>2026-08-29T12:16:44Z</time>
      </trkpt>
      <trkpt lat="50.804588980972767" lon="13.132753232493997">
        <ele>356</ele>
        <time>2026-08-29T12:16:45Z</time>
      </trkpt>
      <trkpt lat="50.804602978751063" lon="13.132725236937404">
        <ele>356</ele>
        <time>2026-08-29T12:16:46Z</time>
      </trkpt>
      <trkpt lat="50.804617730900645" lon="13.132694140076637">
        <ele>356</ele>
        <time>2026-08-29T12:16:47Z</time>
      </trkpt>
      <trkpt lat="50.804633740335703" lon="13.132669581100345">
        <ele>356</ele>
        <time>2026-08-29T12:16:48Z</time>
      </trkpt>
      <trkpt lat="50.804647570475936" lon="13.132632113993168">
        <ele>356</ele>
        <time>2026-08-29T12:16:49Z</time>
      </trkpt>
      <trkpt lat="50.804664501920342" lon="13.132602777332067">
        <ele>357</ele>
        <time>2026-08-29T12:16:50Z</time>
      </trkpt>
      <trkpt lat="50.80468537285924" lon="13.132575368508697">
        <ele>357</ele>
        <time>2026-08-29T12:16:51Z</time>
      </trkpt>
      <trkpt lat="50.804706495255232" lon="13.132548797875643">
        <ele>357</ele>
        <time>2026-08-29T12:16:52Z</time>
      </trkpt>
      <trkpt lat="50.804728791117668" lon="13.132519628852606">
        <ele>357</ele>
        <time>2026-08-29T12:16:53Z</time>
      </trkpt>
      <trkpt lat="50.804750667884946" lon="13.13249247148633">
        <ele>357</ele>
        <time>2026-08-29T12:16:54Z</time>
      </trkpt>
      <trkpt lat="50.804774137213826" lon="13.132467661052942">
        <ele>357</ele>
        <time>2026-08-29T12:16:55Z</time>
      </trkpt>
      <trkpt lat="50.80479777418077" lon="13.132440755143762">
        <ele>357</ele>
        <time>2026-08-29T12:16:56Z</time>
      </trkpt>
      <trkpt lat="50.80482711084187" lon="13.13241426832974">
        <ele>357</ele>
        <time>2026-08-29T12:16:57Z</time>
      </trkpt>
      <trkpt lat="50.804857285693288" lon="13.132398845627904">
        <ele>357</ele>
        <time>2026-08-29T12:16:58Z</time>
      </trkpt>
      <trkpt lat="50.804887795820832" lon="13.132374621927738">
        <ele>357</ele>
        <time>2026-08-29T12:16:59Z</time>
      </trkpt>
      <trkpt lat="50.804914701730013" lon="13.132352577522397">
        <ele>357</ele>
        <time>2026-08-29T12:17:00Z</time>
      </trkpt>
      <trkpt lat="50.804947977885604" lon="13.132325671613216">
        <ele>356</ele>
        <time>2026-08-29T12:17:01Z</time>
      </trkpt>
      <trkpt lat="50.804990055039525" lon="13.13228921033442">
        <ele>357</ele>
        <time>2026-08-29T12:17:02Z</time>
      </trkpt>
      <trkpt lat="50.805032048374414" lon="13.132272195070982">
        <ele>357</ele>
        <time>2026-08-29T12:17:03Z</time>
      </trkpt>
      <trkpt lat="50.805078400298953" lon="13.132249899208546">
        <ele>357</ele>
        <time>2026-08-29T12:17:04Z</time>
      </trkpt>
      <trkpt lat="50.805124836042523" lon="13.132221736013889">
        <ele>356</ele>
        <time>2026-08-29T12:17:05Z</time>
      </trkpt>
      <trkpt lat="50.805176049470901" lon="13.132198015227914">
        <ele>357</ele>
        <time>2026-08-29T12:17:06Z</time>
      </trkpt>
      <trkpt lat="50.805219048634171" lon="13.132181251421571">
        <ele>357</ele>
        <time>2026-08-29T12:17:07Z</time>
      </trkpt>
      <trkpt lat="50.805260119959712" lon="13.132176641374826">
        <ele>357</ele>
        <time>2026-08-29T12:17:08Z</time>
      </trkpt>
      <trkpt lat="50.805282248184085" lon="13.132178904488683">
        <ele>356</ele>
        <time>2026-08-29T12:17:09Z</time>
      </trkpt>
      <trkpt lat="50.80530890263617" lon="13.132186029106379">
        <ele>356</ele>
        <time>2026-08-29T12:17:10Z</time>
      </trkpt>
      <trkpt lat="50.805331449955702" lon="13.132203798741102">
        <ele>356</ele>
        <time>2026-08-29T12:17:11Z</time>
      </trkpt>
      <trkpt lat="50.805358188226819" lon="13.132220478728414">
        <ele>356</ele>
        <time>2026-08-29T12:17:12Z</time>
      </trkpt>
      <trkpt lat="50.80540076829493" lon="13.132242187857628">
        <ele>356</ele>
        <time>2026-08-29T12:17:13Z</time>
      </trkpt>
      <trkpt lat="50.805464722216129" lon="13.132276721298695">
        <ele>356</ele>
        <time>2026-08-29T12:17:14Z</time>
      </trkpt>
      <trkpt lat="50.805524401366711" lon="13.132296251133084">
        <ele>356</ele>
        <time>2026-08-29T12:17:15Z</time>
      </trkpt>
      <trkpt lat="50.80558835528791" lon="13.132323240861297">
        <ele>355</ele>
        <time>2026-08-29T12:17:16Z</time>
      </trkpt>
      <trkpt lat="50.805634455755353" lon="13.132340088486671">
        <ele>355</ele>
        <time>2026-08-29T12:17:17Z</time>
      </trkpt>
      <trkpt lat="50.805682651698589" lon="13.132342770695686">
        <ele>355</ele>
        <time>2026-08-29T12:17:18Z</time>
      </trkpt>
      <trkpt lat="50.805722298100591" lon="13.132335646077991">
        <ele>355</ele>
        <time>2026-08-29T12:17:19Z</time>
      </trkpt>
      <trkpt lat="50.805762447416782" lon="13.132334053516388">
        <ele>355</ele>
        <time>2026-08-29T12:17:20Z</time>
      </trkpt>
      <trkpt lat="50.805799160152674" lon="13.132337322458625">
        <ele>355</ele>
        <time>2026-08-29T12:17:21Z</time>
      </trkpt>
      <trkpt lat="50.80583905801177" lon="13.132336819544435">
        <ele>355</ele>
        <time>2026-08-29T12:17:22Z</time>
      </trkpt>
      <trkpt lat="50.805877950042486" lon="13.132344111800194">
        <ele>355</ele>
        <time>2026-08-29T12:17:23Z</time>
      </trkpt>
      <trkpt lat="50.805923379957676" lon="13.132355259731412">
        <ele>355</ele>
        <time>2026-08-29T12:17:24Z</time>
      </trkpt>
      <trkpt lat="50.805960176512599" lon="13.132361881434917">
        <ele>355</ele>
        <time>2026-08-29T12:17:25Z</time>
      </trkpt>
      <trkpt lat="50.805995967239141" lon="13.132373113185167">
        <ele>355</ele>
        <time>2026-08-29T12:17:26Z</time>
      </trkpt>
      <trkpt lat="50.806030249223113" lon="13.132379148155451">
        <ele>355</ele>
        <time>2026-08-29T12:17:27Z</time>
      </trkpt>
      <trkpt lat="50.80606821924448" lon="13.13239423558116">
        <ele>355</ele>
        <time>2026-08-29T12:17:28Z</time>
      </trkpt>
      <trkpt lat="50.806116499006748" lon="13.132405215874314">
        <ele>355</ele>
        <time>2026-08-29T12:17:29Z</time>
      </trkpt>
      <trkpt lat="50.806164108216763" lon="13.132413094863296">
        <ele>355</ele>
        <time>2026-08-29T12:17:30Z</time>
      </trkpt>
      <trkpt lat="50.806204341351986" lon="13.132429858669639">
        <ele>354</ele>
        <time>2026-08-29T12:17:31Z</time>
      </trkpt>
      <trkpt lat="50.806249268352985" lon="13.132442431524396">
        <ele>354</ele>
        <time>2026-08-29T12:17:32Z</time>
      </trkpt>
      <trkpt lat="50.80628857947886" lon="13.132473947480321">
        <ele>354</ele>
        <time>2026-08-29T12:17:33Z</time>
      </trkpt>
      <trkpt lat="50.806326968595386" lon="13.132510827854276">
        <ele>354</ele>
        <time>2026-08-29T12:17:34Z</time>
      </trkpt>
      <trkpt lat="50.806361082941294" lon="13.132551480084658">
        <ele>354</ele>
        <time>2026-08-29T12:17:35Z</time>
      </trkpt>
      <trkpt lat="50.806398298591375" lon="13.132599592208862">
        <ele>354</ele>
        <time>2026-08-29T12:17:36Z</time>
      </trkpt>
      <trkpt lat="50.806427802890539" lon="13.132646363228559">
        <ele>354</ele>
        <time>2026-08-29T12:17:37Z</time>
      </trkpt>
      <trkpt lat="50.806456049904227" lon="13.132692631334066">
        <ele>354</ele>
        <time>2026-08-29T12:17:38Z</time>
      </trkpt>
      <trkpt lat="50.806471891701221" lon="13.132728589698672">
        <ele>353</ele>
        <time>2026-08-29T12:17:39Z</time>
      </trkpt>
      <trkpt lat="50.806498378515244" lon="13.132774271070957">
        <ele>353</ele>
        <time>2026-08-29T12:17:40Z</time>
      </trkpt>
      <trkpt lat="50.806522099301219" lon="13.132827077060938">
        <ele>353</ele>
        <time>2026-08-29T12:17:41Z</time>
      </trkpt>
      <trkpt lat="50.806542718783021" lon="13.132884996011853">
        <ele>353</ele>
        <time>2026-08-29T12:17:42Z</time>
      </trkpt>
      <trkpt lat="50.806566271930933" lon="13.132936209440231">
        <ele>353</ele>
        <time>2026-08-29T12:17:43Z</time>
      </trkpt>
      <trkpt lat="50.8065817784518" lon="13.132977448403835">
        <ele>353</ele>
        <time>2026-08-29T12:17:44Z</time>
      </trkpt>
      <trkpt lat="50.806600637733936" lon="13.133023213595152">
        <ele>352</ele>
        <time>2026-08-29T12:17:45Z</time>
      </trkpt>
      <trkpt lat="50.806623101234436" lon="13.133072080090642">
        <ele>352</ele>
        <time>2026-08-29T12:17:46Z</time>
      </trkpt>
      <trkpt lat="50.806639697402716" lon="13.133121449500322">
        <ele>353</ele>
        <time>2026-08-29T12:17:47Z</time>
      </trkpt>
      <trkpt lat="50.806664759293199" lon="13.133173752576113">
        <ele>353</ele>
        <time>2026-08-29T12:17:48Z</time>
      </trkpt>
      <trkpt lat="50.806679679080844" lon="13.133245334029198">
        <ele>353</ele>
        <time>2026-08-29T12:17:49Z</time>
      </trkpt>
      <trkpt lat="50.806684959679842" lon="13.13331482000649">
        <ele>352</ele>
        <time>2026-08-29T12:17:50Z</time>
      </trkpt>
      <trkpt lat="50.806696442887187" lon="13.133395286276937">
        <ele>352</ele>
        <time>2026-08-29T12:17:51Z</time>
      </trkpt>
      <trkpt lat="50.806717900559306" lon="13.133467538282275">
        <ele>352</ele>
        <time>2026-08-29T12:17:52Z</time>
      </trkpt>
      <trkpt lat="50.806738939136267" lon="13.133531911298633">
        <ele>352</ele>
        <time>2026-08-29T12:17:53Z</time>
      </trkpt>
      <trkpt lat="50.80676450394094" lon="13.133587399497628">
        <ele>352</ele>
        <time>2026-08-29T12:17:54Z</time>
      </trkpt>
      <trkpt lat="50.806788811460137" lon="13.133649174124002">
        <ele>352</ele>
        <time>2026-08-29T12:17:55Z</time>
      </trkpt>
      <trkpt lat="50.806811861693859" lon="13.133690916001797">
        <ele>351</ele>
        <time>2026-08-29T12:17:56Z</time>
      </trkpt>
      <trkpt lat="50.806838097050786" lon="13.133738189935684">
        <ele>351</ele>
        <time>2026-08-29T12:17:57Z</time>
      </trkpt>
      <trkpt lat="50.806866930797696" lon="13.133765095844865">
        <ele>351</ele>
        <time>2026-08-29T12:17:58Z</time>
      </trkpt>
      <trkpt lat="50.806892914697528" lon="13.133802730590105">
        <ele>351</ele>
        <time>2026-08-29T12:17:59Z</time>
      </trkpt>
      <trkpt lat="50.80692526884377" lon="13.133838353678584">
        <ele>350</ele>
        <time>2026-08-29T12:18:00Z</time>
      </trkpt>
      <trkpt lat="50.806944463402033" lon="13.13388210721314">
        <ele>351</ele>
        <time>2026-08-29T12:18:01Z</time>
      </trkpt>
      <trkpt lat="50.806980589404702" lon="13.133935667574406">
        <ele>350</ele>
        <time>2026-08-29T12:18:02Z</time>
      </trkpt>
      <trkpt lat="50.807004142552614" lon="13.133982857689261">
        <ele>350</ele>
        <time>2026-08-29T12:18:03Z</time>
      </trkpt>
      <trkpt lat="50.807027108967304" lon="13.134045973420143">
        <ele>350</ele>
        <time>2026-08-29T12:18:04Z</time>
      </trkpt>
      <trkpt lat="50.80704596824944" lon="13.134109675884247">
        <ele>350</ele>
        <time>2026-08-29T12:18:05Z</time>
      </trkpt>
      <trkpt lat="50.807072957977653" lon="13.134170779958367">
        <ele>349</ele>
        <time>2026-08-29T12:18:06Z</time>
      </trkpt>
      <trkpt lat="50.807102294638753" lon="13.134224591776729">
        <ele>349</ele>
        <time>2026-08-29T12:18:07Z</time>
      </trkpt>
      <trkpt lat="50.807122411206365" lon="13.13427890650928">
        <ele>349</ele>
        <time>2026-08-29T12:18:08Z</time>
      </trkpt>
      <trkpt lat="50.807138588279486" lon="13.134335651993752">
        <ele>349</ele>
        <time>2026-08-29T12:18:09Z</time>
      </trkpt>
      <trkpt lat="50.807161051779985" lon="13.134397007524967">
        <ele>349</ele>
        <time>2026-08-29T12:18:10Z</time>
      </trkpt>
      <trkpt lat="50.807184521108866" lon="13.1344557646662">
        <ele>349</ele>
        <time>2026-08-29T12:18:11Z</time>
      </trkpt>
      <trkpt lat="50.807204889133573" lon="13.134512091055512">
        <ele>350</ele>
        <time>2026-08-29T12:18:12Z</time>
      </trkpt>
      <trkpt lat="50.807218719273806" lon="13.134574117138982">
        <ele>350</ele>
        <time>2026-08-29T12:18:13Z</time>
      </trkpt>
      <trkpt lat="50.807247050106525" lon="13.134631365537643">
        <ele>350</ele>
        <time>2026-08-29T12:18:14Z</time>
      </trkpt>
      <trkpt lat="50.807279404252768" lon="13.134702192619443">
        <ele>350</ele>
        <time>2026-08-29T12:18:15Z</time>
      </trkpt>
      <trkpt lat="50.807288289070129" lon="13.134767152369022">
        <ele>350</ele>
        <time>2026-08-29T12:18:16Z</time>
      </trkpt>
      <trkpt lat="50.807309662923217" lon="13.13482616096735">
        <ele>350</ele>
        <time>2026-08-29T12:18:17Z</time>
      </trkpt>
      <trkpt lat="50.807319888845086" lon="13.134884918108582">
        <ele>349</ele>
        <time>2026-08-29T12:18:18Z</time>
      </trkpt>
      <trkpt lat="50.807330869138241" lon="13.134926157072186">
        <ele>349</ele>
        <time>2026-08-29T12:18:19Z</time>
      </trkpt>
      <trkpt lat="50.807351907715201" lon="13.134991284459829">
        <ele>348</ele>
        <time>2026-08-29T12:18:20Z</time>
      </trkpt>
      <trkpt lat="50.807375879958272" lon="13.135050795972347">
        <ele>348</ele>
        <time>2026-08-29T12:18:21Z</time>
      </trkpt>
      <trkpt lat="50.807411251589656" lon="13.13511248677969">
        <ele>347</ele>
        <time>2026-08-29T12:18:22Z</time>
      </trkpt>
      <trkpt lat="50.807414017617702" lon="13.135166214779019">
        <ele>348</ele>
        <time>2026-08-29T12:18:23Z</time>
      </trkpt>
      <trkpt lat="50.807419801130891" lon="13.135218685492873">
        <ele>348</ele>
        <time>2026-08-29T12:18:24Z</time>
      </trkpt>
      <trkpt lat="50.807429607957602" lon="13.135278532281518">
        <ele>348</ele>
        <time>2026-08-29T12:18:25Z</time>
      </trkpt>
      <trkpt lat="50.807442935183644" lon="13.135330332443118">
        <ele>348</ele>
        <time>2026-08-29T12:18:26Z</time>
      </trkpt>
      <trkpt lat="50.807454250752926" lon="13.13539051450789">
        <ele>348</ele>
        <time>2026-08-29T12:18:27Z</time>
      </trkpt>
      <trkpt lat="50.807470008730888" lon="13.135438039898872">
        <ele>347</ele>
        <time>2026-08-29T12:18:28Z</time>
      </trkpt>
      <trkpt lat="50.80747595988214" lon="13.135495539754629">
        <ele>347</ele>
        <time>2026-08-29T12:18:29Z</time>
      </trkpt>
      <trkpt lat="50.80748719163239" lon="13.135545579716563">
        <ele>347</ele>
        <time>2026-08-29T12:18:30Z</time>
      </trkpt>
      <trkpt lat="50.807490879669785" lon="13.135591512545943">
        <ele>347</ele>
        <time>2026-08-29T12:18:31Z</time>
      </trkpt>
      <trkpt lat="50.807502614334226" lon="13.135644737631083">
        <ele>347</ele>
        <time>2026-08-29T12:18:32Z</time>
      </trkpt>
      <trkpt lat="50.807504123076797" lon="13.135701147839427">
        <ele>347</ele>
        <time>2026-08-29T12:18:33Z</time>
      </trkpt>
      <trkpt lat="50.807514181360602" lon="13.135788654908538">
        <ele>348</ele>
        <time>2026-08-29T12:18:34Z</time>
      </trkpt>
      <trkpt lat="50.807513678446412" lon="13.135840790346265">
        <ele>348</ele>
        <time>2026-08-29T12:18:35Z</time>
      </trkpt>
      <trkpt lat="50.807521138340235" lon="13.135902397334576">
        <ele>348</ele>
        <time>2026-08-29T12:18:36Z</time>
      </trkpt>
      <trkpt lat="50.807534465566278" lon="13.135963249951601">
        <ele>347</ele>
        <time>2026-08-29T12:18:37Z</time>
      </trkpt>
      <trkpt lat="50.807546116411686" lon="13.136026533320546">
        <ele>347</ele>
        <time>2026-08-29T12:18:38Z</time>
      </trkpt>
      <trkpt lat="50.807558353990316" lon="13.136087972670794">
        <ele>347</ele>
        <time>2026-08-29T12:18:39Z</time>
      </trkpt>
      <trkpt lat="50.807573357596993" lon="13.136141784489155">
        <ele>348</ele>
        <time>2026-08-29T12:18:40Z</time>
      </trkpt>
      <trkpt lat="50.807590708136559" lon="13.136210516095161">
        <ele>348</ele>
        <time>2026-08-29T12:18:41Z</time>
      </trkpt>
      <trkpt lat="50.807616440579295" lon="13.136268267408013">
        <ele>347</ele>
        <time>2026-08-29T12:18:42Z</time>
      </trkpt>
      <trkpt lat="50.80763672478497" lon="13.136315876618028">
        <ele>348</ele>
        <time>2026-08-29T12:18:43Z</time>
      </trkpt>
      <trkpt lat="50.807656589895487" lon="13.13637069426477">
        <ele>348</ele>
        <time>2026-08-29T12:18:44Z</time>
      </trkpt>
      <trkpt lat="50.807685172185302" lon="13.136416291818023">
        <ele>347</ele>
        <time>2026-08-29T12:18:45Z</time>
      </trkpt>
      <trkpt lat="50.807719370350242" lon="13.136450154706836">
        <ele>347</ele>
        <time>2026-08-29T12:18:46Z</time>
      </trkpt>
      <trkpt lat="50.807744599878788" lon="13.136499105021358">
        <ele>346</ele>
        <time>2026-08-29T12:18:47Z</time>
      </trkpt>
      <trkpt lat="50.807766141369939" lon="13.136532967910171">
        <ele>346</ele>
        <time>2026-08-29T12:18:48Z</time>
      </trkpt>
      <trkpt lat="50.807781899347901" lon="13.136584600433707">
        <ele>347</ele>
        <time>2026-08-29T12:18:49Z</time>
      </trkpt>
      <trkpt lat="50.807796232402325" lon="13.136628856882453">
        <ele>347</ele>
        <time>2026-08-29T12:18:50Z</time>
      </trkpt>
      <trkpt lat="50.807810230180621" lon="13.136681746691465">
        <ele>347</ele>
        <time>2026-08-29T12:18:51Z</time>
      </trkpt>
      <trkpt lat="50.807830849662423" lon="13.136729523539543">
        <ele>347</ele>
        <time>2026-08-29T12:18:52Z</time>
      </trkpt>
      <trkpt lat="50.807850128039718" lon="13.13678408972919">
        <ele>347</ele>
        <time>2026-08-29T12:18:53Z</time>
      </trkpt>
      <trkpt lat="50.807892540469766" lon="13.136846367269754">
        <ele>346</ele>
        <time>2026-08-29T12:18:54Z</time>
      </trkpt>
      <trkpt lat="50.807928582653403" lon="13.136906297877431">
        <ele>346</ele>
        <time>2026-08-29T12:18:55Z</time>
      </trkpt>
      <trkpt lat="50.807954901829362" lon="13.136969245970249">
        <ele>345</ele>
        <time>2026-08-29T12:18:56Z</time>
      </trkpt>
      <trkpt lat="50.80797971226275" lon="13.13702548854053">
        <ele>345</ele>
        <time>2026-08-29T12:18:57Z</time>
      </trkpt>
      <trkpt lat="50.808009300380945" lon="13.137095645070076">
        <ele>345</ele>
        <time>2026-08-29T12:18:58Z</time>
      </trkpt>
      <trkpt lat="50.808042073622346" lon="13.137147780507803">
        <ele>345</ele>
        <time>2026-08-29T12:18:59Z</time>
      </trkpt>
      <trkpt lat="50.80806327983737" lon="13.137196647003293">
        <ele>345</ele>
        <time>2026-08-29T12:19:00Z</time>
      </trkpt>
      <trkpt lat="50.808091778308153" lon="13.137277532368898">
        <ele>345</ele>
        <time>2026-08-29T12:19:01Z</time>
      </trkpt>
      <trkpt lat="50.808114493265748" lon="13.137337379157543">
        <ele>344</ele>
        <time>2026-08-29T12:19:02Z</time>
      </trkpt>
      <trkpt lat="50.808134358376265" lon="13.137401668354869">
        <ele>345</ele>
        <time>2026-08-29T12:19:03Z</time>
      </trkpt>
      <trkpt lat="50.808154810220003" lon="13.137467885389924">
        <ele>345</ele>
        <time>2026-08-29T12:19:04Z</time>
      </trkpt>
      <trkpt lat="50.808178531005979" lon="13.137525636702776">
        <ele>344</ele>
        <time>2026-08-29T12:19:05Z</time>
      </trkpt>
      <trkpt lat="50.808206191286445" lon="13.137585232034326">
        <ele>344</ele>
        <time>2026-08-29T12:19:06Z</time>
      </trkpt>
      <trkpt lat="50.808232007548213" lon="13.137643067166209">
        <ele>343</ele>
        <time>2026-08-29T12:19:07Z</time>
      </trkpt>
      <trkpt lat="50.80826117657125" lon="13.137695454061031">
        <ele>344</ele>
        <time>2026-08-29T12:19:08Z</time>
      </trkpt>
      <trkpt lat="50.808296129107475" lon="13.137740045785904">
        <ele>344</ele>
        <time>2026-08-29T12:19:09Z</time>
      </trkpt>
      <trkpt lat="50.808327980339527" lon="13.137782290577888">
        <ele>344</ele>
        <time>2026-08-29T12:19:10Z</time>
      </trkpt>
      <trkpt lat="50.808349018916488" lon="13.137824200093746">
        <ele>344</ele>
        <time>2026-08-29T12:19:11Z</time>
      </trkpt>
      <trkpt lat="50.80836427398026" lon="13.137866025790572">
        <ele>344</ele>
        <time>2026-08-29T12:19:12Z</time>
      </trkpt>
      <trkpt lat="50.80838724039495" lon="13.137903744354844">
        <ele>345</ele>
        <time>2026-08-29T12:19:13Z</time>
      </trkpt>
      <trkpt lat="50.808418169617653" lon="13.137939367443323">
        <ele>345</ele>
        <time>2026-08-29T12:19:14Z</time>
      </trkpt>
      <trkpt lat="50.808441722765565" lon="13.137984378263354">
        <ele>345</ele>
        <time>2026-08-29T12:19:15Z</time>
      </trkpt>
      <trkpt lat="50.808463348075747" lon="13.138030059635639">
        <ele>345</ele>
        <time>2026-08-29T12:19:16Z</time>
      </trkpt>
      <trkpt lat="50.808489080518484" lon="13.138075824826956">
        <ele>345</ele>
        <time>2026-08-29T12:19:17Z</time>
      </trkpt>
      <trkpt lat="50.808528810739517" lon="13.138132402673364">
        <ele>345</ele>
        <time>2026-08-29T12:19:18Z</time>
      </trkpt>
      <trkpt lat="50.808551525697112" lon="13.13819132745266">
        <ele>345</ele>
        <time>2026-08-29T12:19:19Z</time>
      </trkpt>
      <trkpt lat="50.808585891500115" lon="13.138249581679702">
        <ele>346</ele>
        <time>2026-08-29T12:19:20Z</time>
      </trkpt>
      <trkpt lat="50.80862034112215" lon="13.138306746259332">
        <ele>347</ele>
        <time>2026-08-29T12:19:21Z</time>
      </trkpt>
      <trkpt lat="50.808648755773902" lon="13.138358546420932">
        <ele>347</ele>
        <time>2026-08-29T12:19:22Z</time>
      </trkpt>
      <trkpt lat="50.808672141283751" lon="13.13841319642961">
        <ele>348</ele>
        <time>2026-08-29T12:19:23Z</time>
      </trkpt>
      <trkpt lat="50.808688988909125" lon="13.138467678800225">
        <ele>348</ele>
        <time>2026-08-29T12:19:24Z</time>
      </trkpt>
      <trkpt lat="50.808712290599942" lon="13.138526016846299">
        <ele>348</ele>
        <time>2026-08-29T12:19:25Z</time>
      </trkpt>
      <trkpt lat="50.808734837919474" lon="13.138580583035946">
        <ele>348</ele>
        <time>2026-08-29T12:19:26Z</time>
      </trkpt>
      <trkpt lat="50.808754954487085" lon="13.138634311035275">
        <ele>348</ele>
        <time>2026-08-29T12:19:27Z</time>
      </trkpt>
      <trkpt lat="50.808776495978236" lon="13.138677896931767">
        <ele>348</ele>
        <time>2026-08-29T12:19:28Z</time>
      </trkpt>
      <trkpt lat="50.808801976963878" lon="13.138735061511397">
        <ele>348</ele>
        <time>2026-08-29T12:19:29Z</time>
      </trkpt>
      <trkpt lat="50.808831648901105" lon="13.138788370415568">
        <ele>348</ele>
        <time>2026-08-29T12:19:30Z</time>
      </trkpt>
      <trkpt lat="50.808855788782239" lon="13.138851905241609">
        <ele>348</ele>
        <time>2026-08-29T12:19:31Z</time>
      </trkpt>
      <trkpt lat="50.808882862329483" lon="13.138907644897699">
        <ele>347</ele>
        <time>2026-08-29T12:19:32Z</time>
      </trkpt>
      <trkpt lat="50.808907002210617" lon="13.138962630182505">
        <ele>347</ele>
        <time>2026-08-29T12:19:33Z</time>
      </trkpt>
      <trkpt lat="50.808936171233654" lon="13.139026248827577">
        <ele>347</ele>
        <time>2026-08-29T12:19:34Z</time>
      </trkpt>
      <trkpt lat="50.808958299458027" lon="13.139084586873651">
        <ele>347</ele>
        <time>2026-08-29T12:19:35Z</time>
      </trkpt>
      <trkpt lat="50.808983528986573" lon="13.139150552451611">
        <ele>347</ele>
        <time>2026-08-29T12:19:36Z</time>
      </trkpt>
      <trkpt lat="50.809010434895754" lon="13.139185756444931">
        <ele>346</ele>
        <time>2026-08-29T12:19:37Z</time>
      </trkpt>
      <trkpt lat="50.809027198702097" lon="13.139202855527401">
        <ele>346</ele>
        <time>2026-08-29T12:19:38Z</time>
      </trkpt>
      <trkpt lat="50.809029880911112" lon="13.139204196631908">
        <ele>346</ele>
        <time>2026-08-29T12:19:39Z</time>
      </trkpt>
      <trkpt lat="50.809028372168541" lon="13.139199921861291">
        <ele>345</ele>
        <time>2026-08-29T12:19:40Z</time>
      </trkpt>
      <trkpt lat="50.80902686342597" lon="13.139192713424563">
        <ele>345</ele>
        <time>2026-08-29T12:19:41Z</time>
      </trkpt>
      <trkpt lat="50.809025941416621" lon="13.139189695939422">
        <ele>344</ele>
        <time>2026-08-29T12:19:42Z</time>
      </trkpt>
      <trkpt lat="50.809022840112448" lon="13.139189779758453">
        <ele>344</ele>
        <time>2026-08-29T12:19:43Z</time>
      </trkpt>
      <trkpt lat="50.809019990265369" lon="13.139188857749104">
        <ele>345</ele>
        <time>2026-08-29T12:19:44Z</time>
      </trkpt>
      <trkpt lat="50.809022588655353" lon="13.13919304870069">
        <ele>345</ele>
        <time>2026-08-29T12:19:45Z</time>
      </trkpt>
      <trkpt lat="50.809022672474384" lon="13.139192461967468">
        <ele>345</ele>
        <time>2026-08-29T12:19:46Z</time>
      </trkpt>
      <trkpt lat="50.809022672474384" lon="13.139191120862961">
        <ele>345</ele>
        <time>2026-08-29T12:19:47Z</time>
      </trkpt>
      <trkpt lat="50.80902443267405" lon="13.139192294329405">
        <ele>345</ele>
        <time>2026-08-29T12:19:48Z</time>
      </trkpt>
      <trkpt lat="50.809022588655353" lon="13.139192881062627">
        <ele>346</ele>
        <time>2026-08-29T12:19:49Z</time>
      </trkpt>
      <trkpt lat="50.809018649160862" lon="13.139196317642927">
        <ele>346</ele>
        <time>2026-08-29T12:19:50Z</time>
      </trkpt>
      <trkpt lat="50.809016050770879" lon="13.139196569100022">
        <ele>345</ele>
        <time>2026-08-29T12:19:51Z</time>
      </trkpt>
      <trkpt lat="50.809016218408942" lon="13.139196485280991">
        <ele>345</ele>
        <time>2026-08-29T12:19:52Z</time>
      </trkpt>
      <trkpt lat="50.809018230065703" lon="13.139201011508703">
        <ele>345</ele>
        <time>2026-08-29T12:19:53Z</time>
      </trkpt>
      <trkpt lat="50.809009848162532" lon="13.139190701767802">
        <ele>346</ele>
        <time>2026-08-29T12:19:54Z</time>
      </trkpt>
      <trkpt lat="50.809002975001931" lon="13.139204364269972">
        <ele>346</ele>
        <time>2026-08-29T12:19:55Z</time>
      </trkpt>
      <trkpt lat="50.809002555906773" lon="13.139204951003194">
        <ele>346</ele>
        <time>2026-08-29T12:19:56Z</time>
      </trkpt>
      <trkpt lat="50.809010351076722" lon="13.139213165268302">
        <ele>347</ele>
        <time>2026-08-29T12:19:57Z</time>
      </trkpt>
      <trkpt lat="50.80900926142931" lon="13.1392184458673">
        <ele>347</ele>
        <time>2026-08-29T12:19:58Z</time>
      </trkpt>
      <trkpt lat="50.809012781828642" lon="13.139220708981156">
        <ele>347</ele>
        <time>2026-08-29T12:19:59Z</time>
      </trkpt>
      <trkpt lat="50.809017978608608" lon="13.139222050085664">
        <ele>347</ele>
        <time>2026-08-29T12:20:00Z</time>
      </trkpt>
      <trkpt lat="50.809013117104769" lon="13.139219870790839">
        <ele>346</ele>
        <time>2026-08-29T12:20:01Z</time>
      </trkpt>
      <trkpt lat="50.809013368561864" lon="13.139219870790839">
        <ele>346</ele>
        <time>2026-08-29T12:20:02Z</time>
      </trkpt>
      <trkpt lat="50.809013703837991" lon="13.139219200238585">
        <ele>346</ele>
        <time>2026-08-29T12:20:03Z</time>
      </trkpt>
      <trkpt lat="50.809013703837991" lon="13.139219200238585">
        <ele>346</ele>
        <time>2026-08-29T12:20:04Z</time>
      </trkpt>
      <trkpt lat="50.809013871476054" lon="13.139219032600522">
        <ele>346</ele>
        <time>2026-08-29T12:20:05Z</time>
      </trkpt>
      <trkpt lat="50.80901563167572" lon="13.139227330684662">
        <ele>347</ele>
        <time>2026-08-29T12:20:06Z</time>
      </trkpt>
      <trkpt lat="50.809015883132815" lon="13.139227582141757">
        <ele>347</ele>
        <time>2026-08-29T12:20:07Z</time>
      </trkpt>
      <trkpt lat="50.809022588655353" lon="13.139223977923393">
        <ele>347</ele>
        <time>2026-08-29T12:20:08Z</time>
      </trkpt>
      <trkpt lat="50.809023007750511" lon="13.139224732294679">
        <ele>347</ele>
        <time>2026-08-29T12:20:09Z</time>
      </trkpt>
      <trkpt lat="50.80902443267405" lon="13.139219954609871">
        <ele>347</ele>
        <time>2026-08-29T12:20:10Z</time>
      </trkpt>
      <trkpt lat="50.809021582826972" lon="13.139224229380488">
        <ele>347</ele>
        <time>2026-08-29T12:20:11Z</time>
      </trkpt>
      <trkpt lat="50.80902149900794" lon="13.139224732294679">
        <ele>347</ele>
        <time>2026-08-29T12:20:12Z</time>
      </trkpt>
      <trkpt lat="50.80902149900794" lon="13.13923311419785">
        <ele>347</ele>
        <time>2026-08-29T12:20:13Z</time>
      </trkpt>
      <trkpt lat="50.80902686342597" lon="13.139231018722057">
        <ele>348</ele>
        <time>2026-08-29T12:20:14Z</time>
      </trkpt>
      <trkpt lat="50.809027282521129" lon="13.139230851083994">
        <ele>347</ele>
        <time>2026-08-29T12:20:15Z</time>
      </trkpt>
      <trkpt lat="50.809027617797256" lon="13.13923018053174">
        <ele>347</ele>
        <time>2026-08-29T12:20:16Z</time>
      </trkpt>
      <trkpt lat="50.809027617797256" lon="13.139230348169804">
        <ele>347</ele>
        <time>2026-08-29T12:20:17Z</time>
      </trkpt>
      <trkpt lat="50.809027785435319" lon="13.139229845255613">
        <ele>348</ele>
        <time>2026-08-29T12:20:18Z</time>
      </trkpt>
      <trkpt lat="50.809028120711446" lon="13.139229258522391">
        <ele>348</ele>
        <time>2026-08-29T12:20:19Z</time>
      </trkpt>
      <trkpt lat="50.809028204530478" lon="13.13922917470336">
        <ele>348</ele>
        <time>2026-08-29T12:20:20Z</time>
      </trkpt>
      <trkpt lat="50.809035329148173" lon="13.139219619333744">
        <ele>348</ele>
        <time>2026-08-29T12:20:21Z</time>
      </trkpt>
      <trkpt lat="50.809042202308774" lon="13.139215260744095">
        <ele>348</ele>
        <time>2026-08-29T12:20:22Z</time>
      </trkpt>
      <trkpt lat="50.809047902002931" lon="13.139214003458619">
        <ele>349</ele>
        <time>2026-08-29T12:20:23Z</time>
      </trkpt>
      <trkpt lat="50.809048153460026" lon="13.139214087277651">
        <ele>349</ele>
        <time>2026-08-29T12:20:24Z</time>
      </trkpt>
      <trkpt lat="50.809048488736153" lon="13.139213668182492">
        <ele>349</ele>
        <time>2026-08-29T12:20:25Z</time>
      </trkpt>
      <trkpt lat="50.809051673859358" lon="13.139202184975147">
        <ele>349</ele>
        <time>2026-08-29T12:20:26Z</time>
      </trkpt>
      <trkpt lat="50.809052092954516" lon="13.139202520251274">
        <ele>349</ele>
        <time>2026-08-29T12:20:27Z</time>
      </trkpt>
      <trkpt lat="50.809054020792246" lon="13.139199921861291">
        <ele>349</ele>
        <time>2026-08-29T12:20:28Z</time>
      </trkpt>
      <trkpt lat="50.809053601697087" lon="13.139199921861291">
        <ele>349</ele>
        <time>2026-08-29T12:20:29Z</time>
      </trkpt>
      <trkpt lat="50.809053601697087" lon="13.139200089499354">
        <ele>349</ele>
        <time>2026-08-29T12:20:30Z</time>
      </trkpt>
      <trkpt lat="50.809053769335151" lon="13.139200173318386">
        <ele>349</ele>
        <time>2026-08-29T12:20:31Z</time>
      </trkpt>
      <trkpt lat="50.809053769335151" lon="13.139200676232576">
        <ele>349</ele>
        <time>2026-08-29T12:20:32Z</time>
      </trkpt>
      <trkpt lat="50.809053769335151" lon="13.139200927689672">
        <ele>349</ele>
        <time>2026-08-29T12:20:33Z</time>
      </trkpt>
      <trkpt lat="50.809055361896753" lon="13.139223558828235">
        <ele>349</ele>
        <time>2026-08-29T12:20:34Z</time>
      </trkpt>
      <trkpt lat="50.809055529534817" lon="13.13922431319952">
        <ele>349</ele>
        <time>2026-08-29T12:20:35Z</time>
      </trkpt>
      <trkpt lat="50.809055780991912" lon="13.139225151389837">
        <ele>349</ele>
        <time>2026-08-29T12:20:36Z</time>
      </trkpt>
      <trkpt lat="50.809055780991912" lon="13.13922624103725">
        <ele>349</ele>
        <time>2026-08-29T12:20:37Z</time>
      </trkpt>
      <trkpt lat="50.809055613353848" lon="13.139226995408535">
        <ele>349</ele>
        <time>2026-08-29T12:20:38Z</time>
      </trkpt>
      <trkpt lat="50.809055445715785" lon="13.139226827770472">
        <ele>349</ele>
        <time>2026-08-29T12:20:39Z</time>
      </trkpt>
      <trkpt lat="50.80906055867672" lon="13.139231521636248">
        <ele>350</ele>
        <time>2026-08-29T12:20:40Z</time>
      </trkpt>
      <trkpt lat="50.809061313048005" lon="13.139233030378819">
        <ele>350</ele>
        <time>2026-08-29T12:20:41Z</time>
      </trkpt>
      <trkpt lat="50.809060810133815" lon="13.139232192188501">
        <ele>350</ele>
        <time>2026-08-29T12:20:42Z</time>
      </trkpt>
      <trkpt lat="50.80905863083899" lon="13.139232946559787">
        <ele>350</ele>
        <time>2026-08-29T12:20:43Z</time>
      </trkpt>
      <trkpt lat="50.809058798477054" lon="13.139232946559787">
        <ele>350</ele>
        <time>2026-08-29T12:20:44Z</time>
      </trkpt>
      <trkpt lat="50.809061732143164" lon="13.139237388968468">
        <ele>350</ele>
        <time>2026-08-29T12:20:45Z</time>
      </trkpt>
      <trkpt lat="50.809064246714115" lon="13.139228839427233">
        <ele>350</ele>
        <time>2026-08-29T12:20:46Z</time>
      </trkpt>
      <trkpt lat="50.809064330533147" lon="13.139216937124729">
        <ele>349</ele>
        <time>2026-08-29T12:20:47Z</time>
      </trkpt>
      <trkpt lat="50.809065671637654" lon="13.139213752001524">
        <ele>349</ele>
        <time>2026-08-29T12:20:48Z</time>
      </trkpt>
      <trkpt lat="50.809066509827971" lon="13.139212327077985">
        <ele>349</ele>
        <time>2026-08-29T12:20:49Z</time>
      </trkpt>
      <trkpt lat="50.809061313048005" lon="13.139209728688002">
        <ele>349</ele>
        <time>2026-08-29T12:20:50Z</time>
      </trkpt>
      <trkpt lat="50.809059888124466" lon="13.139214506372809">
        <ele>349</ele>
        <time>2026-08-29T12:20:51Z</time>
      </trkpt>
      <trkpt lat="50.809056032449007" lon="13.139216518029571">
        <ele>349</ele>
        <time>2026-08-29T12:20:52Z</time>
      </trkpt>
      <trkpt lat="50.809052344411612" lon="13.1392409093678">
        <ele>349</ele>
        <time>2026-08-29T12:20:53Z</time>
      </trkpt>
      <trkpt lat="50.809060810133815" lon="13.139277705922723">
        <ele>349</ele>
        <time>2026-08-29T12:20:54Z</time>
      </trkpt>
      <trkpt lat="50.809078412130475" lon="13.139330008998513">
        <ele>349</ele>
        <time>2026-08-29T12:20:55Z</time>
      </trkpt>
      <trkpt lat="50.809095343574882" lon="13.139376947656274">
        <ele>348</ele>
        <time>2026-08-29T12:20:56Z</time>
      </trkpt>
      <trkpt lat="50.809113951399922" lon="13.139437548816204">
        <ele>347</ele>
        <time>2026-08-29T12:20:57Z</time>
      </trkpt>
      <trkpt lat="50.809134654700756" lon="13.139492031186819">
        <ele>347</ele>
        <time>2026-08-29T12:20:58Z</time>
      </trkpt>
      <trkpt lat="50.809160973876715" lon="13.13955707475543">
        <ele>348</ele>
        <time>2026-08-29T12:20:59Z</time>
      </trkpt>
      <trkpt lat="50.809176815673709" lon="13.13962890766561">
        <ele>349</ele>
        <time>2026-08-29T12:21:00Z</time>
      </trkpt>
      <trkpt lat="50.809146724641323" lon="13.139701997861266">
        <ele>349</ele>
        <time>2026-08-29T12:21:01Z</time>
      </trkpt>
      <trkpt lat="50.80910163000226" lon="13.139756312593818">
        <ele>348</ele>
        <time>2026-08-29T12:21:02Z</time>
      </trkpt>
      <trkpt lat="50.809058379381895" lon="13.139814315363765">
        <ele>348</ele>
        <time>2026-08-29T12:21:03Z</time>
      </trkpt>
      <trkpt lat="50.809018816798925" lon="13.139868630096316">
        <ele>347</ele>
        <time>2026-08-29T12:21:04Z</time>
      </trkpt>
      <trkpt lat="50.808975398540497" lon="13.139937361702323">
        <ele>347</ele>
        <time>2026-08-29T12:21:05Z</time>
      </trkpt>
      <trkpt lat="50.80893793143332" lon="13.140001650899649">
        <ele>348</ele>
        <time>2026-08-29T12:21:06Z</time>
      </trkpt>
      <trkpt lat="50.808901470154524" lon="13.140067448839545">
        <ele>347</ele>
        <time>2026-08-29T12:21:07Z</time>
      </trkpt>
      <trkpt lat="50.80886660143733" lon="13.140133079141378">
        <ele>347</ele>
        <time>2026-08-29T12:21:08Z</time>
      </trkpt>
      <trkpt lat="50.808829972520471" lon="13.140204409137368">
        <ele>347</ele>
        <time>2026-08-29T12:21:09Z</time>
      </trkpt>
      <trkpt lat="50.808793092146516" lon="13.140275403857231">
        <ele>347</ele>
        <time>2026-08-29T12:21:10Z</time>
      </trkpt>
      <trkpt lat="50.808759648352861" lon="13.140358217060566">
        <ele>347</ele>
        <time>2026-08-29T12:21:11Z</time>
      </trkpt>
      <trkpt lat="50.808734754100442" lon="13.140444299206138">
        <ele>346</ele>
        <time>2026-08-29T12:21:12Z</time>
      </trkpt>
      <trkpt lat="50.808720169588923" lon="13.140546390786767">
        <ele>346</ele>
        <time>2026-08-29T12:21:13Z</time>
      </trkpt>
      <trkpt lat="50.80873073078692" lon="13.140636496245861">
        <ele>346</ele>
        <time>2026-08-29T12:21:14Z</time>
      </trkpt>
      <trkpt lat="50.808757049962878" lon="13.14072635024786">
        <ele>346</ele>
        <time>2026-08-29T12:21:15Z</time>
      </trkpt>
      <trkpt lat="50.808781525120139" lon="13.140787789598107">
        <ele>345</ele>
        <time>2026-08-29T12:21:16Z</time>
      </trkpt>
      <trkpt lat="50.808807425200939" lon="13.140858951956034">
        <ele>345</ele>
        <time>2026-08-29T12:21:17Z</time>
      </trkpt>
      <trkpt lat="50.808826368302107" lon="13.140917122364044">
        <ele>345</ele>
        <time>2026-08-29T12:21:18Z</time>
      </trkpt>
      <trkpt lat="50.808858219534159" lon="13.140999600291252">
        <ele>345</ele>
        <time>2026-08-29T12:21:19Z</time>
      </trkpt>
      <trkpt lat="50.808897195383906" lon="13.141062799841166">
        <ele>344</ele>
        <time>2026-08-29T12:21:20Z</time>
      </trkpt>
      <trkpt lat="50.808940446004272" lon="13.141129687428474">
        <ele>344</ele>
        <time>2026-08-29T12:21:21Z</time>
      </trkpt>
      <trkpt lat="50.808982439339161" lon="13.14118173904717">
        <ele>343</ele>
        <time>2026-08-29T12:21:22Z</time>
      </trkpt>
      <trkpt lat="50.80902149900794" lon="13.141234712675214">
        <ele>343</ele>
        <time>2026-08-29T12:21:23Z</time>
      </trkpt>
      <trkpt lat="50.809052176773548" lon="13.141266480088234">
        <ele>343</ele>
        <time>2026-08-29T12:21:24Z</time>
      </trkpt>
      <trkpt lat="50.809076484292746" lon="13.141288021579385">
        <ele>342</ele>
        <time>2026-08-29T12:21:25Z</time>
      </trkpt>
      <trkpt lat="50.809081764891744" lon="13.141300678253174">
        <ele>342</ele>
        <time>2026-08-29T12:21:26Z</time>
      </trkpt>
      <trkpt lat="50.809069778770208" lon="13.141291625797749">
        <ele>342</ele>
        <time>2026-08-29T12:21:27Z</time>
      </trkpt>
      <trkpt lat="50.809066258370876" lon="13.141298079863191">
        <ele>342</ele>
        <time>2026-08-29T12:21:28Z</time>
      </trkpt>
      <trkpt lat="50.809072880074382" lon="13.141304282471538">
        <ele>341</ele>
        <time>2026-08-29T12:21:29Z</time>
      </trkpt>
      <trkpt lat="50.809067850932479" lon="13.141303779557347">
        <ele>342</ele>
        <time>2026-08-29T12:21:30Z</time>
      </trkpt>
      <trkpt lat="50.809067599475384" lon="13.141311490908265">
        <ele>341</ele>
        <time>2026-08-29T12:21:31Z</time>
      </trkpt>
      <trkpt lat="50.809074472635984" lon="13.141319286078215">
        <ele>341</ele>
        <time>2026-08-29T12:21:32Z</time>
      </trkpt>
      <trkpt lat="50.809081010520458" lon="13.141325321048498">
        <ele>341</ele>
        <time>2026-08-29T12:21:33Z</time>
      </trkpt>
      <trkpt lat="50.809081010520458" lon="13.141325321048498">
        <ele>341</ele>
        <time>2026-08-29T12:21:34Z</time>
      </trkpt>
      <trkpt lat="50.809080759063363" lon="13.141316771507263">
        <ele>341</ele>
        <time>2026-08-29T12:21:35Z</time>
      </trkpt>
      <trkpt lat="50.809080088511109" lon="13.141318112611771">
        <ele>341</ele>
        <time>2026-08-29T12:21:36Z</time>
      </trkpt>
      <trkpt lat="50.809079920873046" lon="13.141317861154675">
        <ele>341</ele>
        <time>2026-08-29T12:21:37Z</time>
      </trkpt>
      <trkpt lat="50.809079837054014" lon="13.141318196430802">
        <ele>341</ele>
        <time>2026-08-29T12:21:38Z</time>
      </trkpt>
      <trkpt lat="50.809079417958856" lon="13.141317693516612">
        <ele>341</ele>
        <time>2026-08-29T12:21:39Z</time>
      </trkpt>
      <trkpt lat="50.809079250320792" lon="13.141317358240485">
        <ele>341</ele>
        <time>2026-08-29T12:21:40Z</time>
      </trkpt>
      <trkpt lat="50.809079417958856" lon="13.141317525878549">
        <ele>341</ele>
        <time>2026-08-29T12:21:41Z</time>
      </trkpt>
      <trkpt lat="50.809078831225634" lon="13.141319202259183">
        <ele>341</ele>
        <time>2026-08-29T12:21:42Z</time>
      </trkpt>
      <trkpt lat="50.809078915044665" lon="13.141319286078215">
        <ele>341</ele>
        <time>2026-08-29T12:21:43Z</time>
      </trkpt>
      <trkpt lat="50.809078998863697" lon="13.141319118440151">
        <ele>341</ele>
        <time>2026-08-29T12:21:44Z</time>
      </trkpt>
      <trkpt lat="50.809078915044665" lon="13.141319118440151">
        <ele>341</ele>
        <time>2026-08-29T12:21:45Z</time>
      </trkpt>
      <trkpt lat="50.809078831225634" lon="13.141318950802088">
        <ele>341</ele>
        <time>2026-08-29T12:21:46Z</time>
      </trkpt>
      <trkpt lat="50.809078831225634" lon="13.141318866983056">
        <ele>341</ele>
        <time>2026-08-29T12:21:47Z</time>
      </trkpt>
      <trkpt lat="50.809078412130475" lon="13.141320794820786">
        <ele>341</ele>
        <time>2026-08-29T12:21:48Z</time>
      </trkpt>
      <trkpt lat="50.809078747406602" lon="13.141321633011103">
        <ele>341</ele>
        <time>2026-08-29T12:21:49Z</time>
      </trkpt>
      <trkpt lat="50.809078579768538" lon="13.141322806477547">
        <ele>341</ele>
        <time>2026-08-29T12:21:50Z</time>
      </trkpt>
      <trkpt lat="50.809078076854348" lon="13.141324147582054">
        <ele>341</ele>
        <time>2026-08-29T12:21:51Z</time>
      </trkpt>
      <trkpt lat="50.809077909216285" lon="13.141324147582054">
        <ele>341</ele>
        <time>2026-08-29T12:21:52Z</time>
      </trkpt>
      <trkpt lat="50.80907816067338" lon="13.141324650496244">
        <ele>341</ele>
        <time>2026-08-29T12:21:53Z</time>
      </trkpt>
      <trkpt lat="50.809077490121126" lon="13.141324650496244">
        <ele>341</ele>
        <time>2026-08-29T12:21:54Z</time>
      </trkpt>
      <trkpt lat="50.809077490121126" lon="13.141323728486896">
        <ele>341</ele>
        <time>2026-08-29T12:21:55Z</time>
      </trkpt>
      <trkpt lat="50.809077406302094" lon="13.141321297734976">
        <ele>341</ele>
        <time>2026-08-29T12:21:56Z</time>
      </trkpt>
      <trkpt lat="50.809077741578221" lon="13.141320878639817">
        <ele>341</ele>
        <time>2026-08-29T12:21:57Z</time>
      </trkpt>
      <trkpt lat="50.809078328311443" lon="13.141320291906595">
        <ele>341</ele>
        <time>2026-08-29T12:21:58Z</time>
      </trkpt>
      <trkpt lat="50.809078579768538" lon="13.141319788992405">
        <ele>341</ele>
        <time>2026-08-29T12:21:59Z</time>
      </trkpt>
      <trkpt lat="50.809079082682729" lon="13.141318783164024">
        <ele>341</ele>
        <time>2026-08-29T12:22:00Z</time>
      </trkpt>
      <trkpt lat="50.809079501777887" lon="13.141318783164024">
        <ele>341</ele>
        <time>2026-08-29T12:22:01Z</time>
      </trkpt>
      <trkpt lat="50.809079669415951" lon="13.141318950802088">
        <ele>341</ele>
        <time>2026-08-29T12:22:02Z</time>
      </trkpt>
      <trkpt lat="50.809080004692078" lon="13.141318950802088">
        <ele>341</ele>
        <time>2026-08-29T12:22:03Z</time>
      </trkpt>
      <trkpt lat="50.809085788205266" lon="13.141320878639817">
        <ele>341</ele>
        <time>2026-08-29T12:22:04Z</time>
      </trkpt>
      <trkpt lat="50.809091990813613" lon="13.141321549192071">
        <ele>341</ele>
        <time>2026-08-29T12:22:05Z</time>
      </trkpt>
      <trkpt lat="50.809092242270708" lon="13.141322052106261">
        <ele>341</ele>
        <time>2026-08-29T12:22:06Z</time>
      </trkpt>
      <trkpt lat="50.809096433222294" lon="13.14132934436202">
        <ele>340</ele>
        <time>2026-08-29T12:22:07Z</time>
      </trkpt>
      <trkpt lat="50.809106323868036" lon="13.141326829791069">
        <ele>340</ele>
        <time>2026-08-29T12:22:08Z</time>
      </trkpt>
      <trkpt lat="50.80911772325635" lon="13.14133470878005">
        <ele>340</ele>
        <time>2026-08-29T12:22:09Z</time>
      </trkpt>
      <trkpt lat="50.809122668579221" lon="13.141339737921953">
        <ele>340</ele>
        <time>2026-08-29T12:22:10Z</time>
      </trkpt>
      <trkpt lat="50.809128368273377" lon="13.141339821740985">
        <ele>340</ele>
        <time>2026-08-29T12:22:11Z</time>
      </trkpt>
      <trkpt lat="50.809128787368536" lon="13.141340324655175">
        <ele>340</ele>
        <time>2026-08-29T12:22:12Z</time>
      </trkpt>
      <trkpt lat="50.809129038825631" lon="13.141340743750334">
        <ele>340</ele>
        <time>2026-08-29T12:22:13Z</time>
      </trkpt>
      <trkpt lat="50.809128871187568" lon="13.141340324655175">
        <ele>340</ele>
        <time>2026-08-29T12:22:14Z</time>
      </trkpt>
      <trkpt lat="50.809128871187568" lon="13.141339402645826">
        <ele>340</ele>
        <time>2026-08-29T12:22:15Z</time>
      </trkpt>
      <trkpt lat="50.809128871187568" lon="13.141339151188731">
        <ele>340</ele>
        <time>2026-08-29T12:22:16Z</time>
      </trkpt>
      <trkpt lat="50.809128871187568" lon="13.141339654102921">
        <ele>340</ele>
        <time>2026-08-29T12:22:17Z</time>
      </trkpt>
      <trkpt lat="50.809128368273377" lon="13.141340324655175">
        <ele>340</ele>
        <time>2026-08-29T12:22:18Z</time>
      </trkpt>
      <trkpt lat="50.809128200635314" lon="13.141340492293239">
        <ele>340</ele>
        <time>2026-08-29T12:22:19Z</time>
      </trkpt>
      <trkpt lat="50.809127781540155" lon="13.141340659931302">
        <ele>340</ele>
        <time>2026-08-29T12:22:20Z</time>
      </trkpt>
      <trkpt lat="50.809127362444997" lon="13.141340827569366">
        <ele>340</ele>
        <time>2026-08-29T12:22:21Z</time>
      </trkpt>
      <trkpt lat="50.809127278625965" lon="13.141340995207429">
        <ele>340</ele>
        <time>2026-08-29T12:22:22Z</time>
      </trkpt>
      <trkpt lat="50.809127446264029" lon="13.141340324655175">
        <ele>340</ele>
        <time>2026-08-29T12:22:23Z</time>
      </trkpt>
      <trkpt lat="50.809125769883394" lon="13.141345689073205">
        <ele>339</ele>
        <time>2026-08-29T12:22:24Z</time>
      </trkpt>
      <trkpt lat="50.809122500941157" lon="13.141354909166694">
        <ele>339</ele>
        <time>2026-08-29T12:22:25Z</time>
      </trkpt>
      <trkpt lat="50.809121578931808" lon="13.141338732093573">
        <ele>339</ele>
        <time>2026-08-29T12:22:26Z</time>
      </trkpt>
      <trkpt lat="50.809122081845999" lon="13.141331691294909">
        <ele>339</ele>
        <time>2026-08-29T12:22:27Z</time>
      </trkpt>
      <trkpt lat="50.809117136523128" lon="13.141338732093573">
        <ele>338</ele>
        <time>2026-08-29T12:22:28Z</time>
      </trkpt>
      <trkpt lat="50.809111520648003" lon="13.141337726265192">
        <ele>338</ele>
        <time>2026-08-29T12:22:29Z</time>
      </trkpt>
      <trkpt lat="50.809114119037986" lon="13.141324985772371">
        <ele>338</ele>
        <time>2026-08-29T12:22:30Z</time>
      </trkpt>
      <trkpt lat="50.809111017733812" lon="13.141323896124959">
        <ele>338</ele>
        <time>2026-08-29T12:22:31Z</time>
      </trkpt>
      <trkpt lat="50.809120573103428" lon="13.141303276643157">
        <ele>336</ele>
        <time>2026-08-29T12:22:32Z</time>
      </trkpt>
      <trkpt lat="50.809119148179889" lon="13.14131073653698">
        <ele>335</ele>
        <time>2026-08-29T12:22:33Z</time>
      </trkpt>
      <trkpt lat="50.809121076017618" lon="13.141314759850502">
        <ele>334</ele>
        <time>2026-08-29T12:22:34Z</time>
      </trkpt>
      <trkpt lat="50.80912359058857" lon="13.141313334926963">
        <ele>333</ele>
        <time>2026-08-29T12:22:35Z</time>
      </trkpt>
      <trkpt lat="50.809129709377885" lon="13.141304198652506">
        <ele>332</ele>
        <time>2026-08-29T12:22:36Z</time>
      </trkpt>
      <trkpt lat="50.809135241433978" lon="13.141312664374709">
        <ele>331</ele>
        <time>2026-08-29T12:22:37Z</time>
      </trkpt>
      <trkpt lat="50.809134989976883" lon="13.141312999650836">
        <ele>331</ele>
        <time>2026-08-29T12:22:38Z</time>
      </trkpt>
      <trkpt lat="50.809133145958185" lon="13.141301264986396">
        <ele>331</ele>
        <time>2026-08-29T12:22:39Z</time>
      </trkpt>
      <trkpt lat="50.809133062139153" lon="13.141301767900586">
        <ele>331</ele>
        <time>2026-08-29T12:22:40Z</time>
      </trkpt>
      <trkpt lat="50.809133648872375" lon="13.141302773728967">
        <ele>331</ele>
        <time>2026-08-29T12:22:41Z</time>
      </trkpt>
      <trkpt lat="50.809151502326131" lon="13.141311490908265">
        <ele>332</ele>
        <time>2026-08-29T12:22:42Z</time>
      </trkpt>
      <trkpt lat="50.809154519811273" lon="13.141310401260853">
        <ele>332</ele>
        <time>2026-08-29T12:22:43Z</time>
      </trkpt>
      <trkpt lat="50.809154268354177" lon="13.141310485079885">
        <ele>332</ele>
        <time>2026-08-29T12:22:44Z</time>
      </trkpt>
      <trkpt lat="50.809160387143493" lon="13.141313418745995">
        <ele>331</ele>
        <time>2026-08-29T12:22:45Z</time>
      </trkpt>
      <trkpt lat="50.809167930856347" lon="13.141322722658515">
        <ele>331</ele>
        <time>2026-08-29T12:22:46Z</time>
      </trkpt>
      <trkpt lat="50.809186119586229" lon="13.141329176723957">
        <ele>332</ele>
        <time>2026-08-29T12:22:47Z</time>
      </trkpt>
      <trkpt lat="50.809193747118115" lon="13.141339402645826">
        <ele>331</ele>
        <time>2026-08-29T12:22:48Z</time>
      </trkpt>
      <trkpt lat="50.809196680784225" lon="13.141337055712938">
        <ele>331</ele>
        <time>2026-08-29T12:22:49Z</time>
      </trkpt>
      <trkpt lat="50.809206068515778" lon="13.141333535313606">
        <ele>330</ele>
        <time>2026-08-29T12:22:50Z</time>
      </trkpt>
      <trkpt lat="50.809207409620285" lon="13.14133370295167">
        <ele>329</ele>
        <time>2026-08-29T12:22:51Z</time>
      </trkpt>
      <trkpt lat="50.809205397963524" lon="13.141325069591403">
        <ele>329</ele>
        <time>2026-08-29T12:22:52Z</time>
      </trkpt>
      <trkpt lat="50.809210510924459" lon="13.141329847276211">
        <ele>328</ele>
        <time>2026-08-29T12:22:53Z</time>
      </trkpt>
      <trkpt lat="50.809209672734141" lon="13.141337558627129">
        <ele>328</ele>
        <time>2026-08-29T12:22:54Z</time>
      </trkpt>
      <trkpt lat="50.809211181476712" lon="13.14133957028389">
        <ele>327</ele>
        <time>2026-08-29T12:22:55Z</time>
      </trkpt>
      <trkpt lat="50.809213779866695" lon="13.141342252492905">
        <ele>327</ele>
        <time>2026-08-29T12:22:56Z</time>
      </trkpt>
      <trkpt lat="50.809218306094408" lon="13.141342671588063">
        <ele>327</ele>
        <time>2026-08-29T12:22:57Z</time>
      </trkpt>
      <trkpt lat="50.809211349114776" lon="13.141343593597412">
        <ele>327</ele>
        <time>2026-08-29T12:22:58Z</time>
      </trkpt>
      <trkpt lat="50.8092135284096" lon="13.14134007319808">
        <ele>327</ele>
        <time>2026-08-29T12:22:59Z</time>
      </trkpt>
      <trkpt lat="50.809211432933807" lon="13.141343174502254">
        <ele>326</ele>
        <time>2026-08-29T12:23:00Z</time>
      </trkpt>
      <trkpt lat="50.8092135284096" lon="13.14134493470192">
        <ele>326</ele>
        <time>2026-08-29T12:23:01Z</time>
      </trkpt>
      <trkpt lat="50.809219144284725" lon="13.141356837004423">
        <ele>326</ele>
        <time>2026-08-29T12:23:02Z</time>
      </trkpt>
      <trkpt lat="50.809219144284725" lon="13.141359519213438">
        <ele>326</ele>
        <time>2026-08-29T12:23:03Z</time>
      </trkpt>
      <trkpt lat="50.809213276952505" lon="13.141360860317945">
        <ele>326</ele>
        <time>2026-08-29T12:23:04Z</time>
      </trkpt>
      <trkpt lat="50.809213612228632" lon="13.141368739306927">
        <ele>326</ele>
        <time>2026-08-29T12:23:05Z</time>
      </trkpt>
      <trkpt lat="50.809214031323791" lon="13.141377540305257">
        <ele>326</ele>
        <time>2026-08-29T12:23:06Z</time>
      </trkpt>
      <trkpt lat="50.809203302487731" lon="13.141399081796408">
        <ele>325</ele>
        <time>2026-08-29T12:23:07Z</time>
      </trkpt>
      <trkpt lat="50.809189388528466" lon="13.141420790925622">
        <ele>325</ele>
        <time>2026-08-29T12:23:08Z</time>
      </trkpt>
      <trkpt lat="50.809189220890403" lon="13.141421210020781">
        <ele>325</ele>
        <time>2026-08-29T12:23:09Z</time>
      </trkpt>
      <trkpt lat="50.809189053252339" lon="13.141421796754003">
        <ele>325</ele>
        <time>2026-08-29T12:23:10Z</time>
      </trkpt>
      <trkpt lat="50.809188969433308" lon="13.141422299668193">
        <ele>325</ele>
        <time>2026-08-29T12:23:11Z</time>
      </trkpt>
      <trkpt lat="50.809187879785895" lon="13.141435040161014">
        <ele>325</ele>
        <time>2026-08-29T12:23:12Z</time>
      </trkpt>
      <trkpt lat="50.809182683005929" lon="13.141452306881547">
        <ele>325</ele>
        <time>2026-08-29T12:23:13Z</time>
      </trkpt>
      <trkpt lat="50.809179833158851" lon="13.141461694613099">
        <ele>325</ele>
        <time>2026-08-29T12:23:14Z</time>
      </trkpt>
      <trkpt lat="50.809179497882724" lon="13.141473680734634">
        <ele>324</ele>
        <time>2026-08-29T12:23:15Z</time>
      </trkpt>
      <trkpt lat="50.809165919199586" lon="13.14148030243814">
        <ele>324</ele>
        <time>2026-08-29T12:23:16Z</time>
      </trkpt>
      <trkpt lat="50.809159884229302" lon="13.141484661027789">
        <ele>325</ele>
        <time>2026-08-29T12:23:17Z</time>
      </trkpt>
      <trkpt lat="50.809162147343159" lon="13.141489019617438">
        <ele>325</ele>
        <time>2026-08-29T12:23:18Z</time>
      </trkpt>
      <trkpt lat="50.809168517589569" lon="13.141500754281878">
        <ele>326</ele>
        <time>2026-08-29T12:23:19Z</time>
      </trkpt>
      <trkpt lat="50.809175558388233" lon="13.14150620251894">
        <ele>326</ele>
        <time>2026-08-29T12:23:20Z</time>
      </trkpt>
      <trkpt lat="50.809175306931138" lon="13.141516847535968">
        <ele>325</ele>
        <time>2026-08-29T12:23:21Z</time>
      </trkpt>
      <trkpt lat="50.809181509539485" lon="13.141539730131626">
        <ele>326</ele>
        <time>2026-08-29T12:23:22Z</time>
      </trkpt>
      <trkpt lat="50.809195088222623" lon="13.141565546393394">
        <ele>326</ele>
        <time>2026-08-29T12:23:23Z</time>
      </trkpt>
      <trkpt lat="50.809215288609266" lon="13.141592871397734">
        <ele>326</ele>
        <time>2026-08-29T12:23:24Z</time>
      </trkpt>
      <trkpt lat="50.809234147891402" lon="13.141618939116597">
        <ele>327</ele>
        <time>2026-08-29T12:23:25Z</time>
      </trkpt>
      <trkpt lat="50.809258539229631" lon="13.141647772863507">
        <ele>326</ele>
        <time>2026-08-29T12:23:26Z</time>
      </trkpt>
      <trkpt lat="50.809290558099747" lon="13.141685239970684">
        <ele>326</ele>
        <time>2026-08-29T12:23:27Z</time>
      </trkpt>
      <trkpt lat="50.809336071833968" lon="13.141712229698896">
        <ele>327</ele>
        <time>2026-08-29T12:23:28Z</time>
      </trkpt>
      <trkpt lat="50.809394577518106" lon="13.141738381236792">
        <ele>327</ele>
        <time>2026-08-29T12:23:29Z</time>
      </trkpt>
      <trkpt lat="50.809451658278704" lon="13.141784900799394">
        <ele>328</ele>
        <time>2026-08-29T12:23:30Z</time>
      </trkpt>
      <trkpt lat="50.809510331600904" lon="13.14182236790657">
        <ele>328</ele>
        <time>2026-08-29T12:23:31Z</time>
      </trkpt>
      <trkpt lat="50.809571770951152" lon="13.141856398433447">
        <ele>329</ele>
        <time>2026-08-29T12:23:32Z</time>
      </trkpt>
      <trkpt lat="50.809641340747476" lon="13.141882549971342">
        <ele>329</ele>
        <time>2026-08-29T12:23:33Z</time>
      </trkpt>
      <trkpt lat="50.809706300497055" lon="13.141921609640121">
        <ele>329</ele>
        <time>2026-08-29T12:23:34Z</time>
      </trkpt>
      <trkpt lat="50.809769751504064" lon="13.141955640166998">
        <ele>330</ele>
        <time>2026-08-29T12:23:35Z</time>
      </trkpt>
      <trkpt lat="50.8098213840276" lon="13.141999058425426">
        <ele>329</ele>
        <time>2026-08-29T12:23:36Z</time>
      </trkpt>
      <trkpt lat="50.809882320463657" lon="13.142052954062819">
        <ele>329</ele>
        <time>2026-08-29T12:23:37Z</time>
      </trkpt>
      <trkpt lat="50.809939820319414" lon="13.142099305987358">
        <ele>329</ele>
        <time>2026-08-29T12:23:38Z</time>
      </trkpt>
      <trkpt lat="50.809995392337441" lon="13.142133420333266">
        <ele>330</ele>
        <time>2026-08-29T12:23:39Z</time>
      </trkpt>
      <trkpt lat="50.810031602159142" lon="13.14216342754662">
        <ele>330</ele>
        <time>2026-08-29T12:23:40Z</time>
      </trkpt>
      <trkpt lat="50.810080301016569" lon="13.142194356769323">
        <ele>330</ele>
        <time>2026-08-29T12:23:41Z</time>
      </trkpt>
      <trkpt lat="50.810134364292026" lon="13.142199134454131">
        <ele>329</ele>
        <time>2026-08-29T12:23:42Z</time>
      </trkpt>
      <trkpt lat="50.810193289071321" lon="13.142224447801709">
        <ele>329</ele>
        <time>2026-08-29T12:23:43Z</time>
      </trkpt>
      <trkpt lat="50.810245759785175" lon="13.142260489985347">
        <ele>328</ele>
        <time>2026-08-29T12:23:44Z</time>
      </trkpt>
      <trkpt lat="50.810301080346107" lon="13.142298040911555">
        <ele>328</ele>
        <time>2026-08-29T12:23:45Z</time>
      </trkpt>
      <trkpt lat="50.810359921306372" lon="13.142340620979667">
        <ele>328</ele>
        <time>2026-08-29T12:23:46Z</time>
      </trkpt>
      <trkpt lat="50.810425970703363" lon="13.142367023974657">
        <ele>329</ele>
        <time>2026-08-29T12:23:47Z</time>
      </trkpt>
      <trkpt lat="50.810485649853945" lon="13.142399126663804">
        <ele>329</ele>
        <time>2026-08-29T12:23:48Z</time>
      </trkpt>
      <trkpt lat="50.810560081154108" lon="13.142438437789679">
        <ele>330</ele>
        <time>2026-08-29T12:23:49Z</time>
      </trkpt>
      <trkpt lat="50.810626717284322" lon="13.142468361184001">
        <ele>330</ele>
        <time>2026-08-29T12:23:50Z</time>
      </trkpt>
      <trkpt lat="50.810693521052599" lon="13.142505995929241">
        <ele>331</ele>
        <time>2026-08-29T12:23:51Z</time>
      </trkpt>
      <trkpt lat="50.81077273003757" lon="13.142534997314215">
        <ele>331</ele>
        <time>2026-08-29T12:23:52Z</time>
      </trkpt>
      <trkpt lat="50.810844479128718" lon="13.142562322318554">
        <ele>331</ele>
        <time>2026-08-29T12:23:53Z</time>
      </trkpt>
      <trkpt lat="50.810914132744074" lon="13.142582606524229">
        <ele>332</ele>
        <time>2026-08-29T12:23:54Z</time>
      </trkpt>
      <trkpt lat="50.810974901542068" lon="13.14260951243341">
        <ele>332</ele>
        <time>2026-08-29T12:23:55Z</time>
      </trkpt>
      <trkpt lat="50.811034077778459" lon="13.142634322866797">
        <ele>332</ele>
        <time>2026-08-29T12:23:56Z</time>
      </trkpt>
      <trkpt lat="50.811106497421861" lon="13.142673131078482">
        <ele>333</ele>
        <time>2026-08-29T12:23:57Z</time>
      </trkpt>
      <trkpt lat="50.811175229027867" lon="13.142698025330901">
        <ele>333</ele>
        <time>2026-08-29T12:23:58Z</time>
      </trkpt>
      <trkpt lat="50.811249325051904" lon="13.142726523801684">
        <ele>334</ele>
        <time>2026-08-29T12:23:59Z</time>
      </trkpt>
      <trkpt lat="50.811311518773437" lon="13.142757620662451">
        <ele>334</ele>
        <time>2026-08-29T12:24:00Z</time>
      </trkpt>
      <trkpt lat="50.811377232894301" lon="13.142789639532566">
        <ele>334</ele>
        <time>2026-08-29T12:24:01Z</time>
      </trkpt>
      <trkpt lat="50.811442360281944" lon="13.142822412773967">
        <ele>335</ele>
        <time>2026-08-29T12:24:02Z</time>
      </trkpt>
      <trkpt lat="50.811512768268585" lon="13.142858957871795">
        <ele>335</ele>
        <time>2026-08-29T12:24:03Z</time>
      </trkpt>
      <trkpt lat="50.811577057465911" lon="13.142895419150591">
        <ele>336</ele>
        <time>2026-08-29T12:24:04Z</time>
      </trkpt>
      <trkpt lat="50.811642184853554" lon="13.142926767468452">
        <ele>336</ele>
        <time>2026-08-29T12:24:05Z</time>
      </trkpt>
      <trkpt lat="50.811710078269243" lon="13.142965072765946">
        <ele>336</ele>
        <time>2026-08-29T12:24:06Z</time>
      </trkpt>
      <trkpt lat="50.811770260334015" lon="13.14299994148314">
        <ele>335</ele>
        <time>2026-08-29T12:24:07Z</time>
      </trkpt>
      <trkpt lat="50.811842512339354" lon="13.143032463267446">
        <ele>335</ele>
        <time>2026-08-29T12:24:08Z</time>
      </trkpt>
      <trkpt lat="50.811904622241855" lon="13.14306540414691">
        <ele>335</ele>
        <time>2026-08-29T12:24:09Z</time>
      </trkpt>
      <trkpt lat="50.811966313049197" lon="13.143097423017025">
        <ele>335</ele>
        <time>2026-08-29T12:24:10Z</time>
      </trkpt>
      <trkpt lat="50.812020460143685" lon="13.143129777163267">
        <ele>335</ele>
        <time>2026-08-29T12:24:11Z</time>
      </trkpt>
      <trkpt lat="50.812088353559375" lon="13.143164226785302">
        <ele>335</ele>
        <time>2026-08-29T12:24:12Z</time>
      </trkpt>
      <trkpt lat="50.812152558937669" lon="13.143205298110843">
        <ele>335</ele>
        <time>2026-08-29T12:24:13Z</time>
      </trkpt>
      <trkpt lat="50.812219697982073" lon="13.143244357779622">
        <ele>335</ele>
        <time>2026-08-29T12:24:14Z</time>
      </trkpt>
      <trkpt lat="50.812291027978063" lon="13.143264725804329">
        <ele>335</ele>
        <time>2026-08-29T12:24:15Z</time>
      </trkpt>
      <trkpt lat="50.812357580289245" lon="13.14329314045608">
        <ele>335</ele>
        <time>2026-08-29T12:24:16Z</time>
      </trkpt>
      <trkpt lat="50.81242916174233" lon="13.143334882333875">
        <ele>335</ele>
        <time>2026-08-29T12:24:17Z</time>
      </trkpt>
      <trkpt lat="50.812488840892911" lon="13.143378552049398">
        <ele>336</ele>
        <time>2026-08-29T12:24:18Z</time>
      </trkpt>
      <trkpt lat="50.812564445659518" lon="13.143401518464088">
        <ele>336</ele>
        <time>2026-08-29T12:24:19Z</time>
      </trkpt>
      <trkpt lat="50.81263929605484" lon="13.143421551212668">
        <ele>336</ele>
        <time>2026-08-29T12:24:20Z</time>
      </trkpt>
      <trkpt lat="50.812717163935304" lon="13.143457425758243">
        <ele>335</ele>
        <time>2026-08-29T12:24:21Z</time>
      </trkpt>
      <trkpt lat="50.812786901369691" lon="13.143491707742214">
        <ele>335</ele>
        <time>2026-08-29T12:24:22Z</time>
      </trkpt>
      <trkpt lat="50.812857979908586" lon="13.143528001382947">
        <ele>336</ele>
        <time>2026-08-29T12:24:23Z</time>
      </trkpt>
      <trkpt lat="50.812923610210419" lon="13.143556332215667">
        <ele>336</ele>
        <time>2026-08-29T12:24:24Z</time>
      </trkpt>
      <trkpt lat="50.812987396493554" lon="13.143572006374598">
        <ele>336</ele>
        <time>2026-08-29T12:24:25Z</time>
      </trkpt>
      <trkpt lat="50.813061157241464" lon="13.143593296408653">
        <ele>336</ele>
        <time>2026-08-29T12:24:26Z</time>
      </trkpt>
      <trkpt lat="50.813136678189039" lon="13.143611820414662">
        <ele>336</ele>
        <time>2026-08-29T12:24:27Z</time>
      </trkpt>
      <trkpt lat="50.813203901052475" lon="13.143629338592291">
        <ele>336</ele>
        <time>2026-08-29T12:24:28Z</time>
      </trkpt>
      <trkpt lat="50.813279757276177" lon="13.143633864820004">
        <ele>337</ele>
        <time>2026-08-29T12:24:29Z</time>
      </trkpt>
      <trkpt lat="50.813366090878844" lon="13.143635960295796">
        <ele>337</ele>
        <time>2026-08-29T12:24:30Z</time>
      </trkpt>
      <trkpt lat="50.813437839969993" lon="13.143655322492123">
        <ele>338</ele>
        <time>2026-08-29T12:24:31Z</time>
      </trkpt>
      <trkpt lat="50.813497100025415" lon="13.143664123490453">
        <ele>338</ele>
        <time>2026-08-29T12:24:32Z</time>
      </trkpt>
      <trkpt lat="50.813556611537933" lon="13.143678540363908">
        <ele>338</ele>
        <time>2026-08-29T12:24:33Z</time>
      </trkpt>
      <trkpt lat="50.813617464154959" lon="13.143702931702137">
        <ele>338</ele>
        <time>2026-08-29T12:24:34Z</time>
      </trkpt>
      <trkpt lat="50.813671611249447" lon="13.143712235614657">
        <ele>338</ele>
        <time>2026-08-29T12:24:35Z</time>
      </trkpt>
      <trkpt lat="50.813734140247107" lon="13.143730172887444">
        <ele>338</ele>
        <time>2026-08-29T12:24:36Z</time>
      </trkpt>
      <trkpt lat="50.813784766942263" lon="13.143755067139864">
        <ele>337</ele>
        <time>2026-08-29T12:24:37Z</time>
      </trkpt>
      <trkpt lat="50.81384377554059" lon="13.143784152343869">
        <ele>338</ele>
        <time>2026-08-29T12:24:38Z</time>
      </trkpt>
      <trkpt lat="50.81389213912189" lon="13.14381156116724">
        <ele>337</ele>
        <time>2026-08-29T12:24:39Z</time>
      </trkpt>
      <trkpt lat="50.813964139670134" lon="13.143830839544535">
        <ele>337</ele>
        <time>2026-08-29T12:24:40Z</time>
      </trkpt>
      <trkpt lat="50.814037229865789" lon="13.143846094608307">
        <ele>337</ele>
        <time>2026-08-29T12:24:41Z</time>
      </trkpt>
      <trkpt lat="50.814110655337572" lon="13.143850872293115">
        <ele>337</ele>
        <time>2026-08-29T12:24:42Z</time>
      </trkpt>
      <trkpt lat="50.814180392771959" lon="13.143852632492781">
        <ele>337</ele>
        <time>2026-08-29T12:24:43Z</time>
      </trkpt>
      <trkpt lat="50.814242335036397" lon="13.143855230882764">
        <ele>336</ele>
        <time>2026-08-29T12:24:44Z</time>
      </trkpt>
      <trkpt lat="50.814297571778297" lon="13.143861517310143">
        <ele>336</ele>
        <time>2026-08-29T12:24:45Z</time>
      </trkpt>
      <trkpt lat="50.814371248707175" lon="13.143877359107137">
        <ele>336</ele>
        <time>2026-08-29T12:24:46Z</time>
      </trkpt>
      <trkpt lat="50.814432939514518" lon="13.143872916698456">
        <ele>336</ele>
        <time>2026-08-29T12:24:47Z</time>
      </trkpt>
      <trkpt lat="50.814502844586968" lon="13.14387802965939">
        <ele>335</ele>
        <time>2026-08-29T12:24:48Z</time>
      </trkpt>
      <trkpt lat="50.814550621435046" lon="13.14388875849545">
        <ele>335</ele>
        <time>2026-08-29T12:24:49Z</time>
      </trkpt>
      <trkpt lat="50.81461968831718" lon="13.143905438482761">
        <ele>335</ele>
        <time>2026-08-29T12:24:50Z</time>
      </trkpt>
      <trkpt lat="50.814689509570599" lon="13.143915412947536">
        <ele>335</ele>
        <time>2026-08-29T12:24:51Z</time>
      </trkpt>
      <trkpt lat="50.814750026911497" lon="13.143925471231341">
        <ele>335</ele>
        <time>2026-08-29T12:24:52Z</time>
      </trkpt>
      <trkpt lat="50.814806856215" lon="13.143917005509138">
        <ele>335</ele>
        <time>2026-08-29T12:24:53Z</time>
      </trkpt>
      <trkpt lat="50.814870642498136" lon="13.143907701596618">
        <ele>335</ele>
        <time>2026-08-29T12:24:54Z</time>
      </trkpt>
      <trkpt lat="50.814928980544209" lon="13.143888590857387">
        <ele>335</ele>
        <time>2026-08-29T12:24:55Z</time>
      </trkpt>
      <trkpt lat="50.814991677179933" lon="13.143860260024667">
        <ele>335</ele>
        <time>2026-08-29T12:24:56Z</time>
      </trkpt>
      <trkpt lat="50.815061330795288" lon="13.143837293609977">
        <ele>335</ele>
        <time>2026-08-29T12:24:57Z</time>
      </trkpt>
      <trkpt lat="50.815124697983265" lon="13.143805442377925">
        <ele>335</ele>
        <time>2026-08-29T12:24:58Z</time>
      </trkpt>
      <trkpt lat="50.815179767087102" lon="13.143773088231683">
        <ele>336</ele>
        <time>2026-08-29T12:24:59Z</time>
      </trkpt>
      <trkpt lat="50.815226202830672" lon="13.14375196583569">
        <ele>337</ele>
        <time>2026-08-29T12:25:00Z</time>
      </trkpt>
      <trkpt lat="50.815261825919151" lon="13.143738219514489">
        <ele>337</ele>
        <time>2026-08-29T12:25:01Z</time>
      </trkpt>
      <trkpt lat="50.815302142873406" lon="13.143718941137195">
        <ele>337</ele>
        <time>2026-08-29T12:25:02Z</time>
      </trkpt>
      <trkpt lat="50.815349500626326" lon="13.143700584769249">
        <ele>337</ele>
        <time>2026-08-29T12:25:03Z</time>
      </trkpt>
      <trkpt lat="50.81539954058826" lon="13.143677618354559">
        <ele>337</ele>
        <time>2026-08-29T12:25:04Z</time>
      </trkpt>
      <trkpt lat="50.815447233617306" lon="13.143642162904143">
        <ele>337</ele>
        <time>2026-08-29T12:25:05Z</time>
      </trkpt>
      <trkpt lat="50.815493669360876" lon="13.143619196489453">
        <ele>337</ele>
        <time>2026-08-29T12:25:06Z</time>
      </trkpt>
      <trkpt lat="50.815543960779905" lon="13.143587345257401">
        <ele>337</ele>
        <time>2026-08-29T12:25:07Z</time>
      </trkpt>
      <trkpt lat="50.815599281340837" lon="13.14354962669313">
        <ele>337</ele>
        <time>2026-08-29T12:25:08Z</time>
      </trkpt>
      <trkpt lat="50.815658289939165" lon="13.143517104908824">
        <ele>337</ele>
        <time>2026-08-29T12:25:09Z</time>
      </trkpt>
      <trkpt lat="50.81572693772614" lon="13.143488690257072">
        <ele>337</ele>
        <time>2026-08-29T12:25:10Z</time>
      </trkpt>
      <trkpt lat="50.815785108134151" lon="13.143456503748894">
        <ele>338</ele>
        <time>2026-08-29T12:25:11Z</time>
      </trkpt>
      <trkpt lat="50.815836908295751" lon="13.143429597839713">
        <ele>338</ele>
        <time>2026-08-29T12:25:12Z</time>
      </trkpt>
      <trkpt lat="50.815891809761524" lon="13.14338986761868">
        <ele>337</ele>
        <time>2026-08-29T12:25:13Z</time>
      </trkpt>
      <trkpt lat="50.815946459770203" lon="13.143360782414675">
        <ele>338</ele>
        <time>2026-08-29T12:25:14Z</time>
      </trkpt>
      <trkpt lat="50.816000942140818" lon="13.143327590078115">
        <ele>338</ele>
        <time>2026-08-29T12:25:15Z</time>
      </trkpt>
      <trkpt lat="50.816061710938811" lon="13.143294481560588">
        <ele>338</ele>
        <time>2026-08-29T12:25:16Z</time>
      </trkpt>
      <trkpt lat="50.816116528585553" lon="13.14327159896493">
        <ele>338</ele>
        <time>2026-08-29T12:25:17Z</time>
      </trkpt>
      <trkpt lat="50.816175788640976" lon="13.14322859980166">
        <ele>339</ele>
        <time>2026-08-29T12:25:18Z</time>
      </trkpt>
      <trkpt lat="50.816236389800906" lon="13.143201861530542">
        <ele>339</ele>
        <time>2026-08-29T12:25:19Z</time>
      </trkpt>
      <trkpt lat="50.816301517188549" lon="13.143178895115852">
        <ele>338</ele>
        <time>2026-08-29T12:25:20Z</time>
      </trkpt>
      <trkpt lat="50.816352227702737" lon="13.143155174329877">
        <ele>338</ele>
        <time>2026-08-29T12:25:21Z</time>
      </trkpt>
      <trkpt lat="50.816407548263669" lon="13.143125921487808">
        <ele>338</ele>
        <time>2026-08-29T12:25:22Z</time>
      </trkpt>
      <trkpt lat="50.816466892138124" lon="13.143096081912518">
        <ele>338</ele>
        <time>2026-08-29T12:25:23Z</time>
      </trkpt>
      <trkpt lat="50.816531181335449" lon="13.14307663589716">
        <ele>338</ele>
        <time>2026-08-29T12:25:24Z</time>
      </trkpt>
      <trkpt lat="50.816583568230271" lon="13.143050400540233">
        <ele>337</ele>
        <time>2026-08-29T12:25:25Z</time>
      </trkpt>
      <trkpt lat="50.816635871306062" lon="13.143013101071119">
        <ele>337</ele>
        <time>2026-08-29T12:25:26Z</time>
      </trkpt>
      <trkpt lat="50.816688258200884" lon="13.142994325608015">
        <ele>337</ele>
        <time>2026-08-29T12:25:27Z</time>
      </trkpt>
      <trkpt lat="50.816742740571499" lon="13.142968425527215">
        <ele>337</ele>
        <time>2026-08-29T12:25:28Z</time>
      </trkpt>
      <trkpt lat="50.816791523247957" lon="13.142938334494829">
        <ele>336</ele>
        <time>2026-08-29T12:25:29Z</time>
      </trkpt>
      <trkpt lat="50.816854555159807" lon="13.142901454120874">
        <ele>336</ele>
        <time>2026-08-29T12:25:30Z</time>
      </trkpt>
      <trkpt lat="50.816908618435264" lon="13.142857365310192">
        <ele>335</ele>
        <time>2026-08-29T12:25:31Z</time>
      </trkpt>
      <trkpt lat="50.816973159089684" lon="13.142793495208025">
        <ele>336</ele>
        <time>2026-08-29T12:25:32Z</time>
      </trkpt>
      <trkpt lat="50.817024875432253" lon="13.142713699489832">
        <ele>336</ele>
        <time>2026-08-29T12:25:33Z</time>
      </trkpt>
      <trkpt lat="50.817075753584504" lon="13.142665922641754">
        <ele>337</ele>
        <time>2026-08-29T12:25:34Z</time>
      </trkpt>
      <trkpt lat="50.817138701677322" lon="13.142639938741922">
        <ele>337</ele>
        <time>2026-08-29T12:25:35Z</time>
      </trkpt>
      <trkpt lat="50.817191591486335" lon="13.142617139965296">
        <ele>338</ele>
        <time>2026-08-29T12:25:36Z</time>
      </trkpt>
      <trkpt lat="50.81724557094276" lon="13.142584031447768">
        <ele>337</ele>
        <time>2026-08-29T12:25:37Z</time>
      </trkpt>
      <trkpt lat="50.817298125475645" lon="13.142546312883496">
        <ele>338</ele>
        <time>2026-08-29T12:25:38Z</time>
      </trkpt>
      <trkpt lat="50.817348165437579" lon="13.142517395317554">
        <ele>338</ele>
        <time>2026-08-29T12:25:39Z</time>
      </trkpt>
      <trkpt lat="50.817382615059614" lon="13.142466433346272">
        <ele>338</ele>
        <time>2026-08-29T12:25:40Z</time>
      </trkpt>
      <trkpt lat="50.817396696656942" lon="13.142407340928912">
        <ele>338</ele>
        <time>2026-08-29T12:25:41Z</time>
      </trkpt>
      <trkpt lat="50.817409018054605" lon="13.142339279875159">
        <ele>338</ele>
        <time>2026-08-29T12:25:42Z</time>
      </trkpt>
      <trkpt lat="50.817398708313704" lon="13.142279768362641">
        <ele>339</ele>
        <time>2026-08-29T12:25:43Z</time>
      </trkpt>
      <trkpt lat="50.817382447421551" lon="13.142222436144948">
        <ele>339</ele>
        <time>2026-08-29T12:25:44Z</time>
      </trkpt>
      <trkpt lat="50.81736140884459" lon="13.142177425324917">
        <ele>338</ele>
        <time>2026-08-29T12:25:45Z</time>
      </trkpt>
      <trkpt lat="50.817347662523389" lon="13.142142808064818">
        <ele>338</ele>
        <time>2026-08-29T12:25:46Z</time>
      </trkpt>
      <trkpt lat="50.817335927858949" lon="13.142117578536272">
        <ele>338</ele>
        <time>2026-08-29T12:25:47Z</time>
      </trkpt>
      <trkpt lat="50.817329389974475" lon="13.142100898548961">
        <ele>338</ele>
        <time>2026-08-29T12:25:48Z</time>
      </trkpt>
      <trkpt lat="50.817330898717046" lon="13.142097210511565">
        <ele>338</ele>
        <time>2026-08-29T12:25:49Z</time>
      </trkpt>
      <trkpt lat="50.817325450479984" lon="13.142103496938944">
        <ele>339</ele>
        <time>2026-08-29T12:25:50Z</time>
      </trkpt>
      <trkpt lat="50.817322181537747" lon="13.142101317644119">
        <ele>339</ele>
        <time>2026-08-29T12:25:51Z</time>
      </trkpt>
      <trkpt lat="50.817318242043257" lon="13.142107017338276">
        <ele>339</ele>
        <time>2026-08-29T12:25:52Z</time>
      </trkpt>
      <trkpt lat="50.817317571491003" lon="13.142108945176005">
        <ele>339</ele>
        <time>2026-08-29T12:25:53Z</time>
      </trkpt>
      <trkpt lat="50.817317320033908" lon="13.142108777537942">
        <ele>339</ele>
        <time>2026-08-29T12:25:54Z</time>
      </trkpt>
      <trkpt lat="50.817317487671971" lon="13.142109196633101">
        <ele>339</ele>
        <time>2026-08-29T12:25:55Z</time>
      </trkpt>
      <trkpt lat="50.817317571491003" lon="13.142109112814069">
        <ele>339</ele>
        <time>2026-08-29T12:25:56Z</time>
      </trkpt>
      <trkpt lat="50.817314721643925" lon="13.14210525713861">
        <ele>339</ele>
        <time>2026-08-29T12:25:57Z</time>
      </trkpt>
      <trkpt lat="50.817316649481654" lon="13.14210182055831">
        <ele>339</ele>
        <time>2026-08-29T12:25:58Z</time>
      </trkpt>
      <trkpt lat="50.817319247871637" lon="13.142106849700212">
        <ele>338</ele>
        <time>2026-08-29T12:25:59Z</time>
      </trkpt>
      <trkpt lat="50.817325282841921" lon="13.142106933519244">
        <ele>338</ele>
        <time>2026-08-29T12:26:00Z</time>
      </trkpt>
      <trkpt lat="50.817320169880986" lon="13.142112968489528">
        <ele>337</ele>
        <time>2026-08-29T12:26:01Z</time>
      </trkpt>
      <trkpt lat="50.817320421338081" lon="13.142111375927925">
        <ele>337</ele>
        <time>2026-08-29T12:26:02Z</time>
      </trkpt>
      <trkpt lat="50.817322097718716" lon="13.142114141955972">
        <ele>336</ele>
        <time>2026-08-29T12:26:03Z</time>
      </trkpt>
      <trkpt lat="50.81732084043324" lon="13.142115902155638">
        <ele>336</ele>
        <time>2026-08-29T12:26:04Z</time>
      </trkpt>
      <trkpt lat="50.81732134334743" lon="13.142109699547291">
        <ele>336</ele>
        <time>2026-08-29T12:26:05Z</time>
      </trkpt>
      <trkpt lat="50.817321427166462" lon="13.142109364271164">
        <ele>336</ele>
        <time>2026-08-29T12:26:06Z</time>
      </trkpt>
      <trkpt lat="50.817321510985494" lon="13.142109615728259">
        <ele>336</ele>
        <time>2026-08-29T12:26:07Z</time>
      </trkpt>
      <trkpt lat="50.817321510985494" lon="13.142109699547291">
        <ele>336</ele>
        <time>2026-08-29T12:26:08Z</time>
      </trkpt>
      <trkpt lat="50.817321510985494" lon="13.142109783366323">
        <ele>336</ele>
        <time>2026-08-29T12:26:09Z</time>
      </trkpt>
      <trkpt lat="50.817321510985494" lon="13.142110034823418">
        <ele>336</ele>
        <time>2026-08-29T12:26:10Z</time>
      </trkpt>
      <trkpt lat="50.817321678623557" lon="13.142110118642449">
        <ele>336</ele>
        <time>2026-08-29T12:26:11Z</time>
      </trkpt>
      <trkpt lat="50.817321678623557" lon="13.142109783366323">
        <ele>336</ele>
        <time>2026-08-29T12:26:12Z</time>
      </trkpt>
      <trkpt lat="50.817321762442589" lon="13.142109867185354">
        <ele>336</ele>
        <time>2026-08-29T12:26:13Z</time>
      </trkpt>
      <trkpt lat="50.817321762442589" lon="13.142109867185354">
        <ele>337</ele>
        <time>2026-08-29T12:26:14Z</time>
      </trkpt>
      <trkpt lat="50.817321762442589" lon="13.142109867185354">
        <ele>337</ele>
        <time>2026-08-29T12:26:15Z</time>
      </trkpt>
      <trkpt lat="50.817321846261621" lon="13.142109867185354">
        <ele>337</ele>
        <time>2026-08-29T12:26:16Z</time>
      </trkpt>
      <trkpt lat="50.817326791584492" lon="13.142112046480179">
        <ele>337</ele>
        <time>2026-08-29T12:26:17Z</time>
      </trkpt>
      <trkpt lat="50.817328719422221" lon="13.142113974317908">
        <ele>337</ele>
        <time>2026-08-29T12:26:18Z</time>
      </trkpt>
      <trkpt lat="50.817328132688999" lon="13.142111962661147">
        <ele>338</ele>
        <time>2026-08-29T12:26:19Z</time>
      </trkpt>
      <trkpt lat="50.817328635603189" lon="13.142112046480179">
        <ele>338</ele>
        <time>2026-08-29T12:26:20Z</time>
      </trkpt>
      <trkpt lat="50.817323857918382" lon="13.142122775316238">
        <ele>338</ele>
        <time>2026-08-29T12:26:21Z</time>
      </trkpt>
      <trkpt lat="50.817324779927731" lon="13.142113303765655">
        <ele>339</ele>
        <time>2026-08-29T12:26:22Z</time>
      </trkpt>
      <trkpt lat="50.817322097718716" lon="13.142113303765655">
        <ele>339</ele>
        <time>2026-08-29T12:26:23Z</time>
      </trkpt>
      <trkpt lat="50.817320756614208" lon="13.142096875235438">
        <ele>339</ele>
        <time>2026-08-29T12:26:24Z</time>
      </trkpt>
      <trkpt lat="50.817314721643925" lon="13.142083548009396">
        <ele>339</ele>
        <time>2026-08-29T12:26:25Z</time>
      </trkpt>
      <trkpt lat="50.817312458530068" lon="13.142064353451133">
        <ele>339</ele>
        <time>2026-08-29T12:26:26Z</time>
      </trkpt>
      <trkpt lat="50.817303489893675" lon="13.142041638493538">
        <ele>340</ele>
        <time>2026-08-29T12:26:27Z</time>
      </trkpt>
      <trkpt lat="50.817293263971806" lon="13.142011882737279">
        <ele>340</ele>
        <time>2026-08-29T12:26:28Z</time>
      </trkpt>
      <trkpt lat="50.817284714430571" lon="13.141988916322589">
        <ele>340</ele>
        <time>2026-08-29T12:26:29Z</time>
      </trkpt>
      <trkpt lat="50.817272309213877" lon="13.141966452822089">
        <ele>340</ele>
        <time>2026-08-29T12:26:30Z</time>
      </trkpt>
      <trkpt lat="50.817260909825563" lon="13.141945330426097">
        <ele>340</ele>
        <time>2026-08-29T12:26:31Z</time>
      </trkpt>
      <trkpt lat="50.817250516265631" lon="13.141921022906899">
        <ele>341</ele>
        <time>2026-08-29T12:26:32Z</time>
      </trkpt>
      <trkpt lat="50.81723727285862" lon="13.141899397596717">
        <ele>341</ele>
        <time>2026-08-29T12:26:33Z</time>
      </trkpt>
      <trkpt lat="50.817227214574814" lon="13.141872743144631">
        <ele>341</ele>
        <time>2026-08-29T12:26:34Z</time>
      </trkpt>
      <trkpt lat="50.817209361121058" lon="13.141850782558322">
        <ele>341</ele>
        <time>2026-08-29T12:26:35Z</time>
      </trkpt>
      <trkpt lat="50.817200224846601" lon="13.141836700960994">
        <ele>342</ele>
        <time>2026-08-29T12:26:36Z</time>
      </trkpt>
      <trkpt lat="50.817196285352111" lon="13.141816668212414">
        <ele>342</ele>
        <time>2026-08-29T12:26:37Z</time>
      </trkpt>
      <trkpt lat="50.817189579829574" lon="13.14179060049355">
        <ele>342</ele>
        <time>2026-08-29T12:26:38Z</time>
      </trkpt>
      <trkpt lat="50.817184299230576" lon="13.141764616593719">
        <ele>342</ele>
        <time>2026-08-29T12:26:39Z</time>
      </trkpt>
      <trkpt lat="50.817179437726736" lon="13.14174123108387">
        <ele>342</ele>
        <time>2026-08-29T12:26:40Z</time>
      </trkpt>
      <trkpt lat="50.817168038338423" lon="13.141720611602068">
        <ele>342</ele>
        <time>2026-08-29T12:26:41Z</time>
      </trkpt>
      <trkpt lat="50.817158650606871" lon="13.141709212213755">
        <ele>342</ele>
        <time>2026-08-29T12:26:42Z</time>
      </trkpt>
      <trkpt lat="50.817149598151445" lon="13.141684317961335">
        <ele>342</ele>
        <time>2026-08-29T12:26:43Z</time>
      </trkpt>
      <trkpt lat="50.817139707505703" lon="13.141662525013089">
        <ele>342</ele>
        <time>2026-08-29T12:26:44Z</time>
      </trkpt>
      <trkpt lat="50.817129984498024" lon="13.141650203615427">
        <ele>343</ele>
        <time>2026-08-29T12:26:45Z</time>
      </trkpt>
      <trkpt lat="50.817122524604201" lon="13.141638552770019">
        <ele>342</ele>
        <time>2026-08-29T12:26:46Z</time>
      </trkpt>
      <trkpt lat="50.817115232348442" lon="13.141625393182039">
        <ele>343</ele>
        <time>2026-08-29T12:26:47Z</time>
      </trkpt>
      <trkpt lat="50.817107520997524" lon="13.141612568870187">
        <ele>343</ele>
        <time>2026-08-29T12:26:48Z</time>
      </trkpt>
      <trkpt lat="50.817100899294019" lon="13.141596056520939">
        <ele>343</ele>
        <time>2026-08-29T12:26:49Z</time>
      </trkpt>
      <trkpt lat="50.817095199599862" lon="13.141583567485213">
        <ele>343</ele>
        <time>2026-08-29T12:26:50Z</time>
      </trkpt>
      <trkpt lat="50.81709167920053" lon="13.141567809507251">
        <ele>343</ele>
        <time>2026-08-29T12:26:51Z</time>
      </trkpt>
      <trkpt lat="50.8170863147825" lon="13.141549620777369">
        <ele>343</ele>
        <time>2026-08-29T12:26:52Z</time>
      </trkpt>
      <trkpt lat="50.81707508303225" lon="13.141528414562345">
        <ele>343</ele>
        <time>2026-08-29T12:26:53Z</time>
      </trkpt>
      <trkpt lat="50.817068461328745" lon="13.141508549451828">
        <ele>343</ele>
        <time>2026-08-29T12:26:54Z</time>
      </trkpt>
      <trkpt lat="50.817061252892017" lon="13.141496814787388">
        <ele>343</ele>
        <time>2026-08-29T12:26:55Z</time>
      </trkpt>
      <trkpt lat="50.817054379731417" lon="13.141476027667522">
        <ele>343</ele>
        <time>2026-08-29T12:26:56Z</time>
      </trkpt>
      <trkpt lat="50.817040968686342" lon="13.141443505883217">
        <ele>344</ele>
        <time>2026-08-29T12:26:57Z</time>
      </trkpt>
      <trkpt lat="50.81702915020287" lon="13.141417857259512">
        <ele>344</ele>
        <time>2026-08-29T12:26:58Z</time>
      </trkpt>
      <trkpt lat="50.817017331719398" lon="13.141391538083553">
        <ele>344</ele>
        <time>2026-08-29T12:26:59Z</time>
      </trkpt>
      <trkpt lat="50.817006267607212" lon="13.141359938308597">
        <ele>344</ele>
        <time>2026-08-29T12:27:00Z</time>
      </trkpt>
      <trkpt lat="50.816995790228248" lon="13.141329512000084">
        <ele>345</ele>
        <time>2026-08-29T12:27:01Z</time>
      </trkpt>
      <trkpt lat="50.816989922896028" lon="13.141307886689901">
        <ele>346</ele>
        <time>2026-08-29T12:27:02Z</time>
      </trkpt>
      <trkpt lat="50.816985480487347" lon="13.141287853941321">
        <ele>346</ele>
        <time>2026-08-29T12:27:03Z</time>
      </trkpt>
      <trkpt lat="50.816983049735427" lon="13.141266563907266">
        <ele>346</ele>
        <time>2026-08-29T12:27:04Z</time>
      </trkpt>
      <trkpt lat="50.816986989229918" lon="13.141244435682893">
        <ele>346</ele>
        <time>2026-08-29T12:27:05Z</time>
      </trkpt>
      <trkpt lat="50.816991431638598" lon="13.141220547258854">
        <ele>347</ele>
        <time>2026-08-29T12:27:06Z</time>
      </trkpt>
      <trkpt lat="50.816994868218899" lon="13.141197497025132">
        <ele>347</ele>
        <time>2026-08-29T12:27:07Z</time>
      </trkpt>
      <trkpt lat="50.816993191838264" lon="13.14117687754333">
        <ele>348</ele>
        <time>2026-08-29T12:27:08Z</time>
      </trkpt>
      <trkpt lat="50.816992521286011" lon="13.141153575852513">
        <ele>347</ele>
        <time>2026-08-29T12:27:09Z</time>
      </trkpt>
      <trkpt lat="50.817000987008214" lon="13.141127843409777">
        <ele>347</ele>
        <time>2026-08-29T12:27:10Z</time>
      </trkpt>
      <trkpt lat="50.817013056948781" lon="13.141112755984068">
        <ele>347</ele>
        <time>2026-08-29T12:27:11Z</time>
      </trkpt>
      <trkpt lat="50.817022612318397" lon="13.141091465950012">
        <ele>348</ele>
        <time>2026-08-29T12:27:12Z</time>
      </trkpt>
      <trkpt lat="50.817029820755124" lon="13.141077971085906">
        <ele>348</ele>
        <time>2026-08-29T12:27:13Z</time>
      </trkpt>
      <trkpt lat="50.81703744828701" lon="13.141052909195423">
        <ele>348</ele>
        <time>2026-08-29T12:27:14Z</time>
      </trkpt>
      <trkpt lat="50.817046165466309" lon="13.141031283885241">
        <ele>348</ele>
        <time>2026-08-29T12:27:15Z</time>
      </trkpt>
      <trkpt lat="50.817059660330415" lon="13.141014855355024">
        <ele>348</ele>
        <time>2026-08-29T12:27:16Z</time>
      </trkpt>
      <trkpt lat="50.817076424136758" lon="13.141002282500267">
        <ele>348</ele>
        <time>2026-08-29T12:27:17Z</time>
      </trkpt>
      <trkpt lat="50.81708874553442" lon="13.140980657190084">
        <ele>349</ele>
        <time>2026-08-29T12:27:18Z</time>
      </trkpt>
      <trkpt lat="50.817102240398526" lon="13.140975208953023">
        <ele>348</ele>
        <time>2026-08-29T12:27:19Z</time>
      </trkpt>
      <trkpt lat="50.817118333652616" lon="13.140964899212122">
        <ele>348</ele>
        <time>2026-08-29T12:27:20Z</time>
      </trkpt>
      <trkpt lat="50.817132582888007" lon="13.140950398519635">
        <ele>348</ele>
        <time>2026-08-29T12:27:21Z</time>
      </trkpt>
      <trkpt lat="50.817149011418223" lon="13.140931371599436">
        <ele>349</ele>
        <time>2026-08-29T12:27:22Z</time>
      </trkpt>
      <trkpt lat="50.817166026681662" lon="13.14090077765286">
        <ele>349</ele>
        <time>2026-08-29T12:27:23Z</time>
      </trkpt>
      <trkpt lat="50.817184383049607" lon="13.140870435163379">
        <ele>349</ele>
        <time>2026-08-29T12:27:24Z</time>
      </trkpt>
      <trkpt lat="50.817200057208538" lon="13.14085241407156">
        <ele>349</ele>
        <time>2026-08-29T12:27:25Z</time>
      </trkpt>
      <trkpt lat="50.81721480935812" lon="13.14082701690495">
        <ele>348</ele>
        <time>2026-08-29T12:27:26Z</time>
      </trkpt>
      <trkpt lat="50.817231992259622" lon="13.140806565061212">
        <ele>348</ele>
        <time>2026-08-29T12:27:27Z</time>
      </trkpt>
      <trkpt lat="50.817246409133077" lon="13.140782928094268">
        <ele>348</ele>
        <time>2026-08-29T12:27:28Z</time>
      </trkpt>
      <trkpt lat="50.817260826006532" lon="13.140764236450195">
        <ele>349</ele>
        <time>2026-08-29T12:27:29Z</time>
      </trkpt>
      <trkpt lat="50.817285049706697" lon="13.140754345804453">
        <ele>348</ele>
        <time>2026-08-29T12:27:30Z</time>
      </trkpt>
      <trkpt lat="50.817302400246263" lon="13.140738420188427">
        <ele>349</ele>
        <time>2026-08-29T12:27:31Z</time>
      </trkpt>
      <trkpt lat="50.817321762442589" lon="13.140722159296274">
        <ele>349</ele>
        <time>2026-08-29T12:27:32Z</time>
      </trkpt>
      <trkpt lat="50.81734380684793" lon="13.140704222023487">
        <ele>349</ele>
        <time>2026-08-29T12:27:33Z</time>
      </trkpt>
      <trkpt lat="50.817368533462286" lon="13.140676226466894">
        <ele>349</ele>
        <time>2026-08-29T12:27:34Z</time>
      </trkpt>
      <trkpt lat="50.817394852638245" lon="13.14064965583384">
        <ele>349</ele>
        <time>2026-08-29T12:27:35Z</time>
      </trkpt>
      <trkpt lat="50.817422429099679" lon="13.140624677762389">
        <ele>349</ele>
        <time>2026-08-29T12:27:36Z</time>
      </trkpt>
      <trkpt lat="50.81745034083724" lon="13.140599196776748">
        <ele>350</ele>
        <time>2026-08-29T12:27:37Z</time>
      </trkpt>
      <trkpt lat="50.817470960319042" lon="13.140571787953377">
        <ele>349</ele>
        <time>2026-08-29T12:27:38Z</time>
      </trkpt>
      <trkpt lat="50.817494178190827" lon="13.140538176521659">
        <ele>349</ele>
        <time>2026-08-29T12:27:39Z</time>
      </trkpt>
      <trkpt lat="50.817516976967454" lon="13.140505822375417">
        <ele>349</ele>
        <time>2026-08-29T12:27:40Z</time>
      </trkpt>
      <trkpt lat="50.817535752430558" lon="13.140481431037188">
        <ele>349</ele>
        <time>2026-08-29T12:27:41Z</time>
      </trkpt>
      <trkpt lat="50.817563161253929" lon="13.1404600571841">
        <ele>349</ele>
        <time>2026-08-29T12:27:42Z</time>
      </trkpt>
      <trkpt lat="50.817591156810522" lon="13.140439186245203">
        <ele>350</ele>
        <time>2026-08-29T12:27:43Z</time>
      </trkpt>
      <trkpt lat="50.81762133166194" lon="13.140420913696289">
        <ele>350</ele>
        <time>2026-08-29T12:27:44Z</time>
      </trkpt>
      <trkpt lat="50.817650333046913" lon="13.14039601944387">
        <ele>350</ele>
        <time>2026-08-29T12:27:45Z</time>
      </trkpt>
      <trkpt lat="50.817683357745409" lon="13.140368862077594">
        <ele>349</ele>
        <time>2026-08-29T12:27:46Z</time>
      </trkpt>
      <trkpt lat="50.817717555910349" lon="13.140342961996794">
        <ele>349</ele>
        <time>2026-08-29T12:27:47Z</time>
      </trkpt>
      <trkpt lat="50.817753178998828" lon="13.140310188755393">
        <ele>350</ele>
        <time>2026-08-29T12:27:48Z</time>
      </trkpt>
      <trkpt lat="50.817792238667607" lon="13.140274733304977">
        <ele>350</ele>
        <time>2026-08-29T12:27:49Z</time>
      </trkpt>
      <trkpt lat="50.817823754623532" lon="13.140238774940372">
        <ele>351</ele>
        <time>2026-08-29T12:27:50Z</time>
      </trkpt>
      <trkpt lat="50.817852672189474" lon="13.140206085518003">
        <ele>351</ele>
        <time>2026-08-29T12:27:51Z</time>
      </trkpt>
      <trkpt lat="50.817882511764765" lon="13.140180436894298">
        <ele>351</ele>
        <time>2026-08-29T12:27:52Z</time>
      </trkpt>
      <trkpt lat="50.817914698272943" lon="13.14014682546258">
        <ele>351</ele>
        <time>2026-08-29T12:27:53Z</time>
      </trkpt>
      <trkpt lat="50.817941688001156" lon="13.140117488801479">
        <ele>351</ele>
        <time>2026-08-29T12:27:54Z</time>
      </trkpt>
      <trkpt lat="50.817970354110003" lon="13.140075244009495">
        <ele>352</ele>
        <time>2026-08-29T12:27:55Z</time>
      </trkpt>
      <trkpt lat="50.818001450970769" lon="13.140048002824187">
        <ele>352</ele>
        <time>2026-08-29T12:27:56Z</time>
      </trkpt>
      <trkpt lat="50.818037241697311" lon="13.14001883380115">
        <ele>351</ele>
        <time>2026-08-29T12:27:57Z</time>
      </trkpt>
      <trkpt lat="50.818070350214839" lon="13.139984300360084">
        <ele>350</ele>
        <time>2026-08-29T12:27:58Z</time>
      </trkpt>
      <trkpt lat="50.818103039637208" lon="13.139952952042222">
        <ele>350</ele>
        <time>2026-08-29T12:27:59Z</time>
      </trkpt>
      <trkpt lat="50.818136483430862" lon="13.139923699200153">
        <ele>350</ele>
        <time>2026-08-29T12:28:00Z</time>
      </trkpt>
      <trkpt lat="50.818168167024851" lon="13.139880616217852">
        <ele>351</ele>
        <time>2026-08-29T12:28:01Z</time>
      </trkpt>
      <trkpt lat="50.818204544484615" lon="13.139845160767436">
        <ele>351</ele>
        <time>2026-08-29T12:28:02Z</time>
      </trkpt>
      <trkpt lat="50.818245112895966" lon="13.139817249029875">
        <ele>351</ele>
        <time>2026-08-29T12:28:03Z</time>
      </trkpt>
      <trkpt lat="50.818278389051557" lon="13.139775171875954">
        <ele>351</ele>
        <time>2026-08-29T12:28:04Z</time>
      </trkpt>
      <trkpt lat="50.818312419578433" lon="13.139725048094988">
        <ele>351</ele>
        <time>2026-08-29T12:28:05Z</time>
      </trkpt>
      <trkpt lat="50.81834209151566" lon="13.139694621786475">
        <ele>351</ele>
        <time>2026-08-29T12:28:06Z</time>
      </trkpt>
      <trkpt lat="50.818372098729014" lon="13.139650700613856">
        <ele>351</ele>
        <time>2026-08-29T12:28:07Z</time>
      </trkpt>
      <trkpt lat="50.818399591371417" lon="13.139606360346079">
        <ele>350</ele>
        <time>2026-08-29T12:28:08Z</time>
      </trkpt>
      <trkpt lat="50.818429598584771" lon="13.13956193625927">
        <ele>350</ele>
        <time>2026-08-29T12:28:09Z</time>
      </trkpt>
      <trkpt lat="50.818460108712316" lon="13.139514494687319">
        <ele>350</ele>
        <time>2026-08-29T12:28:10Z</time>
      </trkpt>
      <trkpt lat="50.818491792306304" lon="13.139464119449258">
        <ele>350</ele>
        <time>2026-08-29T12:28:11Z</time>
      </trkpt>
      <trkpt lat="50.818518865853548" lon="13.139417683705688">
        <ele>350</ele>
        <time>2026-08-29T12:28:12Z</time>
      </trkpt>
      <trkpt lat="50.818549795076251" lon="13.139363788068295">
        <ele>350</ele>
        <time>2026-08-29T12:28:13Z</time>
      </trkpt>
      <trkpt lat="50.818573599681258" lon="13.139307042583823">
        <ele>350</ele>
        <time>2026-08-29T12:28:14Z</time>
      </trkpt>
      <trkpt lat="50.818600421771407" lon="13.139250045642257">
        <ele>350</ele>
        <time>2026-08-29T12:28:15Z</time>
      </trkpt>
      <trkpt lat="50.818635290488601" lon="13.139193132519722">
        <ele>351</ele>
        <time>2026-08-29T12:28:16Z</time>
      </trkpt>
      <trkpt lat="50.818665381520987" lon="13.139139991253614">
        <ele>350</ele>
        <time>2026-08-29T12:28:17Z</time>
      </trkpt>
      <trkpt lat="50.81869438290596" lon="13.139085676521063">
        <ele>350</ele>
        <time>2026-08-29T12:28:18Z</time>
      </trkpt>
      <trkpt lat="50.818723635748029" lon="13.139026332646608">
        <ele>350</ele>
        <time>2026-08-29T12:28:19Z</time>
      </trkpt>
      <trkpt lat="50.818749368190765" lon="13.1389697548002">
        <ele>350</ele>
        <time>2026-08-29T12:28:20Z</time>
      </trkpt>
      <trkpt lat="50.818785829469562" lon="13.138916194438934">
        <ele>350</ele>
        <time>2026-08-29T12:28:21Z</time>
      </trkpt>
      <trkpt lat="50.818816339597106" lon="13.138864226639271">
        <ele>350</ele>
        <time>2026-08-29T12:28:22Z</time>
      </trkpt>
      <trkpt lat="50.818849699571729" lon="13.138809157535434">
        <ele>351</ele>
        <time>2026-08-29T12:28:23Z</time>
      </trkpt>
      <trkpt lat="50.81887761130929" lon="13.138756351545453">
        <ele>351</ele>
        <time>2026-08-29T12:28:24Z</time>
      </trkpt>
      <trkpt lat="50.818902840837836" lon="13.138698181137443">
        <ele>351</ele>
        <time>2026-08-29T12:28:25Z</time>
      </trkpt>
      <trkpt lat="50.81893184222281" lon="13.138650991022587">
        <ele>351</ele>
        <time>2026-08-29T12:28:26Z</time>
      </trkpt>
      <trkpt lat="50.818965118378401" lon="13.138598687946796">
        <ele>351</ele>
        <time>2026-08-29T12:28:27Z</time>
      </trkpt>
      <trkpt lat="50.818996550515294" lon="13.138540433719754">
        <ele>351</ele>
        <time>2026-08-29T12:28:28Z</time>
      </trkpt>
      <trkpt lat="50.819026557728648" lon="13.138483855873346">
        <ele>351</ele>
        <time>2026-08-29T12:28:29Z</time>
      </trkpt>
      <trkpt lat="50.8190584089607" lon="13.13841906376183">
        <ele>351</ele>
        <time>2026-08-29T12:28:30Z</time>
      </trkpt>
      <trkpt lat="50.819092188030481" lon="13.138360306620598">
        <ele>351</ele>
        <time>2026-08-29T12:28:31Z</time>
      </trkpt>
      <trkpt lat="50.819117166101933" lon="13.138296101242304">
        <ele>351</ele>
        <time>2026-08-29T12:28:32Z</time>
      </trkpt>
      <trkpt lat="50.819132840260863" lon="13.138238182291389">
        <ele>351</ele>
        <time>2026-08-29T12:28:33Z</time>
      </trkpt>
      <trkpt lat="50.819156225770712" lon="13.138176742941141">
        <ele>351</ele>
        <time>2026-08-29T12:28:34Z</time>
      </trkpt>
      <trkpt lat="50.819183550775051" lon="13.138118321076035">
        <ele>351</ele>
        <time>2026-08-29T12:28:35Z</time>
      </trkpt>
      <trkpt lat="50.819204756990075" lon="13.138054115697742">
        <ele>351</ele>
        <time>2026-08-29T12:28:36Z</time>
      </trkpt>
      <trkpt lat="50.819234177470207" lon="13.137982785701752">
        <ele>350</ele>
        <time>2026-08-29T12:28:37Z</time>
      </trkpt>
      <trkpt lat="50.819257227703929" lon="13.137917323037982">
        <ele>351</ele>
        <time>2026-08-29T12:28:38Z</time>
      </trkpt>
      <trkpt lat="50.819280361756682" lon="13.137861834838986">
        <ele>351</ele>
        <time>2026-08-29T12:28:39Z</time>
      </trkpt>
      <trkpt lat="50.819307938218117" lon="13.137797126546502">
        <ele>351</ele>
        <time>2026-08-29T12:28:40Z</time>
      </trkpt>
      <trkpt lat="50.819333251565695" lon="13.137733843177557">
        <ele>351</ele>
        <time>2026-08-29T12:28:41Z</time>
      </trkpt>
      <trkpt lat="50.819358397275209" lon="13.137673242017627">
        <ele>351</ele>
        <time>2026-08-29T12:28:42Z</time>
      </trkpt>
      <trkpt lat="50.81938236951828" lon="13.137600403279066">
        <ele>350</ele>
        <time>2026-08-29T12:28:43Z</time>
      </trkpt>
      <trkpt lat="50.819407682865858" lon="13.13754390925169">
        <ele>351</ele>
        <time>2026-08-29T12:28:44Z</time>
      </trkpt>
      <trkpt lat="50.819435175508261" lon="13.137470651417971">
        <ele>350</ele>
        <time>2026-08-29T12:28:45Z</time>
      </trkpt>
      <trkpt lat="50.81946057267487" lon="13.137397896498442">
        <ele>350</ele>
        <time>2026-08-29T12:28:46Z</time>
      </trkpt>
      <trkpt lat="50.81948596984148" lon="13.13733528368175">
        <ele>351</ele>
        <time>2026-08-29T12:28:47Z</time>
      </trkpt>
      <trkpt lat="50.81951673142612" lon="13.137278454378247">
        <ele>351</ele>
        <time>2026-08-29T12:28:48Z</time>
      </trkpt>
      <trkpt lat="50.819551600143313" lon="13.137227240949869">
        <ele>351</ele>
        <time>2026-08-29T12:28:49Z</time>
      </trkpt>
      <trkpt lat="50.819576578214765" lon="13.137175105512142">
        <ele>351</ele>
        <time>2026-08-29T12:28:50Z</time>
      </trkpt>
      <trkpt lat="50.819604992866516" lon="13.13713051378727">
        <ele>351</ele>
        <time>2026-08-29T12:28:51Z</time>
      </trkpt>
      <trkpt lat="50.819633910432458" lon="13.137080390006304">
        <ele>352</ele>
        <time>2026-08-29T12:28:52Z</time>
      </trkpt>
      <trkpt lat="50.819661738350987" lon="13.137020543217659">
        <ele>352</ele>
        <time>2026-08-29T12:28:53Z</time>
      </trkpt>
      <trkpt lat="50.819688057526946" lon="13.136968659237027">
        <ele>352</ele>
        <time>2026-08-29T12:28:54Z</time>
      </trkpt>
      <trkpt lat="50.819715298712254" lon="13.136922894045711">
        <ele>352</ele>
        <time>2026-08-29T12:28:55Z</time>
      </trkpt>
      <trkpt lat="50.81974589265883" lon="13.136875201016665">
        <ele>351</ele>
        <time>2026-08-29T12:28:56Z</time>
      </trkpt>
      <trkpt lat="50.819785874336958" lon="13.136849217116833">
        <ele>351</ele>
        <time>2026-08-29T12:28:57Z</time>
      </trkpt>
      <trkpt lat="50.819827616214752" lon="13.136850893497467">
        <ele>351</ele>
        <time>2026-08-29T12:28:58Z</time>
      </trkpt>
      <trkpt lat="50.819865250959992" lon="13.136888444423676">
        <ele>351</ele>
        <time>2026-08-29T12:28:59Z</time>
      </trkpt>
      <trkpt lat="50.819902131333947" lon="13.136944016441703">
        <ele>351</ele>
        <time>2026-08-29T12:29:00Z</time>
      </trkpt>
      <trkpt lat="50.819932641461492" lon="13.137012915685773">
        <ele>351</ele>
        <time>2026-08-29T12:29:01Z</time>
      </trkpt>
      <trkpt lat="50.819963570684195" lon="13.137073768302798">
        <ele>351</ele>
        <time>2026-08-29T12:29:02Z</time>
      </trkpt>
      <trkpt lat="50.819998607039452" lon="13.137126825749874">
        <ele>351</ele>
        <time>2026-08-29T12:29:03Z</time>
      </trkpt>
      <trkpt lat="50.82003272138536" lon="13.137178793549538">
        <ele>350</ele>
        <time>2026-08-29T12:29:04Z</time>
      </trkpt>
      <trkpt lat="50.820068176835775" lon="13.137236796319485">
        <ele>350</ele>
        <time>2026-08-29T12:29:05Z</time>
      </trkpt>
      <trkpt lat="50.820090053603053" lon="13.137293960899115">
        <ele>350</ele>
        <time>2026-08-29T12:29:06Z</time>
      </trkpt>
      <trkpt lat="50.820109751075506" lon="13.137356070801616">
        <ele>350</ele>
        <time>2026-08-29T12:29:07Z</time>
      </trkpt>
      <trkpt lat="50.820121988654137" lon="13.137411726638675">
        <ele>349</ele>
        <time>2026-08-29T12:29:08Z</time>
      </trkpt>
      <trkpt lat="50.820138417184353" lon="13.13746377825737">
        <ele>349</ele>
        <time>2026-08-29T12:29:09Z</time>
      </trkpt>
      <trkpt lat="50.820151912048459" lon="13.137521110475063">
        <ele>349</ele>
        <time>2026-08-29T12:29:10Z</time>
      </trkpt>
      <trkpt lat="50.820171693339944" lon="13.137576011940837">
        <ele>348</ele>
        <time>2026-08-29T12:29:11Z</time>
      </trkpt>
      <trkpt lat="50.820189211517572" lon="13.137643234804273">
        <ele>347</ele>
        <time>2026-08-29T12:29:12Z</time>
      </trkpt>
      <trkpt lat="50.820207316428423" lon="13.137724120169878">
        <ele>347</ele>
        <time>2026-08-29T12:29:13Z</time>
      </trkpt>
      <trkpt lat="50.820233132690191" lon="13.137810118496418">
        <ele>346</ele>
        <time>2026-08-29T12:29:14Z</time>
      </trkpt>
      <trkpt lat="50.820262301713228" lon="13.137894105166197">
        <ele>346</ele>
        <time>2026-08-29T12:29:15Z</time>
      </trkpt>
      <trkpt lat="50.820289710536599" lon="13.137971386313438">
        <ele>346</ele>
        <time>2026-08-29T12:29:16Z</time>
      </trkpt>
      <trkpt lat="50.82031762227416" lon="13.138049589470029">
        <ele>346</ele>
        <time>2026-08-29T12:29:17Z</time>
      </trkpt>
      <trkpt lat="50.820342935621738" lon="13.138133324682713">
        <ele>345</ele>
        <time>2026-08-29T12:29:18Z</time>
      </trkpt>
      <trkpt lat="50.820368248969316" lon="13.138221837580204">
        <ele>345</ele>
        <time>2026-08-29T12:29:19Z</time>
      </trkpt>
      <trkpt lat="50.820405296981335" lon="13.138307752087712">
        <ele>345</ele>
        <time>2026-08-29T12:29:20Z</time>
      </trkpt>
      <trkpt lat="50.820439159870148" lon="13.138388637453318">
        <ele>345</ele>
        <time>2026-08-29T12:29:21Z</time>
      </trkpt>
      <trkpt lat="50.820478387176991" lon="13.138470109552145">
        <ele>344</ele>
        <time>2026-08-29T12:29:22Z</time>
      </trkpt>
      <trkpt lat="50.820512501522899" lon="13.138534650206566">
        <ele>344</ele>
        <time>2026-08-29T12:29:23Z</time>
      </trkpt>
      <trkpt lat="50.820552231743932" lon="13.138603800907731">
        <ele>344</ele>
        <time>2026-08-29T12:29:24Z</time>
      </trkpt>
      <trkpt lat="50.820587100461125" lon="13.138666329905391">
        <ele>344</ele>
        <time>2026-08-29T12:29:25Z</time>
      </trkpt>
      <trkpt lat="50.820615347474813" lon="13.138718297705054">
        <ele>343</ele>
        <time>2026-08-29T12:29:26Z</time>
      </trkpt>
      <trkpt lat="50.82064057700336" lon="13.138758530840278">
        <ele>343</ele>
        <time>2026-08-29T12:29:27Z</time>
      </trkpt>
      <trkpt lat="50.820675529539585" lon="13.138804212212563">
        <ele>343</ele>
        <time>2026-08-29T12:29:28Z</time>
      </trkpt>
      <trkpt lat="50.82069774158299" lon="13.138850815594196">
        <ele>343</ele>
        <time>2026-08-29T12:29:29Z</time>
      </trkpt>
      <trkpt lat="50.820719283074141" lon="13.138896832242608">
        <ele>343</ele>
        <time>2026-08-29T12:29:30Z</time>
      </trkpt>
      <trkpt lat="50.820744344964623" lon="13.138942681252956">
        <ele>343</ele>
        <time>2026-08-29T12:29:31Z</time>
      </trkpt>
      <trkpt lat="50.820762868970633" lon="13.138994565233588">
        <ele>342</ele>
        <time>2026-08-29T12:29:32Z</time>
      </trkpt>
      <trkpt lat="50.820787092670798" lon="13.139040414243937">
        <ele>342</ele>
        <time>2026-08-29T12:29:33Z</time>
      </trkpt>
      <trkpt lat="50.82080720923841" lon="13.139081569388509">
        <ele>342</ele>
        <time>2026-08-29T12:29:34Z</time>
      </trkpt>
      <trkpt lat="50.820830930024385" lon="13.139124484732747">
        <ele>342</ele>
        <time>2026-08-29T12:29:35Z</time>
      </trkpt>
      <trkpt lat="50.82086093723774" lon="13.139185169711709">
        <ele>342</ele>
        <time>2026-08-29T12:29:36Z</time>
      </trkpt>
      <trkpt lat="50.820893039926887" lon="13.139236802235246">
        <ele>342</ele>
        <time>2026-08-29T12:29:37Z</time>
      </trkpt>
      <trkpt lat="50.820912066847086" lon="13.139275275170803">
        <ele>341</ele>
        <time>2026-08-29T12:29:38Z</time>
      </trkpt>
      <trkpt lat="50.820935619994998" lon="13.139328248798847">
        <ele>341</ele>
        <time>2026-08-29T12:29:39Z</time>
      </trkpt>
      <trkpt lat="50.820965208113194" lon="13.139384156093001">
        <ele>341</ele>
        <time>2026-08-29T12:29:40Z</time>
      </trkpt>
      <trkpt lat="50.820984654128551" lon="13.139436040073633">
        <ele>341</ele>
        <time>2026-08-29T12:29:41Z</time>
      </trkpt>
      <trkpt lat="50.821003010496497" lon="13.139477614313364">
        <ele>341</ele>
        <time>2026-08-29T12:29:42Z</time>
      </trkpt>
      <trkpt lat="50.821034358814359" lon="13.139501335099339">
        <ele>340</ele>
        <time>2026-08-29T12:29:43Z</time>
      </trkpt>
      <trkpt lat="50.82105883397162" lon="13.139503011479974">
        <ele>340</ele>
        <time>2026-08-29T12:29:44Z</time>
      </trkpt>
      <trkpt lat="50.821084817871451" lon="13.139490354806185">
        <ele>340</ele>
        <time>2026-08-29T12:29:45Z</time>
      </trkpt>
      <trkpt lat="50.821103090420365" lon="13.139470908790827">
        <ele>341</ele>
        <time>2026-08-29T12:29:46Z</time>
      </trkpt>
      <trkpt lat="50.821121698245406" lon="13.139458168298006">
        <ele>341</ele>
        <time>2026-08-29T12:29:47Z</time>
      </trkpt>
      <trkpt lat="50.821142820641398" lon="13.139433860778809">
        <ele>341</ele>
        <time>2026-08-29T12:29:48Z</time>
      </trkpt>
      <trkpt lat="50.821163859218359" lon="13.1394187733531">
        <ele>341</ele>
        <time>2026-08-29T12:29:49Z</time>
      </trkpt>
      <trkpt lat="50.821184478700161" lon="13.139398321509361">
        <ele>341</ele>
        <time>2026-08-29T12:29:50Z</time>
      </trkpt>
      <trkpt lat="50.82120593637228" lon="13.139380551874638">
        <ele>342</ele>
        <time>2026-08-29T12:29:51Z</time>
      </trkpt>
      <trkpt lat="50.821228232234716" lon="13.139367140829563">
        <ele>342</ele>
        <time>2026-08-29T12:29:52Z</time>
      </trkpt>
      <trkpt lat="50.821252707391977" lon="13.13935381360352">
        <ele>342</ele>
        <time>2026-08-29T12:29:53Z</time>
      </trkpt>
      <trkpt lat="50.821272740140557" lon="13.139339815825224">
        <ele>342</ele>
        <time>2026-08-29T12:29:54Z</time>
      </trkpt>
      <trkpt lat="50.821294533088803" lon="13.139324057847261">
        <ele>342</ele>
        <time>2026-08-29T12:29:55Z</time>
      </trkpt>
      <trkpt lat="50.821313811466098" lon="13.139310479164124">
        <ele>342</ele>
        <time>2026-08-29T12:29:56Z</time>
      </trkpt>
      <trkpt lat="50.821333844214678" lon="13.139299247413874">
        <ele>343</ele>
        <time>2026-08-29T12:29:57Z</time>
      </trkpt>
      <trkpt lat="50.821356056258082" lon="13.139285752549767">
        <ele>343</ele>
        <time>2026-08-29T12:29:58Z</time>
      </trkpt>
      <trkpt lat="50.821376843377948" lon="13.139271335676312">
        <ele>343</ele>
        <time>2026-08-29T12:29:59Z</time>
      </trkpt>
      <trkpt lat="50.821394613012671" lon="13.139250800013542">
        <ele>343</ele>
        <time>2026-08-29T12:30:00Z</time>
      </trkpt>
      <trkpt lat="50.82141162827611" lon="13.139230767264962">
        <ele>344</ele>
        <time>2026-08-29T12:30:01Z</time>
      </trkpt>
      <trkpt lat="50.821431577205658" lon="13.139218529686332">
        <ele>344</ele>
        <time>2026-08-29T12:30:02Z</time>
      </trkpt>
      <trkpt lat="50.821447754278779" lon="13.139204615727067">
        <ele>344</ele>
        <time>2026-08-29T12:30:03Z</time>
      </trkpt>
      <trkpt lat="50.821464266628027" lon="13.139182822778821">
        <ele>345</ele>
        <time>2026-08-29T12:30:04Z</time>
      </trkpt>
      <trkpt lat="50.821482371538877" lon="13.139170249924064">
        <ele>345</ele>
        <time>2026-08-29T12:30:05Z</time>
      </trkpt>
      <trkpt lat="50.82149226218462" lon="13.139155665412545">
        <ele>345</ele>
        <time>2026-08-29T12:30:06Z</time>
      </trkpt>
      <trkpt lat="50.821505421772599" lon="13.139140494167805">
        <ele>345</ele>
        <time>2026-08-29T12:30:07Z</time>
      </trkpt>
      <trkpt lat="50.821525119245052" lon="13.139130938798189">
        <ele>345</ele>
        <time>2026-08-29T12:30:08Z</time>
      </trkpt>
      <trkpt lat="50.82154112868011" lon="13.139116521924734">
        <ele>346</ele>
        <time>2026-08-29T12:30:09Z</time>
      </trkpt>
      <trkpt lat="50.821561748161912" lon="13.139101853594184">
        <ele>345</ele>
        <time>2026-08-29T12:30:10Z</time>
      </trkpt>
      <trkpt lat="50.821578344330192" lon="13.139092717319727">
        <ele>346</ele>
        <time>2026-08-29T12:30:11Z</time>
      </trkpt>
      <trkpt lat="50.821597622707486" lon="13.139084586873651">
        <ele>346</ele>
        <time>2026-08-29T12:30:12Z</time>
      </trkpt>
      <trkpt lat="50.821616062894464" lon="13.139079893007874">
        <ele>347</ele>
        <time>2026-08-29T12:30:13Z</time>
      </trkpt>
      <trkpt lat="50.821628719568253" lon="13.139071175828576">
        <ele>347</ele>
        <time>2026-08-29T12:30:14Z</time>
      </trkpt>
      <trkpt lat="50.821644561365247" lon="13.139061033725739">
        <ele>347</ele>
        <time>2026-08-29T12:30:15Z</time>
      </trkpt>
      <trkpt lat="50.821662079542875" lon="13.139050388708711">
        <ele>348</ele>
        <time>2026-08-29T12:30:16Z</time>
      </trkpt>
      <trkpt lat="50.821674400940537" lon="13.139045778661966">
        <ele>347</ele>
        <time>2026-08-29T12:30:17Z</time>
      </trkpt>
      <trkpt lat="50.821683034300804" lon="13.139033624902368">
        <ele>347</ele>
        <time>2026-08-29T12:30:18Z</time>
      </trkpt>
      <trkpt lat="50.821698876097798" lon="13.139022057875991">
        <ele>348</ele>
        <time>2026-08-29T12:30:19Z</time>
      </trkpt>
      <trkpt lat="50.821716310456395" lon="13.139005964621902">
        <ele>348</ele>
        <time>2026-08-29T12:30:20Z</time>
      </trkpt>
      <trkpt lat="50.82173558883369" lon="13.138995487242937">
        <ele>348</ele>
        <time>2026-08-29T12:30:21Z</time>
      </trkpt>
      <trkpt lat="50.821758219972253" lon="13.138982830569148">
        <ele>349</ele>
        <time>2026-08-29T12:30:22Z</time>
      </trkpt>
      <trkpt lat="50.82177666015923" lon="13.138965480029583">
        <ele>349</ele>
        <time>2026-08-29T12:30:23Z</time>
      </trkpt>
      <trkpt lat="50.82179426215589" lon="13.138948800042272">
        <ele>349</ele>
        <time>2026-08-29T12:30:24Z</time>
      </trkpt>
      <trkpt lat="50.821807840839028" lon="13.138926504179835">
        <ele>349</ele>
        <time>2026-08-29T12:30:25Z</time>
      </trkpt>
      <trkpt lat="50.821825442835689" lon="13.138908986002207">
        <ele>349</ele>
        <time>2026-08-29T12:30:26Z</time>
      </trkpt>
      <trkpt lat="50.821843212470412" lon="13.138885265216231">
        <ele>349</ele>
        <time>2026-08-29T12:30:27Z</time>
      </trkpt>
      <trkpt lat="50.821855450049043" lon="13.138864142820239">
        <ele>349</ele>
        <time>2026-08-29T12:30:28Z</time>
      </trkpt>
      <trkpt lat="50.821871627122164" lon="13.138836482539773">
        <ele>349</ele>
        <time>2026-08-29T12:30:29Z</time>
      </trkpt>
      <trkpt lat="50.821891240775585" lon="13.138802368193865">
        <ele>348</ele>
        <time>2026-08-29T12:30:30Z</time>
      </trkpt>
      <trkpt lat="50.821911189705133" lon="13.138767834752798">
        <ele>348</ele>
        <time>2026-08-29T12:30:31Z</time>
      </trkpt>
      <trkpt lat="50.821936838328838" lon="13.13872785307467">
        <ele>348</ele>
        <time>2026-08-29T12:30:32Z</time>
      </trkpt>
      <trkpt lat="50.821963828057051" lon="13.138693235814571">
        <ele>348</ele>
        <time>2026-08-29T12:30:33Z</time>
      </trkpt>
      <trkpt lat="50.821989057585597" lon="13.138654679059982">
        <ele>348</ele>
        <time>2026-08-29T12:30:34Z</time>
      </trkpt>
      <trkpt lat="50.822010012343526" lon="13.13860815949738">
        <ele>348</ele>
        <time>2026-08-29T12:30:35Z</time>
      </trkpt>
      <trkpt lat="50.822026859968901" lon="13.138543283566833">
        <ele>347</ele>
        <time>2026-08-29T12:30:36Z</time>
      </trkpt>
      <trkpt lat="50.82205519080162" lon="13.138482514768839">
        <ele>348</ele>
        <time>2026-08-29T12:30:37Z</time>
      </trkpt>
      <trkpt lat="50.822081007063389" lon="13.138419231399894">
        <ele>348</ele>
        <time>2026-08-29T12:30:38Z</time>
      </trkpt>
      <trkpt lat="50.822108248248696" lon="13.138355445116758">
        <ele>347</ele>
        <time>2026-08-29T12:30:39Z</time>
      </trkpt>
      <trkpt lat="50.822131969034672" lon="13.138296520337462">
        <ele>347</ele>
        <time>2026-08-29T12:30:40Z</time>
      </trkpt>
      <trkpt lat="50.82214361988008" lon="13.138276403769851">
        <ele>347</ele>
        <time>2026-08-29T12:30:41Z</time>
      </trkpt>
      <trkpt lat="50.822151582688093" lon="13.138259975239635">
        <ele>346</ele>
        <time>2026-08-29T12:30:42Z</time>
      </trkpt>
      <trkpt lat="50.822148900479078" lon="13.138256035745144">
        <ele>346</ele>
        <time>2026-08-29T12:30:43Z</time>
      </trkpt>
      <trkpt lat="50.822148649021983" lon="13.138255449011922">
        <ele>346</ele>
        <time>2026-08-29T12:30:44Z</time>
      </trkpt>
      <trkpt lat="50.822147727012634" lon="13.13824949786067">
        <ele>347</ele>
        <time>2026-08-29T12:30:45Z</time>
      </trkpt>
      <trkpt lat="50.822150493040681" lon="13.138242205604911">
        <ele>347</ele>
        <time>2026-08-29T12:30:46Z</time>
      </trkpt>
      <trkpt lat="50.822151582688093" lon="13.138236170634627">
        <ele>347</ele>
        <time>2026-08-29T12:30:47Z</time>
      </trkpt>
      <trkpt lat="50.822151666507125" lon="13.138236170634627">
        <ele>347</ele>
        <time>2026-08-29T12:30:48Z</time>
      </trkpt>
      <trkpt lat="50.822151582688093" lon="13.1382358353585">
        <ele>347</ele>
        <time>2026-08-29T12:30:49Z</time>
      </trkpt>
      <trkpt lat="50.822150493040681" lon="13.138240529224277">
        <ele>347</ele>
        <time>2026-08-29T12:30:50Z</time>
      </trkpt>
      <trkpt lat="50.82215191796422" lon="13.138229716569185">
        <ele>347</ele>
        <time>2026-08-29T12:30:51Z</time>
      </trkpt>
      <trkpt lat="50.822158623486757" lon="13.138204654678702">
        <ele>347</ele>
        <time>2026-08-29T12:30:52Z</time>
      </trkpt>
      <trkpt lat="50.822173291817307" lon="13.138168528676033">
        <ele>347</ele>
        <time>2026-08-29T12:30:53Z</time>
      </trkpt>
      <trkpt lat="50.822190390899777" lon="13.138122512027621">
        <ele>347</ele>
        <time>2026-08-29T12:30:54Z</time>
      </trkpt>
      <trkpt lat="50.822211848571897" lon="13.138067862018943">
        <ele>347</ele>
        <time>2026-08-29T12:30:55Z</time>
      </trkpt>
      <trkpt lat="50.822232635691762" lon="13.138012206181884">
        <ele>347</ele>
        <time>2026-08-29T12:30:56Z</time>
      </trkpt>
      <trkpt lat="50.822264151647687" lon="13.137949258089066">
        <ele>347</ele>
        <time>2026-08-29T12:30:57Z</time>
      </trkpt>
      <trkpt lat="50.822302037850022" lon="13.13788790255785">
        <ele>347</ele>
        <time>2026-08-29T12:30:58Z</time>
      </trkpt>
      <trkpt lat="50.822331039234996" lon="13.137838784605265">
        <ele>347</ele>
        <time>2026-08-29T12:30:59Z</time>
      </trkpt>
      <trkpt lat="50.822363058105111" lon="13.137792516499758">
        <ele>347</ele>
        <time>2026-08-29T12:31:00Z</time>
      </trkpt>
      <trkpt lat="50.8223981782794" lon="13.137737279757857">
        <ele>347</ele>
        <time>2026-08-29T12:31:01Z</time>
      </trkpt>
      <trkpt lat="50.822435142472386" lon="13.137689083814621">
        <ele>347</ele>
        <time>2026-08-29T12:31:02Z</time>
      </trkpt>
      <trkpt lat="50.822472190484405" lon="13.137631416320801">
        <ele>347</ele>
        <time>2026-08-29T12:31:03Z</time>
      </trkpt>
      <trkpt lat="50.822505047544837" lon="13.137584310024977">
        <ele>347</ele>
        <time>2026-08-29T12:31:04Z</time>
      </trkpt>
      <trkpt lat="50.822541676461697" lon="13.137526139616966">
        <ele>347</ele>
        <time>2026-08-29T12:31:05Z</time>
      </trkpt>
      <trkpt lat="50.8225760422647" lon="13.137471824884415">
        <ele>347</ele>
        <time>2026-08-29T12:31:06Z</time>
      </trkpt>
      <trkpt lat="50.82261267118156" lon="13.137422958388925">
        <ele>347</ele>
        <time>2026-08-29T12:31:07Z</time>
      </trkpt>
      <trkpt lat="50.822647539898753" lon="13.137365626171231">
        <ele>347</ele>
        <time>2026-08-29T12:31:08Z</time>
      </trkpt>
      <trkpt lat="50.822690958157182" lon="13.137320699170232">
        <ele>347</ele>
        <time>2026-08-29T12:31:09Z</time>
      </trkpt>
      <trkpt lat="50.822733538225293" lon="13.137280968949199">
        <ele>346</ele>
        <time>2026-08-29T12:31:10Z</time>
      </trkpt>
      <trkpt lat="50.822774190455675" lon="13.137240735813975">
        <ele>346</ele>
        <time>2026-08-29T12:31:11Z</time>
      </trkpt>
      <trkpt lat="50.822817776352167" lon="13.137202933430672">
        <ele>346</ele>
        <time>2026-08-29T12:31:12Z</time>
      </trkpt>
      <trkpt lat="50.822855578735471" lon="13.137165550142527">
        <ele>346</ele>
        <time>2026-08-29T12:31:13Z</time>
      </trkpt>
      <trkpt lat="50.822893129661679" lon="13.137131100520492">
        <ele>346</ele>
        <time>2026-08-29T12:31:14Z</time>
      </trkpt>
      <trkpt lat="50.822927914559841" lon="13.137104194611311">
        <ele>347</ele>
        <time>2026-08-29T12:31:15Z</time>
      </trkpt>
      <trkpt lat="50.822969069704413" lon="13.137078797444701">
        <ele>347</ele>
        <time>2026-08-29T12:31:16Z</time>
      </trkpt>
      <trkpt lat="50.8230025973171" lon="13.137056501582265">
        <ele>347</ele>
        <time>2026-08-29T12:31:17Z</time>
      </trkpt>
      <trkpt lat="50.823038388043642" lon="13.137044599279761">
        <ele>347</ele>
        <time>2026-08-29T12:31:18Z</time>
      </trkpt>
      <trkpt lat="50.823075938969851" lon="13.137038731947541">
        <ele>348</ele>
        <time>2026-08-29T12:31:19Z</time>
      </trkpt>
      <trkpt lat="50.823113992810249" lon="13.137022387236357">
        <ele>348</ele>
        <time>2026-08-29T12:31:20Z</time>
      </trkpt>
      <trkpt lat="50.823148777708411" lon="13.137008305639029">
        <ele>348</ele>
        <time>2026-08-29T12:31:21Z</time>
      </trkpt>
      <trkpt lat="50.823183059692383" lon="13.137003360316157">
        <ele>349</ele>
        <time>2026-08-29T12:31:22Z</time>
      </trkpt>
      <trkpt lat="50.823216419667006" lon="13.137012999504805">
        <ele>349</ele>
        <time>2026-08-29T12:31:23Z</time>
      </trkpt>
      <trkpt lat="50.823252629488707" lon="13.137021381407976">
        <ele>350</ele>
        <time>2026-08-29T12:31:24Z</time>
      </trkpt>
      <trkpt lat="50.823274590075016" lon="13.137020543217659">
        <ele>350</ele>
        <time>2026-08-29T12:31:25Z</time>
      </trkpt>
      <trkpt lat="50.823298310860991" lon="13.137021046131849">
        <ele>350</ele>
        <time>2026-08-29T12:31:26Z</time>
      </trkpt>
      <trkpt lat="50.823311973363161" lon="13.137023644521832">
        <ele>350</ele>
        <time>2026-08-29T12:31:27Z</time>
      </trkpt>
      <trkpt lat="50.823325300589204" lon="13.137037977576256">
        <ele>350</ele>
        <time>2026-08-29T12:31:28Z</time>
      </trkpt>
      <trkpt lat="50.823339633643627" lon="13.137046862393618">
        <ele>351</ele>
        <time>2026-08-29T12:31:29Z</time>
      </trkpt>
      <trkpt lat="50.823351787403226" lon="13.137045269832015">
        <ele>351</ele>
        <time>2026-08-29T12:31:30Z</time>
      </trkpt>
      <trkpt lat="50.823361007496715" lon="13.137037893757224">
        <ele>351</ele>
        <time>2026-08-29T12:31:31Z</time>
      </trkpt>
      <trkpt lat="50.823368551209569" lon="13.137021716684103">
        <ele>351</ele>
        <time>2026-08-29T12:31:32Z</time>
      </trkpt>
      <trkpt lat="50.823376178741455" lon="13.136997828260064">
        <ele>351</ele>
        <time>2026-08-29T12:31:33Z</time>
      </trkpt>
      <trkpt lat="50.823380537331104" lon="13.136968156322837">
        <ele>351</ele>
        <time>2026-08-29T12:31:34Z</time>
      </trkpt>
      <trkpt lat="50.823388667777181" lon="13.136939154937863">
        <ele>351</ele>
        <time>2026-08-29T12:31:35Z</time>
      </trkpt>
      <trkpt lat="50.823399899527431" lon="13.136906884610653">
        <ele>351</ele>
        <time>2026-08-29T12:31:36Z</time>
      </trkpt>
      <trkpt lat="50.823414735496044" lon="13.136883163824677">
        <ele>351</ele>
        <time>2026-08-29T12:31:37Z</time>
      </trkpt>
      <trkpt lat="50.823428649455309" lon="13.136862376704812">
        <ele>351</ele>
        <time>2026-08-29T12:31:38Z</time>
      </trkpt>
      <trkpt lat="50.823441473767161" lon="13.136842008680105">
        <ele>351</ele>
        <time>2026-08-29T12:31:39Z</time>
      </trkpt>
      <trkpt lat="50.82345413044095" lon="13.13682172447443">
        <ele>352</ele>
        <time>2026-08-29T12:31:40Z</time>
      </trkpt>
      <trkpt lat="50.823466619476676" lon="13.136809738352895">
        <ele>352</ele>
        <time>2026-08-29T12:31:41Z</time>
      </trkpt>
      <trkpt lat="50.823476761579514" lon="13.136800937354565">
        <ele>352</ele>
        <time>2026-08-29T12:31:42Z</time>
      </trkpt>
      <trkpt lat="50.823481790721416" lon="13.136790795251727">
        <ele>352</ele>
        <time>2026-08-29T12:31:43Z</time>
      </trkpt>
      <trkpt lat="50.823486568406224" lon="13.136771013960242">
        <ele>353</ele>
        <time>2026-08-29T12:31:44Z</time>
      </trkpt>
      <trkpt lat="50.823491513729095" lon="13.136760788038373">
        <ele>353</ele>
        <time>2026-08-29T12:31:45Z</time>
      </trkpt>
      <trkpt lat="50.823493357747793" lon="13.136764643713832">
        <ele>353</ele>
        <time>2026-08-29T12:31:46Z</time>
      </trkpt>
      <trkpt lat="50.823483718559146" lon="13.136774953454733">
        <ele>353</ele>
        <time>2026-08-29T12:31:47Z</time>
      </trkpt>
      <trkpt lat="50.823483550921082" lon="13.136774282902479">
        <ele>353</ele>
        <time>2026-08-29T12:31:48Z</time>
      </trkpt>
      <trkpt lat="50.823483970016241" lon="13.136774534359574">
        <ele>353</ele>
        <time>2026-08-29T12:31:49Z</time>
      </trkpt>
      <trkpt lat="50.823483970016241" lon="13.136774618178606">
        <ele>353</ele>
        <time>2026-08-29T12:31:50Z</time>
      </trkpt>
      <trkpt lat="50.823483970016241" lon="13.136774366721511">
        <ele>353</ele>
        <time>2026-08-29T12:31:51Z</time>
      </trkpt>
      <trkpt lat="50.823483970016241" lon="13.136774199083447">
        <ele>353</ele>
        <time>2026-08-29T12:31:52Z</time>
      </trkpt>
      <trkpt lat="50.823484221473336" lon="13.136773947626352">
        <ele>353</ele>
        <time>2026-08-29T12:31:53Z</time>
      </trkpt>
      <trkpt lat="50.8234843891114" lon="13.136774031445384">
        <ele>353</ele>
        <time>2026-08-29T12:31:54Z</time>
      </trkpt>
      <trkpt lat="50.823484472930431" lon="13.136773863807321">
        <ele>353</ele>
        <time>2026-08-29T12:31:55Z</time>
      </trkpt>
      <trkpt lat="50.823484640568495" lon="13.136773863807321">
        <ele>353</ele>
        <time>2026-08-29T12:31:56Z</time>
      </trkpt>
      <trkpt lat="50.823484640568495" lon="13.136773947626352">
        <ele>353</ele>
        <time>2026-08-29T12:31:57Z</time>
      </trkpt>
      <trkpt lat="50.823484640568495" lon="13.136774199083447">
        <ele>353</ele>
        <time>2026-08-29T12:31:58Z</time>
      </trkpt>
      <trkpt lat="50.823484808206558" lon="13.136774450540543">
        <ele>353</ele>
        <time>2026-08-29T12:31:59Z</time>
      </trkpt>
      <trkpt lat="50.823484975844622" lon="13.136774785816669">
        <ele>353</ele>
        <time>2026-08-29T12:32:00Z</time>
      </trkpt>
      <trkpt lat="50.823485059663653" lon="13.136774618178606">
        <ele>353</ele>
        <time>2026-08-29T12:32:01Z</time>
      </trkpt>
      <trkpt lat="50.823485227301717" lon="13.136774785816669">
        <ele>353</ele>
        <time>2026-08-29T12:32:02Z</time>
      </trkpt>
      <trkpt lat="50.82348539493978" lon="13.136774869635701">
        <ele>353</ele>
        <time>2026-08-29T12:32:03Z</time>
      </trkpt>
      <trkpt lat="50.823485562577844" lon="13.136774785816669">
        <ele>353</ele>
        <time>2026-08-29T12:32:04Z</time>
      </trkpt>
      <trkpt lat="50.823485646396875" lon="13.136774785816669">
        <ele>353</ele>
        <time>2026-08-29T12:32:05Z</time>
      </trkpt>
      <trkpt lat="50.823485814034939" lon="13.136774953454733">
        <ele>353</ele>
        <time>2026-08-29T12:32:06Z</time>
      </trkpt>
      <trkpt lat="50.823485897853971" lon="13.136774953454733">
        <ele>353</ele>
        <time>2026-08-29T12:32:07Z</time>
      </trkpt>
      <trkpt lat="50.823485981673002" lon="13.136774953454733">
        <ele>353</ele>
        <time>2026-08-29T12:32:08Z</time>
      </trkpt>
      <trkpt lat="50.823485981673002" lon="13.136774701997638">
        <ele>353</ele>
        <time>2026-08-29T12:32:09Z</time>
      </trkpt>
      <trkpt lat="50.823486149311066" lon="13.136774450540543">
        <ele>353</ele>
        <time>2026-08-29T12:32:10Z</time>
      </trkpt>
      <trkpt lat="50.823493357747793" lon="13.136771516874433">
        <ele>354</ele>
        <time>2026-08-29T12:32:11Z</time>
      </trkpt>
      <trkpt lat="50.823495117947459" lon="13.136777635663748">
        <ele>354</ele>
        <time>2026-08-29T12:32:12Z</time>
      </trkpt>
      <trkpt lat="50.823489250615239" lon="13.136787610128522">
        <ele>353</ele>
        <time>2026-08-29T12:32:13Z</time>
      </trkpt>
      <trkpt lat="50.823488496243954" lon="13.136785011738539">
        <ele>354</ele>
        <time>2026-08-29T12:32:14Z</time>
      </trkpt>
      <trkpt lat="50.823488496243954" lon="13.136783419176936">
        <ele>353</ele>
        <time>2026-08-29T12:32:15Z</time>
      </trkpt>
      <trkpt lat="50.823487909510732" lon="13.136781407520175">
        <ele>353</ele>
        <time>2026-08-29T12:32:16Z</time>
      </trkpt>
      <trkpt lat="50.8234843891114" lon="13.136782832443714">
        <ele>353</ele>
        <time>2026-08-29T12:32:17Z</time>
      </trkpt>
      <trkpt lat="50.823481203988194" lon="13.136776629835367">
        <ele>354</ele>
        <time>2026-08-29T12:32:18Z</time>
      </trkpt>
      <trkpt lat="50.823476677760482" lon="13.136778054758906">
        <ele>355</ele>
        <time>2026-08-29T12:32:19Z</time>
      </trkpt>
      <trkpt lat="50.823481623083353" lon="13.136774869635701">
        <ele>355</ele>
        <time>2026-08-29T12:32:20Z</time>
      </trkpt>
      <trkpt lat="50.823489753529429" lon="13.136773277074099">
        <ele>354</ele>
        <time>2026-08-29T12:32:21Z</time>
      </trkpt>
      <trkpt lat="50.823490340262651" lon="13.136768583208323">
        <ele>354</ele>
        <time>2026-08-29T12:32:22Z</time>
      </trkpt>
      <trkpt lat="50.823486316949129" lon="13.136765733361244">
        <ele>354</ele>
        <time>2026-08-29T12:32:23Z</time>
      </trkpt>
      <trkpt lat="50.823476929217577" lon="13.136769505217671">
        <ele>354</ele>
        <time>2026-08-29T12:32:24Z</time>
      </trkpt>
      <trkpt lat="50.82346729002893" lon="13.136777635663748">
        <ele>354</ele>
        <time>2026-08-29T12:32:25Z</time>
      </trkpt>
      <trkpt lat="50.823456309735775" lon="13.136796578764915">
        <ele>354</ele>
        <time>2026-08-29T12:32:26Z</time>
      </trkpt>
      <trkpt lat="50.823442563414574" lon="13.136825412511826">
        <ele>354</ele>
        <time>2026-08-29T12:32:27Z</time>
      </trkpt>
      <trkpt lat="50.823424961417913" lon="13.136857431381941">
        <ele>354</ele>
        <time>2026-08-29T12:32:28Z</time>
      </trkpt>
      <trkpt lat="50.823402078822255" lon="13.136894982308149">
        <ele>354</ele>
        <time>2026-08-29T12:32:29Z</time>
      </trkpt>
      <trkpt lat="50.82338229753077" lon="13.13694485463202">
        <ele>354</ele>
        <time>2026-08-29T12:32:30Z</time>
      </trkpt>
      <trkpt lat="50.823363019153476" lon="13.136991374194622">
        <ele>355</ele>
        <time>2026-08-29T12:32:31Z</time>
      </trkpt>
      <trkpt lat="50.823341980576515" lon="13.137059770524502">
        <ele>355</ele>
        <time>2026-08-29T12:32:32Z</time>
      </trkpt>
      <trkpt lat="50.823326390236616" lon="13.137116935104132">
        <ele>354</ele>
        <time>2026-08-29T12:32:33Z</time>
      </trkpt>
      <trkpt lat="50.823323372751474" lon="13.137167980894446">
        <ele>354</ele>
        <time>2026-08-29T12:32:34Z</time>
      </trkpt>
      <trkpt lat="50.82333100028336" lon="13.137232940644026">
        <ele>354</ele>
        <time>2026-08-29T12:32:35Z</time>
      </trkpt>
      <trkpt lat="50.82334365695715" lon="13.13728348352015">
        <ele>354</ele>
        <time>2026-08-29T12:32:36Z</time>
      </trkpt>
      <trkpt lat="50.823355559259653" lon="13.137319860979915">
        <ele>354</ele>
        <time>2026-08-29T12:32:37Z</time>
      </trkpt>
      <trkpt lat="50.823360588401556" lon="13.13735137693584">
        <ele>354</ele>
        <time>2026-08-29T12:32:38Z</time>
      </trkpt>
      <trkpt lat="50.823370227590203" lon="13.137381803244352">
        <ele>354</ele>
        <time>2026-08-29T12:32:39Z</time>
      </trkpt>
      <trkpt lat="50.823378441855311" lon="13.137405021116138">
        <ele>355</ele>
        <time>2026-08-29T12:32:40Z</time>
      </trkpt>
      <trkpt lat="50.823384141549468" lon="13.137430418282747">
        <ele>355</ele>
        <time>2026-08-29T12:32:41Z</time>
      </trkpt>
      <trkpt lat="50.823387829586864" lon="13.137451792135835">
        <ele>355</ele>
        <time>2026-08-29T12:32:42Z</time>
      </trkpt>
      <trkpt lat="50.823391182348132" lon="13.137466041371226">
        <ele>355</ele>
        <time>2026-08-29T12:32:43Z</time>
      </trkpt>
      <trkpt lat="50.823393110185862" lon="13.137484230101109">
        <ele>355</ele>
        <time>2026-08-29T12:32:44Z</time>
      </trkpt>
      <trkpt lat="50.823395540937781" lon="13.137502083554864">
        <ele>355</ele>
        <time>2026-08-29T12:32:45Z</time>
      </trkpt>
      <trkpt lat="50.823395289480686" lon="13.137518260627985">
        <ele>355</ele>
        <time>2026-08-29T12:32:46Z</time>
      </trkpt>
      <trkpt lat="50.823396211490035" lon="13.13753267750144">
        <ele>355</ele>
        <time>2026-08-29T12:32:47Z</time>
      </trkpt>
      <trkpt lat="50.823395792394876" lon="13.137546172365546">
        <ele>355</ele>
        <time>2026-08-29T12:32:48Z</time>
      </trkpt>
      <trkpt lat="50.823398977518082" lon="13.13755757175386">
        <ele>355</ele>
        <time>2026-08-29T12:32:49Z</time>
      </trkpt>
      <trkpt lat="50.823401575908065" lon="13.137566624209285">
        <ele>355</ele>
        <time>2026-08-29T12:32:50Z</time>
      </trkpt>
      <trkpt lat="50.82340182736516" lon="13.137580119073391">
        <ele>355</ele>
        <time>2026-08-29T12:32:51Z</time>
      </trkpt>
      <trkpt lat="50.823402665555477" lon="13.137593027204275">
        <ele>355</ele>
        <time>2026-08-29T12:32:52Z</time>
      </trkpt>
      <trkpt lat="50.823404677212238" lon="13.137606102973223">
        <ele>356</ele>
        <time>2026-08-29T12:32:53Z</time>
      </trkpt>
      <trkpt lat="50.823403755202889" lon="13.137623118236661">
        <ele>356</ele>
        <time>2026-08-29T12:32:54Z</time>
      </trkpt>
      <trkpt lat="50.823405599221587" lon="13.137637954205275">
        <ele>356</ele>
        <time>2026-08-29T12:32:55Z</time>
      </trkpt>
      <trkpt lat="50.823408868163824" lon="13.137662429362535">
        <ele>355</ele>
        <time>2026-08-29T12:32:56Z</time>
      </trkpt>
      <trkpt lat="50.823409706354141" lon="13.137681037187576">
        <ele>356</ele>
        <time>2026-08-29T12:32:57Z</time>
      </trkpt>
      <trkpt lat="50.823411298915744" lon="13.137698890641332">
        <ele>356</ele>
        <time>2026-08-29T12:32:58Z</time>
      </trkpt>
      <trkpt lat="50.823412388563156" lon="13.137714229524136">
        <ele>356</ele>
        <time>2026-08-29T12:32:59Z</time>
      </trkpt>
      <trkpt lat="50.823414148762822" lon="13.137729903683066">
        <ele>356</ele>
        <time>2026-08-29T12:33:00Z</time>
      </trkpt>
      <trkpt lat="50.823417166247964" lon="13.137746332213283">
        <ele>356</ele>
        <time>2026-08-29T12:33:01Z</time>
      </trkpt>
      <trkpt lat="50.823422530665994" lon="13.137766700237989">
        <ele>357</ele>
        <time>2026-08-29T12:33:02Z</time>
      </trkpt>
      <trkpt lat="50.823424961417913" lon="13.137786313891411">
        <ele>357</ele>
        <time>2026-08-29T12:33:03Z</time>
      </trkpt>
      <trkpt lat="50.823424877598882" lon="13.137800898402929">
        <ele>356</ele>
        <time>2026-08-29T12:33:04Z</time>
      </trkpt>
      <trkpt lat="50.823426553979516" lon="13.137819170951843">
        <ele>356</ele>
        <time>2026-08-29T12:33:05Z</time>
      </trkpt>
      <trkpt lat="50.823420099914074" lon="13.137831157073379">
        <ele>356</ele>
        <time>2026-08-29T12:33:06Z</time>
      </trkpt>
      <trkpt lat="50.823421524837613" lon="13.1378507707268">
        <ele>357</ele>
        <time>2026-08-29T12:33:07Z</time>
      </trkpt>
      <trkpt lat="50.823423871770501" lon="13.137862589210272">
        <ele>357</ele>
        <time>2026-08-29T12:33:08Z</time>
      </trkpt>
      <trkpt lat="50.823427140712738" lon="13.137879772111773">
        <ele>357</ele>
        <time>2026-08-29T12:33:09Z</time>
      </trkpt>
      <trkpt lat="50.823427895084023" lon="13.137895278632641">
        <ele>357</ele>
        <time>2026-08-29T12:33:10Z</time>
      </trkpt>
      <trkpt lat="50.823424458503723" lon="13.137912377715111">
        <ele>357</ele>
        <time>2026-08-29T12:33:11Z</time>
      </trkpt>
      <trkpt lat="50.823426386341453" lon="13.137933164834976">
        <ele>357</ele>
        <time>2026-08-29T12:33:12Z</time>
      </trkpt>
      <trkpt lat="50.823429403826594" lon="13.137945402413607">
        <ele>357</ele>
        <time>2026-08-29T12:33:13Z</time>
      </trkpt>
      <trkpt lat="50.823428817093372" lon="13.137963926419616">
        <ele>357</ele>
        <time>2026-08-29T12:33:14Z</time>
      </trkpt>
      <trkpt lat="50.823431080207229" lon="13.137975158169866">
        <ele>358</ele>
        <time>2026-08-29T12:33:15Z</time>
      </trkpt>
      <trkpt lat="50.823436360806227" lon="13.137993765994906">
        <ele>358</ele>
        <time>2026-08-29T12:33:16Z</time>
      </trkpt>
      <trkpt lat="50.823438037186861" lon="13.138011367991567">
        <ele>358</ele>
        <time>2026-08-29T12:33:17Z</time>
      </trkpt>
      <trkpt lat="50.823438037186861" lon="13.138026036322117">
        <ele>358</ele>
        <time>2026-08-29T12:33:18Z</time>
      </trkpt>
      <trkpt lat="50.823440300300717" lon="13.138046488165855">
        <ele>358</ele>
        <time>2026-08-29T12:33:19Z</time>
      </trkpt>
      <trkpt lat="50.823442731052637" lon="13.138067778199911">
        <ele>359</ele>
        <time>2026-08-29T12:33:20Z</time>
      </trkpt>
      <trkpt lat="50.823444491252303" lon="13.138083871454">
        <ele>359</ele>
        <time>2026-08-29T12:33:21Z</time>
      </trkpt>
      <trkpt lat="50.823440048843622" lon="13.138103485107422">
        <ele>359</ele>
        <time>2026-08-29T12:33:22Z</time>
      </trkpt>
      <trkpt lat="50.823441725224257" lon="13.138122176751494">
        <ele>360</ele>
        <time>2026-08-29T12:33:23Z</time>
      </trkpt>
      <trkpt lat="50.823442982509732" lon="13.138139192014933">
        <ele>360</ele>
        <time>2026-08-29T12:33:24Z</time>
      </trkpt>
      <trkpt lat="50.823444239795208" lon="13.138160230591893">
        <ele>360</ele>
        <time>2026-08-29T12:33:25Z</time>
      </trkpt>
      <trkpt lat="50.823448346927762" lon="13.138177078217268">
        <ele>361</ele>
        <time>2026-08-29T12:33:26Z</time>
      </trkpt>
      <trkpt lat="50.823449855670333" lon="13.138191495090723">
        <ele>360</ele>
        <time>2026-08-29T12:33:27Z</time>
      </trkpt>
      <trkpt lat="50.82345262169838" lon="13.138211192563176">
        <ele>360</ele>
        <time>2026-08-29T12:33:28Z</time>
      </trkpt>
      <trkpt lat="50.823460919782519" lon="13.138232314959168">
        <ele>361</ele>
        <time>2026-08-29T12:33:29Z</time>
      </trkpt>
      <trkpt lat="50.823467457666993" lon="13.138245809823275">
        <ele>361</ele>
        <time>2026-08-29T12:33:30Z</time>
      </trkpt>
      <trkpt lat="50.823474749922752" lon="13.138255281373858">
        <ele>362</ele>
        <time>2026-08-29T12:33:31Z</time>
      </trkpt>
      <trkpt lat="50.823476258665323" lon="13.138271374627948">
        <ele>362</ele>
        <time>2026-08-29T12:33:32Z</time>
      </trkpt>
      <trkpt lat="50.823471648618579" lon="13.138286042958498">
        <ele>361</ele>
        <time>2026-08-29T12:33:33Z</time>
      </trkpt>
      <trkpt lat="50.823479779064655" lon="13.138306578621268">
        <ele>361</ele>
        <time>2026-08-29T12:33:34Z</time>
      </trkpt>
      <trkpt lat="50.823480449616909" lon="13.138323845341802">
        <ele>361</ele>
        <time>2026-08-29T12:33:35Z</time>
      </trkpt>
      <trkpt lat="50.823478102684021" lon="13.138343710452318">
        <ele>361</ele>
        <time>2026-08-29T12:33:36Z</time>
      </trkpt>
      <trkpt lat="50.823479611426592" lon="13.138359133154154">
        <ele>361</ele>
        <time>2026-08-29T12:33:37Z</time>
      </trkpt>
      <trkpt lat="50.823477348312736" lon="13.138381261378527">
        <ele>361</ele>
        <time>2026-08-29T12:33:38Z</time>
      </trkpt>
      <trkpt lat="50.823477013036609" lon="13.138399533927441">
        <ele>361</ele>
        <time>2026-08-29T12:33:39Z</time>
      </trkpt>
      <trkpt lat="50.823474749922752" lon="13.138413280248642">
        <ele>361</ele>
        <time>2026-08-29T12:33:40Z</time>
      </trkpt>
      <trkpt lat="50.823475001379848" lon="13.138425601646304">
        <ele>361</ele>
        <time>2026-08-29T12:33:41Z</time>
      </trkpt>
      <trkpt lat="50.823477851226926" lon="13.138445885851979">
        <ele>360</ele>
        <time>2026-08-29T12:33:42Z</time>
      </trkpt>
      <trkpt lat="50.823473408818245" lon="13.138456614688039">
        <ele>361</ele>
        <time>2026-08-29T12:33:43Z</time>
      </trkpt>
      <trkpt lat="50.823470391333103" lon="13.138479748740792">
        <ele>361</ele>
        <time>2026-08-29T12:33:44Z</time>
      </trkpt>
      <trkpt lat="50.823466284200549" lon="13.138501206412911">
        <ele>361</ele>
        <time>2026-08-29T12:33:45Z</time>
      </trkpt>
      <trkpt lat="50.823462763801217" lon="13.138527357950807">
        <ele>361</ele>
        <time>2026-08-29T12:33:46Z</time>
      </trkpt>
      <trkpt lat="50.823463434353471" lon="13.138545211404562">
        <ele>361</ele>
        <time>2026-08-29T12:33:47Z</time>
      </trkpt>
      <trkpt lat="50.823465278372169" lon="13.138563903048635">
        <ele>361</ele>
        <time>2026-08-29T12:33:48Z</time>
      </trkpt>
      <trkpt lat="50.823465865105391" lon="13.138586701825261">
        <ele>361</ele>
        <time>2026-08-29T12:33:49Z</time>
      </trkpt>
      <trkpt lat="50.82346242852509" lon="13.138607153669">
        <ele>361</ele>
        <time>2026-08-29T12:33:50Z</time>
      </trkpt>
      <trkpt lat="50.823461590334773" lon="13.138625174760818">
        <ele>362</ele>
        <time>2026-08-29T12:33:51Z</time>
      </trkpt>
      <trkpt lat="50.823460835963488" lon="13.138646716251969">
        <ele>362</ele>
        <time>2026-08-29T12:33:52Z</time>
      </trkpt>
      <trkpt lat="50.823468212038279" lon="13.138669515028596">
        <ele>361</ele>
        <time>2026-08-29T12:33:53Z</time>
      </trkpt>
      <trkpt lat="50.823466619476676" lon="13.138687955215573">
        <ele>362</ele>
        <time>2026-08-29T12:33:54Z</time>
      </trkpt>
      <trkpt lat="50.8234619256109" lon="13.13870882615447">
        <ele>362</ele>
        <time>2026-08-29T12:33:55Z</time>
      </trkpt>
      <trkpt lat="50.823463350534439" lon="13.138732295483351">
        <ele>362</ele>
        <time>2026-08-29T12:33:56Z</time>
      </trkpt>
      <trkpt lat="50.823461087420583" lon="13.13875718973577">
        <ele>363</ele>
        <time>2026-08-29T12:33:57Z</time>
      </trkpt>
      <trkpt lat="50.823460081592202" lon="13.138779401779175">
        <ele>363</ele>
        <time>2026-08-29T12:33:58Z</time>
      </trkpt>
      <trkpt lat="50.823456980288029" lon="13.13880505040288">
        <ele>363</ele>
        <time>2026-08-29T12:33:59Z</time>
      </trkpt>
      <trkpt lat="50.823457902297378" lon="13.138827430084348">
        <ele>363</ele>
        <time>2026-08-29T12:34:00Z</time>
      </trkpt>
      <trkpt lat="50.823455471545458" lon="13.138847211375833">
        <ele>362</ele>
        <time>2026-08-29T12:34:01Z</time>
      </trkpt>
      <trkpt lat="50.823450610041618" lon="13.138868752866983">
        <ele>362</ele>
        <time>2026-08-29T12:34:02Z</time>
      </trkpt>
      <trkpt lat="50.823446167632937" lon="13.138890797272325">
        <ele>363</ele>
        <time>2026-08-29T12:34:03Z</time>
      </trkpt>
      <trkpt lat="50.82344239577651" lon="13.138910410925746">
        <ele>362</ele>
        <time>2026-08-29T12:34:04Z</time>
      </trkpt>
      <trkpt lat="50.82344189286232" lon="13.138931281864643">
        <ele>363</ele>
        <time>2026-08-29T12:34:05Z</time>
      </trkpt>
      <trkpt lat="50.823434516787529" lon="13.138955589383841">
        <ele>363</ele>
        <time>2026-08-29T12:34:06Z</time>
      </trkpt>
      <trkpt lat="50.823429487645626" lon="13.138978304341435">
        <ele>363</ele>
        <time>2026-08-29T12:34:07Z</time>
      </trkpt>
      <trkpt lat="50.823429068550467" lon="13.138995319604874">
        <ele>363</ele>
        <time>2026-08-29T12:34:08Z</time>
      </trkpt>
      <trkpt lat="50.823427643626928" lon="13.139008730649948">
        <ele>363</ele>
        <time>2026-08-29T12:34:09Z</time>
      </trkpt>
      <trkpt lat="50.823423368856311" lon="13.139027087017894">
        <ele>363</ele>
        <time>2026-08-29T12:34:10Z</time>
      </trkpt>
      <trkpt lat="50.823417669162154" lon="13.139044605195522">
        <ele>364</ele>
        <time>2026-08-29T12:34:11Z</time>
      </trkpt>
      <trkpt lat="50.823416914790869" lon="13.139068158343434">
        <ele>364</ele>
        <time>2026-08-29T12:34:12Z</time>
      </trkpt>
      <trkpt lat="50.823417250066996" lon="13.139086766168475">
        <ele>364</ele>
        <time>2026-08-29T12:34:13Z</time>
      </trkpt>
      <trkpt lat="50.823415322229266" lon="13.139109816402197">
        <ele>364</ele>
        <time>2026-08-29T12:34:14Z</time>
      </trkpt>
      <trkpt lat="50.823414819315076" lon="13.139128927141428">
        <ele>365</ele>
        <time>2026-08-29T12:34:15Z</time>
      </trkpt>
      <trkpt lat="50.823415238410234" lon="13.139148289337754">
        <ele>365</ele>
        <time>2026-08-29T12:34:16Z</time>
      </trkpt>
      <trkpt lat="50.823412891477346" lon="13.139168657362461">
        <ele>366</ele>
        <time>2026-08-29T12:34:17Z</time>
      </trkpt>
      <trkpt lat="50.823417333886027" lon="13.139185840263963">
        <ele>366</ele>
        <time>2026-08-29T12:34:18Z</time>
      </trkpt>
      <trkpt lat="50.823423536494374" lon="13.139201262965798">
        <ele>366</ele>
        <time>2026-08-29T12:34:19Z</time>
      </trkpt>
      <trkpt lat="50.823426218703389" lon="13.139218697324395">
        <ele>366</ele>
        <time>2026-08-29T12:34:20Z</time>
      </trkpt>
      <trkpt lat="50.823421943932772" lon="13.139239232987165">
        <ele>366</ele>
        <time>2026-08-29T12:34:21Z</time>
      </trkpt>
      <trkpt lat="50.823421692475677" lon="13.139261025935411">
        <ele>366</ele>
        <time>2026-08-29T12:34:22Z</time>
      </trkpt>
      <trkpt lat="50.823420351371169" lon="13.139272760599852">
        <ele>366</ele>
        <time>2026-08-29T12:34:23Z</time>
      </trkpt>
      <trkpt lat="50.823417669162154" lon="13.139287177473307">
        <ele>366</ele>
        <time>2026-08-29T12:34:24Z</time>
      </trkpt>
      <trkpt lat="50.823408784344792" lon="13.139306204393506">
        <ele>366</ele>
        <time>2026-08-29T12:34:25Z</time>
      </trkpt>
      <trkpt lat="50.82340769469738" lon="13.139325985684991">
        <ele>366</ele>
        <time>2026-08-29T12:34:26Z</time>
      </trkpt>
      <trkpt lat="50.82340819761157" lon="13.13934987410903">
        <ele>366</ele>
        <time>2026-08-29T12:34:27Z</time>
      </trkpt>
      <trkpt lat="50.823406018316746" lon="13.139373259618878">
        <ele>366</ele>
        <time>2026-08-29T12:34:28Z</time>
      </trkpt>
      <trkpt lat="50.823397720232606" lon="13.13939530402422">
        <ele>366</ele>
        <time>2026-08-29T12:34:29Z</time>
      </trkpt>
      <trkpt lat="50.82339352928102" lon="13.139417767524719">
        <ele>366</ele>
        <time>2026-08-29T12:34:30Z</time>
      </trkpt>
      <trkpt lat="50.823388919234276" lon="13.139434782788157">
        <ele>366</ele>
        <time>2026-08-29T12:34:31Z</time>
      </trkpt>
      <trkpt lat="50.823387242853642" lon="13.139453139156103">
        <ele>367</ele>
        <time>2026-08-29T12:34:32Z</time>
      </trkpt>
      <trkpt lat="50.823383638635278" lon="13.139476021751761">
        <ele>367</ele>
        <time>2026-08-29T12:34:33Z</time>
      </trkpt>
      <trkpt lat="50.823383387178183" lon="13.139495132490993">
        <ele>367</ele>
        <time>2026-08-29T12:34:34Z</time>
      </trkpt>
      <trkpt lat="50.82338472828269" lon="13.139511896297336">
        <ele>367</ele>
        <time>2026-08-29T12:34:35Z</time>
      </trkpt>
      <trkpt lat="50.823383219540119" lon="13.139532431960106">
        <ele>367</ele>
        <time>2026-08-29T12:34:36Z</time>
      </trkpt>
      <trkpt lat="50.823381459340453" lon="13.139548357576132">
        <ele>368</ele>
        <time>2026-08-29T12:34:37Z</time>
      </trkpt>
      <trkpt lat="50.823376849293709" lon="13.13957174308598">
        <ele>367</ele>
        <time>2026-08-29T12:34:38Z</time>
      </trkpt>
      <trkpt lat="50.823371568694711" lon="13.13958833925426">
        <ele>367</ele>
        <time>2026-08-29T12:34:39Z</time>
      </trkpt>
      <trkpt lat="50.823363689705729" lon="13.139598816633224">
        <ele>367</ele>
        <time>2026-08-29T12:34:40Z</time>
      </trkpt>
      <trkpt lat="50.82335933111608" lon="13.139614909887314">
        <ele>367</ele>
        <time>2026-08-29T12:34:41Z</time>
      </trkpt>
      <trkpt lat="50.823355810716748" lon="13.139631254598498">
        <ele>368</ele>
        <time>2026-08-29T12:34:42Z</time>
      </trkpt>
      <trkpt lat="50.823351116850972" lon="13.139650700613856">
        <ele>368</ele>
        <time>2026-08-29T12:34:43Z</time>
      </trkpt>
      <trkpt lat="50.823346674442291" lon="13.13966847024858">
        <ele>368</ele>
        <time>2026-08-29T12:34:44Z</time>
      </trkpt>
      <trkpt lat="50.823344076052308" lon="13.139690263196826">
        <ele>369</ele>
        <time>2026-08-29T12:34:45Z</time>
      </trkpt>
      <trkpt lat="50.823344327509403" lon="13.139700572937727">
        <ele>369</ele>
        <time>2026-08-29T12:34:46Z</time>
      </trkpt>
      <trkpt lat="50.823342148214579" lon="13.139718845486641">
        <ele>369</ele>
        <time>2026-08-29T12:34:47Z</time>
      </trkpt>
      <trkpt lat="50.823338543996215" lon="13.139740470796824">
        <ele>370</ele>
        <time>2026-08-29T12:34:48Z</time>
      </trkpt>
      <trkpt lat="50.823332760483027" lon="13.139761928468943">
        <ele>370</ele>
        <time>2026-08-29T12:34:49Z</time>
      </trkpt>
      <trkpt lat="50.823325719684362" lon="13.139779949560761">
        <ele>371</ele>
        <time>2026-08-29T12:34:50Z</time>
      </trkpt>
      <trkpt lat="50.823315661400557" lon="13.139796881005168">
        <ele>371</ele>
        <time>2026-08-29T12:34:51Z</time>
      </trkpt>
      <trkpt lat="50.823306189849973" lon="13.13981406390667">
        <ele>370</ele>
        <time>2026-08-29T12:34:52Z</time>
      </trkpt>
      <trkpt lat="50.823294874280691" lon="13.139834767207503">
        <ele>371</ele>
        <time>2026-08-29T12:34:53Z</time>
      </trkpt>
      <trkpt lat="50.823284396901727" lon="13.139860667288303">
        <ele>371</ele>
        <time>2026-08-29T12:34:54Z</time>
      </trkpt>
      <trkpt lat="50.823279619216919" lon="13.139885561540723">
        <ele>371</ele>
        <time>2026-08-29T12:34:55Z</time>
      </trkpt>
      <trkpt lat="50.823272578418255" lon="13.139907103031874">
        <ele>371</ele>
        <time>2026-08-29T12:34:56Z</time>
      </trkpt>
      <trkpt lat="50.823263609781861" lon="13.139930069446564">
        <ele>371</ele>
        <time>2026-08-29T12:34:57Z</time>
      </trkpt>
      <trkpt lat="50.823256401345134" lon="13.139949599280953">
        <ele>372</ele>
        <time>2026-08-29T12:34:58Z</time>
      </trkpt>
      <trkpt lat="50.823243660852313" lon="13.139974661171436">
        <ele>372</ele>
        <time>2026-08-29T12:34:59Z</time>
      </trkpt>
      <trkpt lat="50.823235949501395" lon="13.139999806880951">
        <ele>372</ele>
        <time>2026-08-29T12:35:00Z</time>
      </trkpt>
      <trkpt lat="50.823229243978858" lon="13.140019336715341">
        <ele>372</ele>
        <time>2026-08-29T12:35:01Z</time>
      </trkpt>
      <trkpt lat="50.823221281170845" lon="13.140037022531033">
        <ele>373</ele>
        <time>2026-08-29T12:35:02Z</time>
      </trkpt>
      <trkpt lat="50.823209881782532" lon="13.140052864328027">
        <ele>373</ele>
        <time>2026-08-29T12:35:03Z</time>
      </trkpt>
      <trkpt lat="50.82319906912744" lon="13.140077255666256">
        <ele>373</ele>
        <time>2026-08-29T12:35:04Z</time>
      </trkpt>
      <trkpt lat="50.823186999186873" lon="13.140096114948392">
        <ele>373</ele>
        <time>2026-08-29T12:35:05Z</time>
      </trkpt>
      <trkpt lat="50.823177779093385" lon="13.14011899754405">
        <ele>373</ele>
        <time>2026-08-29T12:35:06Z</time>
      </trkpt>
      <trkpt lat="50.823170151561499" lon="13.140140874311328">
        <ele>373</ele>
        <time>2026-08-29T12:35:07Z</time>
      </trkpt>
      <trkpt lat="50.823160680010915" lon="13.140160236507654">
        <ele>373</ele>
        <time>2026-08-29T12:35:08Z</time>
      </trkpt>
      <trkpt lat="50.823151795193553" lon="13.14017565920949">
        <ele>373</ele>
        <time>2026-08-29T12:35:09Z</time>
      </trkpt>
      <trkpt lat="50.823140060529113" lon="13.140201224014163">
        <ele>373</ele>
        <time>2026-08-29T12:35:10Z</time>
      </trkpt>
      <trkpt lat="50.823129331693053" lon="13.140218909829855">
        <ele>373</ele>
        <time>2026-08-29T12:35:11Z</time>
      </trkpt>
      <trkpt lat="50.823120111599565" lon="13.14023676328361">
        <ele>373</ele>
        <time>2026-08-29T12:35:12Z</time>
      </trkpt>
      <trkpt lat="50.823112735524774" lon="13.140256376937032">
        <ele>373</ele>
        <time>2026-08-29T12:35:13Z</time>
      </trkpt>
      <trkpt lat="50.82310426980257" lon="13.140280432999134">
        <ele>374</ele>
        <time>2026-08-29T12:35:14Z</time>
      </trkpt>
      <trkpt lat="50.823093289509416" lon="13.140308344736695">
        <ele>374</ele>
        <time>2026-08-29T12:35:15Z</time>
      </trkpt>
      <trkpt lat="50.823083817958832" lon="13.140332736074924">
        <ele>374</ele>
        <time>2026-08-29T12:35:16Z</time>
      </trkpt>
      <trkpt lat="50.823075519874692" lon="13.140352517366409">
        <ele>374</ele>
        <time>2026-08-29T12:35:17Z</time>
      </trkpt>
      <trkpt lat="50.823070239275694" lon="13.140372382476926">
        <ele>374</ele>
        <time>2026-08-29T12:35:18Z</time>
      </trkpt>
      <trkpt lat="50.823060851544142" lon="13.140400797128677">
        <ele>374</ele>
        <time>2026-08-29T12:35:19Z</time>
      </trkpt>
      <trkpt lat="50.823050793260336" lon="13.140426361933351">
        <ele>374</ele>
        <time>2026-08-29T12:35:20Z</time>
      </trkpt>
      <trkpt lat="50.82304417155683" lon="13.140440778806806">
        <ele>374</ele>
        <time>2026-08-29T12:35:21Z</time>
      </trkpt>
      <trkpt lat="50.8230353705585" lon="13.140462404116988">
        <ele>374</ele>
        <time>2026-08-29T12:35:22Z</time>
      </trkpt>
      <trkpt lat="50.823022378608584" lon="13.140485035255551">
        <ele>375</ele>
        <time>2026-08-29T12:35:23Z</time>
      </trkpt>
      <trkpt lat="50.823008129373193" lon="13.140502721071243">
        <ele>375</ele>
        <time>2026-08-29T12:35:24Z</time>
      </trkpt>
      <trkpt lat="50.823001088574529" lon="13.140518730506301">
        <ele>375</ele>
        <time>2026-08-29T12:35:25Z</time>
      </trkpt>
      <trkpt lat="50.82299186848104" lon="13.140544211491942">
        <ele>375</ele>
        <time>2026-08-29T12:35:26Z</time>
      </trkpt>
      <trkpt lat="50.822973428294063" lon="13.140567345544696">
        <ele>375</ele>
        <time>2026-08-29T12:35:27Z</time>
      </trkpt>
      <trkpt lat="50.822953563183546" lon="13.140586959198117">
        <ele>375</ele>
        <time>2026-08-29T12:35:28Z</time>
      </trkpt>
      <trkpt lat="50.822935961186886" lon="13.140613362193108">
        <ele>375</ele>
        <time>2026-08-29T12:35:29Z</time>
      </trkpt>
      <trkpt lat="50.822918526828289" lon="13.140632389113307">
        <ele>376</ele>
        <time>2026-08-29T12:35:30Z</time>
      </trkpt>
      <trkpt lat="50.8229058701545" lon="13.140661641955376">
        <ele>376</ele>
        <time>2026-08-29T12:35:31Z</time>
      </trkpt>
      <trkpt lat="50.822894386947155" lon="13.140691313892603">
        <ele>376</ele>
        <time>2026-08-29T12:35:32Z</time>
      </trkpt>
      <trkpt lat="50.8228799700737" lon="13.140724757686257">
        <ele>376</ele>
        <time>2026-08-29T12:35:33Z</time>
      </trkpt>
      <trkpt lat="50.822859518229961" lon="13.140751076862216">
        <ele>377</ele>
        <time>2026-08-29T12:35:34Z</time>
      </trkpt>
      <trkpt lat="50.822839317843318" lon="13.140776641666889">
        <ele>377</ele>
        <time>2026-08-29T12:35:35Z</time>
      </trkpt>
      <trkpt lat="50.822818279266357" lon="13.140797093510628">
        <ele>377</ele>
        <time>2026-08-29T12:35:36Z</time>
      </trkpt>
      <trkpt lat="50.822800174355507" lon="13.140815449878573">
        <ele>377</ele>
        <time>2026-08-29T12:35:37Z</time>
      </trkpt>
      <trkpt lat="50.822782153263688" lon="13.140841769054532">
        <ele>377</ele>
        <time>2026-08-29T12:35:38Z</time>
      </trkpt>
      <trkpt lat="50.822763880714774" lon="13.140863897278905">
        <ele>377</ele>
        <time>2026-08-29T12:35:39Z</time>
      </trkpt>
      <trkpt lat="50.822747871279716" lon="13.140892898663878">
        <ele>377</ele>
        <time>2026-08-29T12:35:40Z</time>
      </trkpt>
      <trkpt lat="50.822725743055344" lon="13.1409125123173">
        <ele>376</ele>
        <time>2026-08-29T12:35:41Z</time>
      </trkpt>
      <trkpt lat="50.822712332010269" lon="13.140940004959702">
        <ele>377</ele>
        <time>2026-08-29T12:35:42Z</time>
      </trkpt>
      <trkpt lat="50.822694478556514" lon="13.140969760715961">
        <ele>377</ele>
        <time>2026-08-29T12:35:43Z</time>
      </trkpt>
      <trkpt lat="50.822681738063693" lon="13.141004964709282">
        <ele>377</ele>
        <time>2026-08-29T12:35:44Z</time>
      </trkpt>
      <trkpt lat="50.822666147723794" lon="13.141037570312619">
        <ele>377</ele>
        <time>2026-08-29T12:35:45Z</time>
      </trkpt>
      <trkpt lat="50.822647288441658" lon="13.141072606667876">
        <ele>377</ele>
        <time>2026-08-29T12:35:46Z</time>
      </trkpt>
      <trkpt lat="50.822631698101759" lon="13.141108145937324">
        <ele>377</ele>
        <time>2026-08-29T12:35:47Z</time>
      </trkpt>
      <trkpt lat="50.82261661067605" lon="13.141147708520293">
        <ele>377</ele>
        <time>2026-08-29T12:35:48Z</time>
      </trkpt>
      <trkpt lat="50.822595991194248" lon="13.141180314123631">
        <ele>377</ele>
        <time>2026-08-29T12:35:49Z</time>
      </trkpt>
      <trkpt lat="50.822579059749842" lon="13.141210740432143">
        <ele>377</ele>
        <time>2026-08-29T12:35:50Z</time>
      </trkpt>
      <trkpt lat="50.822564223781228" lon="13.141251308843493">
        <ele>378</ele>
        <time>2026-08-29T12:35:51Z</time>
      </trkpt>
      <trkpt lat="50.822546370327473" lon="13.141290955245495">
        <ele>378</ele>
        <time>2026-08-29T12:35:52Z</time>
      </trkpt>
      <trkpt lat="50.822532037273049" lon="13.141333451494575">
        <ele>378</ele>
        <time>2026-08-29T12:35:53Z</time>
      </trkpt>
      <trkpt lat="50.822516279295087" lon="13.141380976885557">
        <ele>378</ele>
        <time>2026-08-29T12:35:54Z</time>
      </trkpt>
      <trkpt lat="50.822497252374887" lon="13.141416683793068">
        <ele>378</ele>
        <time>2026-08-29T12:35:55Z</time>
      </trkpt>
      <trkpt lat="50.822477722540498" lon="13.141447780653834">
        <ele>378</ele>
        <time>2026-08-29T12:35:56Z</time>
      </trkpt>
      <trkpt lat="50.822455678135157" lon="13.141485415399075">
        <ele>378</ele>
        <time>2026-08-29T12:35:57Z</time>
      </trkpt>
      <trkpt lat="50.822436399757862" lon="13.1415238045156">
        <ele>378</ele>
        <time>2026-08-29T12:35:58Z</time>
      </trkpt>
      <trkpt lat="50.822419300675392" lon="13.14156730659306">
        <ele>378</ele>
        <time>2026-08-29T12:35:59Z</time>
      </trkpt>
      <trkpt lat="50.822399854660034" lon="13.141609383746982">
        <ele>378</ele>
        <time>2026-08-29T12:36:00Z</time>
      </trkpt>
      <trkpt lat="50.82238107919693" lon="13.141651293262839">
        <ele>378</ele>
        <time>2026-08-29T12:36:01Z</time>
      </trkpt>
      <trkpt lat="50.822363058105111" lon="13.141690520569682">
        <ele>378</ele>
        <time>2026-08-29T12:36:02Z</time>
      </trkpt>
      <trkpt lat="50.822344869375229" lon="13.14173486083746">
        <ele>378</ele>
        <time>2026-08-29T12:36:03Z</time>
      </trkpt>
      <trkpt lat="50.822325674816966" lon="13.141775345429778">
        <ele>378</ele>
        <time>2026-08-29T12:36:04Z</time>
      </trkpt>
      <trkpt lat="50.822304049506783" lon="13.141816919669509">
        <ele>378</ele>
        <time>2026-08-29T12:36:05Z</time>
      </trkpt>
      <trkpt lat="50.822284268215299" lon="13.141861511394382">
        <ele>378</ele>
        <time>2026-08-29T12:36:06Z</time>
      </trkpt>
      <trkpt lat="50.822265073657036" lon="13.141908030956984">
        <ele>377</ele>
        <time>2026-08-29T12:36:07Z</time>
      </trkpt>
      <trkpt lat="50.82224084995687" lon="13.141946755349636">
        <ele>377</ele>
        <time>2026-08-29T12:36:08Z</time>
      </trkpt>
      <trkpt lat="50.822215117514133" lon="13.141991849988699">
        <ele>378</ele>
        <time>2026-08-29T12:36:09Z</time>
      </trkpt>
      <trkpt lat="50.822194162756205" lon="13.142038956284523">
        <ele>378</ele>
        <time>2026-08-29T12:36:10Z</time>
      </trkpt>
      <trkpt lat="50.822173878550529" lon="13.142084553837776">
        <ele>378</ele>
        <time>2026-08-29T12:36:11Z</time>
      </trkpt>
      <trkpt lat="50.822154600173235" lon="13.142130067571998">
        <ele>377</ele>
        <time>2026-08-29T12:36:12Z</time>
      </trkpt>
      <trkpt lat="50.822136076167226" lon="13.142177257686853">
        <ele>378</ele>
        <time>2026-08-29T12:36:13Z</time>
      </trkpt>
      <trkpt lat="50.822118641808629" lon="13.142217071726918">
        <ele>378</ele>
        <time>2026-08-29T12:36:14Z</time>
      </trkpt>
      <trkpt lat="50.82210305146873" lon="13.142267530784011">
        <ele>378</ele>
        <time>2026-08-29T12:36:15Z</time>
      </trkpt>
      <trkpt lat="50.822086958214641" lon="13.142317486926913">
        <ele>378</ele>
        <time>2026-08-29T12:36:16Z</time>
      </trkpt>
      <trkpt lat="50.822072708979249" lon="13.142371717840433">
        <ele>378</ele>
        <time>2026-08-29T12:36:17Z</time>
      </trkpt>
      <trkpt lat="50.822060471400619" lon="13.142418153584003">
        <ele>378</ele>
        <time>2026-08-29T12:36:18Z</time>
      </trkpt>
      <trkpt lat="50.822043707594275" lon="13.142473138868809">
        <ele>378</ele>
        <time>2026-08-29T12:36:19Z</time>
      </trkpt>
      <trkpt lat="50.822030128911138" lon="13.142516724765301">
        <ele>379</ele>
        <time>2026-08-29T12:36:20Z</time>
      </trkpt>
      <trkpt lat="50.822016214951873" lon="13.142571374773979">
        <ele>379</ele>
        <time>2026-08-29T12:36:21Z</time>
      </trkpt>
      <trkpt lat="50.822007497772574" lon="13.142628120258451">
        <ele>379</ele>
        <time>2026-08-29T12:36:22Z</time>
      </trkpt>
      <trkpt lat="50.822002468630672" lon="13.142673801630735">
        <ele>378</ele>
        <time>2026-08-29T12:36:23Z</time>
      </trkpt>
      <trkpt lat="50.821989392861724" lon="13.142731050029397">
        <ele>378</ele>
        <time>2026-08-29T12:36:24Z</time>
      </trkpt>
      <trkpt lat="50.821977658197284" lon="13.142779413610697">
        <ele>378</ele>
        <time>2026-08-29T12:36:25Z</time>
      </trkpt>
      <trkpt lat="50.82196868956089" lon="13.142831884324551">
        <ele>378</ele>
        <time>2026-08-29T12:36:26Z</time>
      </trkpt>
      <trkpt lat="50.821959301829338" lon="13.142887372523546">
        <ele>379</ele>
        <time>2026-08-29T12:36:27Z</time>
      </trkpt>
      <trkpt lat="50.821948908269405" lon="13.142934311181307">
        <ele>379</ele>
        <time>2026-08-29T12:36:28Z</time>
      </trkpt>
      <trkpt lat="50.82193935289979" lon="13.1429882068187">
        <ele>379</ele>
        <time>2026-08-29T12:36:29Z</time>
      </trkpt>
      <trkpt lat="50.821927115321159" lon="13.143036738038063">
        <ele>379</ele>
        <time>2026-08-29T12:36:30Z</time>
      </trkpt>
      <trkpt lat="50.821911273524165" lon="13.143076552078128">
        <ele>379</ele>
        <time>2026-08-29T12:36:31Z</time>
      </trkpt>
      <trkpt lat="50.821896521374583" lon="13.14311670139432">
        <ele>378</ele>
        <time>2026-08-29T12:36:32Z</time>
      </trkpt>
      <trkpt lat="50.821882439777255" lon="13.143155928701162">
        <ele>377</ele>
        <time>2026-08-29T12:36:33Z</time>
      </trkpt>
      <trkpt lat="50.821873052045703" lon="13.143195239827037">
        <ele>377</ele>
        <time>2026-08-29T12:36:34Z</time>
      </trkpt>
      <trkpt lat="50.821864921599627" lon="13.143232790753245">
        <ele>377</ele>
        <time>2026-08-29T12:36:35Z</time>
      </trkpt>
      <trkpt lat="50.821858216077089" lon="13.143268330022693">
        <ele>377</ele>
        <time>2026-08-29T12:36:36Z</time>
      </trkpt>
      <trkpt lat="50.821854108944535" lon="13.143300767987967">
        <ele>377</ele>
        <time>2026-08-29T12:36:37Z</time>
      </trkpt>
      <trkpt lat="50.821851510554552" lon="13.14333563670516">
        <ele>377</ele>
        <time>2026-08-29T12:36:38Z</time>
      </trkpt>
      <trkpt lat="50.821846062317491" lon="13.143378552049398">
        <ele>377</ele>
        <time>2026-08-29T12:36:39Z</time>
      </trkpt>
      <trkpt lat="50.821842290461063" lon="13.143414678052068">
        <ele>377</ele>
        <time>2026-08-29T12:36:40Z</time>
      </trkpt>
      <trkpt lat="50.821836590766907" lon="13.143453821539879">
        <ele>377</ele>
        <time>2026-08-29T12:36:41Z</time>
      </trkpt>
      <trkpt lat="50.821837009862065" lon="13.143501849845052">
        <ele>377</ele>
        <time>2026-08-29T12:36:42Z</time>
      </trkpt>
      <trkpt lat="50.82183726131916" lon="13.143553147092462">
        <ele>377</ele>
        <time>2026-08-29T12:36:43Z</time>
      </trkpt>
      <trkpt lat="50.821843547746539" lon="13.143612407147884">
        <ele>376</ele>
        <time>2026-08-29T12:36:44Z</time>
      </trkpt>
      <trkpt lat="50.821850840002298" lon="13.143672421574593">
        <ele>376</ele>
        <time>2026-08-29T12:36:45Z</time>
      </trkpt>
      <trkpt lat="50.821877829730511" lon="13.143715923652053">
        <ele>376</ele>
        <time>2026-08-29T12:36:46Z</time>
      </trkpt>
      <trkpt lat="50.8218973595649" lon="13.143770322203636">
        <ele>376</ele>
        <time>2026-08-29T12:36:47Z</time>
      </trkpt>
      <trkpt lat="50.821935581043363" lon="13.143825978040695">
        <ele>375</ele>
        <time>2026-08-29T12:36:48Z</time>
      </trkpt>
      <trkpt lat="50.821978580206633" lon="13.143882555887103">
        <ele>375</ele>
        <time>2026-08-29T12:36:49Z</time>
      </trkpt>
      <trkpt lat="50.822012610733509" lon="13.143929913640022">
        <ele>374</ele>
        <time>2026-08-29T12:36:50Z</time>
      </trkpt>
      <trkpt lat="50.822045216336846" lon="13.143946677446365">
        <ele>375</ele>
        <time>2026-08-29T12:36:51Z</time>
      </trkpt>
      <trkpt lat="50.822071200236678" lon="13.143960675224662">
        <ele>374</ele>
        <time>2026-08-29T12:36:52Z</time>
      </trkpt>
      <trkpt lat="50.822092909365892" lon="13.143967883661389">
        <ele>374</ele>
        <time>2026-08-29T12:36:53Z</time>
      </trkpt>
      <trkpt lat="50.822116630151868" lon="13.143979785963893">
        <ele>374</ele>
        <time>2026-08-29T12:36:54Z</time>
      </trkpt>
      <trkpt lat="50.822144960984588" lon="13.143987413495779">
        <ele>373</ele>
        <time>2026-08-29T12:36:55Z</time>
      </trkpt>
      <trkpt lat="50.822180919349194" lon="13.143986407667398">
        <ele>373</ele>
        <time>2026-08-29T12:36:56Z</time>
      </trkpt>
      <trkpt lat="50.822216290980577" lon="13.143973080441356">
        <ele>373</ele>
        <time>2026-08-29T12:36:57Z</time>
      </trkpt>
      <trkpt lat="50.822261217981577" lon="13.143949611112475">
        <ele>373</ele>
        <time>2026-08-29T12:36:58Z</time>
      </trkpt>
      <trkpt lat="50.822303295135498" lon="13.143932763487101">
        <ele>372</ele>
        <time>2026-08-29T12:36:59Z</time>
      </trkpt>
      <trkpt lat="50.822342522442341" lon="13.143894374370575">
        <ele>372</ele>
        <time>2026-08-29T12:37:00Z</time>
      </trkpt>
      <trkpt lat="50.822381498292089" lon="13.143848441541195">
        <ele>371</ele>
        <time>2026-08-29T12:37:01Z</time>
      </trkpt>
      <trkpt lat="50.822408655658364" lon="13.143799910321832">
        <ele>371</ele>
        <time>2026-08-29T12:37:02Z</time>
      </trkpt>
      <trkpt lat="50.822436902672052" lon="13.143739141523838">
        <ele>371</ele>
        <time>2026-08-29T12:37:03Z</time>
      </trkpt>
      <trkpt lat="50.82246364094317" lon="13.143675941973925">
        <ele>371</ele>
        <time>2026-08-29T12:37:04Z</time>
      </trkpt>
      <trkpt lat="50.822485601529479" lon="13.143614334985614">
        <ele>371</ele>
        <time>2026-08-29T12:37:05Z</time>
      </trkpt>
      <trkpt lat="50.822511501610279" lon="13.143552476540208">
        <ele>371</ele>
        <time>2026-08-29T12:37:06Z</time>
      </trkpt>
      <trkpt lat="50.822543939575553" lon="13.143485672771931">
        <ele>371</ele>
        <time>2026-08-29T12:37:07Z</time>
      </trkpt>
      <trkpt lat="50.82257118076086" lon="13.143418114632368">
        <ele>371</ele>
        <time>2026-08-29T12:37:08Z</time>
      </trkpt>
      <trkpt lat="50.822598338127136" lon="13.143352987244725">
        <ele>370</ele>
        <time>2026-08-29T12:37:09Z</time>
      </trkpt>
      <trkpt lat="50.822625746950507" lon="13.143278388306499">
        <ele>370</ele>
        <time>2026-08-29T12:37:10Z</time>
      </trkpt>
      <trkpt lat="50.822651227936149" lon="13.143218290060759">
        <ele>369</ele>
        <time>2026-08-29T12:37:11Z</time>
      </trkpt>
      <trkpt lat="50.822675451636314" lon="13.143155928701162">
        <ele>368</ele>
        <time>2026-08-29T12:37:12Z</time>
      </trkpt>
      <trkpt lat="50.822706129401922" lon="13.143101613968611">
        <ele>368</ele>
        <time>2026-08-29T12:37:13Z</time>
      </trkpt>
      <trkpt lat="50.82273337058723" lon="13.143043778836727">
        <ele>368</ele>
        <time>2026-08-29T12:37:14Z</time>
      </trkpt>
      <trkpt lat="50.822759103029966" lon="13.14298334531486">
        <ele>367</ele>
        <time>2026-08-29T12:37:15Z</time>
      </trkpt>
      <trkpt lat="50.822783159092069" lon="13.142920397222042">
        <ele>367</ele>
        <time>2026-08-29T12:37:16Z</time>
      </trkpt>
      <trkpt lat="50.822805790230632" lon="13.142863735556602">
        <ele>366</ele>
        <time>2026-08-29T12:37:17Z</time>
      </trkpt>
      <trkpt lat="50.822839317843318" lon="13.142804894596338">
        <ele>365</ele>
        <time>2026-08-29T12:37:18Z</time>
      </trkpt>
      <trkpt lat="50.822878461331129" lon="13.142754351720214">
        <ele>365</ele>
        <time>2026-08-29T12:37:19Z</time>
      </trkpt>
      <trkpt lat="50.82291710190475" lon="13.142708837985992">
        <ele>364</ele>
        <time>2026-08-29T12:37:20Z</time>
      </trkpt>
      <trkpt lat="50.82296404056251" lon="13.142656534910202">
        <ele>363</ele>
        <time>2026-08-29T12:37:21Z</time>
      </trkpt>
      <trkpt lat="50.82300896756351" lon="13.142611859366298">
        <ele>362</ele>
        <time>2026-08-29T12:37:22Z</time>
      </trkpt>
      <trkpt lat="50.82306319847703" lon="13.14257338643074">
        <ele>362</ele>
        <time>2026-08-29T12:37:23Z</time>
      </trkpt>
      <trkpt lat="50.823117597028613" lon="13.14253818243742">
        <ele>362</ele>
        <time>2026-08-29T12:37:24Z</time>
      </trkpt>
      <trkpt lat="50.823162440210581" lon="13.142491830512881">
        <ele>361</ele>
        <time>2026-08-29T12:37:25Z</time>
      </trkpt>
      <trkpt lat="50.823211809620261" lon="13.142443969845772">
        <ele>360</ele>
        <time>2026-08-29T12:37:26Z</time>
      </trkpt>
      <trkpt lat="50.823259251192212" lon="13.142399964854121">
        <ele>360</ele>
        <time>2026-08-29T12:37:27Z</time>
      </trkpt>
      <trkpt lat="50.823311051353812" lon="13.142356378957629">
        <ele>359</ele>
        <time>2026-08-29T12:37:28Z</time>
      </trkpt>
      <trkpt lat="50.823356229811907" lon="13.142316397279501">
        <ele>359</ele>
        <time>2026-08-29T12:37:29Z</time>
      </trkpt>
      <trkpt lat="50.82340476103127" lon="13.142287563532591">
        <ele>359</ele>
        <time>2026-08-29T12:37:30Z</time>
      </trkpt>
      <trkpt lat="50.823450777679682" lon="13.142248755320907">
        <ele>359</ele>
        <time>2026-08-29T12:37:31Z</time>
      </trkpt>
      <trkpt lat="50.823500650003552" lon="13.142220256850123">
        <ele>359</ele>
        <time>2026-08-29T12:37:32Z</time>
      </trkpt>
      <trkpt lat="50.823548259213567" lon="13.142202235758305">
        <ele>359</ele>
        <time>2026-08-29T12:37:33Z</time>
      </trkpt>
      <trkpt lat="50.823601149022579" lon="13.14219661988318">
        <ele>359</ele>
        <time>2026-08-29T12:37:34Z</time>
      </trkpt>
      <trkpt lat="50.823658481240273" lon="13.142208186909556">
        <ele>358</ele>
        <time>2026-08-29T12:37:35Z</time>
      </trkpt>
      <trkpt lat="50.82370231859386" lon="13.142235931009054">
        <ele>357</ele>
        <time>2026-08-29T12:37:36Z</time>
      </trkpt>
      <trkpt lat="50.823743473738432" lon="13.142278594896197">
        <ele>356</ele>
        <time>2026-08-29T12:37:37Z</time>
      </trkpt>
      <trkpt lat="50.823792088776827" lon="13.142322767525911">
        <ele>356</ele>
        <time>2026-08-29T12:37:38Z</time>
      </trkpt>
      <trkpt lat="50.823840368539095" lon="13.142367945984006">
        <ele>355</ele>
        <time>2026-08-29T12:37:39Z</time>
      </trkpt>
      <trkpt lat="50.823890324681997" lon="13.142414800822735">
        <ele>354</ele>
        <time>2026-08-29T12:37:40Z</time>
      </trkpt>
      <trkpt lat="50.823939023539424" lon="13.142466098070145">
        <ele>354</ele>
        <time>2026-08-29T12:37:41Z</time>
      </trkpt>
      <trkpt lat="50.82398965023458" lon="13.142514042556286">
        <ele>353</ele>
        <time>2026-08-29T12:37:42Z</time>
      </trkpt>
      <trkpt lat="50.824039941653609" lon="13.142550587654114">
        <ele>353</ele>
        <time>2026-08-29T12:37:43Z</time>
      </trkpt>
      <trkpt lat="50.824091238901019" lon="13.142579840496182">
        <ele>352</ele>
        <time>2026-08-29T12:37:44Z</time>
      </trkpt>
      <trkpt lat="50.824145637452602" lon="13.142596269026399">
        <ele>352</ele>
        <time>2026-08-29T12:37:45Z</time>
      </trkpt>
      <trkpt lat="50.824200036004186" lon="13.142598196864128">
        <ele>352</ele>
        <time>2026-08-29T12:37:46Z</time>
      </trkpt>
      <trkpt lat="50.824252339079976" lon="13.142594257369637">
        <ele>352</ele>
        <time>2026-08-29T12:37:47Z</time>
      </trkpt>
      <trkpt lat="50.824312018230557" lon="13.142580930143595">
        <ele>352</ele>
        <time>2026-08-29T12:37:48Z</time>
      </trkpt>
      <trkpt lat="50.82437320612371" lon="13.142559137195349">
        <ele>352</ele>
        <time>2026-08-29T12:37:49Z</time>
      </trkpt>
      <trkpt lat="50.824430789798498" lon="13.142543043941259">
        <ele>351</ele>
        <time>2026-08-29T12:37:50Z</time>
      </trkpt>
      <trkpt lat="50.824483931064606" lon="13.142539942637086">
        <ele>351</ele>
        <time>2026-08-29T12:37:51Z</time>
      </trkpt>
      <trkpt lat="50.82454034127295" lon="13.142548575997353">
        <ele>351</ele>
        <time>2026-08-29T12:37:52Z</time>
      </trkpt>
      <trkpt lat="50.824586525559425" lon="13.142555868253112">
        <ele>351</ele>
        <time>2026-08-29T12:37:53Z</time>
      </trkpt>
      <trkpt lat="50.824636230245233" lon="13.142563244327903">
        <ele>350</ele>
        <time>2026-08-29T12:37:54Z</time>
      </trkpt>
      <trkpt lat="50.824687611311674" lon="13.142572129145265">
        <ele>351</ele>
        <time>2026-08-29T12:37:55Z</time>
      </trkpt>
      <trkpt lat="50.824736477807164" lon="13.142608338966966">
        <ele>350</ele>
        <time>2026-08-29T12:37:56Z</time>
      </trkpt>
      <trkpt lat="50.824781069532037" lon="13.14264714717865">
        <ele>350</ele>
        <time>2026-08-29T12:37:57Z</time>
      </trkpt>
      <trkpt lat="50.824821554124355" lon="13.142688972875476">
        <ele>350</ele>
        <time>2026-08-29T12:37:58Z</time>
      </trkpt>
      <trkpt lat="50.824865391477942" lon="13.142733396962285">
        <ele>350</ele>
        <time>2026-08-29T12:37:59Z</time>
      </trkpt>
      <trkpt lat="50.824902271851897" lon="13.142769690603018">
        <ele>349</ele>
        <time>2026-08-29T12:38:00Z</time>
      </trkpt>
      <trkpt lat="50.824937308207154" lon="13.142813527956605">
        <ele>350</ele>
        <time>2026-08-29T12:38:01Z</time>
      </trkpt>
      <trkpt lat="50.824971171095967" lon="13.142864741384983">
        <ele>349</ele>
        <time>2026-08-29T12:38:02Z</time>
      </trkpt>
      <trkpt lat="50.824995562434196" lon="13.142921067774296">
        <ele>349</ele>
        <time>2026-08-29T12:38:03Z</time>
      </trkpt>
      <trkpt lat="50.825018445029855" lon="13.142981585115194">
        <ele>349</ele>
        <time>2026-08-29T12:38:04Z</time>
      </trkpt>
      <trkpt lat="50.82504509948194" lon="13.143032714724541">
        <ele>349</ele>
        <time>2026-08-29T12:38:05Z</time>
      </trkpt>
      <trkpt lat="50.825071837753057" lon="13.143090130761266">
        <ele>349</ele>
        <time>2026-08-29T12:38:06Z</time>
      </trkpt>
      <trkpt lat="50.825103688985109" lon="13.143136231228709">
        <ele>350</ele>
        <time>2026-08-29T12:38:07Z</time>
      </trkpt>
      <trkpt lat="50.825141156092286" lon="13.143181325867772">
        <ele>350</ele>
        <time>2026-08-29T12:38:08Z</time>
      </trkpt>
      <trkpt lat="50.825170576572418" lon="13.143225582316518">
        <ele>350</ele>
        <time>2026-08-29T12:38:09Z</time>
      </trkpt>
      <trkpt lat="50.825200080871582" lon="13.143259780481458">
        <ele>350</ele>
        <time>2026-08-29T12:38:10Z</time>
      </trkpt>
      <trkpt lat="50.825233943760395" lon="13.143290374428034">
        <ele>351</ele>
        <time>2026-08-29T12:38:11Z</time>
      </trkpt>
      <trkpt lat="50.825267387554049" lon="13.143315017223358">
        <ele>351</ele>
        <time>2026-08-29T12:38:12Z</time>
      </trkpt>
      <trkpt lat="50.825290689244866" lon="13.143335720524192">
        <ele>351</ele>
        <time>2026-08-29T12:38:13Z</time>
      </trkpt>
      <trkpt lat="50.825305860489607" lon="13.143344353884459">
        <ele>351</ele>
        <time>2026-08-29T12:38:14Z</time>
      </trkpt>
      <trkpt lat="50.825316589325666" lon="13.143362291157246">
        <ele>351</ele>
        <time>2026-08-29T12:38:15Z</time>
      </trkpt>
      <trkpt lat="50.825334945693612" lon="13.143372349441051">
        <ele>351</ele>
        <time>2026-08-29T12:38:16Z</time>
      </trkpt>
      <trkpt lat="50.825359672307968" lon="13.143367823213339">
        <ele>351</ele>
        <time>2026-08-29T12:38:17Z</time>
      </trkpt>
      <trkpt lat="50.825379202142358" lon="13.143352903425694">
        <ele>351</ele>
        <time>2026-08-29T12:38:18Z</time>
      </trkpt>
      <trkpt lat="50.82539739087224" lon="13.143337061628699">
        <ele>351</ele>
        <time>2026-08-29T12:38:19Z</time>
      </trkpt>
      <trkpt lat="50.825410718098283" lon="13.143303282558918">
        <ele>351</ele>
        <time>2026-08-29T12:38:20Z</time>
      </trkpt>
      <trkpt lat="50.825421446934342" lon="13.14327553845942">
        <ele>351</ele>
        <time>2026-08-29T12:38:21Z</time>
      </trkpt>
      <trkpt lat="50.82543158903718" lon="13.143242765218019">
        <ele>351</ele>
        <time>2026-08-29T12:38:22Z</time>
      </trkpt>
      <trkpt lat="50.82545162178576" lon="13.143215272575617">
        <ele>351</ele>
        <time>2026-08-29T12:38:23Z</time>
      </trkpt>
      <trkpt lat="50.825467379763722" lon="13.143179649487138">
        <ele>351</ele>
        <time>2026-08-29T12:38:24Z</time>
      </trkpt>
      <trkpt lat="50.825486071407795" lon="13.143145367503166">
        <ele>351</ele>
        <time>2026-08-29T12:38:25Z</time>
      </trkpt>
      <trkpt lat="50.825505768880248" lon="13.14311133697629">
        <ele>351</ele>
        <time>2026-08-29T12:38:26Z</time>
      </trkpt>
      <trkpt lat="50.825531585142016" lon="13.143075630068779">
        <ele>351</ele>
        <time>2026-08-29T12:38:27Z</time>
      </trkpt>
      <trkpt lat="50.825556479394436" lon="13.143039839342237">
        <ele>351</ele>
        <time>2026-08-29T12:38:28Z</time>
      </trkpt>
      <trkpt lat="50.82558112218976" lon="13.143003713339567">
        <ele>351</ele>
        <time>2026-08-29T12:38:29Z</time>
      </trkpt>
      <trkpt lat="50.825603669509292" lon="13.142972365021706">
        <ele>351</ele>
        <time>2026-08-29T12:38:30Z</time>
      </trkpt>
      <trkpt lat="50.825625378638506" lon="13.142939759418368">
        <ele>351</ele>
        <time>2026-08-29T12:38:31Z</time>
      </trkpt>
      <trkpt lat="50.825647423043847" lon="13.142907824367285">
        <ele>351</ele>
        <time>2026-08-29T12:38:32Z</time>
      </trkpt>
      <trkpt lat="50.825674161314964" lon="13.142874883487821">
        <ele>351</ele>
        <time>2026-08-29T12:38:33Z</time>
      </trkpt>
      <trkpt lat="50.825699558481574" lon="13.142850073054433">
        <ele>351</ele>
        <time>2026-08-29T12:38:34Z</time>
      </trkpt>
      <trkpt lat="50.825728978961706" lon="13.142818305641413">
        <ele>351</ele>
        <time>2026-08-29T12:38:35Z</time>
      </trkpt>
      <trkpt lat="50.825752280652523" lon="13.142788214609027">
        <ele>351</ele>
        <time>2026-08-29T12:38:36Z</time>
      </trkpt>
      <trkpt lat="50.825780192390084" lon="13.142759464681149">
        <ele>351</ele>
        <time>2026-08-29T12:38:37Z</time>
      </trkpt>
      <trkpt lat="50.825809193775058" lon="13.142729206010699">
        <ele>351</ele>
        <time>2026-08-29T12:38:38Z</time>
      </trkpt>
      <trkpt lat="50.825833920389414" lon="13.142697354778647">
        <ele>351</ele>
        <time>2026-08-29T12:38:39Z</time>
      </trkpt>
      <trkpt lat="50.825861748307943" lon="13.142660977318883">
        <ele>351</ele>
        <time>2026-08-29T12:38:40Z</time>
      </trkpt>
      <trkpt lat="50.825892761349678" lon="13.142634071409702">
        <ele>351</ele>
        <time>2026-08-29T12:38:41Z</time>
      </trkpt>
      <trkpt lat="50.82592410966754" lon="13.142598699778318">
        <ele>351</ele>
        <time>2026-08-29T12:38:42Z</time>
      </trkpt>
      <trkpt lat="50.825952189043164" lon="13.142573134973645">
        <ele>351</ele>
        <time>2026-08-29T12:38:43Z</time>
      </trkpt>
      <trkpt lat="50.825978759676218" lon="13.142542373389006">
        <ele>352</ele>
        <time>2026-08-29T12:38:44Z</time>
      </trkpt>
      <trkpt lat="50.826005078852177" lon="13.142517143860459">
        <ele>352</ele>
        <time>2026-08-29T12:38:45Z</time>
      </trkpt>
      <trkpt lat="50.826036175712943" lon="13.142488477751613">
        <ele>352</ele>
        <time>2026-08-29T12:38:46Z</time>
      </trkpt>
      <trkpt lat="50.826061321422458" lon="13.142465930432081">
        <ele>351</ele>
        <time>2026-08-29T12:38:47Z</time>
      </trkpt>
      <trkpt lat="50.826083617284894" lon="13.142426200211048">
        <ele>352</ele>
        <time>2026-08-29T12:38:48Z</time>
      </trkpt>
      <trkpt lat="50.826115887612104" lon="13.142388565465808">
        <ele>351</ele>
        <time>2026-08-29T12:38:49Z</time>
      </trkpt>
      <trkpt lat="50.826138770207763" lon="13.142350511625409">
        <ele>352</ele>
        <time>2026-08-29T12:38:50Z</time>
      </trkpt>
      <trkpt lat="50.826162239536643" lon="13.142311368137598">
        <ele>352</ele>
        <time>2026-08-29T12:38:51Z</time>
      </trkpt>
      <trkpt lat="50.82619140855968" lon="13.142277672886848">
        <ele>352</ele>
        <time>2026-08-29T12:38:52Z</time>
      </trkpt>
      <trkpt lat="50.826220409944654" lon="13.142242468893528">
        <ele>352</ele>
        <time>2026-08-29T12:38:53Z</time>
      </trkpt>
      <trkpt lat="50.82625150680542" lon="13.14220785163343">
        <ele>353</ele>
        <time>2026-08-29T12:38:54Z</time>
      </trkpt>
      <trkpt lat="50.826278831809759" lon="13.142173737287521">
        <ele>353</ele>
        <time>2026-08-29T12:38:55Z</time>
      </trkpt>
      <trkpt lat="50.826302971690893" lon="13.142134342342615">
        <ele>353</ele>
        <time>2026-08-29T12:38:56Z</time>
      </trkpt>
      <trkpt lat="50.826327111572027" lon="13.142103161662817">
        <ele>353</ele>
        <time>2026-08-29T12:38:57Z</time>
      </trkpt>
      <trkpt lat="50.826353682205081" lon="13.142066868022084">
        <ele>353</ele>
        <time>2026-08-29T12:38:58Z</time>
      </trkpt>
      <trkpt lat="50.826376313343644" lon="13.142033172771335">
        <ele>354</ele>
        <time>2026-08-29T12:38:59Z</time>
      </trkpt>
      <trkpt lat="50.82640397362411" lon="13.141987910494208">
        <ele>354</ele>
        <time>2026-08-29T12:39:00Z</time>
      </trkpt>
      <trkpt lat="50.826426688581705" lon="13.141943486407399">
        <ele>354</ele>
        <time>2026-08-29T12:39:01Z</time>
      </trkpt>
      <trkpt lat="50.826460551470518" lon="13.141896883025765">
        <ele>354</ele>
        <time>2026-08-29T12:39:02Z</time>
      </trkpt>
      <trkpt lat="50.82648603245616" lon="13.141853380948305">
        <ele>354</ele>
        <time>2026-08-29T12:39:03Z</time>
      </trkpt>
      <trkpt lat="50.82652467302978" lon="13.141799485310912">
        <ele>354</ele>
        <time>2026-08-29T12:39:04Z</time>
      </trkpt>
      <trkpt lat="50.826552920043468" lon="13.141756234690547">
        <ele>354</ele>
        <time>2026-08-29T12:39:05Z</time>
      </trkpt>
      <trkpt lat="50.826575635001063" lon="13.141716085374355">
        <ele>354</ele>
        <time>2026-08-29T12:39:06Z</time>
      </trkpt>
      <trkpt lat="50.826598685234785" lon="13.141672499477863">
        <ele>354</ele>
        <time>2026-08-29T12:39:07Z</time>
      </trkpt>
      <trkpt lat="50.826619220897555" lon="13.141631595790386">
        <ele>354</ele>
        <time>2026-08-29T12:39:08Z</time>
      </trkpt>
      <trkpt lat="50.826645037159324" lon="13.141587926074862">
        <ele>353</ele>
        <time>2026-08-29T12:39:09Z</time>
      </trkpt>
      <trkpt lat="50.826676469296217" lon="13.141539227217436">
        <ele>353</ele>
        <time>2026-08-29T12:39:10Z</time>
      </trkpt>
      <trkpt lat="50.826700190082192" lon="13.141493462026119">
        <ele>354</ele>
        <time>2026-08-29T12:39:11Z</time>
      </trkpt>
      <trkpt lat="50.826726844534278" lon="13.141424227505922">
        <ele>354</ele>
        <time>2026-08-29T12:39:12Z</time>
      </trkpt>
      <trkpt lat="50.826749140396714" lon="13.141372678801417">
        <ele>354</ele>
        <time>2026-08-29T12:39:13Z</time>
      </trkpt>
      <trkpt lat="50.826768418774009" lon="13.141313921660185">
        <ele>354</ele>
        <time>2026-08-29T12:39:14Z</time>
      </trkpt>
      <trkpt lat="50.826789038255811" lon="13.141260193660855">
        <ele>353</ele>
        <time>2026-08-29T12:39:15Z</time>
      </trkpt>
      <trkpt lat="50.826813178136945" lon="13.141203112900257">
        <ele>353</ele>
        <time>2026-08-29T12:39:16Z</time>
      </trkpt>
      <trkpt lat="50.826835306361318" lon="13.141157263889909">
        <ele>353</ele>
        <time>2026-08-29T12:39:17Z</time>
      </trkpt>
      <trkpt lat="50.826861960813403" lon="13.14111384563148">
        <ele>354</ele>
        <time>2026-08-29T12:39:18Z</time>
      </trkpt>
      <trkpt lat="50.826881742104888" lon="13.141071433201432">
        <ele>353</ele>
        <time>2026-08-29T12:39:19Z</time>
      </trkpt>
      <trkpt lat="50.826907390728593" lon="13.141018794849515">
        <ele>354</ele>
        <time>2026-08-29T12:39:20Z</time>
      </trkpt>
      <trkpt lat="50.826927674934268" lon="13.140964396297932">
        <ele>353</ele>
        <time>2026-08-29T12:39:21Z</time>
      </trkpt>
      <trkpt lat="50.826949551701546" lon="13.140908489003778">
        <ele>353</ele>
        <time>2026-08-29T12:39:22Z</time>
      </trkpt>
      <trkpt lat="50.826970925554633" lon="13.140846211463213">
        <ele>353</ele>
        <time>2026-08-29T12:39:23Z</time>
      </trkpt>
      <trkpt lat="50.82698835991323" lon="13.140784185379744">
        <ele>352</ele>
        <time>2026-08-29T12:39:24Z</time>
      </trkpt>
      <trkpt lat="50.827009230852127" lon="13.140712101012468">
        <ele>353</ele>
        <time>2026-08-29T12:39:25Z</time>
      </trkpt>
      <trkpt lat="50.827032700181007" lon="13.14064278267324">
        <ele>353</ele>
        <time>2026-08-29T12:39:26Z</time>
      </trkpt>
      <trkpt lat="50.827060025185347" lon="13.140581091865897">
        <ele>352</ele>
        <time>2026-08-29T12:39:27Z</time>
      </trkpt>
      <trkpt lat="50.827084416523576" lon="13.140508253127337">
        <ele>352</ele>
        <time>2026-08-29T12:39:28Z</time>
      </trkpt>
      <trkpt lat="50.827112328261137" lon="13.140448406338692">
        <ele>353</ele>
        <time>2026-08-29T12:39:29Z</time>
      </trkpt>
      <trkpt lat="50.827141581103206" lon="13.140407418832183">
        <ele>352</ele>
        <time>2026-08-29T12:39:30Z</time>
      </trkpt>
      <trkpt lat="50.827173097059131" lon="13.140349583700299">
        <ele>352</ele>
        <time>2026-08-29T12:39:31Z</time>
      </trkpt>
      <trkpt lat="50.827206959947944" lon="13.140285965055227">
        <ele>351</ele>
        <time>2026-08-29T12:39:32Z</time>
      </trkpt>
      <trkpt lat="50.827235793694854" lon="13.140220250934362">
        <ele>351</ele>
        <time>2026-08-29T12:39:33Z</time>
      </trkpt>
      <trkpt lat="50.82726395688951" lon="13.140154872089624">
        <ele>352</ele>
        <time>2026-08-29T12:39:34Z</time>
      </trkpt>
      <trkpt lat="50.827298825606704" lon="13.140088822692633">
        <ele>351</ele>
        <time>2026-08-29T12:39:35Z</time>
      </trkpt>
      <trkpt lat="50.827331012114882" lon="13.140024114400148">
        <ele>351</ele>
        <time>2026-08-29T12:39:36Z</time>
      </trkpt>
      <trkpt lat="50.827357582747936" lon="13.139951191842556">
        <ele>352</ele>
        <time>2026-08-29T12:39:37Z</time>
      </trkpt>
      <trkpt lat="50.827385829761624" lon="13.139888914301991">
        <ele>352</ele>
        <time>2026-08-29T12:39:38Z</time>
      </trkpt>
      <trkpt lat="50.827415585517883" lon="13.139822361990809">
        <ele>352</ele>
        <time>2026-08-29T12:39:39Z</time>
      </trkpt>
      <trkpt lat="50.827443413436413" lon="13.139761425554752">
        <ele>352</ele>
        <time>2026-08-29T12:39:40Z</time>
      </trkpt>
      <trkpt lat="50.827476941049099" lon="13.139701494947076">
        <ele>353</ele>
        <time>2026-08-29T12:39:41Z</time>
      </trkpt>
      <trkpt lat="50.827512312680483" lon="13.139636535197496">
        <ele>353</ele>
        <time>2026-08-29T12:39:42Z</time>
      </trkpt>
      <trkpt lat="50.82754542119801" lon="13.13958004117012">
        <ele>353</ele>
        <time>2026-08-29T12:39:43Z</time>
      </trkpt>
      <trkpt lat="50.827582636848092" lon="13.139511812478304">
        <ele>353</ele>
        <time>2026-08-29T12:39:44Z</time>
      </trkpt>
      <trkpt lat="50.827609794214368" lon="13.139450876042247">
        <ele>353</ele>
        <time>2026-08-29T12:39:45Z</time>
      </trkpt>
      <trkpt lat="50.82765094935894" lon="13.139387257397175">
        <ele>353</ele>
        <time>2026-08-29T12:39:46Z</time>
      </trkpt>
      <trkpt lat="50.827690009027719" lon="13.139320956543088">
        <ele>354</ele>
        <time>2026-08-29T12:39:47Z</time>
      </trkpt>
      <trkpt lat="50.827724207192659" lon="13.13926731236279">
        <ele>354</ele>
        <time>2026-08-29T12:39:48Z</time>
      </trkpt>
      <trkpt lat="50.827760500833392" lon="13.13921257853508">
        <ele>354</ele>
        <time>2026-08-29T12:39:49Z</time>
      </trkpt>
      <trkpt lat="50.82780584692955" lon="13.139173518866301">
        <ele>355</ele>
        <time>2026-08-29T12:39:50Z</time>
      </trkpt>
      <trkpt lat="50.827853623777628" lon="13.139149211347103">
        <ele>355</ele>
        <time>2026-08-29T12:39:51Z</time>
      </trkpt>
      <trkpt lat="50.827898802235723" lon="13.139122975990176">
        <ele>355</ele>
        <time>2026-08-29T12:39:52Z</time>
      </trkpt>
      <trkpt lat="50.827940460294485" lon="13.139092801138759">
        <ele>355</ele>
        <time>2026-08-29T12:39:53Z</time>
      </trkpt>
      <trkpt lat="50.827982285991311" lon="13.139085089787841">
        <ele>355</ele>
        <time>2026-08-29T12:39:54Z</time>
      </trkpt>
      <trkpt lat="50.828027129173279" lon="13.139067320153117">
        <ele>355</ele>
        <time>2026-08-29T12:39:55Z</time>
      </trkpt>
      <trkpt lat="50.828070379793644" lon="13.139056926593184">
        <ele>354</ele>
        <time>2026-08-29T12:39:56Z</time>
      </trkpt>
      <trkpt lat="50.828113211318851" lon="13.139041839167476">
        <ele>355</ele>
        <time>2026-08-29T12:39:57Z</time>
      </trkpt>
      <trkpt lat="50.82815176807344" lon="13.139028931036592">
        <ele>356</ele>
        <time>2026-08-29T12:39:58Z</time>
      </trkpt>
      <trkpt lat="50.828191163018346" lon="13.13902297988534">
        <ele>356</ele>
        <time>2026-08-29T12:39:59Z</time>
      </trkpt>
      <trkpt lat="50.828227456659079" lon="13.139019040390849">
        <ele>356</ele>
        <time>2026-08-29T12:40:00Z</time>
      </trkpt>
      <trkpt lat="50.828267857432365" lon="13.139021806418896">
        <ele>357</ele>
        <time>2026-08-29T12:40:01Z</time>
      </trkpt>
      <trkpt lat="50.828311108052731" lon="13.139038737863302">
        <ele>356</ele>
        <time>2026-08-29T12:40:02Z</time>
      </trkpt>
      <trkpt lat="50.828350838273764" lon="13.139044353738427">
        <ele>356</ele>
        <time>2026-08-29T12:40:03Z</time>
      </trkpt>
      <trkpt lat="50.828383360058069" lon="13.139050723984838">
        <ele>355</ele>
        <time>2026-08-29T12:40:04Z</time>
      </trkpt>
      <trkpt lat="50.828426275402308" lon="13.139056088402867">
        <ele>355</ele>
        <time>2026-08-29T12:40:05Z</time>
      </trkpt>
      <trkpt lat="50.828469274565578" lon="13.139070756733418">
        <ele>355</ele>
        <time>2026-08-29T12:40:06Z</time>
      </trkpt>
      <trkpt lat="50.828514453023672" lon="13.139087939634919">
        <ele>355</ele>
        <time>2026-08-29T12:40:07Z</time>
      </trkpt>
      <trkpt lat="50.828564828261733" lon="13.139108726754785">
        <ele>355</ele>
        <time>2026-08-29T12:40:08Z</time>
      </trkpt>
      <trkpt lat="50.828613862395287" lon="13.139140075072646">
        <ele>355</ele>
        <time>2026-08-29T12:40:09Z</time>
      </trkpt>
      <trkpt lat="50.828666668385267" lon="13.139156755059958">
        <ele>355</ele>
        <time>2026-08-29T12:40:10Z</time>
      </trkpt>
      <trkpt lat="50.828729029744864" lon="13.13917201012373">
        <ele>355</ele>
        <time>2026-08-29T12:40:11Z</time>
      </trkpt>
      <trkpt lat="50.828791139647365" lon="13.139202184975147">
        <ele>354</ele>
        <time>2026-08-29T12:40:12Z</time>
      </trkpt>
      <trkpt lat="50.828854171559215" lon="13.139235125854611">
        <ele>353</ele>
        <time>2026-08-29T12:40:13Z</time>
      </trkpt>
      <trkpt lat="50.828917371109128" lon="13.139250883832574">
        <ele>352</ele>
        <time>2026-08-29T12:40:14Z</time>
      </trkpt>
      <trkpt lat="50.828977469354868" lon="13.139286674559116">
        <ele>352</ele>
        <time>2026-08-29T12:40:15Z</time>
      </trkpt>
      <trkpt lat="50.829041171818972" lon="13.139333361759782">
        <ele>351</ele>
        <time>2026-08-29T12:40:16Z</time>
      </trkpt>
      <trkpt lat="50.829102694988251" lon="13.139392370358109">
        <ele>351</ele>
        <time>2026-08-29T12:40:17Z</time>
      </trkpt>
      <trkpt lat="50.829160530120134" lon="13.139449954032898">
        <ele>350</ele>
        <time>2026-08-29T12:40:18Z</time>
      </trkpt>
      <trkpt lat="50.829215180128813" lon="13.139510471373796">
        <ele>350</ele>
        <time>2026-08-29T12:40:19Z</time>
      </trkpt>
      <trkpt lat="50.829274272546172" lon="13.139576353132725">
        <ele>350</ele>
        <time>2026-08-29T12:40:20Z</time>
      </trkpt>
      <trkpt lat="50.8293367177248" lon="13.139655645936728">
        <ele>349</ele>
        <time>2026-08-29T12:40:21Z</time>
      </trkpt>
      <trkpt lat="50.829388853162527" lon="13.139729239046574">
        <ele>349</ele>
        <time>2026-08-29T12:40:22Z</time>
      </trkpt>
      <trkpt lat="50.829450879245996" lon="13.139797803014517">
        <ele>349</ele>
        <time>2026-08-29T12:40:23Z</time>
      </trkpt>
      <trkpt lat="50.829520281404257" lon="13.139874832704663">
        <ele>348</ele>
        <time>2026-08-29T12:40:24Z</time>
      </trkpt>
      <trkpt lat="50.829587001353502" lon="13.13994599506259">
        <ele>348</ele>
        <time>2026-08-29T12:40:25Z</time>
      </trkpt>
      <trkpt lat="50.82965481095016" lon="13.140005590394139">
        <ele>348</ele>
        <time>2026-08-29T12:40:26Z</time>
      </trkpt>
      <trkpt lat="50.829724716022611" lon="13.140066275373101">
        <ele>347</ele>
        <time>2026-08-29T12:40:27Z</time>
      </trkpt>
      <trkpt lat="50.829802248626947" lon="13.140126792714">
        <ele>347</ele>
        <time>2026-08-29T12:40:28Z</time>
      </trkpt>
      <trkpt lat="50.829883133992553" lon="13.140177503228188">
        <ele>347</ele>
        <time>2026-08-29T12:40:29Z</time>
      </trkpt>
      <trkpt lat="50.829959996044636" lon="13.14022159203887">
        <ele>346</ele>
        <time>2026-08-29T12:40:30Z</time>
      </trkpt>
      <trkpt lat="50.830051191151142" lon="13.140255119651556">
        <ele>346</ele>
        <time>2026-08-29T12:40:31Z</time>
      </trkpt>
      <trkpt lat="50.830138446763158" lon="13.140284456312656">
        <ele>346</ele>
        <time>2026-08-29T12:40:32Z</time>
      </trkpt>
      <trkpt lat="50.830225786194205" lon="13.140311948955059">
        <ele>346</ele>
        <time>2026-08-29T12:40:33Z</time>
      </trkpt>
      <trkpt lat="50.830325614660978" lon="13.140320414677262">
        <ele>346</ele>
        <time>2026-08-29T12:40:34Z</time>
      </trkpt>
      <trkpt lat="50.830419408157468" lon="13.140312200412154">
        <ele>345</ele>
        <time>2026-08-29T12:40:35Z</time>
      </trkpt>
      <trkpt lat="50.830508340150118" lon="13.140303483232856">
        <ele>345</ele>
        <time>2026-08-29T12:40:36Z</time>
      </trkpt>
      <trkpt lat="50.830588638782501" lon="13.140303064137697">
        <ele>345</ele>
        <time>2026-08-29T12:40:37Z</time>
      </trkpt>
      <trkpt lat="50.830662231892347" lon="13.140305578708649">
        <ele>344</ele>
        <time>2026-08-29T12:40:38Z</time>
      </trkpt>
      <trkpt lat="50.8307268563658" lon="13.14031295478344">
        <ele>344</ele>
        <time>2026-08-29T12:40:39Z</time>
      </trkpt>
      <trkpt lat="50.830783937126398" lon="13.140321420505643">
        <ele>344</ele>
        <time>2026-08-29T12:40:40Z</time>
      </trkpt>
      <trkpt lat="50.830829283222556" lon="13.140321336686611">
        <ele>344</ele>
        <time>2026-08-29T12:40:41Z</time>
      </trkpt>
      <trkpt lat="50.83085929043591" lon="13.140321839600801">
        <ele>344</ele>
        <time>2026-08-29T12:40:42Z</time>
      </trkpt>
      <trkpt lat="50.83087588660419" lon="13.140315050259233">
        <ele>344</ele>
        <time>2026-08-29T12:40:43Z</time>
      </trkpt>
      <trkpt lat="50.830878736451268" lon="13.140312703326344">
        <ele>344</ele>
        <time>2026-08-29T12:40:44Z</time>
      </trkpt>
      <trkpt lat="50.830869600176811" lon="13.140314547345042">
        <ele>344</ele>
        <time>2026-08-29T12:40:45Z</time>
      </trkpt>
      <trkpt lat="50.830862894654274" lon="13.140313792973757">
        <ele>344</ele>
        <time>2026-08-29T12:40:46Z</time>
      </trkpt>
      <trkpt lat="50.830861888825893" lon="13.140322007238865">
        <ele>344</ele>
        <time>2026-08-29T12:40:47Z</time>
      </trkpt>
      <trkpt lat="50.83086172118783" lon="13.140323264524341">
        <ele>344</ele>
        <time>2026-08-29T12:40:48Z</time>
      </trkpt>
      <trkpt lat="50.83086172118783" lon="13.140324102714658">
        <ele>344</ele>
        <time>2026-08-29T12:40:49Z</time>
      </trkpt>
      <trkpt lat="50.830859458073974" lon="13.140332568436861">
        <ele>344</ele>
        <time>2026-08-29T12:40:50Z</time>
      </trkpt>
      <trkpt lat="50.830857614055276" lon="13.140341201797128">
        <ele>344</ele>
        <time>2026-08-29T12:40:51Z</time>
      </trkpt>
      <trkpt lat="50.830856189131737" lon="13.140342878177762">
        <ele>344</ele>
        <time>2026-08-29T12:40:52Z</time>
      </trkpt>
      <trkpt lat="50.830856021493673" lon="13.140350505709648">
        <ele>344</ele>
        <time>2026-08-29T12:40:53Z</time>
      </trkpt>
      <trkpt lat="50.830853087827563" lon="13.140356037765741">
        <ele>344</ele>
        <time>2026-08-29T12:40:54Z</time>
      </trkpt>
      <trkpt lat="50.8308529201895" lon="13.140354445204139">
        <ele>344</ele>
        <time>2026-08-29T12:40:55Z</time>
      </trkpt>
      <trkpt lat="50.830854009836912" lon="13.1403530202806">
        <ele>344</ele>
        <time>2026-08-29T12:40:56Z</time>
      </trkpt>
      <trkpt lat="50.830857865512371" lon="13.140346314758062">
        <ele>344</ele>
        <time>2026-08-29T12:40:57Z</time>
      </trkpt>
      <trkpt lat="50.830853590741754" lon="13.140352265909314">
        <ele>344</ele>
        <time>2026-08-29T12:40:58Z</time>
      </trkpt>
      <trkpt lat="50.830853590741754" lon="13.140352265909314">
        <ele>344</ele>
        <time>2026-08-29T12:40:59Z</time>
      </trkpt>
      <trkpt lat="50.830851746723056" lon="13.140350170433521">
        <ele>344</ele>
        <time>2026-08-29T12:41:00Z</time>
      </trkpt>
      <trkpt lat="50.83085585385561" lon="13.140347404405475">
        <ele>344</ele>
        <time>2026-08-29T12:41:01Z</time>
      </trkpt>
      <trkpt lat="50.830862978473306" lon="13.140340447425842">
        <ele>343</ele>
        <time>2026-08-29T12:41:02Z</time>
      </trkpt>
      <trkpt lat="50.830879993736744" lon="13.140325443819165">
        <ele>343</ele>
        <time>2026-08-29T12:41:03Z</time>
      </trkpt>
      <trkpt lat="50.830903463065624" lon="13.140323767438531">
        <ele>343</ele>
        <time>2026-08-29T12:41:04Z</time>
      </trkpt>
      <trkpt lat="50.830927100032568" lon="13.140336591750383">
        <ele>343</ele>
        <time>2026-08-29T12:41:05Z</time>
      </trkpt>
      <trkpt lat="50.830950485542417" lon="13.140330724418163">
        <ele>343</ele>
        <time>2026-08-29T12:41:06Z</time>
      </trkpt>
      <trkpt lat="50.830975044518709" lon="13.140341620892286">
        <ele>343</ele>
        <time>2026-08-29T12:41:07Z</time>
      </trkpt>
      <trkpt lat="50.831001028418541" lon="13.140339776873589">
        <ele>342</ele>
        <time>2026-08-29T12:41:08Z</time>
      </trkpt>
      <trkpt lat="50.831036400049925" lon="13.140327287837863">
        <ele>342</ele>
        <time>2026-08-29T12:41:09Z</time>
      </trkpt>
      <trkpt lat="50.83107721991837" lon="13.140309937298298">
        <ele>342</ele>
        <time>2026-08-29T12:41:10Z</time>
      </trkpt>
      <trkpt lat="50.831120889633894" lon="13.140272051095963">
        <ele>343</ele>
        <time>2026-08-29T12:41:11Z</time>
      </trkpt>
      <trkpt lat="50.831169839948416" lon="13.140237601473927">
        <ele>342</ele>
        <time>2026-08-29T12:41:12Z</time>
      </trkpt>
      <trkpt lat="50.831212420016527" lon="13.140207510441542">
        <ele>342</ele>
        <time>2026-08-29T12:41:13Z</time>
      </trkpt>
      <trkpt lat="50.831256257370114" lon="13.140171803534031">
        <ele>341</ele>
        <time>2026-08-29T12:41:14Z</time>
      </trkpt>
      <trkpt lat="50.83129707723856" lon="13.140123691409826">
        <ele>341</ele>
        <time>2026-08-29T12:41:15Z</time>
      </trkpt>
      <trkpt lat="50.83133228123188" lon="13.14006619155407">
        <ele>341</ele>
        <time>2026-08-29T12:41:16Z</time>
      </trkpt>
      <trkpt lat="50.83136010915041" lon="13.139992095530033">
        <ele>340</ele>
        <time>2026-08-29T12:41:17Z</time>
      </trkpt>
      <trkpt lat="50.83139187656343" lon="13.139907941222191">
        <ele>340</ele>
        <time>2026-08-29T12:41:18Z</time>
      </trkpt>
      <trkpt lat="50.83141434006393" lon="13.139824457466602">
        <ele>339</ele>
        <time>2026-08-29T12:41:19Z</time>
      </trkpt>
      <trkpt lat="50.831426326185465" lon="13.139733513817191">
        <ele>340</ele>
        <time>2026-08-29T12:41:20Z</time>
      </trkpt>
      <trkpt lat="50.831430684775114" lon="13.139649191871285">
        <ele>340</ele>
        <time>2026-08-29T12:41:21Z</time>
      </trkpt>
      <trkpt lat="50.831423308700323" lon="13.139561517164111">
        <ele>339</ele>
        <time>2026-08-29T12:41:22Z</time>
      </trkpt>
      <trkpt lat="50.831416686996818" lon="13.139473674818873">
        <ele>339</ele>
        <time>2026-08-29T12:41:23Z</time>
      </trkpt>
      <trkpt lat="50.83140998147428" lon="13.139395220205188">
        <ele>340</ele>
        <time>2026-08-29T12:41:24Z</time>
      </trkpt>
      <trkpt lat="50.831403024494648" lon="13.1393151730299">
        <ele>340</ele>
        <time>2026-08-29T12:41:25Z</time>
      </trkpt>
      <trkpt lat="50.831400509923697" lon="13.139239987358451">
        <ele>340</ele>
        <time>2026-08-29T12:41:26Z</time>
      </trkpt>
      <trkpt lat="50.831396821886301" lon="13.139159018173814">
        <ele>340</ele>
        <time>2026-08-29T12:41:27Z</time>
      </trkpt>
      <trkpt lat="50.831393888220191" lon="13.139082072302699">
        <ele>340</ele>
        <time>2026-08-29T12:41:28Z</time>
      </trkpt>
      <trkpt lat="50.831392630934715" lon="13.139004539698362">
        <ele>340</ele>
        <time>2026-08-29T12:41:29Z</time>
      </trkpt>
      <trkpt lat="50.831395899876952" lon="13.138919211924076">
        <ele>340</ele>
        <time>2026-08-29T12:41:30Z</time>
      </trkpt>
      <trkpt lat="50.831400426104665" lon="13.138838997110724">
        <ele>340</ele>
        <time>2026-08-29T12:41:31Z</time>
      </trkpt>
      <trkpt lat="50.83140067756176" lon="13.138753166422248">
        <ele>341</ele>
        <time>2026-08-29T12:41:32Z</time>
      </trkpt>
      <trkpt lat="50.831399168819189" lon="13.138666078448296">
        <ele>340</ele>
        <time>2026-08-29T12:41:33Z</time>
      </trkpt>
      <trkpt lat="50.831401599571109" lon="13.138570357114077">
        <ele>340</ele>
        <time>2026-08-29T12:41:34Z</time>
      </trkpt>
      <trkpt lat="50.831412160769105" lon="13.138480838388205">
        <ele>339</ele>
        <time>2026-08-29T12:41:35Z</time>
      </trkpt>
      <trkpt lat="50.831427918747067" lon="13.138396432623267">
        <ele>339</ele>
        <time>2026-08-29T12:41:36Z</time>
      </trkpt>
      <trkpt lat="50.831438731402159" lon="13.138305153697729">
        <ele>339</ele>
        <time>2026-08-29T12:41:37Z</time>
      </trkpt>
      <trkpt lat="50.831454489380121" lon="13.138217898085713">
        <ele>339</ele>
        <time>2026-08-29T12:41:38Z</time>
      </trkpt>
      <trkpt lat="50.831469744443893" lon="13.138135755434632">
        <ele>339</ele>
        <time>2026-08-29T12:41:39Z</time>
      </trkpt>
      <trkpt lat="50.831496063619852" lon="13.13805696554482">
        <ele>338</ele>
        <time>2026-08-29T12:41:40Z</time>
      </trkpt>
      <trkpt lat="50.831519030034542" lon="13.137985048815608">
        <ele>338</ele>
        <time>2026-08-29T12:41:41Z</time>
      </trkpt>
      <trkpt lat="50.831546187400818" lon="13.137927716597915">
        <ele>338</ele>
        <time>2026-08-29T12:41:42Z</time>
      </trkpt>
      <trkpt lat="50.831568818539381" lon="13.13786594197154">
        <ele>338</ele>
        <time>2026-08-29T12:41:43Z</time>
      </trkpt>
      <trkpt lat="50.831598825752735" lon="13.137800144031644">
        <ele>338</ele>
        <time>2026-08-29T12:41:44Z</time>
      </trkpt>
      <trkpt lat="50.831624893471599" lon="13.137749349698424">
        <ele>338</ele>
        <time>2026-08-29T12:41:45Z</time>
      </trkpt>
      <trkpt lat="50.831657750532031" lon="13.137690173462033">
        <ele>339</ele>
        <time>2026-08-29T12:41:46Z</time>
      </trkpt>
      <trkpt lat="50.831684907898307" lon="13.137639379128814">
        <ele>339</ele>
        <time>2026-08-29T12:41:47Z</time>
      </trkpt>
      <trkpt lat="50.831719944253564" lon="13.137594619765878">
        <ele>338</ele>
        <time>2026-08-29T12:41:48Z</time>
      </trkpt>
      <trkpt lat="50.831753555685282" lon="13.137548854574561">
        <ele>338</ele>
        <time>2026-08-29T12:41:49Z</time>
      </trkpt>
      <trkpt lat="50.831787418574095" lon="13.137507783249021">
        <ele>339</ele>
        <time>2026-08-29T12:41:50Z</time>
      </trkpt>
      <trkpt lat="50.831832345575094" lon="13.137477859854698">
        <ele>338</ele>
        <time>2026-08-29T12:41:51Z</time>
      </trkpt>
      <trkpt lat="50.831869728863239" lon="13.137462604790926">
        <ele>339</ele>
        <time>2026-08-29T12:41:52Z</time>
      </trkpt>
      <trkpt lat="50.831921612843871" lon="13.137454641982913">
        <ele>339</ele>
        <time>2026-08-29T12:41:53Z</time>
      </trkpt>
      <trkpt lat="50.831976179033518" lon="13.137448020279408">
        <ele>339</ele>
        <time>2026-08-29T12:41:54Z</time>
      </trkpt>
      <trkpt lat="50.83202320151031" lon="13.137456569820642">
        <ele>338</ele>
        <time>2026-08-29T12:41:55Z</time>
      </trkpt>
      <trkpt lat="50.832064859569073" lon="13.137484146282077">
        <ele>339</ele>
        <time>2026-08-29T12:41:56Z</time>
      </trkpt>
      <trkpt lat="50.832111043855548" lon="13.137511303648353">
        <ele>338</ele>
        <time>2026-08-29T12:41:57Z</time>
      </trkpt>
      <trkpt lat="50.832158233970404" lon="13.137551620602608">
        <ele>338</ele>
        <time>2026-08-29T12:41:58Z</time>
      </trkpt>
      <trkpt lat="50.832205591723323" lon="13.137591183185577">
        <ele>338</ele>
        <time>2026-08-29T12:41:59Z</time>
      </trkpt>
      <trkpt lat="50.832250770181417" lon="13.137637367472053">
        <ele>337</ele>
        <time>2026-08-29T12:42:00Z</time>
      </trkpt>
      <trkpt lat="50.832297457382083" lon="13.137693107128143">
        <ele>337</ele>
        <time>2026-08-29T12:42:01Z</time>
      </trkpt>
      <trkpt lat="50.832345234230161" lon="13.13773937523365">
        <ele>338</ele>
        <time>2026-08-29T12:42:02Z</time>
      </trkpt>
      <trkpt lat="50.832388987764716" lon="13.137798048555851">
        <ele>337</ele>
        <time>2026-08-29T12:42:03Z</time>
      </trkpt>
      <trkpt lat="50.832434501498938" lon="13.137855716049671">
        <ele>337</ele>
        <time>2026-08-29T12:42:04Z</time>
      </trkpt>
      <trkpt lat="50.832483367994428" lon="13.137903492897749">
        <ele>337</ele>
        <time>2026-08-29T12:42:05Z</time>
      </trkpt>
      <trkpt lat="50.832528378814459" lon="13.137950180098414">
        <ele>337</ele>
        <time>2026-08-29T12:42:06Z</time>
      </trkpt>
      <trkpt lat="50.832569869235158" lon="13.1380027346313">
        <ele>337</ele>
        <time>2026-08-29T12:42:07Z</time>
      </trkpt>
      <trkpt lat="50.832617478445172" lon="13.13804866746068">
        <ele>336</ele>
        <time>2026-08-29T12:42:08Z</time>
      </trkpt>
      <trkpt lat="50.83266475237906" lon="13.138093929737806">
        <ele>336</ele>
        <time>2026-08-29T12:42:09Z</time>
      </trkpt>
      <trkpt lat="50.832715211436152" lon="13.138133743777871">
        <ele>336</ele>
        <time>2026-08-29T12:42:10Z</time>
      </trkpt>
      <trkpt lat="50.832758797332644" lon="13.13816593028605">
        <ele>336</ele>
        <time>2026-08-29T12:42:11Z</time>
      </trkpt>
      <trkpt lat="50.832802886143327" lon="13.138206833973527">
        <ele>336</ele>
        <time>2026-08-29T12:42:12Z</time>
      </trkpt>
      <trkpt lat="50.832847477868199" lon="13.138251090422273">
        <ele>336</ele>
        <time>2026-08-29T12:42:13Z</time>
      </trkpt>
      <trkpt lat="50.83289978094399" lon="13.138292664662004">
        <ele>336</ele>
        <time>2026-08-29T12:42:14Z</time>
      </trkpt>
      <trkpt lat="50.832946971058846" lon="13.138337004929781">
        <ele>335</ele>
        <time>2026-08-29T12:42:15Z</time>
      </trkpt>
      <trkpt lat="50.832995418459177" lon="13.13838142901659">
        <ele>335</ele>
        <time>2026-08-29T12:42:16Z</time>
      </trkpt>
      <trkpt lat="50.833043782040477" lon="13.138421243056655">
        <ele>335</ele>
        <time>2026-08-29T12:42:17Z</time>
      </trkpt>
      <trkpt lat="50.833098851144314" lon="13.138455860316753">
        <ele>335</ele>
        <time>2026-08-29T12:42:18Z</time>
      </trkpt>
      <trkpt lat="50.833153249695897" lon="13.138493997976184">
        <ele>335</ele>
        <time>2026-08-29T12:42:19Z</time>
      </trkpt>
      <trkpt lat="50.833205217495561" lon="13.138526938855648">
        <ele>335</ele>
        <time>2026-08-29T12:42:20Z</time>
      </trkpt>
      <trkpt lat="50.833260118961334" lon="13.138559460639954">
        <ele>335</ele>
        <time>2026-08-29T12:42:21Z</time>
      </trkpt>
      <trkpt lat="50.833317870274186" lon="13.138593658804893">
        <ele>335</ele>
        <time>2026-08-29T12:42:22Z</time>
      </trkpt>
      <trkpt lat="50.833373107016087" lon="13.138630287721753">
        <ele>335</ele>
        <time>2026-08-29T12:42:23Z</time>
      </trkpt>
      <trkpt lat="50.8334328699857" lon="13.138663396239281">
        <ele>335</ele>
        <time>2026-08-29T12:42:24Z</time>
      </trkpt>
      <trkpt lat="50.833491627126932" lon="13.13869122415781">
        <ele>334</ele>
        <time>2026-08-29T12:42:25Z</time>
      </trkpt>
      <trkpt lat="50.833544181659818" lon="13.13872198574245">
        <ele>335</ele>
        <time>2026-08-29T12:42:26Z</time>
      </trkpt>
      <trkpt lat="50.833595478907228" lon="13.138754004612565">
        <ele>335</ele>
        <time>2026-08-29T12:42:27Z</time>
      </trkpt>
      <trkpt lat="50.833650380373001" lon="13.138783257454634">
        <ele>335</ele>
        <time>2026-08-29T12:42:28Z</time>
      </trkpt>
      <trkpt lat="50.83370896987617" lon="13.138794237747788">
        <ele>336</ele>
        <time>2026-08-29T12:42:29Z</time>
      </trkpt>
      <trkpt lat="50.833769822493196" lon="13.138807564973831">
        <ele>336</ele>
        <time>2026-08-29T12:42:30Z</time>
      </trkpt>
      <trkpt lat="50.833823718130589" lon="13.138806642964482">
        <ele>336</ele>
        <time>2026-08-29T12:42:31Z</time>
      </trkpt>
      <trkpt lat="50.83388146944344" lon="13.138802787289023">
        <ele>336</ele>
        <time>2026-08-29T12:42:32Z</time>
      </trkpt>
      <trkpt lat="50.833938885480165" lon="13.138806894421577">
        <ele>336</ele>
        <time>2026-08-29T12:42:33Z</time>
      </trkpt>
      <trkpt lat="50.833990769460797" lon="13.138802535831928">
        <ele>336</ele>
        <time>2026-08-29T12:42:34Z</time>
      </trkpt>
      <trkpt lat="50.834044581279159" lon="13.138796333223581">
        <ele>336</ele>
        <time>2026-08-29T12:42:35Z</time>
      </trkpt>
      <trkpt lat="50.834104930981994" lon="13.138792812824249">
        <ele>336</ele>
        <time>2026-08-29T12:42:36Z</time>
      </trkpt>
      <trkpt lat="50.834165867418051" lon="13.138776551932096">
        <ele>336</ele>
        <time>2026-08-29T12:42:37Z</time>
      </trkpt>
      <trkpt lat="50.834221020340919" lon="13.13877671957016">
        <ele>336</ele>
        <time>2026-08-29T12:42:38Z</time>
      </trkpt>
      <trkpt lat="50.834277262911201" lon="13.138759536668658">
        <ele>336</ele>
        <time>2026-08-29T12:42:39Z</time>
      </trkpt>
      <trkpt lat="50.8343256264925" lon="13.138736821711063">
        <ele>336</ele>
        <time>2026-08-29T12:42:40Z</time>
      </trkpt>
      <trkpt lat="50.834375582635403" lon="13.138718381524086">
        <ele>335</ele>
        <time>2026-08-29T12:42:41Z</time>
      </trkpt>
      <trkpt lat="50.834432831034064" lon="13.138700695708394">
        <ele>335</ele>
        <time>2026-08-29T12:42:42Z</time>
      </trkpt>
      <trkpt lat="50.834484128281474" lon="13.138683512806892">
        <ele>336</ele>
        <time>2026-08-29T12:42:43Z</time>
      </trkpt>
      <trkpt lat="50.834539867937565" lon="13.138660043478012">
        <ele>335</ele>
        <time>2026-08-29T12:42:44Z</time>
      </trkpt>
      <trkpt lat="50.834588734433055" lon="13.13864135183394">
        <ele>335</ele>
        <time>2026-08-29T12:42:45Z</time>
      </trkpt>
      <trkpt lat="50.834639947861433" lon="13.138626515865326">
        <ele>335</ele>
        <time>2026-08-29T12:42:46Z</time>
      </trkpt>
      <trkpt lat="50.834697363898158" lon="13.13862768933177">
        <ele>335</ele>
        <time>2026-08-29T12:42:47Z</time>
      </trkpt>
      <trkpt lat="50.834753522649407" lon="13.138634981587529">
        <ele>334</ele>
        <time>2026-08-29T12:42:48Z</time>
      </trkpt>
      <trkpt lat="50.834805071353912" lon="13.138632634654641">
        <ele>334</ele>
        <time>2026-08-29T12:42:49Z</time>
      </trkpt>
      <trkpt lat="50.834859721362591" lon="13.138621989637613">
        <ele>334</ele>
        <time>2026-08-29T12:42:50Z</time>
      </trkpt>
      <trkpt lat="50.834912108257413" lon="13.138608746230602">
        <ele>335</ele>
        <time>2026-08-29T12:42:51Z</time>
      </trkpt>
      <trkpt lat="50.834954353049397" lon="13.138607153669">
        <ele>335</ele>
        <time>2026-08-29T12:42:52Z</time>
      </trkpt>
      <trkpt lat="50.835004393011332" lon="13.13859935849905">
        <ele>335</ele>
        <time>2026-08-29T12:42:53Z</time>
      </trkpt>
      <trkpt lat="50.835055019706488" lon="13.138585444539785">
        <ele>335</ele>
        <time>2026-08-29T12:42:54Z</time>
      </trkpt>
      <trkpt lat="50.835106819868088" lon="13.138600951060653">
        <ele>335</ele>
        <time>2026-08-29T12:42:55Z</time>
      </trkpt>
      <trkpt lat="50.835157698020339" lon="13.138606986030936">
        <ele>335</ele>
        <time>2026-08-29T12:42:56Z</time>
      </trkpt>
      <trkpt lat="50.835206061601639" lon="13.138618636876345">
        <ele>335</ele>
        <time>2026-08-29T12:42:57Z</time>
      </trkpt>
      <trkpt lat="50.835251659154892" lon="13.138623079285026">
        <ele>335</ele>
        <time>2026-08-29T12:42:58Z</time>
      </trkpt>
      <trkpt lat="50.835298094898462" lon="13.138622995465994">
        <ele>334</ele>
        <time>2026-08-29T12:42:59Z</time>
      </trkpt>
      <trkpt lat="50.835346458479762" lon="13.138634394854307">
        <ele>334</ele>
        <time>2026-08-29T12:43:00Z</time>
      </trkpt>
      <trkpt lat="50.835397252812982" lon="13.138639340177178">
        <ele>334</ele>
        <time>2026-08-29T12:43:01Z</time>
      </trkpt>
      <trkpt lat="50.835448047146201" lon="13.138643279671669">
        <ele>334</ele>
        <time>2026-08-29T12:43:02Z</time>
      </trkpt>
      <trkpt lat="50.835504038259387" lon="13.138647889718413">
        <ele>333</ele>
        <time>2026-08-29T12:43:03Z</time>
      </trkpt>
      <trkpt lat="50.835553994402289" lon="13.138655265793204">
        <ele>333</ele>
        <time>2026-08-29T12:43:04Z</time>
      </trkpt>
      <trkpt lat="50.835606632754207" lon="13.138666832819581">
        <ele>334</ele>
        <time>2026-08-29T12:43:05Z</time>
      </trkpt>
      <trkpt lat="50.835660360753536" lon="13.138679154217243">
        <ele>334</ele>
        <time>2026-08-29T12:43:06Z</time>
      </trkpt>
      <trkpt lat="50.835715429857373" lon="13.138689883053303">
        <ele>334</ele>
        <time>2026-08-29T12:43:07Z</time>
      </trkpt>
      <trkpt lat="50.835765888914466" lon="13.138691894710064">
        <ele>333</ele>
        <time>2026-08-29T12:43:08Z</time>
      </trkpt>
      <trkpt lat="50.835821628570557" lon="13.138698264956474">
        <ele>333</ele>
        <time>2026-08-29T12:43:09Z</time>
      </trkpt>
      <trkpt lat="50.835878290235996" lon="13.138706311583519">
        <ele>334</ele>
        <time>2026-08-29T12:43:10Z</time>
      </trkpt>
      <trkpt lat="50.835927492007613" lon="13.138708071783185">
        <ele>334</ele>
        <time>2026-08-29T12:43:11Z</time>
      </trkpt>
      <trkpt lat="50.835973508656025" lon="13.138702791184187">
        <ele>333</ele>
        <time>2026-08-29T12:43:12Z</time>
      </trkpt>
      <trkpt lat="50.836024051532149" lon="13.13869901932776">
        <ele>333</ele>
        <time>2026-08-29T12:43:13Z</time>
      </trkpt>
      <trkpt lat="50.836078450083733" lon="13.138705724850297">
        <ele>333</ele>
        <time>2026-08-29T12:43:14Z</time>
      </trkpt>
      <trkpt lat="50.83613108843565" lon="13.138702036812901">
        <ele>333</ele>
        <time>2026-08-29T12:43:15Z</time>
      </trkpt>
      <trkpt lat="50.836183559149504" lon="13.138702791184187">
        <ele>333</ele>
        <time>2026-08-29T12:43:16Z</time>
      </trkpt>
      <trkpt lat="50.836234772577882" lon="13.138709580525756">
        <ele>334</ele>
        <time>2026-08-29T12:43:17Z</time>
      </trkpt>
      <trkpt lat="50.836289338767529" lon="13.138710418716073">
        <ele>334</ele>
        <time>2026-08-29T12:43:18Z</time>
      </trkpt>
      <trkpt lat="50.836333679035306" lon="13.138700863346457">
        <ele>334</ele>
        <time>2026-08-29T12:43:19Z</time>
      </trkpt>
      <trkpt lat="50.836381707340479" lon="13.138687871396542">
        <ele>334</ele>
        <time>2026-08-29T12:43:20Z</time>
      </trkpt>
      <trkpt lat="50.836432836949825" lon="13.138685608282685">
        <ele>334</ele>
        <time>2026-08-29T12:43:21Z</time>
      </trkpt>
      <trkpt lat="50.836477428674698" lon="13.138685440644622">
        <ele>333</ele>
        <time>2026-08-29T12:43:22Z</time>
      </trkpt>
      <trkpt lat="50.836534341797233" lon="13.138668676838279">
        <ele>333</ele>
        <time>2026-08-29T12:43:23Z</time>
      </trkpt>
      <trkpt lat="50.836586561053991" lon="13.138664066791534">
        <ele>333</ele>
        <time>2026-08-29T12:43:24Z</time>
      </trkpt>
      <trkpt lat="50.836636601015925" lon="13.138647302985191">
        <ele>333</ele>
        <time>2026-08-29T12:43:25Z</time>
      </trkpt>
      <trkpt lat="50.836690329015255" lon="13.138629198074341">
        <ele>333</ele>
        <time>2026-08-29T12:43:26Z</time>
      </trkpt>
      <trkpt lat="50.836738524958491" lon="13.138616541400552">
        <ele>333</ele>
        <time>2026-08-29T12:43:27Z</time>
      </trkpt>
      <trkpt lat="50.836786217987537" lon="13.138591479510069">
        <ele>334</ele>
        <time>2026-08-29T12:43:28Z</time>
      </trkpt>
      <trkpt lat="50.836835503578186" lon="13.138572787865996">
        <ele>334</ele>
        <time>2026-08-29T12:43:29Z</time>
      </trkpt>
      <trkpt lat="50.836887136101723" lon="13.138548564165831">
        <ele>334</ele>
        <time>2026-08-29T12:43:30Z</time>
      </trkpt>
      <trkpt lat="50.836938014253974" lon="13.138530878350139">
        <ele>334</ele>
        <time>2026-08-29T12:43:31Z</time>
      </trkpt>
      <trkpt lat="50.836991239339113" lon="13.138514701277018">
        <ele>333</ele>
        <time>2026-08-29T12:43:32Z</time>
      </trkpt>
      <trkpt lat="50.837045051157475" lon="13.138490812852979">
        <ele>334</ele>
        <time>2026-08-29T12:43:33Z</time>
      </trkpt>
      <trkpt lat="50.837100790813565" lon="13.138461811468005">
        <ele>333</ele>
        <time>2026-08-29T12:43:34Z</time>
      </trkpt>
      <trkpt lat="50.837148567661643" lon="13.138428954407573">
        <ele>333</ele>
        <time>2026-08-29T12:43:35Z</time>
      </trkpt>
      <trkpt lat="50.837197182700038" lon="13.138401713222265">
        <ele>332</ele>
        <time>2026-08-29T12:43:36Z</time>
      </trkpt>
      <trkpt lat="50.837247055023909" lon="13.138377657160163">
        <ele>332</ele>
        <time>2026-08-29T12:43:37Z</time>
      </trkpt>
      <trkpt lat="50.837298352271318" lon="13.138348236680031">
        <ele>332</ele>
        <time>2026-08-29T12:43:38Z</time>
      </trkpt>
      <trkpt lat="50.837351744994521" lon="13.138318313285708">
        <ele>332</ele>
        <time>2026-08-29T12:43:39Z</time>
      </trkpt>
      <trkpt lat="50.837406059727073" lon="13.138288892805576">
        <ele>333</ele>
        <time>2026-08-29T12:43:40Z</time>
      </trkpt>
      <trkpt lat="50.837456686422229" lon="13.138254191726446">
        <ele>332</ele>
        <time>2026-08-29T12:43:41Z</time>
      </trkpt>
      <trkpt lat="50.837502367794514" lon="13.138215215876698">
        <ele>332</ele>
        <time>2026-08-29T12:43:42Z</time>
      </trkpt>
      <trkpt lat="50.837545869871974" lon="13.138176826760173">
        <ele>332</ele>
        <time>2026-08-29T12:43:43Z</time>
      </trkpt>
      <trkpt lat="50.837588449940085" lon="13.138131145387888">
        <ele>332</ele>
        <time>2026-08-29T12:43:44Z</time>
      </trkpt>
      <trkpt lat="50.837626000866294" lon="13.138092840090394">
        <ele>332</ele>
        <time>2026-08-29T12:43:45Z</time>
      </trkpt>
      <trkpt lat="50.837665563449264" lon="13.138047326356173">
        <ele>332</ele>
        <time>2026-08-29T12:43:46Z</time>
      </trkpt>
      <trkpt lat="50.837704036384821" lon="13.13800809904933">
        <ele>331</ele>
        <time>2026-08-29T12:43:47Z</time>
      </trkpt>
      <trkpt lat="50.837749550119042" lon="13.137962082400918">
        <ele>331</ele>
        <time>2026-08-29T12:43:48Z</time>
      </trkpt>
      <trkpt lat="50.837796740233898" lon="13.137935511767864">
        <ele>331</ele>
        <time>2026-08-29T12:43:49Z</time>
      </trkpt>
      <trkpt lat="50.837843846529722" lon="13.137894021347165">
        <ele>331</ele>
        <time>2026-08-29T12:43:50Z</time>
      </trkpt>
      <trkpt lat="50.837886929512024" lon="13.137850100174546">
        <ele>331</ele>
        <time>2026-08-29T12:43:51Z</time>
      </trkpt>
      <trkpt lat="50.837928922846913" lon="13.137796288356185">
        <ele>330</ele>
        <time>2026-08-29T12:43:52Z</time>
      </trkpt>
      <trkpt lat="50.837979381904006" lon="13.137743817642331">
        <ele>330</ele>
        <time>2026-08-29T12:43:53Z</time>
      </trkpt>
      <trkpt lat="50.838026320561767" lon="13.13770953565836">
        <ele>330</ele>
        <time>2026-08-29T12:43:54Z</time>
      </trkpt>
      <trkpt lat="50.838073007762432" lon="13.137672571465373">
        <ele>330</ele>
        <time>2026-08-29T12:43:55Z</time>
      </trkpt>
      <trkpt lat="50.838114330545068" lon="13.137633847072721">
        <ele>330</ele>
        <time>2026-08-29T12:43:56Z</time>
      </trkpt>
      <trkpt lat="50.838148780167103" lon="13.137594535946846">
        <ele>330</ele>
        <time>2026-08-29T12:43:57Z</time>
      </trkpt>
      <trkpt lat="50.838194712996483" lon="13.137554554268718">
        <ele>330</ele>
        <time>2026-08-29T12:43:58Z</time>
      </trkpt>
      <trkpt lat="50.83823611959815" lon="13.137501664459705">
        <ele>330</ele>
        <time>2026-08-29T12:43:59Z</time>
      </trkpt>
      <trkpt lat="50.838274508714676" lon="13.1374432425946">
        <ele>330</ele>
        <time>2026-08-29T12:44:00Z</time>
      </trkpt>
      <trkpt lat="50.838316669687629" lon="13.137383982539177">
        <ele>330</ele>
        <time>2026-08-29T12:44:01Z</time>
      </trkpt>
      <trkpt lat="50.838362351059914" lon="13.137331008911133">
        <ele>330</ele>
        <time>2026-08-29T12:44:02Z</time>
      </trkpt>
      <trkpt lat="50.838403170928359" lon="13.137263702228665">
        <ele>329</ele>
        <time>2026-08-29T12:44:03Z</time>
      </trkpt>
      <trkpt lat="50.838444996625185" lon="13.137195892632008">
        <ele>329</ele>
        <time>2026-08-29T12:44:04Z</time>
      </trkpt>
      <trkpt lat="50.838498389348388" lon="13.13713981769979">
        <ele>329</ele>
        <time>2026-08-29T12:44:05Z</time>
      </trkpt>
      <trkpt lat="50.838546250015497" lon="13.137087263166904">
        <ele>329</ele>
        <time>2026-08-29T12:44:06Z</time>
      </trkpt>
      <trkpt lat="50.838578939437866" lon="13.137025153264403">
        <ele>329</ele>
        <time>2026-08-29T12:44:07Z</time>
      </trkpt>
      <trkpt lat="50.838607521727681" lon="13.136956254020333">
        <ele>329</ele>
        <time>2026-08-29T12:44:08Z</time>
      </trkpt>
      <trkpt lat="50.838650269433856" lon="13.136905962601304">
        <ele>329</ele>
        <time>2026-08-29T12:44:09Z</time>
      </trkpt>
      <trkpt lat="50.83871154114604" lon="13.136862544342875">
        <ele>329</ele>
        <time>2026-08-29T12:44:10Z</time>
      </trkpt>
      <trkpt lat="50.838758647441864" lon="13.136820131912827">
        <ele>328</ele>
        <time>2026-08-29T12:44:11Z</time>
      </trkpt>
      <trkpt lat="50.838802820071578" lon="13.136767912656069">
        <ele>328</ele>
        <time>2026-08-29T12:44:12Z</time>
      </trkpt>
      <trkpt lat="50.838839951902628" lon="13.136703874915838">
        <ele>328</ele>
        <time>2026-08-29T12:44:13Z</time>
      </trkpt>
      <trkpt lat="50.838877754285932" lon="13.136643944308162">
        <ele>329</ele>
        <time>2026-08-29T12:44:14Z</time>
      </trkpt>
      <trkpt lat="50.838916394859552" lon="13.136578733101487">
        <ele>329</ele>
        <time>2026-08-29T12:44:15Z</time>
      </trkpt>
      <trkpt lat="50.838950509205461" lon="13.136529196053743">
        <ele>328</ele>
        <time>2026-08-29T12:44:16Z</time>
      </trkpt>
      <trkpt lat="50.838989485055208" lon="13.136474126949906">
        <ele>329</ele>
        <time>2026-08-29T12:44:17Z</time>
      </trkpt>
      <trkpt lat="50.839025443419814" lon="13.136410592123866">
        <ele>329</ele>
        <time>2026-08-29T12:44:18Z</time>
      </trkpt>
      <trkpt lat="50.839064000174403" lon="13.136352421715856">
        <ele>329</ele>
        <time>2026-08-29T12:44:19Z</time>
      </trkpt>
      <trkpt lat="50.839095348492265" lon="13.136299783363938">
        <ele>328</ele>
        <time>2026-08-29T12:44:20Z</time>
      </trkpt>
      <trkpt lat="50.83913566544652" lon="13.136232141405344">
        <ele>329</ele>
        <time>2026-08-29T12:44:21Z</time>
      </trkpt>
      <trkpt lat="50.839174389839172" lon="13.136159470304847">
        <ele>329</ele>
        <time>2026-08-29T12:44:22Z</time>
      </trkpt>
      <trkpt lat="50.839217137545347" lon="13.1361014675349">
        <ele>330</ele>
        <time>2026-08-29T12:44:23Z</time>
      </trkpt>
      <trkpt lat="50.839249407872558" lon="13.136046063154936">
        <ele>330</ele>
        <time>2026-08-29T12:44:24Z</time>
      </trkpt>
      <trkpt lat="50.839281091466546" lon="13.135999962687492">
        <ele>330</ele>
        <time>2026-08-29T12:44:25Z</time>
      </trkpt>
      <trkpt lat="50.839306488633156" lon="13.135954029858112">
        <ele>330</ele>
        <time>2026-08-29T12:44:26Z</time>
      </trkpt>
      <trkpt lat="50.839330041781068" lon="13.13590943813324">
        <ele>329</ele>
        <time>2026-08-29T12:44:27Z</time>
      </trkpt>
      <trkpt lat="50.839367089793086" lon="13.13585814088583">
        <ele>329</ele>
        <time>2026-08-29T12:44:28Z</time>
      </trkpt>
      <trkpt lat="50.839387038722634" lon="13.135789074003696">
        <ele>330</ele>
        <time>2026-08-29T12:44:29Z</time>
      </trkpt>
      <trkpt lat="50.839422158896923" lon="13.13573157414794">
        <ele>329</ele>
        <time>2026-08-29T12:44:30Z</time>
      </trkpt>
      <trkpt lat="50.83944789133966" lon="13.135673152282834">
        <ele>329</ele>
        <time>2026-08-29T12:44:31Z</time>
      </trkpt>
      <trkpt lat="50.839479407295585" lon="13.135624704882503">
        <ele>329</ele>
        <time>2026-08-29T12:44:32Z</time>
      </trkpt>
      <trkpt lat="50.839518802240491" lon="13.135569635778666">
        <ele>328</ele>
        <time>2026-08-29T12:44:33Z</time>
      </trkpt>
      <trkpt lat="50.839552832767367" lon="13.135509369894862">
        <ele>328</ele>
        <time>2026-08-29T12:44:34Z</time>
      </trkpt>
      <trkpt lat="50.83959155716002" lon="13.135444410145283">
        <ele>328</ele>
        <time>2026-08-29T12:44:35Z</time>
      </trkpt>
      <trkpt lat="50.839627347886562" lon="13.135382132604718">
        <ele>328</ele>
        <time>2026-08-29T12:44:36Z</time>
      </trkpt>
      <trkpt lat="50.839662551879883" lon="13.13531968742609">
        <ele>328</ele>
        <time>2026-08-29T12:44:37Z</time>
      </trkpt>
      <trkpt lat="50.839703120291233" lon="13.135254811495543">
        <ele>328</ele>
        <time>2026-08-29T12:44:38Z</time>
      </trkpt>
      <trkpt lat="50.839735558256507" lon="13.135196892544627">
        <ele>328</ele>
        <time>2026-08-29T12:44:39Z</time>
      </trkpt>
      <trkpt lat="50.839766068384051" lon="13.135134447365999">
        <ele>327</ele>
        <time>2026-08-29T12:44:40Z</time>
      </trkpt>
      <trkpt lat="50.839799344539642" lon="13.135082060471177">
        <ele>327</ele>
        <time>2026-08-29T12:44:41Z</time>
      </trkpt>
      <trkpt lat="50.839833207428455" lon="13.135015172883868">
        <ele>327</ele>
        <time>2026-08-29T12:44:42Z</time>
      </trkpt>
      <trkpt lat="50.839858520776033" lon="13.134943675249815">
        <ele>327</ele>
        <time>2026-08-29T12:44:43Z</time>
      </trkpt>
      <trkpt lat="50.839888276532292" lon="13.134885672479868">
        <ele>327</ele>
        <time>2026-08-29T12:44:44Z</time>
      </trkpt>
      <trkpt lat="50.839919373393059" lon="13.134816689416766">
        <ele>327</ele>
        <time>2026-08-29T12:44:45Z</time>
      </trkpt>
      <trkpt lat="50.839957343414426" lon="13.134755836799741">
        <ele>327</ele>
        <time>2026-08-29T12:44:46Z</time>
      </trkpt>
      <trkpt lat="50.839993469417095" lon="13.134694481268525">
        <ele>327</ele>
        <time>2026-08-29T12:44:47Z</time>
      </trkpt>
      <trkpt lat="50.840028338134289" lon="13.134626168757677">
        <ele>327</ele>
        <time>2026-08-29T12:44:48Z</time>
      </trkpt>
      <trkpt lat="50.840061781927943" lon="13.134563807398081">
        <ele>327</ele>
        <time>2026-08-29T12:44:49Z</time>
      </trkpt>
      <trkpt lat="50.840088771656156" lon="13.134504882618785">
        <ele>327</ele>
        <time>2026-08-29T12:44:50Z</time>
      </trkpt>
      <trkpt lat="50.840124981477857" lon="13.134448723867536">
        <ele>327</ele>
        <time>2026-08-29T12:44:51Z</time>
      </trkpt>
      <trkpt lat="50.840156245976686" lon="13.134382087737322">
        <ele>328</ele>
        <time>2026-08-29T12:44:52Z</time>
      </trkpt>
      <trkpt lat="50.840187929570675" lon="13.134323582053185">
        <ele>328</ele>
        <time>2026-08-29T12:44:53Z</time>
      </trkpt>
      <trkpt lat="50.840217852964997" lon="13.1342588737607">
        <ele>327</ele>
        <time>2026-08-29T12:44:54Z</time>
      </trkpt>
      <trkpt lat="50.840241238474846" lon="13.134196428582072">
        <ele>328</ele>
        <time>2026-08-29T12:44:55Z</time>
      </trkpt>
      <trkpt lat="50.8402678091079" lon="13.134137336164713">
        <ele>328</ele>
        <time>2026-08-29T12:44:56Z</time>
      </trkpt>
      <trkpt lat="50.840292451903224" lon="13.134069442749023">
        <ele>328</ele>
        <time>2026-08-29T12:44:57Z</time>
      </trkpt>
      <trkpt lat="50.840316256508231" lon="13.133996604010463">
        <ele>329</ele>
        <time>2026-08-29T12:44:58Z</time>
      </trkpt>
      <trkpt lat="50.840335451066494" lon="13.133923010900617">
        <ele>329</ele>
        <time>2026-08-29T12:44:59Z</time>
      </trkpt>
      <trkpt lat="50.840356657281518" lon="13.133856626227498">
        <ele>329</ele>
        <time>2026-08-29T12:45:00Z</time>
      </trkpt>
      <trkpt lat="50.840375851839781" lon="13.13378831371665">
        <ele>329</ele>
        <time>2026-08-29T12:45:01Z</time>
      </trkpt>
      <trkpt lat="50.840390184894204" lon="13.133727042004466">
        <ele>328</ele>
        <time>2026-08-29T12:45:02Z</time>
      </trkpt>
      <trkpt lat="50.840408708900213" lon="13.133661998435855">
        <ele>328</ele>
        <time>2026-08-29T12:45:03Z</time>
      </trkpt>
      <trkpt lat="50.840428909286857" lon="13.133592680096626">
        <ele>329</ele>
        <time>2026-08-29T12:45:04Z</time>
      </trkpt>
      <trkpt lat="50.840446008369327" lon="13.133533671498299">
        <ele>328</ele>
        <time>2026-08-29T12:45:05Z</time>
      </trkpt>
      <trkpt lat="50.840459587052464" lon="13.133473573252559">
        <ele>329</ele>
        <time>2026-08-29T12:45:06Z</time>
      </trkpt>
      <trkpt lat="50.840475680306554" lon="13.133417163044214">
        <ele>329</ele>
        <time>2026-08-29T12:45:07Z</time>
      </trkpt>
      <trkpt lat="50.840494958683848" lon="13.133361088111997">
        <ele>329</ele>
        <time>2026-08-29T12:45:08Z</time>
      </trkpt>
      <trkpt lat="50.840513817965984" lon="13.133299732580781">
        <ele>329</ele>
        <time>2026-08-29T12:45:09Z</time>
      </trkpt>
      <trkpt lat="50.840528067201376" lon="13.133248351514339">
        <ele>329</ele>
        <time>2026-08-29T12:45:10Z</time>
      </trkpt>
      <trkpt lat="50.840539382770658" lon="13.133185738697648">
        <ele>330</ele>
        <time>2026-08-29T12:45:11Z</time>
      </trkpt>
      <trkpt lat="50.840560337528586" lon="13.133131843060255">
        <ele>331</ele>
        <time>2026-08-29T12:45:12Z</time>
      </trkpt>
      <trkpt lat="50.84057467058301" lon="13.133083898574114">
        <ele>331</ele>
        <time>2026-08-29T12:45:13Z</time>
      </trkpt>
      <trkpt lat="50.840594870969653" lon="13.133033942431211">
        <ele>331</ele>
        <time>2026-08-29T12:45:14Z</time>
      </trkpt>
      <trkpt lat="50.840613981708884" lon="13.132970072329044">
        <ele>332</ele>
        <time>2026-08-29T12:45:15Z</time>
      </trkpt>
      <trkpt lat="50.840627728030086" lon="13.132918858900666">
        <ele>332</ele>
        <time>2026-08-29T12:45:16Z</time>
      </trkpt>
      <trkpt lat="50.840647676959634" lon="13.132861191406846">
        <ele>331</ele>
        <time>2026-08-29T12:45:17Z</time>
      </trkpt>
      <trkpt lat="50.840671649202704" lon="13.13280813395977">
        <ele>331</ele>
        <time>2026-08-29T12:45:18Z</time>
      </trkpt>
      <trkpt lat="50.840696459636092" lon="13.132752394303679">
        <ele>331</ele>
        <time>2026-08-29T12:45:19Z</time>
      </trkpt>
      <trkpt lat="50.840710792690516" lon="13.132688021287322">
        <ele>331</ele>
        <time>2026-08-29T12:45:20Z</time>
      </trkpt>
      <trkpt lat="50.840728897601366" lon="13.132629683241248">
        <ele>331</ele>
        <time>2026-08-29T12:45:21Z</time>
      </trkpt>
      <trkpt lat="50.840744068846107" lon="13.132558688521385">
        <ele>330</ele>
        <time>2026-08-29T12:45:22Z</time>
      </trkpt>
      <trkpt lat="50.84076234139502" lon="13.132496746256948">
        <ele>330</ele>
        <time>2026-08-29T12:45:23Z</time>
      </trkpt>
      <trkpt lat="50.840782122686505" lon="13.132433043792844">
        <ele>330</ele>
        <time>2026-08-29T12:45:24Z</time>
      </trkpt>
      <trkpt lat="50.840806849300861" lon="13.132380908355117">
        <ele>331</ele>
        <time>2026-08-29T12:45:25Z</time>
      </trkpt>
      <trkpt lat="50.840825289487839" lon="13.132319469004869">
        <ele>331</ele>
        <time>2026-08-29T12:45:26Z</time>
      </trkpt>
      <trkpt lat="50.840849429368973" lon="13.132270518690348">
        <ele>331</ele>
        <time>2026-08-29T12:45:27Z</time>
      </trkpt>
      <trkpt lat="50.84087616764009" lon="13.132223831489682">
        <ele>331</ele>
        <time>2026-08-29T12:45:28Z</time>
      </trkpt>
      <trkpt lat="50.840903157368302" lon="13.132173959165812">
        <ele>331</ele>
        <time>2026-08-29T12:45:29Z</time>
      </trkpt>
      <trkpt lat="50.840930147096515" lon="13.132132049649954">
        <ele>331</ele>
        <time>2026-08-29T12:45:30Z</time>
      </trkpt>
      <trkpt lat="50.840951772406697" lon="13.132086368277669">
        <ele>331</ele>
        <time>2026-08-29T12:45:31Z</time>
      </trkpt>
      <trkpt lat="50.840969625860453" lon="13.132047643885016">
        <ele>331</ele>
        <time>2026-08-29T12:45:32Z</time>
      </trkpt>
      <trkpt lat="50.840986724942923" lon="13.132006572559476">
        <ele>331</ele>
        <time>2026-08-29T12:45:33Z</time>
      </trkpt>
      <trkpt lat="50.841006506234407" lon="13.131965920329094">
        <ele>331</ele>
        <time>2026-08-29T12:45:34Z</time>
      </trkpt>
      <trkpt lat="50.841027377173305" lon="13.13192225061357">
        <ele>331</ele>
        <time>2026-08-29T12:45:35Z</time>
      </trkpt>
      <trkpt lat="50.841048499569297" lon="13.131884783506393">
        <ele>331</ele>
        <time>2026-08-29T12:45:36Z</time>
      </trkpt>
      <trkpt lat="50.841066939756274" lon="13.131847316399217">
        <ele>331</ele>
        <time>2026-08-29T12:45:37Z</time>
      </trkpt>
      <trkpt lat="50.841096276417375" lon="13.131812028586864">
        <ele>332</ele>
        <time>2026-08-29T12:45:38Z</time>
      </trkpt>
      <trkpt lat="50.841122847050428" lon="13.131774477660656">
        <ele>332</ele>
        <time>2026-08-29T12:45:39Z</time>
      </trkpt>
      <trkpt lat="50.841145310550928" lon="13.131727455183864">
        <ele>332</ele>
        <time>2026-08-29T12:45:40Z</time>
      </trkpt>
      <trkpt lat="50.841169115155935" lon="13.131682947278023">
        <ele>332</ele>
        <time>2026-08-29T12:45:41Z</time>
      </trkpt>
      <trkpt lat="50.841193338856101" lon="13.131641205400229">
        <ele>332</ele>
        <time>2026-08-29T12:45:42Z</time>
      </trkpt>
      <trkpt lat="50.841224100440741" lon="13.131609354168177">
        <ele>333</ele>
        <time>2026-08-29T12:45:43Z</time>
      </trkpt>
      <trkpt lat="50.841247653588653" lon="13.13157238997519">
        <ele>332</ele>
        <time>2026-08-29T12:45:44Z</time>
      </trkpt>
      <trkpt lat="50.84127539768815" lon="13.131518829613924">
        <ele>332</ele>
        <time>2026-08-29T12:45:45Z</time>
      </trkpt>
      <trkpt lat="50.841294592246413" lon="13.131461497396231">
        <ele>333</ele>
        <time>2026-08-29T12:45:46Z</time>
      </trkpt>
      <trkpt lat="50.841307500377297" lon="13.131409110501409">
        <ele>332</ele>
        <time>2026-08-29T12:45:47Z</time>
      </trkpt>
      <trkpt lat="50.841322587803006" lon="13.131340881809592">
        <ele>333</ele>
        <time>2026-08-29T12:45:48Z</time>
      </trkpt>
      <trkpt lat="50.84134572185576" lon="13.131285812705755">
        <ele>333</ele>
        <time>2026-08-29T12:45:49Z</time>
      </trkpt>
      <trkpt lat="50.841370197013021" lon="13.131226971745491">
        <ele>333</ele>
        <time>2026-08-29T12:45:50Z</time>
      </trkpt>
      <trkpt lat="50.841398779302835" lon="13.13117709942162">
        <ele>333</ele>
        <time>2026-08-29T12:45:51Z</time>
      </trkpt>
      <trkpt lat="50.841427529230714" lon="13.131121108308434">
        <ele>333</ele>
        <time>2026-08-29T12:45:52Z</time>
      </trkpt>
      <trkpt lat="50.841450244188309" lon="13.131058746948838">
        <ele>333</ele>
        <time>2026-08-29T12:45:53Z</time>
      </trkpt>
      <trkpt lat="50.841474384069443" lon="13.130996720865369">
        <ele>333</ele>
        <time>2026-08-29T12:45:54Z</time>
      </trkpt>
      <trkpt lat="50.841493830084801" lon="13.130957242101431">
        <ele>334</ele>
        <time>2026-08-29T12:45:55Z</time>
      </trkpt>
      <trkpt lat="50.841510510072112" lon="13.130918433889747">
        <ele>334</ele>
        <time>2026-08-29T12:45:56Z</time>
      </trkpt>
      <trkpt lat="50.841528112068772" lon="13.130881218239665">
        <ele>334</ele>
        <time>2026-08-29T12:45:57Z</time>
      </trkpt>
      <trkpt lat="50.841553090140224" lon="13.130823886021972">
        <ele>334</ele>
        <time>2026-08-29T12:45:58Z</time>
      </trkpt>
      <trkpt lat="50.841576810926199" lon="13.130781473591924">
        <ele>334</ele>
        <time>2026-08-29T12:45:59Z</time>
      </trkpt>
      <trkpt lat="50.841593910008669" lon="13.130726823583245">
        <ele>334</ele>
        <time>2026-08-29T12:46:00Z</time>
      </trkpt>
      <trkpt lat="50.84162718616426" lon="13.130684411153197">
        <ele>334</ele>
        <time>2026-08-29T12:46:01Z</time>
      </trkpt>
      <trkpt lat="50.841649398207664" lon="13.130626576021314">
        <ele>334</ele>
        <time>2026-08-29T12:46:02Z</time>
      </trkpt>
      <trkpt lat="50.841667838394642" lon="13.130566058680415">
        <ele>334</ele>
        <time>2026-08-29T12:46:03Z</time>
      </trkpt>
      <trkpt lat="50.841687703505158" lon="13.130511995404959">
        <ele>334</ele>
        <time>2026-08-29T12:46:04Z</time>
      </trkpt>
      <trkpt lat="50.841709664091468" lon="13.130454076454043">
        <ele>334</ele>
        <time>2026-08-29T12:46:05Z</time>
      </trkpt>
      <trkpt lat="50.841733971610665" lon="13.130402443930507">
        <ele>334</ele>
        <time>2026-08-29T12:46:06Z</time>
      </trkpt>
      <trkpt lat="50.841760709881783" lon="13.130349135026336">
        <ele>335</ele>
        <time>2026-08-29T12:46:07Z</time>
      </trkpt>
      <trkpt lat="50.841792728751898" lon="13.130299933254719">
        <ele>335</ele>
        <time>2026-08-29T12:46:08Z</time>
      </trkpt>
      <trkpt lat="50.841820389032364" lon="13.130253246054053">
        <ele>334</ele>
        <time>2026-08-29T12:46:09Z</time>
      </trkpt>
      <trkpt lat="50.841858191415668" lon="13.130193147808313">
        <ele>334</ele>
        <time>2026-08-29T12:46:10Z</time>
      </trkpt>
      <trkpt lat="50.841887947171926" lon="13.130139168351889">
        <ele>334</ele>
        <time>2026-08-29T12:46:11Z</time>
      </trkpt>
      <trkpt lat="50.841911667957902" lon="13.130079740658402">
        <ele>334</ele>
        <time>2026-08-29T12:46:12Z</time>
      </trkpt>
      <trkpt lat="50.841946033760905" lon="13.130019558593631">
        <ele>334</ele>
        <time>2026-08-29T12:46:13Z</time>
      </trkpt>
      <trkpt lat="50.841980231925845" lon="13.129945211112499">
        <ele>334</ele>
        <time>2026-08-29T12:46:14Z</time>
      </trkpt>
      <trkpt lat="50.842014765366912" lon="13.129871785640717">
        <ele>334</ele>
        <time>2026-08-29T12:46:15Z</time>
      </trkpt>
      <trkpt lat="50.842045107856393" lon="13.129801880568266">
        <ele>334</ele>
        <time>2026-08-29T12:46:16Z</time>
      </trkpt>
      <trkpt lat="50.842069080099463" lon="13.129730215296149">
        <ele>334</ele>
        <time>2026-08-29T12:46:17Z</time>
      </trkpt>
      <trkpt lat="50.842087268829346" lon="13.129668021574616">
        <ele>334</ele>
        <time>2026-08-29T12:46:18Z</time>
      </trkpt>
      <trkpt lat="50.842105625197291" lon="13.129597697407007">
        <ele>333</ele>
        <time>2026-08-29T12:46:19Z</time>
      </trkpt>
      <trkpt lat="50.842126915231347" lon="13.129527289420366">
        <ele>333</ele>
        <time>2026-08-29T12:46:20Z</time>
      </trkpt>
      <trkpt lat="50.842146277427673" lon="13.129457719624043">
        <ele>333</ele>
        <time>2026-08-29T12:46:21Z</time>
      </trkpt>
      <trkpt lat="50.842163292691112" lon="13.129394436255097">
        <ele>334</ele>
        <time>2026-08-29T12:46:22Z</time>
      </trkpt>
      <trkpt lat="50.842173267155886" lon="13.129336098209023">
        <ele>333</ele>
        <time>2026-08-29T12:46:23Z</time>
      </trkpt>
      <trkpt lat="50.842186342924833" lon="13.129271138459444">
        <ele>333</ele>
        <time>2026-08-29T12:46:24Z</time>
      </trkpt>
      <trkpt lat="50.842195898294449" lon="13.129215314984322">
        <ele>333</ele>
        <time>2026-08-29T12:46:25Z</time>
      </trkpt>
      <trkpt lat="50.842208890244365" lon="13.129159072414041">
        <ele>333</ele>
        <time>2026-08-29T12:46:26Z</time>
      </trkpt>
      <trkpt lat="50.842220038175583" lon="13.129090927541256">
        <ele>333</ele>
        <time>2026-08-29T12:46:27Z</time>
      </trkpt>
      <trkpt lat="50.842234035953879" lon="13.129030577838421">
        <ele>333</ele>
        <time>2026-08-29T12:46:28Z</time>
      </trkpt>
      <trkpt lat="50.842252476140857" lon="13.128963438794017">
        <ele>333</ele>
        <time>2026-08-29T12:46:29Z</time>
      </trkpt>
      <trkpt lat="50.842268234118819" lon="13.128897473216057">
        <ele>333</ele>
        <time>2026-08-29T12:46:30Z</time>
      </trkpt>
      <trkpt lat="50.842287428677082" lon="13.128823461011052">
        <ele>333</ele>
        <time>2026-08-29T12:46:31Z</time>
      </trkpt>
      <trkpt lat="50.842308718711138" lon="13.128746934235096">
        <ele>333</ele>
        <time>2026-08-29T12:46:32Z</time>
      </trkpt>
      <trkpt lat="50.842328248545527" lon="13.128674179315567">
        <ele>333</ele>
        <time>2026-08-29T12:46:33Z</time>
      </trkpt>
      <trkpt lat="50.842344677075744" lon="13.128601172938943">
        <ele>332</ele>
        <time>2026-08-29T12:46:34Z</time>
      </trkpt>
      <trkpt lat="50.842359010130167" lon="13.12852087430656">
        <ele>332</ele>
        <time>2026-08-29T12:46:35Z</time>
      </trkpt>
      <trkpt lat="50.8423728402704" lon="13.128447448834777">
        <ele>332</ele>
        <time>2026-08-29T12:46:36Z</time>
      </trkpt>
      <trkpt lat="50.842388346791267" lon="13.128366312012076">
        <ele>333</ele>
        <time>2026-08-29T12:46:37Z</time>
      </trkpt>
      <trkpt lat="50.842404356226325" lon="13.128281570971012">
        <ele>333</ele>
        <time>2026-08-29T12:46:38Z</time>
      </trkpt>
      <trkpt lat="50.842424724251032" lon="13.128205630928278">
        <ele>333</ele>
        <time>2026-08-29T12:46:39Z</time>
      </trkpt>
      <trkpt lat="50.842441571876407" lon="13.128130612894893">
        <ele>333</ele>
        <time>2026-08-29T12:46:40Z</time>
      </trkpt>
      <trkpt lat="50.842453306540847" lon="13.128059869632125">
        <ele>332</ele>
        <time>2026-08-29T12:46:41Z</time>
      </trkpt>
      <trkpt lat="50.842464789748192" lon="13.127992730587721">
        <ele>332</ele>
        <time>2026-08-29T12:46:42Z</time>
      </trkpt>
      <trkpt lat="50.842478787526488" lon="13.127914946526289">
        <ele>331</ele>
        <time>2026-08-29T12:46:43Z</time>
      </trkpt>
      <trkpt lat="50.84249110892415" lon="13.127825763076544">
        <ele>332</ele>
        <time>2026-08-29T12:46:44Z</time>
      </trkpt>
      <trkpt lat="50.842503933236003" lon="13.127738172188401">
        <ele>332</ele>
        <time>2026-08-29T12:46:45Z</time>
      </trkpt>
      <trkpt lat="50.842519858852029" lon="13.127661058679223">
        <ele>331</ele>
        <time>2026-08-29T12:46:46Z</time>
      </trkpt>
      <trkpt lat="50.84254240617156" lon="13.127579838037491">
        <ele>332</ele>
        <time>2026-08-29T12:46:47Z</time>
      </trkpt>
      <trkpt lat="50.842558667063713" lon="13.127488810569048">
        <ele>331</ele>
        <time>2026-08-29T12:46:48Z</time>
      </trkpt>
      <trkpt lat="50.842576269060373" lon="13.127420917153358">
        <ele>331</ele>
        <time>2026-08-29T12:46:49Z</time>
      </trkpt>
      <trkpt lat="50.842600408941507" lon="13.127352772280574">
        <ele>331</ele>
        <time>2026-08-29T12:46:50Z</time>
      </trkpt>
      <trkpt lat="50.842621698975563" lon="13.127297703176737">
        <ele>331</ele>
        <time>2026-08-29T12:46:51Z</time>
      </trkpt>
      <trkpt lat="50.842636786401272" lon="13.127233916893601">
        <ele>332</ele>
        <time>2026-08-29T12:46:52Z</time>
      </trkpt>
      <trkpt lat="50.842657992616296" lon="13.127178931608796">
        <ele>332</ele>
        <time>2026-08-29T12:46:53Z</time>
      </trkpt>
      <trkpt lat="50.842676600441337" lon="13.127129394561052">
        <ele>331</ele>
        <time>2026-08-29T12:46:54Z</time>
      </trkpt>
      <trkpt lat="50.842683222144842" lon="13.127069631591439">
        <ele>331</ele>
        <time>2026-08-29T12:46:55Z</time>
      </trkpt>
      <trkpt lat="50.842696381732821" lon="13.127026464790106">
        <ele>332</ele>
        <time>2026-08-29T12:46:56Z</time>
      </trkpt>
      <trkpt lat="50.842712977901101" lon="13.126985896378756">
        <ele>332</ele>
        <time>2026-08-29T12:46:57Z</time>
      </trkpt>
      <trkpt lat="50.842729909345508" lon="13.126955302432179">
        <ele>332</ele>
        <time>2026-08-29T12:46:58Z</time>
      </trkpt>
      <trkpt lat="50.842741979286075" lon="13.12692990526557">
        <ele>332</ele>
        <time>2026-08-29T12:46:59Z</time>
      </trkpt>
      <trkpt lat="50.842754719778895" lon="13.12688983976841">
        <ele>332</ele>
        <time>2026-08-29T12:47:00Z</time>
      </trkpt>
      <trkpt lat="50.842764861881733" lon="13.126847092062235">
        <ele>332</ele>
        <time>2026-08-29T12:47:01Z</time>
      </trkpt>
      <trkpt lat="50.84277207031846" lon="13.126803673803806">
        <ele>332</ele>
        <time>2026-08-29T12:47:02Z</time>
      </trkpt>
      <trkpt lat="50.842773746699095" lon="13.126759165897965">
        <ele>332</ele>
        <time>2026-08-29T12:47:03Z</time>
      </trkpt>
      <trkpt lat="50.842772992327809" lon="13.126711053773761">
        <ele>332</ele>
        <time>2026-08-29T12:47:04Z</time>
      </trkpt>
      <trkpt lat="50.84277207031846" lon="13.126651290804148">
        <ele>331</ele>
        <time>2026-08-29T12:47:05Z</time>
      </trkpt>
      <trkpt lat="50.842774081975222" lon="13.126597395166755">
        <ele>331</ele>
        <time>2026-08-29T12:47:06Z</time>
      </trkpt>
      <trkpt lat="50.842773327603936" lon="13.126546265557408">
        <ele>331</ele>
        <time>2026-08-29T12:47:07Z</time>
      </trkpt>
      <trkpt lat="50.842768549919128" lon="13.126493878662586">
        <ele>331</ele>
        <time>2026-08-29T12:47:08Z</time>
      </trkpt>
      <trkpt lat="50.842764861881733" lon="13.126434367150068">
        <ele>331</ele>
        <time>2026-08-29T12:47:09Z</time>
      </trkpt>
      <trkpt lat="50.842756731435657" lon="13.126382818445563">
        <ele>331</ele>
        <time>2026-08-29T12:47:10Z</time>
      </trkpt>
      <trkpt lat="50.842738961800933" lon="13.126335963606834">
        <ele>330</ele>
        <time>2026-08-29T12:47:11Z</time>
      </trkpt>
      <trkpt lat="50.842716665938497" lon="13.12630251981318">
        <ele>330</ele>
        <time>2026-08-29T12:47:12Z</time>
      </trkpt>
      <trkpt lat="50.842692609876394" lon="13.126266896724701">
        <ele>330</ele>
        <time>2026-08-29T12:47:13Z</time>
      </trkpt>
      <trkpt lat="50.842663943767548" lon="13.126222304999828">
        <ele>330</ele>
        <time>2026-08-29T12:47:14Z</time>
      </trkpt>
      <trkpt lat="50.842624548822641" lon="13.126182071864605">
        <ele>329</ele>
        <time>2026-08-29T12:47:15Z</time>
      </trkpt>
      <trkpt lat="50.842587081715465" lon="13.126151142641902">
        <ele>329</ele>
        <time>2026-08-29T12:47:16Z</time>
      </trkpt>
      <trkpt lat="50.842553470283747" lon="13.126129768788815">
        <ele>329</ele>
        <time>2026-08-29T12:47:17Z</time>
      </trkpt>
      <trkpt lat="50.842519858852029" lon="13.126116944476962">
        <ele>328</ele>
        <time>2026-08-29T12:47:18Z</time>
      </trkpt>
      <trkpt lat="50.842485073953867" lon="13.126100767403841">
        <ele>328</ele>
        <time>2026-08-29T12:47:19Z</time>
      </trkpt>
      <trkpt lat="50.842449031770229" lon="13.126084757968783">
        <ele>328</ele>
        <time>2026-08-29T12:47:20Z</time>
      </trkpt>
      <trkpt lat="50.842417431995273" lon="13.126061707735062">
        <ele>329</ele>
        <time>2026-08-29T12:47:21Z</time>
      </trkpt>
      <trkpt lat="50.842380970716476" lon="13.126036981120706">
        <ele>329</ele>
        <time>2026-08-29T12:47:22Z</time>
      </trkpt>
      <trkpt lat="50.84234056994319" lon="13.126012673601508">
        <ele>329</ele>
        <time>2026-08-29T12:47:23Z</time>
      </trkpt>
      <trkpt lat="50.842305365949869" lon="13.125986605882645">
        <ele>330</ele>
        <time>2026-08-29T12:47:24Z</time>
      </trkpt>
      <trkpt lat="50.842262450605631" lon="13.125965818762779">
        <ele>331</ele>
        <time>2026-08-29T12:47:25Z</time>
      </trkpt>
      <trkpt lat="50.842222468927503" lon="13.12593505717814">
        <ele>332</ele>
        <time>2026-08-29T12:47:26Z</time>
      </trkpt>
      <trkpt lat="50.842186510562897" lon="13.125901948660612">
        <ele>332</ele>
        <time>2026-08-29T12:47:27Z</time>
      </trkpt>
      <trkpt lat="50.842150971293449" lon="13.125870516523719">
        <ele>331</ele>
        <time>2026-08-29T12:47:28Z</time>
      </trkpt>
      <trkpt lat="50.842114174738526" lon="13.125845370814204">
        <ele>332</ele>
        <time>2026-08-29T12:47:29Z</time>
      </trkpt>
      <trkpt lat="50.842075450345874" lon="13.125810083001852">
        <ele>332</ele>
        <time>2026-08-29T12:47:30Z</time>
      </trkpt>
      <trkpt lat="50.842038989067078" lon="13.125790888443589">
        <ele>332</ele>
        <time>2026-08-29T12:47:31Z</time>
      </trkpt>
      <trkpt lat="50.842004539445043" lon="13.125788541510701">
        <ele>332</ele>
        <time>2026-08-29T12:47:32Z</time>
      </trkpt>
      <trkpt lat="50.841975789517164" lon="13.125815782696009">
        <ele>332</ele>
        <time>2026-08-29T12:47:33Z</time>
      </trkpt>
      <trkpt lat="50.84195215255022" lon="13.125862721353769">
        <ele>332</ele>
        <time>2026-08-29T12:47:34Z</time>
      </trkpt>
      <trkpt lat="50.841935724020004" lon="13.125925669446588">
        <ele>332</ele>
        <time>2026-08-29T12:47:35Z</time>
      </trkpt>
      <trkpt lat="50.841924073174596" lon="13.125986522063613">
        <ele>332</ele>
        <time>2026-08-29T12:47:36Z</time>
      </trkpt>
      <trkpt lat="50.841909069567919" lon="13.126048380509019">
        <ele>331</ele>
        <time>2026-08-29T12:47:37Z</time>
      </trkpt>
      <trkpt lat="50.841886857524514" lon="13.126102276146412">
        <ele>332</ele>
        <time>2026-08-29T12:47:38Z</time>
      </trkpt>
      <trkpt lat="50.841866070404649" lon="13.126152567565441">
        <ele>331</ele>
        <time>2026-08-29T12:47:39Z</time>
      </trkpt>
      <trkpt lat="50.841840924695134" lon="13.126212330535054">
        <ele>331</ele>
        <time>2026-08-29T12:47:40Z</time>
      </trkpt>
      <trkpt lat="50.841830531135201" lon="13.126283744350076">
        <ele>331</ele>
        <time>2026-08-29T12:47:41Z</time>
      </trkpt>
      <trkpt lat="50.841840002685785" lon="13.12635431997478">
        <ele>331</ele>
        <time>2026-08-29T12:47:42Z</time>
      </trkpt>
      <trkpt lat="50.84185877814889" lon="13.126419112086296">
        <ele>330</ele>
        <time>2026-08-29T12:47:43Z</time>
      </trkpt>
      <trkpt lat="50.841881074011326" lon="13.126470241695642">
        <ele>330</ele>
        <time>2026-08-29T12:47:44Z</time>
      </trkpt>
      <trkpt lat="50.841903621330857" lon="13.126533776521683">
        <ele>330</ele>
        <time>2026-08-29T12:47:45Z</time>
      </trkpt>
      <trkpt lat="50.841916110366583" lon="13.126587169244885">
        <ele>330</ele>
        <time>2026-08-29T12:47:46Z</time>
      </trkpt>
      <trkpt lat="50.841922480612993" lon="13.126622624695301">
        <ele>329</ele>
        <time>2026-08-29T12:47:47Z</time>
      </trkpt>
      <trkpt lat="50.84192281588912" lon="13.126644836738706">
        <ele>329</ele>
        <time>2026-08-29T12:47:48Z</time>
      </trkpt>
      <trkpt lat="50.841924827545881" lon="13.126642908900976">
        <ele>329</ele>
        <time>2026-08-29T12:47:49Z</time>
      </trkpt>
      <trkpt lat="50.841924827545881" lon="13.126643160358071">
        <ele>329</ele>
        <time>2026-08-29T12:47:50Z</time>
      </trkpt>
      <trkpt lat="50.841923737898469" lon="13.126640394330025">
        <ele>329</ele>
        <time>2026-08-29T12:47:51Z</time>
      </trkpt>
      <trkpt lat="50.841925498098135" lon="13.126630000770092">
        <ele>329</ele>
        <time>2026-08-29T12:47:52Z</time>
      </trkpt>
      <trkpt lat="50.841923067346215" lon="13.126632682979107">
        <ele>328</ele>
        <time>2026-08-29T12:47:53Z</time>
      </trkpt>
      <trkpt lat="50.841922480612993" lon="13.126633185893297">
        <ele>328</ele>
        <time>2026-08-29T12:47:54Z</time>
      </trkpt>
      <trkpt lat="50.841922480612993" lon="13.126633018255234">
        <ele>328</ele>
        <time>2026-08-29T12:47:55Z</time>
      </trkpt>
      <trkpt lat="50.84192231297493" lon="13.126633437350392">
        <ele>329</ele>
        <time>2026-08-29T12:47:56Z</time>
      </trkpt>
      <trkpt lat="50.841920468956232" lon="13.126631425693631">
        <ele>328</ele>
        <time>2026-08-29T12:47:57Z</time>
      </trkpt>
      <trkpt lat="50.841917283833027" lon="13.126639723777771">
        <ele>328</ele>
        <time>2026-08-29T12:47:58Z</time>
      </trkpt>
      <trkpt lat="50.84191745147109" lon="13.126639472320676">
        <ele>328</ele>
        <time>2026-08-29T12:47:59Z</time>
      </trkpt>
      <trkpt lat="50.841917283833027" lon="13.126639220863581">
        <ele>328</ele>
        <time>2026-08-29T12:48:00Z</time>
      </trkpt>
      <trkpt lat="50.841916864737868" lon="13.126638885587454">
        <ele>328</ele>
        <time>2026-08-29T12:48:01Z</time>
      </trkpt>
      <trkpt lat="50.841916697099805" lon="13.126638969406486">
        <ele>328</ele>
        <time>2026-08-29T12:48:02Z</time>
      </trkpt>
      <trkpt lat="50.841916697099805" lon="13.126639053225517">
        <ele>328</ele>
        <time>2026-08-29T12:48:03Z</time>
      </trkpt>
      <trkpt lat="50.841915439814329" lon="13.126644669100642">
        <ele>328</ele>
        <time>2026-08-29T12:48:04Z</time>
      </trkpt>
      <trkpt lat="50.841914769262075" lon="13.126646680757403">
        <ele>328</ele>
        <time>2026-08-29T12:48:05Z</time>
      </trkpt>
      <trkpt lat="50.841912338510156" lon="13.126654895022511">
        <ele>329</ele>
        <time>2026-08-29T12:48:06Z</time>
      </trkpt>
      <trkpt lat="50.841912254691124" lon="13.12665581703186">
        <ele>329</ele>
        <time>2026-08-29T12:48:07Z</time>
      </trkpt>
      <trkpt lat="50.841911332681775" lon="13.126645758748055">
        <ele>329</ele>
        <time>2026-08-29T12:48:08Z</time>
      </trkpt>
      <trkpt lat="50.841911500319839" lon="13.126640394330025">
        <ele>329</ele>
        <time>2026-08-29T12:48:09Z</time>
      </trkpt>
      <trkpt lat="50.841907141730189" lon="13.126636454835534">
        <ele>329</ele>
        <time>2026-08-29T12:48:10Z</time>
      </trkpt>
      <trkpt lat="50.841910159215331" lon="13.126639807596803">
        <ele>329</ele>
        <time>2026-08-29T12:48:11Z</time>
      </trkpt>
      <trkpt lat="50.841909488663077" lon="13.126636119559407">
        <ele>329</ele>
        <time>2026-08-29T12:48:12Z</time>
      </trkpt>
      <trkpt lat="50.841914350166917" lon="13.126631677150726">
        <ele>328</ele>
        <time>2026-08-29T12:48:13Z</time>
      </trkpt>
      <trkpt lat="50.841913009062409" lon="13.126626564189792">
        <ele>328</ele>
        <time>2026-08-29T12:48:14Z</time>
      </trkpt>
      <trkpt lat="50.841907728463411" lon="13.126632766798139">
        <ele>328</ele>
        <time>2026-08-29T12:48:15Z</time>
      </trkpt>
      <trkpt lat="50.841906638815999" lon="13.126631760969758">
        <ele>328</ele>
        <time>2026-08-29T12:48:16Z</time>
      </trkpt>
      <trkpt lat="50.841906471177936" lon="13.126631593331695">
        <ele>328</ele>
        <time>2026-08-29T12:48:17Z</time>
      </trkpt>
      <trkpt lat="50.84190228022635" lon="13.126636203378439">
        <ele>328</ele>
        <time>2026-08-29T12:48:18Z</time>
      </trkpt>
      <trkpt lat="50.841902447864413" lon="13.126636873930693">
        <ele>328</ele>
        <time>2026-08-29T12:48:19Z</time>
      </trkpt>
      <trkpt lat="50.841902364045382" lon="13.126637041568756">
        <ele>328</ele>
        <time>2026-08-29T12:48:20Z</time>
      </trkpt>
      <trkpt lat="50.841902364045382" lon="13.126636706292629">
        <ele>328</ele>
        <time>2026-08-29T12:48:21Z</time>
      </trkpt>
      <trkpt lat="50.84190228022635" lon="13.126636706292629">
        <ele>328</ele>
        <time>2026-08-29T12:48:22Z</time>
      </trkpt>
      <trkpt lat="50.84190228022635" lon="13.126636706292629">
        <ele>328</ele>
        <time>2026-08-29T12:48:23Z</time>
      </trkpt>
      <trkpt lat="50.84190228022635" lon="13.126636706292629">
        <ele>328</ele>
        <time>2026-08-29T12:48:24Z</time>
      </trkpt>
      <trkpt lat="50.84190228022635" lon="13.126636622473598">
        <ele>328</ele>
        <time>2026-08-29T12:48:25Z</time>
      </trkpt>
      <trkpt lat="50.84190228022635" lon="13.126636706292629">
        <ele>328</ele>
        <time>2026-08-29T12:48:26Z</time>
      </trkpt>
      <trkpt lat="50.841902364045382" lon="13.126636622473598">
        <ele>328</ele>
        <time>2026-08-29T12:48:27Z</time>
      </trkpt>
      <trkpt lat="50.841902447864413" lon="13.126636622473598">
        <ele>328</ele>
        <time>2026-08-29T12:48:28Z</time>
      </trkpt>
      <trkpt lat="50.841902364045382" lon="13.126636622473598">
        <ele>328</ele>
        <time>2026-08-29T12:48:29Z</time>
      </trkpt>
      <trkpt lat="50.841902531683445" lon="13.126636203378439">
        <ele>328</ele>
        <time>2026-08-29T12:48:30Z</time>
      </trkpt>
      <trkpt lat="50.841902531683445" lon="13.126636035740376">
        <ele>328</ele>
        <time>2026-08-29T12:48:31Z</time>
      </trkpt>
      <trkpt lat="50.841902447864413" lon="13.126636119559407">
        <ele>328</ele>
        <time>2026-08-29T12:48:32Z</time>
      </trkpt>
      <trkpt lat="50.841902447864413" lon="13.126635868102312">
        <ele>328</ele>
        <time>2026-08-29T12:48:33Z</time>
      </trkpt>
      <trkpt lat="50.841902364045382" lon="13.126635868102312">
        <ele>328</ele>
        <time>2026-08-29T12:48:34Z</time>
      </trkpt>
      <trkpt lat="50.84190228022635" lon="13.126635951921344">
        <ele>328</ele>
        <time>2026-08-29T12:48:35Z</time>
      </trkpt>
      <trkpt lat="50.841900771483779" lon="13.126638382673264">
        <ele>328</ele>
        <time>2026-08-29T12:48:36Z</time>
      </trkpt>
      <trkpt lat="50.841903537511826" lon="13.126631341874599">
        <ele>328</ele>
        <time>2026-08-29T12:48:37Z</time>
      </trkpt>
      <trkpt lat="50.841904208064079" lon="13.126624636352062">
        <ele>328</ele>
        <time>2026-08-29T12:48:38Z</time>
      </trkpt>
      <trkpt lat="50.841903621330857" lon="13.126616422086954">
        <ele>328</ele>
        <time>2026-08-29T12:48:39Z</time>
      </trkpt>
      <trkpt lat="50.841907225549221" lon="13.126632934436202">
        <ele>328</ele>
        <time>2026-08-29T12:48:40Z</time>
      </trkpt>
      <trkpt lat="50.841901944950223" lon="13.126641903072596">
        <ele>328</ele>
        <time>2026-08-29T12:48:41Z</time>
      </trkpt>
      <trkpt lat="50.841901106759906" lon="13.126634862273932">
        <ele>328</ele>
        <time>2026-08-29T12:48:42Z</time>
      </trkpt>
      <trkpt lat="50.841902028769255" lon="13.126623798161745">
        <ele>328</ele>
        <time>2026-08-29T12:48:43Z</time>
      </trkpt>
      <trkpt lat="50.84189984947443" lon="13.126611895859241">
        <ele>328</ele>
        <time>2026-08-29T12:48:44Z</time>
      </trkpt>
      <trkpt lat="50.841897251084447" lon="13.126611895859241">
        <ele>328</ele>
        <time>2026-08-29T12:48:45Z</time>
      </trkpt>
      <trkpt lat="50.841893898323178" lon="13.126607537269592">
        <ele>328</ele>
        <time>2026-08-29T12:48:46Z</time>
      </trkpt>
      <trkpt lat="50.84189347922802" lon="13.126607369631529">
        <ele>328</ele>
        <time>2026-08-29T12:48:47Z</time>
      </trkpt>
      <trkpt lat="50.841893311589956" lon="13.126607621088624">
        <ele>328</ele>
        <time>2026-08-29T12:48:48Z</time>
      </trkpt>
      <trkpt lat="50.841893227770925" lon="13.126607956364751">
        <ele>328</ele>
        <time>2026-08-29T12:48:49Z</time>
      </trkpt>
      <trkpt lat="50.841893060132861" lon="13.126608291640878">
        <ele>328</ele>
        <time>2026-08-29T12:48:50Z</time>
      </trkpt>
      <trkpt lat="50.841892976313829" lon="13.126608710736036">
        <ele>328</ele>
        <time>2026-08-29T12:48:51Z</time>
      </trkpt>
      <trkpt lat="50.841892808675766" lon="13.1266088783741">
        <ele>328</ele>
        <time>2026-08-29T12:48:52Z</time>
      </trkpt>
      <trkpt lat="50.841892724856734" lon="13.126609046012163">
        <ele>328</ele>
        <time>2026-08-29T12:48:53Z</time>
      </trkpt>
      <trkpt lat="50.841892389580607" lon="13.126609632745385">
        <ele>328</ele>
        <time>2026-08-29T12:48:54Z</time>
      </trkpt>
      <trkpt lat="50.841892221942544" lon="13.126609800383449">
        <ele>328</ele>
        <time>2026-08-29T12:48:55Z</time>
      </trkpt>
      <trkpt lat="50.841892221942544" lon="13.126609968021512">
        <ele>328</ele>
        <time>2026-08-29T12:48:56Z</time>
      </trkpt>
      <trkpt lat="50.841892138123512" lon="13.126610051840544">
        <ele>328</ele>
        <time>2026-08-29T12:48:57Z</time>
      </trkpt>
      <trkpt lat="50.841892138123512" lon="13.126610135659575">
        <ele>328</ele>
        <time>2026-08-29T12:48:58Z</time>
      </trkpt>
      <trkpt lat="50.841891970485449" lon="13.126610470935702">
        <ele>328</ele>
        <time>2026-08-29T12:48:59Z</time>
      </trkpt>
      <trkpt lat="50.841891970485449" lon="13.126610470935702">
        <ele>328</ele>
        <time>2026-08-29T12:49:00Z</time>
      </trkpt>
      <trkpt lat="50.841891802847385" lon="13.126610638573766">
        <ele>328</ele>
        <time>2026-08-29T12:49:01Z</time>
      </trkpt>
      <trkpt lat="50.84189155139029" lon="13.126611309126019">
        <ele>328</ele>
        <time>2026-08-29T12:49:02Z</time>
      </trkpt>
      <trkpt lat="50.841891383752227" lon="13.126611560583115">
        <ele>328</ele>
        <time>2026-08-29T12:49:03Z</time>
      </trkpt>
      <trkpt lat="50.841891216114163" lon="13.12661181204021">
        <ele>328</ele>
        <time>2026-08-29T12:49:04Z</time>
      </trkpt>
      <trkpt lat="50.841891216114163" lon="13.126611979678273">
        <ele>328</ele>
        <time>2026-08-29T12:49:05Z</time>
      </trkpt>
      <trkpt lat="50.841894065961242" lon="13.126610135659575">
        <ele>328</ele>
        <time>2026-08-29T12:49:06Z</time>
      </trkpt>
      <trkpt lat="50.841902531683445" lon="13.126613991335034">
        <ele>328</ele>
        <time>2026-08-29T12:49:07Z</time>
      </trkpt>
      <trkpt lat="50.84190228022635" lon="13.126613739877939">
        <ele>328</ele>
        <time>2026-08-29T12:49:08Z</time>
      </trkpt>
      <trkpt lat="50.841901022940874" lon="13.126608207821846">
        <ele>327</ele>
        <time>2026-08-29T12:49:09Z</time>
      </trkpt>
      <trkpt lat="50.841899765655398" lon="13.126593455672264">
        <ele>327</ele>
        <time>2026-08-29T12:49:10Z</time>
      </trkpt>
      <trkpt lat="50.841897334903479" lon="13.126569734886289">
        <ele>327</ele>
        <time>2026-08-29T12:49:11Z</time>
      </trkpt>
      <trkpt lat="50.841889455914497" lon="13.126543583348393">
        <ele>327</ele>
        <time>2026-08-29T12:49:12Z</time>
      </trkpt>
      <trkpt lat="50.841886270791292" lon="13.126509636640549">
        <ele>327</ele>
        <time>2026-08-29T12:49:13Z</time>
      </trkpt>
      <trkpt lat="50.841880571097136" lon="13.126475606113672">
        <ele>327</ele>
        <time>2026-08-29T12:49:14Z</time>
      </trkpt>
      <trkpt lat="50.841878978535533" lon="13.1264344509691">
        <ele>327</ele>
        <time>2026-08-29T12:49:15Z</time>
      </trkpt>
      <trkpt lat="50.841875625774264" lon="13.126392876729369">
        <ele>327</ele>
        <time>2026-08-29T12:49:16Z</time>
      </trkpt>
      <trkpt lat="50.841871770098805" lon="13.126352308318019">
        <ele>327</ele>
        <time>2026-08-29T12:49:17Z</time>
      </trkpt>
      <trkpt lat="50.841869087889791" lon="13.126317439600825">
        <ele>327</ele>
        <time>2026-08-29T12:49:18Z</time>
      </trkpt>
      <trkpt lat="50.841862801462412" lon="13.12628198415041">
        <ele>327</ele>
        <time>2026-08-29T12:49:19Z</time>
      </trkpt>
      <trkpt lat="50.841860538348556" lon="13.126249294728041">
        <ele>327</ele>
        <time>2026-08-29T12:49:20Z</time>
      </trkpt>
      <trkpt lat="50.841856598854065" lon="13.126219119876623">
        <ele>327</ele>
        <time>2026-08-29T12:49:21Z</time>
      </trkpt>
      <trkpt lat="50.841859532520175" lon="13.126180563122034">
        <ele>327</ele>
        <time>2026-08-29T12:49:22Z</time>
      </trkpt>
      <trkpt lat="50.8418651483953" lon="13.126139994710684">
        <ele>328</ele>
        <time>2026-08-29T12:49:23Z</time>
      </trkpt>
      <trkpt lat="50.841872859746218" lon="13.126097163185477">
        <ele>328</ele>
        <time>2026-08-29T12:49:24Z</time>
      </trkpt>
      <trkpt lat="50.841883923858404" lon="13.126066820695996">
        <ele>329</ele>
        <time>2026-08-29T12:49:25Z</time>
      </trkpt>
      <trkpt lat="50.841899681836367" lon="13.126040836796165">
        <ele>328</ele>
        <time>2026-08-29T12:49:26Z</time>
      </trkpt>
      <trkpt lat="50.841916026547551" lon="13.126011416316032">
        <ele>328</ele>
        <time>2026-08-29T12:49:27Z</time>
      </trkpt>
      <trkpt lat="50.841934299096465" lon="13.125987946987152">
        <ele>328</ele>
        <time>2026-08-29T12:49:28Z</time>
      </trkpt>
      <trkpt lat="50.841941423714161" lon="13.125963388010859">
        <ele>328</ele>
        <time>2026-08-29T12:49:29Z</time>
      </trkpt>
      <trkpt lat="50.841945363208652" lon="13.125938912853599">
        <ele>328</ele>
        <time>2026-08-29T12:49:30Z</time>
      </trkpt>
      <trkpt lat="50.841951314359903" lon="13.12591552734375">
        <ele>329</ele>
        <time>2026-08-29T12:49:31Z</time>
      </trkpt>
      <trkpt lat="50.841964222490788" lon="13.125904044136405">
        <ele>329</ele>
        <time>2026-08-29T12:49:32Z</time>
      </trkpt>
      <trkpt lat="50.841976879164577" lon="13.125897673889995">
        <ele>329</ele>
        <time>2026-08-29T12:49:33Z</time>
      </trkpt>
      <trkpt lat="50.841982159763575" lon="13.125884933397174">
        <ele>329</ele>
        <time>2026-08-29T12:49:34Z</time>
      </trkpt>
      <trkpt lat="50.841987859457731" lon="13.125877054408193">
        <ele>329</ele>
        <time>2026-08-29T12:49:35Z</time>
      </trkpt>
      <trkpt lat="50.841997750103474" lon="13.125863056629896">
        <ele>329</ele>
        <time>2026-08-29T12:49:36Z</time>
      </trkpt>
      <trkpt lat="50.842003785073757" lon="13.125856434926391">
        <ele>329</ele>
        <time>2026-08-29T12:49:37Z</time>
      </trkpt>
      <trkpt lat="50.842002527788281" lon="13.125845789909363">
        <ele>329</ele>
        <time>2026-08-29T12:49:38Z</time>
      </trkpt>
      <trkpt lat="50.842009820044041" lon="13.125828523188829">
        <ele>329</ele>
        <time>2026-08-29T12:49:39Z</time>
      </trkpt>
      <trkpt lat="50.842015100643039" lon="13.125805892050266">
        <ele>330</ele>
        <time>2026-08-29T12:49:40Z</time>
      </trkpt>
      <trkpt lat="50.842022057622671" lon="13.12577772885561">
        <ele>330</ele>
        <time>2026-08-29T12:49:41Z</time>
      </trkpt>
      <trkpt lat="50.842020800337195" lon="13.125745709985495">
        <ele>330</ele>
        <time>2026-08-29T12:49:42Z</time>
      </trkpt>
      <trkpt lat="50.842019459232688" lon="13.125705560669303">
        <ele>330</ele>
        <time>2026-08-29T12:49:43Z</time>
      </trkpt>
      <trkpt lat="50.842013340443373" lon="13.125659460201859">
        <ele>330</ele>
        <time>2026-08-29T12:49:44Z</time>
      </trkpt>
      <trkpt lat="50.842010406777263" lon="13.125606821849942">
        <ele>330</ele>
        <time>2026-08-29T12:49:45Z</time>
      </trkpt>
      <trkpt lat="50.841999091207981" lon="13.125550579279661">
        <ele>330</ele>
        <time>2026-08-29T12:49:46Z</time>
      </trkpt>
      <trkpt lat="50.841991379857063" lon="13.125490648671985">
        <ele>330</ele>
        <time>2026-08-29T12:49:47Z</time>
      </trkpt>
      <trkpt lat="50.841987608000636" lon="13.125424599274993">
        <ele>331</ele>
        <time>2026-08-29T12:49:48Z</time>
      </trkpt>
      <trkpt lat="50.841972688212991" lon="13.125346144661307">
        <ele>331</ele>
        <time>2026-08-29T12:49:49Z</time>
      </trkpt>
      <trkpt lat="50.841970089823008" lon="13.125260481610894">
        <ele>332</ele>
        <time>2026-08-29T12:49:50Z</time>
      </trkpt>
      <trkpt lat="50.841971933841705" lon="13.125182278454304">
        <ele>332</ele>
        <time>2026-08-29T12:49:51Z</time>
      </trkpt>
      <trkpt lat="50.841976208612323" lon="13.125110613182187">
        <ele>333</ele>
        <time>2026-08-29T12:49:52Z</time>
      </trkpt>
      <trkpt lat="50.841973107308149" lon="13.125044647604227">
        <ele>333</ele>
        <time>2026-08-29T12:49:53Z</time>
      </trkpt>
      <trkpt lat="50.84196774289012" lon="13.124969461932778">
        <ele>333</ele>
        <time>2026-08-29T12:49:54Z</time>
      </trkpt>
      <trkpt lat="50.841967910528183" lon="13.1248698849231">
        <ele>332</ele>
        <time>2026-08-29T12:49:55Z</time>
      </trkpt>
      <trkpt lat="50.841970089823008" lon="13.12477751635015">
        <ele>332</ele>
        <time>2026-08-29T12:49:56Z</time>
      </trkpt>
      <trkpt lat="50.841975621879101" lon="13.124688751995564">
        <ele>331</ele>
        <time>2026-08-29T12:49:57Z</time>
      </trkpt>
      <trkpt lat="50.841985428705812" lon="13.124589929357171">
        <ele>330</ele>
        <time>2026-08-29T12:49:58Z</time>
      </trkpt>
      <trkpt lat="50.841991296038032" lon="13.124497309327126">
        <ele>330</ele>
        <time>2026-08-29T12:49:59Z</time>
      </trkpt>
      <trkpt lat="50.841994229704142" lon="13.12440225854516">
        <ele>330</ele>
        <time>2026-08-29T12:50:00Z</time>
      </trkpt>
      <trkpt lat="50.841996660456061" lon="13.124306621029973">
        <ele>330</ele>
        <time>2026-08-29T12:50:01Z</time>
      </trkpt>
      <trkpt lat="50.841994900256395" lon="13.124218191951513">
        <ele>330</ele>
        <time>2026-08-29T12:50:02Z</time>
      </trkpt>
      <trkpt lat="50.841994984075427" lon="13.124128924682736">
        <ele>330</ele>
        <time>2026-08-29T12:50:03Z</time>
      </trkpt>
      <trkpt lat="50.841996828094125" lon="13.124029096215963">
        <ele>329</ele>
        <time>2026-08-29T12:50:04Z</time>
      </trkpt>
      <trkpt lat="50.841998755931854" lon="13.123946031555533">
        <ele>329</ele>
        <time>2026-08-29T12:50:05Z</time>
      </trkpt>
      <trkpt lat="50.842004958540201" lon="13.123864643275738">
        <ele>330</ele>
        <time>2026-08-29T12:50:06Z</time>
      </trkpt>
      <trkpt lat="50.842008562758565" lon="13.123778225854039">
        <ele>330</ele>
        <time>2026-08-29T12:50:07Z</time>
      </trkpt>
      <trkpt lat="50.842018872499466" lon="13.12369373627007">
        <ele>330</ele>
        <time>2026-08-29T12:50:08Z</time>
      </trkpt>
      <trkpt lat="50.842030271887779" lon="13.123608995229006">
        <ele>331</ele>
        <time>2026-08-29T12:50:09Z</time>
      </trkpt>
      <trkpt lat="50.84204887971282" lon="13.123530875891447">
        <ele>331</ele>
        <time>2026-08-29T12:50:10Z</time>
      </trkpt>
      <trkpt lat="50.84206597879529" lon="13.123460048809648">
        <ele>331</ele>
        <time>2026-08-29T12:50:11Z</time>
      </trkpt>
      <trkpt lat="50.842079725116491" lon="13.123382851481438">
        <ele>331</ele>
        <time>2026-08-29T12:50:12Z</time>
      </trkpt>
      <trkpt lat="50.842090370133519" lon="13.123308923095465">
        <ele>331</ele>
        <time>2026-08-29T12:50:13Z</time>
      </trkpt>
      <trkpt lat="50.84210260771215" lon="13.123236503452063">
        <ele>332</ele>
        <time>2026-08-29T12:50:14Z</time>
      </trkpt>
      <trkpt lat="50.842116102576256" lon="13.123152935877442">
        <ele>332</ele>
        <time>2026-08-29T12:50:15Z</time>
      </trkpt>
      <trkpt lat="50.842134039849043" lon="13.123078756034374">
        <ele>331</ele>
        <time>2026-08-29T12:50:16Z</time>
      </trkpt>
      <trkpt lat="50.84215734153986" lon="13.122991751879454">
        <ele>332</ele>
        <time>2026-08-29T12:50:17Z</time>
      </trkpt>
      <trkpt lat="50.842176368460059" lon="13.122920840978622">
        <ele>332</ele>
        <time>2026-08-29T12:50:18Z</time>
      </trkpt>
      <trkpt lat="50.842199251055717" lon="13.122849091887474">
        <ele>332</ele>
        <time>2026-08-29T12:50:19Z</time>
      </trkpt>
      <trkpt lat="50.842223558574915" lon="13.122772481292486">
        <ele>332</ele>
        <time>2026-08-29T12:50:20Z</time>
      </trkpt>
      <trkpt lat="50.842253398150206" lon="13.122692853212357">
        <ele>332</ele>
        <time>2026-08-29T12:50:21Z</time>
      </trkpt>
      <trkpt lat="50.842276280745864" lon="13.122611381113529">
        <ele>332</ele>
        <time>2026-08-29T12:50:22Z</time>
      </trkpt>
      <trkpt lat="50.842307042330503" lon="13.1225317530334">
        <ele>332</ele>
        <time>2026-08-29T12:50:23Z</time>
      </trkpt>
      <trkpt lat="50.842337971553206" lon="13.122449442744255">
        <ele>332</ele>
        <time>2026-08-29T12:50:24Z</time>
      </trkpt>
      <trkpt lat="50.84237040951848" lon="13.122364534065127">
        <ele>332</ele>
        <time>2026-08-29T12:50:25Z</time>
      </trkpt>
      <trkpt lat="50.84240997210145" lon="13.122284319251776">
        <ele>332</ele>
        <time>2026-08-29T12:50:26Z</time>
      </trkpt>
      <trkpt lat="50.842448780313134" lon="13.122202595695853">
        <ele>331</ele>
        <time>2026-08-29T12:50:27Z</time>
      </trkpt>
      <trkpt lat="50.842481637373567" lon="13.122130259871483">
        <ele>331</ele>
        <time>2026-08-29T12:50:28Z</time>
      </trkpt>
      <trkpt lat="50.842519942671061" lon="13.122059013694525">
        <ele>331</ele>
        <time>2026-08-29T12:50:29Z</time>
      </trkpt>
      <trkpt lat="50.842556152492762" lon="13.121990617364645">
        <ele>330</ele>
        <time>2026-08-29T12:50:30Z</time>
      </trkpt>
      <trkpt lat="50.842582639306784" lon="13.121917527168989">
        <ele>329</ele>
        <time>2026-08-29T12:50:31Z</time>
      </trkpt>
      <trkpt lat="50.842615999281406" lon="13.121843431144953">
        <ele>329</ele>
        <time>2026-08-29T12:50:32Z</time>
      </trkpt>
      <trkpt lat="50.842651957646012" lon="13.121768496930599">
        <ele>329</ele>
        <time>2026-08-29T12:50:33Z</time>
      </trkpt>
      <trkpt lat="50.842683892697096" lon="13.121700771152973">
        <ele>329</ele>
        <time>2026-08-29T12:50:34Z</time>
      </trkpt>
      <trkpt lat="50.842714570462704" lon="13.121638409793377">
        <ele>329</ele>
        <time>2026-08-29T12:50:35Z</time>
      </trkpt>
      <trkpt lat="50.842749690636992" lon="13.121570348739624">
        <ele>328</ele>
        <time>2026-08-29T12:50:36Z</time>
      </trkpt>
      <trkpt lat="50.842783385887742" lon="13.121503628790379">
        <ele>328</ele>
        <time>2026-08-29T12:50:37Z</time>
      </trkpt>
      <trkpt lat="50.842813728377223" lon="13.121446883305907">
        <ele>328</ele>
        <time>2026-08-29T12:50:38Z</time>
      </trkpt>
      <trkpt lat="50.842856140807271" lon="13.121390556916595">
        <ele>327</ele>
        <time>2026-08-29T12:50:39Z</time>
      </trkpt>
      <trkpt lat="50.842896709218621" lon="13.121337331831455">
        <ele>327</ele>
        <time>2026-08-29T12:50:40Z</time>
      </trkpt>
      <trkpt lat="50.842933757230639" lon="13.121285112574697">
        <ele>327</ele>
        <time>2026-08-29T12:50:41Z</time>
      </trkpt>
      <trkpt lat="50.842969547957182" lon="13.121231636032462">
        <ele>327</ele>
        <time>2026-08-29T12:50:42Z</time>
      </trkpt>
      <trkpt lat="50.843004249036312" lon="13.12118167988956">
        <ele>326</ele>
        <time>2026-08-29T12:50:43Z</time>
      </trkpt>
      <trkpt lat="50.843040375038981" lon="13.121131556108594">
        <ele>326</ele>
        <time>2026-08-29T12:50:44Z</time>
      </trkpt>
      <trkpt lat="50.843086559325457" lon="13.121079420670867">
        <ele>326</ele>
        <time>2026-08-29T12:50:45Z</time>
      </trkpt>
      <trkpt lat="50.843128887936473" lon="13.121031057089567">
        <ele>326</ele>
        <time>2026-08-29T12:50:46Z</time>
      </trkpt>
      <trkpt lat="50.843174653127789" lon="13.120995098724961">
        <ele>325</ele>
        <time>2026-08-29T12:50:47Z</time>
      </trkpt>
      <trkpt lat="50.843219328671694" lon="13.120954865589738">
        <ele>325</ele>
        <time>2026-08-29T12:50:48Z</time>
      </trkpt>
      <trkpt lat="50.843265261501074" lon="13.120908932760358">
        <ele>324</ele>
        <time>2026-08-29T12:50:49Z</time>
      </trkpt>
      <trkpt lat="50.843303399160504" lon="13.120866185054183">
        <ele>324</ele>
        <time>2026-08-29T12:50:50Z</time>
      </trkpt>
      <trkpt lat="50.843345308676362" lon="13.120821760967374">
        <ele>324</ele>
        <time>2026-08-29T12:50:51Z</time>
      </trkpt>
      <trkpt lat="50.843386380001903" lon="13.120782198384404">
        <ele>324</ele>
        <time>2026-08-29T12:50:52Z</time>
      </trkpt>
      <trkpt lat="50.843422338366508" lon="13.120754789561033">
        <ele>324</ele>
        <time>2026-08-29T12:50:53Z</time>
      </trkpt>
      <trkpt lat="50.843454273417592" lon="13.120732493698597">
        <ele>324</ele>
        <time>2026-08-29T12:50:54Z</time>
      </trkpt>
      <trkpt lat="50.84349425509572" lon="13.120709862560034">
        <ele>323</ele>
        <time>2026-08-29T12:50:55Z</time>
      </trkpt>
      <trkpt lat="50.843527028337121" lon="13.120677843689919">
        <ele>323</ele>
        <time>2026-08-29T12:50:56Z</time>
      </trkpt>
      <trkpt lat="50.843565920367837" lon="13.12064666301012">
        <ele>323</ele>
        <time>2026-08-29T12:50:57Z</time>
      </trkpt>
      <trkpt lat="50.843605482950807" lon="13.120615901425481">
        <ele>324</ele>
        <time>2026-08-29T12:50:58Z</time>
      </trkpt>
      <trkpt lat="50.843656612560153" lon="13.120592180639505">
        <ele>324</ele>
        <time>2026-08-29T12:50:59Z</time>
      </trkpt>
      <trkpt lat="50.843702629208565" lon="13.120562005788088">
        <ele>325</ele>
        <time>2026-08-29T12:51:00Z</time>
      </trkpt>
      <trkpt lat="50.84375468082726" lon="13.120532333850861">
        <ele>325</ele>
        <time>2026-08-29T12:51:01Z</time>
      </trkpt>
      <trkpt lat="50.84380991756916" lon="13.120508277788758">
        <ele>325</ele>
        <time>2026-08-29T12:51:02Z</time>
      </trkpt>
      <trkpt lat="50.843864902853966" lon="13.1204819586128">
        <ele>326</ele>
        <time>2026-08-29T12:51:03Z</time>
      </trkpt>
      <trkpt lat="50.843919720500708" lon="13.120453795418143">
        <ele>326</ele>
        <time>2026-08-29T12:51:04Z</time>
      </trkpt>
      <trkpt lat="50.843967329710722" lon="13.120431415736675">
        <ele>326</ele>
        <time>2026-08-29T12:51:05Z</time>
      </trkpt>
      <trkpt lat="50.844016447663307" lon="13.120409622788429">
        <ele>326</ele>
        <time>2026-08-29T12:51:06Z</time>
      </trkpt>
      <trkpt lat="50.844064392149448" lon="13.120384979993105">
        <ele>326</ele>
        <time>2026-08-29T12:51:07Z</time>
      </trkpt>
      <trkpt lat="50.844112588092685" lon="13.120355810970068">
        <ele>326</ele>
        <time>2026-08-29T12:51:08Z</time>
      </trkpt>
      <trkpt lat="50.844156509265304" lon="13.120330329984426">
        <ele>326</ele>
        <time>2026-08-29T12:51:09Z</time>
      </trkpt>
      <trkpt lat="50.844200262799859" lon="13.120310129597783">
        <ele>326</ele>
        <time>2026-08-29T12:51:10Z</time>
      </trkpt>
      <trkpt lat="50.844242004677653" lon="13.120288252830505">
        <ele>326</ele>
        <time>2026-08-29T12:51:11Z</time>
      </trkpt>
      <trkpt lat="50.844285758212209" lon="13.120260173454881">
        <ele>326</ele>
        <time>2026-08-29T12:51:12Z</time>
      </trkpt>
      <trkpt lat="50.844322722405195" lon="13.120228741317987">
        <ele>326</ele>
        <time>2026-08-29T12:51:13Z</time>
      </trkpt>
      <trkpt lat="50.844366308301687" lon="13.120200913399458">
        <ele>326</ele>
        <time>2026-08-29T12:51:14Z</time>
      </trkpt>
      <trkpt lat="50.844408720731735" lon="13.120178617537022">
        <ele>326</ele>
        <time>2026-08-29T12:51:15Z</time>
      </trkpt>
      <trkpt lat="50.844455659389496" lon="13.12016093172133">
        <ele>326</ele>
        <time>2026-08-29T12:51:16Z</time>
      </trkpt>
      <trkpt lat="50.844503100961447" lon="13.120146850124002">
        <ele>325</ele>
        <time>2026-08-29T12:51:17Z</time>
      </trkpt>
      <trkpt lat="50.8445452619344" lon="13.120124386623502">
        <ele>325</ele>
        <time>2026-08-29T12:51:18Z</time>
      </trkpt>
      <trkpt lat="50.844590524211526" lon="13.120105359703302">
        <ele>325</ele>
        <time>2026-08-29T12:51:19Z</time>
      </trkpt>
      <trkpt lat="50.844633858650923" lon="13.120081555098295">
        <ele>325</ele>
        <time>2026-08-29T12:51:20Z</time>
      </trkpt>
      <trkpt lat="50.8446747623384" lon="13.120056577026844">
        <ele>325</ele>
        <time>2026-08-29T12:51:21Z</time>
      </trkpt>
      <trkpt lat="50.844717007130384" lon="13.120025144889951">
        <ele>325</ele>
        <time>2026-08-29T12:51:22Z</time>
      </trkpt>
      <trkpt lat="50.844763023778796" lon="13.120002597570419">
        <ele>325</ele>
        <time>2026-08-29T12:51:23Z</time>
      </trkpt>
      <trkpt lat="50.844812812283635" lon="13.119988515973091">
        <ele>325</ele>
        <time>2026-08-29T12:51:24Z</time>
      </trkpt>
      <trkpt lat="50.844858828932047" lon="13.11996990814805">
        <ele>325</ele>
        <time>2026-08-29T12:51:25Z</time>
      </trkpt>
      <trkpt lat="50.844912640750408" lon="13.119953731074929">
        <ele>325</ele>
        <time>2026-08-29T12:51:26Z</time>
      </trkpt>
      <trkpt lat="50.844959579408169" lon="13.119928166270256">
        <ele>325</ele>
        <time>2026-08-29T12:51:27Z</time>
      </trkpt>
      <trkpt lat="50.845003584399819" lon="13.119902014732361">
        <ele>325</ele>
        <time>2026-08-29T12:51:28Z</time>
      </trkpt>
      <trkpt lat="50.845048930495977" lon="13.119882233440876">
        <ele>325</ele>
        <time>2026-08-29T12:51:29Z</time>
      </trkpt>
      <trkpt lat="50.845093773677945" lon="13.119847699999809">
        <ele>325</ele>
        <time>2026-08-29T12:51:30Z</time>
      </trkpt>
      <trkpt lat="50.845144232735038" lon="13.119814088568091">
        <ele>325</ele>
        <time>2026-08-29T12:51:31Z</time>
      </trkpt>
      <trkpt lat="50.845186477527022" lon="13.119799252599478">
        <ele>325</ele>
        <time>2026-08-29T12:51:32Z</time>
      </trkpt>
      <trkpt lat="50.845237858593464" lon="13.119778716936707">
        <ele>325</ele>
        <time>2026-08-29T12:51:33Z</time>
      </trkpt>
      <trkpt lat="50.845286389812827" lon="13.119753655046225">
        <ele>325</ele>
        <time>2026-08-29T12:51:34Z</time>
      </trkpt>
      <trkpt lat="50.845334418118" lon="13.119730604812503">
        <ele>326</ele>
        <time>2026-08-29T12:51:35Z</time>
      </trkpt>
      <trkpt lat="50.845384206622839" lon="13.119717529043555">
        <ele>326</ele>
        <time>2026-08-29T12:51:36Z</time>
      </trkpt>
      <trkpt lat="50.845431061461568" lon="13.119701016694307">
        <ele>326</ele>
        <time>2026-08-29T12:51:37Z</time>
      </trkpt>
      <trkpt lat="50.845476239919662" lon="13.119679475203156">
        <ele>326</ele>
        <time>2026-08-29T12:51:38Z</time>
      </trkpt>
      <trkpt lat="50.845523430034518" lon="13.119661705568433">
        <ele>326</ele>
        <time>2026-08-29T12:51:39Z</time>
      </trkpt>
      <trkpt lat="50.845571123063564" lon="13.119641756638885">
        <ele>326</ele>
        <time>2026-08-29T12:51:40Z</time>
      </trkpt>
      <trkpt lat="50.845617642626166" lon="13.119630357250571">
        <ele>326</ele>
        <time>2026-08-29T12:51:41Z</time>
      </trkpt>
      <trkpt lat="50.845667598769069" lon="13.119614012539387">
        <ele>327</ele>
        <time>2026-08-29T12:51:42Z</time>
      </trkpt>
      <trkpt lat="50.845712944865227" lon="13.119603618979454">
        <ele>327</ele>
        <time>2026-08-29T12:51:43Z</time>
      </trkpt>
      <trkpt lat="50.845764074474573" lon="13.119591968134046">
        <ele>327</ele>
        <time>2026-08-29T12:51:44Z</time>
      </trkpt>
      <trkpt lat="50.845806403085589" lon="13.11958534643054">
        <ele>327</ele>
        <time>2026-08-29T12:51:45Z</time>
      </trkpt>
      <trkpt lat="50.845854347571731" lon="13.11957067809999">
        <ele>326</ele>
        <time>2026-08-29T12:51:46Z</time>
      </trkpt>
      <trkpt lat="50.845897682011127" lon="13.119561206549406">
        <ele>326</ele>
        <time>2026-08-29T12:51:47Z</time>
      </trkpt>
      <trkpt lat="50.845947470515966" lon="13.119558272883296">
        <ele>325</ele>
        <time>2026-08-29T12:51:48Z</time>
      </trkpt>
      <trkpt lat="50.845993319526315" lon="13.11955307610333">
        <ele>325</ele>
        <time>2026-08-29T12:51:49Z</time>
      </trkpt>
      <trkpt lat="50.846043610945344" lon="13.11954720877111">
        <ele>325</ele>
        <time>2026-08-29T12:51:50Z</time>
      </trkpt>
      <trkpt lat="50.846091220155358" lon="13.119541592895985">
        <ele>325</ele>
        <time>2026-08-29T12:51:51Z</time>
      </trkpt>
      <trkpt lat="50.846139248460531" lon="13.119539329782128">
        <ele>325</ele>
        <time>2026-08-29T12:51:52Z</time>
      </trkpt>
      <trkpt lat="50.846191886812449" lon="13.119528936222196">
        <ele>325</ele>
        <time>2026-08-29T12:51:53Z</time>
      </trkpt>
      <trkpt lat="50.846243351697922" lon="13.119520973414183">
        <ele>325</ele>
        <time>2026-08-29T12:51:54Z</time>
      </trkpt>
      <trkpt lat="50.846290709450841" lon="13.119522230699658">
        <ele>324</ele>
        <time>2026-08-29T12:51:55Z</time>
      </trkpt>
      <trkpt lat="50.846342677250504" lon="13.119523739442229">
        <ele>324</ele>
        <time>2026-08-29T12:51:56Z</time>
      </trkpt>
      <trkpt lat="50.84639179520309" lon="13.119525918737054">
        <ele>324</ele>
        <time>2026-08-29T12:51:57Z</time>
      </trkpt>
      <trkpt lat="50.846441248431802" lon="13.119522398337722">
        <ele>324</ele>
        <time>2026-08-29T12:51:58Z</time>
      </trkpt>
      <trkpt lat="50.846487767994404" lon="13.11952717602253">
        <ele>324</ele>
        <time>2026-08-29T12:51:59Z</time>
      </trkpt>
      <trkpt lat="50.846532778814435" lon="13.119521057233214">
        <ele>324</ele>
        <time>2026-08-29T12:52:00Z</time>
      </trkpt>
      <trkpt lat="50.846584746614099" lon="13.11951938085258">
        <ele>323</ele>
        <time>2026-08-29T12:52:01Z</time>
      </trkpt>
      <trkpt lat="50.846639899536967" lon="13.119523487985134">
        <ele>323</ele>
        <time>2026-08-29T12:52:02Z</time>
      </trkpt>
      <trkpt lat="50.846683820709586" lon="13.119515776634216">
        <ele>323</ele>
        <time>2026-08-29T12:52:03Z</time>
      </trkpt>
      <trkpt lat="50.846730088815093" lon="13.11951594427228">
        <ele>323</ele>
        <time>2026-08-29T12:52:04Z</time>
      </trkpt>
      <trkpt lat="50.846776021644473" lon="13.119522733613849">
        <ele>323</ele>
        <time>2026-08-29T12:52:05Z</time>
      </trkpt>
      <trkpt lat="50.846826648339629" lon="13.11953354626894">
        <ele>323</ele>
        <time>2026-08-29T12:52:06Z</time>
      </trkpt>
      <trkpt lat="50.846874341368675" lon="13.119553243741393">
        <ele>322</ele>
        <time>2026-08-29T12:52:07Z</time>
      </trkpt>
      <trkpt lat="50.846925722435117" lon="13.119565062224865">
        <ele>322</ele>
        <time>2026-08-29T12:52:08Z</time>
      </trkpt>
      <trkpt lat="50.846973331645131" lon="13.119576126337051">
        <ele>323</ele>
        <time>2026-08-29T12:52:09Z</time>
      </trkpt>
      <trkpt lat="50.847022114321589" lon="13.119594482704997">
        <ele>323</ele>
        <time>2026-08-29T12:52:10Z</time>
      </trkpt>
      <trkpt lat="50.847071148455143" lon="13.119603032246232">
        <ele>322</ele>
        <time>2026-08-29T12:52:11Z</time>
      </trkpt>
      <trkpt lat="50.847118338569999" lon="13.1196219753474">
        <ele>322</ele>
        <time>2026-08-29T12:52:12Z</time>
      </trkpt>
      <trkpt lat="50.847170809283853" lon="13.119631865993142">
        <ele>322</ele>
        <time>2026-08-29T12:52:13Z</time>
      </trkpt>
      <trkpt lat="50.847230069339275" lon="13.119643935933709">
        <ele>322</ele>
        <time>2026-08-29T12:52:14Z</time>
      </trkpt>
      <trkpt lat="50.847288575023413" lon="13.119656341150403">
        <ele>322</ele>
        <time>2026-08-29T12:52:15Z</time>
      </trkpt>
      <trkpt lat="50.847341632470489" lon="13.119670255109668">
        <ele>322</ele>
        <time>2026-08-29T12:52:16Z</time>
      </trkpt>
      <trkpt lat="50.847384883090854" lon="13.119680061936378">
        <ele>321</ele>
        <time>2026-08-29T12:52:17Z</time>
      </trkpt>
      <trkpt lat="50.84743794053793" lon="13.11970504000783">
        <ele>321</ele>
        <time>2026-08-29T12:52:18Z</time>
      </trkpt>
      <trkpt lat="50.847487645223737" lon="13.119723815470934">
        <ele>321</ele>
        <time>2026-08-29T12:52:19Z</time>
      </trkpt>
      <trkpt lat="50.84753911010921" lon="13.119741166010499">
        <ele>321</ele>
        <time>2026-08-29T12:52:20Z</time>
      </trkpt>
      <trkpt lat="50.847586300224066" lon="13.119755582883954">
        <ele>322</ele>
        <time>2026-08-29T12:52:21Z</time>
      </trkpt>
      <trkpt lat="50.847635418176651" lon="13.119776705279946">
        <ele>322</ele>
        <time>2026-08-29T12:52:22Z</time>
      </trkpt>
      <trkpt lat="50.847684871405363" lon="13.119795648381114">
        <ele>321</ele>
        <time>2026-08-29T12:52:23Z</time>
      </trkpt>
      <trkpt lat="50.847732899710536" lon="13.119820794090629">
        <ele>321</ele>
        <time>2026-08-29T12:52:24Z</time>
      </trkpt>
      <trkpt lat="50.847779335454106" lon="13.119856165722013">
        <ele>321</ele>
        <time>2026-08-29T12:52:25Z</time>
      </trkpt>
      <trkpt lat="50.847824010998011" lon="13.119878964498639">
        <ele>321</ele>
        <time>2026-08-29T12:52:26Z</time>
      </trkpt>
      <trkpt lat="50.847872709855437" lon="13.119905954226851">
        <ele>322</ele>
        <time>2026-08-29T12:52:27Z</time>
      </trkpt>
      <trkpt lat="50.847919061779976" lon="13.119931435212493">
        <ele>322</ele>
        <time>2026-08-29T12:52:28Z</time>
      </trkpt>
      <trkpt lat="50.84796667098999" lon="13.119958005845547">
        <ele>321</ele>
        <time>2026-08-29T12:52:29Z</time>
      </trkpt>
      <trkpt lat="50.8480145316571" lon="13.119974937289953">
        <ele>321</ele>
        <time>2026-08-29T12:52:30Z</time>
      </trkpt>
      <trkpt lat="50.848061889410019" lon="13.11999874189496">
        <ele>321</ele>
        <time>2026-08-29T12:52:31Z</time>
      </trkpt>
      <trkpt lat="50.848107654601336" lon="13.12001726590097">
        <ele>321</ele>
        <time>2026-08-29T12:52:32Z</time>
      </trkpt>
      <trkpt lat="50.848153419792652" lon="13.120039477944374">
        <ele>321</ele>
        <time>2026-08-29T12:52:33Z</time>
      </trkpt>
      <trkpt lat="50.848196838051081" lon="13.120053391903639">
        <ele>321</ele>
        <time>2026-08-29T12:52:34Z</time>
      </trkpt>
      <trkpt lat="50.84823933430016" lon="13.120077028870583">
        <ele>321</ele>
        <time>2026-08-29T12:52:35Z</time>
      </trkpt>
      <trkpt lat="50.848280237987638" lon="13.12010083347559">
        <ele>320</ele>
        <time>2026-08-29T12:52:36Z</time>
      </trkpt>
      <trkpt lat="50.848324410617352" lon="13.12012136913836">
        <ele>320</ele>
        <time>2026-08-29T12:52:37Z</time>
      </trkpt>
      <trkpt lat="50.848370678722858" lon="13.120136791840196">
        <ele>319</ele>
        <time>2026-08-29T12:52:38Z</time>
      </trkpt>
      <trkpt lat="50.848421221598983" lon="13.120149280875921">
        <ele>320</ele>
        <time>2026-08-29T12:52:39Z</time>
      </trkpt>
      <trkpt lat="50.84847142919898" lon="13.120151879265904">
        <ele>320</ele>
        <time>2026-08-29T12:52:40Z</time>
      </trkpt>
      <trkpt lat="50.848520211875439" lon="13.120160680264235">
        <ele>320</ele>
        <time>2026-08-29T12:52:41Z</time>
      </trkpt>
      <trkpt lat="50.848567569628358" lon="13.120172750204802">
        <ele>320</ele>
        <time>2026-08-29T12:52:42Z</time>
      </trkpt>
      <trkpt lat="50.848615011200309" lon="13.120184065774083">
        <ele>320</ele>
        <time>2026-08-29T12:52:43Z</time>
      </trkpt>
      <trkpt lat="50.84866588935256" lon="13.120183143764734">
        <ele>320</ele>
        <time>2026-08-29T12:52:44Z</time>
      </trkpt>
      <trkpt lat="50.84871475584805" lon="13.120179874822497">
        <ele>321</ele>
        <time>2026-08-29T12:52:45Z</time>
      </trkpt>
      <trkpt lat="50.848765801638365" lon="13.120179120451212">
        <ele>321</ele>
        <time>2026-08-29T12:52:46Z</time>
      </trkpt>
      <trkpt lat="50.848810561001301" lon="13.12016386538744">
        <ele>321</ele>
        <time>2026-08-29T12:52:47Z</time>
      </trkpt>
      <trkpt lat="50.848855404183269" lon="13.120158836245537">
        <ele>321</ele>
        <time>2026-08-29T12:52:48Z</time>
      </trkpt>
      <trkpt lat="50.848902594298124" lon="13.120160093531013">
        <ele>321</ele>
        <time>2026-08-29T12:52:49Z</time>
      </trkpt>
      <trkpt lat="50.848948191851377" lon="13.120162943378091">
        <ele>320</ele>
        <time>2026-08-29T12:52:50Z</time>
      </trkpt>
      <trkpt lat="50.848997896537185" lon="13.120155902579427">
        <ele>321</ele>
        <time>2026-08-29T12:52:51Z</time>
      </trkpt>
      <trkpt lat="50.849050367251039" lon="13.120147101581097">
        <ele>320</ele>
        <time>2026-08-29T12:52:52Z</time>
      </trkpt>
      <trkpt lat="50.849102921783924" lon="13.120144503191113">
        <ele>320</ele>
        <time>2026-08-29T12:52:53Z</time>
      </trkpt>
      <trkpt lat="50.849152207374573" lon="13.120138635858893">
        <ele>320</ele>
        <time>2026-08-29T12:52:54Z</time>
      </trkpt>
      <trkpt lat="50.849199900403619" lon="13.120130505412817">
        <ele>320</ele>
        <time>2026-08-29T12:52:55Z</time>
      </trkpt>
      <trkpt lat="50.849249688908458" lon="13.120125895366073">
        <ele>320</ele>
        <time>2026-08-29T12:52:56Z</time>
      </trkpt>
      <trkpt lat="50.84930500946939" lon="13.120132936164737">
        <ele>320</ele>
        <time>2026-08-29T12:52:57Z</time>
      </trkpt>
      <trkpt lat="50.849358821287751" lon="13.12013503164053">
        <ele>320</ele>
        <time>2026-08-29T12:52:58Z</time>
      </trkpt>
      <trkpt lat="50.849416488781571" lon="13.12014676630497">
        <ele>321</ele>
        <time>2026-08-29T12:52:59Z</time>
      </trkpt>
      <trkpt lat="50.84947407245636" lon="13.120156740769744">
        <ele>321</ele>
        <time>2026-08-29T12:53:00Z</time>
      </trkpt>
      <trkpt lat="50.849531069397926" lon="13.120163530111313">
        <ele>321</ele>
        <time>2026-08-29T12:53:01Z</time>
      </trkpt>
      <trkpt lat="50.849584462121129" lon="13.120172834023833">
        <ele>321</ele>
        <time>2026-08-29T12:53:02Z</time>
      </trkpt>
      <trkpt lat="50.849636429920793" lon="13.120183646678925">
        <ele>321</ele>
        <time>2026-08-29T12:53:03Z</time>
      </trkpt>
      <trkpt lat="50.84969007410109" lon="13.120193369686604">
        <ele>321</ele>
        <time>2026-08-29T12:53:04Z</time>
      </trkpt>
      <trkpt lat="50.849741706624627" lon="13.120219185948372">
        <ele>322</ele>
        <time>2026-08-29T12:53:05Z</time>
      </trkpt>
      <trkpt lat="50.8497931715101" lon="13.120233854278922">
        <ele>322</ele>
        <time>2026-08-29T12:53:06Z</time>
      </trkpt>
      <trkpt lat="50.849849749356508" lon="13.120251037180424">
        <ele>322</ele>
        <time>2026-08-29T12:53:07Z</time>
      </trkpt>
      <trkpt lat="50.849904231727123" lon="13.12026402913034">
        <ele>323</ele>
        <time>2026-08-29T12:53:08Z</time>
      </trkpt>
      <trkpt lat="50.849960558116436" lon="13.120280960574746">
        <ele>323</ele>
        <time>2026-08-29T12:53:09Z</time>
      </trkpt>
      <trkpt lat="50.850019818171859" lon="13.120288588106632">
        <ele>322</ele>
        <time>2026-08-29T12:53:10Z</time>
      </trkpt>
      <trkpt lat="50.850074551999569" lon="13.120289258658886">
        <ele>322</ele>
        <time>2026-08-29T12:53:11Z</time>
      </trkpt>
      <trkpt lat="50.850131381303072" lon="13.120298814028502">
        <ele>322</ele>
        <time>2026-08-29T12:53:12Z</time>
      </trkpt>
      <trkpt lat="50.85018795914948" lon="13.120312476530671">
        <ele>322</ele>
        <time>2026-08-29T12:53:13Z</time>
      </trkpt>
      <trkpt lat="50.850236490368843" lon="13.120319098234177">
        <ele>322</ele>
        <time>2026-08-29T12:53:14Z</time>
      </trkpt>
      <trkpt lat="50.850288541987538" lon="13.120330162346363">
        <ele>323</ele>
        <time>2026-08-29T12:53:15Z</time>
      </trkpt>
      <trkpt lat="50.850338079035282" lon="13.120338460430503">
        <ele>323</ele>
        <time>2026-08-29T12:53:16Z</time>
      </trkpt>
      <trkpt lat="50.850387196987867" lon="13.120344914495945">
        <ele>323</ele>
        <time>2026-08-29T12:53:17Z</time>
      </trkpt>
      <trkpt lat="50.850436482578516" lon="13.120357235893607">
        <ele>323</ele>
        <time>2026-08-29T12:53:18Z</time>
      </trkpt>
      <trkpt lat="50.850481828674674" lon="13.120373580604792">
        <ele>323</ele>
        <time>2026-08-29T12:53:19Z</time>
      </trkpt>
      <trkpt lat="50.850522648543119" lon="13.120387243106961">
        <ele>323</ele>
        <time>2026-08-29T12:53:20Z</time>
      </trkpt>
      <trkpt lat="50.850569419562817" lon="13.120394283905625">
        <ele>323</ele>
        <time>2026-08-29T12:53:21Z</time>
      </trkpt>
      <trkpt lat="50.850613340735435" lon="13.120401576161385">
        <ele>323</ele>
        <time>2026-08-29T12:53:22Z</time>
      </trkpt>
      <trkpt lat="50.850652819499373" lon="13.12040870077908">
        <ele>324</ele>
        <time>2026-08-29T12:53:23Z</time>
      </trkpt>
      <trkpt lat="50.850688694044948" lon="13.120408533141017">
        <ele>324</ele>
        <time>2026-08-29T12:53:24Z</time>
      </trkpt>
      <trkpt lat="50.850728088989854" lon="13.120420603081584">
        <ele>324</ele>
        <time>2026-08-29T12:53:25Z</time>
      </trkpt>
      <trkpt lat="50.850759269669652" lon="13.12043409794569">
        <ele>324</ele>
        <time>2026-08-29T12:53:26Z</time>
      </trkpt>
      <trkpt lat="50.850789528340101" lon="13.120445916429162">
        <ele>323</ele>
        <time>2026-08-29T12:53:27Z</time>
      </trkpt>
      <trkpt lat="50.850821044296026" lon="13.120457734912634">
        <ele>323</ele>
        <time>2026-08-29T12:53:28Z</time>
      </trkpt>
      <trkpt lat="50.850851722061634" lon="13.120476761832833">
        <ele>323</ele>
        <time>2026-08-29T12:53:29Z</time>
      </trkpt>
      <trkpt lat="50.850881477817893" lon="13.120495202019811">
        <ele>322</ele>
        <time>2026-08-29T12:53:30Z</time>
      </trkpt>
      <trkpt lat="50.850910982117057" lon="13.120515402406454">
        <ele>322</ele>
        <time>2026-08-29T12:53:31Z</time>
      </trkpt>
      <trkpt lat="50.85093654692173" lon="13.12054205685854">
        <ele>322</ele>
        <time>2026-08-29T12:53:32Z</time>
      </trkpt>
      <trkpt lat="50.85096294991672" lon="13.12056359834969">
        <ele>322</ele>
        <time>2026-08-29T12:53:33Z</time>
      </trkpt>
      <trkpt lat="50.850990861654282" lon="13.120591342449188">
        <ele>322</ele>
        <time>2026-08-29T12:53:34Z</time>
      </trkpt>
      <trkpt lat="50.851010642945766" lon="13.120613722130656">
        <ele>322</ele>
        <time>2026-08-29T12:53:35Z</time>
      </trkpt>
      <trkpt lat="50.85102598182857" lon="13.120646746829152">
        <ele>322</ele>
        <time>2026-08-29T12:53:36Z</time>
      </trkpt>
      <trkpt lat="50.851046098396182" lon="13.120677340775728">
        <ele>322</ele>
        <time>2026-08-29T12:53:37Z</time>
      </trkpt>
      <trkpt lat="50.851062275469303" lon="13.120696451514959">
        <ele>322</ele>
        <time>2026-08-29T12:53:38Z</time>
      </trkpt>
      <trkpt lat="50.851086666807532" lon="13.120726207271218">
        <ele>322</ele>
        <time>2026-08-29T12:53:39Z</time>
      </trkpt>
      <trkpt lat="50.851103849709034" lon="13.120754705742002">
        <ele>322</ele>
        <time>2026-08-29T12:53:40Z</time>
      </trkpt>
      <trkpt lat="50.851121870800853" lon="13.120784126222134">
        <ele>322</ele>
        <time>2026-08-29T12:53:41Z</time>
      </trkpt>
      <trkpt lat="50.851140730082989" lon="13.120809523388743">
        <ele>322</ele>
        <time>2026-08-29T12:53:42Z</time>
      </trkpt>
      <trkpt lat="50.851156068965793" lon="13.120844140648842">
        <ele>322</ele>
        <time>2026-08-29T12:53:43Z</time>
      </trkpt>
      <trkpt lat="50.851169899106026" lon="13.12087289057672">
        <ele>323</ele>
        <time>2026-08-29T12:53:44Z</time>
      </trkpt>
      <trkpt lat="50.85118087939918" lon="13.120901472866535">
        <ele>323</ele>
        <time>2026-08-29T12:53:45Z</time>
      </trkpt>
      <trkpt lat="50.85119211114943" lon="13.120927708223462">
        <ele>323</ele>
        <time>2026-08-29T12:53:46Z</time>
      </trkpt>
      <trkpt lat="50.851207450032234" lon="13.120949836447835">
        <ele>324</ele>
        <time>2026-08-29T12:53:47Z</time>
      </trkpt>
      <trkpt lat="50.85122044198215" lon="13.120976155623794">
        <ele>324</ele>
        <time>2026-08-29T12:53:48Z</time>
      </trkpt>
      <trkpt lat="50.851235613226891" lon="13.121001133695245">
        <ele>325</ele>
        <time>2026-08-29T12:53:49Z</time>
      </trkpt>
      <trkpt lat="50.851259836927056" lon="13.121030051261187">
        <ele>325</ele>
        <time>2026-08-29T12:53:50Z</time>
      </trkpt>
      <trkpt lat="50.851281881332397" lon="13.12106441706419">
        <ele>325</ele>
        <time>2026-08-29T12:53:51Z</time>
      </trkpt>
      <trkpt lat="50.85130300372839" lon="13.121101884171367">
        <ele>325</ele>
        <time>2026-08-29T12:53:52Z</time>
      </trkpt>
      <trkpt lat="50.851329322904348" lon="13.121126107871532">
        <ele>325</ele>
        <time>2026-08-29T12:53:53Z</time>
      </trkpt>
      <trkpt lat="50.851354133337736" lon="13.121155612170696">
        <ele>326</ele>
        <time>2026-08-29T12:53:54Z</time>
      </trkpt>
      <trkpt lat="50.851377099752426" lon="13.121184948831797">
        <ele>326</ele>
        <time>2026-08-29T12:53:55Z</time>
      </trkpt>
      <trkpt lat="50.851403838023543" lon="13.121220655739307">
        <ele>326</ele>
        <time>2026-08-29T12:53:56Z</time>
      </trkpt>
      <trkpt lat="50.851438036188483" lon="13.121266588568687">
        <ele>326</ele>
        <time>2026-08-29T12:53:57Z</time>
      </trkpt>
      <trkpt lat="50.85146427154541" lon="13.121320651844144">
        <ele>325</ele>
        <time>2026-08-29T12:53:58Z</time>
      </trkpt>
      <trkpt lat="50.851505678147078" lon="13.121365578845143">
        <ele>326</ele>
        <time>2026-08-29T12:53:59Z</time>
      </trkpt>
      <trkpt lat="50.851550940424204" lon="13.12140841037035">
        <ele>326</ele>
        <time>2026-08-29T12:54:00Z</time>
      </trkpt>
      <trkpt lat="50.851595615968108" lon="13.121452415362">
        <ele>325</ele>
        <time>2026-08-29T12:54:01Z</time>
      </trkpt>
      <trkpt lat="50.851645572111011" lon="13.12148611061275">
        <ele>325</ele>
        <time>2026-08-29T12:54:02Z</time>
      </trkpt>
      <trkpt lat="50.851695947349072" lon="13.121536402031779">
        <ele>325</ele>
        <time>2026-08-29T12:54:03Z</time>
      </trkpt>
      <trkpt lat="50.851742131635547" lon="13.121581580489874">
        <ele>326</ele>
        <time>2026-08-29T12:54:04Z</time>
      </trkpt>
      <trkpt lat="50.851788651198149" lon="13.121629105880857">
        <ele>326</ele>
        <time>2026-08-29T12:54:05Z</time>
      </trkpt>
      <trkpt lat="50.851833494380116" lon="13.121662549674511">
        <ele>326</ele>
        <time>2026-08-29T12:54:06Z</time>
      </trkpt>
      <trkpt lat="50.851879259571433" lon="13.121702028438449">
        <ele>326</ele>
        <time>2026-08-29T12:54:07Z</time>
      </trkpt>
      <trkpt lat="50.851933406665921" lon="13.121728096157312">
        <ele>326</ele>
        <time>2026-08-29T12:54:08Z</time>
      </trkpt>
      <trkpt lat="50.85198612883687" lon="13.121746201068163">
        <ele>326</ele>
        <time>2026-08-29T12:54:09Z</time>
      </trkpt>
      <trkpt lat="50.852036252617836" lon="13.121779477223754">
        <ele>326</ele>
        <time>2026-08-29T12:54:10Z</time>
      </trkpt>
      <trkpt lat="50.852089812979102" lon="13.121805377304554">
        <ele>325</ele>
        <time>2026-08-29T12:54:11Z</time>
      </trkpt>
      <trkpt lat="50.852146558463573" lon="13.121825074777007">
        <ele>325</ele>
        <time>2026-08-29T12:54:12Z</time>
      </trkpt>
      <trkpt lat="50.852204728871584" lon="13.121837479993701">
        <ele>325</ele>
        <time>2026-08-29T12:54:13Z</time>
      </trkpt>
      <trkpt lat="50.852258456870914" lon="13.121850304305553">
        <ele>325</ele>
        <time>2026-08-29T12:54:14Z</time>
      </trkpt>
      <trkpt lat="50.852313609793782" lon="13.121865140274167">
        <ele>325</ele>
        <time>2026-08-29T12:54:15Z</time>
      </trkpt>
      <trkpt lat="50.852366583421826" lon="13.121878551319242">
        <ele>325</ele>
        <time>2026-08-29T12:54:16Z</time>
      </trkpt>
      <trkpt lat="50.852414360269904" lon="13.121889783069491">
        <ele>324</ele>
        <time>2026-08-29T12:54:17Z</time>
      </trkpt>
      <trkpt lat="50.852459957823157" lon="13.121906463056803">
        <ele>324</ele>
        <time>2026-08-29T12:54:18Z</time>
      </trkpt>
      <trkpt lat="50.852505471557379" lon="13.121919790282845">
        <ele>324</ele>
        <time>2026-08-29T12:54:19Z</time>
      </trkpt>
      <trkpt lat="50.852548638358712" lon="13.121935548260808">
        <ele>324</ele>
        <time>2026-08-29T12:54:20Z</time>
      </trkpt>
      <trkpt lat="50.852597253397107" lon="13.121936973184347">
        <ele>324</ele>
        <time>2026-08-29T12:54:21Z</time>
      </trkpt>
      <trkpt lat="50.852640001103282" lon="13.121939739212394">
        <ele>324</ele>
        <time>2026-08-29T12:54:22Z</time>
      </trkpt>
      <trkpt lat="50.852684928104281" lon="13.121933285146952">
        <ele>324</ele>
        <time>2026-08-29T12:54:23Z</time>
      </trkpt>
      <trkpt lat="50.852727089077234" lon="13.121909396722913">
        <ele>324</ele>
        <time>2026-08-29T12:54:24Z</time>
      </trkpt>
      <trkpt lat="50.852764891460538" lon="13.121882155537605">
        <ele>324</ele>
        <time>2026-08-29T12:54:25Z</time>
      </trkpt>
      <trkpt lat="50.852811578661203" lon="13.121847789734602">
        <ele>324</ele>
        <time>2026-08-29T12:54:26Z</time>
      </trkpt>
      <trkpt lat="50.852850889787078" lon="13.121808562427759">
        <ele>324</ele>
        <time>2026-08-29T12:54:27Z</time>
      </trkpt>
      <trkpt lat="50.852892799302936" lon="13.121773777529597">
        <ele>324</ele>
        <time>2026-08-29T12:54:28Z</time>
      </trkpt>
      <trkpt lat="50.852933702990413" lon="13.121737148612738">
        <ele>324</ele>
        <time>2026-08-29T12:54:29Z</time>
      </trkpt>
      <trkpt lat="50.852967901155353" lon="13.121704375371337">
        <ele>324</ele>
        <time>2026-08-29T12:54:30Z</time>
      </trkpt>
      <trkpt lat="50.853004530072212" lon="13.121668249368668">
        <ele>324</ele>
        <time>2026-08-29T12:54:31Z</time>
      </trkpt>
      <trkpt lat="50.853042919188738" lon="13.121633967384696">
        <ele>324</ele>
        <time>2026-08-29T12:54:32Z</time>
      </trkpt>
      <trkpt lat="50.853080721572042" lon="13.12159507535398">
        <ele>325</ele>
        <time>2026-08-29T12:54:33Z</time>
      </trkpt>
      <trkpt lat="50.853119194507599" lon="13.121553082019091">
        <ele>325</ele>
        <time>2026-08-29T12:54:34Z</time>
      </trkpt>
      <trkpt lat="50.8531588409096" lon="13.121517207473516">
        <ele>324</ele>
        <time>2026-08-29T12:54:35Z</time>
      </trkpt>
      <trkpt lat="50.853198571130633" lon="13.121475717052817">
        <ele>324</ele>
        <time>2026-08-29T12:54:36Z</time>
      </trkpt>
      <trkpt lat="50.853237295523286" lon="13.121428024023771">
        <ele>324</ele>
        <time>2026-08-29T12:54:37Z</time>
      </trkpt>
      <trkpt lat="50.85327509790659" lon="13.121383097022772">
        <ele>324</ele>
        <time>2026-08-29T12:54:38Z</time>
      </trkpt>
      <trkpt lat="50.853317091241479" lon="13.121343618258834">
        <ele>324</ele>
        <time>2026-08-29T12:54:39Z</time>
      </trkpt>
      <trkpt lat="50.853353971615434" lon="13.121305396780372">
        <ele>324</ele>
        <time>2026-08-29T12:54:40Z</time>
      </trkpt>
      <trkpt lat="50.853392947465181" lon="13.121267007663846">
        <ele>323</ele>
        <time>2026-08-29T12:54:41Z</time>
      </trkpt>
      <trkpt lat="50.853426558896899" lon="13.121236748993397">
        <ele>323</ele>
        <time>2026-08-29T12:54:42Z</time>
      </trkpt>
      <trkpt lat="50.853469977155328" lon="13.121200455352664">
        <ele>323</ele>
        <time>2026-08-29T12:54:43Z</time>
      </trkpt>
      <trkpt lat="50.853506019338965" lon="13.121152929961681">
        <ele>323</ele>
        <time>2026-08-29T12:54:44Z</time>
      </trkpt>
      <trkpt lat="50.853537619113922" lon="13.121104147285223">
        <ele>323</ele>
        <time>2026-08-29T12:54:45Z</time>
      </trkpt>
      <trkpt lat="50.853572320193052" lon="13.121055196970701">
        <ele>323</ele>
        <time>2026-08-29T12:54:46Z</time>
      </trkpt>
      <trkpt lat="50.853606183081865" lon="13.121013874188066">
        <ele>323</ele>
        <time>2026-08-29T12:54:47Z</time>
      </trkpt>
      <trkpt lat="50.853636441752315" lon="13.120953692123294">
        <ele>323</ele>
        <time>2026-08-29T12:54:48Z</time>
      </trkpt>
      <trkpt lat="50.853660916909575" lon="13.120884960517287">
        <ele>323</ele>
        <time>2026-08-29T12:54:49Z</time>
      </trkpt>
      <trkpt lat="50.853686481714249" lon="13.120820419862866">
        <ele>323</ele>
        <time>2026-08-29T12:54:50Z</time>
      </trkpt>
      <trkpt lat="50.85371732711792" lon="13.120755292475224">
        <ele>323</ele>
        <time>2026-08-29T12:54:51Z</time>
      </trkpt>
      <trkpt lat="50.853742137551308" lon="13.120696870610118">
        <ele>323</ele>
        <time>2026-08-29T12:54:52Z</time>
      </trkpt>
      <trkpt lat="50.853767031803727" lon="13.120639622211456">
        <ele>323</ele>
        <time>2026-08-29T12:54:53Z</time>
      </trkpt>
      <trkpt lat="50.853791842237115" lon="13.120575165376067">
        <ele>322</ele>
        <time>2026-08-29T12:54:54Z</time>
      </trkpt>
      <trkpt lat="50.853809108957648" lon="13.120522359386086">
        <ele>322</ele>
        <time>2026-08-29T12:54:55Z</time>
      </trkpt>
      <trkpt lat="50.853835679590702" lon="13.120463015511632">
        <ele>322</ele>
        <time>2026-08-29T12:54:56Z</time>
      </trkpt>
      <trkpt lat="50.853862501680851" lon="13.12039696611464">
        <ele>322</ele>
        <time>2026-08-29T12:54:57Z</time>
      </trkpt>
      <trkpt lat="50.853888401761651" lon="13.120334604755044">
        <ele>322</ele>
        <time>2026-08-29T12:54:58Z</time>
      </trkpt>
      <trkpt lat="50.853914637118578" lon="13.120261849835515">
        <ele>322</ele>
        <time>2026-08-29T12:54:59Z</time>
      </trkpt>
      <trkpt lat="50.85394405759871" lon="13.120197728276253">
        <ele>322</ele>
        <time>2026-08-29T12:55:00Z</time>
      </trkpt>
      <trkpt lat="50.853975657373667" lon="13.120130756869912">
        <ele>322</ele>
        <time>2026-08-29T12:55:01Z</time>
      </trkpt>
      <trkpt lat="50.854001305997372" lon="13.120070910081267">
        <ele>322</ele>
        <time>2026-08-29T12:55:02Z</time>
      </trkpt>
      <trkpt lat="50.854024272412062" lon="13.12001240439713">
        <ele>322</ele>
        <time>2026-08-29T12:55:03Z</time>
      </trkpt>
      <trkpt lat="50.854049250483513" lon="13.119956580922008">
        <ele>322</ele>
        <time>2026-08-29T12:55:04Z</time>
      </trkpt>
      <trkpt lat="50.854076072573662" lon="13.119900841265917">
        <ele>322</ele>
        <time>2026-08-29T12:55:05Z</time>
      </trkpt>
      <trkpt lat="50.854097697883844" lon="13.119851723313332">
        <ele>322</ele>
        <time>2026-08-29T12:55:06Z</time>
      </trkpt>
      <trkpt lat="50.85411949083209" lon="13.119801599532366">
        <ele>322</ele>
        <time>2026-08-29T12:55:07Z</time>
      </trkpt>
      <trkpt lat="50.854143127799034" lon="13.119750469923019">
        <ele>321</ele>
        <time>2026-08-29T12:55:08Z</time>
      </trkpt>
      <trkpt lat="50.854168441146612" lon="13.119700513780117">
        <ele>321</ele>
        <time>2026-08-29T12:55:09Z</time>
      </trkpt>
      <trkpt lat="50.854195430874825" lon="13.119649719446898">
        <ele>321</ele>
        <time>2026-08-29T12:55:10Z</time>
      </trkpt>
      <trkpt lat="50.854220241308212" lon="13.119609234854579">
        <ele>321</ele>
        <time>2026-08-29T12:55:11Z</time>
      </trkpt>
      <trkpt lat="50.854245889931917" lon="13.119571935385466">
        <ele>321</ele>
        <time>2026-08-29T12:55:12Z</time>
      </trkpt>
      <trkpt lat="50.854274136945605" lon="13.119537234306335">
        <ele>321</ele>
        <time>2026-08-29T12:55:13Z</time>
      </trkpt>
      <trkpt lat="50.854301042854786" lon="13.119500102475286">
        <ele>321</ele>
        <time>2026-08-29T12:55:14Z</time>
      </trkpt>
      <trkpt lat="50.854335827752948" lon="13.11945928260684">
        <ele>322</ele>
        <time>2026-08-29T12:55:15Z</time>
      </trkpt>
      <trkpt lat="50.854369271546602" lon="13.119424832984805">
        <ele>322</ele>
        <time>2026-08-29T12:55:16Z</time>
      </trkpt>
      <trkpt lat="50.854402212426066" lon="13.11939524486661">
        <ele>323</ele>
        <time>2026-08-29T12:55:17Z</time>
      </trkpt>
      <trkpt lat="50.854437332600355" lon="13.119356269016862">
        <ele>323</ele>
        <time>2026-08-29T12:55:18Z</time>
      </trkpt>
      <trkpt lat="50.85448008030653" lon="13.119320478290319">
        <ele>323</ele>
        <time>2026-08-29T12:55:19Z</time>
      </trkpt>
      <trkpt lat="50.854516206309199" lon="13.119292482733727">
        <ele>323</ele>
        <time>2026-08-29T12:55:20Z</time>
      </trkpt>
      <trkpt lat="50.854553170502186" lon="13.119255350902677">
        <ele>323</ele>
        <time>2026-08-29T12:55:21Z</time>
      </trkpt>
      <trkpt lat="50.854587201029062" lon="13.119222074747086">
        <ele>323</ele>
        <time>2026-08-29T12:55:22Z</time>
      </trkpt>
      <trkpt lat="50.854621650651097" lon="13.119186451658607">
        <ele>323</ele>
        <time>2026-08-29T12:55:23Z</time>
      </trkpt>
      <trkpt lat="50.854656100273132" lon="13.119150493294001">
        <ele>322</ele>
        <time>2026-08-29T12:55:24Z</time>
      </trkpt>
      <trkpt lat="50.854685520753264" lon="13.119107829406857">
        <ele>322</ele>
        <time>2026-08-29T12:55:25Z</time>
      </trkpt>
      <trkpt lat="50.854713432490826" lon="13.119065165519714">
        <ele>322</ele>
        <time>2026-08-29T12:55:26Z</time>
      </trkpt>
      <trkpt lat="50.854738494381309" lon="13.119023004546762">
        <ele>321</ele>
        <time>2026-08-29T12:55:27Z</time>
      </trkpt>
      <trkpt lat="50.854762634262443" lon="13.118981681764126">
        <ele>321</ele>
        <time>2026-08-29T12:55:28Z</time>
      </trkpt>
      <trkpt lat="50.854787863790989" lon="13.118943627923727">
        <ele>321</ele>
        <time>2026-08-29T12:55:29Z</time>
      </trkpt>
      <trkpt lat="50.854811333119869" lon="13.118903059512377">
        <ele>321</ele>
        <time>2026-08-29T12:55:30Z</time>
      </trkpt>
      <trkpt lat="50.854835053905845" lon="13.118862491101027">
        <ele>321</ele>
        <time>2026-08-29T12:55:31Z</time>
      </trkpt>
      <trkpt lat="50.854858187958598" lon="13.118826113641262">
        <ele>321</ele>
        <time>2026-08-29T12:55:32Z</time>
      </trkpt>
      <trkpt lat="50.854881489649415" lon="13.118786299601197">
        <ele>320</ele>
        <time>2026-08-29T12:55:33Z</time>
      </trkpt>
      <trkpt lat="50.854903617873788" lon="13.118744473904371">
        <ele>320</ele>
        <time>2026-08-29T12:55:34Z</time>
      </trkpt>
      <trkpt lat="50.854922560974956" lon="13.11869946308434">
        <ele>320</ele>
        <time>2026-08-29T12:55:35Z</time>
      </trkpt>
      <trkpt lat="50.854944018647075" lon="13.118656883016229">
        <ele>321</ele>
        <time>2026-08-29T12:55:36Z</time>
      </trkpt>
      <trkpt lat="50.854966817423701" lon="13.118611872196198">
        <ele>321</ele>
        <time>2026-08-29T12:55:37Z</time>
      </trkpt>
      <trkpt lat="50.854984922334552" lon="13.118564179167151">
        <ele>321</ele>
        <time>2026-08-29T12:55:38Z</time>
      </trkpt>
      <trkpt lat="50.855006631463766" lon="13.118514306843281">
        <ele>321</ele>
        <time>2026-08-29T12:55:39Z</time>
      </trkpt>
      <trkpt lat="50.855033369734883" lon="13.118459740653634">
        <ele>321</ele>
        <time>2026-08-29T12:55:40Z</time>
      </trkpt>
      <trkpt lat="50.855063628405333" lon="13.118410119786859">
        <ele>322</ele>
        <time>2026-08-29T12:55:41Z</time>
      </trkpt>
      <trkpt lat="50.855093551799655" lon="13.118357481434941">
        <ele>322</ele>
        <time>2026-08-29T12:55:42Z</time>
      </trkpt>
      <trkpt lat="50.85511920042336" lon="13.118305932730436">
        <ele>322</ele>
        <time>2026-08-29T12:55:43Z</time>
      </trkpt>
      <trkpt lat="50.855158176273108" lon="13.118254551663995">
        <ele>322</ele>
        <time>2026-08-29T12:55:44Z</time>
      </trkpt>
      <trkpt lat="50.855198409408331" lon="13.118206523358822">
        <ele>323</ele>
        <time>2026-08-29T12:55:45Z</time>
      </trkpt>
      <trkpt lat="50.855239983648062" lon="13.11816687695682">
        <ele>323</ele>
        <time>2026-08-29T12:55:46Z</time>
      </trkpt>
      <trkpt lat="50.855284659191966" lon="13.11812873929739">
        <ele>323</ele>
        <time>2026-08-29T12:55:47Z</time>
      </trkpt>
      <trkpt lat="50.855326568707824" lon="13.118091439828277">
        <ele>323</ele>
        <time>2026-08-29T12:55:48Z</time>
      </trkpt>
      <trkpt lat="50.855365209281445" lon="13.118047937750816">
        <ele>323</ele>
        <time>2026-08-29T12:55:49Z</time>
      </trkpt>
      <trkpt lat="50.855400329455733" lon="13.118007620796561">
        <ele>323</ele>
        <time>2026-08-29T12:55:50Z</time>
      </trkpt>
      <trkpt lat="50.855433689430356" lon="13.117951042950153">
        <ele>324</ele>
        <time>2026-08-29T12:55:51Z</time>
      </trkpt>
      <trkpt lat="50.855464115738869" lon="13.117901841178536">
        <ele>324</ele>
        <time>2026-08-29T12:55:52Z</time>
      </trkpt>
      <trkpt lat="50.855494793504477" lon="13.117848867550492">
        <ele>324</ele>
        <time>2026-08-29T12:55:53Z</time>
      </trkpt>
      <trkpt lat="50.855517089366913" lon="13.117792876437306">
        <ele>324</ele>
        <time>2026-08-29T12:55:54Z</time>
      </trkpt>
      <trkpt lat="50.855540726333857" lon="13.117734789848328">
        <ele>324</ele>
        <time>2026-08-29T12:55:55Z</time>
      </trkpt>
      <trkpt lat="50.855573080480099" lon="13.117678379639983">
        <ele>324</ele>
        <time>2026-08-29T12:55:56Z</time>
      </trkpt>
      <trkpt lat="50.85560149513185" lon="13.117619203403592">
        <ele>324</ele>
        <time>2026-08-29T12:55:57Z</time>
      </trkpt>
      <trkpt lat="50.855631586164236" lon="13.117555165663362">
        <ele>324</ele>
        <time>2026-08-29T12:55:58Z</time>
      </trkpt>
      <trkpt lat="50.85565916262567" lon="13.117504119873047">
        <ele>324</ele>
        <time>2026-08-29T12:55:59Z</time>
      </trkpt>
      <trkpt lat="50.855682548135519" lon="13.117453660815954">
        <ele>324</ele>
        <time>2026-08-29T12:56:00Z</time>
      </trkpt>
      <trkpt lat="50.855704341083765" lon="13.117402950301766">
        <ele>325</ele>
        <time>2026-08-29T12:56:01Z</time>
      </trkpt>
      <trkpt lat="50.855738120153546" lon="13.117358861491084">
        <ele>325</ele>
        <time>2026-08-29T12:56:02Z</time>
      </trkpt>
      <trkpt lat="50.855778018012643" lon="13.117319298908114">
        <ele>324</ele>
        <time>2026-08-29T12:56:03Z</time>
      </trkpt>
      <trkpt lat="50.855811461806297" lon="13.117276215925813">
        <ele>324</ele>
        <time>2026-08-29T12:56:04Z</time>
      </trkpt>
      <trkpt lat="50.855850521475077" lon="13.117230953648686">
        <ele>324</ele>
        <time>2026-08-29T12:56:05Z</time>
      </trkpt>
      <trkpt lat="50.855894777923822" lon="13.11719692312181">
        <ele>323</ele>
        <time>2026-08-29T12:56:06Z</time>
      </trkpt>
      <trkpt lat="50.855938866734505" lon="13.117159204557538">
        <ele>323</ele>
        <time>2026-08-29T12:56:07Z</time>
      </trkpt>
      <trkpt lat="50.855983542278409" lon="13.117124503478408">
        <ele>323</ele>
        <time>2026-08-29T12:56:08Z</time>
      </trkpt>
      <trkpt lat="50.856018327176571" lon="13.117077481001616">
        <ele>323</ele>
        <time>2026-08-29T12:56:09Z</time>
      </trkpt>
      <trkpt lat="50.856055291369557" lon="13.117027524858713">
        <ele>323</ele>
        <time>2026-08-29T12:56:10Z</time>
      </trkpt>
      <trkpt lat="50.856086807325482" lon="13.116963068023324">
        <ele>323</ele>
        <time>2026-08-29T12:56:11Z</time>
      </trkpt>
      <trkpt lat="50.856120921671391" lon="13.116899700835347">
        <ele>323</ele>
        <time>2026-08-29T12:56:12Z</time>
      </trkpt>
      <trkpt lat="50.856147659942508" lon="13.116844967007637">
        <ele>323</ele>
        <time>2026-08-29T12:56:13Z</time>
      </trkpt>
      <trkpt lat="50.856175404042006" lon="13.116776738315821">
        <ele>323</ele>
        <time>2026-08-29T12:56:14Z</time>
      </trkpt>
      <trkpt lat="50.856197196990252" lon="13.116701720282435">
        <ele>322</ele>
        <time>2026-08-29T12:56:15Z</time>
      </trkpt>
      <trkpt lat="50.856213038787246" lon="13.116630474105477">
        <ele>323</ele>
        <time>2026-08-29T12:56:16Z</time>
      </trkpt>
      <trkpt lat="50.856232233345509" lon="13.116557719185948">
        <ele>323</ele>
        <time>2026-08-29T12:56:17Z</time>
      </trkpt>
      <trkpt lat="50.856245728209615" lon="13.116490244865417">
        <ele>322</ele>
        <time>2026-08-29T12:56:18Z</time>
      </trkpt>
      <trkpt lat="50.856259055435658" lon="13.11642050743103">
        <ele>322</ele>
        <time>2026-08-29T12:56:19Z</time>
      </trkpt>
      <trkpt lat="50.85626844316721" lon="13.116356050595641">
        <ele>322</ele>
        <time>2026-08-29T12:56:20Z</time>
      </trkpt>
      <trkpt lat="50.856280010193586" lon="13.116301400586963">
        <ele>322</ele>
        <time>2026-08-29T12:56:21Z</time>
      </trkpt>
      <trkpt lat="50.856286883354187" lon="13.116246080026031">
        <ele>322</ele>
        <time>2026-08-29T12:56:22Z</time>
      </trkpt>
      <trkpt lat="50.856298366561532" lon="13.116191513836384">
        <ele>322</ele>
        <time>2026-08-29T12:56:23Z</time>
      </trkpt>
      <trkpt lat="50.856306999921799" lon="13.116138372570276">
        <ele>321</ele>
        <time>2026-08-29T12:56:24Z</time>
      </trkpt>
      <trkpt lat="50.856316471472383" lon="13.11608238145709">
        <ele>321</ele>
        <time>2026-08-29T12:56:25Z</time>
      </trkpt>
      <trkpt lat="50.856318650767207" lon="13.116028737276793">
        <ele>321</ele>
        <time>2026-08-29T12:56:26Z</time>
      </trkpt>
      <trkpt lat="50.856325691565871" lon="13.115975260734558">
        <ele>321</ele>
        <time>2026-08-29T12:56:27Z</time>
      </trkpt>
      <trkpt lat="50.856332900002599" lon="13.115914827212691">
        <ele>321</ele>
        <time>2026-08-29T12:56:28Z</time>
      </trkpt>
      <trkpt lat="50.856339940801263" lon="13.115850118920207">
        <ele>321</ele>
        <time>2026-08-29T12:56:29Z</time>
      </trkpt>
      <trkpt lat="50.856348741799593" lon="13.115790188312531">
        <ele>321</ele>
        <time>2026-08-29T12:56:30Z</time>
      </trkpt>
      <trkpt lat="50.856358800083399" lon="13.115716595202684">
        <ele>321</ele>
        <time>2026-08-29T12:56:31Z</time>
      </trkpt>
      <trkpt lat="50.856364918872714" lon="13.115647612139583">
        <ele>321</ele>
        <time>2026-08-29T12:56:32Z</time>
      </trkpt>
      <trkpt lat="50.856370031833649" lon="13.115579383447766">
        <ele>320</ele>
        <time>2026-08-29T12:56:33Z</time>
      </trkpt>
      <trkpt lat="50.856372797861695" lon="13.115508975461125">
        <ele>320</ele>
        <time>2026-08-29T12:56:34Z</time>
      </trkpt>
      <trkpt lat="50.856380928307772" lon="13.115434376522899">
        <ele>320</ele>
        <time>2026-08-29T12:56:35Z</time>
      </trkpt>
      <trkpt lat="50.856386041268706" lon="13.115357933565974">
        <ele>320</ele>
        <time>2026-08-29T12:56:36Z</time>
      </trkpt>
      <trkpt lat="50.856386376544833" lon="13.115287441760302">
        <ele>320</ele>
        <time>2026-08-29T12:56:37Z</time>
      </trkpt>
      <trkpt lat="50.856386460363865" lon="13.115205131471157">
        <ele>320</ele>
        <time>2026-08-29T12:56:38Z</time>
      </trkpt>
      <trkpt lat="50.856387047097087" lon="13.115134052932262">
        <ele>319</ele>
        <time>2026-08-29T12:56:39Z</time>
      </trkpt>
      <trkpt lat="50.856381431221962" lon="13.115062890574336">
        <ele>320</ele>
        <time>2026-08-29T12:56:40Z</time>
      </trkpt>
      <trkpt lat="50.856380509212613" lon="13.1149956677109">
        <ele>320</ele>
        <time>2026-08-29T12:56:41Z</time>
      </trkpt>
      <trkpt lat="50.856376402080059" lon="13.114928361028433">
        <ele>319</ele>
        <time>2026-08-29T12:56:42Z</time>
      </trkpt>
      <trkpt lat="50.856368858367205" lon="13.114862227812409">
        <ele>320</ele>
        <time>2026-08-29T12:56:43Z</time>
      </trkpt>
      <trkpt lat="50.856362320482731" lon="13.114794502034783">
        <ele>320</ele>
        <time>2026-08-29T12:56:44Z</time>
      </trkpt>
      <trkpt lat="50.856357710435987" lon="13.114730631932616">
        <ele>320</ele>
        <time>2026-08-29T12:56:45Z</time>
      </trkpt>
      <trkpt lat="50.856359805911779" lon="13.114666258916259">
        <ele>320</ele>
        <time>2026-08-29T12:56:46Z</time>
      </trkpt>
      <trkpt lat="50.85635787807405" lon="13.114602388814092">
        <ele>320</ele>
        <time>2026-08-29T12:56:47Z</time>
      </trkpt>
      <trkpt lat="50.856355782598257" lon="13.1145397759974">
        <ele>320</ele>
        <time>2026-08-29T12:56:48Z</time>
      </trkpt>
      <trkpt lat="50.856355363503098" lon="13.114475151523948">
        <ele>321</ele>
        <time>2026-08-29T12:56:49Z</time>
      </trkpt>
      <trkpt lat="50.856352932751179" lon="13.114420166239142">
        <ele>321</ele>
        <time>2026-08-29T12:56:50Z</time>
      </trkpt>
      <trkpt lat="50.856345724314451" lon="13.114353194832802">
        <ele>320</ele>
        <time>2026-08-29T12:56:51Z</time>
      </trkpt>
      <trkpt lat="50.856339521706104" lon="13.114287564530969">
        <ele>319</ele>
        <time>2026-08-29T12:56:52Z</time>
      </trkpt>
      <trkpt lat="50.85633440874517" lon="13.114231657236814">
        <ele>319</ele>
        <time>2026-08-29T12:56:53Z</time>
      </trkpt>
      <trkpt lat="50.856328792870045" lon="13.114166194573045">
        <ele>319</ele>
        <time>2026-08-29T12:56:54Z</time>
      </trkpt>
      <trkpt lat="50.856320913881063" lon="13.114108527079225">
        <ele>319</ele>
        <time>2026-08-29T12:56:55Z</time>
      </trkpt>
      <trkpt lat="50.856303395703435" lon="13.11404868029058">
        <ele>319</ele>
        <time>2026-08-29T12:56:56Z</time>
      </trkpt>
      <trkpt lat="50.856294007971883" lon="13.113987073302269">
        <ele>319</ele>
        <time>2026-08-29T12:56:57Z</time>
      </trkpt>
      <trkpt lat="50.856286212801933" lon="13.113931249827147">
        <ele>319</ele>
        <time>2026-08-29T12:56:58Z</time>
      </trkpt>
      <trkpt lat="50.856280345469713" lon="13.113881209865212">
        <ele>320</ele>
        <time>2026-08-29T12:56:59Z</time>
      </trkpt>
      <trkpt lat="50.856272801756859" lon="13.113828990608454">
        <ele>320</ele>
        <time>2026-08-29T12:57:00Z</time>
      </trkpt>
      <trkpt lat="50.856267772614956" lon="13.113784901797771">
        <ele>320</ele>
        <time>2026-08-29T12:57:01Z</time>
      </trkpt>
      <trkpt lat="50.856256959959865" lon="13.113746847957373">
        <ele>320</ele>
        <time>2026-08-29T12:57:02Z</time>
      </trkpt>
      <trkpt lat="50.856248829513788" lon="13.113706782460213">
        <ele>320</ele>
        <time>2026-08-29T12:57:03Z</time>
      </trkpt>
      <trkpt lat="50.856245141476393" lon="13.113670321181417">
        <ele>320</ele>
        <time>2026-08-29T12:57:04Z</time>
      </trkpt>
      <trkpt lat="50.85624354891479" lon="13.113635284826159">
        <ele>320</ele>
        <time>2026-08-29T12:57:05Z</time>
      </trkpt>
      <trkpt lat="50.8562430460006" lon="13.113603852689266">
        <ele>320</ele>
        <time>2026-08-29T12:57:06Z</time>
      </trkpt>
      <trkpt lat="50.856242291629314" lon="13.113578204065561">
        <ele>320</ele>
        <time>2026-08-29T12:57:07Z</time>
      </trkpt>
      <trkpt lat="50.85624841041863" lon="13.113546939566731">
        <ele>320</ele>
        <time>2026-08-29T12:57:08Z</time>
      </trkpt>
      <trkpt lat="50.856254110112786" lon="13.113519195467234">
        <ele>320</ele>
        <time>2026-08-29T12:57:09Z</time>
      </trkpt>
      <trkpt lat="50.856257630512118" lon="13.113495809957385">
        <ele>320</ele>
        <time>2026-08-29T12:57:10Z</time>
      </trkpt>
      <trkpt lat="50.856264671310782" lon="13.113470328971744">
        <ele>320</ele>
        <time>2026-08-29T12:57:11Z</time>
      </trkpt>
      <trkpt lat="50.856266599148512" lon="13.113444177433848">
        <ele>321</ele>
        <time>2026-08-29T12:57:12Z</time>
      </trkpt>
      <trkpt lat="50.856273220852017" lon="13.113421713933349">
        <ele>321</ele>
        <time>2026-08-29T12:57:13Z</time>
      </trkpt>
      <trkpt lat="50.856284201145172" lon="13.113391539081931">
        <ele>321</ele>
        <time>2026-08-29T12:57:14Z</time>
      </trkpt>
      <trkpt lat="50.856298031285405" lon="13.113373937085271">
        <ele>321</ele>
        <time>2026-08-29T12:57:15Z</time>
      </trkpt>
      <trkpt lat="50.856316471472383" lon="13.113354658707976">
        <ele>321</ele>
        <time>2026-08-29T12:57:16Z</time>
      </trkpt>
      <trkpt lat="50.856337426230311" lon="13.113333284854889">
        <ele>321</ele>
        <time>2026-08-29T12:57:17Z</time>
      </trkpt>
      <trkpt lat="50.856365421786904" lon="13.113299338147044">
        <ele>321</ele>
        <time>2026-08-29T12:57:18Z</time>
      </trkpt>
      <trkpt lat="50.856385622173548" lon="13.113263128325343">
        <ele>321</ele>
        <time>2026-08-29T12:57:19Z</time>
      </trkpt>
      <trkpt lat="50.856408169493079" lon="13.113230522722006">
        <ele>321</ele>
        <time>2026-08-29T12:57:20Z</time>
      </trkpt>
      <trkpt lat="50.85643214173615" lon="13.113201521337032">
        <ele>322</ele>
        <time>2026-08-29T12:57:21Z</time>
      </trkpt>
      <trkpt lat="50.85645318031311" lon="13.113171178847551">
        <ele>321</ele>
        <time>2026-08-29T12:57:22Z</time>
      </trkpt>
      <trkpt lat="50.856471536681056" lon="13.113137986510992">
        <ele>321</ele>
        <time>2026-08-29T12:57:23Z</time>
      </trkpt>
      <trkpt lat="50.856484528630972" lon="13.113112589344382">
        <ele>321</ele>
        <time>2026-08-29T12:57:24Z</time>
      </trkpt>
      <trkpt lat="50.856497855857015" lon="13.113096999004483">
        <ele>321</ele>
        <time>2026-08-29T12:57:25Z</time>
      </trkpt>
      <trkpt lat="50.856500873342156" lon="13.113102111965418">
        <ele>321</ele>
        <time>2026-08-29T12:57:26Z</time>
      </trkpt>
      <trkpt lat="50.856506489217281" lon="13.113103285431862">
        <ele>321</ele>
        <time>2026-08-29T12:57:27Z</time>
      </trkpt>
      <trkpt lat="50.856508081778884" lon="13.113114601001143">
        <ele>321</ele>
        <time>2026-08-29T12:57:28Z</time>
      </trkpt>
      <trkpt lat="50.85650933906436" lon="13.113117450848222">
        <ele>321</ele>
        <time>2026-08-29T12:57:29Z</time>
      </trkpt>
      <trkpt lat="50.856512859463692" lon="13.11311393044889">
        <ele>321</ele>
        <time>2026-08-29T12:57:30Z</time>
      </trkpt>
      <trkpt lat="50.856514871120453" lon="13.113115942105651">
        <ele>320</ele>
        <time>2026-08-29T12:57:31Z</time>
      </trkpt>
      <trkpt lat="50.856516044586897" lon="13.113112170249224">
        <ele>320</ele>
        <time>2026-08-29T12:57:32Z</time>
      </trkpt>
      <trkpt lat="50.856514871120453" lon="13.11310613527894">
        <ele>320</ele>
        <time>2026-08-29T12:57:33Z</time>
      </trkpt>
      <trkpt lat="50.856512188911438" lon="13.113112840801477">
        <ele>321</ele>
        <time>2026-08-29T12:57:34Z</time>
      </trkpt>
      <trkpt lat="50.856515038758516" lon="13.113111918792129">
        <ele>320</ele>
        <time>2026-08-29T12:57:35Z</time>
      </trkpt>
      <trkpt lat="50.85651227273047" lon="13.113101692870259">
        <ele>320</ele>
        <time>2026-08-29T12:57:36Z</time>
      </trkpt>
      <trkpt lat="50.85651277564466" lon="13.113101692870259">
        <ele>320</ele>
        <time>2026-08-29T12:57:37Z</time>
      </trkpt>
      <trkpt lat="50.856513110920787" lon="13.113101273775101">
        <ele>320</ele>
        <time>2026-08-29T12:57:38Z</time>
      </trkpt>
      <trkpt lat="50.856513194739819" lon="13.113101189956069">
        <ele>320</ele>
        <time>2026-08-29T12:57:39Z</time>
      </trkpt>
      <trkpt lat="50.85651327855885" lon="13.113101022318006">
        <ele>320</ele>
        <time>2026-08-29T12:57:40Z</time>
      </trkpt>
      <trkpt lat="50.856513362377882" lon="13.113101189956069">
        <ele>320</ele>
        <time>2026-08-29T12:57:41Z</time>
      </trkpt>
      <trkpt lat="50.856513530015945" lon="13.113101022318006">
        <ele>320</ele>
        <time>2026-08-29T12:57:42Z</time>
      </trkpt>
      <trkpt lat="50.856513530015945" lon="13.113100938498974">
        <ele>320</ele>
        <time>2026-08-29T12:57:43Z</time>
      </trkpt>
      <trkpt lat="50.85651327855885" lon="13.113100854679942">
        <ele>320</ele>
        <time>2026-08-29T12:57:44Z</time>
      </trkpt>
      <trkpt lat="50.856513362377882" lon="13.11310077086091">
        <ele>320</ele>
        <time>2026-08-29T12:57:45Z</time>
      </trkpt>
      <trkpt lat="50.85651327855885" lon="13.113100687041879">
        <ele>320</ele>
        <time>2026-08-29T12:57:46Z</time>
      </trkpt>
      <trkpt lat="50.85651327855885" lon="13.11310077086091">
        <ele>320</ele>
        <time>2026-08-29T12:57:47Z</time>
      </trkpt>
      <trkpt lat="50.856513530015945" lon="13.113101022318006">
        <ele>320</ele>
        <time>2026-08-29T12:57:48Z</time>
      </trkpt>
      <trkpt lat="50.856513613834977" lon="13.113101189956069">
        <ele>320</ele>
        <time>2026-08-29T12:57:49Z</time>
      </trkpt>
      <trkpt lat="50.856513781473041" lon="13.113101609051228">
        <ele>320</ele>
        <time>2026-08-29T12:57:50Z</time>
      </trkpt>
      <trkpt lat="50.856513781473041" lon="13.113101525232196">
        <ele>320</ele>
        <time>2026-08-29T12:57:51Z</time>
      </trkpt>
      <trkpt lat="50.856513697654009" lon="13.113101692870259">
        <ele>320</ele>
        <time>2026-08-29T12:57:52Z</time>
      </trkpt>
      <trkpt lat="50.856513697654009" lon="13.113101692870259">
        <ele>320</ele>
        <time>2026-08-29T12:57:53Z</time>
      </trkpt>
      <trkpt lat="50.856513697654009" lon="13.113101860508323">
        <ele>320</ele>
        <time>2026-08-29T12:57:54Z</time>
      </trkpt>
      <trkpt lat="50.856513697654009" lon="13.113101944327354">
        <ele>320</ele>
        <time>2026-08-29T12:57:55Z</time>
      </trkpt>
      <trkpt lat="50.856513530015945" lon="13.113101860508323">
        <ele>320</ele>
        <time>2026-08-29T12:57:56Z</time>
      </trkpt>
      <trkpt lat="50.856513530015945" lon="13.113102028146386">
        <ele>320</ele>
        <time>2026-08-29T12:57:57Z</time>
      </trkpt>
      <trkpt lat="50.856518056243658" lon="13.113112337887287">
        <ele>321</ele>
        <time>2026-08-29T12:57:58Z</time>
      </trkpt>
      <trkpt lat="50.856509758159518" lon="13.113106219097972">
        <ele>321</ele>
        <time>2026-08-29T12:57:59Z</time>
      </trkpt>
      <trkpt lat="50.856509925797582" lon="13.113106219097972">
        <ele>321</ele>
        <time>2026-08-29T12:58:00Z</time>
      </trkpt>
      <trkpt lat="50.856509758159518" lon="13.113106470555067">
        <ele>321</ele>
        <time>2026-08-29T12:58:01Z</time>
      </trkpt>
      <trkpt lat="50.856509674340487" lon="13.113106554374099">
        <ele>321</ele>
        <time>2026-08-29T12:58:02Z</time>
      </trkpt>
      <trkpt lat="50.856503807008266" lon="13.11309976503253">
        <ele>322</ele>
        <time>2026-08-29T12:58:03Z</time>
      </trkpt>
      <trkpt lat="50.856510931625962" lon="13.113100351765752">
        <ele>322</ele>
        <time>2026-08-29T12:58:04Z</time>
      </trkpt>
      <trkpt lat="50.856511015444994" lon="13.113100100308657">
        <ele>322</ele>
        <time>2026-08-29T12:58:05Z</time>
      </trkpt>
      <trkpt lat="50.856511099264026" lon="13.11310370452702">
        <ele>321</ele>
        <time>2026-08-29T12:58:06Z</time>
      </trkpt>
      <trkpt lat="50.856511099264026" lon="13.113106722012162">
        <ele>321</ele>
        <time>2026-08-29T12:58:07Z</time>
      </trkpt>
      <trkpt lat="50.856501460075378" lon="13.113100854679942">
        <ele>322</ele>
        <time>2026-08-29T12:58:08Z</time>
      </trkpt>
      <trkpt lat="50.856499532237649" lon="13.113108649849892">
        <ele>322</ele>
        <time>2026-08-29T12:58:09Z</time>
      </trkpt>
      <trkpt lat="50.856495508924127" lon="13.113115187734365">
        <ele>323</ele>
        <time>2026-08-29T12:58:10Z</time>
      </trkpt>
      <trkpt lat="50.856498191133142" lon="13.113111415877938">
        <ele>323</ele>
        <time>2026-08-29T12:58:11Z</time>
      </trkpt>
      <trkpt lat="50.856496011838317" lon="13.11310906894505">
        <ele>323</ele>
        <time>2026-08-29T12:58:12Z</time>
      </trkpt>
      <trkpt lat="50.856493078172207" lon="13.113121474161744">
        <ele>323</ele>
        <time>2026-08-29T12:58:13Z</time>
      </trkpt>
      <trkpt lat="50.856487629935145" lon="13.11312667094171">
        <ele>323</ele>
        <time>2026-08-29T12:58:14Z</time>
      </trkpt>
      <trkpt lat="50.856481930240989" lon="13.113125581294298">
        <ele>324</ele>
        <time>2026-08-29T12:58:15Z</time>
      </trkpt>
      <trkpt lat="50.856485031545162" lon="13.113120384514332">
        <ele>324</ele>
        <time>2026-08-29T12:58:16Z</time>
      </trkpt>
      <trkpt lat="50.856481259688735" lon="13.113133208826184">
        <ele>324</ele>
        <time>2026-08-29T12:58:17Z</time>
      </trkpt>
      <trkpt lat="50.856477068737149" lon="13.113150978460908">
        <ele>324</ele>
        <time>2026-08-29T12:58:18Z</time>
      </trkpt>
      <trkpt lat="50.856483103707433" lon="13.113159276545048">
        <ele>324</ele>
        <time>2026-08-29T12:58:19Z</time>
      </trkpt>
      <trkpt lat="50.856481678783894" lon="13.113163216039538">
        <ele>324</ele>
        <time>2026-08-29T12:58:20Z</time>
      </trkpt>
      <trkpt lat="50.85648394189775" lon="13.11317503452301">
        <ele>323</ele>
        <time>2026-08-29T12:58:21Z</time>
      </trkpt>
      <trkpt lat="50.856477320194244" lon="13.113180818036199">
        <ele>323</ele>
        <time>2026-08-29T12:58:22Z</time>
      </trkpt>
      <trkpt lat="50.856475895270705" lon="13.113184506073594">
        <ele>323</ele>
        <time>2026-08-29T12:58:23Z</time>
      </trkpt>
      <trkpt lat="50.856472542509437" lon="13.113181488588452">
        <ele>323</ele>
        <time>2026-08-29T12:58:24Z</time>
      </trkpt>
      <trkpt lat="50.856471871957183" lon="13.113179225474596">
        <ele>323</ele>
        <time>2026-08-29T12:58:25Z</time>
      </trkpt>
      <trkpt lat="50.856470530852675" lon="13.113174615427852">
        <ele>323</ele>
        <time>2026-08-29T12:58:26Z</time>
      </trkpt>
      <trkpt lat="50.856470782309771" lon="13.113174615427852">
        <ele>323</ele>
        <time>2026-08-29T12:58:27Z</time>
      </trkpt>
      <trkpt lat="50.856474721804261" lon="13.113168748095632">
        <ele>323</ele>
        <time>2026-08-29T12:58:28Z</time>
      </trkpt>
      <trkpt lat="50.856472458690405" lon="13.113161791115999">
        <ele>323</ele>
        <time>2026-08-29T12:58:29Z</time>
      </trkpt>
      <trkpt lat="50.856472039595246" lon="13.113163048401475">
        <ele>323</ele>
        <time>2026-08-29T12:58:30Z</time>
      </trkpt>
      <trkpt lat="50.856471788138151" lon="13.113168496638536">
        <ele>323</ele>
        <time>2026-08-29T12:58:31Z</time>
      </trkpt>
      <trkpt lat="50.856469860300422" lon="13.1131721008569">
        <ele>323</ele>
        <time>2026-08-29T12:58:32Z</time>
      </trkpt>
      <trkpt lat="50.856460221111774" lon="13.113186014816165">
        <ele>323</ele>
        <time>2026-08-29T12:58:33Z</time>
      </trkpt>
      <trkpt lat="50.856451001018286" lon="13.113199677318335">
        <ele>324</ele>
        <time>2026-08-29T12:58:34Z</time>
      </trkpt>
      <trkpt lat="50.856439266353846" lon="13.113221805542707">
        <ele>324</ele>
        <time>2026-08-29T12:58:35Z</time>
      </trkpt>
      <trkpt lat="50.856431387364864" lon="13.113241251558065">
        <ele>324</ele>
        <time>2026-08-29T12:58:36Z</time>
      </trkpt>
      <trkpt lat="50.856419820338488" lon="13.113261451944709">
        <ele>324</ele>
        <time>2026-08-29T12:58:37Z</time>
      </trkpt>
      <trkpt lat="50.856407498940825" lon="13.113279975950718">
        <ele>325</ele>
        <time>2026-08-29T12:58:38Z</time>
      </trkpt>
      <trkpt lat="50.856402302160859" lon="13.113296488299966">
        <ele>325</ele>
        <time>2026-08-29T12:58:39Z</time>
      </trkpt>
      <trkpt lat="50.856396099552512" lon="13.113311659544706">
        <ele>324</ele>
        <time>2026-08-29T12:58:40Z</time>
      </trkpt>
      <trkpt lat="50.856395680457354" lon="13.11330889351666">
        <ele>324</ele>
        <time>2026-08-29T12:58:41Z</time>
      </trkpt>
      <trkpt lat="50.856395931914449" lon="13.113305205479264">
        <ele>325</ele>
        <time>2026-08-29T12:58:42Z</time>
      </trkpt>
      <trkpt lat="50.856395596638322" lon="13.113307384774089">
        <ele>325</ele>
        <time>2026-08-29T12:58:43Z</time>
      </trkpt>
      <trkpt lat="50.856397021561861" lon="13.113310821354389">
        <ele>325</ele>
        <time>2026-08-29T12:58:44Z</time>
      </trkpt>
      <trkpt lat="50.856391489505768" lon="13.113310569897294">
        <ele>325</ele>
        <time>2026-08-29T12:58:45Z</time>
      </trkpt>
      <trkpt lat="50.856390232220292" lon="13.113309144973755">
        <ele>326</ele>
        <time>2026-08-29T12:58:46Z</time>
      </trkpt>
      <trkpt lat="50.85639014840126" lon="13.113314509391785">
        <ele>326</ele>
        <time>2026-08-29T12:58:47Z</time>
      </trkpt>
      <trkpt lat="50.85639014840126" lon="13.11330889351666">
        <ele>326</ele>
        <time>2026-08-29T12:58:48Z</time>
      </trkpt>
      <trkpt lat="50.85638964548707" lon="13.113305624574423">
        <ele>325</ele>
        <time>2026-08-29T12:58:49Z</time>
      </trkpt>
      <trkpt lat="50.856388555839658" lon="13.113302020356059">
        <ele>326</ele>
        <time>2026-08-29T12:58:50Z</time>
      </trkpt>
      <trkpt lat="50.85639450699091" lon="13.113311240449548">
        <ele>325</ele>
        <time>2026-08-29T12:58:51Z</time>
      </trkpt>
      <trkpt lat="50.856399536132813" lon="13.113324400037527">
        <ele>325</ele>
        <time>2026-08-29T12:58:52Z</time>
      </trkpt>
      <trkpt lat="50.856399871408939" lon="13.113324232399464">
        <ele>325</ele>
        <time>2026-08-29T12:58:53Z</time>
      </trkpt>
      <trkpt lat="50.856391657143831" lon="13.113326914608479">
        <ele>325</ele>
        <time>2026-08-29T12:58:54Z</time>
      </trkpt>
      <trkpt lat="50.856394339352846" lon="13.113333787769079">
        <ele>324</ele>
        <time>2026-08-29T12:58:55Z</time>
      </trkpt>
      <trkpt lat="50.856392746791244" lon="13.11334460042417">
        <ele>324</ele>
        <time>2026-08-29T12:58:56Z</time>
      </trkpt>
      <trkpt lat="50.856385203078389" lon="13.11336119659245">
        <ele>324</ele>
        <time>2026-08-29T12:58:57Z</time>
      </trkpt>
      <trkpt lat="50.856376066803932" lon="13.113378463312984">
        <ele>323</ele>
        <time>2026-08-29T12:58:58Z</time>
      </trkpt>
      <trkpt lat="50.856371792033315" lon="13.113389359787107">
        <ele>323</ele>
        <time>2026-08-29T12:58:59Z</time>
      </trkpt>
      <trkpt lat="50.856362404301763" lon="13.113405369222164">
        <ele>323</ele>
        <time>2026-08-29T12:59:00Z</time>
      </trkpt>
      <trkpt lat="50.85635201074183" lon="13.113424312323332">
        <ele>323</ele>
        <time>2026-08-29T12:59:01Z</time>
      </trkpt>
      <trkpt lat="50.856338767334819" lon="13.113445853814483">
        <ele>324</ele>
        <time>2026-08-29T12:59:02Z</time>
      </trkpt>
      <trkpt lat="50.856327200308442" lon="13.113467646762729">
        <ele>324</ele>
        <time>2026-08-29T12:59:03Z</time>
      </trkpt>
      <trkpt lat="50.856315800920129" lon="13.113495977595448">
        <ele>324</ele>
        <time>2026-08-29T12:59:04Z</time>
      </trkpt>
      <trkpt lat="50.856306161731482" lon="13.113516764715314">
        <ele>324</ele>
        <time>2026-08-29T12:59:05Z</time>
      </trkpt>
      <trkpt lat="50.85630021058023" lon="13.113530511036515">
        <ele>324</ele>
        <time>2026-08-29T12:59:06Z</time>
      </trkpt>
      <trkpt lat="50.856294427067041" lon="13.113547023385763">
        <ele>325</ele>
        <time>2026-08-29T12:59:07Z</time>
      </trkpt>
      <trkpt lat="50.856289900839329" lon="13.113568732514977">
        <ele>325</ele>
        <time>2026-08-29T12:59:08Z</time>
      </trkpt>
      <trkpt lat="50.856278082355857" lon="13.113589016720653">
        <ele>324</ele>
        <time>2026-08-29T12:59:09Z</time>
      </trkpt>
      <trkpt lat="50.856254026293755" lon="13.113605948165059">
        <ele>324</ele>
        <time>2026-08-29T12:59:10Z</time>
      </trkpt>
      <trkpt lat="50.856226868927479" lon="13.11361332423985">
        <ele>324</ele>
        <time>2026-08-29T12:59:11Z</time>
      </trkpt>
      <trkpt lat="50.856190407648683" lon="13.113618856295943">
        <ele>323</ele>
        <time>2026-08-29T12:59:12Z</time>
      </trkpt>
      <trkpt lat="50.856157634407282" lon="13.113617263734341">
        <ele>324</ele>
        <time>2026-08-29T12:59:13Z</time>
      </trkpt>
      <trkpt lat="50.856120670214295" lon="13.113624891266227">
        <ele>323</ele>
        <time>2026-08-29T12:59:14Z</time>
      </trkpt>
      <trkpt lat="50.856080772355199" lon="13.113635871559381">
        <ele>323</ele>
        <time>2026-08-29T12:59:15Z</time>
      </trkpt>
      <trkpt lat="50.856039449572563" lon="13.113646600395441">
        <ele>323</ele>
        <time>2026-08-29T12:59:16Z</time>
      </trkpt>
      <trkpt lat="50.856001060456038" lon="13.113660765811801">
        <ele>323</ele>
        <time>2026-08-29T12:59:17Z</time>
      </trkpt>
      <trkpt lat="50.855953032150865" lon="13.113679625093937">
        <ele>323</ele>
        <time>2026-08-29T12:59:18Z</time>
      </trkpt>
      <trkpt lat="50.85591028444469" lon="13.113701250404119">
        <ele>323</ele>
        <time>2026-08-29T12:59:19Z</time>
      </trkpt>
      <trkpt lat="50.855867369100451" lon="13.113721702247858">
        <ele>323</ele>
        <time>2026-08-29T12:59:20Z</time>
      </trkpt>
      <trkpt lat="50.855836188420653" lon="13.113733604550362">
        <ele>323</ele>
        <time>2026-08-29T12:59:21Z</time>
      </trkpt>
      <trkpt lat="50.855809114873409" lon="13.113741986453533">
        <ele>323</ele>
        <time>2026-08-29T12:59:22Z</time>
      </trkpt>
      <trkpt lat="50.855782208964229" lon="13.113756319507957">
        <ele>323</ele>
        <time>2026-08-29T12:59:23Z</time>
      </trkpt>
      <trkpt lat="50.855755303055048" lon="13.113773167133331">
        <ele>323</ele>
        <time>2026-08-29T12:59:24Z</time>
      </trkpt>
      <trkpt lat="50.855727139860392" lon="13.113791355863214">
        <ele>323</ele>
        <time>2026-08-29T12:59:25Z</time>
      </trkpt>
      <trkpt lat="50.855698389932513" lon="13.113811053335667">
        <ele>323</ele>
        <time>2026-08-29T12:59:26Z</time>
      </trkpt>
      <trkpt lat="50.85566989146173" lon="13.113836869597435">
        <ele>323</ele>
        <time>2026-08-29T12:59:27Z</time>
      </trkpt>
      <trkpt lat="50.855641309171915" lon="13.11386251822114">
        <ele>323</ele>
        <time>2026-08-29T12:59:28Z</time>
      </trkpt>
      <trkpt lat="50.855617672204971" lon="13.11389478854835">
        <ele>323</ele>
        <time>2026-08-29T12:59:29Z</time>
      </trkpt>
      <trkpt lat="50.855592358857393" lon="13.113914234563708">
        <ele>324</ele>
        <time>2026-08-29T12:59:30Z</time>
      </trkpt>
      <trkpt lat="50.855566626414657" lon="13.113926975056529">
        <ele>324</ele>
        <time>2026-08-29T12:59:31Z</time>
      </trkpt>
      <trkpt lat="50.855544917285442" lon="13.113952707499266">
        <ele>324</ele>
        <time>2026-08-29T12:59:32Z</time>
      </trkpt>
      <trkpt lat="50.855526058003306" lon="13.113982211798429">
        <ele>324</ele>
        <time>2026-08-29T12:59:33Z</time>
      </trkpt>
      <trkpt lat="50.855499487370253" lon="13.113992689177394">
        <ele>324</ele>
        <time>2026-08-29T12:59:34Z</time>
      </trkpt>
      <trkpt lat="50.855473252013326" lon="13.114011967554688">
        <ele>324</ele>
        <time>2026-08-29T12:59:35Z</time>
      </trkpt>
      <trkpt lat="50.855445927008986" lon="13.114020433276892">
        <ele>325</ele>
        <time>2026-08-29T12:59:36Z</time>
      </trkpt>
      <trkpt lat="50.855414578691125" lon="13.114026300609112">
        <ele>325</ele>
        <time>2026-08-29T12:59:37Z</time>
      </trkpt>
      <trkpt lat="50.855389097705483" lon="13.114025965332985">
        <ele>325</ele>
        <time>2026-08-29T12:59:38Z</time>
      </trkpt>
      <trkpt lat="50.855361269786954" lon="13.114017331972718">
        <ele>324</ele>
        <time>2026-08-29T12:59:39Z</time>
      </trkpt>
      <trkpt lat="50.855333190411329" lon="13.114018505439162">
        <ele>325</ele>
        <time>2026-08-29T12:59:40Z</time>
      </trkpt>
      <trkpt lat="50.855303099378943" lon="13.114017164334655">
        <ele>325</ele>
        <time>2026-08-29T12:59:41Z</time>
      </trkpt>
      <trkpt lat="50.855279881507158" lon="13.114007860422134">
        <ele>324</ele>
        <time>2026-08-29T12:59:42Z</time>
      </trkpt>
      <trkpt lat="50.855258423835039" lon="13.114011464640498">
        <ele>325</ele>
        <time>2026-08-29T12:59:43Z</time>
      </trkpt>
      <trkpt lat="50.855239061638713" lon="13.114017667248845">
        <ele>325</ele>
        <time>2026-08-29T12:59:44Z</time>
      </trkpt>
      <trkpt lat="50.855227746069431" lon="13.114021103829145">
        <ele>325</ele>
        <time>2026-08-29T12:59:45Z</time>
      </trkpt>
      <trkpt lat="50.855210898444057" lon="13.114027976989746">
        <ele>325</ele>
        <time>2026-08-29T12:59:46Z</time>
      </trkpt>
      <trkpt lat="50.855197990313172" lon="13.114022109657526">
        <ele>325</ele>
        <time>2026-08-29T12:59:47Z</time>
      </trkpt>
      <trkpt lat="50.855184411630034" lon="13.114027054980397">
        <ele>324</ele>
        <time>2026-08-29T12:59:48Z</time>
      </trkpt>
      <trkpt lat="50.855171671137214" lon="13.114003920927644">
        <ele>324</ele>
        <time>2026-08-29T12:59:49Z</time>
      </trkpt>
      <trkpt lat="50.855162367224693" lon="13.113979529589415">
        <ele>325</ele>
        <time>2026-08-29T12:59:50Z</time>
      </trkpt>
      <trkpt lat="50.855159433558583" lon="13.113964106887579">
        <ele>325</ele>
        <time>2026-08-29T12:59:51Z</time>
      </trkpt>
      <trkpt lat="50.855156918987632" lon="13.113962598145008">
        <ele>325</ele>
        <time>2026-08-29T12:59:52Z</time>
      </trkpt>
      <trkpt lat="50.85515976883471" lon="13.113969471305609">
        <ele>325</ele>
        <time>2026-08-29T12:59:53Z</time>
      </trkpt>
      <trkpt lat="50.855162031948566" lon="13.113970560953021">
        <ele>325</ele>
        <time>2026-08-29T12:59:54Z</time>
      </trkpt>
      <trkpt lat="50.855161948129535" lon="13.113979948684573">
        <ele>324</ele>
        <time>2026-08-29T12:59:55Z</time>
      </trkpt>
      <trkpt lat="50.855160187929869" lon="13.113981038331985">
        <ele>325</ele>
        <time>2026-08-29T12:59:56Z</time>
      </trkpt>
      <trkpt lat="50.855160020291805" lon="13.113980535417795">
        <ele>325</ele>
        <time>2026-08-29T12:59:57Z</time>
      </trkpt>
      <trkpt lat="50.855160104110837" lon="13.113979697227478">
        <ele>325</ele>
        <time>2026-08-29T12:59:58Z</time>
      </trkpt>
      <trkpt lat="50.855160104110837" lon="13.113978942856193">
        <ele>325</ele>
        <time>2026-08-29T12:59:59Z</time>
      </trkpt>
      <trkpt lat="50.8551602717489" lon="13.113978356122971">
        <ele>325</ele>
        <time>2026-08-29T13:00:00Z</time>
      </trkpt>
      <trkpt lat="50.855160690844059" lon="13.113978272303939">
        <ele>325</ele>
        <time>2026-08-29T13:00:01Z</time>
      </trkpt>
      <trkpt lat="50.855160607025027" lon="13.11397785320878">
        <ele>325</ele>
        <time>2026-08-29T13:00:02Z</time>
      </trkpt>
      <trkpt lat="50.855161193758249" lon="13.113977182656527">
        <ele>325</ele>
        <time>2026-08-29T13:00:03Z</time>
      </trkpt>
      <trkpt lat="50.855159182101488" lon="13.113968716934323">
        <ele>325</ele>
        <time>2026-08-29T13:00:04Z</time>
      </trkpt>
      <trkpt lat="50.855160020291805" lon="13.113968465477228">
        <ele>324</ele>
        <time>2026-08-29T13:00:05Z</time>
      </trkpt>
      <trkpt lat="50.855160439386964" lon="13.113967794924974">
        <ele>324</ele>
        <time>2026-08-29T13:00:06Z</time>
      </trkpt>
      <trkpt lat="50.855164127424359" lon="13.113963268697262">
        <ele>325</ele>
        <time>2026-08-29T13:00:07Z</time>
      </trkpt>
      <trkpt lat="50.855169910937548" lon="13.113962430506945">
        <ele>324</ele>
        <time>2026-08-29T13:00:08Z</time>
      </trkpt>
      <trkpt lat="50.855169910937548" lon="13.113962262868881">
        <ele>324</ele>
        <time>2026-08-29T13:00:09Z</time>
      </trkpt>
      <trkpt lat="50.855169910937548" lon="13.113962430506945">
        <ele>324</ele>
        <time>2026-08-29T13:00:10Z</time>
      </trkpt>
      <trkpt lat="50.855169910937548" lon="13.113962514325976">
        <ele>324</ele>
        <time>2026-08-29T13:00:11Z</time>
      </trkpt>
      <trkpt lat="50.855170162394643" lon="13.113962430506945">
        <ele>324</ele>
        <time>2026-08-29T13:00:12Z</time>
      </trkpt>
      <trkpt lat="50.855170246213675" lon="13.113971315324306">
        <ele>324</ele>
        <time>2026-08-29T13:00:13Z</time>
      </trkpt>
      <trkpt lat="50.855169240385294" lon="13.113980367779732">
        <ele>324</ele>
        <time>2026-08-29T13:00:14Z</time>
      </trkpt>
      <trkpt lat="50.855169743299484" lon="13.113979948684573">
        <ele>324</ele>
        <time>2026-08-29T13:00:15Z</time>
      </trkpt>
      <trkpt lat="50.855161780491471" lon="13.113974835723639">
        <ele>324</ele>
        <time>2026-08-29T13:00:16Z</time>
      </trkpt>
      <trkpt lat="50.855163289234042" lon="13.113973410800099">
        <ele>325</ele>
        <time>2026-08-29T13:00:17Z</time>
      </trkpt>
      <trkpt lat="50.85516320541501" lon="13.113973829895258">
        <ele>325</ele>
        <time>2026-08-29T13:00:18Z</time>
      </trkpt>
      <trkpt lat="50.855163121595979" lon="13.113973746076226">
        <ele>325</ele>
        <time>2026-08-29T13:00:19Z</time>
      </trkpt>
      <trkpt lat="50.855163121595979" lon="13.113973997533321">
        <ele>325</ele>
        <time>2026-08-29T13:00:20Z</time>
      </trkpt>
      <trkpt lat="50.85516219958663" lon="13.113972488790751">
        <ele>325</ele>
        <time>2026-08-29T13:00:21Z</time>
      </trkpt>
      <trkpt lat="50.855160187929869" lon="13.113971147686243">
        <ele>325</ele>
        <time>2026-08-29T13:00:22Z</time>
      </trkpt>
      <trkpt lat="50.855159685015678" lon="13.113971399143338">
        <ele>325</ele>
        <time>2026-08-29T13:00:23Z</time>
      </trkpt>
      <trkpt lat="50.855159433558583" lon="13.113961759954691">
        <ele>324</ele>
        <time>2026-08-29T13:00:24Z</time>
      </trkpt>
      <trkpt lat="50.855159517377615" lon="13.113956479355693">
        <ele>325</ele>
        <time>2026-08-29T13:00:25Z</time>
      </trkpt>
      <trkpt lat="50.85515876300633" lon="13.113961005583405">
        <ele>325</ele>
        <time>2026-08-29T13:00:26Z</time>
      </trkpt>
      <trkpt lat="50.855157673358917" lon="13.113958993926644">
        <ele>326</ele>
        <time>2026-08-29T13:00:27Z</time>
      </trkpt>
      <trkpt lat="50.855157170444727" lon="13.113952539861202">
        <ele>325</ele>
        <time>2026-08-29T13:00:28Z</time>
      </trkpt>
      <trkpt lat="50.855150548741221" lon="13.113933010026813">
        <ele>325</ele>
        <time>2026-08-29T13:00:29Z</time>
      </trkpt>
      <trkpt lat="50.855139987543225" lon="13.113914234563708">
        <ele>325</ele>
        <time>2026-08-29T13:00:30Z</time>
      </trkpt>
      <trkpt lat="50.855128169059753" lon="13.113883892074227">
        <ele>325</ele>
        <time>2026-08-29T13:00:31Z</time>
      </trkpt>
      <trkpt lat="50.855110483244061" lon="13.113848771899939">
        <ele>324</ele>
        <time>2026-08-29T13:00:32Z</time>
      </trkpt>
      <trkpt lat="50.855093551799655" lon="13.113798229023814">
        <ele>325</ele>
        <time>2026-08-29T13:00:33Z</time>
      </trkpt>
      <trkpt lat="50.855077961459756" lon="13.113754391670227">
        <ele>326</ele>
        <time>2026-08-29T13:00:34Z</time>
      </trkpt>
      <trkpt lat="50.85506496950984" lon="13.113693287596107">
        <ele>326</ele>
        <time>2026-08-29T13:00:35Z</time>
      </trkpt>
      <trkpt lat="50.855056419968605" lon="13.113628914579749">
        <ele>325</ele>
        <time>2026-08-29T13:00:36Z</time>
      </trkpt>
      <trkpt lat="50.855035381391644" lon="13.113566720858216">
        <ele>325</ele>
        <time>2026-08-29T13:00:37Z</time>
      </trkpt>
      <trkpt lat="50.855011912062764" lon="13.113498575985432">
        <ele>325</ele>
        <time>2026-08-29T13:00:38Z</time>
      </trkpt>
      <trkpt lat="50.854994477704167" lon="13.113434873521328">
        <ele>324</ele>
        <time>2026-08-29T13:00:39Z</time>
      </trkpt>
      <trkpt lat="50.854971008375287" lon="13.113371757790446">
        <ele>323</ele>
        <time>2026-08-29T13:00:40Z</time>
      </trkpt>
      <trkpt lat="50.854955418035388" lon="13.113309228792787">
        <ele>324</ele>
        <time>2026-08-29T13:00:41Z</time>
      </trkpt>
      <trkpt lat="50.854945778846741" lon="13.113240245729685">
        <ele>324</ele>
        <time>2026-08-29T13:00:42Z</time>
      </trkpt>
      <trkpt lat="50.85493354126811" lon="13.113174615427852">
        <ele>324</ele>
        <time>2026-08-29T13:00:43Z</time>
      </trkpt>
      <trkpt lat="50.854923902079463" lon="13.113110829144716">
        <ele>324</ele>
        <time>2026-08-29T13:00:44Z</time>
      </trkpt>
      <trkpt lat="50.854914598166943" lon="13.113050982356071">
        <ele>324</ele>
        <time>2026-08-29T13:00:45Z</time>
      </trkpt>
      <trkpt lat="50.854899929836392" lon="13.112983172759414">
        <ele>323</ele>
        <time>2026-08-29T13:00:46Z</time>
      </trkpt>
      <trkpt lat="50.854875538498163" lon="13.112918883562088">
        <ele>323</ele>
        <time>2026-08-29T13:00:47Z</time>
      </trkpt>
      <trkpt lat="50.854846034198999" lon="13.11285300180316">
        <ele>323</ele>
        <time>2026-08-29T13:00:48Z</time>
      </trkpt>
      <trkpt lat="50.854818038642406" lon="13.112792819738388">
        <ele>323</ele>
        <time>2026-08-29T13:00:49Z</time>
      </trkpt>
      <trkpt lat="50.854792725294828" lon="13.112741522490978">
        <ele>322</ele>
        <time>2026-08-29T13:00:50Z</time>
      </trkpt>
      <trkpt lat="50.854768250137568" lon="13.112685196101665">
        <ele>323</ele>
        <time>2026-08-29T13:00:51Z</time>
      </trkpt>
      <trkpt lat="50.854749390855432" lon="13.112624678760767">
        <ele>323</ele>
        <time>2026-08-29T13:00:52Z</time>
      </trkpt>
      <trkpt lat="50.854720808565617" lon="13.112561563029885">
        <ele>323</ele>
        <time>2026-08-29T13:00:53Z</time>
      </trkpt>
      <trkpt lat="50.85469800978899" lon="13.112519485875964">
        <ele>323</ele>
        <time>2026-08-29T13:00:54Z</time>
      </trkpt>
      <trkpt lat="50.854670768603683" lon="13.112464835867286">
        <ele>323</ele>
        <time>2026-08-29T13:00:55Z</time>
      </trkpt>
      <trkpt lat="50.854644700884819" lon="13.112413706257939">
        <ele>324</ele>
        <time>2026-08-29T13:00:56Z</time>
      </trkpt>
      <trkpt lat="50.854616621509194" lon="13.1123639177531">
        <ele>324</ele>
        <time>2026-08-29T13:00:57Z</time>
      </trkpt>
      <trkpt lat="50.854591056704521" lon="13.112307759001851">
        <ele>323</ele>
        <time>2026-08-29T13:00:58Z</time>
      </trkpt>
      <trkpt lat="50.85456364788115" lon="13.112254533916712">
        <ele>323</ele>
        <time>2026-08-29T13:00:59Z</time>
      </trkpt>
      <trkpt lat="50.854539927095175" lon="13.112202482298017">
        <ele>323</ele>
        <time>2026-08-29T13:01:00Z</time>
      </trkpt>
      <trkpt lat="50.854511009529233" lon="13.112146323546767">
        <ele>323</ele>
        <time>2026-08-29T13:01:01Z</time>
      </trkpt>
      <trkpt lat="50.854483349248767" lon="13.112090080976486">
        <ele>322</ele>
        <time>2026-08-29T13:01:02Z</time>
      </trkpt>
      <trkpt lat="50.854459377005696" lon="13.112035933881998">
        <ele>323</ele>
        <time>2026-08-29T13:01:03Z</time>
      </trkpt>
      <trkpt lat="50.854431800544262" lon="13.111983044072986">
        <ele>323</ele>
        <time>2026-08-29T13:01:04Z</time>
      </trkpt>
      <trkpt lat="50.85440774448216" lon="13.111931579187512">
        <ele>323</ele>
        <time>2026-08-29T13:01:05Z</time>
      </trkpt>
      <trkpt lat="50.854379665106535" lon="13.111886149272323">
        <ele>323</ele>
        <time>2026-08-29T13:01:06Z</time>
      </trkpt>
      <trkpt lat="50.854349657893181" lon="13.111835103482008">
        <ele>323</ele>
        <time>2026-08-29T13:01:07Z</time>
      </trkpt>
      <trkpt lat="50.854328200221062" lon="13.111785314977169">
        <ele>324</ele>
        <time>2026-08-29T13:01:08Z</time>
      </trkpt>
      <trkpt lat="50.854306742548943" lon="13.111728653311729">
        <ele>324</ele>
        <time>2026-08-29T13:01:09Z</time>
      </trkpt>
      <trkpt lat="50.854286206886172" lon="13.111678613349795">
        <ele>324</ele>
        <time>2026-08-29T13:01:10Z</time>
      </trkpt>
      <trkpt lat="50.854269191622734" lon="13.111626226454973">
        <ele>324</ele>
        <time>2026-08-29T13:01:11Z</time>
      </trkpt>
      <trkpt lat="50.85425091907382" lon="13.111576354131103">
        <ele>324</ele>
        <time>2026-08-29T13:01:12Z</time>
      </trkpt>
      <trkpt lat="50.85422988049686" lon="13.111525224521756">
        <ele>324</ele>
        <time>2026-08-29T13:01:13Z</time>
      </trkpt>
      <trkpt lat="50.854210015386343" lon="13.1114780344069">
        <ele>323</ele>
        <time>2026-08-29T13:01:14Z</time>
      </trkpt>
      <trkpt lat="50.854190066456795" lon="13.111432353034616">
        <ele>323</ele>
        <time>2026-08-29T13:01:15Z</time>
      </trkpt>
      <trkpt lat="50.854166932404041" lon="13.111388012766838">
        <ele>323</ele>
        <time>2026-08-29T13:01:16Z</time>
      </trkpt>
      <trkpt lat="50.854144971817732" lon="13.111347109079361">
        <ele>322</ele>
        <time>2026-08-29T13:01:17Z</time>
      </trkpt>
      <trkpt lat="50.854126280173659" lon="13.111301846802235">
        <ele>322</ele>
        <time>2026-08-29T13:01:18Z</time>
      </trkpt>
      <trkpt lat="50.854108510538936" lon="13.11125616542995">
        <ele>322</ele>
        <time>2026-08-29T13:01:19Z</time>
      </trkpt>
      <trkpt lat="50.854088058695197" lon="13.111210903152823">
        <ele>322</ele>
        <time>2026-08-29T13:01:20Z</time>
      </trkpt>
      <trkpt lat="50.854065846651793" lon="13.111167903989553">
        <ele>322</ele>
        <time>2026-08-29T13:01:21Z</time>
      </trkpt>
      <trkpt lat="50.854041874408722" lon="13.111124569550157">
        <ele>322</ele>
        <time>2026-08-29T13:01:22Z</time>
      </trkpt>
      <trkpt lat="50.854014465585351" lon="13.111082324758172">
        <ele>322</ele>
        <time>2026-08-29T13:01:23Z</time>
      </trkpt>
      <trkpt lat="50.85398655384779" lon="13.111037984490395">
        <ele>322</ele>
        <time>2026-08-29T13:01:24Z</time>
      </trkpt>
      <trkpt lat="50.853953780606389" lon="13.110987776890397">
        <ele>322</ele>
        <time>2026-08-29T13:01:25Z</time>
      </trkpt>
      <trkpt lat="50.853922683745623" lon="13.110927091911435">
        <ele>322</ele>
        <time>2026-08-29T13:01:26Z</time>
      </trkpt>
      <trkpt lat="50.853894269093871" lon="13.110861293971539">
        <ele>322</ele>
        <time>2026-08-29T13:01:27Z</time>
      </trkpt>
      <trkpt lat="50.853864345699549" lon="13.110792646184564">
        <ele>321</ele>
        <time>2026-08-29T13:01:28Z</time>
      </trkpt>
      <trkpt lat="50.853829476982355" lon="13.110728356987238">
        <ele>321</ele>
        <time>2026-08-29T13:01:29Z</time>
      </trkpt>
      <trkpt lat="50.853800140321255" lon="13.11066348105669">
        <ele>322</ele>
        <time>2026-08-29T13:01:30Z</time>
      </trkpt>
      <trkpt lat="50.853768372908235" lon="13.110605394467711">
        <ele>321</ele>
        <time>2026-08-29T13:01:31Z</time>
      </trkpt>
      <trkpt lat="50.853742221370339" lon="13.110546050593257">
        <ele>321</ele>
        <time>2026-08-29T13:01:32Z</time>
      </trkpt>
      <trkpt lat="50.853715902194381" lon="13.110491903498769">
        <ele>321</ele>
        <time>2026-08-29T13:01:33Z</time>
      </trkpt>
      <trkpt lat="50.85368799045682" lon="13.110436499118805">
        <ele>321</ele>
        <time>2026-08-29T13:01:34Z</time>
      </trkpt>
      <trkpt lat="50.853662090376019" lon="13.110381262376904">
        <ele>321</ele>
        <time>2026-08-29T13:01:35Z</time>
      </trkpt>
      <trkpt lat="50.853636357933283" lon="13.110324600711465">
        <ele>321</ele>
        <time>2026-08-29T13:01:36Z</time>
      </trkpt>
      <trkpt lat="50.853611128404737" lon="13.110270369797945">
        <ele>321</ele>
        <time>2026-08-29T13:01:37Z</time>
      </trkpt>
      <trkpt lat="50.853585563600063" lon="13.110222341492772">
        <ele>322</ele>
        <time>2026-08-29T13:01:38Z</time>
      </trkpt>
      <trkpt lat="50.853561004623771" lon="13.110169284045696">
        <ele>322</ele>
        <time>2026-08-29T13:01:39Z</time>
      </trkpt>
      <trkpt lat="50.853534936904907" lon="13.11011865735054">
        <ele>322</ele>
        <time>2026-08-29T13:01:40Z</time>
      </trkpt>
      <trkpt lat="50.853511048480868" lon="13.110070377588272">
        <ele>322</ele>
        <time>2026-08-29T13:01:41Z</time>
      </trkpt>
      <trkpt lat="50.853489842265844" lon="13.11002436093986">
        <ele>322</ele>
        <time>2026-08-29T13:01:42Z</time>
      </trkpt>
      <trkpt lat="50.853465953841805" lon="13.109975578263402">
        <ele>322</ele>
        <time>2026-08-29T13:01:43Z</time>
      </trkpt>
      <trkpt lat="50.853438880294561" lon="13.109914641827345">
        <ele>323</ele>
        <time>2026-08-29T13:01:44Z</time>
      </trkpt>
      <trkpt lat="50.853404849767685" lon="13.109849095344543">
        <ele>322</ele>
        <time>2026-08-29T13:01:45Z</time>
      </trkpt>
      <trkpt lat="50.853375680744648" lon="13.109773909673095">
        <ele>322</ele>
        <time>2026-08-29T13:01:46Z</time>
      </trkpt>
      <trkpt lat="50.853349529206753" lon="13.109696628525853">
        <ele>322</ele>
        <time>2026-08-29T13:01:47Z</time>
      </trkpt>
      <trkpt lat="50.853323126211762" lon="13.109623705968261">
        <ele>322</ele>
        <time>2026-08-29T13:01:48Z</time>
      </trkpt>
      <trkpt lat="50.853289850056171" lon="13.109567044302821">
        <ele>322</ele>
        <time>2026-08-29T13:01:49Z</time>
      </trkpt>
      <trkpt lat="50.853254143148661" lon="13.109504347667098">
        <ele>321</ele>
        <time>2026-08-29T13:01:50Z</time>
      </trkpt>
      <trkpt lat="50.853222040459514" lon="13.109435783699155">
        <ele>321</ele>
        <time>2026-08-29T13:01:51Z</time>
      </trkpt>
      <trkpt lat="50.85319496691227" lon="13.109377361834049">
        <ele>321</ele>
        <time>2026-08-29T13:01:52Z</time>
      </trkpt>
      <trkpt lat="50.853164289146662" lon="13.109313156455755">
        <ele>321</ele>
        <time>2026-08-29T13:01:53Z</time>
      </trkpt>
      <trkpt lat="50.853136209771037" lon="13.10925473459065">
        <ele>321</ele>
        <time>2026-08-29T13:01:54Z</time>
      </trkpt>
      <trkpt lat="50.853108800947666" lon="13.109193798154593">
        <ele>320</ele>
        <time>2026-08-29T13:01:55Z</time>
      </trkpt>
      <trkpt lat="50.853076949715614" lon="13.10912967659533">
        <ele>320</ele>
        <time>2026-08-29T13:01:56Z</time>
      </trkpt>
      <trkpt lat="50.853051384910941" lon="13.109070165082812">
        <ele>320</ele>
        <time>2026-08-29T13:01:57Z</time>
      </trkpt>
      <trkpt lat="50.853023221716285" lon="13.109004618600011">
        <ele>320</ele>
        <time>2026-08-29T13:01:58Z</time>
      </trkpt>
      <trkpt lat="50.852994220331311" lon="13.108949130401015">
        <ele>321</ele>
        <time>2026-08-29T13:01:59Z</time>
      </trkpt>
      <trkpt lat="50.852967062965035" lon="13.108888110145926">
        <ele>321</ele>
        <time>2026-08-29T13:02:00Z</time>
      </trkpt>
      <trkpt lat="50.852938815951347" lon="13.108829520642757">
        <ele>321</ele>
        <time>2026-08-29T13:02:01Z</time>
      </trkpt>
      <trkpt lat="50.852908305823803" lon="13.108765566721559">
        <ele>321</ele>
        <time>2026-08-29T13:02:02Z</time>
      </trkpt>
      <trkpt lat="50.852878382429481" lon="13.108705300837755">
        <ele>320</ele>
        <time>2026-08-29T13:02:03Z</time>
      </trkpt>
      <trkpt lat="50.852845693007112" lon="13.108645873144269">
        <ele>321</ele>
        <time>2026-08-29T13:02:04Z</time>
      </trkpt>
      <trkpt lat="50.85281727835536" lon="13.108591893687844">
        <ele>320</ele>
        <time>2026-08-29T13:02:05Z</time>
      </trkpt>
      <trkpt lat="50.852787690237164" lon="13.108532298356295">
        <ele>320</ele>
        <time>2026-08-29T13:02:06Z</time>
      </trkpt>
      <trkpt lat="50.852761203423142" lon="13.108473122119904">
        <ele>320</ele>
        <time>2026-08-29T13:02:07Z</time>
      </trkpt>
      <trkpt lat="50.852738320827484" lon="13.108414113521576">
        <ele>320</ele>
        <time>2026-08-29T13:02:08Z</time>
      </trkpt>
      <trkpt lat="50.852717785164714" lon="13.108351165428758">
        <ele>320</ele>
        <time>2026-08-29T13:02:09Z</time>
      </trkpt>
      <trkpt lat="50.85269758477807" lon="13.10829215683043">
        <ele>320</ele>
        <time>2026-08-29T13:02:10Z</time>
      </trkpt>
      <trkpt lat="50.852678222581744" lon="13.108227029442787">
        <ele>320</ele>
        <time>2026-08-29T13:02:11Z</time>
      </trkpt>
      <trkpt lat="50.85265651345253" lon="13.10816609300673">
        <ele>320</ele>
        <time>2026-08-29T13:02:12Z</time>
      </trkpt>
      <trkpt lat="50.852635139599442" lon="13.108106246218085">
        <ele>319</ele>
        <time>2026-08-29T13:02:13Z</time>
      </trkpt>
      <trkpt lat="50.852620555087924" lon="13.108046818524599">
        <ele>319</ele>
        <time>2026-08-29T13:02:14Z</time>
      </trkpt>
      <trkpt lat="50.852602617815137" lon="13.107994850724936">
        <ele>319</ele>
        <time>2026-08-29T13:02:15Z</time>
      </trkpt>
      <trkpt lat="50.852582501247525" lon="13.107933579012752">
        <ele>319</ele>
        <time>2026-08-29T13:02:16Z</time>
      </trkpt>
      <trkpt lat="50.852566156536341" lon="13.107877168804407">
        <ele>319</ele>
        <time>2026-08-29T13:02:17Z</time>
      </trkpt>
      <trkpt lat="50.852544112131" lon="13.107821261510253">
        <ele>319</ele>
        <time>2026-08-29T13:02:18Z</time>
      </trkpt>
      <trkpt lat="50.852523911744356" lon="13.107763091102242">
        <ele>319</ele>
        <time>2026-08-29T13:02:19Z</time>
      </trkpt>
      <trkpt lat="50.852506645023823" lon="13.107705591246486">
        <ele>319</ele>
        <time>2026-08-29T13:02:20Z</time>
      </trkpt>
      <trkpt lat="50.852487115189433" lon="13.10765010304749">
        <ele>319</ele>
        <time>2026-08-29T13:02:21Z</time>
      </trkpt>
      <trkpt lat="50.852466663345695" lon="13.107591597363353">
        <ele>319</ele>
        <time>2026-08-29T13:02:22Z</time>
      </trkpt>
      <trkpt lat="50.852446630597115" lon="13.107533343136311">
        <ele>318</ele>
        <time>2026-08-29T13:02:23Z</time>
      </trkpt>
      <trkpt lat="50.852431710809469" lon="13.107473663985729">
        <ele>318</ele>
        <time>2026-08-29T13:02:24Z</time>
      </trkpt>
      <trkpt lat="50.852402457967401" lon="13.107425468042493">
        <ele>318</ele>
        <time>2026-08-29T13:02:25Z</time>
      </trkpt>
      <trkpt lat="50.852380329743028" lon="13.107365537434816">
        <ele>318</ele>
        <time>2026-08-29T13:02:26Z</time>
      </trkpt>
      <trkpt lat="50.852361219003797" lon="13.107299907132983">
        <ele>317</ele>
        <time>2026-08-29T13:02:27Z</time>
      </trkpt>
      <trkpt lat="50.852341521531343" lon="13.107236959040165">
        <ele>317</ele>
        <time>2026-08-29T13:02:28Z</time>
      </trkpt>
      <trkpt lat="50.852317549288273" lon="13.107177447527647">
        <ele>318</ele>
        <time>2026-08-29T13:02:29Z</time>
      </trkpt>
      <trkpt lat="50.852297516539693" lon="13.107114750891924">
        <ele>318</ele>
        <time>2026-08-29T13:02:30Z</time>
      </trkpt>
      <trkpt lat="50.852278741076589" lon="13.107056245207787">
        <ele>318</ele>
        <time>2026-08-29T13:02:31Z</time>
      </trkpt>
      <trkpt lat="50.852262228727341" lon="13.107000421732664">
        <ele>318</ele>
        <time>2026-08-29T13:02:32Z</time>
      </trkpt>
      <trkpt lat="50.852247308939695" lon="13.106941832229495">
        <ele>319</ele>
        <time>2026-08-29T13:02:33Z</time>
      </trkpt>
      <trkpt lat="50.852234233170748" lon="13.106879303231835">
        <ele>319</ele>
        <time>2026-08-29T13:02:34Z</time>
      </trkpt>
      <trkpt lat="50.852221241220832" lon="13.106823982670903">
        <ele>319</ele>
        <time>2026-08-29T13:02:35Z</time>
      </trkpt>
      <trkpt lat="50.85220062173903" lon="13.106759442016482">
        <ele>319</ele>
        <time>2026-08-29T13:02:36Z</time>
      </trkpt>
      <trkpt lat="50.852184277027845" lon="13.106697080656886">
        <ele>319</ele>
        <time>2026-08-29T13:02:37Z</time>
      </trkpt>
      <trkpt lat="50.852172039449215" lon="13.106637820601463">
        <ele>319</ele>
        <time>2026-08-29T13:02:38Z</time>
      </trkpt>
      <trkpt lat="50.852151839062572" lon="13.10657998546958">
        <ele>320</ele>
        <time>2026-08-29T13:02:39Z</time>
      </trkpt>
      <trkpt lat="50.85212828591466" lon="13.106527430936694">
        <ele>320</ele>
        <time>2026-08-29T13:02:40Z</time>
      </trkpt>
      <trkpt lat="50.852109342813492" lon="13.106470517814159">
        <ele>320</ele>
        <time>2026-08-29T13:02:41Z</time>
      </trkpt>
      <trkpt lat="50.852087968960404" lon="13.106413353234529">
        <ele>320</ele>
        <time>2026-08-29T13:02:42Z</time>
      </trkpt>
      <trkpt lat="50.852068271487951" lon="13.106361972168088">
        <ele>319</ele>
        <time>2026-08-29T13:02:43Z</time>
      </trkpt>
      <trkpt lat="50.852050501853228" lon="13.106306903064251">
        <ele>319</ele>
        <time>2026-08-29T13:02:44Z</time>
      </trkpt>
      <trkpt lat="50.852036671712995" lon="13.106247307732701">
        <ele>319</ele>
        <time>2026-08-29T13:02:45Z</time>
      </trkpt>
      <trkpt lat="50.852016806602478" lon="13.106181174516678">
        <ele>319</ele>
        <time>2026-08-29T13:02:46Z</time>
      </trkpt>
      <trkpt lat="50.851997947320342" lon="13.106133062392473">
        <ele>319</ele>
        <time>2026-08-29T13:02:47Z</time>
      </trkpt>
      <trkpt lat="50.851974813267589" lon="13.106079921126366">
        <ele>319</ele>
        <time>2026-08-29T13:02:48Z</time>
      </trkpt>
      <trkpt lat="50.851956959813833" lon="13.106023259460926">
        <ele>319</ele>
        <time>2026-08-29T13:02:49Z</time>
      </trkpt>
      <trkpt lat="50.851938100531697" lon="13.105964250862598">
        <ele>319</ele>
        <time>2026-08-29T13:02:50Z</time>
      </trkpt>
      <trkpt lat="50.851923013105989" lon="13.105896860361099">
        <ele>319</ele>
        <time>2026-08-29T13:02:51Z</time>
      </trkpt>
      <trkpt lat="50.851902812719345" lon="13.10583139769733">
        <ele>318</ele>
        <time>2026-08-29T13:02:52Z</time>
      </trkpt>
      <trkpt lat="50.851884288713336" lon="13.105775658041239">
        <ele>318</ele>
        <time>2026-08-29T13:02:53Z</time>
      </trkpt>
      <trkpt lat="50.85186786018312" lon="13.105717739090323">
        <ele>317</ele>
        <time>2026-08-29T13:02:54Z</time>
      </trkpt>
      <trkpt lat="50.851847995072603" lon="13.105658814311028">
        <ele>318</ele>
        <time>2026-08-29T13:02:55Z</time>
      </trkpt>
      <trkpt lat="50.851823687553406" lon="13.105604834854603">
        <ele>318</ele>
        <time>2026-08-29T13:02:56Z</time>
      </trkpt>
      <trkpt lat="50.85180776193738" lon="13.105552196502686">
        <ele>318</ele>
        <time>2026-08-29T13:02:57Z</time>
      </trkpt>
      <trkpt lat="50.851787561550736" lon="13.105502324178815">
        <ele>318</ele>
        <time>2026-08-29T13:02:58Z</time>
      </trkpt>
      <trkpt lat="50.851772809401155" lon="13.105447674170136">
        <ele>319</ele>
        <time>2026-08-29T13:02:59Z</time>
      </trkpt>
      <trkpt lat="50.851757805794477" lon="13.10538824647665">
        <ele>318</ele>
        <time>2026-08-29T13:03:00Z</time>
      </trkpt>
      <trkpt lat="50.851739281788468" lon="13.105340804904699">
        <ele>318</ele>
        <time>2026-08-29T13:03:01Z</time>
      </trkpt>
      <trkpt lat="50.851720841601491" lon="13.105294872075319">
        <ele>318</ele>
        <time>2026-08-29T13:03:02Z</time>
      </trkpt>
      <trkpt lat="50.851702317595482" lon="13.105243323370814">
        <ele>318</ele>
        <time>2026-08-29T13:03:03Z</time>
      </trkpt>
      <trkpt lat="50.851685050874949" lon="13.105194540694356">
        <ele>318</ele>
        <time>2026-08-29T13:03:04Z</time>
      </trkpt>
      <trkpt lat="50.851669292896986" lon="13.105146260932088">
        <ele>318</ele>
        <time>2026-08-29T13:03:05Z</time>
      </trkpt>
      <trkpt lat="50.851649763062596" lon="13.105091694742441">
        <ele>318</ele>
        <time>2026-08-29T13:03:06Z</time>
      </trkpt>
      <trkpt lat="50.851636100560427" lon="13.105037799105048">
        <ele>318</ele>
        <time>2026-08-29T13:03:07Z</time>
      </trkpt>
      <trkpt lat="50.851617157459259" lon="13.104984993115067">
        <ele>318</ele>
        <time>2026-08-29T13:03:08Z</time>
      </trkpt>
      <trkpt lat="50.851600728929043" lon="13.104930007830262">
        <ele>318</ele>
        <time>2026-08-29T13:03:09Z</time>
      </trkpt>
      <trkpt lat="50.851580863818526" lon="13.104869741946459">
        <ele>317</ele>
        <time>2026-08-29T13:03:10Z</time>
      </trkpt>
      <trkpt lat="50.851564351469278" lon="13.104812745004892">
        <ele>317</ele>
        <time>2026-08-29T13:03:11Z</time>
      </trkpt>
      <trkpt lat="50.851549012586474" lon="13.104753736406565">
        <ele>317</ele>
        <time>2026-08-29T13:03:12Z</time>
      </trkpt>
      <trkpt lat="50.851536858826876" lon="13.10470269061625">
        <ele>317</ele>
        <time>2026-08-29T13:03:13Z</time>
      </trkpt>
      <trkpt lat="50.851525710895658" lon="13.104641921818256">
        <ele>317</ele>
        <time>2026-08-29T13:03:14Z</time>
      </trkpt>
      <trkpt lat="50.851520346477628" lon="13.104570088908076">
        <ele>317</ele>
        <time>2026-08-29T13:03:15Z</time>
      </trkpt>
      <trkpt lat="50.851504001766443" lon="13.104508733376861">
        <ele>317</ele>
        <time>2026-08-29T13:03:16Z</time>
      </trkpt>
      <trkpt lat="50.851476509124041" lon="13.104466823861003">
        <ele>317</ele>
        <time>2026-08-29T13:03:17Z</time>
      </trkpt>
      <trkpt lat="50.851450357586145" lon="13.104420555755496">
        <ele>317</ele>
        <time>2026-08-29T13:03:18Z</time>
      </trkpt>
      <trkpt lat="50.851432420313358" lon="13.104371186345816">
        <ele>317</ele>
        <time>2026-08-29T13:03:19Z</time>
      </trkpt>
      <trkpt lat="50.851419679820538" lon="13.104316620156169">
        <ele>317</ele>
        <time>2026-08-29T13:03:20Z</time>
      </trkpt>
      <trkpt lat="50.851407777518034" lon="13.104261383414268">
        <ele>317</ele>
        <time>2026-08-29T13:03:21Z</time>
      </trkpt>
      <trkpt lat="50.851387493312359" lon="13.104215366765857">
        <ele>317</ele>
        <time>2026-08-29T13:03:22Z</time>
      </trkpt>
      <trkpt lat="50.851365281268954" lon="13.10416859574616">
        <ele>317</ele>
        <time>2026-08-29T13:03:23Z</time>
      </trkpt>
      <trkpt lat="50.851344242691994" lon="13.104113694280386">
        <ele>317</ele>
        <time>2026-08-29T13:03:24Z</time>
      </trkpt>
      <trkpt lat="50.851321946829557" lon="13.104062480852008">
        <ele>317</ele>
        <time>2026-08-29T13:03:25Z</time>
      </trkpt>
      <trkpt lat="50.851291688159108" lon="13.10401956550777">
        <ele>318</ele>
        <time>2026-08-29T13:03:26Z</time>
      </trkpt>
      <trkpt lat="50.851264530792832" lon="13.103973045945168">
        <ele>318</ele>
        <time>2026-08-29T13:03:27Z</time>
      </trkpt>
      <trkpt lat="50.851245000958443" lon="13.103918982669711">
        <ele>318</ele>
        <time>2026-08-29T13:03:28Z</time>
      </trkpt>
      <trkpt lat="50.851218346506357" lon="13.103877743706107">
        <ele>318</ele>
        <time>2026-08-29T13:03:29Z</time>
      </trkpt>
      <trkpt lat="50.85118817165494" lon="13.1038314756006">
        <ele>318</ele>
        <time>2026-08-29T13:03:30Z</time>
      </trkpt>
      <trkpt lat="50.851156571879983" lon="13.103775903582573">
        <ele>318</ele>
        <time>2026-08-29T13:03:31Z</time>
      </trkpt>
      <trkpt lat="50.851132348179817" lon="13.103719409555197">
        <ele>318</ele>
        <time>2026-08-29T13:03:32Z</time>
      </trkpt>
      <trkpt lat="50.851111309602857" lon="13.103663837537169">
        <ele>318</ele>
        <time>2026-08-29T13:03:33Z</time>
      </trkpt>
      <trkpt lat="50.851087169721723" lon="13.103623436763883">
        <ele>318</ele>
        <time>2026-08-29T13:03:34Z</time>
      </trkpt>
      <trkpt lat="50.851059593260288" lon="13.103581359609962">
        <ele>319</ele>
        <time>2026-08-29T13:03:35Z</time>
      </trkpt>
      <trkpt lat="50.851025562733412" lon="13.103534420952201">
        <ele>319</ele>
        <time>2026-08-29T13:03:36Z</time>
      </trkpt>
      <trkpt lat="50.850996561348438" lon="13.103483458980918">
        <ele>319</ele>
        <time>2026-08-29T13:03:37Z</time>
      </trkpt>
      <trkpt lat="50.850970661267638" lon="13.103429647162557">
        <ele>319</ele>
        <time>2026-08-29T13:03:38Z</time>
      </trkpt>
      <trkpt lat="50.850947191938758" lon="13.103383546695113">
        <ele>319</ele>
        <time>2026-08-29T13:03:39Z</time>
      </trkpt>
      <trkpt lat="50.850924476981163" lon="13.103331075981259">
        <ele>319</ele>
        <time>2026-08-29T13:03:40Z</time>
      </trkpt>
      <trkpt lat="50.850903522223234" lon="13.103271229192615">
        <ele>318</ele>
        <time>2026-08-29T13:03:41Z</time>
      </trkpt>
      <trkpt lat="50.850885668769479" lon="13.103226469829679">
        <ele>318</ele>
        <time>2026-08-29T13:03:42Z</time>
      </trkpt>
      <trkpt lat="50.850862869992852" lon="13.103171987459064">
        <ele>318</ele>
        <time>2026-08-29T13:03:43Z</time>
      </trkpt>
      <trkpt lat="50.850840238854289" lon="13.103112392127514">
        <ele>318</ele>
        <time>2026-08-29T13:03:44Z</time>
      </trkpt>
      <trkpt lat="50.850817607715726" lon="13.103058747947216">
        <ele>318</ele>
        <time>2026-08-29T13:03:45Z</time>
      </trkpt>
      <trkpt lat="50.850796401500702" lon="13.102995380759239">
        <ele>318</ele>
        <time>2026-08-29T13:03:46Z</time>
      </trkpt>
      <trkpt lat="50.850776452571154" lon="13.102931175380945">
        <ele>318</ele>
        <time>2026-08-29T13:03:47Z</time>
      </trkpt>
      <trkpt lat="50.850761029869318" lon="13.102864120155573">
        <ele>318</ele>
        <time>2026-08-29T13:03:48Z</time>
      </trkpt>
      <trkpt lat="50.850744182243943" lon="13.102799914777279">
        <ele>318</ele>
        <time>2026-08-29T13:03:49Z</time>
      </trkpt>
      <trkpt lat="50.850729178637266" lon="13.102729171514511">
        <ele>318</ele>
        <time>2026-08-29T13:03:50Z</time>
      </trkpt>
      <trkpt lat="50.850720712915063" lon="13.102658595889807">
        <ele>318</ele>
        <time>2026-08-29T13:03:51Z</time>
      </trkpt>
      <trkpt lat="50.850711576640606" lon="13.102587517350912">
        <ele>318</ele>
        <time>2026-08-29T13:03:52Z</time>
      </trkpt>
      <trkpt lat="50.850701434537768" lon="13.102508476004004">
        <ele>318</ele>
        <time>2026-08-29T13:03:53Z</time>
      </trkpt>
      <trkpt lat="50.850691124796867" lon="13.10243739746511">
        <ele>318</ele>
        <time>2026-08-29T13:03:54Z</time>
      </trkpt>
      <trkpt lat="50.850681401789188" lon="13.102362966164947">
        <ele>318</ele>
        <time>2026-08-29T13:03:55Z</time>
      </trkpt>
      <trkpt lat="50.850669499486685" lon="13.10229473747313">
        <ele>318</ele>
        <time>2026-08-29T13:03:56Z</time>
      </trkpt>
      <trkpt lat="50.850661369040608" lon="13.102226173505187">
        <ele>318</ele>
        <time>2026-08-29T13:03:57Z</time>
      </trkpt>
      <trkpt lat="50.850658100098372" lon="13.102156100794673">
        <ele>318</ele>
        <time>2026-08-29T13:03:58Z</time>
      </trkpt>
      <trkpt lat="50.850647874176502" lon="13.102083010599017">
        <ele>318</ele>
        <time>2026-08-29T13:03:59Z</time>
      </trkpt>
      <trkpt lat="50.850638318806887" lon="13.102015284821391">
        <ele>319</ele>
        <time>2026-08-29T13:04:00Z</time>
      </trkpt>
      <trkpt lat="50.850624572485685" lon="13.101942110806704">
        <ele>318</ele>
        <time>2026-08-29T13:04:01Z</time>
      </trkpt>
      <trkpt lat="50.850599342957139" lon="13.101876731961966">
        <ele>319</ele>
        <time>2026-08-29T13:04:02Z</time>
      </trkpt>
      <trkpt lat="50.850588111206889" lon="13.101812778040767">
        <ele>319</ele>
        <time>2026-08-29T13:04:03Z</time>
      </trkpt>
      <trkpt lat="50.85057495161891" lon="13.101744465529919">
        <ele>319</ele>
        <time>2026-08-29T13:04:04Z</time>
      </trkpt>
      <trkpt lat="50.850553829222918" lon="13.101677829399705">
        <ele>319</ele>
        <time>2026-08-29T13:04:05Z</time>
      </trkpt>
      <trkpt lat="50.850526755675673" lon="13.101614210754633">
        <ele>319</ele>
        <time>2026-08-29T13:04:06Z</time>
      </trkpt>
      <trkpt lat="50.850500436499715" lon="13.101558471098542">
        <ele>318</ele>
        <time>2026-08-29T13:04:07Z</time>
      </trkpt>
      <trkpt lat="50.850472021847963" lon="13.101501474156976">
        <ele>318</ele>
        <time>2026-08-29T13:04:08Z</time>
      </trkpt>
      <trkpt lat="50.850445115938783" lon="13.101443303748965">
        <ele>317</ele>
        <time>2026-08-29T13:04:09Z</time>
      </trkpt>
      <trkpt lat="50.850412091240287" lon="13.101407010108232">
        <ele>318</ele>
        <time>2026-08-29T13:04:10Z</time>
      </trkpt>
      <trkpt lat="50.850380072370172" lon="13.101377757266164">
        <ele>317</ele>
        <time>2026-08-29T13:04:11Z</time>
      </trkpt>
      <trkpt lat="50.850349646061659" lon="13.101349007338285">
        <ele>317</ele>
        <time>2026-08-29T13:04:12Z</time>
      </trkpt>
      <trkpt lat="50.850317040458322" lon="13.10130768455565">
        <ele>317</ele>
        <time>2026-08-29T13:04:13Z</time>
      </trkpt>
      <trkpt lat="50.850284770131111" lon="13.10127348639071">
        <ele>317</ele>
        <time>2026-08-29T13:04:14Z</time>
      </trkpt>
      <trkpt lat="50.850255098193884" lon="13.101241299882531">
        <ele>317</ele>
        <time>2026-08-29T13:04:15Z</time>
      </trkpt>
      <trkpt lat="50.850227018818259" lon="13.101209448650479">
        <ele>317</ele>
        <time>2026-08-29T13:04:16Z</time>
      </trkpt>
      <trkpt lat="50.850195838138461" lon="13.101177513599396">
        <ele>318</ele>
        <time>2026-08-29T13:04:17Z</time>
      </trkpt>
      <trkpt lat="50.850167674943805" lon="13.101145746186376">
        <ele>318</ele>
        <time>2026-08-29T13:04:18Z</time>
      </trkpt>
      <trkpt lat="50.850143115967512" lon="13.10110735706985">
        <ele>318</ele>
        <time>2026-08-29T13:04:19Z</time>
      </trkpt>
      <trkpt lat="50.8501229993999" lon="13.101067459210753">
        <ele>318</ele>
        <time>2026-08-29T13:04:20Z</time>
      </trkpt>
      <trkpt lat="50.850104307755828" lon="13.101030411198735">
        <ele>318</ele>
        <time>2026-08-29T13:04:21Z</time>
      </trkpt>
      <trkpt lat="50.850088885053992" lon="13.100990680977702">
        <ele>318</ele>
        <time>2026-08-29T13:04:22Z</time>
      </trkpt>
      <trkpt lat="50.850069019943476" lon="13.100945586338639">
        <ele>318</ele>
        <time>2026-08-29T13:04:23Z</time>
      </trkpt>
      <trkpt lat="50.850054770708084" lon="13.100899402052164">
        <ele>318</ele>
        <time>2026-08-29T13:04:24Z</time>
      </trkpt>
      <trkpt lat="50.850037671625614" lon="13.10086159966886">
        <ele>318</ele>
        <time>2026-08-29T13:04:25Z</time>
      </trkpt>
      <trkpt lat="50.850014118477702" lon="13.1008405610919">
        <ele>318</ele>
        <time>2026-08-29T13:04:26Z</time>
      </trkpt>
      <trkpt lat="50.849992828443646" lon="13.100829413160682">
        <ele>318</ele>
        <time>2026-08-29T13:04:27Z</time>
      </trkpt>
      <trkpt lat="50.849970281124115" lon="13.100825557485223">
        <ele>318</ele>
        <time>2026-08-29T13:04:28Z</time>
      </trkpt>
      <trkpt lat="50.84994806908071" lon="13.100819103419781">
        <ele>318</ele>
        <time>2026-08-29T13:04:29Z</time>
      </trkpt>
      <trkpt lat="50.849926024675369" lon="13.100822037085891">
        <ele>318</ele>
        <time>2026-08-29T13:04:30Z</time>
      </trkpt>
      <trkpt lat="50.849909847602248" lon="13.100807704031467">
        <ele>318</ele>
        <time>2026-08-29T13:04:31Z</time>
      </trkpt>
      <trkpt lat="50.849905489012599" lon="13.100787252187729">
        <ele>318</ele>
        <time>2026-08-29T13:04:32Z</time>
      </trkpt>
      <trkpt lat="50.849902639165521" lon="13.100777948275208">
        <ele>317</ele>
        <time>2026-08-29T13:04:33Z</time>
      </trkpt>
      <trkpt lat="50.849898532032967" lon="13.100766548886895">
        <ele>317</ele>
        <time>2026-08-29T13:04:34Z</time>
      </trkpt>
      <trkpt lat="50.849898280575871" lon="13.100771410390735">
        <ele>317</ele>
        <time>2026-08-29T13:04:35Z</time>
      </trkpt>
      <trkpt lat="50.849903980270028" lon="13.100776020437479">
        <ele>317</ele>
        <time>2026-08-29T13:04:36Z</time>
      </trkpt>
      <trkpt lat="50.849902052432299" lon="13.100784653797746">
        <ele>317</ele>
        <time>2026-08-29T13:04:37Z</time>
      </trkpt>
      <trkpt lat="50.849894843995571" lon="13.100784150883555">
        <ele>317</ele>
        <time>2026-08-29T13:04:38Z</time>
      </trkpt>
      <trkpt lat="50.849887048825622" lon="13.100789012387395">
        <ele>317</ele>
        <time>2026-08-29T13:04:39Z</time>
      </trkpt>
      <trkpt lat="50.849877996370196" lon="13.100788174197078">
        <ele>317</ele>
        <time>2026-08-29T13:04:40Z</time>
      </trkpt>
      <trkpt lat="50.849869698286057" lon="13.100785072892904">
        <ele>317</ele>
        <time>2026-08-29T13:04:41Z</time>
      </trkpt>
      <trkpt lat="50.849859640002251" lon="13.100772248581052">
        <ele>316</ele>
        <time>2026-08-29T13:04:42Z</time>
      </trkpt>
      <trkpt lat="50.849851341918111" lon="13.100758921355009">
        <ele>316</ele>
        <time>2026-08-29T13:04:43Z</time>
      </trkpt>
      <trkpt lat="50.849845977500081" lon="13.100758502259851">
        <ele>317</ele>
        <time>2026-08-29T13:04:44Z</time>
      </trkpt>
      <trkpt lat="50.849842540919781" lon="13.10075556859374">
        <ele>317</ele>
        <time>2026-08-29T13:04:45Z</time>
      </trkpt>
      <trkpt lat="50.849842457100749" lon="13.100756490603089">
        <ele>317</ele>
        <time>2026-08-29T13:04:46Z</time>
      </trkpt>
      <trkpt lat="50.849847821518779" lon="13.10075162909925">
        <ele>316</ele>
        <time>2026-08-29T13:04:47Z</time>
      </trkpt>
      <trkpt lat="50.849846648052335" lon="13.10075263492763">
        <ele>316</ele>
        <time>2026-08-29T13:04:48Z</time>
      </trkpt>
      <trkpt lat="50.849846731871367" lon="13.100756825879216">
        <ele>316</ele>
        <time>2026-08-29T13:04:49Z</time>
      </trkpt>
      <trkpt lat="50.849846480414271" lon="13.100758586078882">
        <ele>316</ele>
        <time>2026-08-29T13:04:50Z</time>
      </trkpt>
      <trkpt lat="50.849845390766859" lon="13.100768476724625">
        <ele>317</ele>
        <time>2026-08-29T13:04:51Z</time>
      </trkpt>
      <trkpt lat="50.849848240613937" lon="13.100760094821453">
        <ele>317</ele>
        <time>2026-08-29T13:04:52Z</time>
      </trkpt>
      <trkpt lat="50.849846648052335" lon="13.100760346278548">
        <ele>317</ele>
        <time>2026-08-29T13:04:53Z</time>
      </trkpt>
      <trkpt lat="50.849843211472034" lon="13.100752215832472">
        <ele>317</ele>
        <time>2026-08-29T13:04:54Z</time>
      </trkpt>
      <trkpt lat="50.84982736967504" lon="13.100751377642155">
        <ele>316</ele>
        <time>2026-08-29T13:04:55Z</time>
      </trkpt>
      <trkpt lat="50.849820328876376" lon="13.100742576643825">
        <ele>316</ele>
        <time>2026-08-29T13:04:56Z</time>
      </trkpt>
      <trkpt lat="50.849814210087061" lon="13.100724555552006">
        <ele>316</ele>
        <time>2026-08-29T13:04:57Z</time>
      </trkpt>
      <trkpt lat="50.849813958629966" lon="13.100708210840821">
        <ele>316</ele>
        <time>2026-08-29T13:04:58Z</time>
      </trkpt>
      <trkpt lat="50.849815467372537" lon="13.100685076788068">
        <ele>316</ele>
        <time>2026-08-29T13:04:59Z</time>
      </trkpt>
      <trkpt lat="50.849815383553505" lon="13.100653560832143">
        <ele>316</ele>
        <time>2026-08-29T13:05:00Z</time>
      </trkpt>
      <trkpt lat="50.849814461544156" lon="13.100622212514281">
        <ele>316</ele>
        <time>2026-08-29T13:05:01Z</time>
      </trkpt>
      <trkpt lat="50.849819742143154" lon="13.10059430077672">
        <ele>316</ele>
        <time>2026-08-29T13:05:02Z</time>
      </trkpt>
      <trkpt lat="50.849827202036977" lon="13.100562868639827">
        <ele>316</ele>
        <time>2026-08-29T13:05:03Z</time>
      </trkpt>
      <trkpt lat="50.849833739921451" lon="13.100534621626139">
        <ele>317</ele>
        <time>2026-08-29T13:05:04Z</time>
      </trkpt>
      <trkpt lat="50.849839020520449" lon="13.100494304671884">
        <ele>317</ele>
        <time>2026-08-29T13:05:05Z</time>
      </trkpt>
      <trkpt lat="50.849841451272368" lon="13.100455077365041">
        <ele>317</ele>
        <time>2026-08-29T13:05:06Z</time>
      </trkpt>
      <trkpt lat="50.849842960014939" lon="13.100410318002105">
        <ele>317</ele>
        <time>2026-08-29T13:05:07Z</time>
      </trkpt>
      <trkpt lat="50.849842876195908" lon="13.100369833409786">
        <ele>317</ele>
        <time>2026-08-29T13:05:08Z</time>
      </trkpt>
      <trkpt lat="50.849848408252001" lon="13.100331025198102">
        <ele>316</ele>
        <time>2026-08-29T13:05:09Z</time>
      </trkpt>
      <trkpt lat="50.849849581718445" lon="13.100285595282912">
        <ele>316</ele>
        <time>2026-08-29T13:05:10Z</time>
      </trkpt>
      <trkpt lat="50.849858298897743" lon="13.100241674110293">
        <ele>317</ele>
        <time>2026-08-29T13:05:11Z</time>
      </trkpt>
      <trkpt lat="50.849861400201917" lon="13.10019507072866">
        <ele>317</ele>
        <time>2026-08-29T13:05:12Z</time>
      </trkpt>
      <trkpt lat="50.849865172058344" lon="13.100151820108294">
        <ele>317</ele>
        <time>2026-08-29T13:05:13Z</time>
      </trkpt>
      <trkpt lat="50.84986642934382" lon="13.100107898935676">
        <ele>317</ele>
        <time>2026-08-29T13:05:14Z</time>
      </trkpt>
      <trkpt lat="50.849869195371866" lon="13.100053081288934">
        <ele>317</ele>
        <time>2026-08-29T13:05:15Z</time>
      </trkpt>
      <trkpt lat="50.849872129037976" lon="13.100000023841858">
        <ele>317</ele>
        <time>2026-08-29T13:05:16Z</time>
      </trkpt>
      <trkpt lat="50.849874978885055" lon="13.099944703280926">
        <ele>317</ele>
        <time>2026-08-29T13:05:17Z</time>
      </trkpt>
      <trkpt lat="50.849877241998911" lon="13.099888879805803">
        <ele>317</ele>
        <time>2026-08-29T13:05:18Z</time>
      </trkpt>
      <trkpt lat="50.849882187321782" lon="13.099830960854888">
        <ele>317</ele>
        <time>2026-08-29T13:05:19Z</time>
      </trkpt>
      <trkpt lat="50.849881768226624" lon="13.099762061610818">
        <ele>317</ele>
        <time>2026-08-29T13:05:20Z</time>
      </trkpt>
      <trkpt lat="50.849887300282717" lon="13.099707830697298">
        <ele>317</ele>
        <time>2026-08-29T13:05:21Z</time>
      </trkpt>
      <trkpt lat="50.849895430728793" lon="13.099647983908653">
        <ele>316</ele>
        <time>2026-08-29T13:05:22Z</time>
      </trkpt>
      <trkpt lat="50.849903058260679" lon="13.099588891491294">
        <ele>317</ele>
        <time>2026-08-29T13:05:23Z</time>
      </trkpt>
      <trkpt lat="50.849908171221614" lon="13.099529296159744">
        <ele>317</ele>
        <time>2026-08-29T13:05:24Z</time>
      </trkpt>
      <trkpt lat="50.849917558953166" lon="13.099472550675273">
        <ele>318</ele>
        <time>2026-08-29T13:05:25Z</time>
      </trkpt>
      <trkpt lat="50.849924935027957" lon="13.099404321983457">
        <ele>318</ele>
        <time>2026-08-29T13:05:26Z</time>
      </trkpt>
      <trkpt lat="50.84993532858789" lon="13.099342212080956">
        <ele>319</ele>
        <time>2026-08-29T13:05:27Z</time>
      </trkpt>
      <trkpt lat="50.849949242547154" lon="13.099280269816518">
        <ele>319</ele>
        <time>2026-08-29T13:05:28Z</time>
      </trkpt>
      <trkpt lat="50.849957540631294" lon="13.099215058609843">
        <ele>319</ele>
        <time>2026-08-29T13:05:29Z</time>
      </trkpt>
      <trkpt lat="50.849967431277037" lon="13.099146578460932">
        <ele>319</ele>
        <time>2026-08-29T13:05:30Z</time>
      </trkpt>
      <trkpt lat="50.849969610571861" lon="13.099071560427547">
        <ele>320</ele>
        <time>2026-08-29T13:05:31Z</time>
      </trkpt>
      <trkpt lat="50.849972292780876" lon="13.099002074450254">
        <ele>320</ele>
        <time>2026-08-29T13:05:32Z</time>
      </trkpt>
      <trkpt lat="50.849982770159841" lon="13.098937282338738">
        <ele>320</ele>
        <time>2026-08-29T13:05:33Z</time>
      </trkpt>
      <trkpt lat="50.849998528137803" lon="13.09887383133173">
        <ele>320</ele>
        <time>2026-08-29T13:05:34Z</time>
      </trkpt>
      <trkpt lat="50.850010849535465" lon="13.098800908774137">
        <ele>320</ele>
        <time>2026-08-29T13:05:35Z</time>
      </trkpt>
      <trkpt lat="50.850027948617935" lon="13.098739050328732">
        <ele>320</ele>
        <time>2026-08-29T13:05:36Z</time>
      </trkpt>
      <trkpt lat="50.850041611120105" lon="13.098679203540087">
        <ele>321</ele>
        <time>2026-08-29T13:05:37Z</time>
      </trkpt>
      <trkpt lat="50.850052339956164" lon="13.098612315952778">
        <ele>321</ele>
        <time>2026-08-29T13:05:38Z</time>
      </trkpt>
      <trkpt lat="50.8500643260777" lon="13.098553223535419">
        <ele>320</ele>
        <time>2026-08-29T13:05:39Z</time>
      </trkpt>
      <trkpt lat="50.850066002458334" lon="13.098483989015222">
        <ele>321</ele>
        <time>2026-08-29T13:05:40Z</time>
      </trkpt>
      <trkpt lat="50.850074300542474" lon="13.098419196903706">
        <ele>320</ele>
        <time>2026-08-29T13:05:41Z</time>
      </trkpt>
      <trkpt lat="50.850083855912089" lon="13.09835834428668">
        <ele>321</ele>
        <time>2026-08-29T13:05:42Z</time>
      </trkpt>
      <trkpt lat="50.850090812891722" lon="13.098299419507384">
        <ele>321</ele>
        <time>2026-08-29T13:05:43Z</time>
      </trkpt>
      <trkpt lat="50.850099110975862" lon="13.098235381767154">
        <ele>321</ele>
        <time>2026-08-29T13:05:44Z</time>
      </trkpt>
      <trkpt lat="50.850112019106746" lon="13.098170841112733">
        <ele>320</ele>
        <time>2026-08-29T13:05:45Z</time>
      </trkpt>
      <trkpt lat="50.850126268342137" lon="13.09810571372509">
        <ele>321</ele>
        <time>2026-08-29T13:05:46Z</time>
      </trkpt>
      <trkpt lat="50.850142445415258" lon="13.098042933270335">
        <ele>321</ele>
        <time>2026-08-29T13:05:47Z</time>
      </trkpt>
      <trkpt lat="50.850157449021935" lon="13.097970513626933">
        <ele>320</ele>
        <time>2026-08-29T13:05:48Z</time>
      </trkpt>
      <trkpt lat="50.850176392123103" lon="13.097885604947805">
        <ele>320</ele>
        <time>2026-08-29T13:05:49Z</time>
      </trkpt>
      <trkpt lat="50.850193407386541" lon="13.097807066515088">
        <ele>320</ele>
        <time>2026-08-29T13:05:50Z</time>
      </trkpt>
      <trkpt lat="50.850215451791883" lon="13.097733557224274">
        <ele>320</ele>
        <time>2026-08-29T13:05:51Z</time>
      </trkpt>
      <trkpt lat="50.850234478712082" lon="13.097677733749151">
        <ele>320</ele>
        <time>2026-08-29T13:05:52Z</time>
      </trkpt>
      <trkpt lat="50.850246800109744" lon="13.097617886960506">
        <ele>321</ele>
        <time>2026-08-29T13:05:53Z</time>
      </trkpt>
      <trkpt lat="50.850255601108074" lon="13.097571283578873">
        <ele>321</ele>
        <time>2026-08-29T13:05:54Z</time>
      </trkpt>
      <trkpt lat="50.850267168134451" lon="13.097521411255002">
        <ele>320</ele>
        <time>2026-08-29T13:05:55Z</time>
      </trkpt>
      <trkpt lat="50.850276472046971" lon="13.097475813701749">
        <ele>320</ele>
        <time>2026-08-29T13:05:56Z</time>
      </trkpt>
      <trkpt lat="50.850285608321428" lon="13.097427282482386">
        <ele>321</ele>
        <time>2026-08-29T13:05:57Z</time>
      </trkpt>
      <trkpt lat="50.850298935547471" lon="13.097378583624959">
        <ele>321</ele>
        <time>2026-08-29T13:05:58Z</time>
      </trkpt>
      <trkpt lat="50.8503164537251" lon="13.097329130396247">
        <ele>320</ele>
        <time>2026-08-29T13:05:59Z</time>
      </trkpt>
      <trkpt lat="50.85033112205565" lon="13.097273390740156">
        <ele>320</ele>
        <time>2026-08-29T13:06:00Z</time>
      </trkpt>
      <trkpt lat="50.850352579727769" lon="13.097219662740827">
        <ele>320</ele>
        <time>2026-08-29T13:06:01Z</time>
      </trkpt>
      <trkpt lat="50.850366661325097" lon="13.097158223390579">
        <ele>320</ele>
        <time>2026-08-29T13:06:02Z</time>
      </trkpt>
      <trkpt lat="50.850387699902058" lon="13.097096281126142">
        <ele>319</ele>
        <time>2026-08-29T13:06:03Z</time>
      </trkpt>
      <trkpt lat="50.850401781499386" lon="13.097039368003607">
        <ele>319</ele>
        <time>2026-08-29T13:06:04Z</time>
      </trkpt>
      <trkpt lat="50.850417790934443" lon="13.096990082412958">
        <ele>319</ele>
        <time>2026-08-29T13:06:05Z</time>
      </trkpt>
      <trkpt lat="50.850437320768833" lon="13.096930906176567">
        <ele>320</ele>
        <time>2026-08-29T13:06:06Z</time>
      </trkpt>
      <trkpt lat="50.850449558347464" lon="13.096870807930827">
        <ele>319</ele>
        <time>2026-08-29T13:06:07Z</time>
      </trkpt>
      <trkpt lat="50.850473530590534" lon="13.096814146265388">
        <ele>319</ele>
        <time>2026-08-29T13:06:08Z</time>
      </trkpt>
      <trkpt lat="50.850497502833605" lon="13.096762094646692">
        <ele>319</ele>
        <time>2026-08-29T13:06:09Z</time>
      </trkpt>
      <trkpt lat="50.850519547238946" lon="13.096705600619316">
        <ele>319</ele>
        <time>2026-08-29T13:06:10Z</time>
      </trkpt>
      <trkpt lat="50.850539160892367" lon="13.096645586192608">
        <ele>318</ele>
        <time>2026-08-29T13:06:11Z</time>
      </trkpt>
      <trkpt lat="50.850563049316406" lon="13.09659143909812">
        <ele>318</ele>
        <time>2026-08-29T13:06:12Z</time>
      </trkpt>
      <trkpt lat="50.850578555837274" lon="13.096522204577923">
        <ele>319</ele>
        <time>2026-08-29T13:06:13Z</time>
      </trkpt>
      <trkpt lat="50.850594062358141" lon="13.096469230949879">
        <ele>318</ele>
        <time>2026-08-29T13:06:14Z</time>
      </trkpt>
      <trkpt lat="50.850623650476336" lon="13.096411563456059">
        <ele>318</ele>
        <time>2026-08-29T13:06:15Z</time>
      </trkpt>
      <trkpt lat="50.850650388747454" lon="13.096361523494124">
        <ele>318</ele>
        <time>2026-08-29T13:06:16Z</time>
      </trkpt>
      <trkpt lat="50.850667739287019" lon="13.096316931769252">
        <ele>318</ele>
        <time>2026-08-29T13:06:17Z</time>
      </trkpt>
      <trkpt lat="50.850688023492694" lon="13.096266975626349">
        <ele>318</ele>
        <time>2026-08-29T13:06:18Z</time>
      </trkpt>
      <trkpt lat="50.850711995735765" lon="13.096222886815667">
        <ele>318</ele>
        <time>2026-08-29T13:06:19Z</time>
      </trkpt>
      <trkpt lat="50.85072498768568" lon="13.096186760812998">
        <ele>318</ele>
        <time>2026-08-29T13:06:20Z</time>
      </trkpt>
      <trkpt lat="50.850731190294027" lon="13.096159351989627">
        <ele>318</ele>
        <time>2026-08-29T13:06:21Z</time>
      </trkpt>
      <trkpt lat="50.850733369588852" lon="13.096132781356573">
        <ele>318</ele>
        <time>2026-08-29T13:06:22Z</time>
      </trkpt>
      <trkpt lat="50.850734040141106" lon="13.096123980358243">
        <ele>318</ele>
        <time>2026-08-29T13:06:23Z</time>
      </trkpt>
      <trkpt lat="50.850740158930421" lon="13.096126830205321">
        <ele>318</ele>
        <time>2026-08-29T13:06:24Z</time>
      </trkpt>
      <trkpt lat="50.850748373195529" lon="13.096133368089795">
        <ele>318</ele>
        <time>2026-08-29T13:06:25Z</time>
      </trkpt>
      <trkpt lat="50.85075281560421" lon="13.096146527677774">
        <ele>318</ele>
        <time>2026-08-29T13:06:26Z</time>
      </trkpt>
      <trkpt lat="50.85075818002224" lon="13.096165973693132">
        <ele>318</ele>
        <time>2026-08-29T13:06:27Z</time>
      </trkpt>
      <trkpt lat="50.850768992677331" lon="13.096176786348224">
        <ele>318</ele>
        <time>2026-08-29T13:06:28Z</time>
      </trkpt>
      <trkpt lat="50.850782906636596" lon="13.096187096089125">
        <ele>318</ele>
        <time>2026-08-29T13:06:29Z</time>
      </trkpt>
      <trkpt lat="50.850793048739433" lon="13.096205787733197">
        <ele>318</ele>
        <time>2026-08-29T13:06:30Z</time>
      </trkpt>
      <trkpt lat="50.850798329338431" lon="13.0962367169559">
        <ele>317</ele>
        <time>2026-08-29T13:06:31Z</time>
      </trkpt>
      <trkpt lat="50.85081827826798" lon="13.096236968412995">
        <ele>317</ele>
        <time>2026-08-29T13:06:32Z</time>
      </trkpt>
      <trkpt lat="50.85084225051105" lon="13.096208218485117">
        <ele>316</ele>
        <time>2026-08-29T13:06:33Z</time>
      </trkpt>
      <trkpt lat="50.850863792002201" lon="13.096185252070427">
        <ele>316</ele>
        <time>2026-08-29T13:06:34Z</time>
      </trkpt>
      <trkpt lat="50.850886423140764" lon="13.096151473000646">
        <ele>315</ele>
        <time>2026-08-29T13:06:35Z</time>
      </trkpt>
      <trkpt lat="50.850910898298025" lon="13.09611358679831">
        <ele>315</ele>
        <time>2026-08-29T13:06:36Z</time>
      </trkpt>
      <trkpt lat="50.850933948531747" lon="13.096072683110833">
        <ele>315</ele>
        <time>2026-08-29T13:06:37Z</time>
      </trkpt>
      <trkpt lat="50.850957250222564" lon="13.096025409176946">
        <ele>314</ele>
        <time>2026-08-29T13:06:38Z</time>
      </trkpt>
      <trkpt lat="50.850973594933748" lon="13.095962209627032">
        <ele>314</ele>
        <time>2026-08-29T13:06:39Z</time>
      </trkpt>
      <trkpt lat="50.851003350690007" lon="13.095901859924197">
        <ele>316</ele>
        <time>2026-08-29T13:06:40Z</time>
      </trkpt>
      <trkpt lat="50.851016594097018" lon="13.09584679082036">
        <ele>316</ele>
        <time>2026-08-29T13:06:41Z</time>
      </trkpt>
      <trkpt lat="50.851043416187167" lon="13.095797002315521">
        <ele>317</ele>
        <time>2026-08-29T13:06:42Z</time>
      </trkpt>
      <trkpt lat="50.851071747019887" lon="13.095748471096158">
        <ele>318</ele>
        <time>2026-08-29T13:06:43Z</time>
      </trkpt>
      <trkpt lat="50.851096389815211" lon="13.095700778067112">
        <ele>318</ele>
        <time>2026-08-29T13:06:44Z</time>
      </trkpt>
      <trkpt lat="50.851123379543424" lon="13.095652163028717">
        <ele>318</ele>
        <time>2026-08-29T13:06:45Z</time>
      </trkpt>
      <trkpt lat="50.851148189976811" lon="13.095613103359938">
        <ele>318</ele>
        <time>2026-08-29T13:06:46Z</time>
      </trkpt>
      <trkpt lat="50.851174676790833" lon="13.095579743385315">
        <ele>318</ele>
        <time>2026-08-29T13:06:47Z</time>
      </trkpt>
      <trkpt lat="50.851202588528395" lon="13.095544204115868">
        <ele>319</ele>
        <time>2026-08-29T13:06:48Z</time>
      </trkpt>
      <trkpt lat="50.851225638762116" lon="13.095503048971295">
        <ele>319</ele>
        <time>2026-08-29T13:06:49Z</time>
      </trkpt>
      <trkpt lat="50.851249024271965" lon="13.095464408397675">
        <ele>319</ele>
        <time>2026-08-29T13:06:50Z</time>
      </trkpt>
      <trkpt lat="50.85126930847764" lon="13.095416715368629">
        <ele>319</ele>
        <time>2026-08-29T13:06:51Z</time>
      </trkpt>
      <trkpt lat="50.851292610168457" lon="13.095373883843422">
        <ele>318</ele>
        <time>2026-08-29T13:06:52Z</time>
      </trkpt>
      <trkpt lat="50.85131524130702" lon="13.095322167500854">
        <ele>318</ele>
        <time>2026-08-29T13:06:53Z</time>
      </trkpt>
      <trkpt lat="50.851339548826218" lon="13.095281179994345">
        <ele>318</ele>
        <time>2026-08-29T13:06:54Z</time>
      </trkpt>
      <trkpt lat="50.851371819153428" lon="13.095219740644097">
        <ele>317</ele>
        <time>2026-08-29T13:06:55Z</time>
      </trkpt>
      <trkpt lat="50.851398389786482" lon="13.095167856663465">
        <ele>317</ele>
        <time>2026-08-29T13:06:56Z</time>
      </trkpt>
      <trkpt lat="50.851431498304009" lon="13.095112955197692">
        <ele>317</ele>
        <time>2026-08-29T13:06:57Z</time>
      </trkpt>
      <trkpt lat="50.851466031745076" lon="13.095058975741267">
        <ele>317</ele>
        <time>2026-08-29T13:06:58Z</time>
      </trkpt>
      <trkpt lat="50.851496541872621" lon="13.095001140609384">
        <ele>317</ele>
        <time>2026-08-29T13:06:59Z</time>
      </trkpt>
      <trkpt lat="50.851526968181133" lon="13.094954453408718">
        <ele>317</ele>
        <time>2026-08-29T13:07:00Z</time>
      </trkpt>
      <trkpt lat="50.851553119719028" lon="13.094896450638771">
        <ele>317</ele>
        <time>2026-08-29T13:07:01Z</time>
      </trkpt>
      <trkpt lat="50.851585809141397" lon="13.09484071098268">
        <ele>316</ele>
        <time>2026-08-29T13:07:02Z</time>
      </trkpt>
      <trkpt lat="50.851614475250244" lon="13.094784887507558">
        <ele>317</ele>
        <time>2026-08-29T13:07:03Z</time>
      </trkpt>
      <trkpt lat="50.851645236834884" lon="13.094731578603387">
        <ele>317</ele>
        <time>2026-08-29T13:07:04Z</time>
      </trkpt>
      <trkpt lat="50.851675998419523" lon="13.094677263870835">
        <ele>317</ele>
        <time>2026-08-29T13:07:05Z</time>
      </trkpt>
      <trkpt lat="50.851708017289639" lon="13.094624960795045">
        <ele>316</ele>
        <time>2026-08-29T13:07:06Z</time>
      </trkpt>
      <trkpt lat="50.851744310930371" lon="13.0945651140064">
        <ele>317</ele>
        <time>2026-08-29T13:07:07Z</time>
      </trkpt>
      <trkpt lat="50.851781107485294" lon="13.09449965134263">
        <ele>316</ele>
        <time>2026-08-29T13:07:08Z</time>
      </trkpt>
      <trkpt lat="50.851813713088632" lon="13.094432596117258">
        <ele>317</ele>
        <time>2026-08-29T13:07:09Z</time>
      </trkpt>
      <trkpt lat="50.85184833034873" lon="13.094368558377028">
        <ele>317</ele>
        <time>2026-08-29T13:07:10Z</time>
      </trkpt>
      <trkpt lat="50.851888647302985" lon="13.094297228381038">
        <ele>317</ele>
        <time>2026-08-29T13:07:11Z</time>
      </trkpt>
      <trkpt lat="50.851924773305655" lon="13.094228580594063">
        <ele>317</ele>
        <time>2026-08-29T13:07:12Z</time>
      </trkpt>
      <trkpt lat="50.851956373080611" lon="13.094158675521612">
        <ele>317</ele>
        <time>2026-08-29T13:07:13Z</time>
      </trkpt>
      <trkpt lat="50.851991157978773" lon="13.094095475971699">
        <ele>318</ele>
        <time>2026-08-29T13:07:14Z</time>
      </trkpt>
      <trkpt lat="50.85202326066792" lon="13.094040071591735">
        <ele>318</ele>
        <time>2026-08-29T13:07:15Z</time>
      </trkpt>
      <trkpt lat="50.852054608985782" lon="13.093981482088566">
        <ele>317</ele>
        <time>2026-08-29T13:07:16Z</time>
      </trkpt>
      <trkpt lat="50.852082939818501" lon="13.093927837908268">
        <ele>317</ele>
        <time>2026-08-29T13:07:17Z</time>
      </trkpt>
      <trkpt lat="50.852113701403141" lon="13.093867404386401">
        <ele>318</ele>
        <time>2026-08-29T13:07:18Z</time>
      </trkpt>
      <trkpt lat="50.852143289521337" lon="13.093809317797422">
        <ele>317</ele>
        <time>2026-08-29T13:07:19Z</time>
      </trkpt>
      <trkpt lat="50.852175392210484" lon="13.093756260350347">
        <ele>317</ele>
        <time>2026-08-29T13:07:20Z</time>
      </trkpt>
      <trkpt lat="50.85220942273736" lon="13.093697838485241">
        <ele>317</ele>
        <time>2026-08-29T13:07:21Z</time>
      </trkpt>
      <trkpt lat="50.852242782711983" lon="13.093635980039835">
        <ele>317</ele>
        <time>2026-08-29T13:07:22Z</time>
      </trkpt>
      <trkpt lat="50.852276561781764" lon="13.093572780489922">
        <ele>317</ele>
        <time>2026-08-29T13:07:23Z</time>
      </trkpt>
      <trkpt lat="50.852307491004467" lon="13.093505389988422">
        <ele>316</ele>
        <time>2026-08-29T13:07:24Z</time>
      </trkpt>
      <trkpt lat="50.85234085097909" lon="13.093444872647524">
        <ele>316</ele>
        <time>2026-08-29T13:07:25Z</time>
      </trkpt>
      <trkpt lat="50.852373372763395" lon="13.09339189901948">
        <ele>316</ele>
        <time>2026-08-29T13:07:26Z</time>
      </trkpt>
      <trkpt lat="50.852407570928335" lon="13.093325011432171">
        <ele>315</ele>
        <time>2026-08-29T13:07:27Z</time>
      </trkpt>
      <trkpt lat="50.852440847083926" lon="13.093264326453209">
        <ele>315</ele>
        <time>2026-08-29T13:07:28Z</time>
      </trkpt>
      <trkpt lat="50.852469010278583" lon="13.093198528513312">
        <ele>316</ele>
        <time>2026-08-29T13:07:29Z</time>
      </trkpt>
      <trkpt lat="50.852501951158047" lon="13.09313977137208">
        <ele>315</ele>
        <time>2026-08-29T13:07:30Z</time>
      </trkpt>
      <trkpt lat="50.852543860673904" lon="13.093081600964069">
        <ele>315</ele>
        <time>2026-08-29T13:07:31Z</time>
      </trkpt>
      <trkpt lat="50.852580657228827" lon="13.09301907196641">
        <ele>315</ele>
        <time>2026-08-29T13:07:32Z</time>
      </trkpt>
      <trkpt lat="50.852618208155036" lon="13.092952687293291">
        <ele>315</ele>
        <time>2026-08-29T13:07:33Z</time>
      </trkpt>
      <trkpt lat="50.85265601053834" lon="13.092891583219171">
        <ele>314</ele>
        <time>2026-08-29T13:07:34Z</time>
      </trkpt>
      <trkpt lat="50.852691382169724" lon="13.092826036736369">
        <ele>314</ele>
        <time>2026-08-29T13:07:35Z</time>
      </trkpt>
      <trkpt lat="50.852725831791759" lon="13.092761747539043">
        <ele>314</ele>
        <time>2026-08-29T13:07:36Z</time>
      </trkpt>
      <trkpt lat="50.852760281413794" lon="13.092705840244889">
        <ele>315</ele>
        <time>2026-08-29T13:07:37Z</time>
      </trkpt>
      <trkpt lat="50.852792970836163" lon="13.092645155265927">
        <ele>315</ele>
        <time>2026-08-29T13:07:38Z</time>
      </trkpt>
      <trkpt lat="50.852829683572054" lon="13.092582374811172">
        <ele>314</ele>
        <time>2026-08-29T13:07:39Z</time>
      </trkpt>
      <trkpt lat="50.852864468470216" lon="13.09252068400383">
        <ele>314</ele>
        <time>2026-08-29T13:07:40Z</time>
      </trkpt>
      <trkpt lat="50.85289740934968" lon="13.092467626556754">
        <ele>315</ele>
        <time>2026-08-29T13:07:41Z</time>
      </trkpt>
      <trkpt lat="50.852928590029478" lon="13.092413311824203">
        <ele>314</ele>
        <time>2026-08-29T13:07:42Z</time>
      </trkpt>
      <trkpt lat="50.852961530908942" lon="13.092356314882636">
        <ele>314</ele>
        <time>2026-08-29T13:07:43Z</time>
      </trkpt>
      <trkpt lat="50.853000171482563" lon="13.092298815026879">
        <ele>314</ele>
        <time>2026-08-29T13:07:44Z</time>
      </trkpt>
      <trkpt lat="50.853040488436818" lon="13.092234693467617">
        <ele>314</ele>
        <time>2026-08-29T13:07:45Z</time>
      </trkpt>
      <trkpt lat="50.853073680773377" lon="13.092169482260942">
        <ele>314</ele>
        <time>2026-08-29T13:07:46Z</time>
      </trkpt>
      <trkpt lat="50.853109220042825" lon="13.092110306024551">
        <ele>314</ele>
        <time>2026-08-29T13:07:47Z</time>
      </trkpt>
      <trkpt lat="50.853147357702255" lon="13.092054314911366">
        <ele>314</ele>
        <time>2026-08-29T13:07:48Z</time>
      </trkpt>
      <trkpt lat="50.853189351037145" lon="13.091999664902687">
        <ele>314</ele>
        <time>2026-08-29T13:07:49Z</time>
      </trkpt>
      <trkpt lat="50.853225728496909" lon="13.091935375705361">
        <ele>314</ele>
        <time>2026-08-29T13:07:50Z</time>
      </trkpt>
      <trkpt lat="50.853266129270196" lon="13.091871924698353">
        <ele>314</ele>
        <time>2026-08-29T13:07:51Z</time>
      </trkpt>
      <trkpt lat="50.85329907014966" lon="13.091820795089006">
        <ele>314</ele>
        <time>2026-08-29T13:07:52Z</time>
      </trkpt>
      <trkpt lat="50.853331508114934" lon="13.091764217242599">
        <ele>314</ele>
        <time>2026-08-29T13:07:53Z</time>
      </trkpt>
      <trkpt lat="50.853362688794732" lon="13.091707639396191">
        <ele>314</ele>
        <time>2026-08-29T13:07:54Z</time>
      </trkpt>
      <trkpt lat="50.853396216407418" lon="13.091644020751119">
        <ele>314</ele>
        <time>2026-08-29T13:07:55Z</time>
      </trkpt>
      <trkpt lat="50.853426475077868" lon="13.091589622199535">
        <ele>315</ele>
        <time>2026-08-29T13:07:56Z</time>
      </trkpt>
      <trkpt lat="50.853453129529953" lon="13.091536313295364">
        <ele>315</ele>
        <time>2026-08-29T13:07:57Z</time>
      </trkpt>
      <trkpt lat="50.853488836437464" lon="13.091492224484682">
        <ele>314</ele>
        <time>2026-08-29T13:07:58Z</time>
      </trkpt>
      <trkpt lat="50.853521274402738" lon="13.091444782912731">
        <ele>314</ele>
        <time>2026-08-29T13:07:59Z</time>
      </trkpt>
      <trkpt lat="50.853549437597394" lon="13.091395664960146">
        <ele>314</ele>
        <time>2026-08-29T13:08:00Z</time>
      </trkpt>
      <trkpt lat="50.85357709787786" lon="13.09134554117918">
        <ele>314</ele>
        <time>2026-08-29T13:08:01Z</time>
      </trkpt>
      <trkpt lat="50.853602746501565" lon="13.091293573379517">
        <ele>315</ele>
        <time>2026-08-29T13:08:02Z</time>
      </trkpt>
      <trkpt lat="50.853631412610412" lon="13.091234983876348">
        <ele>315</ele>
        <time>2026-08-29T13:08:03Z</time>
      </trkpt>
      <trkpt lat="50.853656139224768" lon="13.091178741306067">
        <ele>315</ele>
        <time>2026-08-29T13:08:04Z</time>
      </trkpt>
      <trkpt lat="50.853685978800058" lon="13.091129623353481">
        <ele>315</ele>
        <time>2026-08-29T13:08:05Z</time>
      </trkpt>
      <trkpt lat="50.853713219985366" lon="13.091074386611581">
        <ele>315</ele>
        <time>2026-08-29T13:08:06Z</time>
      </trkpt>
      <trkpt lat="50.853744400665164" lon="13.091014791280031">
        <ele>315</ele>
        <time>2026-08-29T13:08:07Z</time>
      </trkpt>
      <trkpt lat="50.853772731497884" lon="13.09096097946167">
        <ele>315</ele>
        <time>2026-08-29T13:08:08Z</time>
      </trkpt>
      <trkpt lat="50.853805169463158" lon="13.090903144329786">
        <ele>314</ele>
        <time>2026-08-29T13:08:09Z</time>
      </trkpt>
      <trkpt lat="50.853836769238114" lon="13.090856205672026">
        <ele>314</ele>
        <time>2026-08-29T13:08:10Z</time>
      </trkpt>
      <trkpt lat="50.853868704289198" lon="13.090797532349825">
        <ele>314</ele>
        <time>2026-08-29T13:08:11Z</time>
      </trkpt>
      <trkpt lat="50.853895526379347" lon="13.090744139626622">
        <ele>314</ele>
        <time>2026-08-29T13:08:12Z</time>
      </trkpt>
      <trkpt lat="50.853927209973335" lon="13.090690830722451">
        <ele>313</ele>
        <time>2026-08-29T13:08:13Z</time>
      </trkpt>
      <trkpt lat="50.853955456987023" lon="13.090643221512437">
        <ele>313</ele>
        <time>2026-08-29T13:08:14Z</time>
      </trkpt>
      <trkpt lat="50.853983368724585" lon="13.090593433007598">
        <ele>313</ele>
        <time>2026-08-29T13:08:15Z</time>
      </trkpt>
      <trkpt lat="50.854012034833431" lon="13.090542387217283">
        <ele>314</ele>
        <time>2026-08-29T13:08:16Z</time>
      </trkpt>
      <trkpt lat="50.854036090895534" lon="13.090486144647002">
        <ele>313</ele>
        <time>2026-08-29T13:08:17Z</time>
      </trkpt>
      <trkpt lat="50.854065846651793" lon="13.090419424697757">
        <ele>313</ele>
        <time>2026-08-29T13:08:18Z</time>
      </trkpt>
      <trkpt lat="50.854088310152292" lon="13.090353207662702">
        <ele>313</ele>
        <time>2026-08-29T13:08:19Z</time>
      </trkpt>
      <trkpt lat="50.854114545509219" lon="13.09028472751379">
        <ele>314</ele>
        <time>2026-08-29T13:08:20Z</time>
      </trkpt>
      <trkpt lat="50.854130890220404" lon="13.090224377810955">
        <ele>315</ele>
        <time>2026-08-29T13:08:21Z</time>
      </trkpt>
      <trkpt lat="50.854145893827081" lon="13.090168638154864">
        <ele>315</ele>
        <time>2026-08-29T13:08:22Z</time>
      </trkpt>
      <trkpt lat="50.854163160547614" lon="13.090114323422313">
        <ele>315</ele>
        <time>2026-08-29T13:08:23Z</time>
      </trkpt>
      <trkpt lat="50.854174811393023" lon="13.090062858536839">
        <ele>316</ele>
        <time>2026-08-29T13:08:24Z</time>
      </trkpt>
      <trkpt lat="50.854191491380334" lon="13.090012483298779">
        <ele>316</ele>
        <time>2026-08-29T13:08:25Z</time>
      </trkpt>
      <trkpt lat="50.854209009557962" lon="13.089957917109132">
        <ele>315</ele>
        <time>2026-08-29T13:08:26Z</time>
      </trkpt>
      <trkpt lat="50.854235664010048" lon="13.089904272928834">
        <ele>316</ele>
        <time>2026-08-29T13:08:27Z</time>
      </trkpt>
      <trkpt lat="50.854258127510548" lon="13.089846186339855">
        <ele>316</ele>
        <time>2026-08-29T13:08:28Z</time>
      </trkpt>
      <trkpt lat="50.854279669001698" lon="13.089798074215651">
        <ele>317</ele>
        <time>2026-08-29T13:08:29Z</time>
      </trkpt>
      <trkpt lat="50.854301881045103" lon="13.089757589623332">
        <ele>316</ele>
        <time>2026-08-29T13:08:30Z</time>
      </trkpt>
      <trkpt lat="50.854323590174317" lon="13.089716518297791">
        <ele>316</ele>
        <time>2026-08-29T13:08:31Z</time>
      </trkpt>
      <trkpt lat="50.854349909350276" lon="13.089672429487109">
        <ele>317</ele>
        <time>2026-08-29T13:08:32Z</time>
      </trkpt>
      <trkpt lat="50.854369271546602" lon="13.089624233543873">
        <ele>316</ele>
        <time>2026-08-29T13:08:33Z</time>
      </trkpt>
      <trkpt lat="50.854394501075149" lon="13.089580060914159">
        <ele>316</ele>
        <time>2026-08-29T13:08:34Z</time>
      </trkpt>
      <trkpt lat="50.85441998206079" lon="13.089531948789954">
        <ele>317</ele>
        <time>2026-08-29T13:08:35Z</time>
      </trkpt>
      <trkpt lat="50.854448564350605" lon="13.089487859979272">
        <ele>316</ele>
        <time>2026-08-29T13:08:36Z</time>
      </trkpt>
      <trkpt lat="50.854475218802691" lon="13.089446872472763">
        <ele>316</ele>
        <time>2026-08-29T13:08:37Z</time>
      </trkpt>
      <trkpt lat="50.854504806920886" lon="13.089400436729193">
        <ele>316</ele>
        <time>2026-08-29T13:08:38Z</time>
      </trkpt>
      <trkpt lat="50.854534897953272" lon="13.089360035955906">
        <ele>315</ele>
        <time>2026-08-29T13:08:39Z</time>
      </trkpt>
      <trkpt lat="50.854560630396008" lon="13.089310331270099">
        <ele>315</ele>
        <time>2026-08-29T13:08:40Z</time>
      </trkpt>
      <trkpt lat="50.854584686458111" lon="13.089260878041387">
        <ele>315</ele>
        <time>2026-08-29T13:08:41Z</time>
      </trkpt>
      <trkpt lat="50.854609329253435" lon="13.089210251346231">
        <ele>316</ele>
        <time>2026-08-29T13:08:42Z</time>
      </trkpt>
      <trkpt lat="50.854629529640079" lon="13.089159708470106">
        <ele>316</ele>
        <time>2026-08-29T13:08:43Z</time>
      </trkpt>
      <trkpt lat="50.854650149121881" lon="13.08911394327879">
        <ele>316</ele>
        <time>2026-08-29T13:08:44Z</time>
      </trkpt>
      <trkpt lat="50.854671439155936" lon="13.089069183915854">
        <ele>316</ele>
        <time>2026-08-29T13:08:45Z</time>
      </trkpt>
      <trkpt lat="50.854694321751595" lon="13.089026771485806">
        <ele>316</ele>
        <time>2026-08-29T13:08:46Z</time>
      </trkpt>
      <trkpt lat="50.854716030880809" lon="13.088991986587644">
        <ele>316</ele>
        <time>2026-08-29T13:08:47Z</time>
      </trkpt>
      <trkpt lat="50.854744529351592" lon="13.088958626613021">
        <ele>316</ele>
        <time>2026-08-29T13:08:48Z</time>
      </trkpt>
      <trkpt lat="50.854779900982976" lon="13.088919231668115">
        <ele>316</ele>
        <time>2026-08-29T13:08:49Z</time>
      </trkpt>
      <trkpt lat="50.854820217937231" lon="13.08888821862638">
        <ele>316</ele>
        <time>2026-08-29T13:08:50Z</time>
      </trkpt>
      <trkpt lat="50.854859864339232" lon="13.088861061260104">
        <ele>316</ele>
        <time>2026-08-29T13:08:51Z</time>
      </trkpt>
      <trkpt lat="50.854904372245073" lon="13.088833820074797">
        <ele>316</ele>
        <time>2026-08-29T13:08:52Z</time>
      </trkpt>
      <trkpt lat="50.854949299246073" lon="13.088796688243747">
        <ele>316</ele>
        <time>2026-08-29T13:08:53Z</time>
      </trkpt>
      <trkpt lat="50.854998417198658" lon="13.088764166459441">
        <ele>316</ele>
        <time>2026-08-29T13:08:54Z</time>
      </trkpt>
      <trkpt lat="50.855045104399323" lon="13.088733069598675">
        <ele>316</ele>
        <time>2026-08-29T13:08:55Z</time>
      </trkpt>
      <trkpt lat="50.855088857933879" lon="13.088704235851765">
        <ele>316</ele>
        <time>2026-08-29T13:08:56Z</time>
      </trkpt>
      <trkpt lat="50.85513629950583" lon="13.088678671047091">
        <ele>316</ele>
        <time>2026-08-29T13:08:57Z</time>
      </trkpt>
      <trkpt lat="50.855179047212005" lon="13.088652016595006">
        <ele>316</ele>
        <time>2026-08-29T13:08:58Z</time>
      </trkpt>
      <trkpt lat="50.855224812403321" lon="13.08862536214292">
        <ele>316</ele>
        <time>2026-08-29T13:08:59Z</time>
      </trkpt>
      <trkpt lat="50.855274768546224" lon="13.088608598336577">
        <ele>316</ele>
        <time>2026-08-29T13:09:00Z</time>
      </trkpt>
      <trkpt lat="50.855319611728191" lon="13.088591750711203">
        <ele>316</ele>
        <time>2026-08-29T13:09:01Z</time>
      </trkpt>
      <trkpt lat="50.855365209281445" lon="13.088572723791003">
        <ele>316</ele>
        <time>2026-08-29T13:09:02Z</time>
      </trkpt>
      <trkpt lat="50.855409717187285" lon="13.088549170643091">
        <ele>316</ele>
        <time>2026-08-29T13:09:03Z</time>
      </trkpt>
      <trkpt lat="50.85545145906508" lon="13.088525366038084">
        <ele>317</ele>
        <time>2026-08-29T13:09:04Z</time>
      </trkpt>
      <trkpt lat="50.855499738827348" lon="13.08851002715528">
        <ele>317</ele>
        <time>2026-08-29T13:09:05Z</time>
      </trkpt>
      <trkpt lat="50.855546593666077" lon="13.088503908365965">
        <ele>317</ele>
        <time>2026-08-29T13:09:06Z</time>
      </trkpt>
      <trkpt lat="50.855593951418996" lon="13.088490329682827">
        <ele>317</ele>
        <time>2026-08-29T13:09:07Z</time>
      </trkpt>
      <trkpt lat="50.855637118220329" lon="13.088473146781325">
        <ele>317</ele>
        <time>2026-08-29T13:09:08Z</time>
      </trkpt>
      <trkpt lat="50.855680285021663" lon="13.088449845090508">
        <ele>317</ele>
        <time>2026-08-29T13:09:09Z</time>
      </trkpt>
      <trkpt lat="50.855728648602962" lon="13.088435595855117">
        <ele>317</ele>
        <time>2026-08-29T13:09:10Z</time>
      </trkpt>
      <trkpt lat="50.855771899223328" lon="13.088424196466804">
        <ele>317</ele>
        <time>2026-08-29T13:09:11Z</time>
      </trkpt>
      <trkpt lat="50.855813222005963" lon="13.088421178981662">
        <ele>317</ele>
        <time>2026-08-29T13:09:12Z</time>
      </trkpt>
      <trkpt lat="50.855852700769901" lon="13.088415395468473">
        <ele>317</ele>
        <time>2026-08-29T13:09:13Z</time>
      </trkpt>
      <trkpt lat="50.855893017724156" lon="13.088407684117556">
        <ele>317</ele>
        <time>2026-08-29T13:09:14Z</time>
      </trkpt>
      <trkpt lat="50.85593325085938" lon="13.08839569799602">
        <ele>317</ele>
        <time>2026-08-29T13:09:15Z</time>
      </trkpt>
      <trkpt lat="50.855969963595271" lon="13.08838446624577">
        <ele>316</ele>
        <time>2026-08-29T13:09:16Z</time>
      </trkpt>
      <trkpt lat="50.856010280549526" lon="13.088380107656121">
        <ele>316</ele>
        <time>2026-08-29T13:09:17Z</time>
      </trkpt>
      <trkpt lat="50.856047160923481" lon="13.088376503437757">
        <ele>316</ele>
        <time>2026-08-29T13:09:18Z</time>
      </trkpt>
      <trkpt lat="50.856083789840341" lon="13.088385304436088">
        <ele>316</ele>
        <time>2026-08-29T13:09:19Z</time>
      </trkpt>
      <trkpt lat="50.8561204187572" lon="13.088377090170979">
        <ele>316</ele>
        <time>2026-08-29T13:09:20Z</time>
      </trkpt>
      <trkpt lat="50.85615947842598" lon="13.088370971381664">
        <ele>316</ele>
        <time>2026-08-29T13:09:21Z</time>
      </trkpt>
      <trkpt lat="50.856193508952856" lon="13.088352950289845">
        <ele>316</ele>
        <time>2026-08-29T13:09:22Z</time>
      </trkpt>
      <trkpt lat="50.856228210031986" lon="13.088310621678829">
        <ele>315</ele>
        <time>2026-08-29T13:09:23Z</time>
      </trkpt>
      <trkpt lat="50.856258636340499" lon="13.088260749354959">
        <ele>315</ele>
        <time>2026-08-29T13:09:24Z</time>
      </trkpt>
      <trkpt lat="50.856289314106107" lon="13.088208697736263">
        <ele>315</ele>
        <time>2026-08-29T13:09:25Z</time>
      </trkpt>
      <trkpt lat="50.856319321319461" lon="13.088150611147285">
        <ele>315</ele>
        <time>2026-08-29T13:09:26Z</time>
      </trkpt>
      <trkpt lat="50.856344550848007" lon="13.088087411597371">
        <ele>315</ele>
        <time>2026-08-29T13:09:27Z</time>
      </trkpt>
      <trkpt lat="50.856369528919458" lon="13.088024212047458">
        <ele>315</ele>
        <time>2026-08-29T13:09:28Z</time>
      </trkpt>
      <trkpt lat="50.856391405686736" lon="13.08796226978302">
        <ele>316</ele>
        <time>2026-08-29T13:09:29Z</time>
      </trkpt>
      <trkpt lat="50.856415629386902" lon="13.087896723300219">
        <ele>315</ele>
        <time>2026-08-29T13:09:30Z</time>
      </trkpt>
      <trkpt lat="50.856441278010607" lon="13.087835535407066">
        <ele>316</ele>
        <time>2026-08-29T13:09:31Z</time>
      </trkpt>
      <trkpt lat="50.856467932462692" lon="13.0877751018852">
        <ele>316</ele>
        <time>2026-08-29T13:09:32Z</time>
      </trkpt>
      <trkpt lat="50.856494754552841" lon="13.087723888456821">
        <ele>316</ele>
        <time>2026-08-29T13:09:33Z</time>
      </trkpt>
      <trkpt lat="50.856521660462022" lon="13.087674519047141">
        <ele>316</ele>
        <time>2026-08-29T13:09:34Z</time>
      </trkpt>
      <trkpt lat="50.856550661846995" lon="13.087621964514256">
        <ele>316</ele>
        <time>2026-08-29T13:09:35Z</time>
      </trkpt>
      <trkpt lat="50.856578908860683" lon="13.087572930380702">
        <ele>316</ele>
        <time>2026-08-29T13:09:36Z</time>
      </trkpt>
      <trkpt lat="50.856603886932135" lon="13.087520878762007">
        <ele>316</ele>
        <time>2026-08-29T13:09:37Z</time>
      </trkpt>
      <trkpt lat="50.856630122289062" lon="13.087464552372694">
        <ele>316</ele>
        <time>2026-08-29T13:09:38Z</time>
      </trkpt>
      <trkpt lat="50.856653843075037" lon="13.087410153821111">
        <ele>315</ele>
        <time>2026-08-29T13:09:39Z</time>
      </trkpt>
      <trkpt lat="50.856678821146488" lon="13.087358437478542">
        <ele>315</ele>
        <time>2026-08-29T13:09:40Z</time>
      </trkpt>
      <trkpt lat="50.85670824162662" lon="13.087303787469864">
        <ele>316</ele>
        <time>2026-08-29T13:09:41Z</time>
      </trkpt>
      <trkpt lat="50.856733974069357" lon="13.087242348119617">
        <ele>316</ele>
        <time>2026-08-29T13:09:42Z</time>
      </trkpt>
      <trkpt lat="50.85675853304565" lon="13.087187362834811">
        <ele>316</ele>
        <time>2026-08-29T13:09:43Z</time>
      </trkpt>
      <trkpt lat="50.856782840564847" lon="13.087131455540657">
        <ele>315</ele>
        <time>2026-08-29T13:09:44Z</time>
      </trkpt>
      <trkpt lat="50.856804298236966" lon="13.087075129151344">
        <ele>316</ele>
        <time>2026-08-29T13:09:45Z</time>
      </trkpt>
      <trkpt lat="50.856827516108751" lon="13.087017964571714">
        <ele>316</ele>
        <time>2026-08-29T13:09:46Z</time>
      </trkpt>
      <trkpt lat="50.856853919103742" lon="13.086960799992085">
        <ele>316</ele>
        <time>2026-08-29T13:09:47Z</time>
      </trkpt>
      <trkpt lat="50.856878561899066" lon="13.08690682053566">
        <ele>317</ele>
        <time>2026-08-29T13:09:48Z</time>
      </trkpt>
      <trkpt lat="50.856903037056327" lon="13.086855355650187">
        <ele>317</ele>
        <time>2026-08-29T13:09:49Z</time>
      </trkpt>
      <trkpt lat="50.856925500556827" lon="13.086806321516633">
        <ele>317</ele>
        <time>2026-08-29T13:09:50Z</time>
      </trkpt>
      <trkpt lat="50.856946622952819" lon="13.086748318746686">
        <ele>317</ele>
        <time>2026-08-29T13:09:51Z</time>
      </trkpt>
      <trkpt lat="50.856969840824604" lon="13.086694506928325">
        <ele>317</ele>
        <time>2026-08-29T13:09:52Z</time>
      </trkpt>
      <trkpt lat="50.856993226334453" lon="13.086639018729329">
        <ele>317</ele>
        <time>2026-08-29T13:09:53Z</time>
      </trkpt>
      <trkpt lat="50.857017617672682" lon="13.086584620177746">
        <ele>316</ele>
        <time>2026-08-29T13:09:54Z</time>
      </trkpt>
      <trkpt lat="50.857040835544467" lon="13.08653499931097">
        <ele>316</ele>
        <time>2026-08-29T13:09:55Z</time>
      </trkpt>
      <trkpt lat="50.857059108093381" lon="13.08648319914937">
        <ele>317</ele>
        <time>2026-08-29T13:09:56Z</time>
      </trkpt>
      <trkpt lat="50.857079643756151" lon="13.086425866931677">
        <ele>317</ele>
        <time>2026-08-29T13:09:57Z</time>
      </trkpt>
      <trkpt lat="50.857105040922761" lon="13.086369875818491">
        <ele>317</ele>
        <time>2026-08-29T13:09:58Z</time>
      </trkpt>
      <trkpt lat="50.857127839699388" lon="13.086318327113986">
        <ele>317</ele>
        <time>2026-08-29T13:09:59Z</time>
      </trkpt>
      <trkpt lat="50.857152817770839" lon="13.086270466446877">
        <ele>316</ele>
        <time>2026-08-29T13:10:00Z</time>
      </trkpt>
      <trkpt lat="50.857173521071672" lon="13.086220426484942">
        <ele>316</ele>
        <time>2026-08-29T13:10:01Z</time>
      </trkpt>
      <trkpt lat="50.857199002057314" lon="13.08616510592401">
        <ele>316</ele>
        <time>2026-08-29T13:10:02Z</time>
      </trkpt>
      <trkpt lat="50.857228171080351" lon="13.086113724857569">
        <ele>317</ele>
        <time>2026-08-29T13:10:03Z</time>
      </trkpt>
      <trkpt lat="50.857253400608897" lon="13.086054045706987">
        <ele>316</ele>
        <time>2026-08-29T13:10:04Z</time>
      </trkpt>
      <trkpt lat="50.85728039033711" lon="13.085995204746723">
        <ele>316</ele>
        <time>2026-08-29T13:10:05Z</time>
      </trkpt>
      <trkpt lat="50.857304111123085" lon="13.085939465090632">
        <ele>317</ele>
        <time>2026-08-29T13:10:06Z</time>
      </trkpt>
      <trkpt lat="50.857322970405221" lon="13.085890766233206">
        <ele>317</ele>
        <time>2026-08-29T13:10:07Z</time>
      </trkpt>
      <trkpt lat="50.857347697019577" lon="13.085834188386798">
        <ele>317</ele>
        <time>2026-08-29T13:10:08Z</time>
      </trkpt>
      <trkpt lat="50.857368987053633" lon="13.085778448730707">
        <ele>317</ele>
        <time>2026-08-29T13:10:09Z</time>
      </trkpt>
      <trkpt lat="50.857401927933097" lon="13.085721954703331">
        <ele>317</ele>
        <time>2026-08-29T13:10:10Z</time>
      </trkpt>
      <trkpt lat="50.857420200482011" lon="13.085656575858593">
        <ele>316</ele>
        <time>2026-08-29T13:10:11Z</time>
      </trkpt>
      <trkpt lat="50.857442663982511" lon="13.085594046860933">
        <ele>316</ele>
        <time>2026-08-29T13:10:12Z</time>
      </trkpt>
      <trkpt lat="50.857461858540773" lon="13.085530763491988">
        <ele>316</ele>
        <time>2026-08-29T13:10:13Z</time>
      </trkpt>
      <trkpt lat="50.857483567669988" lon="13.085462367162108">
        <ele>315</ele>
        <time>2026-08-29T13:10:14Z</time>
      </trkpt>
      <trkpt lat="50.857498990371823" lon="13.085400341078639">
        <ele>316</ele>
        <time>2026-08-29T13:10:15Z</time>
      </trkpt>
      <trkpt lat="50.857521705329418" lon="13.085332280024886">
        <ele>316</ele>
        <time>2026-08-29T13:10:16Z</time>
      </trkpt>
      <trkpt lat="50.857538217678666" lon="13.085275199264288">
        <ele>315</ele>
        <time>2026-08-29T13:10:17Z</time>
      </trkpt>
      <trkpt lat="50.857558669522405" lon="13.085221303626895">
        <ele>316</ele>
        <time>2026-08-29T13:10:18Z</time>
      </trkpt>
      <trkpt lat="50.857581133022904" lon="13.085163133218884">
        <ele>316</ele>
        <time>2026-08-29T13:10:19Z</time>
      </trkpt>
      <trkpt lat="50.857600662857294" lon="13.085107477381825">
        <ele>316</ele>
        <time>2026-08-29T13:10:20Z</time>
      </trkpt>
      <trkpt lat="50.857622120529413" lon="13.085053162649274">
        <ele>316</ele>
        <time>2026-08-29T13:10:21Z</time>
      </trkpt>
      <trkpt lat="50.857643075287342" lon="13.084998680278659">
        <ele>316</ele>
        <time>2026-08-29T13:10:22Z</time>
      </trkpt>
      <trkpt lat="50.857664030045271" lon="13.084947466850281">
        <ele>316</ele>
        <time>2026-08-29T13:10:23Z</time>
      </trkpt>
      <trkpt lat="50.857683140784502" lon="13.084891391918063">
        <ele>316</ele>
        <time>2026-08-29T13:10:24Z</time>
      </trkpt>
      <trkpt lat="50.857702251523733" lon="13.084842776879668">
        <ele>316</ele>
        <time>2026-08-29T13:10:25Z</time>
      </trkpt>
      <trkpt lat="50.857721529901028" lon="13.084789300337434">
        <ele>316</ele>
        <time>2026-08-29T13:10:26Z</time>
      </trkpt>
      <trkpt lat="50.857742317020893" lon="13.084743283689022">
        <ele>316</ele>
        <time>2026-08-29T13:10:27Z</time>
      </trkpt>
      <trkpt lat="50.857761595398188" lon="13.084695339202881">
        <ele>316</ele>
        <time>2026-08-29T13:10:28Z</time>
      </trkpt>
      <trkpt lat="50.857774671167135" lon="13.084649490192533">
        <ele>315</ele>
        <time>2026-08-29T13:10:29Z</time>
      </trkpt>
      <trkpt lat="50.857796799391508" lon="13.084599953144789">
        <ele>315</ele>
        <time>2026-08-29T13:10:30Z</time>
      </trkpt>
      <trkpt lat="50.857812892645597" lon="13.08454966172576">
        <ele>315</ele>
        <time>2026-08-29T13:10:31Z</time>
      </trkpt>
      <trkpt lat="50.857838541269302" lon="13.084500040858984">
        <ele>315</ele>
        <time>2026-08-29T13:10:32Z</time>
      </trkpt>
      <trkpt lat="50.857857232913375" lon="13.084446061402559">
        <ele>315</ele>
        <time>2026-08-29T13:10:33Z</time>
      </trkpt>
      <trkpt lat="50.857881959527731" lon="13.084395853802562">
        <ele>315</ele>
        <time>2026-08-29T13:10:34Z</time>
      </trkpt>
      <trkpt lat="50.857896879315376" lon="13.084344975650311">
        <ele>315</ele>
        <time>2026-08-29T13:10:35Z</time>
      </trkpt>
      <trkpt lat="50.857917750254273" lon="13.084289068356156">
        <ele>315</ele>
        <time>2026-08-29T13:10:36Z</time>
      </trkpt>
      <trkpt lat="50.857935100793839" lon="13.084235340356827">
        <ele>315</ele>
        <time>2026-08-29T13:10:37Z</time>
      </trkpt>
      <trkpt lat="50.857951948419213" lon="13.084179013967514">
        <ele>315</ele>
        <time>2026-08-29T13:10:38Z</time>
      </trkpt>
      <trkpt lat="50.857967287302017" lon="13.084121849387884">
        <ele>315</ele>
        <time>2026-08-29T13:10:39Z</time>
      </trkpt>
      <trkpt lat="50.857982290908694" lon="13.084065355360508">
        <ele>315</ele>
        <time>2026-08-29T13:10:40Z</time>
      </trkpt>
      <trkpt lat="50.858002239838243" lon="13.084007352590561">
        <ele>316</ele>
        <time>2026-08-29T13:10:41Z</time>
      </trkpt>
      <trkpt lat="50.858018836006522" lon="13.083958150818944">
        <ele>316</ele>
        <time>2026-08-29T13:10:42Z</time>
      </trkpt>
      <trkpt lat="50.858029229566455" lon="13.083900902420282">
        <ele>316</ele>
        <time>2026-08-29T13:10:43Z</time>
      </trkpt>
      <trkpt lat="50.858047669753432" lon="13.083843989297748">
        <ele>316</ele>
        <time>2026-08-29T13:10:44Z</time>
      </trkpt>
      <trkpt lat="50.858059823513031" lon="13.083782130852342">
        <ele>316</ele>
        <time>2026-08-29T13:10:45Z</time>
      </trkpt>
      <trkpt lat="50.858070719987154" lon="13.083731504157186">
        <ele>316</ele>
        <time>2026-08-29T13:10:46Z</time>
      </trkpt>
      <trkpt lat="50.858082454651594" lon="13.083674926310778">
        <ele>316</ele>
        <time>2026-08-29T13:10:47Z</time>
      </trkpt>
      <trkpt lat="50.858095027506351" lon="13.083617091178894">
        <ele>316</ele>
        <time>2026-08-29T13:10:48Z</time>
      </trkpt>
      <trkpt lat="50.858109528198838" lon="13.083553053438663">
        <ele>316</ele>
        <time>2026-08-29T13:10:49Z</time>
      </trkpt>
      <trkpt lat="50.858120508491993" lon="13.083490272983909">
        <ele>316</ele>
        <time>2026-08-29T13:10:50Z</time>
      </trkpt>
      <trkpt lat="50.858131069689989" lon="13.083420535549521">
        <ele>316</ele>
        <time>2026-08-29T13:10:51Z</time>
      </trkpt>
      <trkpt lat="50.858143223449588" lon="13.08335448615253">
        <ele>316</ele>
        <time>2026-08-29T13:10:52Z</time>
      </trkpt>
      <trkpt lat="50.858151772990823" lon="13.083279216662049">
        <ele>317</ele>
        <time>2026-08-29T13:10:53Z</time>
      </trkpt>
      <trkpt lat="50.858163088560104" lon="13.083210317417979">
        <ele>317</ele>
        <time>2026-08-29T13:10:54Z</time>
      </trkpt>
      <trkpt lat="50.858174990862608" lon="13.08314342983067">
        <ele>317</ele>
        <time>2026-08-29T13:10:55Z</time>
      </trkpt>
      <trkpt lat="50.858185216784477" lon="13.083069082349539">
        <ele>316</ele>
        <time>2026-08-29T13:10:56Z</time>
      </trkpt>
      <trkpt lat="50.858200807124376" lon="13.082993142306805">
        <ele>316</ele>
        <time>2026-08-29T13:10:57Z</time>
      </trkpt>
      <trkpt lat="50.858216648921371" lon="13.082919549196959">
        <ele>316</ele>
        <time>2026-08-29T13:10:58Z</time>
      </trkpt>
      <trkpt lat="50.858232993632555" lon="13.082852074876428">
        <ele>316</ele>
        <time>2026-08-29T13:10:59Z</time>
      </trkpt>
      <trkpt lat="50.858242968097329" lon="13.082789210602641">
        <ele>316</ele>
        <time>2026-08-29T13:11:00Z</time>
      </trkpt>
      <trkpt lat="50.858256295323372" lon="13.082724753767252">
        <ele>315</ele>
        <time>2026-08-29T13:11:01Z</time>
      </trkpt>
      <trkpt lat="50.858269790187478" lon="13.082649651914835">
        <ele>315</ele>
        <time>2026-08-29T13:11:02Z</time>
      </trkpt>
      <trkpt lat="50.85828454233706" lon="13.082576980814338">
        <ele>315</ele>
        <time>2026-08-29T13:11:03Z</time>
      </trkpt>
      <trkpt lat="50.858303820714355" lon="13.082501292228699">
        <ele>315</ele>
        <time>2026-08-29T13:11:04Z</time>
      </trkpt>
      <trkpt lat="50.858317650854588" lon="13.082430632784963">
        <ele>315</ele>
        <time>2026-08-29T13:11:05Z</time>
      </trkpt>
      <trkpt lat="50.858332151547074" lon="13.082360308617353">
        <ele>315</ele>
        <time>2026-08-29T13:11:06Z</time>
      </trkpt>
      <trkpt lat="50.858344808220863" lon="13.082285961136222">
        <ele>316</ele>
        <time>2026-08-29T13:11:07Z</time>
      </trkpt>
      <trkpt lat="50.858352184295654" lon="13.082216139882803">
        <ele>316</ele>
        <time>2026-08-29T13:11:08Z</time>
      </trkpt>
      <trkpt lat="50.858357800170779" lon="13.082142295315862">
        <ele>316</ele>
        <time>2026-08-29T13:11:09Z</time>
      </trkpt>
      <trkpt lat="50.858366936445236" lon="13.08207088150084">
        <ele>316</ele>
        <time>2026-08-29T13:11:10Z</time>
      </trkpt>
      <trkpt lat="50.858374480158091" lon="13.081999886780977">
        <ele>316</ele>
        <time>2026-08-29T13:11:11Z</time>
      </trkpt>
      <trkpt lat="50.858386550098658" lon="13.081933418288827">
        <ele>316</ele>
        <time>2026-08-29T13:11:12Z</time>
      </trkpt>
      <trkpt lat="50.858394680544734" lon="13.08186418376863">
        <ele>316</ele>
        <time>2026-08-29T13:11:13Z</time>
      </trkpt>
      <trkpt lat="50.858406918123364" lon="13.081797212362289">
        <ele>316</ele>
        <time>2026-08-29T13:11:14Z</time>
      </trkpt>
      <trkpt lat="50.858416892588139" lon="13.081738203763962">
        <ele>316</ele>
        <time>2026-08-29T13:11:15Z</time>
      </trkpt>
      <trkpt lat="50.858429130166769" lon="13.081676596775651">
        <ele>317</ele>
        <time>2026-08-29T13:11:16Z</time>
      </trkpt>
      <trkpt lat="50.85843943990767" lon="13.081617839634418">
        <ele>317</ele>
        <time>2026-08-29T13:11:17Z</time>
      </trkpt>
      <trkpt lat="50.858447318896651" lon="13.081560591235757">
        <ele>317</ele>
        <time>2026-08-29T13:11:18Z</time>
      </trkpt>
      <trkpt lat="50.85845410823822" lon="13.081495296210051">
        <ele>317</ele>
        <time>2026-08-29T13:11:19Z</time>
      </trkpt>
      <trkpt lat="50.858459724113345" lon="13.081438634544611">
        <ele>317</ele>
        <time>2026-08-29T13:11:20Z</time>
      </trkpt>
      <trkpt lat="50.858469447121024" lon="13.081375351175666">
        <ele>316</ele>
        <time>2026-08-29T13:11:21Z</time>
      </trkpt>
      <trkpt lat="50.858477242290974" lon="13.08131399564445">
        <ele>316</ele>
        <time>2026-08-29T13:11:22Z</time>
      </trkpt>
      <trkpt lat="50.85848587565124" lon="13.081251299008727">
        <ele>316</ele>
        <time>2026-08-29T13:11:23Z</time>
      </trkpt>
      <trkpt lat="50.858495179563761" lon="13.081195810809731">
        <ele>316</ele>
        <time>2026-08-29T13:11:24Z</time>
      </trkpt>
      <trkpt lat="50.858503812924027" lon="13.081141412258148">
        <ele>316</ele>
        <time>2026-08-29T13:11:25Z</time>
      </trkpt>
      <trkpt lat="50.858515631407499" lon="13.081089025363326">
        <ele>316</ele>
        <time>2026-08-29T13:11:26Z</time>
      </trkpt>
      <trkpt lat="50.85852300748229" lon="13.081024149432778">
        <ele>316</ele>
        <time>2026-08-29T13:11:27Z</time>
      </trkpt>
      <trkpt lat="50.85852887481451" lon="13.080971008166671">
        <ele>316</ele>
        <time>2026-08-29T13:11:28Z</time>
      </trkpt>
      <trkpt lat="50.858536921441555" lon="13.080908730626106">
        <ele>317</ele>
        <time>2026-08-29T13:11:29Z</time>
      </trkpt>
      <trkpt lat="50.858541447669268" lon="13.08085273951292">
        <ele>317</ele>
        <time>2026-08-29T13:11:30Z</time>
      </trkpt>
      <trkpt lat="50.858552511781454" lon="13.08078870177269">
        <ele>317</ele>
        <time>2026-08-29T13:11:31Z</time>
      </trkpt>
      <trkpt lat="50.858564916998148" lon="13.080737153068185">
        <ele>317</ele>
        <time>2026-08-29T13:11:32Z</time>
      </trkpt>
      <trkpt lat="50.858571957796812" lon="13.080682586878538">
        <ele>317</ele>
        <time>2026-08-29T13:11:33Z</time>
      </trkpt>
      <trkpt lat="50.85858209989965" lon="13.080633468925953">
        <ele>317</ele>
        <time>2026-08-29T13:11:34Z</time>
      </trkpt>
      <trkpt lat="50.858587380498648" lon="13.080586278811097">
        <ele>317</ele>
        <time>2026-08-29T13:11:35Z</time>
      </trkpt>
      <trkpt lat="50.858591822907329" lon="13.080537915229797">
        <ele>317</ele>
        <time>2026-08-29T13:11:36Z</time>
      </trkpt>
      <trkpt lat="50.858592409640551" lon="13.080486031249166">
        <ele>317</ele>
        <time>2026-08-29T13:11:37Z</time>
      </trkpt>
      <trkpt lat="50.858597690239549" lon="13.080441858619452">
        <ele>317</ele>
        <time>2026-08-29T13:11:38Z</time>
      </trkpt>
      <trkpt lat="50.858609341084957" lon="13.080388298258185">
        <ele>317</ele>
        <time>2026-08-29T13:11:39Z</time>
      </trkpt>
      <trkpt lat="50.858617220073938" lon="13.080333899706602">
        <ele>317</ele>
        <time>2026-08-29T13:11:40Z</time>
      </trkpt>
      <trkpt lat="50.858625937253237" lon="13.08028788305819">
        <ele>317</ele>
        <time>2026-08-29T13:11:41Z</time>
      </trkpt>
      <trkpt lat="50.858633732423186" lon="13.080232897773385">
        <ele>317</ele>
        <time>2026-08-29T13:11:42Z</time>
      </trkpt>
      <trkpt lat="50.858643539249897" lon="13.080181265249848">
        <ele>316</ele>
        <time>2026-08-29T13:11:43Z</time>
      </trkpt>
      <trkpt lat="50.858653681352735" lon="13.080131141468883">
        <ele>316</ele>
        <time>2026-08-29T13:11:44Z</time>
      </trkpt>
      <trkpt lat="50.858666840940714" lon="13.080079508945346">
        <ele>316</ele>
        <time>2026-08-29T13:11:45Z</time>
      </trkpt>
      <trkpt lat="50.858676061034203" lon="13.080028798431158">
        <ele>316</ele>
        <time>2026-08-29T13:11:46Z</time>
      </trkpt>
      <trkpt lat="50.858689220622182" lon="13.079980183392763">
        <ele>316</ele>
        <time>2026-08-29T13:11:47Z</time>
      </trkpt>
      <trkpt lat="50.858701458200812" lon="13.079924862831831">
        <ele>316</ele>
        <time>2026-08-29T13:11:48Z</time>
      </trkpt>
      <trkpt lat="50.858716210350394" lon="13.079878007993102">
        <ele>316</ele>
        <time>2026-08-29T13:11:49Z</time>
      </trkpt>
      <trkpt lat="50.858732052147388" lon="13.079815730452538">
        <ele>316</ele>
        <time>2026-08-29T13:11:50Z</time>
      </trkpt>
      <trkpt lat="50.858752084895968" lon="13.079770132899284">
        <ele>316</ele>
        <time>2026-08-29T13:11:51Z</time>
      </trkpt>
      <trkpt lat="50.85876289755106" lon="13.079721182584763">
        <ele>315</ele>
        <time>2026-08-29T13:11:52Z</time>
      </trkpt>
      <trkpt lat="50.858775051310658" lon="13.079663012176752">
        <ele>316</ele>
        <time>2026-08-29T13:11:53Z</time>
      </trkpt>
      <trkpt lat="50.858788378536701" lon="13.079598722979426">
        <ele>316</ele>
        <time>2026-08-29T13:11:54Z</time>
      </trkpt>
      <trkpt lat="50.858802460134029" lon="13.079545581713319">
        <ele>315</ele>
        <time>2026-08-29T13:11:55Z</time>
      </trkpt>
      <trkpt lat="50.858815032988787" lon="13.079480119049549">
        <ele>316</ele>
        <time>2026-08-29T13:11:56Z</time>
      </trkpt>
      <trkpt lat="50.858829198405147" lon="13.079417422413826">
        <ele>316</ele>
        <time>2026-08-29T13:11:57Z</time>
      </trkpt>
      <trkpt lat="50.858847890049219" lon="13.079361096024513">
        <ele>316</ele>
        <time>2026-08-29T13:11:58Z</time>
      </trkpt>
      <trkpt lat="50.85886943154037" lon="13.079319940879941">
        <ele>316</ele>
        <time>2026-08-29T13:11:59Z</time>
      </trkpt>
      <trkpt lat="50.858898600563407" lon="13.079303009435534">
        <ele>316</ele>
        <time>2026-08-29T13:12:00Z</time>
      </trkpt>
      <trkpt lat="50.858923830091953" lon="13.079280126839876">
        <ele>316</ele>
        <time>2026-08-29T13:12:01Z</time>
      </trkpt>
      <trkpt lat="50.858949730172753" lon="13.079249868169427">
        <ele>315</ele>
        <time>2026-08-29T13:12:02Z</time>
      </trkpt>
      <trkpt lat="50.858971271663904" lon="13.079198319464922">
        <ele>315</ele>
        <time>2026-08-29T13:12:03Z</time>
      </trkpt>
      <trkpt lat="50.858973618596792" lon="13.079128498211503">
        <ele>315</ele>
        <time>2026-08-29T13:12:04Z</time>
      </trkpt>
      <trkpt lat="50.858985269442201" lon="13.079072339460254">
        <ele>315</ele>
        <time>2026-08-29T13:12:05Z</time>
      </trkpt>
      <trkpt lat="50.858999853953719" lon="13.079008972272277">
        <ele>315</ele>
        <time>2026-08-29T13:12:06Z</time>
      </trkpt>
      <trkpt lat="50.859020138159394" lon="13.07893973775208">
        <ele>315</ele>
        <time>2026-08-29T13:12:07Z</time>
      </trkpt>
      <trkpt lat="50.859038410708308" lon="13.078882154077291">
        <ele>314</ele>
        <time>2026-08-29T13:12:08Z</time>
      </trkpt>
      <trkpt lat="50.859054168686271" lon="13.07881711050868">
        <ele>315</ele>
        <time>2026-08-29T13:12:09Z</time>
      </trkpt>
      <trkpt lat="50.859074369072914" lon="13.078752737492323">
        <ele>315</ele>
        <time>2026-08-29T13:12:10Z</time>
      </trkpt>
      <trkpt lat="50.859096245840192" lon="13.078685346990824">
        <ele>314</ele>
        <time>2026-08-29T13:12:11Z</time>
      </trkpt>
      <trkpt lat="50.859117284417152" lon="13.078630864620209">
        <ele>314</ele>
        <time>2026-08-29T13:12:12Z</time>
      </trkpt>
      <trkpt lat="50.85914259776473" lon="13.07856498286128">
        <ele>315</ele>
        <time>2026-08-29T13:12:13Z</time>
      </trkpt>
      <trkpt lat="50.859169419854879" lon="13.078506644815207">
        <ele>315</ele>
        <time>2026-08-29T13:12:14Z</time>
      </trkpt>
      <trkpt lat="50.859194733202457" lon="13.078444199636579">
        <ele>315</ele>
        <time>2026-08-29T13:12:15Z</time>
      </trkpt>
      <trkpt lat="50.859215520322323" lon="13.078377731144428">
        <ele>315</ele>
        <time>2026-08-29T13:12:16Z</time>
      </trkpt>
      <trkpt lat="50.859238319098949" lon="13.078314950689673">
        <ele>315</ele>
        <time>2026-08-29T13:12:17Z</time>
      </trkpt>
      <trkpt lat="50.859265141189098" lon="13.078261557966471">
        <ele>315</ele>
        <time>2026-08-29T13:12:18Z</time>
      </trkpt>
      <trkpt lat="50.859296824783087" lon="13.078213110566139">
        <ele>315</ele>
        <time>2026-08-29T13:12:19Z</time>
      </trkpt>
      <trkpt lat="50.859328843653202" lon="13.078156197443604">
        <ele>314</ele>
        <time>2026-08-29T13:12:20Z</time>
      </trkpt>
      <trkpt lat="50.859364131465554" lon="13.078105319291353">
        <ele>314</ele>
        <time>2026-08-29T13:12:21Z</time>
      </trkpt>
      <trkpt lat="50.859394390136003" lon="13.078053602948785">
        <ele>313</ele>
        <time>2026-08-29T13:12:22Z</time>
      </trkpt>
      <trkpt lat="50.859426828101277" lon="13.078005909919739">
        <ele>313</ele>
        <time>2026-08-29T13:12:23Z</time>
      </trkpt>
      <trkpt lat="50.859461864456534" lon="13.077957211062312">
        <ele>312</ele>
        <time>2026-08-29T13:12:24Z</time>
      </trkpt>
      <trkpt lat="50.859498577192426" lon="13.077910104766488">
        <ele>312</ele>
        <time>2026-08-29T13:12:25Z</time>
      </trkpt>
      <trkpt lat="50.859532859176397" lon="13.077862998470664">
        <ele>311</ele>
        <time>2026-08-29T13:12:26Z</time>
      </trkpt>
      <trkpt lat="50.85957451723516" lon="13.077829806134105">
        <ele>312</ele>
        <time>2026-08-29T13:12:27Z</time>
      </trkpt>
      <trkpt lat="50.859606619924307" lon="13.077786387875676">
        <ele>312</ele>
        <time>2026-08-29T13:12:28Z</time>
      </trkpt>
      <trkpt lat="50.859638806432486" lon="13.077741544693708">
        <ele>312</ele>
        <time>2026-08-29T13:12:29Z</time>
      </trkpt>
      <trkpt lat="50.859675938263535" lon="13.077697707340121">
        <ele>312</ele>
        <time>2026-08-29T13:12:30Z</time>
      </trkpt>
      <trkpt lat="50.859708879143" lon="13.077659318223596">
        <ele>312</ele>
        <time>2026-08-29T13:12:31Z</time>
      </trkpt>
      <trkpt lat="50.859748441725969" lon="13.077615145593882">
        <ele>312</ele>
        <time>2026-08-29T13:12:32Z</time>
      </trkpt>
      <trkpt lat="50.859786411747336" lon="13.077571727335453">
        <ele>312</ele>
        <time>2026-08-29T13:12:33Z</time>
      </trkpt>
      <trkpt lat="50.859817257151008" lon="13.077516742050648">
        <ele>312</ele>
        <time>2026-08-29T13:12:34Z</time>
      </trkpt>
      <trkpt lat="50.859857657924294" lon="13.077466115355492">
        <ele>312</ele>
        <time>2026-08-29T13:12:35Z</time>
      </trkpt>
      <trkpt lat="50.859896466135979" lon="13.07741523720324">
        <ele>312</ele>
        <time>2026-08-29T13:12:36Z</time>
      </trkpt>
      <trkpt lat="50.859931418672204" lon="13.077371316030622">
        <ele>312</ele>
        <time>2026-08-29T13:12:37Z</time>
      </trkpt>
      <trkpt lat="50.859973831102252" lon="13.077319851145148">
        <ele>312</ele>
        <time>2026-08-29T13:12:38Z</time>
      </trkpt>
      <trkpt lat="50.860013980418444" lon="13.077286155894399">
        <ele>312</ele>
        <time>2026-08-29T13:12:39Z</time>
      </trkpt>
      <trkpt lat="50.86005580611527" lon="13.077236032113433">
        <ele>312</ele>
        <time>2026-08-29T13:12:40Z</time>
      </trkpt>
      <trkpt lat="50.860098218545318" lon="13.077192278578877">
        <ele>312</ele>
        <time>2026-08-29T13:12:41Z</time>
      </trkpt>
      <trkpt lat="50.860139457508922" lon="13.077148189768195">
        <ele>312</ele>
        <time>2026-08-29T13:12:42Z</time>
      </trkpt>
      <trkpt lat="50.860180109739304" lon="13.077106364071369">
        <ele>313</ele>
        <time>2026-08-29T13:12:43Z</time>
      </trkpt>
      <trkpt lat="50.860215732827783" lon="13.077068896964192">
        <ele>313</ele>
        <time>2026-08-29T13:12:44Z</time>
      </trkpt>
      <trkpt lat="50.860253535211086" lon="13.077027909457684">
        <ele>313</ele>
        <time>2026-08-29T13:12:45Z</time>
      </trkpt>
      <trkpt lat="50.8602942712605" lon="13.076994214206934">
        <ele>313</ele>
        <time>2026-08-29T13:12:46Z</time>
      </trkpt>
      <trkpt lat="50.860330229625106" lon="13.076954064890742">
        <ele>313</ele>
        <time>2026-08-29T13:12:47Z</time>
      </trkpt>
      <trkpt lat="50.860366858541965" lon="13.076911317184567">
        <ele>313</ele>
        <time>2026-08-29T13:12:48Z</time>
      </trkpt>
      <trkpt lat="50.860404158011079" lon="13.076869323849678">
        <ele>313</ele>
        <time>2026-08-29T13:12:49Z</time>
      </trkpt>
      <trkpt lat="50.860437182709575" lon="13.076821295544505">
        <ele>313</ele>
        <time>2026-08-29T13:12:50Z</time>
      </trkpt>
      <trkpt lat="50.860473392531276" lon="13.076770836487412">
        <ele>313</ele>
        <time>2026-08-29T13:12:51Z</time>
      </trkpt>
      <trkpt lat="50.86050976999104" lon="13.076730016618967">
        <ele>313</ele>
        <time>2026-08-29T13:12:52Z</time>
      </trkpt>
      <trkpt lat="50.860540447756648" lon="13.076695818454027">
        <ele>313</ele>
        <time>2026-08-29T13:12:53Z</time>
      </trkpt>
      <trkpt lat="50.860570538789034" lon="13.076641922816634">
        <ele>313</ele>
        <time>2026-08-29T13:12:54Z</time>
      </trkpt>
      <trkpt lat="50.860606245696545" lon="13.076590290293097">
        <ele>313</ele>
        <time>2026-08-29T13:12:55Z</time>
      </trkpt>
      <trkpt lat="50.860628038644791" lon="13.07654544711113">
        <ele>313</ele>
        <time>2026-08-29T13:12:56Z</time>
      </trkpt>
      <trkpt lat="50.86065486073494" lon="13.076507309451699">
        <ele>313</ele>
        <time>2026-08-29T13:12:57Z</time>
      </trkpt>
      <trkpt lat="50.860678078606725" lon="13.076461963355541">
        <ele>314</ele>
        <time>2026-08-29T13:12:58Z</time>
      </trkpt>
      <trkpt lat="50.86069542914629" lon="13.076418126001954">
        <ele>314</ele>
        <time>2026-08-29T13:12:59Z</time>
      </trkpt>
      <trkpt lat="50.860711187124252" lon="13.076374204829335">
        <ele>314</ele>
        <time>2026-08-29T13:13:00Z</time>
      </trkpt>
      <trkpt lat="50.860721496865153" lon="13.076330618932843">
        <ele>314</ele>
        <time>2026-08-29T13:13:01Z</time>
      </trkpt>
      <trkpt lat="50.860729711130261" lon="13.076287535950541">
        <ele>314</ele>
        <time>2026-08-29T13:13:02Z</time>
      </trkpt>
      <trkpt lat="50.860735578462481" lon="13.076235316693783">
        <ele>314</ele>
        <time>2026-08-29T13:13:03Z</time>
      </trkpt>
      <trkpt lat="50.860741278156638" lon="13.076181169599295">
        <ele>314</ele>
        <time>2026-08-29T13:13:04Z</time>
      </trkpt>
      <trkpt lat="50.860754940658808" lon="13.076133644208312">
        <ele>314</ele>
        <time>2026-08-29T13:13:05Z</time>
      </trkpt>
      <trkpt lat="50.860770782455802" lon="13.076080419123173">
        <ele>315</ele>
        <time>2026-08-29T13:13:06Z</time>
      </trkpt>
      <trkpt lat="50.860797353088856" lon="13.076028618961573">
        <ele>315</ele>
        <time>2026-08-29T13:13:07Z</time>
      </trkpt>
      <trkpt lat="50.860820151865482" lon="13.075968436896801">
        <ele>315</ele>
        <time>2026-08-29T13:13:08Z</time>
      </trkpt>
      <trkpt lat="50.860858540982008" lon="13.07591755874455">
        <ele>314</ele>
        <time>2026-08-29T13:13:09Z</time>
      </trkpt>
      <trkpt lat="50.860896175727248" lon="13.07587162591517">
        <ele>314</ele>
        <time>2026-08-29T13:13:10Z</time>
      </trkpt>
      <trkpt lat="50.860930541530252" lon="13.075804822146893">
        <ele>314</ele>
        <time>2026-08-29T13:13:11Z</time>
      </trkpt>
      <trkpt lat="50.860960716381669" lon="13.075737012550235">
        <ele>314</ele>
        <time>2026-08-29T13:13:12Z</time>
      </trkpt>
      <trkpt lat="50.860981671139598" lon="13.075663251802325">
        <ele>314</ele>
        <time>2026-08-29T13:13:13Z</time>
      </trkpt>
      <trkpt lat="50.861002961173654" lon="13.075599716976285">
        <ele>314</ele>
        <time>2026-08-29T13:13:14Z</time>
      </trkpt>
      <trkpt lat="50.861020227894187" lon="13.075536768883467">
        <ele>313</ele>
        <time>2026-08-29T13:13:15Z</time>
      </trkpt>
      <trkpt lat="50.861025089398026" lon="13.07546854019165">
        <ele>313</ele>
        <time>2026-08-29T13:13:16Z</time>
      </trkpt>
      <trkpt lat="50.861040260642767" lon="13.075402239337564">
        <ele>313</ele>
        <time>2026-08-29T13:13:17Z</time>
      </trkpt>
      <trkpt lat="50.861048139631748" lon="13.075329903513193">
        <ele>313</ele>
        <time>2026-08-29T13:13:18Z</time>
      </trkpt>
      <trkpt lat="50.861055264249444" lon="13.075259327888489">
        <ele>313</ele>
        <time>2026-08-29T13:13:19Z</time>
      </trkpt>
      <trkpt lat="50.861059539020061" lon="13.075182214379311">
        <ele>314</ele>
        <time>2026-08-29T13:13:20Z</time>
      </trkpt>
      <trkpt lat="50.861062472686172" lon="13.075105771422386">
        <ele>314</ele>
        <time>2026-08-29T13:13:21Z</time>
      </trkpt>
      <trkpt lat="50.861065238714218" lon="13.07503410615027">
        <ele>314</ele>
        <time>2026-08-29T13:13:22Z</time>
      </trkpt>
      <trkpt lat="50.861070267856121" lon="13.074963865801692">
        <ele>313</ele>
        <time>2026-08-29T13:13:23Z</time>
      </trkpt>
      <trkpt lat="50.861075296998024" lon="13.074883902445436">
        <ele>314</ele>
        <time>2026-08-29T13:13:24Z</time>
      </trkpt>
      <trkpt lat="50.861075883731246" lon="13.074820870533586">
        <ele>314</ele>
        <time>2026-08-29T13:13:25Z</time>
      </trkpt>
      <trkpt lat="50.861073369160295" lon="13.074750462546945">
        <ele>314</ele>
        <time>2026-08-29T13:13:26Z</time>
      </trkpt>
      <trkpt lat="50.861074374988675" lon="13.074684413149953">
        <ele>314</ele>
        <time>2026-08-29T13:13:27Z</time>
      </trkpt>
      <trkpt lat="50.861073704436421" lon="13.074615430086851">
        <ele>314</ele>
        <time>2026-08-29T13:13:28Z</time>
      </trkpt>
      <trkpt lat="50.86107118986547" lon="13.074541166424751">
        <ele>314</ele>
        <time>2026-08-29T13:13:29Z</time>
      </trkpt>
      <trkpt lat="50.861063562333584" lon="13.074475368484855">
        <ele>313</ele>
        <time>2026-08-29T13:13:30Z</time>
      </trkpt>
      <trkpt lat="50.861058197915554" lon="13.074405966326594">
        <ele>313</ele>
        <time>2026-08-29T13:13:31Z</time>
      </trkpt>
      <trkpt lat="50.861045205965638" lon="13.074336228892207">
        <ele>313</ele>
        <time>2026-08-29T13:13:32Z</time>
      </trkpt>
      <trkpt lat="50.86103405803442" lon="13.07426355779171">
        <ele>313</ele>
        <time>2026-08-29T13:13:33Z</time>
      </trkpt>
      <trkpt lat="50.861024083569646" lon="13.074198346585035">
        <ele>313</ele>
        <time>2026-08-29T13:13:34Z</time>
      </trkpt>
      <trkpt lat="50.861015617847443" lon="13.074136655777693">
        <ele>313</ele>
        <time>2026-08-29T13:13:35Z</time>
      </trkpt>
      <trkpt lat="50.861006649211049" lon="13.074075216427445">
        <ele>313</ele>
        <time>2026-08-29T13:13:36Z</time>
      </trkpt>
      <trkpt lat="50.861004553735256" lon="13.074012352153659">
        <ele>313</ele>
        <time>2026-08-29T13:13:37Z</time>
      </trkpt>
      <trkpt lat="50.860998099669814" lon="13.073952170088887">
        <ele>313</ele>
        <time>2026-08-29T13:13:38Z</time>
      </trkpt>
      <trkpt lat="50.860995333641768" lon="13.073886288329959">
        <ele>313</ele>
        <time>2026-08-29T13:13:39Z</time>
      </trkpt>
      <trkpt lat="50.860990388318896" lon="13.073815880343318">
        <ele>313</ele>
        <time>2026-08-29T13:13:40Z</time>
      </trkpt>
      <trkpt lat="50.860995668917894" lon="13.073754357174039">
        <ele>312</ele>
        <time>2026-08-29T13:13:41Z</time>
      </trkpt>
      <trkpt lat="50.860992567613721" lon="13.073697779327631">
        <ele>312</ele>
        <time>2026-08-29T13:13:42Z</time>
      </trkpt>
      <trkpt lat="50.860989047214389" lon="13.073624353855848">
        <ele>312</ele>
        <time>2026-08-29T13:13:43Z</time>
      </trkpt>
      <trkpt lat="50.860983934253454" lon="13.073542462661862">
        <ele>312</ele>
        <time>2026-08-29T13:13:44Z</time>
      </trkpt>
      <trkpt lat="50.860967170447111" lon="13.073470629751682">
        <ele>313</ele>
        <time>2026-08-29T13:13:45Z</time>
      </trkpt>
      <trkpt lat="50.860961051657796" lon="13.073404999449849">
        <ele>312</ele>
        <time>2026-08-29T13:13:46Z</time>
      </trkpt>
      <trkpt lat="50.860957950353622" lon="13.073340794071555">
        <ele>313</ele>
        <time>2026-08-29T13:13:47Z</time>
      </trkpt>
      <trkpt lat="50.860936660319567" lon="13.073275415226817">
        <ele>312</ele>
        <time>2026-08-29T13:13:48Z</time>
      </trkpt>
      <trkpt lat="50.860928278416395" lon="13.073208443820477">
        <ele>313</ele>
        <time>2026-08-29T13:13:49Z</time>
      </trkpt>
      <trkpt lat="50.86091143079102" lon="13.073156224563718">
        <ele>312</ele>
        <time>2026-08-29T13:13:50Z</time>
      </trkpt>
      <trkpt lat="50.860891817137599" lon="13.073100484907627">
        <ele>312</ele>
        <time>2026-08-29T13:13:51Z</time>
      </trkpt>
      <trkpt lat="50.86088209412992" lon="13.07303904555738">
        <ele>312</ele>
        <time>2026-08-29T13:13:52Z</time>
      </trkpt>
      <trkpt lat="50.860876981168985" lon="13.072982970625162">
        <ele>312</ele>
        <time>2026-08-29T13:13:53Z</time>
      </trkpt>
      <trkpt lat="50.860868850722909" lon="13.07293402031064">
        <ele>312</ele>
        <time>2026-08-29T13:13:54Z</time>
      </trkpt>
      <trkpt lat="50.860865665599704" lon="13.072888506576419">
        <ele>312</ele>
        <time>2026-08-29T13:13:55Z</time>
      </trkpt>
      <trkpt lat="50.860862480476499" lon="13.072836454957724">
        <ele>311</ele>
        <time>2026-08-29T13:13:56Z</time>
      </trkpt>
      <trkpt lat="50.860866671428084" lon="13.072765879333019">
        <ele>312</ele>
        <time>2026-08-29T13:13:57Z</time>
      </trkpt>
      <trkpt lat="50.860866671428084" lon="13.072699159383774">
        <ele>312</ele>
        <time>2026-08-29T13:13:58Z</time>
      </trkpt>
      <trkpt lat="50.86086742579937" lon="13.072631433606148">
        <ele>312</ele>
        <time>2026-08-29T13:13:59Z</time>
      </trkpt>
      <trkpt lat="50.860872957855463" lon="13.072564043104649">
        <ele>312</ele>
        <time>2026-08-29T13:14:00Z</time>
      </trkpt>
      <trkpt lat="50.860876059159636" lon="13.072493048384786">
        <ele>311</ele>
        <time>2026-08-29T13:14:01Z</time>
      </trkpt>
      <trkpt lat="50.860871532931924" lon="13.072416102513671">
        <ele>312</ele>
        <time>2026-08-29T13:14:02Z</time>
      </trkpt>
      <trkpt lat="50.860876142978668" lon="13.072343682870269">
        <ele>312</ele>
        <time>2026-08-29T13:14:03Z</time>
      </trkpt>
      <trkpt lat="50.860879831016064" lon="13.072271263226867">
        <ele>312</ele>
        <time>2026-08-29T13:14:04Z</time>
      </trkpt>
      <trkpt lat="50.860885949805379" lon="13.072202280163765">
        <ele>312</ele>
        <time>2026-08-29T13:14:05Z</time>
      </trkpt>
      <trkpt lat="50.860889554023743" lon="13.072135224938393">
        <ele>313</ele>
        <time>2026-08-29T13:14:06Z</time>
      </trkpt>
      <trkpt lat="50.860883770510554" lon="13.072065906599164">
        <ele>313</ele>
        <time>2026-08-29T13:14:07Z</time>
      </trkpt>
      <trkpt lat="50.860883938148618" lon="13.071996001526713">
        <ele>312</ele>
        <time>2026-08-29T13:14:08Z</time>
      </trkpt>
      <trkpt lat="50.860891733318567" lon="13.071921486407518">
        <ele>312</ele>
        <time>2026-08-29T13:14:09Z</time>
      </trkpt>
      <trkpt lat="50.860890308395028" lon="13.071856694296002">
        <ele>312</ele>
        <time>2026-08-29T13:14:10Z</time>
      </trkpt>
      <trkpt lat="50.860888129100204" lon="13.071785867214203">
        <ele>312</ele>
        <time>2026-08-29T13:14:11Z</time>
      </trkpt>
      <trkpt lat="50.860883519053459" lon="13.071721745654941">
        <ele>312</ele>
        <time>2026-08-29T13:14:12Z</time>
      </trkpt>
      <trkpt lat="50.860880417749286" lon="13.071653852239251">
        <ele>312</ele>
        <time>2026-08-29T13:14:13Z</time>
      </trkpt>
      <trkpt lat="50.86087429895997" lon="13.071587802842259">
        <ele>312</ele>
        <time>2026-08-29T13:14:14Z</time>
      </trkpt>
      <trkpt lat="50.86087329313159" lon="13.071517897769809">
        <ele>312</ele>
        <time>2026-08-29T13:14:15Z</time>
      </trkpt>
      <trkpt lat="50.860874131321907" lon="13.071447908878326">
        <ele>312</ele>
        <time>2026-08-29T13:14:16Z</time>
      </trkpt>
      <trkpt lat="50.860871281474829" lon="13.071377668529749">
        <ele>311</ele>
        <time>2026-08-29T13:14:17Z</time>
      </trkpt>
      <trkpt lat="50.86086985655129" lon="13.071312876418233">
        <ele>312</ele>
        <time>2026-08-29T13:14:18Z</time>
      </trkpt>
      <trkpt lat="50.860865749418736" lon="13.071249509230256">
        <ele>312</ele>
        <time>2026-08-29T13:14:19Z</time>
      </trkpt>
      <trkpt lat="50.860860720276833" lon="13.071183124557137">
        <ele>312</ele>
        <time>2026-08-29T13:14:20Z</time>
      </trkpt>
      <trkpt lat="50.860863486304879" lon="13.071119757369161">
        <ele>312</ele>
        <time>2026-08-29T13:14:21Z</time>
      </trkpt>
      <trkpt lat="50.860862229019403" lon="13.071044990792871">
        <ele>312</ele>
        <time>2026-08-29T13:14:22Z</time>
      </trkpt>
      <trkpt lat="50.860864575952291" lon="13.070971565321088">
        <ele>311</ele>
        <time>2026-08-29T13:14:23Z</time>
      </trkpt>
      <trkpt lat="50.860863234847784" lon="13.07090861722827">
        <ele>311</ele>
        <time>2026-08-29T13:14:24Z</time>
      </trkpt>
      <trkpt lat="50.860861642286181" lon="13.070841059088707">
        <ele>311</ele>
        <time>2026-08-29T13:14:25Z</time>
      </trkpt>
      <trkpt lat="50.860860049724579" lon="13.07076838798821">
        <ele>312</ele>
        <time>2026-08-29T13:14:26Z</time>
      </trkpt>
      <trkpt lat="50.86085326038301" lon="13.070697393268347">
        <ele>312</ele>
        <time>2026-08-29T13:14:27Z</time>
      </trkpt>
      <trkpt lat="50.860849991440773" lon="13.070633774623275">
        <ele>312</ele>
        <time>2026-08-29T13:14:28Z</time>
      </trkpt>
      <trkpt lat="50.860847728326917" lon="13.070571748539805">
        <ele>312</ele>
        <time>2026-08-29T13:14:29Z</time>
      </trkpt>
      <trkpt lat="50.860848566517234" lon="13.070503016933799">
        <ele>312</ele>
        <time>2026-08-29T13:14:30Z</time>
      </trkpt>
      <trkpt lat="50.860845381394029" lon="13.070435542613268">
        <ele>312</ele>
        <time>2026-08-29T13:14:31Z</time>
      </trkpt>
      <trkpt lat="50.860845297574997" lon="13.070368068292737">
        <ele>313</ele>
        <time>2026-08-29T13:14:32Z</time>
      </trkpt>
      <trkpt lat="50.860844040289521" lon="13.070305287837982">
        <ele>313</ele>
        <time>2026-08-29T13:14:33Z</time>
      </trkpt>
      <trkpt lat="50.860839849337935" lon="13.070238484069705">
        <ele>312</ele>
        <time>2026-08-29T13:14:34Z</time>
      </trkpt>
      <trkpt lat="50.860832137987018" lon="13.070175284519792">
        <ele>312</ele>
        <time>2026-08-29T13:14:35Z</time>
      </trkpt>
      <trkpt lat="50.860823169350624" lon="13.070105882361531">
        <ele>312</ele>
        <time>2026-08-29T13:14:36Z</time>
      </trkpt>
      <trkpt lat="50.860815457999706" lon="13.070039749145508">
        <ele>312</ele>
        <time>2026-08-29T13:14:37Z</time>
      </trkpt>
      <trkpt lat="50.860812272876501" lon="13.069974118843675">
        <ele>313</ele>
        <time>2026-08-29T13:14:38Z</time>
      </trkpt>
      <trkpt lat="50.860805064439774" lon="13.069901028648019">
        <ele>313</ele>
        <time>2026-08-29T13:14:39Z</time>
      </trkpt>
      <trkpt lat="50.860794503241777" lon="13.069840678945184">
        <ele>313</ele>
        <time>2026-08-29T13:14:40Z</time>
      </trkpt>
      <trkpt lat="50.860786205157638" lon="13.069786028936505">
        <ele>313</ele>
        <time>2026-08-29T13:14:41Z</time>
      </trkpt>
      <trkpt lat="50.860772961750627" lon="13.069719728082418">
        <ele>313</ele>
        <time>2026-08-29T13:14:42Z</time>
      </trkpt>
      <trkpt lat="50.860760137438774" lon="13.069661976769567">
        <ele>313</ele>
        <time>2026-08-29T13:14:43Z</time>
      </trkpt>
      <trkpt lat="50.860750330612063" lon="13.069605231285095">
        <ele>313</ele>
        <time>2026-08-29T13:14:44Z</time>
      </trkpt>
      <trkpt lat="50.860741278156638" lon="13.069547228515148">
        <ele>314</ele>
        <time>2026-08-29T13:14:45Z</time>
      </trkpt>
      <trkpt lat="50.860735578462481" lon="13.069480089470744">
        <ele>314</ele>
        <time>2026-08-29T13:14:46Z</time>
      </trkpt>
      <trkpt lat="50.860721496865153" lon="13.069416219368577">
        <ele>314</ele>
        <time>2026-08-29T13:14:47Z</time>
      </trkpt>
      <trkpt lat="50.860706912353635" lon="13.06936064735055">
        <ele>313</ele>
        <time>2026-08-29T13:14:48Z</time>
      </trkpt>
      <trkpt lat="50.86069350130856" lon="13.069300046190619">
        <ele>313</ele>
        <time>2026-08-29T13:14:49Z</time>
      </trkpt>
      <trkpt lat="50.860669109970331" lon="13.069241037592292">
        <ele>313</ele>
        <time>2026-08-29T13:14:50Z</time>
      </trkpt>
      <trkpt lat="50.860648071393371" lon="13.069181442260742">
        <ele>313</ele>
        <time>2026-08-29T13:14:51Z</time>
      </trkpt>
      <trkpt lat="50.860626446083188" lon="13.069133246317506">
        <ele>313</ele>
        <time>2026-08-29T13:14:52Z</time>
      </trkpt>
      <trkpt lat="50.860603898763657" lon="13.069070382043719">
        <ele>313</ele>
        <time>2026-08-29T13:14:53Z</time>
      </trkpt>
      <trkpt lat="50.860587218776345" lon="13.068999135866761">
        <ele>312</ele>
        <time>2026-08-29T13:14:54Z</time>
      </trkpt>
      <trkpt lat="50.860563414171338" lon="13.068944904953241">
        <ele>312</ele>
        <time>2026-08-29T13:14:55Z</time>
      </trkpt>
      <trkpt lat="50.860541453585029" lon="13.068883633241057">
        <ele>312</ele>
        <time>2026-08-29T13:14:56Z</time>
      </trkpt>
      <trkpt lat="50.86051999591291" lon="13.068826803937554">
        <ele>312</ele>
        <time>2026-08-29T13:14:57Z</time>
      </trkpt>
      <trkpt lat="50.860497029498219" lon="13.068767711520195">
        <ele>312</ele>
        <time>2026-08-29T13:14:58Z</time>
      </trkpt>
      <trkpt lat="50.86047456599772" lon="13.068713983520865">
        <ele>312</ele>
        <time>2026-08-29T13:14:59Z</time>
      </trkpt>
      <trkpt lat="50.860454114153981" lon="13.068665452301502">
        <ele>312</ele>
        <time>2026-08-29T13:15:00Z</time>
      </trkpt>
      <trkpt lat="50.86042913608253" lon="13.068605186417699">
        <ele>312</ele>
        <time>2026-08-29T13:15:01Z</time>
      </trkpt>
      <trkpt lat="50.860406840220094" lon="13.06854902766645">
        <ele>312</ele>
        <time>2026-08-29T13:15:02Z</time>
      </trkpt>
      <trkpt lat="50.860385550186038" lon="13.068492785096169">
        <ele>312</ele>
        <time>2026-08-29T13:15:03Z</time>
      </trkpt>
      <trkpt lat="50.860363002866507" lon="13.068435871973634">
        <ele>312</ele>
        <time>2026-08-29T13:15:04Z</time>
      </trkpt>
      <trkpt lat="50.860341629013419" lon="13.068382479250431">
        <ele>312</ele>
        <time>2026-08-29T13:15:05Z</time>
      </trkpt>
      <trkpt lat="50.860321931540966" lon="13.068328918889165">
        <ele>312</ele>
        <time>2026-08-29T13:15:06Z</time>
      </trkpt>
      <trkpt lat="50.860296869650483" lon="13.068269491195679">
        <ele>312</ele>
        <time>2026-08-29T13:15:07Z</time>
      </trkpt>
      <trkpt lat="50.860272478312254" lon="13.068210817873478">
        <ele>312</ele>
        <time>2026-08-29T13:15:08Z</time>
      </trkpt>
      <trkpt lat="50.860252529382706" lon="13.068156167864799">
        <ele>312</ele>
        <time>2026-08-29T13:15:09Z</time>
      </trkpt>
      <trkpt lat="50.86023123934865" lon="13.068102607503533">
        <ele>312</ele>
        <time>2026-08-29T13:15:10Z</time>
      </trkpt>
      <trkpt lat="50.86020533926785" lon="13.068055165931582">
        <ele>312</ele>
        <time>2026-08-29T13:15:11Z</time>
      </trkpt>
      <trkpt lat="50.860179271548986" lon="13.068004874512553">
        <ele>312</ele>
        <time>2026-08-29T13:15:12Z</time>
      </trkpt>
      <trkpt lat="50.860152114182711" lon="13.067951146513224">
        <ele>312</ele>
        <time>2026-08-29T13:15:13Z</time>
      </trkpt>
      <trkpt lat="50.860127052292228" lon="13.067914601415396">
        <ele>312</ele>
        <time>2026-08-29T13:15:14Z</time>
      </trkpt>
      <trkpt lat="50.860105091705918" lon="13.067872356623411">
        <ele>312</ele>
        <time>2026-08-29T13:15:15Z</time>
      </trkpt>
      <trkpt lat="50.860078604891896" lon="13.067831117659807">
        <ele>311</ele>
        <time>2026-08-29T13:15:16Z</time>
      </trkpt>
      <trkpt lat="50.860052369534969" lon="13.067799182608724">
        <ele>312</ele>
        <time>2026-08-29T13:15:17Z</time>
      </trkpt>
      <trkpt lat="50.860024625435472" lon="13.067767499014735">
        <ele>311</ele>
        <time>2026-08-29T13:15:18Z</time>
      </trkpt>
      <trkpt lat="50.859998976811767" lon="13.067731875926256">
        <ele>311</ele>
        <time>2026-08-29T13:15:19Z</time>
      </trkpt>
      <trkpt lat="50.859971400350332" lon="13.067694995552301">
        <ele>312</ele>
        <time>2026-08-29T13:15:20Z</time>
      </trkpt>
      <trkpt lat="50.859948098659515" lon="13.067651325836778">
        <ele>312</ele>
        <time>2026-08-29T13:15:21Z</time>
      </trkpt>
      <trkpt lat="50.859922533854842" lon="13.067610086873174">
        <ele>312</ele>
        <time>2026-08-29T13:15:22Z</time>
      </trkpt>
      <trkpt lat="50.859895879402757" lon="13.06756591424346">
        <ele>311</ele>
        <time>2026-08-29T13:15:23Z</time>
      </trkpt>
      <trkpt lat="50.859867967665195" lon="13.067529955878854">
        <ele>312</ele>
        <time>2026-08-29T13:15:24Z</time>
      </trkpt>
      <trkpt lat="50.859835278242826" lon="13.067483771592379">
        <ele>312</ele>
        <time>2026-08-29T13:15:25Z</time>
      </trkpt>
      <trkpt lat="50.859802337363362" lon="13.067449573427439">
        <ele>312</ele>
        <time>2026-08-29T13:15:26Z</time>
      </trkpt>
      <trkpt lat="50.859772162511945" lon="13.067424679175019">
        <ele>312</ele>
        <time>2026-08-29T13:15:27Z</time>
      </trkpt>
      <trkpt lat="50.859743664041162" lon="13.067388720810413">
        <ele>312</ele>
        <time>2026-08-29T13:15:28Z</time>
      </trkpt>
      <trkpt lat="50.859718434512615" lon="13.067349912598729">
        <ele>312</ele>
        <time>2026-08-29T13:15:29Z</time>
      </trkpt>
      <trkpt lat="50.859698904678226" lon="13.067300459370017">
        <ele>312</ele>
        <time>2026-08-29T13:15:30Z</time>
      </trkpt>
      <trkpt lat="50.859670154750347" lon="13.067268272861838">
        <ele>312</ele>
        <time>2026-08-29T13:15:31Z</time>
      </trkpt>
      <trkpt lat="50.859641907736659" lon="13.06723466143012">
        <ele>312</ele>
        <time>2026-08-29T13:15:32Z</time>
      </trkpt>
      <trkpt lat="50.859615337103605" lon="13.067207001149654">
        <ele>312</ele>
        <time>2026-08-29T13:15:33Z</time>
      </trkpt>
      <trkpt lat="50.859586335718632" lon="13.067172048613429">
        <ele>312</ele>
        <time>2026-08-29T13:15:34Z</time>
      </trkpt>
      <trkpt lat="50.859556831419468" lon="13.067137766629457">
        <ele>312</ele>
        <time>2026-08-29T13:15:35Z</time>
      </trkpt>
      <trkpt lat="50.859526572749019" lon="13.067095689475536">
        <ele>312</ele>
        <time>2026-08-29T13:15:36Z</time>
      </trkpt>
      <trkpt lat="50.859501929953694" lon="13.067051181569695">
        <ele>312</ele>
        <time>2026-08-29T13:15:37Z</time>
      </trkpt>
      <trkpt lat="50.859478460624814" lon="13.067015139386058">
        <ele>312</ele>
        <time>2026-08-29T13:15:38Z</time>
      </trkpt>
      <trkpt lat="50.859451638534665" lon="13.06697222404182">
        <ele>312</ele>
        <time>2026-08-29T13:15:39Z</time>
      </trkpt>
      <trkpt lat="50.859424816444516" lon="13.066922100260854">
        <ele>312</ele>
        <time>2026-08-29T13:15:40Z</time>
      </trkpt>
      <trkpt lat="50.859404448419809" lon="13.066874239593744">
        <ele>312</ele>
        <time>2026-08-29T13:15:41Z</time>
      </trkpt>
      <trkpt lat="50.859379805624485" lon="13.066832162439823">
        <ele>313</ele>
        <time>2026-08-29T13:15:42Z</time>
      </trkpt>
      <trkpt lat="50.859363041818142" lon="13.066781619563699">
        <ele>313</ele>
        <time>2026-08-29T13:15:43Z</time>
      </trkpt>
      <trkpt lat="50.859348122030497" lon="13.066735100001097">
        <ele>313</ele>
        <time>2026-08-29T13:15:44Z</time>
      </trkpt>
      <trkpt lat="50.859330771490932" lon="13.066683886572719">
        <ele>313</ele>
        <time>2026-08-29T13:15:45Z</time>
      </trkpt>
      <trkpt lat="50.859315264970064" lon="13.066640552133322">
        <ele>313</ele>
        <time>2026-08-29T13:15:46Z</time>
      </trkpt>
      <trkpt lat="50.85930285975337" lon="13.0665950383991">
        <ele>313</ele>
        <time>2026-08-29T13:15:47Z</time>
      </trkpt>
      <trkpt lat="50.859286598861217" lon="13.066555894911289">
        <ele>314</ele>
        <time>2026-08-29T13:15:48Z</time>
      </trkpt>
      <trkpt lat="50.859270002692938" lon="13.066515326499939">
        <ele>314</ele>
        <time>2026-08-29T13:15:49Z</time>
      </trkpt>
      <trkpt lat="50.859252400696278" lon="13.066469393670559">
        <ele>314</ele>
        <time>2026-08-29T13:15:50Z</time>
      </trkpt>
      <trkpt lat="50.859240582212806" lon="13.066430669277906">
        <ele>314</ele>
        <time>2026-08-29T13:15:51Z</time>
      </trkpt>
      <trkpt lat="50.859233038499951" lon="13.066392615437508">
        <ele>313</ele>
        <time>2026-08-29T13:15:52Z</time>
      </trkpt>
      <trkpt lat="50.85923102684319" lon="13.066364284604788">
        <ele>313</ele>
        <time>2026-08-29T13:15:53Z</time>
      </trkpt>
      <trkpt lat="50.859233541414142" lon="13.066338216885924">
        <ele>313</ele>
        <time>2026-08-29T13:15:54Z</time>
      </trkpt>
      <trkpt lat="50.859234379604459" lon="13.066321117803454">
        <ele>313</ele>
        <time>2026-08-29T13:15:55Z</time>
      </trkpt>
      <trkpt lat="50.85923345759511" lon="13.066310975700617">
        <ele>313</ele>
        <time>2026-08-29T13:15:56Z</time>
      </trkpt>
      <trkpt lat="50.859236977994442" lon="13.066303683444858">
        <ele>313</ele>
        <time>2026-08-29T13:15:57Z</time>
      </trkpt>
      <trkpt lat="50.859232619404793" lon="13.06630284525454">
        <ele>313</ele>
        <time>2026-08-29T13:15:58Z</time>
      </trkpt>
      <trkpt lat="50.859235133975744" lon="13.066308042034507">
        <ele>313</ele>
        <time>2026-08-29T13:15:59Z</time>
      </trkpt>
      <trkpt lat="50.859232787042856" lon="13.066302509978414">
        <ele>313</ele>
        <time>2026-08-29T13:16:00Z</time>
      </trkpt>
      <trkpt lat="50.859233289957047" lon="13.066302677616477">
        <ele>313</ele>
        <time>2026-08-29T13:16:01Z</time>
      </trkpt>
      <trkpt lat="50.859236139804125" lon="13.06630720384419">
        <ele>314</ele>
        <time>2026-08-29T13:16:02Z</time>
      </trkpt>
      <trkpt lat="50.859238067641854" lon="13.06629991158843">
        <ele>314</ele>
        <time>2026-08-29T13:16:03Z</time>
      </trkpt>
      <trkpt lat="50.859243599697948" lon="13.066294882446527">
        <ele>315</ele>
        <time>2026-08-29T13:16:04Z</time>
      </trkpt>
      <trkpt lat="50.859243599697948" lon="13.06629354134202">
        <ele>315</ele>
        <time>2026-08-29T13:16:05Z</time>
      </trkpt>
      <trkpt lat="50.859243851155043" lon="13.06629303842783">
        <ele>315</ele>
        <time>2026-08-29T13:16:06Z</time>
      </trkpt>
      <trkpt lat="50.859244270250201" lon="13.066291864961386">
        <ele>315</ele>
        <time>2026-08-29T13:16:07Z</time>
      </trkpt>
      <trkpt lat="50.85924468934536" lon="13.066291026771069">
        <ele>315</ele>
        <time>2026-08-29T13:16:08Z</time>
      </trkpt>
      <trkpt lat="50.859245108440518" lon="13.06629060767591">
        <ele>315</ele>
        <time>2026-08-29T13:16:09Z</time>
      </trkpt>
      <trkpt lat="50.859245611354709" lon="13.066290272399783">
        <ele>314</ele>
        <time>2026-08-29T13:16:10Z</time>
      </trkpt>
      <trkpt lat="50.859245862811804" lon="13.066289937123656">
        <ele>314</ele>
        <time>2026-08-29T13:16:11Z</time>
      </trkpt>
      <trkpt lat="50.859246114268899" lon="13.066289434209466">
        <ele>314</ele>
        <time>2026-08-29T13:16:12Z</time>
      </trkpt>
      <trkpt lat="50.859246449545026" lon="13.066289015114307">
        <ele>314</ele>
        <time>2026-08-29T13:16:13Z</time>
      </trkpt>
      <trkpt lat="50.859246868640184" lon="13.066289098933339">
        <ele>314</ele>
        <time>2026-08-29T13:16:14Z</time>
      </trkpt>
      <trkpt lat="50.859247371554375" lon="13.066289266571403">
        <ele>314</ele>
        <time>2026-08-29T13:16:15Z</time>
      </trkpt>
      <trkpt lat="50.859247455373406" lon="13.066289015114307">
        <ele>314</ele>
        <time>2026-08-29T13:16:16Z</time>
      </trkpt>
      <trkpt lat="50.859247958287597" lon="13.066289266571403">
        <ele>314</ele>
        <time>2026-08-29T13:16:17Z</time>
      </trkpt>
      <trkpt lat="50.859248545020819" lon="13.066289601847529">
        <ele>314</ele>
        <time>2026-08-29T13:16:18Z</time>
      </trkpt>
      <trkpt lat="50.85924862883985" lon="13.066289518028498">
        <ele>314</ele>
        <time>2026-08-29T13:16:19Z</time>
      </trkpt>
      <trkpt lat="50.859248712658882" lon="13.066289937123656">
        <ele>314</ele>
        <time>2026-08-29T13:16:20Z</time>
      </trkpt>
      <trkpt lat="50.8592529874295" lon="13.066287087276578">
        <ele>314</ele>
        <time>2026-08-29T13:16:21Z</time>
      </trkpt>
      <trkpt lat="50.859254412353039" lon="13.066276609897614">
        <ele>314</ele>
        <time>2026-08-29T13:16:22Z</time>
      </trkpt>
      <trkpt lat="50.859262207522988" lon="13.066259007900953">
        <ele>314</ele>
        <time>2026-08-29T13:16:23Z</time>
      </trkpt>
      <trkpt lat="50.859263716265559" lon="13.066255487501621">
        <ele>314</ele>
        <time>2026-08-29T13:16:24Z</time>
      </trkpt>
      <trkpt lat="50.85926229134202" lon="13.066261103376746">
        <ele>314</ele>
        <time>2026-08-29T13:16:25Z</time>
      </trkpt>
      <trkpt lat="50.859263632446527" lon="13.066263031214476">
        <ele>314</ele>
        <time>2026-08-29T13:16:26Z</time>
      </trkpt>
      <trkpt lat="50.859267320483923" lon="13.06625590659678">
        <ele>314</ele>
        <time>2026-08-29T13:16:27Z</time>
      </trkpt>
      <trkpt lat="50.859274780377746" lon="13.066247859969735">
        <ele>314</ele>
        <time>2026-08-29T13:16:28Z</time>
      </trkpt>
      <trkpt lat="50.859278468415141" lon="13.06625104509294">
        <ele>314</ele>
        <time>2026-08-29T13:16:29Z</time>
      </trkpt>
      <trkpt lat="50.859286431223154" lon="13.066246435046196">
        <ele>314</ele>
        <time>2026-08-29T13:16:30Z</time>
      </trkpt>
      <trkpt lat="50.8592857606709" lon="13.066244842484593">
        <ele>314</ele>
        <time>2026-08-29T13:16:31Z</time>
      </trkpt>
      <trkpt lat="50.859284419566393" lon="13.066248279064894">
        <ele>314</ele>
        <time>2026-08-29T13:16:32Z</time>
      </trkpt>
      <trkpt lat="50.859282575547695" lon="13.066247692331672">
        <ele>315</ele>
        <time>2026-08-29T13:16:33Z</time>
      </trkpt>
      <trkpt lat="50.859284922480583" lon="13.066255487501621">
        <ele>314</ele>
        <time>2026-08-29T13:16:34Z</time>
      </trkpt>
      <trkpt lat="50.859285090118647" lon="13.066255487501621">
        <ele>314</ele>
        <time>2026-08-29T13:16:35Z</time>
      </trkpt>
      <trkpt lat="50.859284419566393" lon="13.066256744787097">
        <ele>314</ele>
        <time>2026-08-29T13:16:36Z</time>
      </trkpt>
      <trkpt lat="50.859284587204456" lon="13.066250877454877">
        <ele>314</ele>
        <time>2026-08-29T13:16:37Z</time>
      </trkpt>
      <trkpt lat="50.859288945794106" lon="13.066242579370737">
        <ele>314</ele>
        <time>2026-08-29T13:16:38Z</time>
      </trkpt>
      <trkpt lat="50.859297243878245" lon="13.066229168325663">
        <ele>314</ele>
        <time>2026-08-29T13:16:39Z</time>
      </trkpt>
      <trkpt lat="50.859305961057544" lon="13.066218607127666">
        <ele>314</ele>
        <time>2026-08-29T13:16:40Z</time>
      </trkpt>
      <trkpt lat="50.859311828389764" lon="13.066207794472575">
        <ele>314</ele>
        <time>2026-08-29T13:16:41Z</time>
      </trkpt>
      <trkpt lat="50.859316438436508" lon="13.066206621006131">
        <ele>314</ele>
        <time>2026-08-29T13:16:42Z</time>
      </trkpt>
      <trkpt lat="50.859315851703286" lon="13.066204022616148">
        <ele>314</ele>
        <time>2026-08-29T13:16:43Z</time>
      </trkpt>
      <trkpt lat="50.859315684065223" lon="13.066204022616148">
        <ele>314</ele>
        <time>2026-08-29T13:16:44Z</time>
      </trkpt>
      <trkpt lat="50.859313840046525" lon="13.066203016787767">
        <ele>313</ele>
        <time>2026-08-29T13:16:45Z</time>
      </trkpt>
      <trkpt lat="50.859313420951366" lon="13.066202597692609">
        <ele>313</ele>
        <time>2026-08-29T13:16:46Z</time>
      </trkpt>
      <trkpt lat="50.859313253313303" lon="13.066202430054545">
        <ele>313</ele>
        <time>2026-08-29T13:16:47Z</time>
      </trkpt>
      <trkpt lat="50.859313253313303" lon="13.066202010959387">
        <ele>313</ele>
        <time>2026-08-29T13:16:48Z</time>
      </trkpt>
      <trkpt lat="50.859313001856208" lon="13.06620167568326">
        <ele>313</ele>
        <time>2026-08-29T13:16:49Z</time>
      </trkpt>
      <trkpt lat="50.859313001856208" lon="13.066201340407133">
        <ele>313</ele>
        <time>2026-08-29T13:16:50Z</time>
      </trkpt>
      <trkpt lat="50.859314929693937" lon="13.066203771159053">
        <ele>312</ele>
        <time>2026-08-29T13:16:51Z</time>
      </trkpt>
      <trkpt lat="50.859314845874906" lon="13.066200166940689">
        <ele>312</ele>
        <time>2026-08-29T13:16:52Z</time>
      </trkpt>
      <trkpt lat="50.859313672408462" lon="13.066185750067234">
        <ele>312</ele>
        <time>2026-08-29T13:16:53Z</time>
      </trkpt>
      <trkpt lat="50.859304452314973" lon="13.0661581736058">
        <ele>311</ele>
        <time>2026-08-29T13:16:54Z</time>
      </trkpt>
      <trkpt lat="50.859286682680249" lon="13.066125065088272">
        <ele>311</ele>
        <time>2026-08-29T13:16:55Z</time>
      </trkpt>
      <trkpt lat="50.859273355454206" lon="13.066083239391446">
        <ele>312</ele>
        <time>2026-08-29T13:16:56Z</time>
      </trkpt>
      <trkpt lat="50.859278300777078" lon="13.066040072590113">
        <ele>312</ele>
        <time>2026-08-29T13:16:57Z</time>
      </trkpt>
      <trkpt lat="50.85929749533534" lon="13.066012663766742">
        <ele>312</ele>
        <time>2026-08-29T13:16:58Z</time>
      </trkpt>
      <trkpt lat="50.859328005462885" lon="13.06598667986691">
        <ele>312</ele>
        <time>2026-08-29T13:16:59Z</time>
      </trkpt>
      <trkpt lat="50.85935901850462" lon="13.065968239679933">
        <ele>312</ele>
        <time>2026-08-29T13:17:00Z</time>
      </trkpt>
      <trkpt lat="50.859383828938007" lon="13.065947452560067">
        <ele>311</ele>
        <time>2026-08-29T13:17:01Z</time>
      </trkpt>
      <trkpt lat="50.859395060688257" lon="13.065917948260903">
        <ele>311</ele>
        <time>2026-08-29T13:17:02Z</time>
      </trkpt>
      <trkpt lat="50.859382152557373" lon="13.065902190282941">
        <ele>311</ele>
        <time>2026-08-29T13:17:03Z</time>
      </trkpt>
      <trkpt lat="50.859350049868226" lon="13.065873859450221">
        <ele>311</ele>
        <time>2026-08-29T13:17:04Z</time>
      </trkpt>
      <trkpt lat="50.859307134523988" lon="13.065842175856233">
        <ele>311</ele>
        <time>2026-08-29T13:17:05Z</time>
      </trkpt>
      <trkpt lat="50.859264219179749" lon="13.065799847245216">
        <ele>312</ele>
        <time>2026-08-29T13:17:06Z</time>
      </trkpt>
      <trkpt lat="50.859227171167731" lon="13.06575458496809">
        <ele>312</ele>
        <time>2026-08-29T13:17:07Z</time>
      </trkpt>
      <trkpt lat="50.859181992709637" lon="13.065709909424186">
        <ele>313</ele>
        <time>2026-08-29T13:17:08Z</time>
      </trkpt>
      <trkpt lat="50.859142681583762" lon="13.065660372376442">
        <ele>313</ele>
        <time>2026-08-29T13:17:09Z</time>
      </trkpt>
      <trkpt lat="50.859105130657554" lon="13.06561628356576">
        <ele>313</ele>
        <time>2026-08-29T13:17:10Z</time>
      </trkpt>
      <trkpt lat="50.859070010483265" lon="13.06556741707027">
        <ele>314</ele>
        <time>2026-08-29T13:17:11Z</time>
      </trkpt>
      <trkpt lat="50.859031956642866" lon="13.065537745133042">
        <ele>314</ele>
        <time>2026-08-29T13:17:12Z</time>
      </trkpt>
      <trkpt lat="50.858994489535689" lon="13.065496673807502">
        <ele>313</ele>
        <time>2026-08-29T13:17:13Z</time>
      </trkpt>
      <trkpt lat="50.858944449573755" lon="13.065470019355416">
        <ele>312</ele>
        <time>2026-08-29T13:17:14Z</time>
      </trkpt>
      <trkpt lat="50.858894158154726" lon="13.065455937758088">
        <ele>312</ele>
        <time>2026-08-29T13:17:15Z</time>
      </trkpt>
      <trkpt lat="50.858848392963409" lon="13.06544822640717">
        <ele>312</ele>
        <time>2026-08-29T13:17:16Z</time>
      </trkpt>
      <trkpt lat="50.858802041038871" lon="13.065431378781796">
        <ele>312</ele>
        <time>2026-08-29T13:17:17Z</time>
      </trkpt>
      <trkpt lat="50.858762059360743" lon="13.065411178395152">
        <ele>312</ele>
        <time>2026-08-29T13:17:18Z</time>
      </trkpt>
      <trkpt lat="50.858713360503316" lon="13.065391480922699">
        <ele>312</ele>
        <time>2026-08-29T13:17:19Z</time>
      </trkpt>
      <trkpt lat="50.858677988871932" lon="13.065363820642233">
        <ele>312</ele>
        <time>2026-08-29T13:17:20Z</time>
      </trkpt>
      <trkpt lat="50.858643539249897" lon="13.06534806266427">
        <ele>313</ele>
        <time>2026-08-29T13:17:21Z</time>
      </trkpt>
      <trkpt lat="50.858619902282953" lon="13.065329371020198">
        <ele>314</ele>
        <time>2026-08-29T13:17:22Z</time>
      </trkpt>
      <trkpt lat="50.858605150133371" lon="13.065311936661601">
        <ele>314</ele>
        <time>2026-08-29T13:17:23Z</time>
      </trkpt>
      <trkpt lat="50.858595846220851" lon="13.065292574465275">
        <ele>314</ele>
        <time>2026-08-29T13:17:24Z</time>
      </trkpt>
      <trkpt lat="50.85859727114439" lon="13.065270781517029">
        <ele>314</ele>
        <time>2026-08-29T13:17:25Z</time>
      </trkpt>
      <trkpt lat="50.858600959181786" lon="13.065245971083641">
        <ele>314</ele>
        <time>2026-08-29T13:17:26Z</time>
      </trkpt>
      <trkpt lat="50.858607497066259" lon="13.065219568088651">
        <ele>314</ele>
        <time>2026-08-29T13:17:27Z</time>
      </trkpt>
      <trkpt lat="50.858618058264256" lon="13.065197691321373">
        <ele>314</ele>
        <time>2026-08-29T13:17:28Z</time>
      </trkpt>
      <trkpt lat="50.858625015243888" lon="13.065178664401174">
        <ele>314</ele>
        <time>2026-08-29T13:17:29Z</time>
      </trkpt>
      <trkpt lat="50.858624931424856" lon="13.065156368538737">
        <ele>314</ele>
        <time>2026-08-29T13:17:30Z</time>
      </trkpt>
      <trkpt lat="50.858626188710332" lon="13.06513893418014">
        <ele>314</ele>
        <time>2026-08-29T13:17:31Z</time>
      </trkpt>
      <trkpt lat="50.858630798757076" lon="13.065108843147755">
        <ele>314</ele>
        <time>2026-08-29T13:17:32Z</time>
      </trkpt>
      <trkpt lat="50.85864027030766" lon="13.065077411010861">
        <ele>313</ele>
        <time>2026-08-29T13:17:33Z</time>
      </trkpt>
      <trkpt lat="50.85865443572402" lon="13.065045308321714">
        <ele>313</ele>
        <time>2026-08-29T13:17:34Z</time>
      </trkpt>
      <trkpt lat="50.858664326369762" lon="13.065017480403185">
        <ele>313</ele>
        <time>2026-08-29T13:17:35Z</time>
      </trkpt>
      <trkpt lat="50.85867689922452" lon="13.064988814294338">
        <ele>313</ele>
        <time>2026-08-29T13:17:36Z</time>
      </trkpt>
      <trkpt lat="50.858688298612833" lon="13.064966099336743">
        <ele>313</ele>
        <time>2026-08-29T13:17:37Z</time>
      </trkpt>
      <trkpt lat="50.858701039105654" lon="13.064933912828565">
        <ele>313</ele>
        <time>2026-08-29T13:17:38Z</time>
      </trkpt>
      <trkpt lat="50.858715623617172" lon="13.0648940987885">
        <ele>313</ele>
        <time>2026-08-29T13:17:39Z</time>
      </trkpt>
      <trkpt lat="50.858726520091295" lon="13.064856212586164">
        <ele>313</ele>
        <time>2026-08-29T13:17:40Z</time>
      </trkpt>
      <trkpt lat="50.858734901994467" lon="13.064819164574146">
        <ele>312</ele>
        <time>2026-08-29T13:17:41Z</time>
      </trkpt>
      <trkpt lat="50.858739679679275" lon="13.064793180674314">
        <ele>312</ele>
        <time>2026-08-29T13:17:42Z</time>
      </trkpt>
      <trkpt lat="50.858750073239207" lon="13.064766442403197">
        <ele>312</ele>
        <time>2026-08-29T13:17:43Z</time>
      </trkpt>
      <trkpt lat="50.858759041875601" lon="13.064742721617222">
        <ele>312</ele>
        <time>2026-08-29T13:17:44Z</time>
      </trkpt>
      <trkpt lat="50.858759041875601" lon="13.06471724063158">
        <ele>312</ele>
        <time>2026-08-29T13:17:45Z</time>
      </trkpt>
      <trkpt lat="50.85875753313303" lon="13.06468840688467">
        <ele>312</ele>
        <time>2026-08-29T13:17:46Z</time>
      </trkpt>
      <trkpt lat="50.858756359666586" lon="13.064668960869312">
        <ele>312</ele>
        <time>2026-08-29T13:17:47Z</time>
      </trkpt>
      <trkpt lat="50.858754767104983" lon="13.06467373855412">
        <ele>312</ele>
        <time>2026-08-29T13:17:48Z</time>
      </trkpt>
      <trkpt lat="50.858756527304649" lon="13.064681366086006">
        <ele>312</ele>
        <time>2026-08-29T13:17:49Z</time>
      </trkpt>
      <trkpt lat="50.858756443485618" lon="13.064681449905038">
        <ele>312</ele>
        <time>2026-08-29T13:17:50Z</time>
      </trkpt>
      <trkpt lat="50.858756108209491" lon="13.064681282266974">
        <ele>312</ele>
        <time>2026-08-29T13:17:51Z</time>
      </trkpt>
      <trkpt lat="50.858756024390459" lon="13.06468153372407">
        <ele>312</ele>
        <time>2026-08-29T13:17:52Z</time>
      </trkpt>
      <trkpt lat="50.858755856752396" lon="13.064681449905038">
        <ele>312</ele>
        <time>2026-08-29T13:17:53Z</time>
      </trkpt>
      <trkpt lat="50.858755772933364" lon="13.064681785181165">
        <ele>312</ele>
        <time>2026-08-29T13:17:54Z</time>
      </trkpt>
      <trkpt lat="50.858744708821177" lon="13.064675917848945">
        <ele>313</ele>
        <time>2026-08-29T13:17:55Z</time>
      </trkpt>
      <trkpt lat="50.858747223392129" lon="13.064679773524404">
        <ele>312</ele>
        <time>2026-08-29T13:17:56Z</time>
      </trkpt>
      <trkpt lat="50.858747307211161" lon="13.064679186791182">
        <ele>312</ele>
        <time>2026-08-29T13:17:57Z</time>
      </trkpt>
      <trkpt lat="50.858747558668256" lon="13.064678767696023">
        <ele>312</ele>
        <time>2026-08-29T13:17:58Z</time>
      </trkpt>
      <trkpt lat="50.858747810125351" lon="13.064678348600864">
        <ele>312</ele>
        <time>2026-08-29T13:17:59Z</time>
      </trkpt>
      <trkpt lat="50.85874822922051" lon="13.064678683876991">
        <ele>312</ele>
        <time>2026-08-29T13:18:00Z</time>
      </trkpt>
      <trkpt lat="50.85874822922051" lon="13.06467860005796">
        <ele>312</ele>
        <time>2026-08-29T13:18:01Z</time>
      </trkpt>
      <trkpt lat="50.858744289726019" lon="13.064669463783503">
        <ele>312</ele>
        <time>2026-08-29T13:18:02Z</time>
      </trkpt>
      <trkpt lat="50.858744457364082" lon="13.064669631421566">
        <ele>312</ele>
        <time>2026-08-29T13:18:03Z</time>
      </trkpt>
      <trkpt lat="50.858744541183114" lon="13.064669463783503">
        <ele>312</ele>
        <time>2026-08-29T13:18:04Z</time>
      </trkpt>
      <trkpt lat="50.858744541183114" lon="13.064669379964471">
        <ele>312</ele>
        <time>2026-08-29T13:18:05Z</time>
      </trkpt>
      <trkpt lat="50.858744541183114" lon="13.064669379964471">
        <ele>312</ele>
        <time>2026-08-29T13:18:06Z</time>
      </trkpt>
      <trkpt lat="50.858744541183114" lon="13.064669296145439">
        <ele>312</ele>
        <time>2026-08-29T13:18:07Z</time>
      </trkpt>
      <trkpt lat="50.858744708821177" lon="13.064669463783503">
        <ele>312</ele>
        <time>2026-08-29T13:18:08Z</time>
      </trkpt>
      <trkpt lat="50.858744960278273" lon="13.064669631421566">
        <ele>312</ele>
        <time>2026-08-29T13:18:09Z</time>
      </trkpt>
      <trkpt lat="50.858744960278273" lon="13.064669463783503">
        <ele>312</ele>
        <time>2026-08-29T13:18:10Z</time>
      </trkpt>
      <trkpt lat="50.858746888116002" lon="13.064674409106374">
        <ele>312</ele>
        <time>2026-08-29T13:18:11Z</time>
      </trkpt>
      <trkpt lat="50.858746971935034" lon="13.064672648906708">
        <ele>312</ele>
        <time>2026-08-29T13:18:12Z</time>
      </trkpt>
      <trkpt lat="50.858749151229858" lon="13.064669882878661">
        <ele>312</ele>
        <time>2026-08-29T13:18:13Z</time>
      </trkpt>
      <trkpt lat="50.858746217563748" lon="13.064672816544771">
        <ele>312</ele>
        <time>2026-08-29T13:18:14Z</time>
      </trkpt>
      <trkpt lat="50.858746217563748" lon="13.064672229811549">
        <ele>312</ele>
        <time>2026-08-29T13:18:15Z</time>
      </trkpt>
      <trkpt lat="50.858746049925685" lon="13.064671894535422">
        <ele>312</ele>
        <time>2026-08-29T13:18:16Z</time>
      </trkpt>
      <trkpt lat="50.858746049925685" lon="13.0646713078022">
        <ele>312</ele>
        <time>2026-08-29T13:18:17Z</time>
      </trkpt>
      <trkpt lat="50.858752923086286" lon="13.064668625593185">
        <ele>312</ele>
        <time>2026-08-29T13:18:18Z</time>
      </trkpt>
      <trkpt lat="50.858751498162746" lon="13.064665356650949">
        <ele>312</ele>
        <time>2026-08-29T13:18:19Z</time>
      </trkpt>
      <trkpt lat="50.858756108209491" lon="13.064672984182835">
        <ele>311</ele>
        <time>2026-08-29T13:18:20Z</time>
      </trkpt>
      <trkpt lat="50.858758538961411" lon="13.064668457955122">
        <ele>312</ele>
        <time>2026-08-29T13:18:21Z</time>
      </trkpt>
      <trkpt lat="50.858759628608823" lon="13.064667703583837">
        <ele>311</ele>
        <time>2026-08-29T13:18:22Z</time>
      </trkpt>
      <trkpt lat="50.858761221170425" lon="13.064667535945773">
        <ele>312</ele>
        <time>2026-08-29T13:18:23Z</time>
      </trkpt>
      <trkpt lat="50.858760131523013" lon="13.064666027203202">
        <ele>311</ele>
        <time>2026-08-29T13:18:24Z</time>
      </trkpt>
      <trkpt lat="50.858761640265584" lon="13.064661333337426">
        <ele>311</ele>
        <time>2026-08-29T13:18:25Z</time>
      </trkpt>
      <trkpt lat="50.858766669407487" lon="13.064648173749447">
        <ele>312</ele>
        <time>2026-08-29T13:18:26Z</time>
      </trkpt>
      <trkpt lat="50.858777649700642" lon="13.064623111858964">
        <ele>311</ele>
        <time>2026-08-29T13:18:27Z</time>
      </trkpt>
      <trkpt lat="50.858788378536701" lon="13.064594026654959">
        <ele>311</ele>
        <time>2026-08-29T13:18:28Z</time>
      </trkpt>
      <trkpt lat="50.858794581145048" lon="13.064560499042273">
        <ele>311</ele>
        <time>2026-08-29T13:18:29Z</time>
      </trkpt>
      <trkpt lat="50.858802879229188" lon="13.064505094662309">
        <ele>311</ele>
        <time>2026-08-29T13:18:30Z</time>
      </trkpt>
      <trkpt lat="50.858809752389789" lon="13.06445823982358">
        <ele>310</ele>
        <time>2026-08-29T13:18:31Z</time>
      </trkpt>
      <trkpt lat="50.858807489275932" lon="13.064406272023916">
        <ele>310</ele>
        <time>2026-08-29T13:18:32Z</time>
      </trkpt>
      <trkpt lat="50.85880346596241" lon="13.064357489347458">
        <ele>310</ele>
        <time>2026-08-29T13:18:33Z</time>
      </trkpt>
      <trkpt lat="50.858801789581776" lon="13.064312813803554">
        <ele>310</ele>
        <time>2026-08-29T13:18:34Z</time>
      </trkpt>
      <trkpt lat="50.858801538124681" lon="13.064261768013239">
        <ele>310</ele>
        <time>2026-08-29T13:18:35Z</time>
      </trkpt>
      <trkpt lat="50.858795838430524" lon="13.064203765243292">
        <ele>310</ele>
        <time>2026-08-29T13:18:36Z</time>
      </trkpt>
      <trkpt lat="50.85878393612802" lon="13.064161520451307">
        <ele>310</ele>
        <time>2026-08-29T13:18:37Z</time>
      </trkpt>
      <trkpt lat="50.858774296939373" lon="13.064116928726435">
        <ele>310</ele>
        <time>2026-08-29T13:18:38Z</time>
      </trkpt>
      <trkpt lat="50.858759460970759" lon="13.064072337001562">
        <ele>311</ele>
        <time>2026-08-29T13:18:39Z</time>
      </trkpt>
      <trkpt lat="50.858744708821177" lon="13.064025230705738">
        <ele>311</ele>
        <time>2026-08-29T13:18:40Z</time>
      </trkpt>
      <trkpt lat="50.858734147623181" lon="13.063979297876358">
        <ele>311</ele>
        <time>2026-08-29T13:18:41Z</time>
      </trkpt>
      <trkpt lat="50.858726184815168" lon="13.063925988972187">
        <ele>311</ele>
        <time>2026-08-29T13:18:42Z</time>
      </trkpt>
      <trkpt lat="50.858709337189794" lon="13.063872260972857">
        <ele>311</ele>
        <time>2026-08-29T13:18:43Z</time>
      </trkpt>
      <trkpt lat="50.858699614182115" lon="13.063817443326116">
        <ele>311</ele>
        <time>2026-08-29T13:18:44Z</time>
      </trkpt>
      <trkpt lat="50.85868963971734" lon="13.06377662345767">
        <ele>311</ele>
        <time>2026-08-29T13:18:45Z</time>
      </trkpt>
      <trkpt lat="50.858681257814169" lon="13.063736474141479">
        <ele>311</ele>
        <time>2026-08-29T13:18:46Z</time>
      </trkpt>
      <trkpt lat="50.858676396310329" lon="13.063695151358843">
        <ele>311</ele>
        <time>2026-08-29T13:18:47Z</time>
      </trkpt>
      <trkpt lat="50.858670109882951" lon="13.063651733100414">
        <ele>311</ele>
        <time>2026-08-29T13:18:48Z</time>
      </trkpt>
      <trkpt lat="50.858665080741048" lon="13.063612254336476">
        <ele>310</ele>
        <time>2026-08-29T13:18:49Z</time>
      </trkpt>
      <trkpt lat="50.85866030305624" lon="13.063573027029634">
        <ele>310</ele>
        <time>2026-08-29T13:18:50Z</time>
      </trkpt>
      <trkpt lat="50.85865736939013" lon="13.063524914905429">
        <ele>310</ele>
        <time>2026-08-29T13:18:51Z</time>
      </trkpt>
      <trkpt lat="50.858651669695973" lon="13.063499182462692">
        <ele>310</ele>
        <time>2026-08-29T13:18:52Z</time>
      </trkpt>
      <trkpt lat="50.858624679967761" lon="13.063485017046332">
        <ele>310</ele>
        <time>2026-08-29T13:18:53Z</time>
      </trkpt>
      <trkpt lat="50.858597690239549" lon="13.063494823873043">
        <ele>310</ele>
        <time>2026-08-29T13:18:54Z</time>
      </trkpt>
      <trkpt lat="50.858565419912338" lon="13.063519047573209">
        <ele>309</ele>
        <time>2026-08-29T13:18:55Z</time>
      </trkpt>
      <trkpt lat="50.858519989997149" lon="13.063529944047332">
        <ele>309</ele>
        <time>2026-08-29T13:18:56Z</time>
      </trkpt>
      <trkpt lat="50.858466010540724" lon="13.063525501638651">
        <ele>308</ele>
        <time>2026-08-29T13:18:57Z</time>
      </trkpt>
      <trkpt lat="50.858407001942396" lon="13.063522903248668">
        <ele>308</ele>
        <time>2026-08-29T13:18:58Z</time>
      </trkpt>
      <trkpt lat="50.858346903696656" lon="13.063514940440655">
        <ele>308</ele>
        <time>2026-08-29T13:18:59Z</time>
      </trkpt>
      <trkpt lat="50.858288481831551" lon="13.063499014824629">
        <ele>309</ele>
        <time>2026-08-29T13:19:00Z</time>
      </trkpt>
      <trkpt lat="50.858234083279967" lon="13.06348099373281">
        <ele>309</ele>
        <time>2026-08-29T13:19:01Z</time>
      </trkpt>
      <trkpt lat="50.858183540403843" lon="13.063467247411609">
        <ele>310</ele>
        <time>2026-08-29T13:19:02Z</time>
      </trkpt>
      <trkpt lat="50.858132410794497" lon="13.063458949327469">
        <ele>310</ele>
        <time>2026-08-29T13:19:03Z</time>
      </trkpt>
      <trkpt lat="50.858086310327053" lon="13.063451154157519">
        <ele>310</ele>
        <time>2026-08-29T13:19:04Z</time>
      </trkpt>
      <trkpt lat="50.8580441493541" lon="13.06344578973949">
        <ele>310</ele>
        <time>2026-08-29T13:19:05Z</time>
      </trkpt>
      <trkpt lat="50.858001401647925" lon="13.063473366200924">
        <ele>310</ele>
        <time>2026-08-29T13:19:06Z</time>
      </trkpt>
      <trkpt lat="50.857966281473637" lon="13.063505636528134">
        <ele>310</ele>
        <time>2026-08-29T13:19:07Z</time>
      </trkpt>
      <trkpt lat="50.85794297978282" lon="13.063534134998918">
        <ele>310</ele>
        <time>2026-08-29T13:19:08Z</time>
      </trkpt>
      <trkpt lat="50.857920181006193" lon="13.063552407547832">
        <ele>310</ele>
        <time>2026-08-29T13:19:09Z</time>
      </trkpt>
      <trkpt lat="50.857905093580484" lon="13.063568165525794">
        <ele>310</ele>
        <time>2026-08-29T13:19:10Z</time>
      </trkpt>
      <trkpt lat="50.857894951477647" lon="13.063589036464691">
        <ele>310</ele>
        <time>2026-08-29T13:19:11Z</time>
      </trkpt>
      <trkpt lat="50.857890928164124" lon="13.063601106405258">
        <ele>310</ele>
        <time>2026-08-29T13:19:12Z</time>
      </trkpt>
      <trkpt lat="50.857892939820886" lon="13.063602866604924">
        <ele>310</ele>
        <time>2026-08-29T13:19:13Z</time>
      </trkpt>
      <trkpt lat="50.857892856001854" lon="13.063602698966861">
        <ele>310</ele>
        <time>2026-08-29T13:19:14Z</time>
      </trkpt>
      <trkpt lat="50.857896208763123" lon="13.063597502186894">
        <ele>310</ele>
        <time>2026-08-29T13:19:15Z</time>
      </trkpt>
      <trkpt lat="50.857893358916044" lon="13.063596496358514">
        <ele>311</ele>
        <time>2026-08-29T13:19:16Z</time>
      </trkpt>
      <trkpt lat="50.857892101630569" lon="13.063593981787562">
        <ele>310</ele>
        <time>2026-08-29T13:19:17Z</time>
      </trkpt>
      <trkpt lat="50.857886653393507" lon="13.063594400882721">
        <ele>310</ele>
        <time>2026-08-29T13:19:18Z</time>
      </trkpt>
      <trkpt lat="50.857880702242255" lon="13.063598843291402">
        <ele>310</ele>
        <time>2026-08-29T13:19:19Z</time>
      </trkpt>
      <trkpt lat="50.857870308682323" lon="13.063581995666027">
        <ele>311</ele>
        <time>2026-08-29T13:19:20Z</time>
      </trkpt>
      <trkpt lat="50.857863603159785" lon="13.063562968745828">
        <ele>311</ele>
        <time>2026-08-29T13:19:21Z</time>
      </trkpt>
      <trkpt lat="50.857855724170804" lon="13.063548635691404">
        <ele>311</ele>
        <time>2026-08-29T13:19:22Z</time>
      </trkpt>
      <trkpt lat="50.857847929000854" lon="13.063535895198584">
        <ele>311</ele>
        <time>2026-08-29T13:19:23Z</time>
      </trkpt>
      <trkpt lat="50.857840469107032" lon="13.063522651791573">
        <ele>311</ele>
        <time>2026-08-29T13:19:24Z</time>
      </trkpt>
      <trkpt lat="50.857832757756114" lon="13.063507312908769">
        <ele>311</ele>
        <time>2026-08-29T13:19:25Z</time>
      </trkpt>
      <trkpt lat="50.857820603996515" lon="13.063497841358185">
        <ele>311</ele>
        <time>2026-08-29T13:19:26Z</time>
      </trkpt>
      <trkpt lat="50.857808450236917" lon="13.063485603779554">
        <ele>311</ele>
        <time>2026-08-29T13:19:27Z</time>
      </trkpt>
      <trkpt lat="50.857802499085665" lon="13.063478814437985">
        <ele>311</ele>
        <time>2026-08-29T13:19:28Z</time>
      </trkpt>
      <trkpt lat="50.8577920217067" lon="13.06346733123064">
        <ele>311</ele>
        <time>2026-08-29T13:19:29Z</time>
      </trkpt>
      <trkpt lat="50.857777521014214" lon="13.063462637364864">
        <ele>310</ele>
        <time>2026-08-29T13:19:30Z</time>
      </trkpt>
      <trkpt lat="50.857769139111042" lon="13.063470600172877">
        <ele>310</ele>
        <time>2026-08-29T13:19:31Z</time>
      </trkpt>
      <trkpt lat="50.857762265950441" lon="13.063474372029305">
        <ele>310</ele>
        <time>2026-08-29T13:19:32Z</time>
      </trkpt>
      <trkpt lat="50.857751620933414" lon="13.063471773639321">
        <ele>310</ele>
        <time>2026-08-29T13:19:33Z</time>
      </trkpt>
      <trkpt lat="50.857752291485667" lon="13.063472444191575">
        <ele>310</ele>
        <time>2026-08-29T13:19:34Z</time>
      </trkpt>
      <trkpt lat="50.857753632590175" lon="13.063485687598586">
        <ele>310</ele>
        <time>2026-08-29T13:19:35Z</time>
      </trkpt>
      <trkpt lat="50.857756398618221" lon="13.063488118350506">
        <ele>310</ele>
        <time>2026-08-29T13:19:36Z</time>
      </trkpt>
      <trkpt lat="50.857756398618221" lon="13.063488034531474">
        <ele>310</ele>
        <time>2026-08-29T13:19:37Z</time>
      </trkpt>
      <trkpt lat="50.857756650075316" lon="13.06348736397922">
        <ele>310</ele>
        <time>2026-08-29T13:19:38Z</time>
      </trkpt>
      <trkpt lat="50.857756650075316" lon="13.06348686106503">
        <ele>310</ele>
        <time>2026-08-29T13:19:39Z</time>
      </trkpt>
      <trkpt lat="50.857756566256285" lon="13.06348585523665">
        <ele>310</ele>
        <time>2026-08-29T13:19:40Z</time>
      </trkpt>
      <trkpt lat="50.857756482437253" lon="13.063485017046332">
        <ele>310</ele>
        <time>2026-08-29T13:19:41Z</time>
      </trkpt>
      <trkpt lat="50.857756650075316" lon="13.063484262675047">
        <ele>310</ele>
        <time>2026-08-29T13:19:42Z</time>
      </trkpt>
      <trkpt lat="50.857758829370141" lon="13.063478227704763">
        <ele>311</ele>
        <time>2026-08-29T13:19:43Z</time>
      </trkpt>
      <trkpt lat="50.857760421931744" lon="13.063478395342827">
        <ele>310</ele>
        <time>2026-08-29T13:19:44Z</time>
      </trkpt>
      <trkpt lat="50.857759332284331" lon="13.063474958762527">
        <ele>310</ele>
        <time>2026-08-29T13:19:45Z</time>
      </trkpt>
      <trkpt lat="50.857762852683663" lon="13.063471103087068">
        <ele>311</ele>
        <time>2026-08-29T13:19:46Z</time>
      </trkpt>
      <trkpt lat="50.857762768864632" lon="13.063470767810941">
        <ele>311</ele>
        <time>2026-08-29T13:19:47Z</time>
      </trkpt>
      <trkpt lat="50.857762601226568" lon="13.063470432534814">
        <ele>311</ele>
        <time>2026-08-29T13:19:48Z</time>
      </trkpt>
      <trkpt lat="50.857762433588505" lon="13.06347026489675">
        <ele>311</ele>
        <time>2026-08-29T13:19:49Z</time>
      </trkpt>
      <trkpt lat="50.857762517407537" lon="13.063469594344497">
        <ele>311</ele>
        <time>2026-08-29T13:19:50Z</time>
      </trkpt>
      <trkpt lat="50.857762517407537" lon="13.063469342887402">
        <ele>311</ele>
        <time>2026-08-29T13:19:51Z</time>
      </trkpt>
      <trkpt lat="50.857762601226568" lon="13.063469007611275">
        <ele>311</ele>
        <time>2026-08-29T13:19:52Z</time>
      </trkpt>
      <trkpt lat="50.857762517407537" lon="13.063468672335148">
        <ele>311</ele>
        <time>2026-08-29T13:19:53Z</time>
      </trkpt>
      <trkpt lat="50.857762601226568" lon="13.063468001782894">
        <ele>311</ele>
        <time>2026-08-29T13:19:54Z</time>
      </trkpt>
      <trkpt lat="50.857762517407537" lon="13.06346733123064">
        <ele>310</ele>
        <time>2026-08-29T13:19:55Z</time>
      </trkpt>
      <trkpt lat="50.857762601226568" lon="13.063466744497418">
        <ele>310</ele>
        <time>2026-08-29T13:19:56Z</time>
      </trkpt>
      <trkpt lat="50.857762601226568" lon="13.06346632540226">
        <ele>310</ele>
        <time>2026-08-29T13:19:57Z</time>
      </trkpt>
      <trkpt lat="50.857762433588505" lon="13.063465990126133">
        <ele>310</ele>
        <time>2026-08-29T13:19:58Z</time>
      </trkpt>
      <trkpt lat="50.857762517407537" lon="13.06346582248807">
        <ele>310</ele>
        <time>2026-08-29T13:19:59Z</time>
      </trkpt>
      <trkpt lat="50.857762517407537" lon="13.063465235754848">
        <ele>310</ele>
        <time>2026-08-29T13:20:00Z</time>
      </trkpt>
      <trkpt lat="50.857762768864632" lon="13.063464816659689">
        <ele>310</ele>
        <time>2026-08-29T13:20:01Z</time>
      </trkpt>
      <trkpt lat="50.857762768864632" lon="13.063464732840657">
        <ele>310</ele>
        <time>2026-08-29T13:20:02Z</time>
      </trkpt>
      <trkpt lat="50.8577626850456" lon="13.063464732840657">
        <ele>310</ele>
        <time>2026-08-29T13:20:03Z</time>
      </trkpt>
      <trkpt lat="50.857762349769473" lon="13.063464984297752">
        <ele>310</ele>
        <time>2026-08-29T13:20:04Z</time>
      </trkpt>
      <trkpt lat="50.857762349769473" lon="13.063464900478721">
        <ele>310</ele>
        <time>2026-08-29T13:20:05Z</time>
      </trkpt>
      <trkpt lat="50.85775975137949" lon="13.063471941277385">
        <ele>311</ele>
        <time>2026-08-29T13:20:06Z</time>
      </trkpt>
      <trkpt lat="50.857761176303029" lon="13.063470432534814">
        <ele>311</ele>
        <time>2026-08-29T13:20:07Z</time>
      </trkpt>
      <trkpt lat="50.857762852683663" lon="13.063466157764196">
        <ele>310</ele>
        <time>2026-08-29T13:20:08Z</time>
      </trkpt>
      <trkpt lat="50.857757152989507" lon="13.06346976198256">
        <ele>310</ele>
        <time>2026-08-29T13:20:09Z</time>
      </trkpt>
      <trkpt lat="50.857756901532412" lon="13.063469342887402">
        <ele>310</ele>
        <time>2026-08-29T13:20:10Z</time>
      </trkpt>
      <trkpt lat="50.857754722237587" lon="13.063465906307101">
        <ele>310</ele>
        <time>2026-08-29T13:20:11Z</time>
      </trkpt>
      <trkpt lat="50.857756650075316" lon="13.063462469726801">
        <ele>310</ele>
        <time>2026-08-29T13:20:12Z</time>
      </trkpt>
      <trkpt lat="50.857759499922395" lon="13.063457943499088">
        <ele>310</ele>
        <time>2026-08-29T13:20:13Z</time>
      </trkpt>
      <trkpt lat="50.857767211273313" lon="13.063457189127803">
        <ele>310</ele>
        <time>2026-08-29T13:20:14Z</time>
      </trkpt>
      <trkpt lat="50.857770061120391" lon="13.063454004004598">
        <ele>310</ele>
        <time>2026-08-29T13:20:15Z</time>
      </trkpt>
      <trkpt lat="50.857770144939423" lon="13.063453668728471">
        <ele>310</ele>
        <time>2026-08-29T13:20:16Z</time>
      </trkpt>
      <trkpt lat="50.857772072777152" lon="13.063455680385232">
        <ele>309</ele>
        <time>2026-08-29T13:20:17Z</time>
      </trkpt>
      <trkpt lat="50.857772072777152" lon="13.063455428928137">
        <ele>309</ele>
        <time>2026-08-29T13:20:18Z</time>
      </trkpt>
      <trkpt lat="50.85777198895812" lon="13.063455764204264">
        <ele>309</ele>
        <time>2026-08-29T13:20:19Z</time>
      </trkpt>
      <trkpt lat="50.857764529064298" lon="13.063448974862695">
        <ele>309</ele>
        <time>2026-08-29T13:20:20Z</time>
      </trkpt>
      <trkpt lat="50.857760421931744" lon="13.063456434756517">
        <ele>309</ele>
        <time>2026-08-29T13:20:21Z</time>
      </trkpt>
      <trkpt lat="50.857755895704031" lon="13.063449561595917">
        <ele>309</ele>
        <time>2026-08-29T13:20:22Z</time>
      </trkpt>
      <trkpt lat="50.857755979523063" lon="13.063448304310441">
        <ele>309</ele>
        <time>2026-08-29T13:20:23Z</time>
      </trkpt>
      <trkpt lat="50.857757236808538" lon="13.063436485826969">
        <ele>309</ele>
        <time>2026-08-29T13:20:24Z</time>
      </trkpt>
      <trkpt lat="50.857761260122061" lon="13.063430367037654">
        <ele>309</ele>
        <time>2026-08-29T13:20:25Z</time>
      </trkpt>
      <trkpt lat="50.857765199616551" lon="13.063423493877053">
        <ele>309</ele>
        <time>2026-08-29T13:20:26Z</time>
      </trkpt>
      <trkpt lat="50.857761930674314" lon="13.06342382915318">
        <ele>308</ele>
        <time>2026-08-29T13:20:27Z</time>
      </trkpt>
      <trkpt lat="50.857763607054949" lon="13.063432462513447">
        <ele>308</ele>
        <time>2026-08-29T13:20:28Z</time>
      </trkpt>
      <trkpt lat="50.857768384739757" lon="13.063429864123464">
        <ele>309</ele>
        <time>2026-08-29T13:20:29Z</time>
      </trkpt>
      <trkpt lat="50.857768971472979" lon="13.063437324017286">
        <ele>309</ele>
        <time>2026-08-29T13:20:30Z</time>
      </trkpt>
      <trkpt lat="50.857770396396518" lon="13.063450483605266">
        <ele>310</ele>
        <time>2026-08-29T13:20:31Z</time>
      </trkpt>
      <trkpt lat="50.857778443023562" lon="13.063457272946835">
        <ele>309</ele>
        <time>2026-08-29T13:20:32Z</time>
      </trkpt>
      <trkpt lat="50.857785986736417" lon="13.063457356765866">
        <ele>309</ele>
        <time>2026-08-29T13:20:33Z</time>
      </trkpt>
      <trkpt lat="50.857786238193512" lon="13.063457943499088">
        <ele>309</ele>
        <time>2026-08-29T13:20:34Z</time>
      </trkpt>
      <trkpt lat="50.857784980908036" lon="13.063459368422627">
        <ele>309</ele>
        <time>2026-08-29T13:20:35Z</time>
      </trkpt>
      <trkpt lat="50.857784980908036" lon="13.063459033146501">
        <ele>309</ele>
        <time>2026-08-29T13:20:36Z</time>
      </trkpt>
      <trkpt lat="50.857785064727068" lon="13.063458949327469">
        <ele>309</ele>
        <time>2026-08-29T13:20:37Z</time>
      </trkpt>
      <trkpt lat="50.8577851485461" lon="13.063459033146501">
        <ele>309</ele>
        <time>2026-08-29T13:20:38Z</time>
      </trkpt>
      <trkpt lat="50.8577851485461" lon="13.063459200784564">
        <ele>309</ele>
        <time>2026-08-29T13:20:39Z</time>
      </trkpt>
      <trkpt lat="50.857786489650607" lon="13.063466241583228">
        <ele>309</ele>
        <time>2026-08-29T13:20:40Z</time>
      </trkpt>
      <trkpt lat="50.857796715572476" lon="13.063462050631642">
        <ele>308</ele>
        <time>2026-08-29T13:20:41Z</time>
      </trkpt>
      <trkpt lat="50.857806690037251" lon="13.063465654850006">
        <ele>308</ele>
        <time>2026-08-29T13:20:42Z</time>
      </trkpt>
      <trkpt lat="50.857809288427234" lon="13.063467666506767">
        <ele>308</ele>
        <time>2026-08-29T13:20:43Z</time>
      </trkpt>
      <trkpt lat="50.857814736664295" lon="13.063463559374213">
        <ele>308</ele>
        <time>2026-08-29T13:20:44Z</time>
      </trkpt>
      <trkpt lat="50.857827393338084" lon="13.063464229926467">
        <ele>308</ele>
        <time>2026-08-29T13:20:45Z</time>
      </trkpt>
      <trkpt lat="50.857832422479987" lon="13.063465906307101">
        <ele>308</ele>
        <time>2026-08-29T13:20:46Z</time>
      </trkpt>
      <trkpt lat="50.857832422479987" lon="13.063470935449004">
        <ele>308</ele>
        <time>2026-08-29T13:20:47Z</time>
      </trkpt>
      <trkpt lat="50.857834601774812" lon="13.063485184684396">
        <ele>308</ele>
        <time>2026-08-29T13:20:48Z</time>
      </trkpt>
      <trkpt lat="50.857836026698351" lon="13.06348635815084">
        <ele>308</ele>
        <time>2026-08-29T13:20:49Z</time>
      </trkpt>
      <trkpt lat="50.857835691422224" lon="13.063486693426967">
        <ele>308</ele>
        <time>2026-08-29T13:20:50Z</time>
      </trkpt>
      <trkpt lat="50.857835607603192" lon="13.063487028703094">
        <ele>308</ele>
        <time>2026-08-29T13:20:51Z</time>
      </trkpt>
      <trkpt lat="50.857835607603192" lon="13.063487280160189">
        <ele>308</ele>
        <time>2026-08-29T13:20:52Z</time>
      </trkpt>
      <trkpt lat="50.857835859060287" lon="13.063487783074379">
        <ele>308</ele>
        <time>2026-08-29T13:20:53Z</time>
      </trkpt>
      <trkpt lat="50.857836110517383" lon="13.063488285988569">
        <ele>308</ele>
        <time>2026-08-29T13:20:54Z</time>
      </trkpt>
      <trkpt lat="50.857836278155446" lon="13.063488621264696">
        <ele>308</ele>
        <time>2026-08-29T13:20:55Z</time>
      </trkpt>
      <trkpt lat="50.857836361974478" lon="13.063488956540823">
        <ele>308</ele>
        <time>2026-08-29T13:20:56Z</time>
      </trkpt>
      <trkpt lat="50.857836529612541" lon="13.06348929181695">
        <ele>308</ele>
        <time>2026-08-29T13:20:57Z</time>
      </trkpt>
      <trkpt lat="50.857836529612541" lon="13.063489459455013">
        <ele>308</ele>
        <time>2026-08-29T13:20:58Z</time>
      </trkpt>
      <trkpt lat="50.857836529612541" lon="13.063489543274045">
        <ele>308</ele>
        <time>2026-08-29T13:20:59Z</time>
      </trkpt>
      <trkpt lat="50.857836613431573" lon="13.063489710912108">
        <ele>308</ele>
        <time>2026-08-29T13:21:00Z</time>
      </trkpt>
      <trkpt lat="50.857836529612541" lon="13.063489710912108">
        <ele>308</ele>
        <time>2026-08-29T13:21:01Z</time>
      </trkpt>
      <trkpt lat="50.857836278155446" lon="13.063490046188235">
        <ele>308</ele>
        <time>2026-08-29T13:21:02Z</time>
      </trkpt>
      <trkpt lat="50.857836194336414" lon="13.06349029764533">
        <ele>308</ele>
        <time>2026-08-29T13:21:03Z</time>
      </trkpt>
      <trkpt lat="50.857836194336414" lon="13.063490213826299">
        <ele>308</ele>
        <time>2026-08-29T13:21:04Z</time>
      </trkpt>
      <trkpt lat="50.857836110517383" lon="13.063490213826299">
        <ele>308</ele>
        <time>2026-08-29T13:21:05Z</time>
      </trkpt>
      <trkpt lat="50.857836194336414" lon="13.063490381464362">
        <ele>308</ele>
        <time>2026-08-29T13:21:06Z</time>
      </trkpt>
      <trkpt lat="50.857836278155446" lon="13.063490549102426">
        <ele>308</ele>
        <time>2026-08-29T13:21:07Z</time>
      </trkpt>
      <trkpt lat="50.857836361974478" lon="13.063491052016616">
        <ele>308</ele>
        <time>2026-08-29T13:21:08Z</time>
      </trkpt>
      <trkpt lat="50.857836529612541" lon="13.063491638749838">
        <ele>308</ele>
        <time>2026-08-29T13:21:09Z</time>
      </trkpt>
      <trkpt lat="50.857836697250605" lon="13.063492476940155">
        <ele>308</ele>
        <time>2026-08-29T13:21:10Z</time>
      </trkpt>
      <trkpt lat="50.8578369487077" lon="13.063493147492409">
        <ele>308</ele>
        <time>2026-08-29T13:21:11Z</time>
      </trkpt>
      <trkpt lat="50.857838038355112" lon="13.063496248796582">
        <ele>309</ele>
        <time>2026-08-29T13:21:12Z</time>
      </trkpt>
      <trkpt lat="50.857838289812207" lon="13.063497338443995">
        <ele>309</ele>
        <time>2026-08-29T13:21:13Z</time>
      </trkpt>
      <trkpt lat="50.857838038355112" lon="13.063497254624963">
        <ele>309</ele>
        <time>2026-08-29T13:21:14Z</time>
      </trkpt>
      <trkpt lat="50.857838122174144" lon="13.063497170805931">
        <ele>309</ele>
        <time>2026-08-29T13:21:15Z</time>
      </trkpt>
      <trkpt lat="50.857838122174144" lon="13.063497170805931">
        <ele>309</ele>
        <time>2026-08-29T13:21:16Z</time>
      </trkpt>
      <trkpt lat="50.857838122174144" lon="13.063497422263026">
        <ele>309</ele>
        <time>2026-08-29T13:21:17Z</time>
      </trkpt>
      <trkpt lat="50.857838289812207" lon="13.063497757539153">
        <ele>309</ele>
        <time>2026-08-29T13:21:18Z</time>
      </trkpt>
      <trkpt lat="50.857838457450271" lon="13.063497925177217">
        <ele>309</ele>
        <time>2026-08-29T13:21:19Z</time>
      </trkpt>
      <trkpt lat="50.857838541269302" lon="13.06349809281528">
        <ele>309</ele>
        <time>2026-08-29T13:21:20Z</time>
      </trkpt>
      <trkpt lat="50.857838708907366" lon="13.063498176634312">
        <ele>309</ele>
        <time>2026-08-29T13:21:21Z</time>
      </trkpt>
      <trkpt lat="50.857838792726398" lon="13.063498176634312">
        <ele>309</ele>
        <time>2026-08-29T13:21:22Z</time>
      </trkpt>
      <trkpt lat="50.857838876545429" lon="13.063498176634312">
        <ele>309</ele>
        <time>2026-08-29T13:21:23Z</time>
      </trkpt>
      <trkpt lat="50.857839128002524" lon="13.063498008996248">
        <ele>309</ele>
        <time>2026-08-29T13:21:24Z</time>
      </trkpt>
      <trkpt lat="50.857839128002524" lon="13.063498176634312">
        <ele>309</ele>
        <time>2026-08-29T13:21:25Z</time>
      </trkpt>
      <trkpt lat="50.857839211821556" lon="13.063498428091407">
        <ele>309</ele>
        <time>2026-08-29T13:21:26Z</time>
      </trkpt>
      <trkpt lat="50.857839211821556" lon="13.063498428091407">
        <ele>309</ele>
        <time>2026-08-29T13:21:27Z</time>
      </trkpt>
      <trkpt lat="50.857839211821556" lon="13.063498511910439">
        <ele>309</ele>
        <time>2026-08-29T13:21:28Z</time>
      </trkpt>
      <trkpt lat="50.857839128002524" lon="13.063498679548502">
        <ele>309</ele>
        <time>2026-08-29T13:21:29Z</time>
      </trkpt>
      <trkpt lat="50.857839128002524" lon="13.063499098643661">
        <ele>309</ele>
        <time>2026-08-29T13:21:30Z</time>
      </trkpt>
      <trkpt lat="50.857839211821556" lon="13.063499433919787">
        <ele>309</ele>
        <time>2026-08-29T13:21:31Z</time>
      </trkpt>
      <trkpt lat="50.857839211821556" lon="13.063499601557851">
        <ele>309</ele>
        <time>2026-08-29T13:21:32Z</time>
      </trkpt>
      <trkpt lat="50.857839295640588" lon="13.063499769195914">
        <ele>309</ele>
        <time>2026-08-29T13:21:33Z</time>
      </trkpt>
      <trkpt lat="50.857839547097683" lon="13.063499601557851">
        <ele>309</ele>
        <time>2026-08-29T13:21:34Z</time>
      </trkpt>
      <trkpt lat="50.857839547097683" lon="13.063499685376883">
        <ele>309</ele>
        <time>2026-08-29T13:21:35Z</time>
      </trkpt>
      <trkpt lat="50.85783937945962" lon="13.063499853014946">
        <ele>309</ele>
        <time>2026-08-29T13:21:36Z</time>
      </trkpt>
      <trkpt lat="50.857839547097683" lon="13.063500020653009">
        <ele>309</ele>
        <time>2026-08-29T13:21:37Z</time>
      </trkpt>
      <trkpt lat="50.857839211821556" lon="13.063499936833978">
        <ele>309</ele>
        <time>2026-08-29T13:21:38Z</time>
      </trkpt>
      <trkpt lat="50.857839128002524" lon="13.063500020653009">
        <ele>309</ele>
        <time>2026-08-29T13:21:39Z</time>
      </trkpt>
      <trkpt lat="50.857839128002524" lon="13.063500188291073">
        <ele>309</ele>
        <time>2026-08-29T13:21:40Z</time>
      </trkpt>
      <trkpt lat="50.857838960364461" lon="13.063500439748168">
        <ele>308</ele>
        <time>2026-08-29T13:21:41Z</time>
      </trkpt>
      <trkpt lat="50.857838792726398" lon="13.063500691205263">
        <ele>308</ele>
        <time>2026-08-29T13:21:42Z</time>
      </trkpt>
      <trkpt lat="50.857838708907366" lon="13.063500775024295">
        <ele>308</ele>
        <time>2026-08-29T13:21:43Z</time>
      </trkpt>
      <trkpt lat="50.857838541269302" lon="13.063500858843327">
        <ele>308</ele>
        <time>2026-08-29T13:21:44Z</time>
      </trkpt>
      <trkpt lat="50.857838541269302" lon="13.063500942662358">
        <ele>308</ele>
        <time>2026-08-29T13:21:45Z</time>
      </trkpt>
      <trkpt lat="50.857838541269302" lon="13.063501194119453">
        <ele>308</ele>
        <time>2026-08-29T13:21:46Z</time>
      </trkpt>
      <trkpt lat="50.857838541269302" lon="13.063501277938485">
        <ele>308</ele>
        <time>2026-08-29T13:21:47Z</time>
      </trkpt>
      <trkpt lat="50.857838457450271" lon="13.06350152939558">
        <ele>308</ele>
        <time>2026-08-29T13:21:48Z</time>
      </trkpt>
      <trkpt lat="50.857838373631239" lon="13.063501697033644">
        <ele>308</ele>
        <time>2026-08-29T13:21:49Z</time>
      </trkpt>
      <trkpt lat="50.857838038355112" lon="13.063502116128802">
        <ele>308</ele>
        <time>2026-08-29T13:21:50Z</time>
      </trkpt>
      <trkpt lat="50.857837870717049" lon="13.063502451404929">
        <ele>308</ele>
        <time>2026-08-29T13:21:51Z</time>
      </trkpt>
      <trkpt lat="50.857837703078985" lon="13.063502702862024">
        <ele>308</ele>
        <time>2026-08-29T13:21:52Z</time>
      </trkpt>
      <trkpt lat="50.85783745162189" lon="13.063503121957183">
        <ele>308</ele>
        <time>2026-08-29T13:21:53Z</time>
      </trkpt>
      <trkpt lat="50.857837283983827" lon="13.06350345723331">
        <ele>308</ele>
        <time>2026-08-29T13:21:54Z</time>
      </trkpt>
      <trkpt lat="50.857837200164795" lon="13.063503708690405">
        <ele>308</ele>
        <time>2026-08-29T13:21:55Z</time>
      </trkpt>
      <trkpt lat="50.857837032526731" lon="13.063503876328468">
        <ele>308</ele>
        <time>2026-08-29T13:21:56Z</time>
      </trkpt>
      <trkpt lat="50.8578369487077" lon="13.0635039601475">
        <ele>308</ele>
        <time>2026-08-29T13:21:57Z</time>
      </trkpt>
      <trkpt lat="50.857837116345763" lon="13.063504043966532">
        <ele>308</ele>
        <time>2026-08-29T13:21:58Z</time>
      </trkpt>
      <trkpt lat="50.857837200164795" lon="13.063504630699754">
        <ele>308</ele>
        <time>2026-08-29T13:21:59Z</time>
      </trkpt>
      <trkpt lat="50.857837367802858" lon="13.063505301252007">
        <ele>308</ele>
        <time>2026-08-29T13:22:00Z</time>
      </trkpt>
      <trkpt lat="50.857841642573476" lon="13.063502032309771">
        <ele>309</ele>
        <time>2026-08-29T13:22:01Z</time>
      </trkpt>
      <trkpt lat="50.857848599553108" lon="13.063501110300422">
        <ele>309</ele>
        <time>2026-08-29T13:22:02Z</time>
      </trkpt>
      <trkpt lat="50.85785455070436" lon="13.063505804166198">
        <ele>309</ele>
        <time>2026-08-29T13:22:03Z</time>
      </trkpt>
      <trkpt lat="50.85786092095077" lon="13.063515108078718">
        <ele>309</ele>
        <time>2026-08-29T13:22:04Z</time>
      </trkpt>
      <trkpt lat="50.857870141044259" lon="13.0635298602283">
        <ele>309</ele>
        <time>2026-08-29T13:22:05Z</time>
      </trkpt>
      <trkpt lat="50.857879780232906" lon="13.063536565750837">
        <ele>309</ele>
        <time>2026-08-29T13:22:06Z</time>
      </trkpt>
      <trkpt lat="50.857886485755444" lon="13.063548635691404">
        <ele>310</ele>
        <time>2026-08-29T13:22:07Z</time>
      </trkpt>
      <trkpt lat="50.857892101630569" lon="13.063563639298081">
        <ele>310</ele>
        <time>2026-08-29T13:22:08Z</time>
      </trkpt>
      <trkpt lat="50.857897298410535" lon="13.063576379790902">
        <ele>310</ele>
        <time>2026-08-29T13:22:09Z</time>
      </trkpt>
      <trkpt lat="50.857897382229567" lon="13.063581492751837">
        <ele>310</ele>
        <time>2026-08-29T13:22:10Z</time>
      </trkpt>
      <trkpt lat="50.857902998104692" lon="13.063581911846995">
        <ele>310</ele>
        <time>2026-08-29T13:22:11Z</time>
      </trkpt>
      <trkpt lat="50.857905009761453" lon="13.06358358822763">
        <ele>310</ele>
        <time>2026-08-29T13:22:12Z</time>
      </trkpt>
      <trkpt lat="50.857908949255943" lon="13.063588952645659">
        <ele>309</ele>
        <time>2026-08-29T13:22:13Z</time>
      </trkpt>
      <trkpt lat="50.857905512675643" lon="13.063587695360184">
        <ele>309</ele>
        <time>2026-08-29T13:22:14Z</time>
      </trkpt>
      <trkpt lat="50.857905680313706" lon="13.063587276265025">
        <ele>309</ele>
        <time>2026-08-29T13:22:15Z</time>
      </trkpt>
      <trkpt lat="50.857902998104692" lon="13.063586689531803">
        <ele>309</ele>
        <time>2026-08-29T13:22:16Z</time>
      </trkpt>
      <trkpt lat="50.857902830466628" lon="13.06358995847404">
        <ele>309</ele>
        <time>2026-08-29T13:22:17Z</time>
      </trkpt>
      <trkpt lat="50.85790392011404" lon="13.063595406711102">
        <ele>309</ele>
        <time>2026-08-29T13:22:18Z</time>
      </trkpt>
      <trkpt lat="50.857907524332404" lon="13.063597166910768">
        <ele>309</ele>
        <time>2026-08-29T13:22:19Z</time>
      </trkpt>
      <trkpt lat="50.857904842123389" lon="13.063601274043322">
        <ele>309</ele>
        <time>2026-08-29T13:22:20Z</time>
      </trkpt>
      <trkpt lat="50.857905261218548" lon="13.063599010929465">
        <ele>309</ele>
        <time>2026-08-29T13:22:21Z</time>
      </trkpt>
      <trkpt lat="50.857902411371469" lon="13.063597502186894">
        <ele>309</ele>
        <time>2026-08-29T13:22:22Z</time>
      </trkpt>
      <trkpt lat="50.857903249561787" lon="13.063593897968531">
        <ele>309</ele>
        <time>2026-08-29T13:22:23Z</time>
      </trkpt>
      <trkpt lat="50.857906183227897" lon="13.06359875947237">
        <ele>309</ele>
        <time>2026-08-29T13:22:24Z</time>
      </trkpt>
      <trkpt lat="50.85791515186429" lon="13.06359339505434">
        <ele>309</ele>
        <time>2026-08-29T13:22:25Z</time>
      </trkpt>
      <trkpt lat="50.85792051628232" lon="13.063583504408598">
        <ele>309</ele>
        <time>2026-08-29T13:22:26Z</time>
      </trkpt>
      <trkpt lat="50.857921857386827" lon="13.06358115747571">
        <ele>309</ele>
        <time>2026-08-29T13:22:27Z</time>
      </trkpt>
      <trkpt lat="50.857922779396176" lon="13.063583169132471">
        <ele>309</ele>
        <time>2026-08-29T13:22:28Z</time>
      </trkpt>
      <trkpt lat="50.85792588070035" lon="13.063587862998247">
        <ele>309</ele>
        <time>2026-08-29T13:22:29Z</time>
      </trkpt>
      <trkpt lat="50.857933508232236" lon="13.063587862998247">
        <ele>309</ele>
        <time>2026-08-29T13:22:30Z</time>
      </trkpt>
      <trkpt lat="50.857941303402185" lon="13.063579816371202">
        <ele>309</ele>
        <time>2026-08-29T13:22:31Z</time>
      </trkpt>
      <trkpt lat="50.857947757467628" lon="13.063568081706762">
        <ele>308</ele>
        <time>2026-08-29T13:22:32Z</time>
      </trkpt>
      <trkpt lat="50.857961419969797" lon="13.06354452855885">
        <ele>309</ele>
        <time>2026-08-29T13:22:33Z</time>
      </trkpt>
      <trkpt lat="50.857980027794838" lon="13.063514437526464">
        <ele>308</ele>
        <time>2026-08-29T13:22:34Z</time>
      </trkpt>
      <trkpt lat="50.857999809086323" lon="13.063490968197584">
        <ele>308</ele>
        <time>2026-08-29T13:22:35Z</time>
      </trkpt>
      <trkpt lat="50.858024200424552" lon="13.063470181077719">
        <ele>309</ele>
        <time>2026-08-29T13:22:36Z</time>
      </trkpt>
      <trkpt lat="50.858056470751762" lon="13.063449813053012">
        <ele>309</ele>
        <time>2026-08-29T13:22:37Z</time>
      </trkpt>
      <trkpt lat="50.858085472136736" lon="13.063438078388572">
        <ele>309</ele>
        <time>2026-08-29T13:22:38Z</time>
      </trkpt>
      <trkpt lat="50.858112880960107" lon="13.063425673171878">
        <ele>309</ele>
        <time>2026-08-29T13:22:39Z</time>
      </trkpt>
      <trkpt lat="50.858145570382476" lon="13.063422907143831">
        <ele>309</ele>
        <time>2026-08-29T13:22:40Z</time>
      </trkpt>
      <trkpt lat="50.858179181814194" lon="13.063432294875383">
        <ele>309</ele>
        <time>2026-08-29T13:22:41Z</time>
      </trkpt>
      <trkpt lat="50.858212541788816" lon="13.063439251855016">
        <ele>309</ele>
        <time>2026-08-29T13:22:42Z</time>
      </trkpt>
      <trkpt lat="50.858242968097329" lon="13.063448052853346">
        <ele>309</ele>
        <time>2026-08-29T13:22:43Z</time>
      </trkpt>
      <trkpt lat="50.85827817209065" lon="13.063459871336818">
        <ele>309</ele>
        <time>2026-08-29T13:22:44Z</time>
      </trkpt>
      <trkpt lat="50.858306251466274" lon="13.063474455848336">
        <ele>309</ele>
        <time>2026-08-29T13:22:45Z</time>
      </trkpt>
      <trkpt lat="50.858339443802834" lon="13.063481161370873">
        <ele>309</ele>
        <time>2026-08-29T13:22:46Z</time>
      </trkpt>
      <trkpt lat="50.858375150710344" lon="13.063495326787233">
        <ele>309</ele>
        <time>2026-08-29T13:22:47Z</time>
      </trkpt>
      <trkpt lat="50.858402056619525" lon="13.063508402556181">
        <ele>309</ele>
        <time>2026-08-29T13:22:48Z</time>
      </trkpt>
      <trkpt lat="50.858430387452245" lon="13.063513515517116">
        <ele>309</ele>
        <time>2026-08-29T13:22:49Z</time>
      </trkpt>
      <trkpt lat="50.858458550646901" lon="13.063518209382892">
        <ele>309</ele>
        <time>2026-08-29T13:22:50Z</time>
      </trkpt>
      <trkpt lat="50.858487384393811" lon="13.063519885763526">
        <ele>309</ele>
        <time>2026-08-29T13:22:51Z</time>
      </trkpt>
      <trkpt lat="50.858512278646231" lon="13.063514353707433">
        <ele>309</ele>
        <time>2026-08-29T13:22:52Z</time>
      </trkpt>
      <trkpt lat="50.858536083251238" lon="13.063510498031974">
        <ele>310</ele>
        <time>2026-08-29T13:22:53Z</time>
      </trkpt>
      <trkpt lat="50.858559301123023" lon="13.063505217432976">
        <ele>310</ele>
        <time>2026-08-29T13:22:54Z</time>
      </trkpt>
      <trkpt lat="50.858582351356745" lon="13.063501110300422">
        <ele>309</ele>
        <time>2026-08-29T13:22:55Z</time>
      </trkpt>
      <trkpt lat="50.858599366620183" lon="13.06349515914917">
        <ele>310</ele>
        <time>2026-08-29T13:22:56Z</time>
      </trkpt>
      <trkpt lat="50.858609508723021" lon="13.063502786681056">
        <ele>310</ele>
        <time>2026-08-29T13:22:57Z</time>
      </trkpt>
      <trkpt lat="50.858621746301651" lon="13.063511420041323">
        <ele>310</ele>
        <time>2026-08-29T13:22:58Z</time>
      </trkpt>
      <trkpt lat="50.858625350520015" lon="13.063515359535813">
        <ele>310</ele>
        <time>2026-08-29T13:22:59Z</time>
      </trkpt>
      <trkpt lat="50.858631888404489" lon="13.063538325950503">
        <ele>310</ele>
        <time>2026-08-29T13:23:00Z</time>
      </trkpt>
      <trkpt lat="50.858640102669597" lon="13.063568416982889">
        <ele>310</ele>
        <time>2026-08-29T13:23:01Z</time>
      </trkpt>
      <trkpt lat="50.858649909496307" lon="13.06359875947237">
        <ele>310</ele>
        <time>2026-08-29T13:23:02Z</time>
      </trkpt>
      <trkpt lat="50.858654687181115" lon="13.063636226579547">
        <ele>310</ele>
        <time>2026-08-29T13:23:03Z</time>
      </trkpt>
      <trkpt lat="50.858657620847225" lon="13.063659276813269">
        <ele>311</ele>
        <time>2026-08-29T13:23:04Z</time>
      </trkpt>
      <trkpt lat="50.858659213408828" lon="13.063688864931464">
        <ele>311</ele>
        <time>2026-08-29T13:23:05Z</time>
      </trkpt>
      <trkpt lat="50.858668852597475" lon="13.063712082803249">
        <ele>311</ele>
        <time>2026-08-29T13:23:06Z</time>
      </trkpt>
      <trkpt lat="50.858673211187124" lon="13.06373848579824">
        <ele>311</ele>
        <time>2026-08-29T13:23:07Z</time>
      </trkpt>
      <trkpt lat="50.858677737414837" lon="13.06376195512712">
        <ele>311</ele>
        <time>2026-08-29T13:23:08Z</time>
      </trkpt>
      <trkpt lat="50.858681341633201" lon="13.063781568780541">
        <ele>311</ele>
        <time>2026-08-29T13:23:09Z</time>
      </trkpt>
      <trkpt lat="50.858686370775104" lon="13.063806463032961">
        <ele>311</ele>
        <time>2026-08-29T13:23:10Z</time>
      </trkpt>
      <trkpt lat="50.858693160116673" lon="13.06382741779089">
        <ele>311</ele>
        <time>2026-08-29T13:23:11Z</time>
      </trkpt>
      <trkpt lat="50.858701122924685" lon="13.063843678683043">
        <ele>311</ele>
        <time>2026-08-29T13:23:12Z</time>
      </trkpt>
      <trkpt lat="50.858710510656238" lon="13.063871674239635">
        <ele>311</ele>
        <time>2026-08-29T13:23:13Z</time>
      </trkpt>
      <trkpt lat="50.858714282512665" lon="13.063889276236296">
        <ele>311</ele>
        <time>2026-08-29T13:23:14Z</time>
      </trkpt>
      <trkpt lat="50.858717132359743" lon="13.063903022557497">
        <ele>311</ele>
        <time>2026-08-29T13:23:15Z</time>
      </trkpt>
      <trkpt lat="50.858713360503316" lon="13.063928335905075">
        <ele>311</ele>
        <time>2026-08-29T13:23:16Z</time>
      </trkpt>
      <trkpt lat="50.858716461807489" lon="13.063958175480366">
        <ele>311</ele>
        <time>2026-08-29T13:23:17Z</time>
      </trkpt>
      <trkpt lat="50.858727190643549" lon="13.063991451635957">
        <ele>311</ele>
        <time>2026-08-29T13:23:18Z</time>
      </trkpt>
      <trkpt lat="50.858733477070928" lon="13.064024476334453">
        <ele>311</ele>
        <time>2026-08-29T13:23:19Z</time>
      </trkpt>
      <trkpt lat="50.858736913651228" lon="13.064062530174851">
        <ele>312</ele>
        <time>2026-08-29T13:23:20Z</time>
      </trkpt>
      <trkpt lat="50.858742948621511" lon="13.06410351768136">
        <ele>312</ele>
        <time>2026-08-29T13:23:21Z</time>
      </trkpt>
      <trkpt lat="50.858750827610493" lon="13.064141739159822">
        <ele>312</ele>
        <time>2026-08-29T13:23:22Z</time>
      </trkpt>
      <trkpt lat="50.858757700771093" lon="13.064181385561824">
        <ele>312</ele>
        <time>2026-08-29T13:23:23Z</time>
      </trkpt>
      <trkpt lat="50.858764993026853" lon="13.064223797991872">
        <ele>312</ele>
        <time>2026-08-29T13:23:24Z</time>
      </trkpt>
      <trkpt lat="50.85877563804388" lon="13.06426914408803">
        <ele>312</ele>
        <time>2026-08-29T13:23:25Z</time>
      </trkpt>
      <trkpt lat="50.858780415728688" lon="13.064319435507059">
        <ele>313</ele>
        <time>2026-08-29T13:23:26Z</time>
      </trkpt>
      <trkpt lat="50.85878879763186" lon="13.064366625621915">
        <ele>312</ele>
        <time>2026-08-29T13:23:27Z</time>
      </trkpt>
      <trkpt lat="50.858793240040541" lon="13.06442060507834">
        <ele>313</ele>
        <time>2026-08-29T13:23:28Z</time>
      </trkpt>
      <trkpt lat="50.858793910592794" lon="13.064466621726751">
        <ele>313</ele>
        <time>2026-08-29T13:23:29Z</time>
      </trkpt>
      <trkpt lat="50.858789049088955" lon="13.064514398574829">
        <ele>312</ele>
        <time>2026-08-29T13:23:30Z</time>
      </trkpt>
      <trkpt lat="50.858783852308989" lon="13.064554631710052">
        <ele>312</ele>
        <time>2026-08-29T13:23:31Z</time>
      </trkpt>
      <trkpt lat="50.858775386586785" lon="13.064593523740768">
        <ele>312</ele>
        <time>2026-08-29T13:23:32Z</time>
      </trkpt>
      <trkpt lat="50.858764154836535" lon="13.064626716077328">
        <ele>312</ele>
        <time>2026-08-29T13:23:33Z</time>
      </trkpt>
      <trkpt lat="50.858754348009825" lon="13.064660914242268">
        <ele>312</ele>
        <time>2026-08-29T13:23:34Z</time>
      </trkpt>
      <trkpt lat="50.858747642487288" lon="13.064692597836256">
        <ele>312</ele>
        <time>2026-08-29T13:23:35Z</time>
      </trkpt>
      <trkpt lat="50.858735907822847" lon="13.064730064943433">
        <ele>312</ele>
        <time>2026-08-29T13:23:36Z</time>
      </trkpt>
      <trkpt lat="50.858725598081946" lon="13.064773986116052">
        <ele>312</ele>
        <time>2026-08-29T13:23:37Z</time>
      </trkpt>
      <trkpt lat="50.858718557283282" lon="13.064815392717719">
        <ele>311</ele>
        <time>2026-08-29T13:23:38Z</time>
      </trkpt>
      <trkpt lat="50.858705900609493" lon="13.064850764349103">
        <ele>311</ele>
        <time>2026-08-29T13:23:39Z</time>
      </trkpt>
      <trkpt lat="50.858692238107324" lon="13.0648906622082">
        <ele>311</ele>
        <time>2026-08-29T13:23:40Z</time>
      </trkpt>
      <trkpt lat="50.858679581433535" lon="13.06493810378015">
        <ele>311</ele>
        <time>2026-08-29T13:23:41Z</time>
      </trkpt>
      <trkpt lat="50.858669355511665" lon="13.064978504553437">
        <ele>311</ele>
        <time>2026-08-29T13:23:42Z</time>
      </trkpt>
      <trkpt lat="50.85865686647594" lon="13.065018402412534">
        <ele>311</ele>
        <time>2026-08-29T13:23:43Z</time>
      </trkpt>
      <trkpt lat="50.858646389096975" lon="13.065062742680311">
        <ele>311</ele>
        <time>2026-08-29T13:23:44Z</time>
      </trkpt>
      <trkpt lat="50.858638929203153" lon="13.065103478729725">
        <ele>311</ele>
        <time>2026-08-29T13:23:45Z</time>
      </trkpt>
      <trkpt lat="50.858624679967761" lon="13.065142538398504">
        <ele>311</ele>
        <time>2026-08-29T13:23:46Z</time>
      </trkpt>
      <trkpt lat="50.858608670532703" lon="13.065187716856599">
        <ele>311</ele>
        <time>2026-08-29T13:23:47Z</time>
      </trkpt>
      <trkpt lat="50.858592828735709" lon="13.065234068781137">
        <ele>311</ele>
        <time>2026-08-29T13:23:48Z</time>
      </trkpt>
      <trkpt lat="50.858559887856245" lon="13.065266590565443">
        <ele>312</ele>
        <time>2026-08-29T13:23:49Z</time>
      </trkpt>
      <trkpt lat="50.858515715226531" lon="13.065257873386145">
        <ele>312</ele>
        <time>2026-08-29T13:23:50Z</time>
      </trkpt>
      <trkpt lat="50.858469950035214" lon="13.065220322459936">
        <ele>311</ele>
        <time>2026-08-29T13:23:51Z</time>
      </trkpt>
      <trkpt lat="50.858429381623864" lon="13.065183609724045">
        <ele>312</ele>
        <time>2026-08-29T13:23:52Z</time>
      </trkpt>
      <trkpt lat="50.858387723565102" lon="13.065156955271959">
        <ele>312</ele>
        <time>2026-08-29T13:23:53Z</time>
      </trkpt>
      <trkpt lat="50.858350424095988" lon="13.065121499821544">
        <ele>311</ele>
        <time>2026-08-29T13:23:54Z</time>
      </trkpt>
      <trkpt lat="50.858305916190147" lon="13.065090905874968">
        <ele>311</ele>
        <time>2026-08-29T13:23:55Z</time>
      </trkpt>
      <trkpt lat="50.858260150998831" lon="13.065060563385487">
        <ele>312</ele>
        <time>2026-08-29T13:23:56Z</time>
      </trkpt>
      <trkpt lat="50.858213631436229" lon="13.065042123198509">
        <ele>312</ele>
        <time>2026-08-29T13:23:57Z</time>
      </trkpt>
      <trkpt lat="50.858171889558434" lon="13.065018486231565">
        <ele>312</ele>
        <time>2026-08-29T13:23:58Z</time>
      </trkpt>
      <trkpt lat="50.858132662251592" lon="13.065004572272301">
        <ele>312</ele>
        <time>2026-08-29T13:23:59Z</time>
      </trkpt>
      <trkpt lat="50.858094189316034" lon="13.064987305551767">
        <ele>312</ele>
        <time>2026-08-29T13:24:00Z</time>
      </trkpt>
      <trkpt lat="50.858054291456938" lon="13.064960818737745">
        <ele>312</ele>
        <time>2026-08-29T13:24:01Z</time>
      </trkpt>
      <trkpt lat="50.858015064150095" lon="13.064927961677313">
        <ele>311</ele>
        <time>2026-08-29T13:24:02Z</time>
      </trkpt>
      <trkpt lat="50.857976172119379" lon="13.064904492348433">
        <ele>311</ele>
        <time>2026-08-29T13:24:03Z</time>
      </trkpt>
      <trkpt lat="50.857931664213538" lon="13.064883453771472">
        <ele>311</ele>
        <time>2026-08-29T13:24:04Z</time>
      </trkpt>
      <trkpt lat="50.857886988669634" lon="13.064856883138418">
        <ele>312</ele>
        <time>2026-08-29T13:24:05Z</time>
      </trkpt>
      <trkpt lat="50.85784574970603" lon="13.064828887581825">
        <ele>311</ele>
        <time>2026-08-29T13:24:06Z</time>
      </trkpt>
      <trkpt lat="50.857805851846933" lon="13.064801059663296">
        <ele>311</ele>
        <time>2026-08-29T13:24:07Z</time>
      </trkpt>
      <trkpt lat="50.857766959816217" lon="13.064768202602863">
        <ele>311</ele>
        <time>2026-08-29T13:24:08Z</time>
      </trkpt>
      <trkpt lat="50.857724798843265" lon="13.064747666940093">
        <ele>311</ele>
        <time>2026-08-29T13:24:09Z</time>
      </trkpt>
      <trkpt lat="50.857675848528743" lon="13.064741967245936">
        <ele>311</ele>
        <time>2026-08-29T13:24:10Z</time>
      </trkpt>
      <trkpt lat="50.857632681727409" lon="13.064738782122731">
        <ele>310</ele>
        <time>2026-08-29T13:24:11Z</time>
      </trkpt>
      <trkpt lat="50.85758725181222" lon="13.064737105742097">
        <ele>310</ele>
        <time>2026-08-29T13:24:12Z</time>
      </trkpt>
      <trkpt lat="50.857542157173157" lon="13.064738949760795">
        <ele>311</ele>
        <time>2026-08-29T13:24:13Z</time>
      </trkpt>
      <trkpt lat="50.857496559619904" lon="13.064749091863632">
        <ele>311</ele>
        <time>2026-08-29T13:24:14Z</time>
      </trkpt>
      <trkpt lat="50.857455236837268" lon="13.064754875376821">
        <ele>310</ele>
        <time>2026-08-29T13:24:15Z</time>
      </trkpt>
      <trkpt lat="50.857413578778505" lon="13.064780691638589">
        <ele>310</ele>
        <time>2026-08-29T13:24:16Z</time>
      </trkpt>
      <trkpt lat="50.85737518966198" lon="13.064820086583495">
        <ele>310</ele>
        <time>2026-08-29T13:24:17Z</time>
      </trkpt>
      <trkpt lat="50.857329424470663" lon="13.0648491717875">
        <ele>310</ele>
        <time>2026-08-29T13:24:18Z</time>
      </trkpt>
      <trkpt lat="50.857286509126425" lon="13.064881609752774">
        <ele>311</ele>
        <time>2026-08-29T13:24:19Z</time>
      </trkpt>
      <trkpt lat="50.857243677601218" lon="13.06492536328733">
        <ele>311</ele>
        <time>2026-08-29T13:24:20Z</time>
      </trkpt>
      <trkpt lat="50.857202941551805" lon="13.064972469583154">
        <ele>311</ele>
        <time>2026-08-29T13:24:21Z</time>
      </trkpt>
      <trkpt lat="50.857167989015579" lon="13.065016893669963">
        <ele>311</ele>
        <time>2026-08-29T13:24:22Z</time>
      </trkpt>
      <trkpt lat="50.857133287936449" lon="13.065065760165453">
        <ele>310</ele>
        <time>2026-08-29T13:24:23Z</time>
      </trkpt>
      <trkpt lat="50.857095820829272" lon="13.065110854804516">
        <ele>310</ele>
        <time>2026-08-29T13:24:24Z</time>
      </trkpt>
      <trkpt lat="50.857056509703398" lon="13.065150752663612">
        <ele>311</ele>
        <time>2026-08-29T13:24:25Z</time>
      </trkpt>
      <trkpt lat="50.857021808624268" lon="13.06518922559917">
        <ele>311</ele>
        <time>2026-08-29T13:24:26Z</time>
      </trkpt>
      <trkpt lat="50.85698283277452" lon="13.065211940556765">
        <ele>311</ele>
        <time>2026-08-29T13:24:27Z</time>
      </trkpt>
      <trkpt lat="50.856945617124438" lon="13.065213616937399">
        <ele>312</ele>
        <time>2026-08-29T13:24:28Z</time>
      </trkpt>
      <trkpt lat="50.85691150277853" lon="13.065201295539737">
        <ele>312</ele>
        <time>2026-08-29T13:24:29Z</time>
      </trkpt>
      <trkpt lat="50.856886524707079" lon="13.065204145386815">
        <ele>312</ele>
        <time>2026-08-29T13:24:30Z</time>
      </trkpt>
      <trkpt lat="50.856864815577865" lon="13.065210850909352">
        <ele>312</ele>
        <time>2026-08-29T13:24:31Z</time>
      </trkpt>
      <trkpt lat="50.856845872476697" lon="13.065223172307014">
        <ele>312</ele>
        <time>2026-08-29T13:24:32Z</time>
      </trkpt>
      <trkpt lat="50.856824079528451" lon="13.065228620544076">
        <ele>312</ele>
        <time>2026-08-29T13:24:33Z</time>
      </trkpt>
      <trkpt lat="50.856800442561507" lon="13.065237002447248">
        <ele>312</ele>
        <time>2026-08-29T13:24:34Z</time>
      </trkpt>
      <trkpt lat="50.856780409812927" lon="13.065244127064943">
        <ele>312</ele>
        <time>2026-08-29T13:24:35Z</time>
      </trkpt>
      <trkpt lat="50.85676247254014" lon="13.06524932384491">
        <ele>312</ele>
        <time>2026-08-29T13:24:36Z</time>
      </trkpt>
      <trkpt lat="50.856752581894398" lon="13.065252508968115">
        <ele>312</ele>
        <time>2026-08-29T13:24:37Z</time>
      </trkpt>
      <trkpt lat="50.856749648228288" lon="13.065255526453257">
        <ele>312</ele>
        <time>2026-08-29T13:24:38Z</time>
      </trkpt>
      <trkpt lat="50.856754593551159" lon="13.065251000225544">
        <ele>312</ele>
        <time>2026-08-29T13:24:39Z</time>
      </trkpt>
      <trkpt lat="50.85675367154181" lon="13.065243791788816">
        <ele>312</ele>
        <time>2026-08-29T13:24:40Z</time>
      </trkpt>
      <trkpt lat="50.856753839179873" lon="13.065243707969785">
        <ele>312</ele>
        <time>2026-08-29T13:24:41Z</time>
      </trkpt>
      <trkpt lat="50.856754090636969" lon="13.065243707969785">
        <ele>312</ele>
        <time>2026-08-29T13:24:42Z</time>
      </trkpt>
      <trkpt lat="50.856755180284381" lon="13.065250413492322">
        <ele>312</ele>
        <time>2026-08-29T13:24:43Z</time>
      </trkpt>
      <trkpt lat="50.856759371235967" lon="13.06525812484324">
        <ele>312</ele>
        <time>2026-08-29T13:24:44Z</time>
      </trkpt>
      <trkpt lat="50.856765741482377" lon="13.065278409048915">
        <ele>311</ele>
        <time>2026-08-29T13:24:45Z</time>
      </trkpt>
      <trkpt lat="50.856765741482377" lon="13.065284444019198">
        <ele>311</ele>
        <time>2026-08-29T13:24:46Z</time>
      </trkpt>
      <trkpt lat="50.856763394549489" lon="13.065280169248581">
        <ele>312</ele>
        <time>2026-08-29T13:24:47Z</time>
      </trkpt>
      <trkpt lat="50.856755850836635" lon="13.065270613878965">
        <ele>312</ele>
        <time>2026-08-29T13:24:48Z</time>
      </trkpt>
      <trkpt lat="50.856755934655666" lon="13.065270027145743">
        <ele>312</ele>
        <time>2026-08-29T13:24:49Z</time>
      </trkpt>
      <trkpt lat="50.856755934655666" lon="13.065269440412521">
        <ele>312</ele>
        <time>2026-08-29T13:24:50Z</time>
      </trkpt>
      <trkpt lat="50.856756018474698" lon="13.065269105136395">
        <ele>312</ele>
        <time>2026-08-29T13:24:51Z</time>
      </trkpt>
      <trkpt lat="50.856756018474698" lon="13.065268518403172">
        <ele>312</ele>
        <time>2026-08-29T13:24:52Z</time>
      </trkpt>
      <trkpt lat="50.856755850836635" lon="13.065268266946077">
        <ele>312</ele>
        <time>2026-08-29T13:24:53Z</time>
      </trkpt>
      <trkpt lat="50.856755767017603" lon="13.065268183127046">
        <ele>312</ele>
        <time>2026-08-29T13:24:54Z</time>
      </trkpt>
      <trkpt lat="50.856755599379539" lon="13.065268350765109">
        <ele>312</ele>
        <time>2026-08-29T13:24:55Z</time>
      </trkpt>
      <trkpt lat="50.856755431741476" lon="13.065268099308014">
        <ele>312</ele>
        <time>2026-08-29T13:24:56Z</time>
      </trkpt>
      <trkpt lat="50.856755431741476" lon="13.065268266946077">
        <ele>312</ele>
        <time>2026-08-29T13:24:57Z</time>
      </trkpt>
      <trkpt lat="50.856754761189222" lon="13.065268015488982">
        <ele>312</ele>
        <time>2026-08-29T13:24:58Z</time>
      </trkpt>
      <trkpt lat="50.856754509732127" lon="13.065268183127046">
        <ele>312</ele>
        <time>2026-08-29T13:24:59Z</time>
      </trkpt>
      <trkpt lat="50.856754258275032" lon="13.065268350765109">
        <ele>312</ele>
        <time>2026-08-29T13:25:00Z</time>
      </trkpt>
      <trkpt lat="50.856754425913095" lon="13.065268434584141">
        <ele>312</ele>
        <time>2026-08-29T13:25:01Z</time>
      </trkpt>
      <trkpt lat="50.856754258275032" lon="13.065268769860268">
        <ele>312</ele>
        <time>2026-08-29T13:25:02Z</time>
      </trkpt>
      <trkpt lat="50.856754174456" lon="13.06526935659349">
        <ele>312</ele>
        <time>2026-08-29T13:25:03Z</time>
      </trkpt>
      <trkpt lat="50.856754090636969" lon="13.065269608050585">
        <ele>312</ele>
        <time>2026-08-29T13:25:04Z</time>
      </trkpt>
      <trkpt lat="50.856754006817937" lon="13.06526985950768">
        <ele>312</ele>
        <time>2026-08-29T13:25:05Z</time>
      </trkpt>
      <trkpt lat="50.856753922998905" lon="13.065270027145743">
        <ele>312</ele>
        <time>2026-08-29T13:25:06Z</time>
      </trkpt>
      <trkpt lat="50.856753839179873" lon="13.065270278602839">
        <ele>312</ele>
        <time>2026-08-29T13:25:07Z</time>
      </trkpt>
      <trkpt lat="50.856753839179873" lon="13.065270697697997">
        <ele>312</ele>
        <time>2026-08-29T13:25:08Z</time>
      </trkpt>
      <trkpt lat="50.856755431741476" lon="13.065265836194158">
        <ele>312</ele>
        <time>2026-08-29T13:25:09Z</time>
      </trkpt>
      <trkpt lat="50.85675367154181" lon="13.065265081822872">
        <ele>313</ele>
        <time>2026-08-29T13:25:10Z</time>
      </trkpt>
      <trkpt lat="50.856752414256334" lon="13.065271200612187">
        <ele>313</ele>
        <time>2026-08-29T13:25:11Z</time>
      </trkpt>
      <trkpt lat="50.856753839179873" lon="13.065271116793156">
        <ele>313</ele>
        <time>2026-08-29T13:25:12Z</time>
      </trkpt>
      <trkpt lat="50.856753839179873" lon="13.065270949155092">
        <ele>313</ele>
        <time>2026-08-29T13:25:13Z</time>
      </trkpt>
      <trkpt lat="50.856753922998905" lon="13.065270446240902">
        <ele>313</ele>
        <time>2026-08-29T13:25:14Z</time>
      </trkpt>
      <trkpt lat="50.856760879978538" lon="13.065258543938398">
        <ele>312</ele>
        <time>2026-08-29T13:25:15Z</time>
      </trkpt>
      <trkpt lat="50.856770351529121" lon="13.065254688262939">
        <ele>312</ele>
        <time>2026-08-29T13:25:16Z</time>
      </trkpt>
      <trkpt lat="50.856771189719439" lon="13.065244294703007">
        <ele>312</ele>
        <time>2026-08-29T13:25:17Z</time>
      </trkpt>
      <trkpt lat="50.856771944090724" lon="13.065245132893324">
        <ele>312</ele>
        <time>2026-08-29T13:25:18Z</time>
      </trkpt>
      <trkpt lat="50.856775548309088" lon="13.065245887264609">
        <ele>312</ele>
        <time>2026-08-29T13:25:19Z</time>
      </trkpt>
      <trkpt lat="50.856778817251325" lon="13.065244294703007">
        <ele>312</ele>
        <time>2026-08-29T13:25:20Z</time>
      </trkpt>
      <trkpt lat="50.856782170012593" lon="13.065248653292656">
        <ele>311</ele>
        <time>2026-08-29T13:25:21Z</time>
      </trkpt>
      <trkpt lat="50.856790635734797" lon="13.065254017710686">
        <ele>312</ele>
        <time>2026-08-29T13:25:22Z</time>
      </trkpt>
      <trkpt lat="50.856800777837634" lon="13.065261226147413">
        <ele>312</ele>
        <time>2026-08-29T13:25:23Z</time>
      </trkpt>
      <trkpt lat="50.856804633513093" lon="13.065262148156762">
        <ele>312</ele>
        <time>2026-08-29T13:25:24Z</time>
      </trkpt>
      <trkpt lat="50.856798179447651" lon="13.065266171470284">
        <ele>311</ele>
        <time>2026-08-29T13:25:25Z</time>
      </trkpt>
      <trkpt lat="50.856796000152826" lon="13.06525569409132">
        <ele>312</ele>
        <time>2026-08-29T13:25:26Z</time>
      </trkpt>
      <trkpt lat="50.856794659048319" lon="13.065254772081971">
        <ele>313</ele>
        <time>2026-08-29T13:25:27Z</time>
      </trkpt>
      <trkpt lat="50.856802789494395" lon="13.065253682434559">
        <ele>313</ele>
        <time>2026-08-29T13:25:28Z</time>
      </trkpt>
      <trkpt lat="50.856802118942142" lon="13.065249910578132">
        <ele>313</ele>
        <time>2026-08-29T13:25:29Z</time>
      </trkpt>
      <trkpt lat="50.856799939647317" lon="13.065253011882305">
        <ele>313</ele>
        <time>2026-08-29T13:25:30Z</time>
      </trkpt>
      <trkpt lat="50.856804214417934" lon="13.065251335501671">
        <ele>313</ele>
        <time>2026-08-29T13:25:31Z</time>
      </trkpt>
      <trkpt lat="50.856814691796899" lon="13.065258292481303">
        <ele>312</ele>
        <time>2026-08-29T13:25:32Z</time>
      </trkpt>
      <trkpt lat="50.85681620053947" lon="13.065262818709016">
        <ele>313</ele>
        <time>2026-08-29T13:25:33Z</time>
      </trkpt>
      <trkpt lat="50.856827348470688" lon="13.065263321623206">
        <ele>313</ele>
        <time>2026-08-29T13:25:34Z</time>
      </trkpt>
      <trkpt lat="50.856834389269352" lon="13.065255526453257">
        <ele>313</ele>
        <time>2026-08-29T13:25:35Z</time>
      </trkpt>
      <trkpt lat="50.856840256601572" lon="13.065246557816863">
        <ele>313</ele>
        <time>2026-08-29T13:25:36Z</time>
      </trkpt>
      <trkpt lat="50.856855344027281" lon="13.065231805667281">
        <ele>313</ele>
        <time>2026-08-29T13:25:37Z</time>
      </trkpt>
      <trkpt lat="50.856878897175193" lon="13.06521805934608">
        <ele>313</ele>
        <time>2026-08-29T13:25:38Z</time>
      </trkpt>
      <trkpt lat="50.856904629617929" lon="13.065209509804845">
        <ele>313</ele>
        <time>2026-08-29T13:25:39Z</time>
      </trkpt>
      <trkpt lat="50.856927009299397" lon="13.065196350216866">
        <ele>313</ele>
        <time>2026-08-29T13:25:40Z</time>
      </trkpt>
      <trkpt lat="50.856946036219597" lon="13.06517455726862">
        <ele>313</ele>
        <time>2026-08-29T13:25:41Z</time>
      </trkpt>
      <trkpt lat="50.856973780319095" lon="13.065163912251592">
        <ele>313</ele>
        <time>2026-08-29T13:25:42Z</time>
      </trkpt>
      <trkpt lat="50.856995405629277" lon="13.06515259668231">
        <ele>313</ele>
        <time>2026-08-29T13:25:43Z</time>
      </trkpt>
      <trkpt lat="50.857024993747473" lon="13.065135581418872">
        <ele>313</ele>
        <time>2026-08-29T13:25:44Z</time>
      </trkpt>
      <trkpt lat="50.857049720361829" lon="13.065115883946419">
        <ele>312</ele>
        <time>2026-08-29T13:25:45Z</time>
      </trkpt>
      <trkpt lat="50.85708643309772" lon="13.065081015229225">
        <ele>312</ele>
        <time>2026-08-29T13:25:46Z</time>
      </trkpt>
      <trkpt lat="50.857115685939789" lon="13.065047990530729">
        <ele>312</ele>
        <time>2026-08-29T13:25:47Z</time>
      </trkpt>
      <trkpt lat="50.857158182188869" lon="13.065020246431231">
        <ele>312</ele>
        <time>2026-08-29T13:25:48Z</time>
      </trkpt>
      <trkpt lat="50.857185758650303" lon="13.064993089064956">
        <ele>312</ele>
        <time>2026-08-29T13:25:49Z</time>
      </trkpt>
      <trkpt lat="50.857218699529767" lon="13.064956376329064">
        <ele>311</ele>
        <time>2026-08-29T13:25:50Z</time>
      </trkpt>
      <trkpt lat="50.857248287647963" lon="13.064924357458949">
        <ele>311</ele>
        <time>2026-08-29T13:25:51Z</time>
      </trkpt>
      <trkpt lat="50.857279719784856" lon="13.064893931150436">
        <ele>312</ele>
        <time>2026-08-29T13:25:52Z</time>
      </trkpt>
      <trkpt lat="50.857308721169829" lon="13.064866438508034">
        <ele>312</ele>
        <time>2026-08-29T13:25:53Z</time>
      </trkpt>
      <trkpt lat="50.8573361299932" lon="13.064843220636249">
        <ele>312</ele>
        <time>2026-08-29T13:25:54Z</time>
      </trkpt>
      <trkpt lat="50.8573585934937" lon="13.064822433516383">
        <ele>312</ele>
        <time>2026-08-29T13:25:55Z</time>
      </trkpt>
      <trkpt lat="50.857388852164149" lon="13.064807429909706">
        <ele>312</ele>
        <time>2026-08-29T13:25:56Z</time>
      </trkpt>
      <trkpt lat="50.857420787215233" lon="13.064786642789841">
        <ele>312</ele>
        <time>2026-08-29T13:25:57Z</time>
      </trkpt>
      <trkpt lat="50.857452051714063" lon="13.064766777679324">
        <ele>312</ele>
        <time>2026-08-29T13:25:58Z</time>
      </trkpt>
      <trkpt lat="50.857488932088017" lon="13.064745655283332">
        <ele>312</ele>
        <time>2026-08-29T13:25:59Z</time>
      </trkpt>
      <trkpt lat="50.857534362003207" lon="13.064738698303699">
        <ele>311</ele>
        <time>2026-08-29T13:26:00Z</time>
      </trkpt>
      <trkpt lat="50.857576103881001" lon="13.064734591171145">
        <ele>311</ele>
        <time>2026-08-29T13:26:01Z</time>
      </trkpt>
      <trkpt lat="50.857613487169147" lon="13.064736435189843">
        <ele>311</ele>
        <time>2026-08-29T13:26:02Z</time>
      </trkpt>
      <trkpt lat="50.857654977589846" lon="13.06473626755178">
        <ele>311</ele>
        <time>2026-08-29T13:26:03Z</time>
      </trkpt>
      <trkpt lat="50.85769621655345" lon="13.064742805436254">
        <ele>311</ele>
        <time>2026-08-29T13:26:04Z</time>
      </trkpt>
      <trkpt lat="50.857732091099024" lon="13.064746158197522">
        <ele>311</ele>
        <time>2026-08-29T13:26:05Z</time>
      </trkpt>
      <trkpt lat="50.857772240415215" lon="13.064754540100694">
        <ele>311</ele>
        <time>2026-08-29T13:26:06Z</time>
      </trkpt>
      <trkpt lat="50.857809958979487" lon="13.064763424918056">
        <ele>311</ele>
        <time>2026-08-29T13:26:07Z</time>
      </trkpt>
      <trkpt lat="50.857849940657616" lon="13.064780775457621">
        <ele>311</ele>
        <time>2026-08-29T13:26:08Z</time>
      </trkpt>
      <trkpt lat="50.857889167964458" lon="13.064809022471309">
        <ele>312</ele>
        <time>2026-08-29T13:26:09Z</time>
      </trkpt>
      <trkpt lat="50.857927808538079" lon="13.064847243949771">
        <ele>312</ele>
        <time>2026-08-29T13:26:10Z</time>
      </trkpt>
      <trkpt lat="50.857972400262952" lon="13.064873814582825">
        <ele>312</ele>
        <time>2026-08-29T13:26:11Z</time>
      </trkpt>
      <trkpt lat="50.858012717217207" lon="13.064898122102022">
        <ele>312</ele>
        <time>2026-08-29T13:26:12Z</time>
      </trkpt>
      <trkpt lat="50.858059236779809" lon="13.064931398257613">
        <ele>311</ele>
        <time>2026-08-29T13:26:13Z</time>
      </trkpt>
      <trkpt lat="50.85810081101954" lon="13.064958807080984">
        <ele>312</ele>
        <time>2026-08-29T13:26:14Z</time>
      </trkpt>
      <trkpt lat="50.858139367774129" lon="13.064983617514372">
        <ele>312</ele>
        <time>2026-08-29T13:26:15Z</time>
      </trkpt>
      <trkpt lat="50.858177002519369" lon="13.065010355785489">
        <ele>312</ele>
        <time>2026-08-29T13:26:16Z</time>
      </trkpt>
      <trkpt lat="50.858216900378466" lon="13.065036339685321">
        <ele>312</ele>
        <time>2026-08-29T13:26:17Z</time>
      </trkpt>
      <trkpt lat="50.858254032209516" lon="13.06506559252739">
        <ele>312</ele>
        <time>2026-08-29T13:26:18Z</time>
      </trkpt>
      <trkpt lat="50.85829677991569" lon="13.065089983865619">
        <ele>312</ele>
        <time>2026-08-29T13:26:19Z</time>
      </trkpt>
      <trkpt lat="50.858337851241231" lon="13.065112782642245">
        <ele>312</ele>
        <time>2026-08-29T13:26:20Z</time>
      </trkpt>
      <trkpt lat="50.858377162367105" lon="13.065148824825883">
        <ele>312</ele>
        <time>2026-08-29T13:26:21Z</time>
      </trkpt>
      <trkpt lat="50.858414880931377" lon="13.065173886716366">
        <ele>312</ele>
        <time>2026-08-29T13:26:22Z</time>
      </trkpt>
      <trkpt lat="50.858453521504998" lon="13.065204145386815">
        <ele>311</ele>
        <time>2026-08-29T13:26:23Z</time>
      </trkpt>
      <trkpt lat="50.858488641679287" lon="13.065230045467615">
        <ele>312</ele>
        <time>2026-08-29T13:26:24Z</time>
      </trkpt>
      <trkpt lat="50.858527282252908" lon="13.065257705748081">
        <ele>311</ele>
        <time>2026-08-29T13:26:25Z</time>
      </trkpt>
      <trkpt lat="50.858560809865594" lon="13.065275475382805">
        <ele>311</ele>
        <time>2026-08-29T13:26:26Z</time>
      </trkpt>
      <trkpt lat="50.858595427125692" lon="13.065296011045575">
        <ele>311</ele>
        <time>2026-08-29T13:26:27Z</time>
      </trkpt>
      <trkpt lat="50.858626691624522" lon="13.065313529223204">
        <ele>312</ele>
        <time>2026-08-29T13:26:28Z</time>
      </trkpt>
      <trkpt lat="50.858658961951733" lon="13.065330712124705">
        <ele>311</ele>
        <time>2026-08-29T13:26:29Z</time>
      </trkpt>
      <trkpt lat="50.85869500413537" lon="13.065353175625205">
        <ele>311</ele>
        <time>2026-08-29T13:26:30Z</time>
      </trkpt>
      <trkpt lat="50.858731968328357" lon="13.065379075706005">
        <ele>311</ele>
        <time>2026-08-29T13:26:31Z</time>
      </trkpt>
      <trkpt lat="50.858768848702312" lon="13.065395588055253">
        <ele>311</ele>
        <time>2026-08-29T13:26:32Z</time>
      </trkpt>
      <trkpt lat="50.858809752389789" lon="13.065420649945736">
        <ele>311</ele>
        <time>2026-08-29T13:26:33Z</time>
      </trkpt>
      <trkpt lat="50.858857110142708" lon="13.065443700179458">
        <ele>311</ele>
        <time>2026-08-29T13:26:34Z</time>
      </trkpt>
      <trkpt lat="50.858901450410485" lon="13.065455686300993">
        <ele>310</ele>
        <time>2026-08-29T13:26:35Z</time>
      </trkpt>
      <trkpt lat="50.858944030478597" lon="13.065463732928038">
        <ele>310</ele>
        <time>2026-08-29T13:26:36Z</time>
      </trkpt>
      <trkpt lat="50.858989292755723" lon="13.065486783161759">
        <ele>311</ele>
        <time>2026-08-29T13:26:37Z</time>
      </trkpt>
      <trkpt lat="50.859031118452549" lon="13.065513269975781">
        <ele>311</ele>
        <time>2026-08-29T13:26:38Z</time>
      </trkpt>
      <trkpt lat="50.85907218977809" lon="13.065546294674277">
        <ele>311</ele>
        <time>2026-08-29T13:26:39Z</time>
      </trkpt>
      <trkpt lat="50.859116278588772" lon="13.065589964389801">
        <ele>311</ele>
        <time>2026-08-29T13:26:40Z</time>
      </trkpt>
      <trkpt lat="50.859150225296617" lon="13.065644362941384">
        <ele>312</ele>
        <time>2026-08-29T13:26:41Z</time>
      </trkpt>
      <trkpt lat="50.85918752476573" lon="13.065686691552401">
        <ele>312</ele>
        <time>2026-08-29T13:26:42Z</time>
      </trkpt>
      <trkpt lat="50.859220381826162" lon="13.065735138952732">
        <ele>312</ele>
        <time>2026-08-29T13:26:43Z</time>
      </trkpt>
      <trkpt lat="50.859254077076912" lon="13.065781909972429">
        <ele>312</ele>
        <time>2026-08-29T13:26:44Z</time>
      </trkpt>
      <trkpt lat="50.859280647709966" lon="13.065827926620841">
        <ele>312</ele>
        <time>2026-08-29T13:26:45Z</time>
      </trkpt>
      <trkpt lat="50.859313337132335" lon="13.065869333222508">
        <ele>312</ele>
        <time>2026-08-29T13:26:46Z</time>
      </trkpt>
      <trkpt lat="50.859338818117976" lon="13.06590068154037">
        <ele>313</ele>
        <time>2026-08-29T13:26:47Z</time>
      </trkpt>
      <trkpt lat="50.85935901850462" lon="13.065933706238866">
        <ele>313</ele>
        <time>2026-08-29T13:26:48Z</time>
      </trkpt>
      <trkpt lat="50.859363460913301" lon="13.065968658775091">
        <ele>313</ele>
        <time>2026-08-29T13:26:49Z</time>
      </trkpt>
      <trkpt lat="50.859345607459545" lon="13.066003695130348">
        <ele>313</ele>
        <time>2026-08-29T13:26:50Z</time>
      </trkpt>
      <trkpt lat="50.859318617731333" lon="13.06602431461215">
        <ele>312</ele>
        <time>2026-08-29T13:26:51Z</time>
      </trkpt>
      <trkpt lat="50.85929162800312" lon="13.066045856103301">
        <ele>312</ele>
        <time>2026-08-29T13:26:52Z</time>
      </trkpt>
      <trkpt lat="50.859264805912971" lon="13.066075360402465">
        <ele>312</ele>
        <time>2026-08-29T13:26:53Z</time>
      </trkpt>
      <trkpt lat="50.859232200309634" lon="13.066107798367739">
        <ele>312</ele>
        <time>2026-08-29T13:26:54Z</time>
      </trkpt>
      <trkpt lat="50.859199678525329" lon="13.066131770610809">
        <ele>312</ele>
        <time>2026-08-29T13:26:55Z</time>
      </trkpt>
      <trkpt lat="50.859171682968736" lon="13.066155575215816">
        <ele>312</ele>
        <time>2026-08-29T13:26:56Z</time>
      </trkpt>
      <trkpt lat="50.859136981889606" lon="13.066177787259221">
        <ele>312</ele>
        <time>2026-08-29T13:26:57Z</time>
      </trkpt>
      <trkpt lat="50.859104041010141" lon="13.066205447539687">
        <ele>312</ele>
        <time>2026-08-29T13:26:58Z</time>
      </trkpt>
      <trkpt lat="50.859070429578424" lon="13.066227994859219">
        <ele>312</ele>
        <time>2026-08-29T13:26:59Z</time>
      </trkpt>
      <trkpt lat="50.85903799161315" lon="13.066255738958716">
        <ele>312</ele>
        <time>2026-08-29T13:27:00Z</time>
      </trkpt>
      <trkpt lat="50.859006810933352" lon="13.066283231601119">
        <ele>312</ele>
        <time>2026-08-29T13:27:01Z</time>
      </trkpt>
      <trkpt lat="50.858975630253553" lon="13.066311897709966">
        <ele>313</ele>
        <time>2026-08-29T13:27:02Z</time>
      </trkpt>
      <trkpt lat="50.858943862840533" lon="13.066335450857878">
        <ele>313</ele>
        <time>2026-08-29T13:27:03Z</time>
      </trkpt>
      <trkpt lat="50.858916370198131" lon="13.066378533840179">
        <ele>314</ele>
        <time>2026-08-29T13:27:04Z</time>
      </trkpt>
      <trkpt lat="50.858886698260903" lon="13.066412145271897">
        <ele>314</ele>
        <time>2026-08-29T13:27:05Z</time>
      </trkpt>
      <trkpt lat="50.858850488439202" lon="13.066436285153031">
        <ele>314</ele>
        <time>2026-08-29T13:27:06Z</time>
      </trkpt>
      <trkpt lat="50.858817966654897" lon="13.066483810544014">
        <ele>314</ele>
        <time>2026-08-29T13:27:07Z</time>
      </trkpt>
      <trkpt lat="50.858780751004815" lon="13.066520690917969">
        <ele>314</ele>
        <time>2026-08-29T13:27:08Z</time>
      </trkpt>
      <trkpt lat="50.858751079067588" lon="13.066552542150021">
        <ele>313</ele>
        <time>2026-08-29T13:27:09Z</time>
      </trkpt>
      <trkpt lat="50.858720233663917" lon="13.066579028964043">
        <ele>313</ele>
        <time>2026-08-29T13:27:10Z</time>
      </trkpt>
      <trkpt lat="50.858681844547391" lon="13.06660627014935">
        <ele>313</ele>
        <time>2026-08-29T13:27:11Z</time>
      </trkpt>
      <trkpt lat="50.858641779050231" lon="13.066628985106945">
        <ele>313</ele>
        <time>2026-08-29T13:27:12Z</time>
      </trkpt>
      <trkpt lat="50.858601043000817" lon="13.066645665094256">
        <ele>312</ele>
        <time>2026-08-29T13:27:13Z</time>
      </trkpt>
      <trkpt lat="50.858564581722021" lon="13.066662512719631">
        <ele>312</ele>
        <time>2026-08-29T13:27:14Z</time>
      </trkpt>
      <trkpt lat="50.858532059937716" lon="13.066696794703603">
        <ele>313</ele>
        <time>2026-08-29T13:27:15Z</time>
      </trkpt>
      <trkpt lat="50.858493838459253" lon="13.06672646664083">
        <ele>313</ele>
        <time>2026-08-29T13:27:16Z</time>
      </trkpt>
      <trkpt lat="50.858458718284965" lon="13.066759994253516">
        <ele>313</ele>
        <time>2026-08-29T13:27:17Z</time>
      </trkpt>
      <trkpt lat="50.858426280319691" lon="13.066797880455852">
        <ele>313</ele>
        <time>2026-08-29T13:27:18Z</time>
      </trkpt>
      <trkpt lat="50.858396692201495" lon="13.066836101934314">
        <ele>313</ele>
        <time>2026-08-29T13:27:19Z</time>
      </trkpt>
      <trkpt lat="50.85836760699749" lon="13.066885052248836">
        <ele>313</ele>
        <time>2026-08-29T13:27:20Z</time>
      </trkpt>
      <trkpt lat="50.858343131840229" lon="13.066926626488566">
        <ele>313</ele>
        <time>2026-08-29T13:27:21Z</time>
      </trkpt>
      <trkpt lat="50.858320249244571" lon="13.066979767754674">
        <ele>313</ele>
        <time>2026-08-29T13:27:22Z</time>
      </trkpt>
      <trkpt lat="50.858292421326041" lon="13.067031987011433">
        <ele>314</ele>
        <time>2026-08-29T13:27:23Z</time>
      </trkpt>
      <trkpt lat="50.858261492103338" lon="13.067086637020111">
        <ele>314</ele>
        <time>2026-08-29T13:27:24Z</time>
      </trkpt>
      <trkpt lat="50.858234250918031" lon="13.067147070541978">
        <ele>313</ele>
        <time>2026-08-29T13:27:25Z</time>
      </trkpt>
      <trkpt lat="50.858200052753091" lon="13.067198786884546">
        <ele>313</ele>
        <time>2026-08-29T13:27:26Z</time>
      </trkpt>
      <trkpt lat="50.858164681121707" lon="13.06724882684648">
        <ele>313</ele>
        <time>2026-08-29T13:27:27Z</time>
      </trkpt>
      <trkpt lat="50.858134338632226" lon="13.067301968112588">
        <ele>313</ele>
        <time>2026-08-29T13:27:28Z</time>
      </trkpt>
      <trkpt lat="50.858109025284648" lon="13.06734605692327">
        <ele>313</ele>
        <time>2026-08-29T13:27:29Z</time>
      </trkpt>
      <trkpt lat="50.858082119375467" lon="13.067397102713585">
        <ele>313</ele>
        <time>2026-08-29T13:27:30Z</time>
      </trkpt>
      <trkpt lat="50.858062421903014" lon="13.0674515850842">
        <ele>313</ele>
        <time>2026-08-29T13:27:31Z</time>
      </trkpt>
      <trkpt lat="50.858034761622548" lon="13.067504307255149">
        <ele>312</ele>
        <time>2026-08-29T13:27:32Z</time>
      </trkpt>
      <trkpt lat="50.858002323657274" lon="13.067545043304563">
        <ele>312</ele>
        <time>2026-08-29T13:27:33Z</time>
      </trkpt>
      <trkpt lat="50.857970388606191" lon="13.067596172913909">
        <ele>312</ele>
        <time>2026-08-29T13:27:34Z</time>
      </trkpt>
      <trkpt lat="50.85793468169868" lon="13.067646631971002">
        <ele>312</ele>
        <time>2026-08-29T13:27:35Z</time>
      </trkpt>
      <trkpt lat="50.857907608151436" lon="13.067698096856475">
        <ele>313</ele>
        <time>2026-08-29T13:27:36Z</time>
      </trkpt>
      <trkpt lat="50.857885479927063" lon="13.067752160131931">
        <ele>313</ele>
        <time>2026-08-29T13:27:37Z</time>
      </trkpt>
      <trkpt lat="50.857855388894677" lon="13.067806474864483">
        <ele>313</ele>
        <time>2026-08-29T13:27:38Z</time>
      </trkpt>
      <trkpt lat="50.857822364196181" lon="13.067860119044781">
        <ele>313</ele>
        <time>2026-08-29T13:27:39Z</time>
      </trkpt>
      <trkpt lat="50.857793698087335" lon="13.067909488454461">
        <ele>313</ele>
        <time>2026-08-29T13:27:40Z</time>
      </trkpt>
      <trkpt lat="50.85776075720787" lon="13.0679592769593">
        <ele>313</ele>
        <time>2026-08-29T13:27:41Z</time>
      </trkpt>
      <trkpt lat="50.857722787186503" lon="13.068005461245775">
        <ele>313</ele>
        <time>2026-08-29T13:27:42Z</time>
      </trkpt>
      <trkpt lat="50.857692947611213" lon="13.068053657189012">
        <ele>313</ele>
        <time>2026-08-29T13:27:43Z</time>
      </trkpt>
      <trkpt lat="50.857660509645939" lon="13.068107636645436">
        <ele>313</ele>
        <time>2026-08-29T13:27:44Z</time>
      </trkpt>
      <trkpt lat="50.857632178813219" lon="13.068151893094182">
        <ele>313</ele>
        <time>2026-08-29T13:27:45Z</time>
      </trkpt>
      <trkpt lat="50.857605021446943" lon="13.068204866722226">
        <ele>313</ele>
        <time>2026-08-29T13:27:46Z</time>
      </trkpt>
      <trkpt lat="50.857575349509716" lon="13.06824610568583">
        <ele>313</ele>
        <time>2026-08-29T13:27:47Z</time>
      </trkpt>
      <trkpt lat="50.857544168829918" lon="13.06827686727047">
        <ele>312</ele>
        <time>2026-08-29T13:27:48Z</time>
      </trkpt>
      <trkpt lat="50.857511479407549" lon="13.068314250558615">
        <ele>312</ele>
        <time>2026-08-29T13:27:49Z</time>
      </trkpt>
      <trkpt lat="50.857488764449954" lon="13.068355824798346">
        <ele>312</ele>
        <time>2026-08-29T13:27:50Z</time>
      </trkpt>
      <trkpt lat="50.857464289292693" lon="13.068405948579311">
        <ele>312</ele>
        <time>2026-08-29T13:27:51Z</time>
      </trkpt>
      <trkpt lat="50.857439897954464" lon="13.068459089845419">
        <ele>312</ele>
        <time>2026-08-29T13:27:52Z</time>
      </trkpt>
      <trkpt lat="50.857411902397871" lon="13.068509884178638">
        <ele>311</ele>
        <time>2026-08-29T13:27:53Z</time>
      </trkpt>
      <trkpt lat="50.857386169955134" lon="13.06855782866478">
        <ele>311</ele>
        <time>2026-08-29T13:27:54Z</time>
      </trkpt>
      <trkpt lat="50.857357252389193" lon="13.068606024608016">
        <ele>311</ele>
        <time>2026-08-29T13:27:55Z</time>
      </trkpt>
      <trkpt lat="50.857330597937107" lon="13.068658746778965">
        <ele>311</ele>
        <time>2026-08-29T13:27:56Z</time>
      </trkpt>
      <trkpt lat="50.857314169406891" lon="13.068705350160599">
        <ele>311</ele>
        <time>2026-08-29T13:27:57Z</time>
      </trkpt>
      <trkpt lat="50.857290951535106" lon="13.068755893036723">
        <ele>312</ele>
        <time>2026-08-29T13:27:58Z</time>
      </trkpt>
      <trkpt lat="50.857271086424589" lon="13.068803502246737">
        <ele>311</ele>
        <time>2026-08-29T13:27:59Z</time>
      </trkpt>
      <trkpt lat="50.857239989563823" lon="13.068854548037052">
        <ele>312</ele>
        <time>2026-08-29T13:28:00Z</time>
      </trkpt>
      <trkpt lat="50.857218950986862" lon="13.068904252722859">
        <ele>311</ele>
        <time>2026-08-29T13:28:01Z</time>
      </trkpt>
      <trkpt lat="50.857195649296045" lon="13.068956388160586">
        <ele>311</ele>
        <time>2026-08-29T13:28:02Z</time>
      </trkpt>
      <trkpt lat="50.857173269614577" lon="13.069018833339214">
        <ele>311</ele>
        <time>2026-08-29T13:28:03Z</time>
      </trkpt>
      <trkpt lat="50.857160948216915" lon="13.06907675229013">
        <ele>311</ele>
        <time>2026-08-29T13:28:04Z</time>
      </trkpt>
      <trkpt lat="50.857141921296716" lon="13.069128720089793">
        <ele>311</ele>
        <time>2026-08-29T13:28:05Z</time>
      </trkpt>
      <trkpt lat="50.857119457796216" lon="13.069178005680442">
        <ele>311</ele>
        <time>2026-08-29T13:28:06Z</time>
      </trkpt>
      <trkpt lat="50.857101269066334" lon="13.069226620718837">
        <ele>312</ele>
        <time>2026-08-29T13:28:07Z</time>
      </trkpt>
      <trkpt lat="50.857082158327103" lon="13.069280767813325">
        <ele>312</ele>
        <time>2026-08-29T13:28:08Z</time>
      </trkpt>
      <trkpt lat="50.857059275731444" lon="13.069338100031018">
        <ele>312</ele>
        <time>2026-08-29T13:28:09Z</time>
      </trkpt>
      <trkpt lat="50.85704050026834" lon="13.069396773353219">
        <ele>312</ele>
        <time>2026-08-29T13:28:10Z</time>
      </trkpt>
      <trkpt lat="50.857019294053316" lon="13.069451758638024">
        <ele>312</ele>
        <time>2026-08-29T13:28:11Z</time>
      </trkpt>
      <trkpt lat="50.85700336843729" lon="13.069505402818322">
        <ele>312</ele>
        <time>2026-08-29T13:28:12Z</time>
      </trkpt>
      <trkpt lat="50.856984090059996" lon="13.069557454437017">
        <ele>312</ele>
        <time>2026-08-29T13:28:13Z</time>
      </trkpt>
      <trkpt lat="50.856964979320765" lon="13.069615960121155">
        <ele>312</ele>
        <time>2026-08-29T13:28:14Z</time>
      </trkpt>
      <trkpt lat="50.856946958228946" lon="13.069675555452704">
        <ele>312</ele>
        <time>2026-08-29T13:28:15Z</time>
      </trkpt>
      <trkpt lat="50.856925752013922" lon="13.069731798022985">
        <ele>312</ele>
        <time>2026-08-29T13:28:16Z</time>
      </trkpt>
      <trkpt lat="50.856908401474357" lon="13.069785945117474">
        <ele>312</ele>
        <time>2026-08-29T13:28:17Z</time>
      </trkpt>
      <trkpt lat="50.856890548020601" lon="13.06984587572515">
        <ele>312</ele>
        <time>2026-08-29T13:28:18Z</time>
      </trkpt>
      <trkpt lat="50.856872778385878" lon="13.069912930950522">
        <ele>312</ele>
        <time>2026-08-29T13:28:19Z</time>
      </trkpt>
      <trkpt lat="50.856856098398566" lon="13.069969341158867">
        <ele>312</ele>
        <time>2026-08-29T13:28:20Z</time>
      </trkpt>
      <trkpt lat="50.856833970174193" lon="13.070037066936493">
        <ele>312</ele>
        <time>2026-08-29T13:28:21Z</time>
      </trkpt>
      <trkpt lat="50.856817541643977" lon="13.070092219859362">
        <ele>312</ele>
        <time>2026-08-29T13:28:22Z</time>
      </trkpt>
      <trkpt lat="50.856793401762843" lon="13.070151563733816">
        <ele>312</ele>
        <time>2026-08-29T13:28:23Z</time>
      </trkpt>
      <trkpt lat="50.856769680976868" lon="13.070211242884398">
        <ele>312</ele>
        <time>2026-08-29T13:28:24Z</time>
      </trkpt>
      <trkpt lat="50.856743613258004" lon="13.070272766053677">
        <ele>312</ele>
        <time>2026-08-29T13:28:25Z</time>
      </trkpt>
      <trkpt lat="50.856728609651327" lon="13.070332864299417">
        <ele>312</ele>
        <time>2026-08-29T13:28:26Z</time>
      </trkpt>
      <trkpt lat="50.856712348759174" lon="13.070388520136476">
        <ele>312</ele>
        <time>2026-08-29T13:28:27Z</time>
      </trkpt>
      <trkpt lat="50.856695249676704" lon="13.070446774363518">
        <ele>313</ele>
        <time>2026-08-29T13:28:28Z</time>
      </trkpt>
      <trkpt lat="50.856671612709761" lon="13.070495221763849">
        <ele>313</ele>
        <time>2026-08-29T13:28:29Z</time>
      </trkpt>
      <trkpt lat="50.856654429808259" lon="13.070553056895733">
        <ele>313</ele>
        <time>2026-08-29T13:28:30Z</time>
      </trkpt>
      <trkpt lat="50.856643281877041" lon="13.070602007210255">
        <ele>313</ele>
        <time>2026-08-29T13:28:31Z</time>
      </trkpt>
      <trkpt lat="50.856631714850664" lon="13.070649113506079">
        <ele>313</ele>
        <time>2026-08-29T13:28:32Z</time>
      </trkpt>
      <trkpt lat="50.856618722900748" lon="13.070706278085709">
        <ele>313</ele>
        <time>2026-08-29T13:28:33Z</time>
      </trkpt>
      <trkpt lat="50.856602294370532" lon="13.070757407695055">
        <ele>313</ele>
        <time>2026-08-29T13:28:34Z</time>
      </trkpt>
      <trkpt lat="50.856577400118113" lon="13.070805184543133">
        <ele>313</ele>
        <time>2026-08-29T13:28:35Z</time>
      </trkpt>
      <trkpt lat="50.856549656018615" lon="13.070840807631612">
        <ele>313</ele>
        <time>2026-08-29T13:28:36Z</time>
      </trkpt>
      <trkpt lat="50.856519732624292" lon="13.070883974432945">
        <ele>313</ele>
        <time>2026-08-29T13:28:37Z</time>
      </trkpt>
      <trkpt lat="50.856485283002257" lon="13.070919429883361">
        <ele>312</ele>
        <time>2026-08-29T13:28:38Z</time>
      </trkpt>
      <trkpt lat="50.856459131464362" lon="13.070959746837616">
        <ele>312</ele>
        <time>2026-08-29T13:28:39Z</time>
      </trkpt>
      <trkpt lat="50.856433482840657" lon="13.071003332734108">
        <ele>312</ele>
        <time>2026-08-29T13:28:40Z</time>
      </trkpt>
      <trkpt lat="50.856402385979891" lon="13.071037363260984">
        <ele>312</ele>
        <time>2026-08-29T13:28:41Z</time>
      </trkpt>
      <trkpt lat="50.856374390423298" lon="13.071072231978178">
        <ele>312</ele>
        <time>2026-08-29T13:28:42Z</time>
      </trkpt>
      <trkpt lat="50.856345891952515" lon="13.071108609437943">
        <ele>312</ele>
        <time>2026-08-29T13:28:43Z</time>
      </trkpt>
      <trkpt lat="50.85631244815886" lon="13.071141969412565">
        <ele>311</ele>
        <time>2026-08-29T13:28:44Z</time>
      </trkpt>
      <trkpt lat="50.85628554224968" lon="13.071180358529091">
        <ele>311</ele>
        <time>2026-08-29T13:28:45Z</time>
      </trkpt>
      <trkpt lat="50.856249332427979" lon="13.071210952475667">
        <ele>311</ele>
        <time>2026-08-29T13:28:46Z</time>
      </trkpt>
      <trkpt lat="50.856219828128815" lon="13.071237439289689">
        <ele>311</ele>
        <time>2026-08-29T13:28:47Z</time>
      </trkpt>
      <trkpt lat="50.856186216697097" lon="13.071262333542109">
        <ele>311</ele>
        <time>2026-08-29T13:28:48Z</time>
      </trkpt>
      <trkpt lat="50.856146737933159" lon="13.071286724880338">
        <ele>311</ele>
        <time>2026-08-29T13:28:49Z</time>
      </trkpt>
      <trkpt lat="50.856110695749521" lon="13.071303991600871">
        <ele>311</ele>
        <time>2026-08-29T13:28:50Z</time>
      </trkpt>
      <trkpt lat="50.856076329946518" lon="13.071318995207548">
        <ele>311</ele>
        <time>2026-08-29T13:28:51Z</time>
      </trkpt>
      <trkpt lat="50.85603978484869" lon="13.071332406252623">
        <ele>311</ele>
        <time>2026-08-29T13:28:52Z</time>
      </trkpt>
      <trkpt lat="50.856010112911463" lon="13.071343302726746">
        <ele>311</ele>
        <time>2026-08-29T13:28:53Z</time>
      </trkpt>
      <trkpt lat="50.855983207002282" lon="13.071341291069984">
        <ele>312</ele>
        <time>2026-08-29T13:28:54Z</time>
      </trkpt>
      <trkpt lat="50.855954959988594" lon="13.071347828954458">
        <ele>311</ele>
        <time>2026-08-29T13:28:55Z</time>
      </trkpt>
      <trkpt lat="50.855931071564555" lon="13.071360234171152">
        <ele>311</ele>
        <time>2026-08-29T13:28:56Z</time>
      </trkpt>
      <trkpt lat="50.855909110978246" lon="13.071371214464307">
        <ele>311</ele>
        <time>2026-08-29T13:28:57Z</time>
      </trkpt>
      <trkpt lat="50.855879858136177" lon="13.071378171443939">
        <ele>311</ele>
        <time>2026-08-29T13:28:58Z</time>
      </trkpt>
      <trkpt lat="50.855849431827664" lon="13.071392253041267">
        <ele>310</ele>
        <time>2026-08-29T13:28:59Z</time>
      </trkpt>
      <trkpt lat="50.855821100994945" lon="13.07140457443893">
        <ele>310</ele>
        <time>2026-08-29T13:29:00Z</time>
      </trkpt>
      <trkpt lat="50.855784555897117" lon="13.0714060831815">
        <ele>310</ele>
        <time>2026-08-29T13:29:01Z</time>
      </trkpt>
      <trkpt lat="50.855752369388938" lon="13.071430223062634">
        <ele>310</ele>
        <time>2026-08-29T13:29:02Z</time>
      </trkpt>
      <trkpt lat="50.855724290013313" lon="13.071447489783168">
        <ele>311</ele>
        <time>2026-08-29T13:29:03Z</time>
      </trkpt>
      <trkpt lat="50.855693193152547" lon="13.071421002969146">
        <ele>311</ele>
        <time>2026-08-29T13:29:04Z</time>
      </trkpt>
      <trkpt lat="50.855660000815988" lon="13.071401892229915">
        <ele>311</ele>
        <time>2026-08-29T13:29:05Z</time>
      </trkpt>
      <trkpt lat="50.855627898126841" lon="13.071405161172152">
        <ele>310</ele>
        <time>2026-08-29T13:29:06Z</time>
      </trkpt>
      <trkpt lat="50.855593783780932" lon="13.071408681571484">
        <ele>310</ele>
        <time>2026-08-29T13:29:07Z</time>
      </trkpt>
      <trkpt lat="50.855564698576927" lon="13.07142754085362">
        <ele>310</ele>
        <time>2026-08-29T13:29:08Z</time>
      </trkpt>
      <trkpt lat="50.855541229248047" lon="13.07144321501255">
        <ele>310</ele>
        <time>2026-08-29T13:29:09Z</time>
      </trkpt>
      <trkpt lat="50.85550962947309" lon="13.071444137021899">
        <ele>311</ele>
        <time>2026-08-29T13:29:10Z</time>
      </trkpt>
      <trkpt lat="50.855510551482439" lon="13.071441370993853">
        <ele>311</ele>
        <time>2026-08-29T13:29:11Z</time>
      </trkpt>
      <trkpt lat="50.855516921728849" lon="13.071440029889345">
        <ele>311</ele>
        <time>2026-08-29T13:29:12Z</time>
      </trkpt>
      <trkpt lat="50.855542486533523" lon="13.071451094001532">
        <ele>311</ele>
        <time>2026-08-29T13:29:13Z</time>
      </trkpt>
      <trkpt lat="50.855543492361903" lon="13.071464756503701">
        <ele>311</ele>
        <time>2026-08-29T13:29:14Z</time>
      </trkpt>
      <trkpt lat="50.855545084923506" lon="13.071465091779828">
        <ele>311</ele>
        <time>2026-08-29T13:29:15Z</time>
      </trkpt>
      <trkpt lat="50.855547850951552" lon="13.071467103436589">
        <ele>312</ele>
        <time>2026-08-29T13:29:16Z</time>
      </trkpt>
      <trkpt lat="50.855544498190284" lon="13.071459643542767">
        <ele>312</ele>
        <time>2026-08-29T13:29:17Z</time>
      </trkpt>
      <trkpt lat="50.855544917285442" lon="13.071459559723735">
        <ele>312</ele>
        <time>2026-08-29T13:29:18Z</time>
      </trkpt>
      <trkpt lat="50.855544917285442" lon="13.07145930826664">
        <ele>312</ele>
        <time>2026-08-29T13:29:19Z</time>
      </trkpt>
      <trkpt lat="50.855545001104474" lon="13.071458972990513">
        <ele>312</ele>
        <time>2026-08-29T13:29:20Z</time>
      </trkpt>
      <trkpt lat="50.855550449341536" lon="13.071469450369477">
        <ele>312</ele>
        <time>2026-08-29T13:29:21Z</time>
      </trkpt>
      <trkpt lat="50.855547348037362" lon="13.071466265246272">
        <ele>312</ele>
        <time>2026-08-29T13:29:22Z</time>
      </trkpt>
      <trkpt lat="50.855542067438364" lon="13.071459056809545">
        <ele>312</ele>
        <time>2026-08-29T13:29:23Z</time>
      </trkpt>
      <trkpt lat="50.855535194277763" lon="13.071454782038927">
        <ele>313</ele>
        <time>2026-08-29T13:29:24Z</time>
      </trkpt>
      <trkpt lat="50.855532260611653" lon="13.071453608572483">
        <ele>313</ele>
        <time>2026-08-29T13:29:25Z</time>
      </trkpt>
      <trkpt lat="50.855534188449383" lon="13.071455452591181">
        <ele>313</ele>
        <time>2026-08-29T13:29:26Z</time>
      </trkpt>
      <trkpt lat="50.855541732162237" lon="13.071453357115388">
        <ele>313</ele>
        <time>2026-08-29T13:29:27Z</time>
      </trkpt>
      <trkpt lat="50.855550700798631" lon="13.071447405964136">
        <ele>314</ele>
        <time>2026-08-29T13:29:28Z</time>
      </trkpt>
      <trkpt lat="50.855558998882771" lon="13.071433492004871">
        <ele>313</ele>
        <time>2026-08-29T13:29:29Z</time>
      </trkpt>
      <trkpt lat="50.855569057166576" lon="13.071418236941099">
        <ele>313</ele>
        <time>2026-08-29T13:29:30Z</time>
      </trkpt>
      <trkpt lat="50.855583222582936" lon="13.071419326588511">
        <ele>313</ele>
        <time>2026-08-29T13:29:31Z</time>
      </trkpt>
      <trkpt lat="50.855599818751216" lon="13.071415806189179">
        <ele>313</ele>
        <time>2026-08-29T13:29:32Z</time>
      </trkpt>
      <trkpt lat="50.855619851499796" lon="13.071410860866308">
        <ele>313</ele>
        <time>2026-08-29T13:29:33Z</time>
      </trkpt>
      <trkpt lat="50.855642901733518" lon="13.071409268304706">
        <ele>313</ele>
        <time>2026-08-29T13:29:34Z</time>
      </trkpt>
      <trkpt lat="50.855668298900127" lon="13.071410106495023">
        <ele>314</ele>
        <time>2026-08-29T13:29:35Z</time>
      </trkpt>
      <trkpt lat="50.855694031342864" lon="13.071418991312385">
        <ele>314</ele>
        <time>2026-08-29T13:29:36Z</time>
      </trkpt>
      <trkpt lat="50.855725798755884" lon="13.071421002969146">
        <ele>314</ele>
        <time>2026-08-29T13:29:37Z</time>
      </trkpt>
      <trkpt lat="50.855757985264063" lon="13.071418656036258">
        <ele>314</ele>
        <time>2026-08-29T13:29:38Z</time>
      </trkpt>
      <trkpt lat="50.855788411572576" lon="13.071411279961467">
        <ele>314</ele>
        <time>2026-08-29T13:29:39Z</time>
      </trkpt>
      <trkpt lat="50.855818167328835" lon="13.071400634944439">
        <ele>314</ele>
        <time>2026-08-29T13:29:40Z</time>
      </trkpt>
      <trkpt lat="50.855845911428332" lon="13.071401892229915">
        <ele>314</ele>
        <time>2026-08-29T13:29:41Z</time>
      </trkpt>
      <trkpt lat="50.856009358540177" lon="13.071383368223906">
        <ele>317</ele>
        <time>2026-08-29T13:29:45Z</time>
      </trkpt>
      <trkpt lat="50.856043891981244" lon="13.071380350738764">
        <ele>317</ele>
        <time>2026-08-29T13:29:46Z</time>
      </trkpt>
      <trkpt lat="50.856077838689089" lon="13.0713474098593">
        <ele>317</ele>
        <time>2026-08-29T13:29:47Z</time>
      </trkpt>
      <trkpt lat="50.856099715456367" lon="13.071321593597531">
        <ele>316</ele>
        <time>2026-08-29T13:29:48Z</time>
      </trkpt>
      <trkpt lat="50.856142714619637" lon="13.071293095126748">
        <ele>315</ele>
        <time>2026-08-29T13:29:49Z</time>
      </trkpt>
      <trkpt lat="50.856168949976563" lon="13.071250263601542">
        <ele>315</ele>
        <time>2026-08-29T13:29:50Z</time>
      </trkpt>
      <trkpt lat="50.856195939704776" lon="13.071223692968488">
        <ele>315</ele>
        <time>2026-08-29T13:29:51Z</time>
      </trkpt>
      <trkpt lat="50.856225360184908" lon="13.071199720725417">
        <ele>314</ele>
        <time>2026-08-29T13:29:52Z</time>
      </trkpt>
      <trkpt lat="50.856246817857027" lon="13.071169545874">
        <ele>314</ele>
        <time>2026-08-29T13:29:53Z</time>
      </trkpt>
      <trkpt lat="50.85626701824367" lon="13.07114951312542">
        <ele>313</ele>
        <time>2026-08-29T13:29:54Z</time>
      </trkpt>
      <trkpt lat="50.85628654807806" lon="13.071128139272332">
        <ele>312</ele>
        <time>2026-08-29T13:29:55Z</time>
      </trkpt>
      <trkpt lat="50.856307502835989" lon="13.071106597781181">
        <ele>312</ele>
        <time>2026-08-29T13:29:56Z</time>
      </trkpt>
      <trkpt lat="50.856335833668709" lon="13.071082038804889">
        <ele>312</ele>
        <time>2026-08-29T13:29:57Z</time>
      </trkpt>
      <trkpt lat="50.856357961893082" lon="13.071053959429264">
        <ele>312</ele>
        <time>2026-08-29T13:29:58Z</time>
      </trkpt>
      <trkpt lat="50.85638134740293" lon="13.071020096540451">
        <ele>312</ele>
        <time>2026-08-29T13:29:59Z</time>
      </trkpt>
      <trkpt lat="50.856413701549172" lon="13.07098631747067">
        <ele>311</ele>
        <time>2026-08-29T13:30:00Z</time>
      </trkpt>
      <trkpt lat="50.8564468100667" lon="13.070948095992208">
        <ele>310</ele>
        <time>2026-08-29T13:30:01Z</time>
      </trkpt>
      <trkpt lat="50.856473380699754" lon="13.070898978039622">
        <ele>309</ele>
        <time>2026-08-29T13:30:02Z</time>
      </trkpt>
      <trkpt lat="50.856496682390571" lon="13.070857068523765">
        <ele>309</ele>
        <time>2026-08-29T13:30:03Z</time>
      </trkpt>
      <trkpt lat="50.856520486995578" lon="13.070818511769176">
        <ele>310</ele>
        <time>2026-08-29T13:30:04Z</time>
      </trkpt>
      <trkpt lat="50.856543788686395" lon="13.070785822346807">
        <ele>311</ele>
        <time>2026-08-29T13:30:05Z</time>
      </trkpt>
      <trkpt lat="50.856561725959182" lon="13.07075128890574">
        <ele>311</ele>
        <time>2026-08-29T13:30:06Z</time>
      </trkpt>
      <trkpt lat="50.856582010164857" lon="13.070723796263337">
        <ele>311</ele>
        <time>2026-08-29T13:30:07Z</time>
      </trkpt>
      <trkpt lat="50.856598187237978" lon="13.070694375783205">
        <ele>311</ele>
        <time>2026-08-29T13:30:08Z</time>
      </trkpt>
      <trkpt lat="50.856619728729129" lon="13.070688676089048">
        <ele>311</ele>
        <time>2026-08-29T13:30:09Z</time>
      </trkpt>
      <trkpt lat="50.856645628809929" lon="13.070696890354156">
        <ele>311</ele>
        <time>2026-08-29T13:30:10Z</time>
      </trkpt>
      <trkpt lat="50.85665644146502" lon="13.07074936106801">
        <ele>310</ele>
        <time>2026-08-29T13:30:11Z</time>
      </trkpt>
      <trkpt lat="50.856656357645988" lon="13.070807112380862">
        <ele>310</ele>
        <time>2026-08-29T13:30:12Z</time>
      </trkpt>
      <trkpt lat="50.856630792841315" lon="13.070846004411578">
        <ele>311</ele>
        <time>2026-08-29T13:30:13Z</time>
      </trkpt>
      <trkpt lat="50.856605730950832" lon="13.070896547287703">
        <ele>311</ele>
        <time>2026-08-29T13:30:14Z</time>
      </trkpt>
      <trkpt lat="50.856579914689064" lon="13.070959495380521">
        <ele>310</ele>
        <time>2026-08-29T13:30:15Z</time>
      </trkpt>
      <trkpt lat="50.856562647968531" lon="13.071017330512404">
        <ele>311</ele>
        <time>2026-08-29T13:30:16Z</time>
      </trkpt>
      <trkpt lat="50.856540938839316" lon="13.071083463728428">
        <ele>311</ele>
        <time>2026-08-29T13:30:17Z</time>
      </trkpt>
      <trkpt lat="50.85651327855885" lon="13.07113585062325">
        <ele>312</ele>
        <time>2026-08-29T13:30:18Z</time>
      </trkpt>
      <trkpt lat="50.856495257467031" lon="13.071196787059307">
        <ele>312</ele>
        <time>2026-08-29T13:30:19Z</time>
      </trkpt>
      <trkpt lat="50.856476901099086" lon="13.07125948369503">
        <ele>312</ele>
        <time>2026-08-29T13:30:20Z</time>
      </trkpt>
      <trkpt lat="50.856462316587567" lon="13.071321845054626">
        <ele>312</ele>
        <time>2026-08-29T13:30:21Z</time>
      </trkpt>
      <trkpt lat="50.856440775096416" lon="13.071384290233254">
        <ele>312</ele>
        <time>2026-08-29T13:30:22Z</time>
      </trkpt>
      <trkpt lat="50.856422418728471" lon="13.071440029889345">
        <ele>312</ele>
        <time>2026-08-29T13:30:23Z</time>
      </trkpt>
      <trkpt lat="50.856400290504098" lon="13.071493757888675">
        <ele>312</ele>
        <time>2026-08-29T13:30:24Z</time>
      </trkpt>
      <trkpt lat="50.856380173936486" lon="13.071542037650943">
        <ele>311</ele>
        <time>2026-08-29T13:30:25Z</time>
      </trkpt>
      <trkpt lat="50.856361230835319" lon="13.07159467600286">
        <ele>311</ele>
        <time>2026-08-29T13:30:26Z</time>
      </trkpt>
      <trkpt lat="50.856339856982231" lon="13.071645805612206">
        <ele>311</ele>
        <time>2026-08-29T13:30:27Z</time>
      </trkpt>
      <trkpt lat="50.856320410966873" lon="13.07169140316546">
        <ele>311</ele>
        <time>2026-08-29T13:30:28Z</time>
      </trkpt>
      <trkpt lat="50.856302808970213" lon="13.071748735383153">
        <ele>310</ele>
        <time>2026-08-29T13:30:29Z</time>
      </trkpt>
      <trkpt lat="50.856283698230982" lon="13.071802463382483">
        <ele>311</ele>
        <time>2026-08-29T13:30:30Z</time>
      </trkpt>
      <trkpt lat="50.856264419853687" lon="13.071864824742079">
        <ele>310</ele>
        <time>2026-08-29T13:30:31Z</time>
      </trkpt>
      <trkpt lat="50.856246566399932" lon="13.071920312941074">
        <ele>311</ele>
        <time>2026-08-29T13:30:32Z</time>
      </trkpt>
      <trkpt lat="50.856226701289415" lon="13.071973621845245">
        <ele>311</ele>
        <time>2026-08-29T13:30:33Z</time>
      </trkpt>
      <trkpt lat="50.856210608035326" lon="13.072031624615192">
        <ele>311</ele>
        <time>2026-08-29T13:30:34Z</time>
      </trkpt>
      <trkpt lat="50.856191162019968" lon="13.072072444483638">
        <ele>312</ele>
        <time>2026-08-29T13:30:35Z</time>
      </trkpt>
      <trkpt lat="50.85617951117456" lon="13.072131285443902">
        <ele>312</ele>
        <time>2026-08-29T13:30:36Z</time>
      </trkpt>
      <trkpt lat="50.856158807873726" lon="13.072174536064267">
        <ele>312</ele>
        <time>2026-08-29T13:30:37Z</time>
      </trkpt>
      <trkpt lat="50.856143468990922" lon="13.072223570197821">
        <ele>312</ele>
        <time>2026-08-29T13:30:38Z</time>
      </trkpt>
      <trkpt lat="50.856127878651023" lon="13.072273777797818">
        <ele>312</ele>
        <time>2026-08-29T13:30:39Z</time>
      </trkpt>
      <trkpt lat="50.856114802882075" lon="13.072327254340053">
        <ele>313</ele>
        <time>2026-08-29T13:30:40Z</time>
      </trkpt>
      <trkpt lat="50.856094686314464" lon="13.072385927662253">
        <ele>313</ele>
        <time>2026-08-29T13:30:41Z</time>
      </trkpt>
      <trkpt lat="50.856077251955867" lon="13.072438901290298">
        <ele>313</ele>
        <time>2026-08-29T13:30:42Z</time>
      </trkpt>
      <trkpt lat="50.856056800112128" lon="13.0724922940135">
        <ele>313</ele>
        <time>2026-08-29T13:30:43Z</time>
      </trkpt>
      <trkpt lat="50.856032660230994" lon="13.072545519098639">
        <ele>313</ele>
        <time>2026-08-29T13:30:44Z</time>
      </trkpt>
      <trkpt lat="50.856011118739843" lon="13.072604443877935">
        <ele>313</ele>
        <time>2026-08-29T13:30:45Z</time>
      </trkpt>
      <trkpt lat="50.855989828705788" lon="13.072658255696297">
        <ele>313</ele>
        <time>2026-08-29T13:30:46Z</time>
      </trkpt>
      <trkpt lat="50.855969879776239" lon="13.072713743895292">
        <ele>313</ele>
        <time>2026-08-29T13:30:47Z</time>
      </trkpt>
      <trkpt lat="50.85595085285604" lon="13.072772417217493">
        <ele>314</ele>
        <time>2026-08-29T13:30:48Z</time>
      </trkpt>
      <trkpt lat="50.855934508144855" lon="13.072832012549043">
        <ele>314</ele>
        <time>2026-08-29T13:30:49Z</time>
      </trkpt>
      <trkpt lat="50.855911625549197" lon="13.072881801053882">
        <ele>314</ele>
        <time>2026-08-29T13:30:50Z</time>
      </trkpt>
      <trkpt lat="50.855891760438681" lon="13.072936534881592">
        <ele>314</ele>
        <time>2026-08-29T13:30:51Z</time>
      </trkpt>
      <trkpt lat="50.85587021894753" lon="13.07298875413835">
        <ele>314</ele>
        <time>2026-08-29T13:30:52Z</time>
      </trkpt>
      <trkpt lat="50.855855131521821" lon="13.073039213195443">
        <ele>315</ele>
        <time>2026-08-29T13:30:53Z</time>
      </trkpt>
      <trkpt lat="50.855837780982256" lon="13.073094449937344">
        <ele>315</ele>
        <time>2026-08-29T13:30:54Z</time>
      </trkpt>
      <trkpt lat="50.855816071853042" lon="13.073152620345354">
        <ele>315</ele>
        <time>2026-08-29T13:30:55Z</time>
      </trkpt>
      <trkpt lat="50.855799224227667" lon="13.07320567779243">
        <ele>315</ele>
        <time>2026-08-29T13:30:56Z</time>
      </trkpt>
      <trkpt lat="50.855782711878419" lon="13.073263596743345">
        <ele>315</ele>
        <time>2026-08-29T13:30:57Z</time>
      </trkpt>
      <trkpt lat="50.855763768777251" lon="13.073319001123309">
        <ele>315</ele>
        <time>2026-08-29T13:30:58Z</time>
      </trkpt>
      <trkpt lat="50.855748932808638" lon="13.073369124904275">
        <ele>316</ele>
        <time>2026-08-29T13:30:59Z</time>
      </trkpt>
      <trkpt lat="50.855731330811977" lon="13.073421595618129">
        <ele>316</ele>
        <time>2026-08-29T13:31:00Z</time>
      </trkpt>
      <trkpt lat="50.855715237557888" lon="13.073480352759361">
        <ele>316</ele>
        <time>2026-08-29T13:31:01Z</time>
      </trkpt>
      <trkpt lat="50.855705514550209" lon="13.073538020253181">
        <ele>316</ele>
        <time>2026-08-29T13:31:02Z</time>
      </trkpt>
      <trkpt lat="50.855695372447371" lon="13.073596358299255">
        <ele>316</ele>
        <time>2026-08-29T13:31:03Z</time>
      </trkpt>
      <trkpt lat="50.855684895068407" lon="13.073656456544995">
        <ele>317</ele>
        <time>2026-08-29T13:31:04Z</time>
      </trkpt>
      <trkpt lat="50.855666538700461" lon="13.073707753792405">
        <ele>317</ele>
        <time>2026-08-29T13:31:05Z</time>
      </trkpt>
      <trkpt lat="50.85565815679729" lon="13.073764080181718">
        <ele>318</ele>
        <time>2026-08-29T13:31:06Z</time>
      </trkpt>
      <trkpt lat="50.855648517608643" lon="13.073830883949995">
        <ele>318</ele>
        <time>2026-08-29T13:31:07Z</time>
      </trkpt>
      <trkpt lat="50.855638543143868" lon="13.07389173656702">
        <ele>318</ele>
        <time>2026-08-29T13:31:08Z</time>
      </trkpt>
      <trkpt lat="50.855632340535522" lon="13.073951583355665">
        <ele>318</ele>
        <time>2026-08-29T13:31:09Z</time>
      </trkpt>
      <trkpt lat="50.85562689229846" lon="13.074003215879202">
        <ele>317</ele>
        <time>2026-08-29T13:31:10Z</time>
      </trkpt>
      <trkpt lat="50.855624713003635" lon="13.07405979372561">
        <ele>317</ele>
        <time>2026-08-29T13:31:11Z</time>
      </trkpt>
      <trkpt lat="50.855620438233018" lon="13.074115701019764">
        <ele>317</ele>
        <time>2026-08-29T13:31:12Z</time>
      </trkpt>
      <trkpt lat="50.855622952803969" lon="13.074170686304569">
        <ele>317</ele>
        <time>2026-08-29T13:31:13Z</time>
      </trkpt>
      <trkpt lat="50.855620438233018" lon="13.074231622740626">
        <ele>317</ele>
        <time>2026-08-29T13:31:14Z</time>
      </trkpt>
      <trkpt lat="50.855616331100464" lon="13.074286859482527">
        <ele>316</ele>
        <time>2026-08-29T13:31:15Z</time>
      </trkpt>
      <trkpt lat="50.855602920055389" lon="13.074333211407065">
        <ele>316</ele>
        <time>2026-08-29T13:31:16Z</time>
      </trkpt>
      <trkpt lat="50.855587581172585" lon="13.074390040710568">
        <ele>316</ele>
        <time>2026-08-29T13:31:17Z</time>
      </trkpt>
      <trkpt lat="50.855567548424006" lon="13.074441254138947">
        <ele>316</ele>
        <time>2026-08-29T13:31:18Z</time>
      </trkpt>
      <trkpt lat="50.855554891750216" lon="13.074487522244453">
        <ele>316</ele>
        <time>2026-08-29T13:31:19Z</time>
      </trkpt>
      <trkpt lat="50.855544498190284" lon="13.0745386518538">
        <ele>316</ele>
        <time>2026-08-29T13:31:20Z</time>
      </trkpt>
      <trkpt lat="50.855534607544541" lon="13.0745904520154">
        <ele>316</ele>
        <time>2026-08-29T13:31:21Z</time>
      </trkpt>
      <trkpt lat="50.855532176792622" lon="13.074640491977334">
        <ele>316</ele>
        <time>2026-08-29T13:31:22Z</time>
      </trkpt>
      <trkpt lat="50.855524800717831" lon="13.07469354942441">
        <ele>316</ele>
        <time>2026-08-29T13:31:23Z</time>
      </trkpt>
      <trkpt lat="50.855516670271754" lon="13.074747109785676">
        <ele>316</ele>
        <time>2026-08-29T13:31:24Z</time>
      </trkpt>
      <trkpt lat="50.855510467663407" lon="13.074796311557293">
        <ele>316</ele>
        <time>2026-08-29T13:31:25Z</time>
      </trkpt>
      <trkpt lat="50.855507617816329" lon="13.074848614633083">
        <ele>316</ele>
        <time>2026-08-29T13:31:26Z</time>
      </trkpt>
      <trkpt lat="50.855505857616663" lon="13.074900666251779">
        <ele>316</ele>
        <time>2026-08-29T13:31:27Z</time>
      </trkpt>
      <trkpt lat="50.855505438521504" lon="13.074952131137252">
        <ele>316</ele>
        <time>2026-08-29T13:31:28Z</time>
      </trkpt>
      <trkpt lat="50.855501750484109" lon="13.075006194412708">
        <ele>316</ele>
        <time>2026-08-29T13:31:29Z</time>
      </trkpt>
      <trkpt lat="50.855498649179935" lon="13.075048103928566">
        <ele>316</ele>
        <time>2026-08-29T13:31:30Z</time>
      </trkpt>
      <trkpt lat="50.855493703857064" lon="13.075081882998347">
        <ele>316</ele>
        <time>2026-08-29T13:31:31Z</time>
      </trkpt>
      <trkpt lat="50.855492362752557" lon="13.07511767372489">
        <ele>316</ele>
        <time>2026-08-29T13:31:32Z</time>
      </trkpt>
      <trkpt lat="50.855489177629352" lon="13.075147178024054">
        <ele>315</ele>
        <time>2026-08-29T13:31:33Z</time>
      </trkpt>
      <trkpt lat="50.855481969192624" lon="13.07518657296896">
        <ele>315</ele>
        <time>2026-08-29T13:31:34Z</time>
      </trkpt>
      <trkpt lat="50.855478532612324" lon="13.075223453342915">
        <ele>315</ele>
        <time>2026-08-29T13:31:35Z</time>
      </trkpt>
      <trkpt lat="50.855478867888451" lon="13.075263854116201">
        <ele>315</ele>
        <time>2026-08-29T13:31:36Z</time>
      </trkpt>
      <trkpt lat="50.855475012212992" lon="13.075303751975298">
        <ele>315</ele>
        <time>2026-08-29T13:31:37Z</time>
      </trkpt>
      <trkpt lat="50.855473671108484" lon="13.075337195768952">
        <ele>315</ele>
        <time>2026-08-29T13:31:38Z</time>
      </trkpt>
      <trkpt lat="50.855471072718501" lon="13.075373154133558">
        <ele>315</ele>
        <time>2026-08-29T13:31:39Z</time>
      </trkpt>
      <trkpt lat="50.855464534834027" lon="13.075396874919534">
        <ele>315</ele>
        <time>2026-08-29T13:31:40Z</time>
      </trkpt>
      <trkpt lat="50.85545833222568" lon="13.075424199923873">
        <ele>315</ele>
        <time>2026-08-29T13:31:41Z</time>
      </trkpt>
      <trkpt lat="50.855452800169587" lon="13.075447836890817">
        <ele>315</ele>
        <time>2026-08-29T13:31:42Z</time>
      </trkpt>
      <trkpt lat="50.855458248406649" lon="13.075468288734555">
        <ele>315</ele>
        <time>2026-08-29T13:31:43Z</time>
      </trkpt>
      <trkpt lat="50.855463361367583" lon="13.075481029227376">
        <ele>315</ele>
        <time>2026-08-29T13:31:44Z</time>
      </trkpt>
      <trkpt lat="50.855466965585947" lon="13.075493518263102">
        <ele>314</ele>
        <time>2026-08-29T13:31:45Z</time>
      </trkpt>
      <trkpt lat="50.855462858453393" lon="13.075520340353251">
        <ele>314</ele>
        <time>2026-08-29T13:31:46Z</time>
      </trkpt>
      <trkpt lat="50.85545833222568" lon="13.075533332303166">
        <ele>314</ele>
        <time>2026-08-29T13:31:47Z</time>
      </trkpt>
      <trkpt lat="50.855452381074429" lon="13.075558478012681">
        <ele>314</ele>
        <time>2026-08-29T13:31:48Z</time>
      </trkpt>
      <trkpt lat="50.85544710047543" lon="13.075583791360259">
        <ele>314</ele>
        <time>2026-08-29T13:31:49Z</time>
      </trkpt>
      <trkpt lat="50.855439892038703" lon="13.075601980090141">
        <ele>314</ele>
        <time>2026-08-29T13:31:50Z</time>
      </trkpt>
      <trkpt lat="50.855439137667418" lon="13.075606925413013">
        <ele>313</ele>
        <time>2026-08-29T13:31:51Z</time>
      </trkpt>
      <trkpt lat="50.855441819876432" lon="13.075612206012011">
        <ele>312</ele>
        <time>2026-08-29T13:31:52Z</time>
      </trkpt>
      <trkpt lat="50.855449782684445" lon="13.075610864907503">
        <ele>311</ele>
        <time>2026-08-29T13:31:53Z</time>
      </trkpt>
      <trkpt lat="50.855449615046382" lon="13.075610278174281">
        <ele>311</ele>
        <time>2026-08-29T13:31:54Z</time>
      </trkpt>
      <trkpt lat="50.855448860675097" lon="13.075610110536218">
        <ele>312</ele>
        <time>2026-08-29T13:31:55Z</time>
      </trkpt>
      <trkpt lat="50.85544559173286" lon="13.075609356164932">
        <ele>312</ele>
        <time>2026-08-29T13:31:56Z</time>
      </trkpt>
      <trkpt lat="50.855444250628352" lon="13.07560826651752">
        <ele>310</ele>
        <time>2026-08-29T13:31:57Z</time>
      </trkpt>
      <trkpt lat="50.855439221486449" lon="13.075614217668772">
        <ele>310</ele>
        <time>2026-08-29T13:31:58Z</time>
      </trkpt>
      <trkpt lat="50.855438467115164" lon="13.075617486611009">
        <ele>310</ele>
        <time>2026-08-29T13:31:59Z</time>
      </trkpt>
      <trkpt lat="50.855436539277434" lon="13.075618827715516">
        <ele>310</ele>
        <time>2026-08-29T13:32:00Z</time>
      </trkpt>
      <trkpt lat="50.855433354154229" lon="13.075612206012011">
        <ele>311</ele>
        <time>2026-08-29T13:32:01Z</time>
      </trkpt>
      <trkpt lat="50.855433940887451" lon="13.075612206012011">
        <ele>311</ele>
        <time>2026-08-29T13:32:02Z</time>
      </trkpt>
      <trkpt lat="50.855431007221341" lon="13.075604494661093">
        <ele>312</ele>
        <time>2026-08-29T13:32:03Z</time>
      </trkpt>
      <trkpt lat="50.855435701087117" lon="13.075596112757921">
        <ele>312</ele>
        <time>2026-08-29T13:32:04Z</time>
      </trkpt>
      <trkpt lat="50.855433773249388" lon="13.075593933463097">
        <ele>312</ele>
        <time>2026-08-29T13:32:05Z</time>
      </trkpt>
      <trkpt lat="50.855427822098136" lon="13.07558773085475">
        <ele>312</ele>
        <time>2026-08-29T13:32:06Z</time>
      </trkpt>
      <trkpt lat="50.855421870946884" lon="13.075581779703498">
        <ele>312</ele>
        <time>2026-08-29T13:32:07Z</time>
      </trkpt>
      <trkpt lat="50.855417009443045" lon="13.075580103322864">
        <ele>312</ele>
        <time>2026-08-29T13:32:08Z</time>
      </trkpt>
      <trkpt lat="50.855409381911159" lon="13.075573649257421">
        <ele>311</ele>
        <time>2026-08-29T13:32:09Z</time>
      </trkpt>
      <trkpt lat="50.855398485437036" lon="13.075567614287138">
        <ele>311</ele>
        <time>2026-08-29T13:32:10Z</time>
      </trkpt>
      <trkpt lat="50.855387086048722" lon="13.075572475790977">
        <ele>312</ele>
        <time>2026-08-29T13:32:11Z</time>
      </trkpt>
      <trkpt lat="50.855379542335868" lon="13.075569374486804">
        <ele>312</ele>
        <time>2026-08-29T13:32:12Z</time>
      </trkpt>
      <trkpt lat="50.855372669175267" lon="13.075552862137556">
        <ele>312</ele>
        <time>2026-08-29T13:32:13Z</time>
      </trkpt>
      <trkpt lat="50.855376608669758" lon="13.075551521033049">
        <ele>312</ele>
        <time>2026-08-29T13:32:14Z</time>
      </trkpt>
      <trkpt lat="50.855378620326519" lon="13.075549174100161">
        <ele>312</ele>
        <time>2026-08-29T13:32:15Z</time>
      </trkpt>
      <trkpt lat="50.855379458516836" lon="13.075554706156254">
        <ele>312</ele>
        <time>2026-08-29T13:32:16Z</time>
      </trkpt>
      <trkpt lat="50.855384068563581" lon="13.075568452477455">
        <ele>312</ele>
        <time>2026-08-29T13:32:17Z</time>
      </trkpt>
      <trkpt lat="50.855384739115834" lon="13.075575493276119">
        <ele>312</ele>
        <time>2026-08-29T13:32:18Z</time>
      </trkpt>
      <trkpt lat="50.855380967259407" lon="13.075564512982965">
        <ele>312</ele>
        <time>2026-08-29T13:32:19Z</time>
      </trkpt>
      <trkpt lat="50.855382308363914" lon="13.075565015897155">
        <ele>313</ele>
        <time>2026-08-29T13:32:20Z</time>
      </trkpt>
      <trkpt lat="50.855381470173597" lon="13.075566524639726">
        <ele>313</ele>
        <time>2026-08-29T13:32:21Z</time>
      </trkpt>
      <trkpt lat="50.855374848470092" lon="13.075582031160593">
        <ele>313</ele>
        <time>2026-08-29T13:32:22Z</time>
      </trkpt>
      <trkpt lat="50.85536302998662" lon="13.075570715591311">
        <ele>313</ele>
        <time>2026-08-29T13:32:23Z</time>
      </trkpt>
      <trkpt lat="50.855357581749558" lon="13.075574319809675">
        <ele>313</ele>
        <time>2026-08-29T13:32:24Z</time>
      </trkpt>
      <trkpt lat="50.855362107977271" lon="13.075562920421362">
        <ele>313</ele>
        <time>2026-08-29T13:32:25Z</time>
      </trkpt>
      <trkpt lat="50.855357833206654" lon="13.075550515204668">
        <ele>313</ele>
        <time>2026-08-29T13:32:26Z</time>
      </trkpt>
      <trkpt lat="50.855357749387622" lon="13.075535260140896">
        <ele>314</ele>
        <time>2026-08-29T13:32:27Z</time>
      </trkpt>
      <trkpt lat="50.855359090492129" lon="13.07554230093956">
        <ele>314</ele>
        <time>2026-08-29T13:32:28Z</time>
      </trkpt>
      <trkpt lat="50.855358252301812" lon="13.075552526861429">
        <ele>314</ele>
        <time>2026-08-29T13:32:29Z</time>
      </trkpt>
      <trkpt lat="50.85536009632051" lon="13.075555544346571">
        <ele>314</ele>
        <time>2026-08-29T13:32:30Z</time>
      </trkpt>
      <trkpt lat="50.855367220938206" lon="13.075571889057755">
        <ele>314</ele>
        <time>2026-08-29T13:32:31Z</time>
      </trkpt>
      <trkpt lat="50.855375099927187" lon="13.075585886836052">
        <ele>313</ele>
        <time>2026-08-29T13:32:32Z</time>
      </trkpt>
      <trkpt lat="50.855383398011327" lon="13.075595274567604">
        <ele>313</ele>
        <time>2026-08-29T13:32:33Z</time>
      </trkpt>
      <trkpt lat="50.855387672781944" lon="13.075598292052746">
        <ele>313</ele>
        <time>2026-08-29T13:32:34Z</time>
      </trkpt>
      <trkpt lat="50.855392282828689" lon="13.075598292052746">
        <ele>313</ele>
        <time>2026-08-29T13:32:35Z</time>
      </trkpt>
      <trkpt lat="50.85540259256959" lon="13.075590245425701">
        <ele>313</ele>
        <time>2026-08-29T13:32:36Z</time>
      </trkpt>
      <trkpt lat="50.855406196787953" lon="13.075559483841062">
        <ele>313</ele>
        <time>2026-08-29T13:32:37Z</time>
      </trkpt>
      <trkpt lat="50.855405442416668" lon="13.07552176527679">
        <ele>314</ele>
        <time>2026-08-29T13:32:38Z</time>
      </trkpt>
      <trkpt lat="50.855411812663078" lon="13.075497038662434">
        <ele>314</ele>
        <time>2026-08-29T13:32:39Z</time>
      </trkpt>
      <trkpt lat="50.855416590347886" lon="13.075466696172953">
        <ele>314</ele>
        <time>2026-08-29T13:32:40Z</time>
      </trkpt>
      <trkpt lat="50.855417679995298" lon="13.075440209358931">
        <ele>314</ele>
        <time>2026-08-29T13:32:41Z</time>
      </trkpt>
      <trkpt lat="50.855418182909489" lon="13.075418081134558">
        <ele>315</ele>
        <time>2026-08-29T13:32:42Z</time>
      </trkpt>
      <trkpt lat="50.855420110747218" lon="13.075394611805677">
        <ele>315</ele>
        <time>2026-08-29T13:32:43Z</time>
      </trkpt>
      <trkpt lat="50.85541969165206" lon="13.075372399762273">
        <ele>314</ele>
        <time>2026-08-29T13:32:44Z</time>
      </trkpt>
      <trkpt lat="50.855417931452394" lon="13.075341554358602">
        <ele>314</ele>
        <time>2026-08-29T13:32:45Z</time>
      </trkpt>
      <trkpt lat="50.855409130454063" lon="13.07531364262104">
        <ele>314</ele>
        <time>2026-08-29T13:32:46Z</time>
      </trkpt>
      <trkpt lat="50.855410471558571" lon="13.075289502739906">
        <ele>314</ele>
        <time>2026-08-29T13:32:47Z</time>
      </trkpt>
      <trkpt lat="50.855413405224681" lon="13.075259579345584">
        <ele>314</ele>
        <time>2026-08-29T13:32:48Z</time>
      </trkpt>
      <trkpt lat="50.855411142110825" lon="13.075238792225718">
        <ele>314</ele>
        <time>2026-08-29T13:32:49Z</time>
      </trkpt>
      <trkpt lat="50.855411309748888" lon="13.075207192450762">
        <ele>315</ele>
        <time>2026-08-29T13:32:50Z</time>
      </trkpt>
      <trkpt lat="50.855406280606985" lon="13.075186656787992">
        <ele>315</ele>
        <time>2026-08-29T13:32:51Z</time>
      </trkpt>
      <trkpt lat="50.855397898703814" lon="13.075169725343585">
        <ele>315</ele>
        <time>2026-08-29T13:32:52Z</time>
      </trkpt>
      <trkpt lat="50.855384152382612" lon="13.075153548270464">
        <ele>316</ele>
        <time>2026-08-29T13:32:53Z</time>
      </trkpt>
      <trkpt lat="50.855370992794633" lon="13.075148854404688">
        <ele>316</ele>
        <time>2026-08-29T13:32:54Z</time>
      </trkpt>
      <trkpt lat="50.855352887883782" lon="13.075142567977309">
        <ele>316</ele>
        <time>2026-08-29T13:32:55Z</time>
      </trkpt>
      <trkpt lat="50.855335118249059" lon="13.075136449187994">
        <ele>316</ele>
        <time>2026-08-29T13:32:56Z</time>
      </trkpt>
      <trkpt lat="50.855314331129193" lon="13.075126390904188">
        <ele>316</ele>
        <time>2026-08-29T13:32:57Z</time>
      </trkpt>
      <trkpt lat="50.855291951447725" lon="13.075123708695173">
        <ele>316</ele>
        <time>2026-08-29T13:32:58Z</time>
      </trkpt>
      <trkpt lat="50.855275942012668" lon="13.07511817663908">
        <ele>317</ele>
        <time>2026-08-29T13:32:59Z</time>
      </trkpt>
      <trkpt lat="50.855256412178278" lon="13.075116332620382">
        <ele>316</ele>
        <time>2026-08-29T13:33:00Z</time>
      </trkpt>
      <trkpt lat="50.855242582038045" lon="13.075113147497177">
        <ele>316</ele>
        <time>2026-08-29T13:33:01Z</time>
      </trkpt>
      <trkpt lat="50.855222214013338" lon="13.075110632926226">
        <ele>317</ele>
        <time>2026-08-29T13:33:02Z</time>
      </trkpt>
      <trkpt lat="50.855208719149232" lon="13.075113650411367">
        <ele>317</ele>
        <time>2026-08-29T13:33:03Z</time>
      </trkpt>
      <trkpt lat="50.855191871523857" lon="13.075115578249097">
        <ele>317</ele>
        <time>2026-08-29T13:33:04Z</time>
      </trkpt>
      <trkpt lat="50.855178460478783" lon="13.075117003172636">
        <ele>318</ele>
        <time>2026-08-29T13:33:05Z</time>
      </trkpt>
      <trkpt lat="50.855168318375945" lon="13.075132258236408">
        <ele>318</ele>
        <time>2026-08-29T13:33:06Z</time>
      </trkpt>
      <trkpt lat="50.855158092454076" lon="13.07514357380569">
        <ele>317</ele>
        <time>2026-08-29T13:33:07Z</time>
      </trkpt>
      <trkpt lat="50.855146860703826" lon="13.075165199115872">
        <ele>317</ele>
        <time>2026-08-29T13:33:08Z</time>
      </trkpt>
      <trkpt lat="50.855139568448067" lon="13.07519000954926">
        <ele>317</ele>
        <time>2026-08-29T13:33:09Z</time>
      </trkpt>
      <trkpt lat="50.855135461315513" lon="13.075216999277472">
        <ele>317</ele>
        <time>2026-08-29T13:33:10Z</time>
      </trkpt>
      <trkpt lat="50.855129258707166" lon="13.075247341766953">
        <ele>317</ele>
        <time>2026-08-29T13:33:11Z</time>
      </trkpt>
      <trkpt lat="50.855124229565263" lon="13.075276929885149">
        <ele>317</ele>
        <time>2026-08-29T13:33:12Z</time>
      </trkpt>
      <trkpt lat="50.85512263700366" lon="13.075304422527552">
        <ele>318</ele>
        <time>2026-08-29T13:33:13Z</time>
      </trkpt>
      <trkpt lat="50.855116350576282" lon="13.075324622914195">
        <ele>318</ele>
        <time>2026-08-29T13:33:14Z</time>
      </trkpt>
      <trkpt lat="50.855111237615347" lon="13.075343482196331">
        <ele>318</ele>
        <time>2026-08-29T13:33:15Z</time>
      </trkpt>
      <trkpt lat="50.855105621740222" lon="13.075359994545579">
        <ele>318</ele>
        <time>2026-08-29T13:33:16Z</time>
      </trkpt>
      <trkpt lat="50.855104783549905" lon="13.075373908504844">
        <ele>318</ele>
        <time>2026-08-29T13:33:17Z</time>
      </trkpt>
      <trkpt lat="50.855097826570272" lon="13.075381703674793">
        <ele>318</ele>
        <time>2026-08-29T13:33:18Z</time>
      </trkpt>
      <trkpt lat="50.85509330034256" lon="13.075387738645077">
        <ele>318</ele>
        <time>2026-08-29T13:33:19Z</time>
      </trkpt>
      <trkpt lat="50.855088774114847" lon="13.075395030900836">
        <ele>318</ele>
        <time>2026-08-29T13:33:20Z</time>
      </trkpt>
      <trkpt lat="50.855089863762259" lon="13.07539913803339">
        <ele>318</ele>
        <time>2026-08-29T13:33:21Z</time>
      </trkpt>
      <trkpt lat="50.855085086077452" lon="13.075411962345243">
        <ele>318</ele>
        <time>2026-08-29T13:33:22Z</time>
      </trkpt>
      <trkpt lat="50.855082739144564" lon="13.075427385047078">
        <ele>318</ele>
        <time>2026-08-29T13:33:23Z</time>
      </trkpt>
      <trkpt lat="50.855089528486133" lon="13.075429480522871">
        <ele>318</ele>
        <time>2026-08-29T13:33:24Z</time>
      </trkpt>
      <trkpt lat="50.855097491294146" lon="13.07543040253222">
        <ele>318</ele>
        <time>2026-08-29T13:33:25Z</time>
      </trkpt>
      <trkpt lat="50.855104615911841" lon="13.075432917103171">
        <ele>318</ele>
        <time>2026-08-29T13:33:26Z</time>
      </trkpt>
      <trkpt lat="50.855113416910172" lon="13.075443478301167">
        <ele>318</ele>
        <time>2026-08-29T13:33:27Z</time>
      </trkpt>
      <trkpt lat="50.855122972279787" lon="13.075452111661434">
        <ele>318</ele>
        <time>2026-08-29T13:33:28Z</time>
      </trkpt>
      <trkpt lat="50.855132108554244" lon="13.075458817183971">
        <ele>318</ele>
        <time>2026-08-29T13:33:29Z</time>
      </trkpt>
      <trkpt lat="50.855131186544895" lon="13.07546267285943">
        <ele>318</ele>
        <time>2026-08-29T13:33:30Z</time>
      </trkpt>
    </trkseg>
  </trk>

</gpx>